<?xml version="1.0" encoding="UTF-8" standalone="no" ?>
<gpx xmlns="http://www.topografix.com/GPX/1/1" xmlns:xsi="http://www.w3.org/2001/XMLSchema-instance" xsi:schemaLocation="http://www.topografix.com/GPX/1/1 http://www.topografix.com/GPX/1/1/gpx.xsd" version="1.1" creator="VisuGPX - https://www.visugpx.com">
  <metadata>
    <name>ski Combe Benite</name>
  </metadata>
  <trk>
    <name><![CDATA[ski Combe Benite]]></name>
    <trkseg>
      <trkpt lat="45.57852" lon="6.65233">
        <ele>1365.8000488281</ele>
        <time>2019-12-30T08:31:36.000Z</time>
      </trkpt>
      <trkpt lat="45.57845" lon="6.65212">
        <ele>1366.4000244141</ele>
        <time>2019-12-30T08:35:58.000Z</time>
      </trkpt>
      <trkpt lat="45.57841" lon="6.65211">
        <ele>1367</ele>
        <time>2019-12-30T08:36:01.000Z</time>
      </trkpt>
      <trkpt lat="45.5783" lon="6.65204">
        <ele>1368.4000244141</ele>
        <time>2019-12-30T08:36:09.000Z</time>
      </trkpt>
      <trkpt lat="45.57823" lon="6.65199">
        <ele>1369</ele>
        <time>2019-12-30T08:36:15.000Z</time>
      </trkpt>
      <trkpt lat="45.57819" lon="6.65195">
        <ele>1369.4000244141</ele>
        <time>2019-12-30T08:36:19.000Z</time>
      </trkpt>
      <trkpt lat="45.57817" lon="6.65193">
        <ele>1369.5999755859</ele>
        <time>2019-12-30T08:36:21.000Z</time>
      </trkpt>
      <trkpt lat="45.57842" lon="6.65148">
        <ele>1381</ele>
        <time>2019-12-30T08:37:27.000Z</time>
      </trkpt>
      <trkpt lat="45.57844" lon="6.65145">
        <ele>1381.5999755859</ele>
        <time>2019-12-30T08:37:30.000Z</time>
      </trkpt>
      <trkpt lat="45.5786" lon="6.6511">
        <ele>1392.8000488281</ele>
        <time>2019-12-30T08:38:30.000Z</time>
      </trkpt>
      <trkpt lat="45.57858" lon="6.65105">
        <ele>1393.4000244141</ele>
        <time>2019-12-30T08:38:36.000Z</time>
      </trkpt>
      <trkpt lat="45.57857" lon="6.65101">
        <ele>1393.8000488281</ele>
        <time>2019-12-30T08:38:41.000Z</time>
      </trkpt>
      <trkpt lat="45.57857" lon="6.651">
        <ele>1394</ele>
        <time>2019-12-30T08:38:42.000Z</time>
      </trkpt>
      <trkpt lat="45.57859" lon="6.65098">
        <ele>1395.1999511719</ele>
        <time>2019-12-30T08:38:47.000Z</time>
      </trkpt>
      <trkpt lat="45.5786" lon="6.65097">
        <ele>1395.4000244141</ele>
        <time>2019-12-30T08:38:48.000Z</time>
      </trkpt>
      <trkpt lat="45.5786" lon="6.65097">
        <ele>1395.4000244141</ele>
        <time>2019-12-30T08:38:49.000Z</time>
      </trkpt>
      <trkpt lat="45.57863" lon="6.65096">
        <ele>1396.5999755859</ele>
        <time>2019-12-30T08:38:53.000Z</time>
      </trkpt>
      <trkpt lat="45.57864" lon="6.65096">
        <ele>1397.4000244141</ele>
        <time>2019-12-30T08:38:55.000Z</time>
      </trkpt>
      <trkpt lat="45.57865" lon="6.65096">
        <ele>1398</ele>
        <time>2019-12-30T08:38:56.000Z</time>
      </trkpt>
      <trkpt lat="45.57869" lon="6.65096">
        <ele>1399</ele>
        <time>2019-12-30T08:39:01.000Z</time>
      </trkpt>
      <trkpt lat="45.57871" lon="6.65096">
        <ele>1399</ele>
        <time>2019-12-30T08:39:02.000Z</time>
      </trkpt>
      <trkpt lat="45.57873" lon="6.65096">
        <ele>1400.1999511719</ele>
        <time>2019-12-30T08:39:06.000Z</time>
      </trkpt>
      <trkpt lat="45.57875" lon="6.65095">
        <ele>1400.5999755859</ele>
        <time>2019-12-30T08:39:08.000Z</time>
      </trkpt>
      <trkpt lat="45.57878" lon="6.65096">
        <ele>1401.4000244141</ele>
        <time>2019-12-30T08:39:11.000Z</time>
      </trkpt>
      <trkpt lat="45.5788" lon="6.65096">
        <ele>1402</ele>
        <time>2019-12-30T08:39:13.000Z</time>
      </trkpt>
      <trkpt lat="45.57881" lon="6.65096">
        <ele>1402.5999755859</ele>
        <time>2019-12-30T08:39:15.000Z</time>
      </trkpt>
      <trkpt lat="45.57885" lon="6.65096">
        <ele>1403.4000244141</ele>
        <time>2019-12-30T08:39:19.000Z</time>
      </trkpt>
      <trkpt lat="45.57886" lon="6.65096">
        <ele>1403.8000488281</ele>
        <time>2019-12-30T08:39:20.000Z</time>
      </trkpt>
      <trkpt lat="45.57889" lon="6.65096">
        <ele>1404.1999511719</ele>
        <time>2019-12-30T08:39:22.000Z</time>
      </trkpt>
      <trkpt lat="45.57891" lon="6.65095">
        <ele>1404.8000488281</ele>
        <time>2019-12-30T08:39:25.000Z</time>
      </trkpt>
      <trkpt lat="45.57892" lon="6.65095">
        <ele>1405</ele>
        <time>2019-12-30T08:39:26.000Z</time>
      </trkpt>
      <trkpt lat="45.57894" lon="6.65094">
        <ele>1406</ele>
        <time>2019-12-30T08:39:32.000Z</time>
      </trkpt>
      <trkpt lat="45.57898" lon="6.65094">
        <ele>1406.4000244141</ele>
        <time>2019-12-30T08:39:37.000Z</time>
      </trkpt>
      <trkpt lat="45.57898" lon="6.65094">
        <ele>1407.1999511719</ele>
        <time>2019-12-30T08:39:40.000Z</time>
      </trkpt>
      <trkpt lat="45.57899" lon="6.65094">
        <ele>1407.8000488281</ele>
        <time>2019-12-30T08:39:44.000Z</time>
      </trkpt>
      <trkpt lat="45.57901" lon="6.65094">
        <ele>1408.1999511719</ele>
        <time>2019-12-30T08:39:47.000Z</time>
      </trkpt>
      <trkpt lat="45.57903" lon="6.65093">
        <ele>1408.8000488281</ele>
        <time>2019-12-30T08:39:50.000Z</time>
      </trkpt>
      <trkpt lat="45.57905" lon="6.65093">
        <ele>1409.4000244141</ele>
        <time>2019-12-30T08:39:53.000Z</time>
      </trkpt>
      <trkpt lat="45.57906" lon="6.65093">
        <ele>1409.5999755859</ele>
        <time>2019-12-30T08:39:55.000Z</time>
      </trkpt>
      <trkpt lat="45.5791" lon="6.65093">
        <ele>1410.4000244141</ele>
        <time>2019-12-30T08:40:00.000Z</time>
      </trkpt>
      <trkpt lat="45.57913" lon="6.65093">
        <ele>1411</ele>
        <time>2019-12-30T08:40:05.000Z</time>
      </trkpt>
      <trkpt lat="45.57914" lon="6.65093">
        <ele>1411.8000488281</ele>
        <time>2019-12-30T08:40:08.000Z</time>
      </trkpt>
      <trkpt lat="45.57916" lon="6.65093">
        <ele>1412.8000488281</ele>
        <time>2019-12-30T08:40:11.000Z</time>
      </trkpt>
      <trkpt lat="45.57918" lon="6.65093">
        <ele>1413</ele>
        <time>2019-12-30T08:40:12.000Z</time>
      </trkpt>
      <trkpt lat="45.57919" lon="6.65094">
        <ele>1413.8000488281</ele>
        <time>2019-12-30T08:40:17.000Z</time>
      </trkpt>
      <trkpt lat="45.5792" lon="6.65093">
        <ele>1414</ele>
        <time>2019-12-30T08:40:21.000Z</time>
      </trkpt>
      <trkpt lat="45.5792" lon="6.65093">
        <ele>1414.4000244141</ele>
        <time>2019-12-30T08:40:24.000Z</time>
      </trkpt>
      <trkpt lat="45.57924" lon="6.65093">
        <ele>1415</ele>
        <time>2019-12-30T08:40:28.000Z</time>
      </trkpt>
      <trkpt lat="45.57925" lon="6.65093">
        <ele>1415.1999511719</ele>
        <time>2019-12-30T08:40:30.000Z</time>
      </trkpt>
      <trkpt lat="45.57925" lon="6.65093">
        <ele>1416.1999511719</ele>
        <time>2019-12-30T08:40:33.000Z</time>
      </trkpt>
      <trkpt lat="45.57925" lon="6.65093">
        <ele>1416.1999511719</ele>
        <time>2019-12-30T08:40:40.000Z</time>
      </trkpt>
      <trkpt lat="45.57924" lon="6.65086">
        <ele>1416.5999755859</ele>
        <time>2019-12-30T08:40:47.000Z</time>
      </trkpt>
      <trkpt lat="45.57924" lon="6.65085">
        <ele>1416.5999755859</ele>
        <time>2019-12-30T08:40:48.000Z</time>
      </trkpt>
      <trkpt lat="45.57922" lon="6.65079">
        <ele>1417.1999511719</ele>
        <time>2019-12-30T08:40:52.000Z</time>
      </trkpt>
      <trkpt lat="45.57922" lon="6.65077">
        <ele>1417.4000244141</ele>
        <time>2019-12-30T08:40:53.000Z</time>
      </trkpt>
      <trkpt lat="45.57922" lon="6.65075">
        <ele>1418.4000244141</ele>
        <time>2019-12-30T08:40:56.000Z</time>
      </trkpt>
      <trkpt lat="45.57921" lon="6.65071">
        <ele>1418.5999755859</ele>
        <time>2019-12-30T08:40:58.000Z</time>
      </trkpt>
      <trkpt lat="45.57921" lon="6.65067">
        <ele>1419.5999755859</ele>
        <time>2019-12-30T08:41:02.000Z</time>
      </trkpt>
      <trkpt lat="45.57921" lon="6.65065">
        <ele>1419.8000488281</ele>
        <time>2019-12-30T08:41:03.000Z</time>
      </trkpt>
      <trkpt lat="45.5792" lon="6.65062">
        <ele>1420.5999755859</ele>
        <time>2019-12-30T08:41:07.000Z</time>
      </trkpt>
      <trkpt lat="45.57919" lon="6.65058">
        <ele>1421</ele>
        <time>2019-12-30T08:41:09.000Z</time>
      </trkpt>
      <trkpt lat="45.57918" lon="6.65054">
        <ele>1421.5999755859</ele>
        <time>2019-12-30T08:41:13.000Z</time>
      </trkpt>
      <trkpt lat="45.57917" lon="6.65052">
        <ele>1421.8000488281</ele>
        <time>2019-12-30T08:41:14.000Z</time>
      </trkpt>
      <trkpt lat="45.57916" lon="6.6505">
        <ele>1422.5999755859</ele>
        <time>2019-12-30T08:41:18.000Z</time>
      </trkpt>
      <trkpt lat="45.57916" lon="6.65048">
        <ele>1422.8000488281</ele>
        <time>2019-12-30T08:41:19.000Z</time>
      </trkpt>
      <trkpt lat="45.57915" lon="6.65045">
        <ele>1423.8000488281</ele>
        <time>2019-12-30T08:41:23.000Z</time>
      </trkpt>
      <trkpt lat="45.57915" lon="6.65043">
        <ele>1424</ele>
        <time>2019-12-30T08:41:24.000Z</time>
      </trkpt>
      <trkpt lat="45.57914" lon="6.6504">
        <ele>1424.8000488281</ele>
        <time>2019-12-30T08:41:28.000Z</time>
      </trkpt>
      <trkpt lat="45.57914" lon="6.65039">
        <ele>1425</ele>
        <time>2019-12-30T08:41:29.000Z</time>
      </trkpt>
      <trkpt lat="45.57913" lon="6.65035">
        <ele>1425.8000488281</ele>
        <time>2019-12-30T08:41:34.000Z</time>
      </trkpt>
      <trkpt lat="45.57913" lon="6.65032">
        <ele>1426.1999511719</ele>
        <time>2019-12-30T08:41:35.000Z</time>
      </trkpt>
      <trkpt lat="45.57912" lon="6.65031">
        <ele>1427</ele>
        <time>2019-12-30T08:41:38.000Z</time>
      </trkpt>
      <trkpt lat="45.57912" lon="6.65028">
        <ele>1427.5999755859</ele>
        <time>2019-12-30T08:41:41.000Z</time>
      </trkpt>
      <trkpt lat="45.57911" lon="6.65025">
        <ele>1428</ele>
        <time>2019-12-30T08:41:43.000Z</time>
      </trkpt>
      <trkpt lat="45.57911" lon="6.65025">
        <ele>1428</ele>
        <time>2019-12-30T08:41:44.000Z</time>
      </trkpt>
      <trkpt lat="45.57911" lon="6.65023">
        <ele>1428.1999511719</ele>
        <time>2019-12-30T08:41:45.000Z</time>
      </trkpt>
      <trkpt lat="45.57911" lon="6.65023">
        <ele>1428.4000244141</ele>
        <time>2019-12-30T08:41:46.000Z</time>
      </trkpt>
      <trkpt lat="45.57911" lon="6.65018">
        <ele>1429.1999511719</ele>
        <time>2019-12-30T08:41:50.000Z</time>
      </trkpt>
      <trkpt lat="45.5791" lon="6.65018">
        <ele>1429.4000244141</ele>
        <time>2019-12-30T08:41:52.000Z</time>
      </trkpt>
      <trkpt lat="45.57911" lon="6.65016">
        <ele>1430</ele>
        <time>2019-12-30T08:41:57.000Z</time>
      </trkpt>
      <trkpt lat="45.57912" lon="6.65016">
        <ele>1430.1999511719</ele>
        <time>2019-12-30T08:41:58.000Z</time>
      </trkpt>
      <trkpt lat="45.57915" lon="6.65018">
        <ele>1431.4000244141</ele>
        <time>2019-12-30T08:42:03.000Z</time>
      </trkpt>
      <trkpt lat="45.57916" lon="6.65018">
        <ele>1431.4000244141</ele>
        <time>2019-12-30T08:42:04.000Z</time>
      </trkpt>
      <trkpt lat="45.57922" lon="6.65019">
        <ele>1432.5999755859</ele>
        <time>2019-12-30T08:42:11.000Z</time>
      </trkpt>
      <trkpt lat="45.57925" lon="6.65017">
        <ele>1433.5999755859</ele>
        <time>2019-12-30T08:42:16.000Z</time>
      </trkpt>
      <trkpt lat="45.57926" lon="6.65015">
        <ele>1434.1999511719</ele>
        <time>2019-12-30T08:42:18.000Z</time>
      </trkpt>
      <trkpt lat="45.57927" lon="6.65009">
        <ele>1434.8000488281</ele>
        <time>2019-12-30T08:42:22.000Z</time>
      </trkpt>
      <trkpt lat="45.57927" lon="6.65007">
        <ele>1435.4000244141</ele>
        <time>2019-12-30T08:42:24.000Z</time>
      </trkpt>
      <trkpt lat="45.57927" lon="6.65003">
        <ele>1436</ele>
        <time>2019-12-30T08:42:27.000Z</time>
      </trkpt>
      <trkpt lat="45.57927" lon="6.64998">
        <ele>1436.5999755859</ele>
        <time>2019-12-30T08:42:30.000Z</time>
      </trkpt>
      <trkpt lat="45.57927" lon="6.64996">
        <ele>1437.1999511719</ele>
        <time>2019-12-30T08:42:33.000Z</time>
      </trkpt>
      <trkpt lat="45.57928" lon="6.64992">
        <ele>1437.8000488281</ele>
        <time>2019-12-30T08:42:36.000Z</time>
      </trkpt>
      <trkpt lat="45.57928" lon="6.64988">
        <ele>1438.4000244141</ele>
        <time>2019-12-30T08:42:39.000Z</time>
      </trkpt>
      <trkpt lat="45.57927" lon="6.64981">
        <ele>1439.1999511719</ele>
        <time>2019-12-30T08:42:43.000Z</time>
      </trkpt>
      <trkpt lat="45.57927" lon="6.64982">
        <ele>1439.4000244141</ele>
        <time>2019-12-30T08:42:44.000Z</time>
      </trkpt>
      <trkpt lat="45.57927" lon="6.64976">
        <ele>1440</ele>
        <time>2019-12-30T08:42:48.000Z</time>
      </trkpt>
      <trkpt lat="45.57926" lon="6.64973">
        <ele>1440.5999755859</ele>
        <time>2019-12-30T08:42:50.000Z</time>
      </trkpt>
      <trkpt lat="45.57925" lon="6.64969">
        <ele>1441</ele>
        <time>2019-12-30T08:42:53.000Z</time>
      </trkpt>
      <trkpt lat="45.57924" lon="6.64965">
        <ele>1441.5999755859</ele>
        <time>2019-12-30T08:42:56.000Z</time>
      </trkpt>
      <trkpt lat="45.57924" lon="6.64964">
        <ele>1442.1999511719</ele>
        <time>2019-12-30T08:42:58.000Z</time>
      </trkpt>
      <trkpt lat="45.57924" lon="6.64964">
        <ele>1442.8000488281</ele>
        <time>2019-12-30T08:43:00.000Z</time>
      </trkpt>
      <trkpt lat="45.57923" lon="6.64961">
        <ele>1443.1999511719</ele>
        <time>2019-12-30T08:43:05.000Z</time>
      </trkpt>
      <trkpt lat="45.57921" lon="6.64955">
        <ele>1443.8000488281</ele>
        <time>2019-12-30T08:43:11.000Z</time>
      </trkpt>
      <trkpt lat="45.5792" lon="6.64951">
        <ele>1445</ele>
        <time>2019-12-30T08:43:15.000Z</time>
      </trkpt>
      <trkpt lat="45.57918" lon="6.64949">
        <ele>1445.5999755859</ele>
        <time>2019-12-30T08:43:18.000Z</time>
      </trkpt>
      <trkpt lat="45.57918" lon="6.64948">
        <ele>1446</ele>
        <time>2019-12-30T08:43:20.000Z</time>
      </trkpt>
      <trkpt lat="45.57916" lon="6.64943">
        <ele>1446.8000488281</ele>
        <time>2019-12-30T08:43:24.000Z</time>
      </trkpt>
      <trkpt lat="45.57916" lon="6.64943">
        <ele>1447</ele>
        <time>2019-12-30T08:43:25.000Z</time>
      </trkpt>
      <trkpt lat="45.57915" lon="6.6494">
        <ele>1448.1999511719</ele>
        <time>2019-12-30T08:43:29.000Z</time>
      </trkpt>
      <trkpt lat="45.57915" lon="6.6494">
        <ele>1448.5999755859</ele>
        <time>2019-12-30T08:43:31.000Z</time>
      </trkpt>
      <trkpt lat="45.57914" lon="6.64937">
        <ele>1449.4000244141</ele>
        <time>2019-12-30T08:43:35.000Z</time>
      </trkpt>
      <trkpt lat="45.57914" lon="6.64937">
        <ele>1449.8000488281</ele>
        <time>2019-12-30T08:43:39.000Z</time>
      </trkpt>
      <trkpt lat="45.57912" lon="6.64933">
        <ele>1449.8000488281</ele>
        <time>2019-12-30T08:43:46.000Z</time>
      </trkpt>
      <trkpt lat="45.57911" lon="6.64931">
        <ele>1450.4000244141</ele>
        <time>2019-12-30T08:43:49.000Z</time>
      </trkpt>
      <trkpt lat="45.57909" lon="6.64928">
        <ele>1451</ele>
        <time>2019-12-30T08:43:52.000Z</time>
      </trkpt>
      <trkpt lat="45.57908" lon="6.64925">
        <ele>1451.5999755859</ele>
        <time>2019-12-30T08:43:54.000Z</time>
      </trkpt>
      <trkpt lat="45.57907" lon="6.64922">
        <ele>1452.4000244141</ele>
        <time>2019-12-30T08:43:58.000Z</time>
      </trkpt>
      <trkpt lat="45.57907" lon="6.6492">
        <ele>1452.5999755859</ele>
        <time>2019-12-30T08:44:00.000Z</time>
      </trkpt>
      <trkpt lat="45.57905" lon="6.64915">
        <ele>1453.5999755859</ele>
        <time>2019-12-30T08:44:05.000Z</time>
      </trkpt>
      <trkpt lat="45.57905" lon="6.64913">
        <ele>1453.8000488281</ele>
        <time>2019-12-30T08:44:06.000Z</time>
      </trkpt>
      <trkpt lat="45.57904" lon="6.64909">
        <ele>1454.8000488281</ele>
        <time>2019-12-30T08:44:10.000Z</time>
      </trkpt>
      <trkpt lat="45.57904" lon="6.64907">
        <ele>1455.1999511719</ele>
        <time>2019-12-30T08:44:11.000Z</time>
      </trkpt>
      <trkpt lat="45.57904" lon="6.64905">
        <ele>1455.4000244141</ele>
        <time>2019-12-30T08:44:12.000Z</time>
      </trkpt>
      <trkpt lat="45.57903" lon="6.649">
        <ele>1456</ele>
        <time>2019-12-30T08:44:16.000Z</time>
      </trkpt>
      <trkpt lat="45.57903" lon="6.64897">
        <ele>1457</ele>
        <time>2019-12-30T08:44:21.000Z</time>
      </trkpt>
      <trkpt lat="45.57902" lon="6.64892">
        <ele>1457.8000488281</ele>
        <time>2019-12-30T08:44:26.000Z</time>
      </trkpt>
      <trkpt lat="45.57902" lon="6.6489">
        <ele>1458.1999511719</ele>
        <time>2019-12-30T08:44:28.000Z</time>
      </trkpt>
      <trkpt lat="45.57901" lon="6.64887">
        <ele>1459</ele>
        <time>2019-12-30T08:44:31.000Z</time>
      </trkpt>
      <trkpt lat="45.57902" lon="6.64884">
        <ele>1459.5999755859</ele>
        <time>2019-12-30T08:44:33.000Z</time>
      </trkpt>
      <trkpt lat="45.57901" lon="6.6488">
        <ele>1460.4000244141</ele>
        <time>2019-12-30T08:44:37.000Z</time>
      </trkpt>
      <trkpt lat="45.57902" lon="6.64878">
        <ele>1460.8000488281</ele>
        <time>2019-12-30T08:44:40.000Z</time>
      </trkpt>
      <trkpt lat="45.57905" lon="6.64877">
        <ele>1461.4000244141</ele>
        <time>2019-12-30T08:44:43.000Z</time>
      </trkpt>
      <trkpt lat="45.57905" lon="6.64877">
        <ele>1461.8000488281</ele>
        <time>2019-12-30T08:44:44.000Z</time>
      </trkpt>
      <trkpt lat="45.57909" lon="6.64878">
        <ele>1462.8000488281</ele>
        <time>2019-12-30T08:44:49.000Z</time>
      </trkpt>
      <trkpt lat="45.57912" lon="6.64876">
        <ele>1463.1999511719</ele>
        <time>2019-12-30T08:44:51.000Z</time>
      </trkpt>
      <trkpt lat="45.57913" lon="6.64877">
        <ele>1464</ele>
        <time>2019-12-30T08:44:54.000Z</time>
      </trkpt>
      <trkpt lat="45.57915" lon="6.64876">
        <ele>1464.5999755859</ele>
        <time>2019-12-30T08:44:57.000Z</time>
      </trkpt>
      <trkpt lat="45.57917" lon="6.64876">
        <ele>1465</ele>
        <time>2019-12-30T08:44:59.000Z</time>
      </trkpt>
      <trkpt lat="45.57919" lon="6.64876">
        <ele>1466</ele>
        <time>2019-12-30T08:45:03.000Z</time>
      </trkpt>
      <trkpt lat="45.5792" lon="6.64875">
        <ele>1466.1999511719</ele>
        <time>2019-12-30T08:45:04.000Z</time>
      </trkpt>
      <trkpt lat="45.57923" lon="6.64874">
        <ele>1467.1999511719</ele>
        <time>2019-12-30T08:45:08.000Z</time>
      </trkpt>
      <trkpt lat="45.57924" lon="6.64874">
        <ele>1467.5999755859</ele>
        <time>2019-12-30T08:45:10.000Z</time>
      </trkpt>
      <trkpt lat="45.57929" lon="6.64874">
        <ele>1468.4000244141</ele>
        <time>2019-12-30T08:45:17.000Z</time>
      </trkpt>
      <trkpt lat="45.57931" lon="6.64874">
        <ele>1468.5999755859</ele>
        <time>2019-12-30T08:45:18.000Z</time>
      </trkpt>
      <trkpt lat="45.57933" lon="6.64873">
        <ele>1469.4000244141</ele>
        <time>2019-12-30T08:45:20.000Z</time>
      </trkpt>
      <trkpt lat="45.57935" lon="6.64871">
        <ele>1470.4000244141</ele>
        <time>2019-12-30T08:45:24.000Z</time>
      </trkpt>
      <trkpt lat="45.57936" lon="6.6487">
        <ele>1470.5999755859</ele>
        <time>2019-12-30T08:45:25.000Z</time>
      </trkpt>
      <trkpt lat="45.5794" lon="6.64868">
        <ele>1471.5999755859</ele>
        <time>2019-12-30T08:45:30.000Z</time>
      </trkpt>
      <trkpt lat="45.5794" lon="6.64868">
        <ele>1471.8000488281</ele>
        <time>2019-12-30T08:45:31.000Z</time>
      </trkpt>
      <trkpt lat="45.57944" lon="6.64866">
        <ele>1472.8000488281</ele>
        <time>2019-12-30T08:45:36.000Z</time>
      </trkpt>
      <trkpt lat="45.57945" lon="6.64866">
        <ele>1473</ele>
        <time>2019-12-30T08:45:38.000Z</time>
      </trkpt>
      <trkpt lat="45.57949" lon="6.64867">
        <ele>1474</ele>
        <time>2019-12-30T08:45:43.000Z</time>
      </trkpt>
      <trkpt lat="45.57952" lon="6.64866">
        <ele>1474.5999755859</ele>
        <time>2019-12-30T08:45:46.000Z</time>
      </trkpt>
      <trkpt lat="45.57953" lon="6.64866">
        <ele>1475</ele>
        <time>2019-12-30T08:45:48.000Z</time>
      </trkpt>
      <trkpt lat="45.57957" lon="6.64866">
        <ele>1476.1999511719</ele>
        <time>2019-12-30T08:45:52.000Z</time>
      </trkpt>
      <trkpt lat="45.57957" lon="6.64866">
        <ele>1476.1999511719</ele>
        <time>2019-12-30T08:45:53.000Z</time>
      </trkpt>
      <trkpt lat="45.57961" lon="6.64865">
        <ele>1477.4000244141</ele>
        <time>2019-12-30T08:45:58.000Z</time>
      </trkpt>
      <trkpt lat="45.57962" lon="6.64864">
        <ele>1477.5999755859</ele>
        <time>2019-12-30T08:46:00.000Z</time>
      </trkpt>
      <trkpt lat="45.5796" lon="6.64859">
        <ele>1478</ele>
        <time>2019-12-30T08:46:05.000Z</time>
      </trkpt>
      <trkpt lat="45.5796" lon="6.64856">
        <ele>1478.5999755859</ele>
        <time>2019-12-30T08:46:07.000Z</time>
      </trkpt>
      <trkpt lat="45.57959" lon="6.64853">
        <ele>1479.8000488281</ele>
        <time>2019-12-30T08:46:10.000Z</time>
      </trkpt>
      <trkpt lat="45.57958" lon="6.64851">
        <ele>1480</ele>
        <time>2019-12-30T08:46:11.000Z</time>
      </trkpt>
      <trkpt lat="45.57956" lon="6.64848">
        <ele>1480.8000488281</ele>
        <time>2019-12-30T08:46:16.000Z</time>
      </trkpt>
      <trkpt lat="45.57956" lon="6.64843">
        <ele>1481.5999755859</ele>
        <time>2019-12-30T08:46:19.000Z</time>
      </trkpt>
      <trkpt lat="45.57955" lon="6.64842">
        <ele>1481.8000488281</ele>
        <time>2019-12-30T08:46:21.000Z</time>
      </trkpt>
      <trkpt lat="45.57953" lon="6.64838">
        <ele>1482.8000488281</ele>
        <time>2019-12-30T08:46:25.000Z</time>
      </trkpt>
      <trkpt lat="45.57952" lon="6.64836">
        <ele>1482.8000488281</ele>
        <time>2019-12-30T08:46:26.000Z</time>
      </trkpt>
      <trkpt lat="45.5795" lon="6.64831">
        <ele>1484</ele>
        <time>2019-12-30T08:46:31.000Z</time>
      </trkpt>
      <trkpt lat="45.57949" lon="6.64826">
        <ele>1485</ele>
        <time>2019-12-30T08:46:37.000Z</time>
      </trkpt>
      <trkpt lat="45.57948" lon="6.64824">
        <ele>1485.1999511719</ele>
        <time>2019-12-30T08:46:38.000Z</time>
      </trkpt>
      <trkpt lat="45.57947" lon="6.64821">
        <ele>1486.5999755859</ele>
        <time>2019-12-30T08:46:41.000Z</time>
      </trkpt>
      <trkpt lat="45.57946" lon="6.64818">
        <ele>1487.4000244141</ele>
        <time>2019-12-30T08:46:44.000Z</time>
      </trkpt>
      <trkpt lat="45.57946" lon="6.64816">
        <ele>1487.4000244141</ele>
        <time>2019-12-30T08:46:45.000Z</time>
      </trkpt>
      <trkpt lat="45.57946" lon="6.64813">
        <ele>1487.8000488281</ele>
        <time>2019-12-30T08:46:47.000Z</time>
      </trkpt>
      <trkpt lat="45.57945" lon="6.64812">
        <ele>1488.1999511719</ele>
        <time>2019-12-30T08:46:49.000Z</time>
      </trkpt>
      <trkpt lat="45.57945" lon="6.64808">
        <ele>1489</ele>
        <time>2019-12-30T08:46:54.000Z</time>
      </trkpt>
      <trkpt lat="45.57946" lon="6.64801">
        <ele>1489.5999755859</ele>
        <time>2019-12-30T08:46:59.000Z</time>
      </trkpt>
      <trkpt lat="45.57946" lon="6.64799">
        <ele>1490</ele>
        <time>2019-12-30T08:47:01.000Z</time>
      </trkpt>
      <trkpt lat="45.57946" lon="6.64793">
        <ele>1490.8000488281</ele>
        <time>2019-12-30T08:47:04.000Z</time>
      </trkpt>
      <trkpt lat="45.57946" lon="6.64792">
        <ele>1491</ele>
        <time>2019-12-30T08:47:05.000Z</time>
      </trkpt>
      <trkpt lat="45.57948" lon="6.64785">
        <ele>1492</ele>
        <time>2019-12-30T08:47:10.000Z</time>
      </trkpt>
      <trkpt lat="45.57948" lon="6.64783">
        <ele>1492.1999511719</ele>
        <time>2019-12-30T08:47:11.000Z</time>
      </trkpt>
      <trkpt lat="45.57949" lon="6.64778">
        <ele>1493</ele>
        <time>2019-12-30T08:47:15.000Z</time>
      </trkpt>
      <trkpt lat="45.57949" lon="6.64777">
        <ele>1493.1999511719</ele>
        <time>2019-12-30T08:47:16.000Z</time>
      </trkpt>
      <trkpt lat="45.57948" lon="6.64774">
        <ele>1493.8000488281</ele>
        <time>2019-12-30T08:47:20.000Z</time>
      </trkpt>
      <trkpt lat="45.57948" lon="6.64771">
        <ele>1494.4000244141</ele>
        <time>2019-12-30T08:47:22.000Z</time>
      </trkpt>
      <trkpt lat="45.57949" lon="6.64767">
        <ele>1495</ele>
        <time>2019-12-30T08:47:26.000Z</time>
      </trkpt>
      <trkpt lat="45.57949" lon="6.64764">
        <ele>1495.4000244141</ele>
        <time>2019-12-30T08:47:27.000Z</time>
      </trkpt>
      <trkpt lat="45.5795" lon="6.64759">
        <ele>1496.1999511719</ele>
        <time>2019-12-30T08:47:31.000Z</time>
      </trkpt>
      <trkpt lat="45.57951" lon="6.64757">
        <ele>1496.4000244141</ele>
        <time>2019-12-30T08:47:32.000Z</time>
      </trkpt>
      <trkpt lat="45.5795" lon="6.64754">
        <ele>1497</ele>
        <time>2019-12-30T08:47:35.000Z</time>
      </trkpt>
      <trkpt lat="45.5795" lon="6.64754">
        <ele>1497.1999511719</ele>
        <time>2019-12-30T08:47:36.000Z</time>
      </trkpt>
      <trkpt lat="45.5795" lon="6.6475">
        <ele>1497.5999755859</ele>
        <time>2019-12-30T08:47:38.000Z</time>
      </trkpt>
      <trkpt lat="45.5795" lon="6.64748">
        <ele>1498.4000244141</ele>
        <time>2019-12-30T08:47:41.000Z</time>
      </trkpt>
      <trkpt lat="45.5795" lon="6.64745">
        <ele>1498.8000488281</ele>
        <time>2019-12-30T08:47:43.000Z</time>
      </trkpt>
      <trkpt lat="45.57951" lon="6.6474">
        <ele>1499.5999755859</ele>
        <time>2019-12-30T08:47:46.000Z</time>
      </trkpt>
      <trkpt lat="45.57951" lon="6.6474">
        <ele>1499.8000488281</ele>
        <time>2019-12-30T08:47:48.000Z</time>
      </trkpt>
      <trkpt lat="45.57953" lon="6.64738">
        <ele>1500.5999755859</ele>
        <time>2019-12-30T08:47:51.000Z</time>
      </trkpt>
      <trkpt lat="45.57955" lon="6.64737">
        <ele>1501</ele>
        <time>2019-12-30T08:47:54.000Z</time>
      </trkpt>
      <trkpt lat="45.57959" lon="6.64737">
        <ele>1501.5999755859</ele>
        <time>2019-12-30T08:47:58.000Z</time>
      </trkpt>
      <trkpt lat="45.5796" lon="6.64737">
        <ele>1502.1999511719</ele>
        <time>2019-12-30T08:48:01.000Z</time>
      </trkpt>
      <trkpt lat="45.57963" lon="6.64737">
        <ele>1502.8000488281</ele>
        <time>2019-12-30T08:48:04.000Z</time>
      </trkpt>
      <trkpt lat="45.57964" lon="6.64738">
        <ele>1503.4000244141</ele>
        <time>2019-12-30T08:48:06.000Z</time>
      </trkpt>
      <trkpt lat="45.57969" lon="6.64736">
        <ele>1504.4000244141</ele>
        <time>2019-12-30T08:48:12.000Z</time>
      </trkpt>
      <trkpt lat="45.57976" lon="6.64736">
        <ele>1505.4000244141</ele>
        <time>2019-12-30T08:48:17.000Z</time>
      </trkpt>
      <trkpt lat="45.57976" lon="6.64736">
        <ele>1505.5999755859</ele>
        <time>2019-12-30T08:48:18.000Z</time>
      </trkpt>
      <trkpt lat="45.57977" lon="6.64737">
        <ele>1506</ele>
        <time>2019-12-30T08:48:19.000Z</time>
      </trkpt>
      <trkpt lat="45.5798" lon="6.64737">
        <ele>1506.8000488281</ele>
        <time>2019-12-30T08:48:23.000Z</time>
      </trkpt>
      <trkpt lat="45.57984" lon="6.64738">
        <ele>1508</ele>
        <time>2019-12-30T08:48:27.000Z</time>
      </trkpt>
      <trkpt lat="45.57988" lon="6.64739">
        <ele>1508.8000488281</ele>
        <time>2019-12-30T08:48:33.000Z</time>
      </trkpt>
      <trkpt lat="45.57988" lon="6.64739">
        <ele>1509</ele>
        <time>2019-12-30T08:48:34.000Z</time>
      </trkpt>
      <trkpt lat="45.57993" lon="6.64741">
        <ele>1509.8000488281</ele>
        <time>2019-12-30T08:48:39.000Z</time>
      </trkpt>
      <trkpt lat="45.57993" lon="6.64741">
        <ele>1510.1999511719</ele>
        <time>2019-12-30T08:48:40.000Z</time>
      </trkpt>
      <trkpt lat="45.57996" lon="6.64742">
        <ele>1511.1999511719</ele>
        <time>2019-12-30T08:48:45.000Z</time>
      </trkpt>
      <trkpt lat="45.57996" lon="6.64743">
        <ele>1511.4000244141</ele>
        <time>2019-12-30T08:48:46.000Z</time>
      </trkpt>
      <trkpt lat="45.58" lon="6.64746">
        <ele>1512.4000244141</ele>
        <time>2019-12-30T08:48:50.000Z</time>
      </trkpt>
      <trkpt lat="45.58002" lon="6.64746">
        <ele>1512.8000488281</ele>
        <time>2019-12-30T08:48:52.000Z</time>
      </trkpt>
      <trkpt lat="45.58004" lon="6.64747">
        <ele>1513.4000244141</ele>
        <time>2019-12-30T08:48:55.000Z</time>
      </trkpt>
      <trkpt lat="45.58005" lon="6.64747">
        <ele>1513.5999755859</ele>
        <time>2019-12-30T08:48:56.000Z</time>
      </trkpt>
      <trkpt lat="45.58006" lon="6.64748">
        <ele>1514.4000244141</ele>
        <time>2019-12-30T08:48:59.000Z</time>
      </trkpt>
      <trkpt lat="45.58009" lon="6.6475">
        <ele>1515.1999511719</ele>
        <time>2019-12-30T08:49:02.000Z</time>
      </trkpt>
      <trkpt lat="45.58009" lon="6.6475">
        <ele>1515.5999755859</ele>
        <time>2019-12-30T08:49:03.000Z</time>
      </trkpt>
      <trkpt lat="45.58012" lon="6.64751">
        <ele>1516.1999511719</ele>
        <time>2019-12-30T08:49:05.000Z</time>
      </trkpt>
      <trkpt lat="45.58013" lon="6.64751">
        <ele>1516.5999755859</ele>
        <time>2019-12-30T08:49:07.000Z</time>
      </trkpt>
      <trkpt lat="45.58013" lon="6.64752">
        <ele>1516.8000488281</ele>
        <time>2019-12-30T08:49:08.000Z</time>
      </trkpt>
      <trkpt lat="45.58015" lon="6.64754">
        <ele>1517.8000488281</ele>
        <time>2019-12-30T08:49:12.000Z</time>
      </trkpt>
      <trkpt lat="45.58016" lon="6.64753">
        <ele>1518.8000488281</ele>
        <time>2019-12-30T08:49:15.000Z</time>
      </trkpt>
      <trkpt lat="45.58018" lon="6.64751">
        <ele>1519.1999511719</ele>
        <time>2019-12-30T08:49:16.000Z</time>
      </trkpt>
      <trkpt lat="45.58019" lon="6.64748">
        <ele>1519.5999755859</ele>
        <time>2019-12-30T08:49:20.000Z</time>
      </trkpt>
      <trkpt lat="45.58019" lon="6.64743">
        <ele>1520.4000244141</ele>
        <time>2019-12-30T08:49:24.000Z</time>
      </trkpt>
      <trkpt lat="45.58019" lon="6.64742">
        <ele>1520.8000488281</ele>
        <time>2019-12-30T08:49:25.000Z</time>
      </trkpt>
      <trkpt lat="45.58019" lon="6.64739">
        <ele>1521.4000244141</ele>
        <time>2019-12-30T08:49:27.000Z</time>
      </trkpt>
      <trkpt lat="45.5802" lon="6.64735">
        <ele>1522.5999755859</ele>
        <time>2019-12-30T08:49:31.000Z</time>
      </trkpt>
      <trkpt lat="45.5802" lon="6.64732">
        <ele>1523</ele>
        <time>2019-12-30T08:49:33.000Z</time>
      </trkpt>
      <trkpt lat="45.58021" lon="6.64725">
        <ele>1523.5999755859</ele>
        <time>2019-12-30T08:49:38.000Z</time>
      </trkpt>
      <trkpt lat="45.58021" lon="6.64722">
        <ele>1524</ele>
        <time>2019-12-30T08:49:40.000Z</time>
      </trkpt>
      <trkpt lat="45.58021" lon="6.64719">
        <ele>1524.5999755859</ele>
        <time>2019-12-30T08:49:44.000Z</time>
      </trkpt>
      <trkpt lat="45.58021" lon="6.64714">
        <ele>1524.8000488281</ele>
        <time>2019-12-30T08:49:47.000Z</time>
      </trkpt>
      <trkpt lat="45.58024" lon="6.64712">
        <ele>1525.4000244141</ele>
        <time>2019-12-30T08:49:53.000Z</time>
      </trkpt>
      <trkpt lat="45.58025" lon="6.64713">
        <ele>1525.8000488281</ele>
        <time>2019-12-30T08:49:55.000Z</time>
      </trkpt>
      <trkpt lat="45.58027" lon="6.64716">
        <ele>1526.8000488281</ele>
        <time>2019-12-30T08:49:58.000Z</time>
      </trkpt>
      <trkpt lat="45.58028" lon="6.64717">
        <ele>1527</ele>
        <time>2019-12-30T08:49:59.000Z</time>
      </trkpt>
      <trkpt lat="45.5803" lon="6.64723">
        <ele>1528</ele>
        <time>2019-12-30T08:50:04.000Z</time>
      </trkpt>
      <trkpt lat="45.58031" lon="6.64724">
        <ele>1528.1999511719</ele>
        <time>2019-12-30T08:50:05.000Z</time>
      </trkpt>
      <trkpt lat="45.58035" lon="6.64728">
        <ele>1529</ele>
        <time>2019-12-30T08:50:10.000Z</time>
      </trkpt>
      <trkpt lat="45.58035" lon="6.64729">
        <ele>1529.1999511719</ele>
        <time>2019-12-30T08:50:11.000Z</time>
      </trkpt>
      <trkpt lat="45.58038" lon="6.64732">
        <ele>1530</ele>
        <time>2019-12-30T08:50:14.000Z</time>
      </trkpt>
      <trkpt lat="45.5804" lon="6.64734">
        <ele>1531</ele>
        <time>2019-12-30T08:50:18.000Z</time>
      </trkpt>
      <trkpt lat="45.58042" lon="6.64735">
        <ele>1531.1999511719</ele>
        <time>2019-12-30T08:50:19.000Z</time>
      </trkpt>
      <trkpt lat="45.58047" lon="6.64736">
        <ele>1531.8000488281</ele>
        <time>2019-12-30T08:50:25.000Z</time>
      </trkpt>
      <trkpt lat="45.5805" lon="6.64737">
        <ele>1532.1999511719</ele>
        <time>2019-12-30T08:50:28.000Z</time>
      </trkpt>
      <trkpt lat="45.58054" lon="6.64738">
        <ele>1533.4000244141</ele>
        <time>2019-12-30T08:50:33.000Z</time>
      </trkpt>
      <trkpt lat="45.58059" lon="6.64737">
        <ele>1534.4000244141</ele>
        <time>2019-12-30T08:50:39.000Z</time>
      </trkpt>
      <trkpt lat="45.5806" lon="6.64736">
        <ele>1534.8000488281</ele>
        <time>2019-12-30T08:50:40.000Z</time>
      </trkpt>
      <trkpt lat="45.58062" lon="6.64735">
        <ele>1535.4000244141</ele>
        <time>2019-12-30T08:50:42.000Z</time>
      </trkpt>
      <trkpt lat="45.58063" lon="6.64734">
        <ele>1536</ele>
        <time>2019-12-30T08:50:44.000Z</time>
      </trkpt>
      <trkpt lat="45.58064" lon="6.64732">
        <ele>1536.5999755859</ele>
        <time>2019-12-30T08:50:46.000Z</time>
      </trkpt>
      <trkpt lat="45.58067" lon="6.64728">
        <ele>1537.8000488281</ele>
        <time>2019-12-30T08:50:51.000Z</time>
      </trkpt>
      <trkpt lat="45.58068" lon="6.64727">
        <ele>1537.8000488281</ele>
        <time>2019-12-30T08:50:52.000Z</time>
      </trkpt>
      <trkpt lat="45.5807" lon="6.6472">
        <ele>1538.8000488281</ele>
        <time>2019-12-30T08:50:57.000Z</time>
      </trkpt>
      <trkpt lat="45.58071" lon="6.64715">
        <ele>1539.8000488281</ele>
        <time>2019-12-30T08:51:02.000Z</time>
      </trkpt>
      <trkpt lat="45.5807" lon="6.64713">
        <ele>1540</ele>
        <time>2019-12-30T08:51:03.000Z</time>
      </trkpt>
      <trkpt lat="45.58068" lon="6.64708">
        <ele>1541</ele>
        <time>2019-12-30T08:51:08.000Z</time>
      </trkpt>
      <trkpt lat="45.58067" lon="6.64706">
        <ele>1541.8000488281</ele>
        <time>2019-12-30T08:51:10.000Z</time>
      </trkpt>
      <trkpt lat="45.58066" lon="6.64704">
        <ele>1542.1999511719</ele>
        <time>2019-12-30T08:51:12.000Z</time>
      </trkpt>
      <trkpt lat="45.58065" lon="6.64697">
        <ele>1543.1999511719</ele>
        <time>2019-12-30T08:51:17.000Z</time>
      </trkpt>
      <trkpt lat="45.58065" lon="6.6469">
        <ele>1544.4000244141</ele>
        <time>2019-12-30T08:51:22.000Z</time>
      </trkpt>
      <trkpt lat="45.58064" lon="6.64688">
        <ele>1544.5999755859</ele>
        <time>2019-12-30T08:51:23.000Z</time>
      </trkpt>
      <trkpt lat="45.58064" lon="6.64682">
        <ele>1545.4000244141</ele>
        <time>2019-12-30T08:51:28.000Z</time>
      </trkpt>
      <trkpt lat="45.58064" lon="6.64681">
        <ele>1545.5999755859</ele>
        <time>2019-12-30T08:51:29.000Z</time>
      </trkpt>
      <trkpt lat="45.58064" lon="6.64678">
        <ele>1546.5999755859</ele>
        <time>2019-12-30T08:51:33.000Z</time>
      </trkpt>
      <trkpt lat="45.58064" lon="6.64678">
        <ele>1546.8000488281</ele>
        <time>2019-12-30T08:51:35.000Z</time>
      </trkpt>
      <trkpt lat="45.58063" lon="6.64676">
        <ele>1547.5999755859</ele>
        <time>2019-12-30T08:51:39.000Z</time>
      </trkpt>
      <trkpt lat="45.58062" lon="6.64672">
        <ele>1548.4000244141</ele>
        <time>2019-12-30T08:51:42.000Z</time>
      </trkpt>
      <trkpt lat="45.5806" lon="6.64669">
        <ele>1548.8000488281</ele>
        <time>2019-12-30T08:51:44.000Z</time>
      </trkpt>
      <trkpt lat="45.58059" lon="6.64666">
        <ele>1549.8000488281</ele>
        <time>2019-12-30T08:51:47.000Z</time>
      </trkpt>
      <trkpt lat="45.58058" lon="6.64663">
        <ele>1550.4000244141</ele>
        <time>2019-12-30T08:51:49.000Z</time>
      </trkpt>
      <trkpt lat="45.58058" lon="6.64661">
        <ele>1551</ele>
        <time>2019-12-30T08:51:50.000Z</time>
      </trkpt>
      <trkpt lat="45.58056" lon="6.64654">
        <ele>1551.5999755859</ele>
        <time>2019-12-30T08:51:55.000Z</time>
      </trkpt>
      <trkpt lat="45.58055" lon="6.64648">
        <ele>1552</ele>
        <time>2019-12-30T08:52:00.000Z</time>
      </trkpt>
      <trkpt lat="45.58055" lon="6.64648">
        <ele>1552.4000244141</ele>
        <time>2019-12-30T08:52:02.000Z</time>
      </trkpt>
      <trkpt lat="45.58054" lon="6.64643">
        <ele>1553.1999511719</ele>
        <time>2019-12-30T08:52:06.000Z</time>
      </trkpt>
      <trkpt lat="45.58053" lon="6.64642">
        <ele>1553.4000244141</ele>
        <time>2019-12-30T08:52:07.000Z</time>
      </trkpt>
      <trkpt lat="45.58051" lon="6.64638">
        <ele>1554.1999511719</ele>
        <time>2019-12-30T08:52:10.000Z</time>
      </trkpt>
      <trkpt lat="45.5805" lon="6.64633">
        <ele>1555</ele>
        <time>2019-12-30T08:52:13.000Z</time>
      </trkpt>
      <trkpt lat="45.5805" lon="6.6463">
        <ele>1555.4000244141</ele>
        <time>2019-12-30T08:52:15.000Z</time>
      </trkpt>
      <trkpt lat="45.58049" lon="6.64621">
        <ele>1556.5999755859</ele>
        <time>2019-12-30T08:52:22.000Z</time>
      </trkpt>
      <trkpt lat="45.58049" lon="6.64615">
        <ele>1557.5999755859</ele>
        <time>2019-12-30T08:52:27.000Z</time>
      </trkpt>
      <trkpt lat="45.58049" lon="6.64613">
        <ele>1558</ele>
        <time>2019-12-30T08:52:28.000Z</time>
      </trkpt>
      <trkpt lat="45.58049" lon="6.64609">
        <ele>1558.8000488281</ele>
        <time>2019-12-30T08:52:32.000Z</time>
      </trkpt>
      <trkpt lat="45.58049" lon="6.64605">
        <ele>1559.5999755859</ele>
        <time>2019-12-30T08:52:35.000Z</time>
      </trkpt>
      <trkpt lat="45.58049" lon="6.64604">
        <ele>1559.8000488281</ele>
        <time>2019-12-30T08:52:36.000Z</time>
      </trkpt>
      <trkpt lat="45.58049" lon="6.64604">
        <ele>1561</ele>
        <time>2019-12-30T08:52:39.000Z</time>
      </trkpt>
      <trkpt lat="45.58047" lon="6.646">
        <ele>1561.5999755859</ele>
        <time>2019-12-30T08:52:42.000Z</time>
      </trkpt>
      <trkpt lat="45.58046" lon="6.64599">
        <ele>1562</ele>
        <time>2019-12-30T08:52:44.000Z</time>
      </trkpt>
      <trkpt lat="45.58043" lon="6.64594">
        <ele>1563.1999511719</ele>
        <time>2019-12-30T08:52:49.000Z</time>
      </trkpt>
      <trkpt lat="45.58043" lon="6.64594">
        <ele>1563.8000488281</ele>
        <time>2019-12-30T08:52:51.000Z</time>
      </trkpt>
      <trkpt lat="45.58041" lon="6.64588">
        <ele>1564.4000244141</ele>
        <time>2019-12-30T08:52:55.000Z</time>
      </trkpt>
      <trkpt lat="45.58038" lon="6.64582">
        <ele>1565.4000244141</ele>
        <time>2019-12-30T08:52:59.000Z</time>
      </trkpt>
      <trkpt lat="45.58037" lon="6.6458">
        <ele>1565.4000244141</ele>
        <time>2019-12-30T08:53:00.000Z</time>
      </trkpt>
      <trkpt lat="45.58033" lon="6.64573">
        <ele>1566.5999755859</ele>
        <time>2019-12-30T08:53:06.000Z</time>
      </trkpt>
      <trkpt lat="45.58032" lon="6.64571">
        <ele>1567</ele>
        <time>2019-12-30T08:53:08.000Z</time>
      </trkpt>
      <trkpt lat="45.58029" lon="6.64566">
        <ele>1567.8000488281</ele>
        <time>2019-12-30T08:53:12.000Z</time>
      </trkpt>
      <trkpt lat="45.58027" lon="6.64565">
        <ele>1568</ele>
        <time>2019-12-30T08:53:14.000Z</time>
      </trkpt>
      <trkpt lat="45.58026" lon="6.64564">
        <ele>1568.1999511719</ele>
        <time>2019-12-30T08:53:15.000Z</time>
      </trkpt>
      <trkpt lat="45.5802" lon="6.64561">
        <ele>1568.8000488281</ele>
        <time>2019-12-30T08:53:20.000Z</time>
      </trkpt>
      <trkpt lat="45.58019" lon="6.6456">
        <ele>1569</ele>
        <time>2019-12-30T08:53:21.000Z</time>
      </trkpt>
      <trkpt lat="45.58016" lon="6.64556">
        <ele>1570</ele>
        <time>2019-12-30T08:53:24.000Z</time>
      </trkpt>
      <trkpt lat="45.58015" lon="6.64556">
        <ele>1570</ele>
        <time>2019-12-30T08:53:25.000Z</time>
      </trkpt>
      <trkpt lat="45.58014" lon="6.64552">
        <ele>1570.4000244141</ele>
        <time>2019-12-30T08:53:31.000Z</time>
      </trkpt>
      <trkpt lat="45.58013" lon="6.6455">
        <ele>1571</ele>
        <time>2019-12-30T08:53:35.000Z</time>
      </trkpt>
      <trkpt lat="45.58013" lon="6.6455">
        <ele>1571.5999755859</ele>
        <time>2019-12-30T08:53:37.000Z</time>
      </trkpt>
      <trkpt lat="45.58016" lon="6.64552">
        <ele>1572</ele>
        <time>2019-12-30T08:53:40.000Z</time>
      </trkpt>
      <trkpt lat="45.58019" lon="6.64553">
        <ele>1572.4000244141</ele>
        <time>2019-12-30T08:53:44.000Z</time>
      </trkpt>
      <trkpt lat="45.58023" lon="6.64555">
        <ele>1573.1999511719</ele>
        <time>2019-12-30T08:53:49.000Z</time>
      </trkpt>
      <trkpt lat="45.58024" lon="6.64555">
        <ele>1573.4000244141</ele>
        <time>2019-12-30T08:53:50.000Z</time>
      </trkpt>
      <trkpt lat="45.58028" lon="6.64557">
        <ele>1574.1999511719</ele>
        <time>2019-12-30T08:53:57.000Z</time>
      </trkpt>
      <trkpt lat="45.58029" lon="6.64558">
        <ele>1574.4000244141</ele>
        <time>2019-12-30T08:54:08.000Z</time>
      </trkpt>
      <trkpt lat="45.58031" lon="6.64559">
        <ele>1574.8000488281</ele>
        <time>2019-12-30T08:54:17.000Z</time>
      </trkpt>
      <trkpt lat="45.58031" lon="6.6456">
        <ele>1574.4000244141</ele>
        <time>2019-12-30T08:54:29.000Z</time>
      </trkpt>
      <trkpt lat="45.58032" lon="6.64561">
        <ele>1575.4000244141</ele>
        <time>2019-12-30T08:54:39.000Z</time>
      </trkpt>
      <trkpt lat="45.58037" lon="6.64566">
        <ele>1575.1999511719</ele>
        <time>2019-12-30T08:54:46.000Z</time>
      </trkpt>
      <trkpt lat="45.58041" lon="6.6457">
        <ele>1575.5999755859</ele>
        <time>2019-12-30T08:54:51.000Z</time>
      </trkpt>
      <trkpt lat="45.58043" lon="6.64572">
        <ele>1576</ele>
        <time>2019-12-30T08:54:53.000Z</time>
      </trkpt>
      <trkpt lat="45.58047" lon="6.64573">
        <ele>1576.4000244141</ele>
        <time>2019-12-30T08:54:56.000Z</time>
      </trkpt>
      <trkpt lat="45.58048" lon="6.64573">
        <ele>1576.5999755859</ele>
        <time>2019-12-30T08:54:57.000Z</time>
      </trkpt>
      <trkpt lat="45.58053" lon="6.64573">
        <ele>1577.5999755859</ele>
        <time>2019-12-30T08:55:02.000Z</time>
      </trkpt>
      <trkpt lat="45.58054" lon="6.64573">
        <ele>1577.5999755859</ele>
        <time>2019-12-30T08:55:03.000Z</time>
      </trkpt>
      <trkpt lat="45.58059" lon="6.64576">
        <ele>1578.5999755859</ele>
        <time>2019-12-30T08:55:08.000Z</time>
      </trkpt>
      <trkpt lat="45.58061" lon="6.64576">
        <ele>1578.8000488281</ele>
        <time>2019-12-30T08:55:10.000Z</time>
      </trkpt>
      <trkpt lat="45.58065" lon="6.64577">
        <ele>1579.5999755859</ele>
        <time>2019-12-30T08:55:15.000Z</time>
      </trkpt>
      <trkpt lat="45.58066" lon="6.64577">
        <ele>1579.8000488281</ele>
        <time>2019-12-30T08:55:16.000Z</time>
      </trkpt>
      <trkpt lat="45.58071" lon="6.64581">
        <ele>1580.8000488281</ele>
        <time>2019-12-30T08:55:22.000Z</time>
      </trkpt>
      <trkpt lat="45.58073" lon="6.64582">
        <ele>1580.8000488281</ele>
        <time>2019-12-30T08:55:24.000Z</time>
      </trkpt>
      <trkpt lat="45.58078" lon="6.64587">
        <ele>1582</ele>
        <time>2019-12-30T08:55:29.000Z</time>
      </trkpt>
      <trkpt lat="45.58084" lon="6.64591">
        <ele>1582.8000488281</ele>
        <time>2019-12-30T08:55:35.000Z</time>
      </trkpt>
      <trkpt lat="45.58084" lon="6.64591">
        <ele>1583</ele>
        <time>2019-12-30T08:55:36.000Z</time>
      </trkpt>
      <trkpt lat="45.58089" lon="6.64594">
        <ele>1583.8000488281</ele>
        <time>2019-12-30T08:55:42.000Z</time>
      </trkpt>
      <trkpt lat="45.58089" lon="6.64594">
        <ele>1584</ele>
        <time>2019-12-30T08:55:43.000Z</time>
      </trkpt>
      <trkpt lat="45.58094" lon="6.64596">
        <ele>1584.8000488281</ele>
        <time>2019-12-30T08:55:48.000Z</time>
      </trkpt>
      <trkpt lat="45.58095" lon="6.64597">
        <ele>1585</ele>
        <time>2019-12-30T08:55:49.000Z</time>
      </trkpt>
      <trkpt lat="45.58099" lon="6.64599">
        <ele>1585.8000488281</ele>
        <time>2019-12-30T08:55:55.000Z</time>
      </trkpt>
      <trkpt lat="45.58102" lon="6.64599">
        <ele>1586.1999511719</ele>
        <time>2019-12-30T08:55:58.000Z</time>
      </trkpt>
      <trkpt lat="45.58105" lon="6.646">
        <ele>1586.8000488281</ele>
        <time>2019-12-30T08:56:01.000Z</time>
      </trkpt>
      <trkpt lat="45.58109" lon="6.64601">
        <ele>1587.1999511719</ele>
        <time>2019-12-30T08:56:04.000Z</time>
      </trkpt>
      <trkpt lat="45.58112" lon="6.64603">
        <ele>1587.5999755859</ele>
        <time>2019-12-30T08:56:07.000Z</time>
      </trkpt>
      <trkpt lat="45.58115" lon="6.64605">
        <ele>1588.4000244141</ele>
        <time>2019-12-30T08:56:10.000Z</time>
      </trkpt>
      <trkpt lat="45.58119" lon="6.64607">
        <ele>1589.4000244141</ele>
        <time>2019-12-30T08:56:14.000Z</time>
      </trkpt>
      <trkpt lat="45.5812" lon="6.64607">
        <ele>1589.4000244141</ele>
        <time>2019-12-30T08:56:15.000Z</time>
      </trkpt>
      <trkpt lat="45.58126" lon="6.6461">
        <ele>1590.4000244141</ele>
        <time>2019-12-30T08:56:20.000Z</time>
      </trkpt>
      <trkpt lat="45.58127" lon="6.6461">
        <ele>1590.5999755859</ele>
        <time>2019-12-30T08:56:21.000Z</time>
      </trkpt>
      <trkpt lat="45.58133" lon="6.64613">
        <ele>1591.1999511719</ele>
        <time>2019-12-30T08:56:27.000Z</time>
      </trkpt>
      <trkpt lat="45.58136" lon="6.64614">
        <ele>1591.8000488281</ele>
        <time>2019-12-30T08:56:30.000Z</time>
      </trkpt>
      <trkpt lat="45.58139" lon="6.64616">
        <ele>1592.1999511719</ele>
        <time>2019-12-30T08:56:33.000Z</time>
      </trkpt>
      <trkpt lat="45.58142" lon="6.64616">
        <ele>1592.8000488281</ele>
        <time>2019-12-30T08:56:35.000Z</time>
      </trkpt>
      <trkpt lat="45.58144" lon="6.64617">
        <ele>1593.4000244141</ele>
        <time>2019-12-30T08:56:38.000Z</time>
      </trkpt>
      <trkpt lat="45.58147" lon="6.64621">
        <ele>1594</ele>
        <time>2019-12-30T08:56:42.000Z</time>
      </trkpt>
      <trkpt lat="45.58149" lon="6.64623">
        <ele>1594.5999755859</ele>
        <time>2019-12-30T08:56:45.000Z</time>
      </trkpt>
      <trkpt lat="45.58151" lon="6.64625">
        <ele>1595</ele>
        <time>2019-12-30T08:56:48.000Z</time>
      </trkpt>
      <trkpt lat="45.58153" lon="6.64627">
        <ele>1595.5999755859</ele>
        <time>2019-12-30T08:56:51.000Z</time>
      </trkpt>
      <trkpt lat="45.58156" lon="6.64628">
        <ele>1596.1999511719</ele>
        <time>2019-12-30T08:56:54.000Z</time>
      </trkpt>
      <trkpt lat="45.5816" lon="6.64629">
        <ele>1597</ele>
        <time>2019-12-30T08:56:58.000Z</time>
      </trkpt>
      <trkpt lat="45.58161" lon="6.64629">
        <ele>1597.1999511719</ele>
        <time>2019-12-30T08:56:59.000Z</time>
      </trkpt>
      <trkpt lat="45.58165" lon="6.64631">
        <ele>1598</ele>
        <time>2019-12-30T08:57:04.000Z</time>
      </trkpt>
      <trkpt lat="45.58167" lon="6.64633">
        <ele>1598.1999511719</ele>
        <time>2019-12-30T08:57:06.000Z</time>
      </trkpt>
      <trkpt lat="45.5817" lon="6.64635">
        <ele>1598.5999755859</ele>
        <time>2019-12-30T08:57:10.000Z</time>
      </trkpt>
      <trkpt lat="45.58173" lon="6.64638">
        <ele>1599.1999511719</ele>
        <time>2019-12-30T08:57:14.000Z</time>
      </trkpt>
      <trkpt lat="45.58174" lon="6.64639">
        <ele>1599.8000488281</ele>
        <time>2019-12-30T08:57:16.000Z</time>
      </trkpt>
      <trkpt lat="45.58176" lon="6.64641">
        <ele>1600.4000244141</ele>
        <time>2019-12-30T08:57:19.000Z</time>
      </trkpt>
      <trkpt lat="45.58178" lon="6.64642">
        <ele>1600.5999755859</ele>
        <time>2019-12-30T08:57:21.000Z</time>
      </trkpt>
      <trkpt lat="45.58183" lon="6.64645">
        <ele>1601.4000244141</ele>
        <time>2019-12-30T08:57:26.000Z</time>
      </trkpt>
      <trkpt lat="45.58183" lon="6.64645">
        <ele>1601.4000244141</ele>
        <time>2019-12-30T08:57:27.000Z</time>
      </trkpt>
      <trkpt lat="45.58188" lon="6.64647">
        <ele>1602.1999511719</ele>
        <time>2019-12-30T08:57:33.000Z</time>
      </trkpt>
      <trkpt lat="45.58189" lon="6.64647">
        <ele>1602.4000244141</ele>
        <time>2019-12-30T08:57:34.000Z</time>
      </trkpt>
      <trkpt lat="45.58193" lon="6.64648">
        <ele>1603.5999755859</ele>
        <time>2019-12-30T08:57:39.000Z</time>
      </trkpt>
      <trkpt lat="45.58197" lon="6.64649">
        <ele>1604.4000244141</ele>
        <time>2019-12-30T08:57:45.000Z</time>
      </trkpt>
      <trkpt lat="45.58198" lon="6.6465">
        <ele>1604.5999755859</ele>
        <time>2019-12-30T08:57:46.000Z</time>
      </trkpt>
      <trkpt lat="45.58201" lon="6.64653">
        <ele>1605.4000244141</ele>
        <time>2019-12-30T08:57:51.000Z</time>
      </trkpt>
      <trkpt lat="45.58204" lon="6.64654">
        <ele>1605.8000488281</ele>
        <time>2019-12-30T08:57:54.000Z</time>
      </trkpt>
      <trkpt lat="45.58207" lon="6.64654">
        <ele>1606.1999511719</ele>
        <time>2019-12-30T08:57:57.000Z</time>
      </trkpt>
      <trkpt lat="45.58213" lon="6.64652">
        <ele>1607</ele>
        <time>2019-12-30T08:58:01.000Z</time>
      </trkpt>
      <trkpt lat="45.58215" lon="6.64653">
        <ele>1607.4000244141</ele>
        <time>2019-12-30T08:58:04.000Z</time>
      </trkpt>
      <trkpt lat="45.58219" lon="6.64655">
        <ele>1608</ele>
        <time>2019-12-30T08:58:09.000Z</time>
      </trkpt>
      <trkpt lat="45.5822" lon="6.64656">
        <ele>1608.1999511719</ele>
        <time>2019-12-30T08:58:10.000Z</time>
      </trkpt>
      <trkpt lat="45.58225" lon="6.64659">
        <ele>1609</ele>
        <time>2019-12-30T08:58:16.000Z</time>
      </trkpt>
      <trkpt lat="45.5823" lon="6.6466">
        <ele>1609.5999755859</ele>
        <time>2019-12-30T08:58:21.000Z</time>
      </trkpt>
      <trkpt lat="45.58233" lon="6.64663">
        <ele>1610.1999511719</ele>
        <time>2019-12-30T08:58:24.000Z</time>
      </trkpt>
      <trkpt lat="45.58234" lon="6.64664">
        <ele>1610.5999755859</ele>
        <time>2019-12-30T08:58:27.000Z</time>
      </trkpt>
      <trkpt lat="45.58236" lon="6.64666">
        <ele>1611.1999511719</ele>
        <time>2019-12-30T08:58:30.000Z</time>
      </trkpt>
      <trkpt lat="45.58239" lon="6.6467">
        <ele>1612.1999511719</ele>
        <time>2019-12-30T08:58:34.000Z</time>
      </trkpt>
      <trkpt lat="45.58245" lon="6.64677">
        <ele>1613.1999511719</ele>
        <time>2019-12-30T08:58:41.000Z</time>
      </trkpt>
      <trkpt lat="45.58249" lon="6.6468">
        <ele>1614.4000244141</ele>
        <time>2019-12-30T08:58:47.000Z</time>
      </trkpt>
      <trkpt lat="45.58253" lon="6.64684">
        <ele>1615.4000244141</ele>
        <time>2019-12-30T08:58:53.000Z</time>
      </trkpt>
      <trkpt lat="45.58256" lon="6.64689">
        <ele>1616.4000244141</ele>
        <time>2019-12-30T08:58:58.000Z</time>
      </trkpt>
      <trkpt lat="45.58257" lon="6.6469">
        <ele>1616.5999755859</ele>
        <time>2019-12-30T08:58:59.000Z</time>
      </trkpt>
      <trkpt lat="45.58261" lon="6.64693">
        <ele>1617.4000244141</ele>
        <time>2019-12-30T08:59:05.000Z</time>
      </trkpt>
      <trkpt lat="45.58262" lon="6.64694">
        <ele>1617.8000488281</ele>
        <time>2019-12-30T08:59:07.000Z</time>
      </trkpt>
      <trkpt lat="45.58265" lon="6.64696">
        <ele>1618.5999755859</ele>
        <time>2019-12-30T08:59:11.000Z</time>
      </trkpt>
      <trkpt lat="45.58267" lon="6.64697">
        <ele>1619</ele>
        <time>2019-12-30T08:59:13.000Z</time>
      </trkpt>
      <trkpt lat="45.5827" lon="6.64698">
        <ele>1619.8000488281</ele>
        <time>2019-12-30T08:59:17.000Z</time>
      </trkpt>
      <trkpt lat="45.58273" lon="6.64698">
        <ele>1620.1999511719</ele>
        <time>2019-12-30T08:59:21.000Z</time>
      </trkpt>
      <trkpt lat="45.58274" lon="6.64698">
        <ele>1620.8000488281</ele>
        <time>2019-12-30T08:59:23.000Z</time>
      </trkpt>
      <trkpt lat="45.58279" lon="6.64699">
        <ele>1622</ele>
        <time>2019-12-30T08:59:30.000Z</time>
      </trkpt>
      <trkpt lat="45.58285" lon="6.647">
        <ele>1623</ele>
        <time>2019-12-30T08:59:36.000Z</time>
      </trkpt>
      <trkpt lat="45.58287" lon="6.64701">
        <ele>1623.5999755859</ele>
        <time>2019-12-30T08:59:38.000Z</time>
      </trkpt>
      <trkpt lat="45.58292" lon="6.64701">
        <ele>1624.1999511719</ele>
        <time>2019-12-30T08:59:42.000Z</time>
      </trkpt>
      <trkpt lat="45.58296" lon="6.64701">
        <ele>1624.5999755859</ele>
        <time>2019-12-30T08:59:45.000Z</time>
      </trkpt>
      <trkpt lat="45.58299" lon="6.64701">
        <ele>1625.4000244141</ele>
        <time>2019-12-30T08:59:48.000Z</time>
      </trkpt>
      <trkpt lat="45.58302" lon="6.64702">
        <ele>1626</ele>
        <time>2019-12-30T08:59:52.000Z</time>
      </trkpt>
      <trkpt lat="45.58303" lon="6.64701">
        <ele>1626.4000244141</ele>
        <time>2019-12-30T08:59:55.000Z</time>
      </trkpt>
      <trkpt lat="45.58305" lon="6.64701">
        <ele>1626.8000488281</ele>
        <time>2019-12-30T08:59:59.000Z</time>
      </trkpt>
      <trkpt lat="45.58306" lon="6.64701">
        <ele>1627.1999511719</ele>
        <time>2019-12-30T09:00:08.000Z</time>
      </trkpt>
      <trkpt lat="45.58306" lon="6.64698">
        <ele>1627.5999755859</ele>
        <time>2019-12-30T09:00:13.000Z</time>
      </trkpt>
      <trkpt lat="45.58305" lon="6.64697">
        <ele>1627.8000488281</ele>
        <time>2019-12-30T09:00:14.000Z</time>
      </trkpt>
      <trkpt lat="45.58304" lon="6.64692">
        <ele>1628.4000244141</ele>
        <time>2019-12-30T09:00:18.000Z</time>
      </trkpt>
      <trkpt lat="45.58303" lon="6.64688">
        <ele>1628.5999755859</ele>
        <time>2019-12-30T09:00:21.000Z</time>
      </trkpt>
      <trkpt lat="45.58302" lon="6.64684">
        <ele>1629.4000244141</ele>
        <time>2019-12-30T09:00:25.000Z</time>
      </trkpt>
      <trkpt lat="45.58302" lon="6.64683">
        <ele>1629.8000488281</ele>
        <time>2019-12-30T09:00:27.000Z</time>
      </trkpt>
      <trkpt lat="45.58301" lon="6.64677">
        <ele>1630.5999755859</ele>
        <time>2019-12-30T09:00:32.000Z</time>
      </trkpt>
      <trkpt lat="45.583" lon="6.64675">
        <ele>1631.1999511719</ele>
        <time>2019-12-30T09:00:34.000Z</time>
      </trkpt>
      <trkpt lat="45.58299" lon="6.64669">
        <ele>1632</ele>
        <time>2019-12-30T09:00:40.000Z</time>
      </trkpt>
      <trkpt lat="45.583" lon="6.64667">
        <ele>1632.1999511719</ele>
        <time>2019-12-30T09:00:42.000Z</time>
      </trkpt>
      <trkpt lat="45.583" lon="6.64663">
        <ele>1633.1999511719</ele>
        <time>2019-12-30T09:00:45.000Z</time>
      </trkpt>
      <trkpt lat="45.583" lon="6.64662">
        <ele>1633.4000244141</ele>
        <time>2019-12-30T09:00:46.000Z</time>
      </trkpt>
      <trkpt lat="45.583" lon="6.6466">
        <ele>1634.5999755859</ele>
        <time>2019-12-30T09:00:51.000Z</time>
      </trkpt>
      <trkpt lat="45.583" lon="6.64656">
        <ele>1635.4000244141</ele>
        <time>2019-12-30T09:00:56.000Z</time>
      </trkpt>
      <trkpt lat="45.58301" lon="6.64655">
        <ele>1635.4000244141</ele>
        <time>2019-12-30T09:00:57.000Z</time>
      </trkpt>
      <trkpt lat="45.58302" lon="6.64654">
        <ele>1635.8000488281</ele>
        <time>2019-12-30T09:01:00.000Z</time>
      </trkpt>
      <trkpt lat="45.58303" lon="6.64655">
        <ele>1636.1999511719</ele>
        <time>2019-12-30T09:01:02.000Z</time>
      </trkpt>
      <trkpt lat="45.58305" lon="6.64655">
        <ele>1636.8000488281</ele>
        <time>2019-12-30T09:01:04.000Z</time>
      </trkpt>
      <trkpt lat="45.58307" lon="6.64655">
        <ele>1637.5999755859</ele>
        <time>2019-12-30T09:01:07.000Z</time>
      </trkpt>
      <trkpt lat="45.58307" lon="6.64655">
        <ele>1637.8000488281</ele>
        <time>2019-12-30T09:01:08.000Z</time>
      </trkpt>
      <trkpt lat="45.58311" lon="6.64657">
        <ele>1638.8000488281</ele>
        <time>2019-12-30T09:01:14.000Z</time>
      </trkpt>
      <trkpt lat="45.58313" lon="6.64657">
        <ele>1639.8000488281</ele>
        <time>2019-12-30T09:01:19.000Z</time>
      </trkpt>
      <trkpt lat="45.58315" lon="6.64657">
        <ele>1640.1999511719</ele>
        <time>2019-12-30T09:01:21.000Z</time>
      </trkpt>
      <trkpt lat="45.58319" lon="6.64655">
        <ele>1641</ele>
        <time>2019-12-30T09:01:27.000Z</time>
      </trkpt>
      <trkpt lat="45.58321" lon="6.64654">
        <ele>1642</ele>
        <time>2019-12-30T09:01:31.000Z</time>
      </trkpt>
      <trkpt lat="45.58323" lon="6.64653">
        <ele>1642.4000244141</ele>
        <time>2019-12-30T09:01:33.000Z</time>
      </trkpt>
      <trkpt lat="45.58326" lon="6.6465">
        <ele>1643</ele>
        <time>2019-12-30T09:01:37.000Z</time>
      </trkpt>
      <trkpt lat="45.58327" lon="6.6465">
        <ele>1643.1999511719</ele>
        <time>2019-12-30T09:01:39.000Z</time>
      </trkpt>
      <trkpt lat="45.58329" lon="6.64648">
        <ele>1644</ele>
        <time>2019-12-30T09:01:43.000Z</time>
      </trkpt>
      <trkpt lat="45.5833" lon="6.64647">
        <ele>1644.5999755859</ele>
        <time>2019-12-30T09:01:45.000Z</time>
      </trkpt>
      <trkpt lat="45.58332" lon="6.64646">
        <ele>1645.1999511719</ele>
        <time>2019-12-30T09:01:47.000Z</time>
      </trkpt>
      <trkpt lat="45.58334" lon="6.64644">
        <ele>1646</ele>
        <time>2019-12-30T09:01:50.000Z</time>
      </trkpt>
      <trkpt lat="45.58335" lon="6.64644">
        <ele>1646.4000244141</ele>
        <time>2019-12-30T09:01:54.000Z</time>
      </trkpt>
      <trkpt lat="45.58336" lon="6.64643">
        <ele>1646.8000488281</ele>
        <time>2019-12-30T09:01:55.000Z</time>
      </trkpt>
      <trkpt lat="45.58337" lon="6.64643">
        <ele>1647</ele>
        <time>2019-12-30T09:01:56.000Z</time>
      </trkpt>
      <trkpt lat="45.58342" lon="6.64641">
        <ele>1647.1999511719</ele>
        <time>2019-12-30T09:02:01.000Z</time>
      </trkpt>
      <trkpt lat="45.58345" lon="6.64639">
        <ele>1647.5999755859</ele>
        <time>2019-12-30T09:02:05.000Z</time>
      </trkpt>
      <trkpt lat="45.58346" lon="6.64637">
        <ele>1648.1999511719</ele>
        <time>2019-12-30T09:02:08.000Z</time>
      </trkpt>
      <trkpt lat="45.58348" lon="6.64635">
        <ele>1648.8000488281</ele>
        <time>2019-12-30T09:02:11.000Z</time>
      </trkpt>
      <trkpt lat="45.58351" lon="6.64632">
        <ele>1649.4000244141</ele>
        <time>2019-12-30T09:02:14.000Z</time>
      </trkpt>
      <trkpt lat="45.58355" lon="6.6463">
        <ele>1650</ele>
        <time>2019-12-30T09:02:18.000Z</time>
      </trkpt>
      <trkpt lat="45.58356" lon="6.64629">
        <ele>1650.1999511719</ele>
        <time>2019-12-30T09:02:20.000Z</time>
      </trkpt>
      <trkpt lat="45.5836" lon="6.64628">
        <ele>1651</ele>
        <time>2019-12-30T09:02:24.000Z</time>
      </trkpt>
      <trkpt lat="45.58361" lon="6.64628">
        <ele>1651.1999511719</ele>
        <time>2019-12-30T09:02:25.000Z</time>
      </trkpt>
      <trkpt lat="45.58365" lon="6.64626">
        <ele>1651.8000488281</ele>
        <time>2019-12-30T09:02:30.000Z</time>
      </trkpt>
      <trkpt lat="45.58365" lon="6.64625">
        <ele>1652</ele>
        <time>2019-12-30T09:02:31.000Z</time>
      </trkpt>
      <trkpt lat="45.58369" lon="6.64624">
        <ele>1653</ele>
        <time>2019-12-30T09:02:36.000Z</time>
      </trkpt>
      <trkpt lat="45.58372" lon="6.64622">
        <ele>1653.8000488281</ele>
        <time>2019-12-30T09:02:40.000Z</time>
      </trkpt>
      <trkpt lat="45.58372" lon="6.64621">
        <ele>1654</ele>
        <time>2019-12-30T09:02:41.000Z</time>
      </trkpt>
      <trkpt lat="45.58373" lon="6.6462">
        <ele>1654.1999511719</ele>
        <time>2019-12-30T09:02:42.000Z</time>
      </trkpt>
      <trkpt lat="45.58377" lon="6.64619">
        <ele>1655</ele>
        <time>2019-12-30T09:02:47.000Z</time>
      </trkpt>
      <trkpt lat="45.58378" lon="6.64618">
        <ele>1655.1999511719</ele>
        <time>2019-12-30T09:02:48.000Z</time>
      </trkpt>
      <trkpt lat="45.58381" lon="6.64616">
        <ele>1655.8000488281</ele>
        <time>2019-12-30T09:02:53.000Z</time>
      </trkpt>
      <trkpt lat="45.58382" lon="6.64615">
        <ele>1656.4000244141</ele>
        <time>2019-12-30T09:02:55.000Z</time>
      </trkpt>
      <trkpt lat="45.58385" lon="6.64615">
        <ele>1657</ele>
        <time>2019-12-30T09:02:58.000Z</time>
      </trkpt>
      <trkpt lat="45.58387" lon="6.64615">
        <ele>1657.8000488281</ele>
        <time>2019-12-30T09:03:00.000Z</time>
      </trkpt>
      <trkpt lat="45.5839" lon="6.64614">
        <ele>1658.1999511719</ele>
        <time>2019-12-30T09:03:03.000Z</time>
      </trkpt>
      <trkpt lat="45.58396" lon="6.64614">
        <ele>1658.5999755859</ele>
        <time>2019-12-30T09:03:09.000Z</time>
      </trkpt>
      <trkpt lat="45.58396" lon="6.64613">
        <ele>1658.8000488281</ele>
        <time>2019-12-30T09:03:10.000Z</time>
      </trkpt>
      <trkpt lat="45.58399" lon="6.64611">
        <ele>1659.5999755859</ele>
        <time>2019-12-30T09:03:14.000Z</time>
      </trkpt>
      <trkpt lat="45.58399" lon="6.64611">
        <ele>1660</ele>
        <time>2019-12-30T09:03:15.000Z</time>
      </trkpt>
      <trkpt lat="45.58402" lon="6.6461">
        <ele>1661</ele>
        <time>2019-12-30T09:03:19.000Z</time>
      </trkpt>
      <trkpt lat="45.58405" lon="6.64609">
        <ele>1662</ele>
        <time>2019-12-30T09:03:24.000Z</time>
      </trkpt>
      <trkpt lat="45.58406" lon="6.64609">
        <ele>1662.1999511719</ele>
        <time>2019-12-30T09:03:25.000Z</time>
      </trkpt>
      <trkpt lat="45.58409" lon="6.64603">
        <ele>1663.1999511719</ele>
        <time>2019-12-30T09:03:32.000Z</time>
      </trkpt>
      <trkpt lat="45.58407" lon="6.64598">
        <ele>1664.1999511719</ele>
        <time>2019-12-30T09:03:37.000Z</time>
      </trkpt>
      <trkpt lat="45.58406" lon="6.64595">
        <ele>1665</ele>
        <time>2019-12-30T09:03:39.000Z</time>
      </trkpt>
      <trkpt lat="45.58405" lon="6.64593">
        <ele>1665.4000244141</ele>
        <time>2019-12-30T09:03:41.000Z</time>
      </trkpt>
      <trkpt lat="45.58405" lon="6.64591">
        <ele>1665.8000488281</ele>
        <time>2019-12-30T09:03:44.000Z</time>
      </trkpt>
      <trkpt lat="45.58404" lon="6.64588">
        <ele>1666.4000244141</ele>
        <time>2019-12-30T09:03:47.000Z</time>
      </trkpt>
      <trkpt lat="45.58404" lon="6.64587">
        <ele>1666.8000488281</ele>
        <time>2019-12-30T09:03:49.000Z</time>
      </trkpt>
      <trkpt lat="45.58403" lon="6.64584">
        <ele>1667.5999755859</ele>
        <time>2019-12-30T09:03:52.000Z</time>
      </trkpt>
      <trkpt lat="45.58402" lon="6.64582">
        <ele>1668.1999511719</ele>
        <time>2019-12-30T09:03:54.000Z</time>
      </trkpt>
      <trkpt lat="45.58402" lon="6.6458">
        <ele>1668.8000488281</ele>
        <time>2019-12-30T09:03:57.000Z</time>
      </trkpt>
      <trkpt lat="45.58401" lon="6.64578">
        <ele>1669.4000244141</ele>
        <time>2019-12-30T09:04:00.000Z</time>
      </trkpt>
      <trkpt lat="45.584" lon="6.64575">
        <ele>1669.8000488281</ele>
        <time>2019-12-30T09:04:02.000Z</time>
      </trkpt>
      <trkpt lat="45.58399" lon="6.6457">
        <ele>1670.1999511719</ele>
        <time>2019-12-30T09:04:06.000Z</time>
      </trkpt>
      <trkpt lat="45.58399" lon="6.64567">
        <ele>1670.8000488281</ele>
        <time>2019-12-30T09:04:09.000Z</time>
      </trkpt>
      <trkpt lat="45.58397" lon="6.64563">
        <ele>1671.4000244141</ele>
        <time>2019-12-30T09:04:12.000Z</time>
      </trkpt>
      <trkpt lat="45.58394" lon="6.64559">
        <ele>1671.8000488281</ele>
        <time>2019-12-30T09:04:18.000Z</time>
      </trkpt>
      <trkpt lat="45.58393" lon="6.64556">
        <ele>1673</ele>
        <time>2019-12-30T09:04:22.000Z</time>
      </trkpt>
      <trkpt lat="45.58392" lon="6.64555">
        <ele>1673.1999511719</ele>
        <time>2019-12-30T09:04:23.000Z</time>
      </trkpt>
      <trkpt lat="45.58391" lon="6.64551">
        <ele>1674</ele>
        <time>2019-12-30T09:04:28.000Z</time>
      </trkpt>
      <trkpt lat="45.5839" lon="6.64549">
        <ele>1674.5999755859</ele>
        <time>2019-12-30T09:04:31.000Z</time>
      </trkpt>
      <trkpt lat="45.58389" lon="6.64548">
        <ele>1675</ele>
        <time>2019-12-30T09:04:33.000Z</time>
      </trkpt>
      <trkpt lat="45.58387" lon="6.64545">
        <ele>1676.1999511719</ele>
        <time>2019-12-30T09:04:37.000Z</time>
      </trkpt>
      <trkpt lat="45.58387" lon="6.64544">
        <ele>1676.5999755859</ele>
        <time>2019-12-30T09:04:38.000Z</time>
      </trkpt>
      <trkpt lat="45.58384" lon="6.64539">
        <ele>1677.4000244141</ele>
        <time>2019-12-30T09:04:44.000Z</time>
      </trkpt>
      <trkpt lat="45.58383" lon="6.64535">
        <ele>1678.4000244141</ele>
        <time>2019-12-30T09:04:49.000Z</time>
      </trkpt>
      <trkpt lat="45.58382" lon="6.64534">
        <ele>1678.5999755859</ele>
        <time>2019-12-30T09:04:51.000Z</time>
      </trkpt>
      <trkpt lat="45.58382" lon="6.64532">
        <ele>1679.4000244141</ele>
        <time>2019-12-30T09:04:55.000Z</time>
      </trkpt>
      <trkpt lat="45.58382" lon="6.64532">
        <ele>1679.5999755859</ele>
        <time>2019-12-30T09:04:56.000Z</time>
      </trkpt>
      <trkpt lat="45.58382" lon="6.64532">
        <ele>1680.5999755859</ele>
        <time>2019-12-30T09:04:59.000Z</time>
      </trkpt>
      <trkpt lat="45.58385" lon="6.64532">
        <ele>1681.1999511719</ele>
        <time>2019-12-30T09:05:02.000Z</time>
      </trkpt>
      <trkpt lat="45.58388" lon="6.64531">
        <ele>1681.8000488281</ele>
        <time>2019-12-30T09:05:06.000Z</time>
      </trkpt>
      <trkpt lat="45.5839" lon="6.64531">
        <ele>1682.1999511719</ele>
        <time>2019-12-30T09:05:08.000Z</time>
      </trkpt>
      <trkpt lat="45.58391" lon="6.64531">
        <ele>1683</ele>
        <time>2019-12-30T09:05:11.000Z</time>
      </trkpt>
      <trkpt lat="45.58393" lon="6.6453">
        <ele>1683.1999511719</ele>
        <time>2019-12-30T09:05:14.000Z</time>
      </trkpt>
      <trkpt lat="45.58396" lon="6.6453">
        <ele>1684.1999511719</ele>
        <time>2019-12-30T09:05:19.000Z</time>
      </trkpt>
      <trkpt lat="45.58396" lon="6.64524">
        <ele>1685.1999511719</ele>
        <time>2019-12-30T09:05:25.000Z</time>
      </trkpt>
      <trkpt lat="45.58395" lon="6.64523">
        <ele>1685.4000244141</ele>
        <time>2019-12-30T09:05:26.000Z</time>
      </trkpt>
      <trkpt lat="45.58394" lon="6.64521">
        <ele>1686.4000244141</ele>
        <time>2019-12-30T09:05:29.000Z</time>
      </trkpt>
      <trkpt lat="45.58394" lon="6.6452">
        <ele>1686.5999755859</ele>
        <time>2019-12-30T09:05:30.000Z</time>
      </trkpt>
      <trkpt lat="45.58392" lon="6.64516">
        <ele>1687.5999755859</ele>
        <time>2019-12-30T09:05:35.000Z</time>
      </trkpt>
      <trkpt lat="45.58391" lon="6.64516">
        <ele>1687.5999755859</ele>
        <time>2019-12-30T09:05:36.000Z</time>
      </trkpt>
      <trkpt lat="45.58389" lon="6.64511">
        <ele>1688.5999755859</ele>
        <time>2019-12-30T09:05:42.000Z</time>
      </trkpt>
      <trkpt lat="45.58388" lon="6.6451">
        <ele>1688.8000488281</ele>
        <time>2019-12-30T09:05:43.000Z</time>
      </trkpt>
      <trkpt lat="45.58386" lon="6.64505">
        <ele>1690</ele>
        <time>2019-12-30T09:05:48.000Z</time>
      </trkpt>
      <trkpt lat="45.58384" lon="6.64501">
        <ele>1690.8000488281</ele>
        <time>2019-12-30T09:05:54.000Z</time>
      </trkpt>
      <trkpt lat="45.58384" lon="6.645">
        <ele>1691.1999511719</ele>
        <time>2019-12-30T09:05:55.000Z</time>
      </trkpt>
      <trkpt lat="45.58383" lon="6.64496">
        <ele>1692.1999511719</ele>
        <time>2019-12-30T09:05:59.000Z</time>
      </trkpt>
      <trkpt lat="45.58382" lon="6.64496">
        <ele>1692.4000244141</ele>
        <time>2019-12-30T09:06:00.000Z</time>
      </trkpt>
      <trkpt lat="45.5838" lon="6.6449">
        <ele>1693.4000244141</ele>
        <time>2019-12-30T09:06:06.000Z</time>
      </trkpt>
      <trkpt lat="45.58378" lon="6.64486">
        <ele>1694.5999755859</ele>
        <time>2019-12-30T09:06:11.000Z</time>
      </trkpt>
      <trkpt lat="45.58378" lon="6.64485">
        <ele>1694.5999755859</ele>
        <time>2019-12-30T09:06:12.000Z</time>
      </trkpt>
      <trkpt lat="45.58376" lon="6.64481">
        <ele>1695.5999755859</ele>
        <time>2019-12-30T09:06:17.000Z</time>
      </trkpt>
      <trkpt lat="45.58376" lon="6.6448">
        <ele>1695.8000488281</ele>
        <time>2019-12-30T09:06:18.000Z</time>
      </trkpt>
      <trkpt lat="45.58374" lon="6.64475">
        <ele>1696.4000244141</ele>
        <time>2019-12-30T09:06:24.000Z</time>
      </trkpt>
      <trkpt lat="45.58374" lon="6.64474">
        <ele>1696.8000488281</ele>
        <time>2019-12-30T09:06:25.000Z</time>
      </trkpt>
      <trkpt lat="45.58372" lon="6.64471">
        <ele>1697.8000488281</ele>
        <time>2019-12-30T09:06:29.000Z</time>
      </trkpt>
      <trkpt lat="45.58371" lon="6.6447">
        <ele>1698</ele>
        <time>2019-12-30T09:06:31.000Z</time>
      </trkpt>
      <trkpt lat="45.5837" lon="6.64467">
        <ele>1699</ele>
        <time>2019-12-30T09:06:35.000Z</time>
      </trkpt>
      <trkpt lat="45.58367" lon="6.64462">
        <ele>1700</ele>
        <time>2019-12-30T09:06:40.000Z</time>
      </trkpt>
      <trkpt lat="45.58365" lon="6.64455">
        <ele>1701</ele>
        <time>2019-12-30T09:06:46.000Z</time>
      </trkpt>
      <trkpt lat="45.58364" lon="6.64454">
        <ele>1701.1999511719</ele>
        <time>2019-12-30T09:06:47.000Z</time>
      </trkpt>
      <trkpt lat="45.58362" lon="6.6445">
        <ele>1702.4000244141</ele>
        <time>2019-12-30T09:06:52.000Z</time>
      </trkpt>
      <trkpt lat="45.58361" lon="6.64446">
        <ele>1703.4000244141</ele>
        <time>2019-12-30T09:06:57.000Z</time>
      </trkpt>
      <trkpt lat="45.5836" lon="6.64445">
        <ele>1703.8000488281</ele>
        <time>2019-12-30T09:06:59.000Z</time>
      </trkpt>
      <trkpt lat="45.58358" lon="6.64442">
        <ele>1704.5999755859</ele>
        <time>2019-12-30T09:07:02.000Z</time>
      </trkpt>
      <trkpt lat="45.58358" lon="6.64439">
        <ele>1705</ele>
        <time>2019-12-30T09:07:05.000Z</time>
      </trkpt>
      <trkpt lat="45.58356" lon="6.64436">
        <ele>1705.5999755859</ele>
        <time>2019-12-30T09:07:09.000Z</time>
      </trkpt>
      <trkpt lat="45.58356" lon="6.64435">
        <ele>1706.1999511719</ele>
        <time>2019-12-30T09:07:11.000Z</time>
      </trkpt>
      <trkpt lat="45.58354" lon="6.64433">
        <ele>1706.8000488281</ele>
        <time>2019-12-30T09:07:15.000Z</time>
      </trkpt>
      <trkpt lat="45.58354" lon="6.64432">
        <ele>1707</ele>
        <time>2019-12-30T09:07:17.000Z</time>
      </trkpt>
      <trkpt lat="45.58352" lon="6.64429">
        <ele>1707.8000488281</ele>
        <time>2019-12-30T09:07:21.000Z</time>
      </trkpt>
      <trkpt lat="45.58352" lon="6.64426">
        <ele>1708.4000244141</ele>
        <time>2019-12-30T09:07:23.000Z</time>
      </trkpt>
      <trkpt lat="45.58351" lon="6.64424">
        <ele>1709</ele>
        <time>2019-12-30T09:07:25.000Z</time>
      </trkpt>
      <trkpt lat="45.5835" lon="6.64422">
        <ele>1709.5999755859</ele>
        <time>2019-12-30T09:07:29.000Z</time>
      </trkpt>
      <trkpt lat="45.58349" lon="6.64419">
        <ele>1710</ele>
        <time>2019-12-30T09:07:31.000Z</time>
      </trkpt>
      <trkpt lat="45.58348" lon="6.64417">
        <ele>1710.5999755859</ele>
        <time>2019-12-30T09:07:34.000Z</time>
      </trkpt>
      <trkpt lat="45.58347" lon="6.64416">
        <ele>1711</ele>
        <time>2019-12-30T09:07:38.000Z</time>
      </trkpt>
      <trkpt lat="45.58346" lon="6.64414">
        <ele>1711.5999755859</ele>
        <time>2019-12-30T09:07:40.000Z</time>
      </trkpt>
      <trkpt lat="45.58345" lon="6.64411">
        <ele>1712</ele>
        <time>2019-12-30T09:07:43.000Z</time>
      </trkpt>
      <trkpt lat="45.58344" lon="6.64409">
        <ele>1713</ele>
        <time>2019-12-30T09:07:47.000Z</time>
      </trkpt>
      <trkpt lat="45.58344" lon="6.64408">
        <ele>1713.1999511719</ele>
        <time>2019-12-30T09:07:49.000Z</time>
      </trkpt>
      <trkpt lat="45.58347" lon="6.64407">
        <ele>1714.4000244141</ele>
        <time>2019-12-30T09:07:53.000Z</time>
      </trkpt>
      <trkpt lat="45.58347" lon="6.64406">
        <ele>1714.5999755859</ele>
        <time>2019-12-30T09:07:54.000Z</time>
      </trkpt>
      <trkpt lat="45.58352" lon="6.64404">
        <ele>1715.4000244141</ele>
        <time>2019-12-30T09:07:59.000Z</time>
      </trkpt>
      <trkpt lat="45.58352" lon="6.64404">
        <ele>1715.4000244141</ele>
        <time>2019-12-30T09:08:00.000Z</time>
      </trkpt>
      <trkpt lat="45.58357" lon="6.64401">
        <ele>1716.1999511719</ele>
        <time>2019-12-30T09:08:06.000Z</time>
      </trkpt>
      <trkpt lat="45.58357" lon="6.64401">
        <ele>1716.4000244141</ele>
        <time>2019-12-30T09:08:07.000Z</time>
      </trkpt>
      <trkpt lat="45.5836" lon="6.64398">
        <ele>1717.4000244141</ele>
        <time>2019-12-30T09:08:12.000Z</time>
      </trkpt>
      <trkpt lat="45.58362" lon="6.64395">
        <ele>1718.1999511719</ele>
        <time>2019-12-30T09:08:18.000Z</time>
      </trkpt>
      <trkpt lat="45.58363" lon="6.64395">
        <ele>1718.4000244141</ele>
        <time>2019-12-30T09:08:19.000Z</time>
      </trkpt>
      <trkpt lat="45.58365" lon="6.64393">
        <ele>1719.4000244141</ele>
        <time>2019-12-30T09:08:23.000Z</time>
      </trkpt>
      <trkpt lat="45.58367" lon="6.64391">
        <ele>1720</ele>
        <time>2019-12-30T09:08:25.000Z</time>
      </trkpt>
      <trkpt lat="45.5837" lon="6.64388">
        <ele>1720.5999755859</ele>
        <time>2019-12-30T09:08:30.000Z</time>
      </trkpt>
      <trkpt lat="45.5837" lon="6.64387">
        <ele>1720.8000488281</ele>
        <time>2019-12-30T09:08:31.000Z</time>
      </trkpt>
      <trkpt lat="45.58373" lon="6.64385">
        <ele>1721.8000488281</ele>
        <time>2019-12-30T09:08:36.000Z</time>
      </trkpt>
      <trkpt lat="45.58374" lon="6.64384">
        <ele>1722</ele>
        <time>2019-12-30T09:08:38.000Z</time>
      </trkpt>
      <trkpt lat="45.58377" lon="6.64383">
        <ele>1722.8000488281</ele>
        <time>2019-12-30T09:08:42.000Z</time>
      </trkpt>
      <trkpt lat="45.58378" lon="6.64382">
        <ele>1723.1999511719</ele>
        <time>2019-12-30T09:08:45.000Z</time>
      </trkpt>
      <trkpt lat="45.58379" lon="6.64379">
        <ele>1724</ele>
        <time>2019-12-30T09:08:48.000Z</time>
      </trkpt>
      <trkpt lat="45.5838" lon="6.64377">
        <ele>1724.4000244141</ele>
        <time>2019-12-30T09:08:51.000Z</time>
      </trkpt>
      <trkpt lat="45.58382" lon="6.64376">
        <ele>1725</ele>
        <time>2019-12-30T09:08:56.000Z</time>
      </trkpt>
      <trkpt lat="45.58383" lon="6.64374">
        <ele>1725.5999755859</ele>
        <time>2019-12-30T09:08:59.000Z</time>
      </trkpt>
      <trkpt lat="45.58386" lon="6.64373">
        <ele>1726</ele>
        <time>2019-12-30T09:09:03.000Z</time>
      </trkpt>
      <trkpt lat="45.58387" lon="6.64373">
        <ele>1726.5999755859</ele>
        <time>2019-12-30T09:09:06.000Z</time>
      </trkpt>
      <trkpt lat="45.58388" lon="6.64373">
        <ele>1727</ele>
        <time>2019-12-30T09:09:08.000Z</time>
      </trkpt>
      <trkpt lat="45.58391" lon="6.64372">
        <ele>1727.5999755859</ele>
        <time>2019-12-30T09:09:12.000Z</time>
      </trkpt>
      <trkpt lat="45.58392" lon="6.64372">
        <ele>1728</ele>
        <time>2019-12-30T09:09:14.000Z</time>
      </trkpt>
      <trkpt lat="45.58394" lon="6.64371">
        <ele>1728.8000488281</ele>
        <time>2019-12-30T09:09:18.000Z</time>
      </trkpt>
      <trkpt lat="45.58396" lon="6.64371">
        <ele>1729.1999511719</ele>
        <time>2019-12-30T09:09:20.000Z</time>
      </trkpt>
      <trkpt lat="45.58397" lon="6.6437">
        <ele>1729.8000488281</ele>
        <time>2019-12-30T09:09:23.000Z</time>
      </trkpt>
      <trkpt lat="45.58399" lon="6.64368">
        <ele>1730.4000244141</ele>
        <time>2019-12-30T09:09:26.000Z</time>
      </trkpt>
      <trkpt lat="45.58397" lon="6.64365">
        <ele>1730.5999755859</ele>
        <time>2019-12-30T09:09:29.000Z</time>
      </trkpt>
      <trkpt lat="45.58396" lon="6.64364">
        <ele>1731.5999755859</ele>
        <time>2019-12-30T09:09:32.000Z</time>
      </trkpt>
      <trkpt lat="45.58395" lon="6.64363">
        <ele>1732</ele>
        <time>2019-12-30T09:09:34.000Z</time>
      </trkpt>
      <trkpt lat="45.58393" lon="6.64359">
        <ele>1732.8000488281</ele>
        <time>2019-12-30T09:09:41.000Z</time>
      </trkpt>
      <trkpt lat="45.5839" lon="6.64355">
        <ele>1734</ele>
        <time>2019-12-30T09:09:46.000Z</time>
      </trkpt>
      <trkpt lat="45.5839" lon="6.64354">
        <ele>1734</ele>
        <time>2019-12-30T09:09:47.000Z</time>
      </trkpt>
      <trkpt lat="45.58389" lon="6.64352">
        <ele>1735</ele>
        <time>2019-12-30T09:09:51.000Z</time>
      </trkpt>
      <trkpt lat="45.58388" lon="6.64352">
        <ele>1735</ele>
        <time>2019-12-30T09:09:52.000Z</time>
      </trkpt>
      <trkpt lat="45.58386" lon="6.6435">
        <ele>1736</ele>
        <time>2019-12-30T09:09:57.000Z</time>
      </trkpt>
      <trkpt lat="45.58386" lon="6.6435">
        <ele>1737</ele>
        <time>2019-12-30T09:10:00.000Z</time>
      </trkpt>
      <trkpt lat="45.58387" lon="6.6435">
        <ele>1737.4000244141</ele>
        <time>2019-12-30T09:10:07.000Z</time>
      </trkpt>
      <trkpt lat="45.58391" lon="6.64347">
        <ele>1738.4000244141</ele>
        <time>2019-12-30T09:10:12.000Z</time>
      </trkpt>
      <trkpt lat="45.58391" lon="6.64347">
        <ele>1738.5999755859</ele>
        <time>2019-12-30T09:10:14.000Z</time>
      </trkpt>
      <trkpt lat="45.58395" lon="6.64346">
        <ele>1739.4000244141</ele>
        <time>2019-12-30T09:10:20.000Z</time>
      </trkpt>
      <trkpt lat="45.58396" lon="6.64346">
        <ele>1739.5999755859</ele>
        <time>2019-12-30T09:10:21.000Z</time>
      </trkpt>
      <trkpt lat="45.58399" lon="6.64345">
        <ele>1740.4000244141</ele>
        <time>2019-12-30T09:10:26.000Z</time>
      </trkpt>
      <trkpt lat="45.584" lon="6.64345">
        <ele>1740.5999755859</ele>
        <time>2019-12-30T09:10:27.000Z</time>
      </trkpt>
      <trkpt lat="45.58403" lon="6.64346">
        <ele>1741.1999511719</ele>
        <time>2019-12-30T09:10:31.000Z</time>
      </trkpt>
      <trkpt lat="45.58405" lon="6.64345">
        <ele>1741.8000488281</ele>
        <time>2019-12-30T09:10:34.000Z</time>
      </trkpt>
      <trkpt lat="45.58406" lon="6.64345">
        <ele>1742.4000244141</ele>
        <time>2019-12-30T09:10:36.000Z</time>
      </trkpt>
      <trkpt lat="45.58407" lon="6.64344">
        <ele>1742.8000488281</ele>
        <time>2019-12-30T09:10:38.000Z</time>
      </trkpt>
      <trkpt lat="45.58409" lon="6.64341">
        <ele>1743.8000488281</ele>
        <time>2019-12-30T09:10:42.000Z</time>
      </trkpt>
      <trkpt lat="45.58409" lon="6.64341">
        <ele>1744</ele>
        <time>2019-12-30T09:10:43.000Z</time>
      </trkpt>
      <trkpt lat="45.58409" lon="6.64339">
        <ele>1744.4000244141</ele>
        <time>2019-12-30T09:10:48.000Z</time>
      </trkpt>
      <trkpt lat="45.58407" lon="6.64338">
        <ele>1745.1999511719</ele>
        <time>2019-12-30T09:10:51.000Z</time>
      </trkpt>
      <trkpt lat="45.58406" lon="6.64336">
        <ele>1745.8000488281</ele>
        <time>2019-12-30T09:10:54.000Z</time>
      </trkpt>
      <trkpt lat="45.58406" lon="6.64335">
        <ele>1746.4000244141</ele>
        <time>2019-12-30T09:10:59.000Z</time>
      </trkpt>
      <trkpt lat="45.58407" lon="6.64332">
        <ele>1747.4000244141</ele>
        <time>2019-12-30T09:11:03.000Z</time>
      </trkpt>
      <trkpt lat="45.58407" lon="6.6433">
        <ele>1747.5999755859</ele>
        <time>2019-12-30T09:11:05.000Z</time>
      </trkpt>
      <trkpt lat="45.58405" lon="6.64325">
        <ele>1748.5999755859</ele>
        <time>2019-12-30T09:11:11.000Z</time>
      </trkpt>
      <trkpt lat="45.58404" lon="6.64323">
        <ele>1749</ele>
        <time>2019-12-30T09:11:13.000Z</time>
      </trkpt>
      <trkpt lat="45.58402" lon="6.64321">
        <ele>1749.5999755859</ele>
        <time>2019-12-30T09:11:16.000Z</time>
      </trkpt>
      <trkpt lat="45.584" lon="6.6432">
        <ele>1750</ele>
        <time>2019-12-30T09:11:19.000Z</time>
      </trkpt>
      <trkpt lat="45.58398" lon="6.64318">
        <ele>1750.8000488281</ele>
        <time>2019-12-30T09:11:23.000Z</time>
      </trkpt>
      <trkpt lat="45.58398" lon="6.64317">
        <ele>1751.1999511719</ele>
        <time>2019-12-30T09:11:25.000Z</time>
      </trkpt>
      <trkpt lat="45.58397" lon="6.64313">
        <ele>1751.8000488281</ele>
        <time>2019-12-30T09:11:29.000Z</time>
      </trkpt>
      <trkpt lat="45.58397" lon="6.64311">
        <ele>1752.1999511719</ele>
        <time>2019-12-30T09:11:32.000Z</time>
      </trkpt>
      <trkpt lat="45.58397" lon="6.64308">
        <ele>1753</ele>
        <time>2019-12-30T09:11:36.000Z</time>
      </trkpt>
      <trkpt lat="45.58396" lon="6.64306">
        <ele>1753.4000244141</ele>
        <time>2019-12-30T09:11:39.000Z</time>
      </trkpt>
      <trkpt lat="45.58396" lon="6.64305">
        <ele>1754.1999511719</ele>
        <time>2019-12-30T09:11:42.000Z</time>
      </trkpt>
      <trkpt lat="45.58395" lon="6.64301">
        <ele>1754.8000488281</ele>
        <time>2019-12-30T09:11:46.000Z</time>
      </trkpt>
      <trkpt lat="45.58395" lon="6.64299">
        <ele>1755.1999511719</ele>
        <time>2019-12-30T09:11:48.000Z</time>
      </trkpt>
      <trkpt lat="45.58392" lon="6.64297">
        <ele>1756.1999511719</ele>
        <time>2019-12-30T09:11:52.000Z</time>
      </trkpt>
      <trkpt lat="45.58391" lon="6.64298">
        <ele>1756.5999755859</ele>
        <time>2019-12-30T09:11:53.000Z</time>
      </trkpt>
      <trkpt lat="45.58389" lon="6.64297">
        <ele>1757.4000244141</ele>
        <time>2019-12-30T09:11:56.000Z</time>
      </trkpt>
      <trkpt lat="45.58388" lon="6.64297">
        <ele>1757.8000488281</ele>
        <time>2019-12-30T09:12:00.000Z</time>
      </trkpt>
      <trkpt lat="45.58386" lon="6.64293">
        <ele>1758.4000244141</ele>
        <time>2019-12-30T09:12:05.000Z</time>
      </trkpt>
      <trkpt lat="45.58386" lon="6.64291">
        <ele>1759.1999511719</ele>
        <time>2019-12-30T09:12:08.000Z</time>
      </trkpt>
      <trkpt lat="45.58385" lon="6.6429">
        <ele>1759.8000488281</ele>
        <time>2019-12-30T09:12:10.000Z</time>
      </trkpt>
      <trkpt lat="45.58382" lon="6.64286">
        <ele>1760.8000488281</ele>
        <time>2019-12-30T09:12:15.000Z</time>
      </trkpt>
      <trkpt lat="45.58378" lon="6.64283">
        <ele>1762</ele>
        <time>2019-12-30T09:12:20.000Z</time>
      </trkpt>
      <trkpt lat="45.58377" lon="6.64282">
        <ele>1762.4000244141</ele>
        <time>2019-12-30T09:12:23.000Z</time>
      </trkpt>
      <trkpt lat="45.58377" lon="6.64281">
        <ele>1763</ele>
        <time>2019-12-30T09:12:27.000Z</time>
      </trkpt>
      <trkpt lat="45.58376" lon="6.64281">
        <ele>1764.1999511719</ele>
        <time>2019-12-30T09:12:32.000Z</time>
      </trkpt>
      <trkpt lat="45.58376" lon="6.64279">
        <ele>1764.4000244141</ele>
        <time>2019-12-30T09:12:33.000Z</time>
      </trkpt>
      <trkpt lat="45.58374" lon="6.64276">
        <ele>1765.5999755859</ele>
        <time>2019-12-30T09:12:37.000Z</time>
      </trkpt>
      <trkpt lat="45.5837" lon="6.64273">
        <ele>1766.1999511719</ele>
        <time>2019-12-30T09:12:40.000Z</time>
      </trkpt>
      <trkpt lat="45.58369" lon="6.64272">
        <ele>1766.5999755859</ele>
        <time>2019-12-30T09:12:42.000Z</time>
      </trkpt>
      <trkpt lat="45.58367" lon="6.6427">
        <ele>1767.1999511719</ele>
        <time>2019-12-30T09:12:46.000Z</time>
      </trkpt>
      <trkpt lat="45.58367" lon="6.64266">
        <ele>1767.8000488281</ele>
        <time>2019-12-30T09:12:50.000Z</time>
      </trkpt>
      <trkpt lat="45.58366" lon="6.64262">
        <ele>1768.5999755859</ele>
        <time>2019-12-30T09:12:54.000Z</time>
      </trkpt>
      <trkpt lat="45.58366" lon="6.64261">
        <ele>1768.8000488281</ele>
        <time>2019-12-30T09:12:55.000Z</time>
      </trkpt>
      <trkpt lat="45.58363" lon="6.6426">
        <ele>1770</ele>
        <time>2019-12-30T09:13:00.000Z</time>
      </trkpt>
      <trkpt lat="45.58356" lon="6.64258">
        <ele>1770.8000488281</ele>
        <time>2019-12-30T09:13:06.000Z</time>
      </trkpt>
      <trkpt lat="45.58354" lon="6.64257">
        <ele>1771</ele>
        <time>2019-12-30T09:13:07.000Z</time>
      </trkpt>
      <trkpt lat="45.58346" lon="6.64256">
        <ele>1771.4000244141</ele>
        <time>2019-12-30T09:13:14.000Z</time>
      </trkpt>
      <trkpt lat="45.58343" lon="6.64255">
        <ele>1772</ele>
        <time>2019-12-30T09:13:17.000Z</time>
      </trkpt>
      <trkpt lat="45.58342" lon="6.64253">
        <ele>1773</ele>
        <time>2019-12-30T09:13:20.000Z</time>
      </trkpt>
      <trkpt lat="45.58341" lon="6.64251">
        <ele>1773.4000244141</ele>
        <time>2019-12-30T09:13:22.000Z</time>
      </trkpt>
      <trkpt lat="45.5834" lon="6.64248">
        <ele>1774.4000244141</ele>
        <time>2019-12-30T09:13:25.000Z</time>
      </trkpt>
      <trkpt lat="45.58339" lon="6.64244">
        <ele>1775</ele>
        <time>2019-12-30T09:13:30.000Z</time>
      </trkpt>
      <trkpt lat="45.58339" lon="6.64243">
        <ele>1775.5999755859</ele>
        <time>2019-12-30T09:13:32.000Z</time>
      </trkpt>
      <trkpt lat="45.58338" lon="6.6424">
        <ele>1776.5999755859</ele>
        <time>2019-12-30T09:13:36.000Z</time>
      </trkpt>
      <trkpt lat="45.58338" lon="6.6424">
        <ele>1776.8000488281</ele>
        <time>2019-12-30T09:13:37.000Z</time>
      </trkpt>
      <trkpt lat="45.58336" lon="6.64236">
        <ele>1778</ele>
        <time>2019-12-30T09:13:42.000Z</time>
      </trkpt>
      <trkpt lat="45.58334" lon="6.64235">
        <ele>1778.4000244141</ele>
        <time>2019-12-30T09:13:44.000Z</time>
      </trkpt>
      <trkpt lat="45.58331" lon="6.64234">
        <ele>1779.1999511719</ele>
        <time>2019-12-30T09:13:48.000Z</time>
      </trkpt>
      <trkpt lat="45.58329" lon="6.64233">
        <ele>1779.4000244141</ele>
        <time>2019-12-30T09:13:50.000Z</time>
      </trkpt>
      <trkpt lat="45.58327" lon="6.6423">
        <ele>1780.1999511719</ele>
        <time>2019-12-30T09:13:55.000Z</time>
      </trkpt>
      <trkpt lat="45.58327" lon="6.6423">
        <ele>1780.1999511719</ele>
        <time>2019-12-30T09:13:56.000Z</time>
      </trkpt>
      <trkpt lat="45.58327" lon="6.6423">
        <ele>1781.1999511719</ele>
        <time>2019-12-30T09:14:02.000Z</time>
      </trkpt>
      <trkpt lat="45.58327" lon="6.6423">
        <ele>1781.4000244141</ele>
        <time>2019-12-30T09:14:03.000Z</time>
      </trkpt>
      <trkpt lat="45.58333" lon="6.64229">
        <ele>1782.4000244141</ele>
        <time>2019-12-30T09:14:09.000Z</time>
      </trkpt>
      <trkpt lat="45.58339" lon="6.64226">
        <ele>1783.4000244141</ele>
        <time>2019-12-30T09:14:16.000Z</time>
      </trkpt>
      <trkpt lat="45.58337" lon="6.64222">
        <ele>1784.8000488281</ele>
        <time>2019-12-30T09:14:21.000Z</time>
      </trkpt>
      <trkpt lat="45.58335" lon="6.64221">
        <ele>1785</ele>
        <time>2019-12-30T09:14:22.000Z</time>
      </trkpt>
      <trkpt lat="45.58333" lon="6.64219">
        <ele>1785.8000488281</ele>
        <time>2019-12-30T09:14:25.000Z</time>
      </trkpt>
      <trkpt lat="45.58331" lon="6.64217">
        <ele>1786</ele>
        <time>2019-12-30T09:14:27.000Z</time>
      </trkpt>
      <trkpt lat="45.58328" lon="6.64214">
        <ele>1786.8000488281</ele>
        <time>2019-12-30T09:14:32.000Z</time>
      </trkpt>
      <trkpt lat="45.58327" lon="6.64214">
        <ele>1787</ele>
        <time>2019-12-30T09:14:33.000Z</time>
      </trkpt>
      <trkpt lat="45.58327" lon="6.64211">
        <ele>1788</ele>
        <time>2019-12-30T09:14:37.000Z</time>
      </trkpt>
      <trkpt lat="45.58327" lon="6.64209">
        <ele>1788.5999755859</ele>
        <time>2019-12-30T09:14:39.000Z</time>
      </trkpt>
      <trkpt lat="45.58327" lon="6.64209">
        <ele>1789</ele>
        <time>2019-12-30T09:14:41.000Z</time>
      </trkpt>
      <trkpt lat="45.58327" lon="6.64209">
        <ele>1789.1999511719</ele>
        <time>2019-12-30T09:14:44.000Z</time>
      </trkpt>
      <trkpt lat="45.58324" lon="6.64207">
        <ele>1789.5999755859</ele>
        <time>2019-12-30T09:14:49.000Z</time>
      </trkpt>
      <trkpt lat="45.58324" lon="6.64207">
        <ele>1790</ele>
        <time>2019-12-30T09:14:52.000Z</time>
      </trkpt>
      <trkpt lat="45.58321" lon="6.64206">
        <ele>1791.1999511719</ele>
        <time>2019-12-30T09:14:55.000Z</time>
      </trkpt>
      <trkpt lat="45.58318" lon="6.64205">
        <ele>1792.1999511719</ele>
        <time>2019-12-30T09:14:59.000Z</time>
      </trkpt>
      <trkpt lat="45.58316" lon="6.64203">
        <ele>1793.1999511719</ele>
        <time>2019-12-30T09:15:04.000Z</time>
      </trkpt>
      <trkpt lat="45.58316" lon="6.64202">
        <ele>1793.4000244141</ele>
        <time>2019-12-30T09:15:05.000Z</time>
      </trkpt>
      <trkpt lat="45.58316" lon="6.64202">
        <ele>1794.1999511719</ele>
        <time>2019-12-30T09:15:11.000Z</time>
      </trkpt>
      <trkpt lat="45.58316" lon="6.64202">
        <ele>1794.4000244141</ele>
        <time>2019-12-30T09:15:13.000Z</time>
      </trkpt>
      <trkpt lat="45.58312" lon="6.64203">
        <ele>1794.8000488281</ele>
        <time>2019-12-30T09:15:19.000Z</time>
      </trkpt>
      <trkpt lat="45.58309" lon="6.64202">
        <ele>1795.4000244141</ele>
        <time>2019-12-30T09:15:23.000Z</time>
      </trkpt>
      <trkpt lat="45.58307" lon="6.642">
        <ele>1796.1999511719</ele>
        <time>2019-12-30T09:15:29.000Z</time>
      </trkpt>
      <trkpt lat="45.58304" lon="6.64197">
        <ele>1796.5999755859</ele>
        <time>2019-12-30T09:15:31.000Z</time>
      </trkpt>
      <trkpt lat="45.583" lon="6.64194">
        <ele>1797.4000244141</ele>
        <time>2019-12-30T09:15:35.000Z</time>
      </trkpt>
      <trkpt lat="45.58297" lon="6.64193">
        <ele>1797.5999755859</ele>
        <time>2019-12-30T09:15:37.000Z</time>
      </trkpt>
      <trkpt lat="45.58294" lon="6.64193">
        <ele>1798.1999511719</ele>
        <time>2019-12-30T09:15:40.000Z</time>
      </trkpt>
      <trkpt lat="45.5829" lon="6.64192">
        <ele>1798.8000488281</ele>
        <time>2019-12-30T09:15:44.000Z</time>
      </trkpt>
      <trkpt lat="45.58288" lon="6.64191">
        <ele>1799.1999511719</ele>
        <time>2019-12-30T09:15:46.000Z</time>
      </trkpt>
      <trkpt lat="45.58285" lon="6.64188">
        <ele>1800</ele>
        <time>2019-12-30T09:15:52.000Z</time>
      </trkpt>
      <trkpt lat="45.58285" lon="6.64187">
        <ele>1800.1999511719</ele>
        <time>2019-12-30T09:15:53.000Z</time>
      </trkpt>
      <trkpt lat="45.58284" lon="6.64183">
        <ele>1801</ele>
        <time>2019-12-30T09:15:57.000Z</time>
      </trkpt>
      <trkpt lat="45.58287" lon="6.64184">
        <ele>1801.5999755859</ele>
        <time>2019-12-30T09:16:01.000Z</time>
      </trkpt>
      <trkpt lat="45.58288" lon="6.64184">
        <ele>1802.1999511719</ele>
        <time>2019-12-30T09:16:04.000Z</time>
      </trkpt>
      <trkpt lat="45.58289" lon="6.64183">
        <ele>1802.5999755859</ele>
        <time>2019-12-30T09:16:07.000Z</time>
      </trkpt>
      <trkpt lat="45.58291" lon="6.64179">
        <ele>1803.4000244141</ele>
        <time>2019-12-30T09:16:13.000Z</time>
      </trkpt>
      <trkpt lat="45.58292" lon="6.64174">
        <ele>1804.5999755859</ele>
        <time>2019-12-30T09:16:20.000Z</time>
      </trkpt>
      <trkpt lat="45.58293" lon="6.64168">
        <ele>1805.8000488281</ele>
        <time>2019-12-30T09:16:27.000Z</time>
      </trkpt>
      <trkpt lat="45.5829" lon="6.64163">
        <ele>1807</ele>
        <time>2019-12-30T09:16:33.000Z</time>
      </trkpt>
      <trkpt lat="45.58288" lon="6.6416">
        <ele>1808</ele>
        <time>2019-12-30T09:16:38.000Z</time>
      </trkpt>
      <trkpt lat="45.58285" lon="6.64158">
        <ele>1808.8000488281</ele>
        <time>2019-12-30T09:16:44.000Z</time>
      </trkpt>
      <trkpt lat="45.58285" lon="6.64158">
        <ele>1809</ele>
        <time>2019-12-30T09:16:47.000Z</time>
      </trkpt>
      <trkpt lat="45.58288" lon="6.64157">
        <ele>1809.8000488281</ele>
        <time>2019-12-30T09:16:51.000Z</time>
      </trkpt>
      <trkpt lat="45.58289" lon="6.64157">
        <ele>1810.1999511719</ele>
        <time>2019-12-30T09:16:52.000Z</time>
      </trkpt>
      <trkpt lat="45.58294" lon="6.64154">
        <ele>1811.1999511719</ele>
        <time>2019-12-30T09:16:58.000Z</time>
      </trkpt>
      <trkpt lat="45.58296" lon="6.64154">
        <ele>1812.4000244141</ele>
        <time>2019-12-30T09:17:03.000Z</time>
      </trkpt>
      <trkpt lat="45.583" lon="6.64152">
        <ele>1813</ele>
        <time>2019-12-30T09:17:08.000Z</time>
      </trkpt>
      <trkpt lat="45.583" lon="6.64152">
        <ele>1813.4000244141</ele>
        <time>2019-12-30T09:17:10.000Z</time>
      </trkpt>
      <trkpt lat="45.58301" lon="6.64151">
        <ele>1813.8000488281</ele>
        <time>2019-12-30T09:17:12.000Z</time>
      </trkpt>
      <trkpt lat="45.58304" lon="6.64149">
        <ele>1814.4000244141</ele>
        <time>2019-12-30T09:17:15.000Z</time>
      </trkpt>
      <trkpt lat="45.58305" lon="6.64148">
        <ele>1814.8000488281</ele>
        <time>2019-12-30T09:17:17.000Z</time>
      </trkpt>
      <trkpt lat="45.58308" lon="6.64145">
        <ele>1815.5999755859</ele>
        <time>2019-12-30T09:17:21.000Z</time>
      </trkpt>
      <trkpt lat="45.58309" lon="6.64144">
        <ele>1816</ele>
        <time>2019-12-30T09:17:23.000Z</time>
      </trkpt>
      <trkpt lat="45.58311" lon="6.64143">
        <ele>1816.5999755859</ele>
        <time>2019-12-30T09:17:26.000Z</time>
      </trkpt>
      <trkpt lat="45.58313" lon="6.64141">
        <ele>1817</ele>
        <time>2019-12-30T09:17:29.000Z</time>
      </trkpt>
      <trkpt lat="45.58315" lon="6.64141">
        <ele>1817.5999755859</ele>
        <time>2019-12-30T09:17:32.000Z</time>
      </trkpt>
      <trkpt lat="45.58317" lon="6.6414">
        <ele>1818</ele>
        <time>2019-12-30T09:17:34.000Z</time>
      </trkpt>
      <trkpt lat="45.58318" lon="6.64138">
        <ele>1818.8000488281</ele>
        <time>2019-12-30T09:17:38.000Z</time>
      </trkpt>
      <trkpt lat="45.58321" lon="6.64135">
        <ele>1819.8000488281</ele>
        <time>2019-12-30T09:17:43.000Z</time>
      </trkpt>
      <trkpt lat="45.58322" lon="6.64134">
        <ele>1820</ele>
        <time>2019-12-30T09:17:44.000Z</time>
      </trkpt>
      <trkpt lat="45.58325" lon="6.6413">
        <ele>1821</ele>
        <time>2019-12-30T09:17:49.000Z</time>
      </trkpt>
      <trkpt lat="45.58326" lon="6.64129">
        <ele>1821.4000244141</ele>
        <time>2019-12-30T09:17:51.000Z</time>
      </trkpt>
      <trkpt lat="45.58328" lon="6.64126">
        <ele>1822.1999511719</ele>
        <time>2019-12-30T09:17:56.000Z</time>
      </trkpt>
      <trkpt lat="45.5833" lon="6.64125">
        <ele>1822.4000244141</ele>
        <time>2019-12-30T09:17:58.000Z</time>
      </trkpt>
      <trkpt lat="45.58333" lon="6.64123">
        <ele>1823.1999511719</ele>
        <time>2019-12-30T09:18:04.000Z</time>
      </trkpt>
      <trkpt lat="45.58336" lon="6.6412">
        <ele>1824</ele>
        <time>2019-12-30T09:18:09.000Z</time>
      </trkpt>
      <trkpt lat="45.58337" lon="6.6412">
        <ele>1824.1999511719</ele>
        <time>2019-12-30T09:18:10.000Z</time>
      </trkpt>
      <trkpt lat="45.58336" lon="6.64117">
        <ele>1824.8000488281</ele>
        <time>2019-12-30T09:18:15.000Z</time>
      </trkpt>
      <trkpt lat="45.58334" lon="6.64116">
        <ele>1825</ele>
        <time>2019-12-30T09:18:16.000Z</time>
      </trkpt>
      <trkpt lat="45.58333" lon="6.64115">
        <ele>1825.5999755859</ele>
        <time>2019-12-30T09:18:18.000Z</time>
      </trkpt>
      <trkpt lat="45.58331" lon="6.64114">
        <ele>1826</ele>
        <time>2019-12-30T09:18:20.000Z</time>
      </trkpt>
      <trkpt lat="45.5833" lon="6.64113">
        <ele>1826.1999511719</ele>
        <time>2019-12-30T09:18:21.000Z</time>
      </trkpt>
      <trkpt lat="45.58329" lon="6.64111">
        <ele>1826.4000244141</ele>
        <time>2019-12-30T09:18:24.000Z</time>
      </trkpt>
      <trkpt lat="45.58327" lon="6.64111">
        <ele>1826.5999755859</ele>
        <time>2019-12-30T09:18:27.000Z</time>
      </trkpt>
      <trkpt lat="45.58323" lon="6.64108">
        <ele>1827.5999755859</ele>
        <time>2019-12-30T09:18:31.000Z</time>
      </trkpt>
      <trkpt lat="45.58323" lon="6.64107">
        <ele>1827.8000488281</ele>
        <time>2019-12-30T09:18:32.000Z</time>
      </trkpt>
      <trkpt lat="45.58319" lon="6.64105">
        <ele>1828.4000244141</ele>
        <time>2019-12-30T09:18:37.000Z</time>
      </trkpt>
      <trkpt lat="45.58318" lon="6.64104">
        <ele>1829</ele>
        <time>2019-12-30T09:18:39.000Z</time>
      </trkpt>
      <trkpt lat="45.58316" lon="6.64103">
        <ele>1830.1999511719</ele>
        <time>2019-12-30T09:18:43.000Z</time>
      </trkpt>
      <trkpt lat="45.58313" lon="6.641">
        <ele>1830.8000488281</ele>
        <time>2019-12-30T09:18:48.000Z</time>
      </trkpt>
      <trkpt lat="45.58312" lon="6.64099">
        <ele>1831.1999511719</ele>
        <time>2019-12-30T09:18:50.000Z</time>
      </trkpt>
      <trkpt lat="45.58308" lon="6.64096">
        <ele>1832</ele>
        <time>2019-12-30T09:18:54.000Z</time>
      </trkpt>
      <trkpt lat="45.58307" lon="6.64095">
        <ele>1832.1999511719</ele>
        <time>2019-12-30T09:18:56.000Z</time>
      </trkpt>
      <trkpt lat="45.58305" lon="6.64094">
        <ele>1832.8000488281</ele>
        <time>2019-12-30T09:18:59.000Z</time>
      </trkpt>
      <trkpt lat="45.58303" lon="6.64092">
        <ele>1833.4000244141</ele>
        <time>2019-12-30T09:19:02.000Z</time>
      </trkpt>
      <trkpt lat="45.58302" lon="6.64091">
        <ele>1833.8000488281</ele>
        <time>2019-12-30T09:19:04.000Z</time>
      </trkpt>
      <trkpt lat="45.58301" lon="6.64089">
        <ele>1834.4000244141</ele>
        <time>2019-12-30T09:19:07.000Z</time>
      </trkpt>
      <trkpt lat="45.58298" lon="6.64087">
        <ele>1835</ele>
        <time>2019-12-30T09:19:10.000Z</time>
      </trkpt>
      <trkpt lat="45.58296" lon="6.64085">
        <ele>1835.5999755859</ele>
        <time>2019-12-30T09:19:13.000Z</time>
      </trkpt>
      <trkpt lat="45.58295" lon="6.64083">
        <ele>1836</ele>
        <time>2019-12-30T09:19:16.000Z</time>
      </trkpt>
      <trkpt lat="45.5829" lon="6.6408">
        <ele>1836.5999755859</ele>
        <time>2019-12-30T09:19:21.000Z</time>
      </trkpt>
      <trkpt lat="45.58287" lon="6.64076">
        <ele>1838</ele>
        <time>2019-12-30T09:19:26.000Z</time>
      </trkpt>
      <trkpt lat="45.58287" lon="6.64076">
        <ele>1838.1999511719</ele>
        <time>2019-12-30T09:19:27.000Z</time>
      </trkpt>
      <trkpt lat="45.5829" lon="6.64074">
        <ele>1839.1999511719</ele>
        <time>2019-12-30T09:19:34.000Z</time>
      </trkpt>
      <trkpt lat="45.58293" lon="6.6407">
        <ele>1840.1999511719</ele>
        <time>2019-12-30T09:19:39.000Z</time>
      </trkpt>
      <trkpt lat="45.58294" lon="6.64068">
        <ele>1840.4000244141</ele>
        <time>2019-12-30T09:19:40.000Z</time>
      </trkpt>
      <trkpt lat="45.58296" lon="6.64064">
        <ele>1841.4000244141</ele>
        <time>2019-12-30T09:19:44.000Z</time>
      </trkpt>
      <trkpt lat="45.58296" lon="6.64062">
        <ele>1841.5999755859</ele>
        <time>2019-12-30T09:19:46.000Z</time>
      </trkpt>
      <trkpt lat="45.58295" lon="6.64057">
        <ele>1842.4000244141</ele>
        <time>2019-12-30T09:19:51.000Z</time>
      </trkpt>
      <trkpt lat="45.58295" lon="6.64056">
        <ele>1842.5999755859</ele>
        <time>2019-12-30T09:19:52.000Z</time>
      </trkpt>
      <trkpt lat="45.58293" lon="6.64054">
        <ele>1843.5999755859</ele>
        <time>2019-12-30T09:19:56.000Z</time>
      </trkpt>
      <trkpt lat="45.58291" lon="6.64053">
        <ele>1843.8000488281</ele>
        <time>2019-12-30T09:19:57.000Z</time>
      </trkpt>
      <trkpt lat="45.58288" lon="6.64051">
        <ele>1844.5999755859</ele>
        <time>2019-12-30T09:20:01.000Z</time>
      </trkpt>
      <trkpt lat="45.58287" lon="6.6405">
        <ele>1844.8000488281</ele>
        <time>2019-12-30T09:20:02.000Z</time>
      </trkpt>
      <trkpt lat="45.58285" lon="6.64048">
        <ele>1845.8000488281</ele>
        <time>2019-12-30T09:20:06.000Z</time>
      </trkpt>
      <trkpt lat="45.58284" lon="6.64046">
        <ele>1846.1999511719</ele>
        <time>2019-12-30T09:20:08.000Z</time>
      </trkpt>
      <trkpt lat="45.5828" lon="6.64043">
        <ele>1846.8000488281</ele>
        <time>2019-12-30T09:20:13.000Z</time>
      </trkpt>
      <trkpt lat="45.5828" lon="6.64043">
        <ele>1847.1999511719</ele>
        <time>2019-12-30T09:20:14.000Z</time>
      </trkpt>
      <trkpt lat="45.58279" lon="6.64041">
        <ele>1848</ele>
        <time>2019-12-30T09:20:17.000Z</time>
      </trkpt>
      <trkpt lat="45.58278" lon="6.64039">
        <ele>1848.8000488281</ele>
        <time>2019-12-30T09:20:20.000Z</time>
      </trkpt>
      <trkpt lat="45.58279" lon="6.64038">
        <ele>1849</ele>
        <time>2019-12-30T09:20:21.000Z</time>
      </trkpt>
      <trkpt lat="45.58279" lon="6.64036">
        <ele>1849.1999511719</ele>
        <time>2019-12-30T09:20:22.000Z</time>
      </trkpt>
      <trkpt lat="45.58281" lon="6.64032">
        <ele>1849.8000488281</ele>
        <time>2019-12-30T09:20:26.000Z</time>
      </trkpt>
      <trkpt lat="45.58282" lon="6.64032">
        <ele>1850</ele>
        <time>2019-12-30T09:20:27.000Z</time>
      </trkpt>
      <trkpt lat="45.58285" lon="6.64026">
        <ele>1850.5999755859</ele>
        <time>2019-12-30T09:20:33.000Z</time>
      </trkpt>
      <trkpt lat="45.58285" lon="6.64025">
        <ele>1850.8000488281</ele>
        <time>2019-12-30T09:20:34.000Z</time>
      </trkpt>
      <trkpt lat="45.58286" lon="6.64024">
        <ele>1851.1999511719</ele>
        <time>2019-12-30T09:20:36.000Z</time>
      </trkpt>
      <trkpt lat="45.58288" lon="6.6402">
        <ele>1852</ele>
        <time>2019-12-30T09:20:40.000Z</time>
      </trkpt>
      <trkpt lat="45.58288" lon="6.6402">
        <ele>1852.1999511719</ele>
        <time>2019-12-30T09:20:41.000Z</time>
      </trkpt>
      <trkpt lat="45.58287" lon="6.64016">
        <ele>1853</ele>
        <time>2019-12-30T09:20:46.000Z</time>
      </trkpt>
      <trkpt lat="45.58287" lon="6.64014">
        <ele>1853.4000244141</ele>
        <time>2019-12-30T09:20:48.000Z</time>
      </trkpt>
      <trkpt lat="45.58285" lon="6.6401">
        <ele>1854.4000244141</ele>
        <time>2019-12-30T09:20:52.000Z</time>
      </trkpt>
      <trkpt lat="45.58285" lon="6.64008">
        <ele>1854.5999755859</ele>
        <time>2019-12-30T09:20:53.000Z</time>
      </trkpt>
      <trkpt lat="45.58283" lon="6.64005">
        <ele>1855.1999511719</ele>
        <time>2019-12-30T09:20:56.000Z</time>
      </trkpt>
      <trkpt lat="45.58282" lon="6.64004">
        <ele>1855.5999755859</ele>
        <time>2019-12-30T09:20:58.000Z</time>
      </trkpt>
      <trkpt lat="45.58279" lon="6.64">
        <ele>1856.8000488281</ele>
        <time>2019-12-30T09:21:02.000Z</time>
      </trkpt>
      <trkpt lat="45.58278" lon="6.63997">
        <ele>1857.1999511719</ele>
        <time>2019-12-30T09:21:05.000Z</time>
      </trkpt>
      <trkpt lat="45.58275" lon="6.63995">
        <ele>1858</ele>
        <time>2019-12-30T09:21:09.000Z</time>
      </trkpt>
      <trkpt lat="45.58275" lon="6.63994">
        <ele>1858.4000244141</ele>
        <time>2019-12-30T09:21:11.000Z</time>
      </trkpt>
      <trkpt lat="45.58273" lon="6.63989">
        <ele>1859</ele>
        <time>2019-12-30T09:21:15.000Z</time>
      </trkpt>
      <trkpt lat="45.58272" lon="6.63988">
        <ele>1859.1999511719</ele>
        <time>2019-12-30T09:21:16.000Z</time>
      </trkpt>
      <trkpt lat="45.5827" lon="6.63984">
        <ele>1860.1999511719</ele>
        <time>2019-12-30T09:21:21.000Z</time>
      </trkpt>
      <trkpt lat="45.58269" lon="6.63982">
        <ele>1860.4000244141</ele>
        <time>2019-12-30T09:21:22.000Z</time>
      </trkpt>
      <trkpt lat="45.58267" lon="6.63978">
        <ele>1861.4000244141</ele>
        <time>2019-12-30T09:21:27.000Z</time>
      </trkpt>
      <trkpt lat="45.58267" lon="6.63977">
        <ele>1861.5999755859</ele>
        <time>2019-12-30T09:21:28.000Z</time>
      </trkpt>
      <trkpt lat="45.58266" lon="6.63975">
        <ele>1862.4000244141</ele>
        <time>2019-12-30T09:21:32.000Z</time>
      </trkpt>
      <trkpt lat="45.58265" lon="6.63973">
        <ele>1862.5999755859</ele>
        <time>2019-12-30T09:21:33.000Z</time>
      </trkpt>
      <trkpt lat="45.58265" lon="6.63969">
        <ele>1863.4000244141</ele>
        <time>2019-12-30T09:21:37.000Z</time>
      </trkpt>
      <trkpt lat="45.58264" lon="6.63965">
        <ele>1864.4000244141</ele>
        <time>2019-12-30T09:21:42.000Z</time>
      </trkpt>
      <trkpt lat="45.58264" lon="6.63964">
        <ele>1864.5999755859</ele>
        <time>2019-12-30T09:21:43.000Z</time>
      </trkpt>
      <trkpt lat="45.58263" lon="6.6396">
        <ele>1865.1999511719</ele>
        <time>2019-12-30T09:21:46.000Z</time>
      </trkpt>
      <trkpt lat="45.58264" lon="6.63954">
        <ele>1865.8000488281</ele>
        <time>2019-12-30T09:21:50.000Z</time>
      </trkpt>
      <trkpt lat="45.58264" lon="6.63951">
        <ele>1867</ele>
        <time>2019-12-30T09:21:54.000Z</time>
      </trkpt>
      <trkpt lat="45.58265" lon="6.63947">
        <ele>1867.4000244141</ele>
        <time>2019-12-30T09:21:56.000Z</time>
      </trkpt>
      <trkpt lat="45.58265" lon="6.63943">
        <ele>1868.1999511719</ele>
        <time>2019-12-30T09:22:00.000Z</time>
      </trkpt>
      <trkpt lat="45.58265" lon="6.6394">
        <ele>1868.5999755859</ele>
        <time>2019-12-30T09:22:02.000Z</time>
      </trkpt>
      <trkpt lat="45.58266" lon="6.63935">
        <ele>1869.1999511719</ele>
        <time>2019-12-30T09:22:06.000Z</time>
      </trkpt>
      <trkpt lat="45.58266" lon="6.63934">
        <ele>1869.5999755859</ele>
        <time>2019-12-30T09:22:07.000Z</time>
      </trkpt>
      <trkpt lat="45.58267" lon="6.63927">
        <ele>1870.4000244141</ele>
        <time>2019-12-30T09:22:12.000Z</time>
      </trkpt>
      <trkpt lat="45.58269" lon="6.63921">
        <ele>1871.4000244141</ele>
        <time>2019-12-30T09:22:18.000Z</time>
      </trkpt>
      <trkpt lat="45.58269" lon="6.63915">
        <ele>1872.1999511719</ele>
        <time>2019-12-30T09:22:23.000Z</time>
      </trkpt>
      <trkpt lat="45.58269" lon="6.63913">
        <ele>1872.4000244141</ele>
        <time>2019-12-30T09:22:24.000Z</time>
      </trkpt>
      <trkpt lat="45.5827" lon="6.6391">
        <ele>1873</ele>
        <time>2019-12-30T09:22:28.000Z</time>
      </trkpt>
      <trkpt lat="45.5827" lon="6.63907">
        <ele>1873.4000244141</ele>
        <time>2019-12-30T09:22:30.000Z</time>
      </trkpt>
      <trkpt lat="45.5827" lon="6.63903">
        <ele>1873.8000488281</ele>
        <time>2019-12-30T09:22:33.000Z</time>
      </trkpt>
      <trkpt lat="45.58271" lon="6.63899">
        <ele>1874.8000488281</ele>
        <time>2019-12-30T09:22:38.000Z</time>
      </trkpt>
      <trkpt lat="45.5827" lon="6.63895">
        <ele>1875.5999755859</ele>
        <time>2019-12-30T09:22:43.000Z</time>
      </trkpt>
      <trkpt lat="45.5827" lon="6.63894">
        <ele>1875.8000488281</ele>
        <time>2019-12-30T09:22:44.000Z</time>
      </trkpt>
      <trkpt lat="45.5827" lon="6.63891">
        <ele>1876.5999755859</ele>
        <time>2019-12-30T09:22:48.000Z</time>
      </trkpt>
      <trkpt lat="45.5827" lon="6.63888">
        <ele>1876.8000488281</ele>
        <time>2019-12-30T09:22:50.000Z</time>
      </trkpt>
      <trkpt lat="45.58269" lon="6.63885">
        <ele>1877.1999511719</ele>
        <time>2019-12-30T09:22:52.000Z</time>
      </trkpt>
      <trkpt lat="45.58269" lon="6.63883">
        <ele>1878</ele>
        <time>2019-12-30T09:22:56.000Z</time>
      </trkpt>
      <trkpt lat="45.5827" lon="6.63878">
        <ele>1879</ele>
        <time>2019-12-30T09:23:01.000Z</time>
      </trkpt>
      <trkpt lat="45.58273" lon="6.63874">
        <ele>1880.1999511719</ele>
        <time>2019-12-30T09:23:05.000Z</time>
      </trkpt>
      <trkpt lat="45.58275" lon="6.63873">
        <ele>1881.1999511719</ele>
        <time>2019-12-30T09:23:08.000Z</time>
      </trkpt>
      <trkpt lat="45.58275" lon="6.63872">
        <ele>1881.1999511719</ele>
        <time>2019-12-30T09:23:09.000Z</time>
      </trkpt>
      <trkpt lat="45.58278" lon="6.6387">
        <ele>1881.8000488281</ele>
        <time>2019-12-30T09:23:13.000Z</time>
      </trkpt>
      <trkpt lat="45.5828" lon="6.63868">
        <ele>1882.1999511719</ele>
        <time>2019-12-30T09:23:17.000Z</time>
      </trkpt>
      <trkpt lat="45.5828" lon="6.63868">
        <ele>1882.5999755859</ele>
        <time>2019-12-30T09:23:18.000Z</time>
      </trkpt>
      <trkpt lat="45.58282" lon="6.63866">
        <ele>1883.4000244141</ele>
        <time>2019-12-30T09:23:21.000Z</time>
      </trkpt>
      <trkpt lat="45.58283" lon="6.63866">
        <ele>1883.8000488281</ele>
        <time>2019-12-30T09:23:24.000Z</time>
      </trkpt>
      <trkpt lat="45.58283" lon="6.63863">
        <ele>1884.1999511719</ele>
        <time>2019-12-30T09:23:26.000Z</time>
      </trkpt>
      <trkpt lat="45.58283" lon="6.63863">
        <ele>1884.4000244141</ele>
        <time>2019-12-30T09:23:27.000Z</time>
      </trkpt>
      <trkpt lat="45.58283" lon="6.6386">
        <ele>1884.5999755859</ele>
        <time>2019-12-30T09:23:29.000Z</time>
      </trkpt>
      <trkpt lat="45.58283" lon="6.63858">
        <ele>1885.1999511719</ele>
        <time>2019-12-30T09:23:33.000Z</time>
      </trkpt>
      <trkpt lat="45.58283" lon="6.63856">
        <ele>1885.4000244141</ele>
        <time>2019-12-30T09:23:34.000Z</time>
      </trkpt>
      <trkpt lat="45.58283" lon="6.63855">
        <ele>1886.1999511719</ele>
        <time>2019-12-30T09:23:37.000Z</time>
      </trkpt>
      <trkpt lat="45.58283" lon="6.63851">
        <ele>1886.5999755859</ele>
        <time>2019-12-30T09:23:39.000Z</time>
      </trkpt>
      <trkpt lat="45.58283" lon="6.63847">
        <ele>1887</ele>
        <time>2019-12-30T09:23:42.000Z</time>
      </trkpt>
      <trkpt lat="45.58284" lon="6.63843">
        <ele>1887.8000488281</ele>
        <time>2019-12-30T09:23:46.000Z</time>
      </trkpt>
      <trkpt lat="45.58284" lon="6.63839">
        <ele>1889</ele>
        <time>2019-12-30T09:23:50.000Z</time>
      </trkpt>
      <trkpt lat="45.58284" lon="6.63839">
        <ele>1889.1999511719</ele>
        <time>2019-12-30T09:23:51.000Z</time>
      </trkpt>
      <trkpt lat="45.58285" lon="6.63835">
        <ele>1890</ele>
        <time>2019-12-30T09:23:55.000Z</time>
      </trkpt>
      <trkpt lat="45.58286" lon="6.63829">
        <ele>1891.1999511719</ele>
        <time>2019-12-30T09:24:00.000Z</time>
      </trkpt>
      <trkpt lat="45.58287" lon="6.63825">
        <ele>1892.1999511719</ele>
        <time>2019-12-30T09:24:05.000Z</time>
      </trkpt>
      <trkpt lat="45.58287" lon="6.63824">
        <ele>1892.4000244141</ele>
        <time>2019-12-30T09:24:06.000Z</time>
      </trkpt>
      <trkpt lat="45.58288" lon="6.6382">
        <ele>1893.1999511719</ele>
        <time>2019-12-30T09:24:11.000Z</time>
      </trkpt>
      <trkpt lat="45.58288" lon="6.6382">
        <ele>1893.5999755859</ele>
        <time>2019-12-30T09:24:12.000Z</time>
      </trkpt>
      <trkpt lat="45.58289" lon="6.63818">
        <ele>1894.4000244141</ele>
        <time>2019-12-30T09:24:14.000Z</time>
      </trkpt>
      <trkpt lat="45.5829" lon="6.63817">
        <ele>1895</ele>
        <time>2019-12-30T09:24:17.000Z</time>
      </trkpt>
      <trkpt lat="45.58291" lon="6.63815">
        <ele>1895.4000244141</ele>
        <time>2019-12-30T09:24:19.000Z</time>
      </trkpt>
      <trkpt lat="45.58293" lon="6.63812">
        <ele>1896.4000244141</ele>
        <time>2019-12-30T09:24:23.000Z</time>
      </trkpt>
      <trkpt lat="45.58294" lon="6.63812">
        <ele>1896.5999755859</ele>
        <time>2019-12-30T09:24:24.000Z</time>
      </trkpt>
      <trkpt lat="45.58296" lon="6.63809">
        <ele>1897</ele>
        <time>2019-12-30T09:24:28.000Z</time>
      </trkpt>
      <trkpt lat="45.58297" lon="6.63808">
        <ele>1897.5999755859</ele>
        <time>2019-12-30T09:24:31.000Z</time>
      </trkpt>
      <trkpt lat="45.58297" lon="6.63807">
        <ele>1898.1999511719</ele>
        <time>2019-12-30T09:24:33.000Z</time>
      </trkpt>
      <trkpt lat="45.58299" lon="6.63806">
        <ele>1899</ele>
        <time>2019-12-30T09:24:36.000Z</time>
      </trkpt>
      <trkpt lat="45.58299" lon="6.63805">
        <ele>1899.5999755859</ele>
        <time>2019-12-30T09:24:38.000Z</time>
      </trkpt>
      <trkpt lat="45.58301" lon="6.63804">
        <ele>1900</ele>
        <time>2019-12-30T09:24:40.000Z</time>
      </trkpt>
      <trkpt lat="45.58301" lon="6.63803">
        <ele>1900.1999511719</ele>
        <time>2019-12-30T09:24:42.000Z</time>
      </trkpt>
      <trkpt lat="45.58302" lon="6.63798">
        <ele>1901</ele>
        <time>2019-12-30T09:24:46.000Z</time>
      </trkpt>
      <trkpt lat="45.58302" lon="6.63798">
        <ele>1901.1999511719</ele>
        <time>2019-12-30T09:24:47.000Z</time>
      </trkpt>
      <trkpt lat="45.58302" lon="6.63796">
        <ele>1901.4000244141</ele>
        <time>2019-12-30T09:24:48.000Z</time>
      </trkpt>
      <trkpt lat="45.58302" lon="6.63794">
        <ele>1902.1999511719</ele>
        <time>2019-12-30T09:24:52.000Z</time>
      </trkpt>
      <trkpt lat="45.58302" lon="6.63792">
        <ele>1902.4000244141</ele>
        <time>2019-12-30T09:24:53.000Z</time>
      </trkpt>
      <trkpt lat="45.58301" lon="6.63788">
        <ele>1903.1999511719</ele>
        <time>2019-12-30T09:24:58.000Z</time>
      </trkpt>
      <trkpt lat="45.58301" lon="6.63786">
        <ele>1903.4000244141</ele>
        <time>2019-12-30T09:24:59.000Z</time>
      </trkpt>
      <trkpt lat="45.58302" lon="6.63783">
        <ele>1904.1999511719</ele>
        <time>2019-12-30T09:25:02.000Z</time>
      </trkpt>
      <trkpt lat="45.58302" lon="6.63781">
        <ele>1904.4000244141</ele>
        <time>2019-12-30T09:25:03.000Z</time>
      </trkpt>
      <trkpt lat="45.58302" lon="6.63777">
        <ele>1905.4000244141</ele>
        <time>2019-12-30T09:25:07.000Z</time>
      </trkpt>
      <trkpt lat="45.58302" lon="6.63776">
        <ele>1905.5999755859</ele>
        <time>2019-12-30T09:25:08.000Z</time>
      </trkpt>
      <trkpt lat="45.58302" lon="6.63775">
        <ele>1906</ele>
        <time>2019-12-30T09:25:11.000Z</time>
      </trkpt>
      <trkpt lat="45.58302" lon="6.63768">
        <ele>1906.8000488281</ele>
        <time>2019-12-30T09:25:15.000Z</time>
      </trkpt>
      <trkpt lat="45.58302" lon="6.63768">
        <ele>1906.8000488281</ele>
        <time>2019-12-30T09:25:16.000Z</time>
      </trkpt>
      <trkpt lat="45.58303" lon="6.63762">
        <ele>1907.4000244141</ele>
        <time>2019-12-30T09:25:21.000Z</time>
      </trkpt>
      <trkpt lat="45.58303" lon="6.63759">
        <ele>1907.8000488281</ele>
        <time>2019-12-30T09:25:23.000Z</time>
      </trkpt>
      <trkpt lat="45.58304" lon="6.63755">
        <ele>1908.1999511719</ele>
        <time>2019-12-30T09:25:26.000Z</time>
      </trkpt>
      <trkpt lat="45.58304" lon="6.63748">
        <ele>1908.8000488281</ele>
        <time>2019-12-30T09:25:31.000Z</time>
      </trkpt>
      <trkpt lat="45.58304" lon="6.63747">
        <ele>1909</ele>
        <time>2019-12-30T09:25:32.000Z</time>
      </trkpt>
      <trkpt lat="45.58306" lon="6.63744">
        <ele>1909.4000244141</ele>
        <time>2019-12-30T09:25:36.000Z</time>
      </trkpt>
      <trkpt lat="45.58307" lon="6.63744">
        <ele>1909.5999755859</ele>
        <time>2019-12-30T09:25:37.000Z</time>
      </trkpt>
      <trkpt lat="45.58308" lon="6.63742">
        <ele>1910</ele>
        <time>2019-12-30T09:25:39.000Z</time>
      </trkpt>
      <trkpt lat="45.58309" lon="6.63741">
        <ele>1910.4000244141</ele>
        <time>2019-12-30T09:25:42.000Z</time>
      </trkpt>
      <trkpt lat="45.58313" lon="6.63737">
        <ele>1911</ele>
        <time>2019-12-30T09:25:48.000Z</time>
      </trkpt>
      <trkpt lat="45.58315" lon="6.63735">
        <ele>1912.1999511719</ele>
        <time>2019-12-30T09:25:53.000Z</time>
      </trkpt>
      <trkpt lat="45.58317" lon="6.63734">
        <ele>1912.5999755859</ele>
        <time>2019-12-30T09:25:57.000Z</time>
      </trkpt>
      <trkpt lat="45.58319" lon="6.63732">
        <ele>1913.1999511719</ele>
        <time>2019-12-30T09:26:00.000Z</time>
      </trkpt>
      <trkpt lat="45.58321" lon="6.63732">
        <ele>1913.1999511719</ele>
        <time>2019-12-30T09:26:03.000Z</time>
      </trkpt>
      <trkpt lat="45.58325" lon="6.63731">
        <ele>1914.1999511719</ele>
        <time>2019-12-30T09:26:09.000Z</time>
      </trkpt>
      <trkpt lat="45.58327" lon="6.63731">
        <ele>1915</ele>
        <time>2019-12-30T09:26:13.000Z</time>
      </trkpt>
      <trkpt lat="45.58327" lon="6.63731">
        <ele>1915.4000244141</ele>
        <time>2019-12-30T09:26:14.000Z</time>
      </trkpt>
      <trkpt lat="45.5833" lon="6.63731">
        <ele>1916.4000244141</ele>
        <time>2019-12-30T09:26:19.000Z</time>
      </trkpt>
      <trkpt lat="45.58331" lon="6.63732">
        <ele>1916.5999755859</ele>
        <time>2019-12-30T09:26:20.000Z</time>
      </trkpt>
      <trkpt lat="45.58333" lon="6.63731">
        <ele>1917.4000244141</ele>
        <time>2019-12-30T09:26:24.000Z</time>
      </trkpt>
      <trkpt lat="45.58334" lon="6.63732">
        <ele>1917.5999755859</ele>
        <time>2019-12-30T09:26:26.000Z</time>
      </trkpt>
      <trkpt lat="45.58336" lon="6.63732">
        <ele>1917.8000488281</ele>
        <time>2019-12-30T09:26:28.000Z</time>
      </trkpt>
      <trkpt lat="45.58339" lon="6.63732">
        <ele>1918.5999755859</ele>
        <time>2019-12-30T09:26:33.000Z</time>
      </trkpt>
      <trkpt lat="45.58339" lon="6.63732">
        <ele>1918.5999755859</ele>
        <time>2019-12-30T09:26:34.000Z</time>
      </trkpt>
      <trkpt lat="45.58341" lon="6.63732">
        <ele>1919.1999511719</ele>
        <time>2019-12-30T09:26:37.000Z</time>
      </trkpt>
      <trkpt lat="45.58341" lon="6.63732">
        <ele>1919.8000488281</ele>
        <time>2019-12-30T09:26:38.000Z</time>
      </trkpt>
      <trkpt lat="45.58345" lon="6.63734">
        <ele>1920.4000244141</ele>
        <time>2019-12-30T09:26:42.000Z</time>
      </trkpt>
      <trkpt lat="45.58347" lon="6.63734">
        <ele>1920.8000488281</ele>
        <time>2019-12-30T09:26:45.000Z</time>
      </trkpt>
      <trkpt lat="45.58348" lon="6.63734">
        <ele>1921</ele>
        <time>2019-12-30T09:26:46.000Z</time>
      </trkpt>
      <trkpt lat="45.58351" lon="6.63735">
        <ele>1922</ele>
        <time>2019-12-30T09:26:51.000Z</time>
      </trkpt>
      <trkpt lat="45.58352" lon="6.63737">
        <ele>1922.4000244141</ele>
        <time>2019-12-30T09:26:53.000Z</time>
      </trkpt>
      <trkpt lat="45.58353" lon="6.63737">
        <ele>1922.8000488281</ele>
        <time>2019-12-30T09:26:55.000Z</time>
      </trkpt>
      <trkpt lat="45.58355" lon="6.63738">
        <ele>1923</ele>
        <time>2019-12-30T09:26:57.000Z</time>
      </trkpt>
      <trkpt lat="45.58356" lon="6.63737">
        <ele>1923.1999511719</ele>
        <time>2019-12-30T09:26:58.000Z</time>
      </trkpt>
      <trkpt lat="45.58357" lon="6.63738">
        <ele>1923.5999755859</ele>
        <time>2019-12-30T09:27:01.000Z</time>
      </trkpt>
      <trkpt lat="45.58358" lon="6.63739">
        <ele>1924.1999511719</ele>
        <time>2019-12-30T09:27:03.000Z</time>
      </trkpt>
      <trkpt lat="45.58361" lon="6.6374">
        <ele>1924.5999755859</ele>
        <time>2019-12-30T09:27:06.000Z</time>
      </trkpt>
      <trkpt lat="45.58363" lon="6.63741">
        <ele>1925.1999511719</ele>
        <time>2019-12-30T09:27:10.000Z</time>
      </trkpt>
      <trkpt lat="45.58365" lon="6.63741">
        <ele>1926.1999511719</ele>
        <time>2019-12-30T09:27:15.000Z</time>
      </trkpt>
      <trkpt lat="45.58366" lon="6.63742">
        <ele>1926.4000244141</ele>
        <time>2019-12-30T09:27:16.000Z</time>
      </trkpt>
      <trkpt lat="45.5837" lon="6.63742">
        <ele>1927.4000244141</ele>
        <time>2019-12-30T09:27:22.000Z</time>
      </trkpt>
      <trkpt lat="45.58373" lon="6.63742">
        <ele>1928.1999511719</ele>
        <time>2019-12-30T09:27:26.000Z</time>
      </trkpt>
      <trkpt lat="45.58375" lon="6.63742">
        <ele>1928.4000244141</ele>
        <time>2019-12-30T09:27:27.000Z</time>
      </trkpt>
      <trkpt lat="45.58377" lon="6.63743">
        <ele>1929.1999511719</ele>
        <time>2019-12-30T09:27:31.000Z</time>
      </trkpt>
      <trkpt lat="45.58378" lon="6.63744">
        <ele>1929.5999755859</ele>
        <time>2019-12-30T09:27:33.000Z</time>
      </trkpt>
      <trkpt lat="45.58381" lon="6.63744">
        <ele>1930.1999511719</ele>
        <time>2019-12-30T09:27:36.000Z</time>
      </trkpt>
      <trkpt lat="45.58383" lon="6.63745">
        <ele>1930.5999755859</ele>
        <time>2019-12-30T09:27:40.000Z</time>
      </trkpt>
      <trkpt lat="45.58383" lon="6.63745">
        <ele>1930.8000488281</ele>
        <time>2019-12-30T09:27:41.000Z</time>
      </trkpt>
      <trkpt lat="45.58386" lon="6.63747">
        <ele>1931.8000488281</ele>
        <time>2019-12-30T09:27:46.000Z</time>
      </trkpt>
      <trkpt lat="45.5839" lon="6.63748">
        <ele>1932.5999755859</ele>
        <time>2019-12-30T09:27:51.000Z</time>
      </trkpt>
      <trkpt lat="45.58391" lon="6.63748">
        <ele>1932.8000488281</ele>
        <time>2019-12-30T09:27:52.000Z</time>
      </trkpt>
      <trkpt lat="45.58394" lon="6.63749">
        <ele>1933.5999755859</ele>
        <time>2019-12-30T09:27:56.000Z</time>
      </trkpt>
      <trkpt lat="45.58395" lon="6.63748">
        <ele>1934</ele>
        <time>2019-12-30T09:27:58.000Z</time>
      </trkpt>
      <trkpt lat="45.58394" lon="6.63745">
        <ele>1934.5999755859</ele>
        <time>2019-12-30T09:28:01.000Z</time>
      </trkpt>
      <trkpt lat="45.58394" lon="6.63744">
        <ele>1935</ele>
        <time>2019-12-30T09:28:02.000Z</time>
      </trkpt>
      <trkpt lat="45.58393" lon="6.63739">
        <ele>1935.5999755859</ele>
        <time>2019-12-30T09:28:06.000Z</time>
      </trkpt>
      <trkpt lat="45.58391" lon="6.63734">
        <ele>1935.8000488281</ele>
        <time>2019-12-30T09:28:11.000Z</time>
      </trkpt>
      <trkpt lat="45.58391" lon="6.63732">
        <ele>1936</ele>
        <time>2019-12-30T09:28:14.000Z</time>
      </trkpt>
      <trkpt lat="45.58391" lon="6.6373">
        <ele>1936.8000488281</ele>
        <time>2019-12-30T09:28:16.000Z</time>
      </trkpt>
      <trkpt lat="45.58391" lon="6.63726">
        <ele>1937.1999511719</ele>
        <time>2019-12-30T09:28:19.000Z</time>
      </trkpt>
      <trkpt lat="45.5839" lon="6.63724">
        <ele>1937.4000244141</ele>
        <time>2019-12-30T09:28:21.000Z</time>
      </trkpt>
      <trkpt lat="45.5839" lon="6.63719">
        <ele>1938.4000244141</ele>
        <time>2019-12-30T09:28:26.000Z</time>
      </trkpt>
      <trkpt lat="45.58389" lon="6.63713">
        <ele>1939.4000244141</ele>
        <time>2019-12-30T09:28:31.000Z</time>
      </trkpt>
      <trkpt lat="45.58389" lon="6.63708">
        <ele>1940</ele>
        <time>2019-12-30T09:28:37.000Z</time>
      </trkpt>
      <trkpt lat="45.58388" lon="6.63704">
        <ele>1940.4000244141</ele>
        <time>2019-12-30T09:28:39.000Z</time>
      </trkpt>
      <trkpt lat="45.58388" lon="6.63701">
        <ele>1941.1999511719</ele>
        <time>2019-12-30T09:28:43.000Z</time>
      </trkpt>
      <trkpt lat="45.58388" lon="6.63698">
        <ele>1941.4000244141</ele>
        <time>2019-12-30T09:28:44.000Z</time>
      </trkpt>
      <trkpt lat="45.58388" lon="6.63693">
        <ele>1942.1999511719</ele>
        <time>2019-12-30T09:28:49.000Z</time>
      </trkpt>
      <trkpt lat="45.58387" lon="6.63689">
        <ele>1942.5999755859</ele>
        <time>2019-12-30T09:28:52.000Z</time>
      </trkpt>
      <trkpt lat="45.58387" lon="6.63686">
        <ele>1942.5999755859</ele>
        <time>2019-12-30T09:28:54.000Z</time>
      </trkpt>
      <trkpt lat="45.58386" lon="6.63682">
        <ele>1943</ele>
        <time>2019-12-30T09:28:59.000Z</time>
      </trkpt>
      <trkpt lat="45.58384" lon="6.63676">
        <ele>1943.8000488281</ele>
        <time>2019-12-30T09:29:03.000Z</time>
      </trkpt>
      <trkpt lat="45.58384" lon="6.63674">
        <ele>1944</ele>
        <time>2019-12-30T09:29:05.000Z</time>
      </trkpt>
      <trkpt lat="45.58382" lon="6.63669">
        <ele>1944.1999511719</ele>
        <time>2019-12-30T09:29:10.000Z</time>
      </trkpt>
      <trkpt lat="45.5838" lon="6.63662">
        <ele>1944.8000488281</ele>
        <time>2019-12-30T09:29:15.000Z</time>
      </trkpt>
      <trkpt lat="45.5838" lon="6.63662">
        <ele>1944.8000488281</ele>
        <time>2019-12-30T09:29:16.000Z</time>
      </trkpt>
      <trkpt lat="45.58379" lon="6.63656">
        <ele>1945.5999755859</ele>
        <time>2019-12-30T09:29:21.000Z</time>
      </trkpt>
      <trkpt lat="45.58379" lon="6.63654">
        <ele>1946</ele>
        <time>2019-12-30T09:29:24.000Z</time>
      </trkpt>
      <trkpt lat="45.58379" lon="6.6365">
        <ele>1946.8000488281</ele>
        <time>2019-12-30T09:29:27.000Z</time>
      </trkpt>
      <trkpt lat="45.58379" lon="6.6365">
        <ele>1947</ele>
        <time>2019-12-30T09:29:28.000Z</time>
      </trkpt>
      <trkpt lat="45.58378" lon="6.63646">
        <ele>1948</ele>
        <time>2019-12-30T09:29:33.000Z</time>
      </trkpt>
      <trkpt lat="45.58378" lon="6.63644">
        <ele>1948.1999511719</ele>
        <time>2019-12-30T09:29:34.000Z</time>
      </trkpt>
      <trkpt lat="45.58377" lon="6.63641">
        <ele>1949</ele>
        <time>2019-12-30T09:29:38.000Z</time>
      </trkpt>
      <trkpt lat="45.58377" lon="6.63642">
        <ele>1949.4000244141</ele>
        <time>2019-12-30T09:29:39.000Z</time>
      </trkpt>
      <trkpt lat="45.58376" lon="6.63639">
        <ele>1950.1999511719</ele>
        <time>2019-12-30T09:29:43.000Z</time>
      </trkpt>
      <trkpt lat="45.58376" lon="6.63639">
        <ele>1950.4000244141</ele>
        <time>2019-12-30T09:29:44.000Z</time>
      </trkpt>
      <trkpt lat="45.58375" lon="6.63635">
        <ele>1950.8000488281</ele>
        <time>2019-12-30T09:29:47.000Z</time>
      </trkpt>
      <trkpt lat="45.58374" lon="6.63629">
        <ele>1951.5999755859</ele>
        <time>2019-12-30T09:29:52.000Z</time>
      </trkpt>
      <trkpt lat="45.58374" lon="6.63629">
        <ele>1951.8000488281</ele>
        <time>2019-12-30T09:29:53.000Z</time>
      </trkpt>
      <trkpt lat="45.58374" lon="6.63627">
        <ele>1952.5999755859</ele>
        <time>2019-12-30T09:29:57.000Z</time>
      </trkpt>
      <trkpt lat="45.58373" lon="6.63623">
        <ele>1953</ele>
        <time>2019-12-30T09:29:59.000Z</time>
      </trkpt>
      <trkpt lat="45.58373" lon="6.6362">
        <ele>1953.4000244141</ele>
        <time>2019-12-30T09:30:03.000Z</time>
      </trkpt>
      <trkpt lat="45.58373" lon="6.63616">
        <ele>1953.8000488281</ele>
        <time>2019-12-30T09:30:06.000Z</time>
      </trkpt>
      <trkpt lat="45.58372" lon="6.63613">
        <ele>1954</ele>
        <time>2019-12-30T09:30:08.000Z</time>
      </trkpt>
      <trkpt lat="45.58371" lon="6.6361">
        <ele>1954.4000244141</ele>
        <time>2019-12-30T09:30:12.000Z</time>
      </trkpt>
      <trkpt lat="45.58372" lon="6.63606">
        <ele>1954.8000488281</ele>
        <time>2019-12-30T09:30:15.000Z</time>
      </trkpt>
      <trkpt lat="45.58372" lon="6.63602">
        <ele>1955.1999511719</ele>
        <time>2019-12-30T09:30:17.000Z</time>
      </trkpt>
      <trkpt lat="45.5837" lon="6.63599">
        <ele>1956</ele>
        <time>2019-12-30T09:30:22.000Z</time>
      </trkpt>
      <trkpt lat="45.58368" lon="6.63592">
        <ele>1957</ele>
        <time>2019-12-30T09:30:28.000Z</time>
      </trkpt>
      <trkpt lat="45.58366" lon="6.63588">
        <ele>1957.8000488281</ele>
        <time>2019-12-30T09:30:34.000Z</time>
      </trkpt>
      <trkpt lat="45.58366" lon="6.63587">
        <ele>1958</ele>
        <time>2019-12-30T09:30:35.000Z</time>
      </trkpt>
      <trkpt lat="45.58365" lon="6.63583">
        <ele>1959</ele>
        <time>2019-12-30T09:30:39.000Z</time>
      </trkpt>
      <trkpt lat="45.58365" lon="6.63582">
        <ele>1959</ele>
        <time>2019-12-30T09:30:40.000Z</time>
      </trkpt>
      <trkpt lat="45.58364" lon="6.63579">
        <ele>1959.8000488281</ele>
        <time>2019-12-30T09:30:45.000Z</time>
      </trkpt>
      <trkpt lat="45.58364" lon="6.63576">
        <ele>1960.1999511719</ele>
        <time>2019-12-30T09:30:47.000Z</time>
      </trkpt>
      <trkpt lat="45.58363" lon="6.63573">
        <ele>1960.5999755859</ele>
        <time>2019-12-30T09:30:50.000Z</time>
      </trkpt>
      <trkpt lat="45.58362" lon="6.63568">
        <ele>1961</ele>
        <time>2019-12-30T09:30:54.000Z</time>
      </trkpt>
      <trkpt lat="45.58361" lon="6.63566">
        <ele>1961.1999511719</ele>
        <time>2019-12-30T09:30:56.000Z</time>
      </trkpt>
      <trkpt lat="45.58361" lon="6.63563">
        <ele>1961.5999755859</ele>
        <time>2019-12-30T09:31:00.000Z</time>
      </trkpt>
      <trkpt lat="45.58359" lon="6.63561">
        <ele>1962.4000244141</ele>
        <time>2019-12-30T09:31:03.000Z</time>
      </trkpt>
      <trkpt lat="45.58358" lon="6.63559">
        <ele>1963</ele>
        <time>2019-12-30T09:31:06.000Z</time>
      </trkpt>
      <trkpt lat="45.58358" lon="6.63558">
        <ele>1963.4000244141</ele>
        <time>2019-12-30T09:31:09.000Z</time>
      </trkpt>
      <trkpt lat="45.58358" lon="6.63556">
        <ele>1963.5999755859</ele>
        <time>2019-12-30T09:31:10.000Z</time>
      </trkpt>
      <trkpt lat="45.58357" lon="6.6355">
        <ele>1964.4000244141</ele>
        <time>2019-12-30T09:31:15.000Z</time>
      </trkpt>
      <trkpt lat="45.58357" lon="6.63551">
        <ele>1964.5999755859</ele>
        <time>2019-12-30T09:31:16.000Z</time>
      </trkpt>
      <trkpt lat="45.58357" lon="6.63547">
        <ele>1965.1999511719</ele>
        <time>2019-12-30T09:31:20.000Z</time>
      </trkpt>
      <trkpt lat="45.58356" lon="6.63545">
        <ele>1965.4000244141</ele>
        <time>2019-12-30T09:31:22.000Z</time>
      </trkpt>
      <trkpt lat="45.58355" lon="6.63541">
        <ele>1965.8000488281</ele>
        <time>2019-12-30T09:31:25.000Z</time>
      </trkpt>
      <trkpt lat="45.58355" lon="6.63535">
        <ele>1966.5999755859</ele>
        <time>2019-12-30T09:31:31.000Z</time>
      </trkpt>
      <trkpt lat="45.58351" lon="6.63528">
        <ele>1967.4000244141</ele>
        <time>2019-12-30T09:31:38.000Z</time>
      </trkpt>
      <trkpt lat="45.5835" lon="6.63525">
        <ele>1967.8000488281</ele>
        <time>2019-12-30T09:31:41.000Z</time>
      </trkpt>
      <trkpt lat="45.58349" lon="6.63523">
        <ele>1968.1999511719</ele>
        <time>2019-12-30T09:31:43.000Z</time>
      </trkpt>
      <trkpt lat="45.58348" lon="6.6352">
        <ele>1968.8000488281</ele>
        <time>2019-12-30T09:31:47.000Z</time>
      </trkpt>
      <trkpt lat="45.58347" lon="6.63518">
        <ele>1968.8000488281</ele>
        <time>2019-12-30T09:31:49.000Z</time>
      </trkpt>
      <trkpt lat="45.58346" lon="6.63516">
        <ele>1969.1999511719</ele>
        <time>2019-12-30T09:31:52.000Z</time>
      </trkpt>
      <trkpt lat="45.58344" lon="6.63513">
        <ele>1969.8000488281</ele>
        <time>2019-12-30T09:31:56.000Z</time>
      </trkpt>
      <trkpt lat="45.58343" lon="6.63509">
        <ele>1970.4000244141</ele>
        <time>2019-12-30T09:32:01.000Z</time>
      </trkpt>
      <trkpt lat="45.58341" lon="6.63504">
        <ele>1970.8000488281</ele>
        <time>2019-12-30T09:32:05.000Z</time>
      </trkpt>
      <trkpt lat="45.58341" lon="6.63504">
        <ele>1971</ele>
        <time>2019-12-30T09:32:06.000Z</time>
      </trkpt>
      <trkpt lat="45.58338" lon="6.635">
        <ele>1971.5999755859</ele>
        <time>2019-12-30T09:32:11.000Z</time>
      </trkpt>
      <trkpt lat="45.58338" lon="6.63498">
        <ele>1972</ele>
        <time>2019-12-30T09:32:13.000Z</time>
      </trkpt>
      <trkpt lat="45.58336" lon="6.63496">
        <ele>1973</ele>
        <time>2019-12-30T09:32:16.000Z</time>
      </trkpt>
      <trkpt lat="45.58334" lon="6.63492">
        <ele>1973</ele>
        <time>2019-12-30T09:32:19.000Z</time>
      </trkpt>
      <trkpt lat="45.58333" lon="6.6349">
        <ele>1973.4000244141</ele>
        <time>2019-12-30T09:32:22.000Z</time>
      </trkpt>
      <trkpt lat="45.58329" lon="6.63483">
        <ele>1974</ele>
        <time>2019-12-30T09:32:28.000Z</time>
      </trkpt>
      <trkpt lat="45.58328" lon="6.6348">
        <ele>1974.4000244141</ele>
        <time>2019-12-30T09:32:32.000Z</time>
      </trkpt>
      <trkpt lat="45.58326" lon="6.63478">
        <ele>1974.8000488281</ele>
        <time>2019-12-30T09:32:35.000Z</time>
      </trkpt>
      <trkpt lat="45.58324" lon="6.63476">
        <ele>1974.8000488281</ele>
        <time>2019-12-30T09:32:37.000Z</time>
      </trkpt>
      <trkpt lat="45.58322" lon="6.63474">
        <ele>1975.1999511719</ele>
        <time>2019-12-30T09:32:40.000Z</time>
      </trkpt>
      <trkpt lat="45.58322" lon="6.63473">
        <ele>1975.4000244141</ele>
        <time>2019-12-30T09:32:42.000Z</time>
      </trkpt>
      <trkpt lat="45.58318" lon="6.63469">
        <ele>1976.1999511719</ele>
        <time>2019-12-30T09:32:48.000Z</time>
      </trkpt>
      <trkpt lat="45.58318" lon="6.6347">
        <ele>1976.1999511719</ele>
        <time>2019-12-30T09:32:49.000Z</time>
      </trkpt>
      <trkpt lat="45.58316" lon="6.63466">
        <ele>1976.5999755859</ele>
        <time>2019-12-30T09:32:53.000Z</time>
      </trkpt>
      <trkpt lat="45.58312" lon="6.63461">
        <ele>1977.1999511719</ele>
        <time>2019-12-30T09:32:59.000Z</time>
      </trkpt>
      <trkpt lat="45.5831" lon="6.63461">
        <ele>1977.4000244141</ele>
        <time>2019-12-30T09:33:01.000Z</time>
      </trkpt>
      <trkpt lat="45.58308" lon="6.63458">
        <ele>1977.8000488281</ele>
        <time>2019-12-30T09:33:04.000Z</time>
      </trkpt>
      <trkpt lat="45.58308" lon="6.63458">
        <ele>1978.1999511719</ele>
        <time>2019-12-30T09:33:10.000Z</time>
      </trkpt>
      <trkpt lat="45.58307" lon="6.63456">
        <ele>1978.1999511719</ele>
        <time>2019-12-30T09:33:11.000Z</time>
      </trkpt>
      <trkpt lat="45.58305" lon="6.63453">
        <ele>1978.8000488281</ele>
        <time>2019-12-30T09:33:14.000Z</time>
      </trkpt>
      <trkpt lat="45.58305" lon="6.63454">
        <ele>1978.8000488281</ele>
        <time>2019-12-30T09:33:15.000Z</time>
      </trkpt>
      <trkpt lat="45.58302" lon="6.6345">
        <ele>1979.1999511719</ele>
        <time>2019-12-30T09:33:19.000Z</time>
      </trkpt>
      <trkpt lat="45.58302" lon="6.6345">
        <ele>1979.4000244141</ele>
        <time>2019-12-30T09:33:20.000Z</time>
      </trkpt>
      <trkpt lat="45.58299" lon="6.63446">
        <ele>1980.1999511719</ele>
        <time>2019-12-30T09:33:25.000Z</time>
      </trkpt>
      <trkpt lat="45.58298" lon="6.63445">
        <ele>1980.5999755859</ele>
        <time>2019-12-30T09:33:27.000Z</time>
      </trkpt>
      <trkpt lat="45.58297" lon="6.63443">
        <ele>1980.8000488281</ele>
        <time>2019-12-30T09:33:30.000Z</time>
      </trkpt>
      <trkpt lat="45.58295" lon="6.6344">
        <ele>1981.1999511719</ele>
        <time>2019-12-30T09:33:34.000Z</time>
      </trkpt>
      <trkpt lat="45.58295" lon="6.63441">
        <ele>1981.4000244141</ele>
        <time>2019-12-30T09:33:35.000Z</time>
      </trkpt>
      <trkpt lat="45.58295" lon="6.63439">
        <ele>1981.5999755859</ele>
        <time>2019-12-30T09:33:36.000Z</time>
      </trkpt>
      <trkpt lat="45.58294" lon="6.63437">
        <ele>1982.4000244141</ele>
        <time>2019-12-30T09:33:40.000Z</time>
      </trkpt>
      <trkpt lat="45.58293" lon="6.63435">
        <ele>1982.5999755859</ele>
        <time>2019-12-30T09:33:41.000Z</time>
      </trkpt>
      <trkpt lat="45.58291" lon="6.63432">
        <ele>1983.1999511719</ele>
        <time>2019-12-30T09:33:45.000Z</time>
      </trkpt>
      <trkpt lat="45.5829" lon="6.6343">
        <ele>1983.5999755859</ele>
        <time>2019-12-30T09:33:50.000Z</time>
      </trkpt>
      <trkpt lat="45.5829" lon="6.63429">
        <ele>1983.8000488281</ele>
        <time>2019-12-30T09:33:51.000Z</time>
      </trkpt>
      <trkpt lat="45.58288" lon="6.63426">
        <ele>1984.5999755859</ele>
        <time>2019-12-30T09:33:58.000Z</time>
      </trkpt>
      <trkpt lat="45.58288" lon="6.63426">
        <ele>1984.8000488281</ele>
        <time>2019-12-30T09:33:59.000Z</time>
      </trkpt>
      <trkpt lat="45.58288" lon="6.63426">
        <ele>1985.1999511719</ele>
        <time>2019-12-30T09:34:12.000Z</time>
      </trkpt>
      <trkpt lat="45.58288" lon="6.63426">
        <ele>1985.1999511719</ele>
        <time>2019-12-30T09:34:30.000Z</time>
      </trkpt>
      <trkpt lat="45.58284" lon="6.6342">
        <ele>1985</ele>
        <time>2019-12-30T09:34:36.000Z</time>
      </trkpt>
      <trkpt lat="45.58284" lon="6.6342">
        <ele>1985.5999755859</ele>
        <time>2019-12-30T09:34:41.000Z</time>
      </trkpt>
      <trkpt lat="45.58284" lon="6.6342">
        <ele>1986</ele>
        <time>2019-12-30T09:34:42.000Z</time>
      </trkpt>
      <trkpt lat="45.58286" lon="6.63419">
        <ele>1986.8000488281</ele>
        <time>2019-12-30T09:34:44.000Z</time>
      </trkpt>
      <trkpt lat="45.58288" lon="6.63419">
        <ele>1987.1999511719</ele>
        <time>2019-12-30T09:34:46.000Z</time>
      </trkpt>
      <trkpt lat="45.5829" lon="6.6342">
        <ele>1987</ele>
        <time>2019-12-30T09:34:50.000Z</time>
      </trkpt>
      <trkpt lat="45.58293" lon="6.6342">
        <ele>1987.4000244141</ele>
        <time>2019-12-30T09:34:55.000Z</time>
      </trkpt>
      <trkpt lat="45.58296" lon="6.63421">
        <ele>1988.4000244141</ele>
        <time>2019-12-30T09:34:59.000Z</time>
      </trkpt>
      <trkpt lat="45.58297" lon="6.63421">
        <ele>1989.1999511719</ele>
        <time>2019-12-30T09:35:01.000Z</time>
      </trkpt>
      <trkpt lat="45.58297" lon="6.63421">
        <ele>1989.5999755859</ele>
        <time>2019-12-30T09:35:02.000Z</time>
      </trkpt>
      <trkpt lat="45.583" lon="6.63421">
        <ele>1990.5999755859</ele>
        <time>2019-12-30T09:35:06.000Z</time>
      </trkpt>
      <trkpt lat="45.58299" lon="6.63421">
        <ele>1990.5999755859</ele>
        <time>2019-12-30T09:35:07.000Z</time>
      </trkpt>
      <trkpt lat="45.583" lon="6.6342">
        <ele>1991.1999511719</ele>
        <time>2019-12-30T09:35:11.000Z</time>
      </trkpt>
      <trkpt lat="45.583" lon="6.6342">
        <ele>1991.8000488281</ele>
        <time>2019-12-30T09:35:13.000Z</time>
      </trkpt>
      <trkpt lat="45.583" lon="6.6342">
        <ele>1992</ele>
        <time>2019-12-30T09:35:21.000Z</time>
      </trkpt>
      <trkpt lat="45.583" lon="6.6342">
        <ele>1992</ele>
        <time>2019-12-30T09:35:34.000Z</time>
      </trkpt>
      <trkpt lat="45.583" lon="6.6342">
        <ele>1991.4000244141</ele>
        <time>2019-12-30T09:35:50.000Z</time>
      </trkpt>
      <trkpt lat="45.583" lon="6.6342">
        <ele>1991.8000488281</ele>
        <time>2019-12-30T09:36:05.000Z</time>
      </trkpt>
      <trkpt lat="45.583" lon="6.6342">
        <ele>1991.4000244141</ele>
        <time>2019-12-30T09:36:26.000Z</time>
      </trkpt>
      <trkpt lat="45.58301" lon="6.63421">
        <ele>1992.4000244141</ele>
        <time>2019-12-30T09:36:41.000Z</time>
      </trkpt>
      <trkpt lat="45.58301" lon="6.63421">
        <ele>1992.8000488281</ele>
        <time>2019-12-30T09:36:44.000Z</time>
      </trkpt>
      <trkpt lat="45.58301" lon="6.63421">
        <ele>1991.8000488281</ele>
        <time>2019-12-30T09:36:57.000Z</time>
      </trkpt>
      <trkpt lat="45.58301" lon="6.63421">
        <ele>1992</ele>
        <time>2019-12-30T09:37:10.000Z</time>
      </trkpt>
      <trkpt lat="45.58301" lon="6.63421">
        <ele>1992</ele>
        <time>2019-12-30T09:37:29.000Z</time>
      </trkpt>
      <trkpt lat="45.58301" lon="6.63421">
        <ele>1991.5999755859</ele>
        <time>2019-12-30T09:37:35.000Z</time>
      </trkpt>
      <trkpt lat="45.58301" lon="6.63419">
        <ele>1992.5999755859</ele>
        <time>2019-12-30T09:37:41.000Z</time>
      </trkpt>
      <trkpt lat="45.58302" lon="6.63417">
        <ele>1992.8000488281</ele>
        <time>2019-12-30T09:37:42.000Z</time>
      </trkpt>
      <trkpt lat="45.58304" lon="6.63414">
        <ele>1992.4000244141</ele>
        <time>2019-12-30T09:37:45.000Z</time>
      </trkpt>
      <trkpt lat="45.58305" lon="6.63411">
        <ele>1992.4000244141</ele>
        <time>2019-12-30T09:37:47.000Z</time>
      </trkpt>
      <trkpt lat="45.58306" lon="6.6341">
        <ele>1992.4000244141</ele>
        <time>2019-12-30T09:37:48.000Z</time>
      </trkpt>
      <trkpt lat="45.58306" lon="6.63403">
        <ele>1993.4000244141</ele>
        <time>2019-12-30T09:37:53.000Z</time>
      </trkpt>
      <trkpt lat="45.58306" lon="6.63401">
        <ele>1993.8000488281</ele>
        <time>2019-12-30T09:37:55.000Z</time>
      </trkpt>
      <trkpt lat="45.58307" lon="6.63396">
        <ele>1994.8000488281</ele>
        <time>2019-12-30T09:37:59.000Z</time>
      </trkpt>
      <trkpt lat="45.58307" lon="6.63395">
        <ele>1995</ele>
        <time>2019-12-30T09:38:00.000Z</time>
      </trkpt>
      <trkpt lat="45.58308" lon="6.63391">
        <ele>1996.1999511719</ele>
        <time>2019-12-30T09:38:05.000Z</time>
      </trkpt>
      <trkpt lat="45.58309" lon="6.63386">
        <ele>1997.4000244141</ele>
        <time>2019-12-30T09:38:10.000Z</time>
      </trkpt>
      <trkpt lat="45.58311" lon="6.63384">
        <ele>1997.8000488281</ele>
        <time>2019-12-30T09:38:12.000Z</time>
      </trkpt>
      <trkpt lat="45.58312" lon="6.63382">
        <ele>1998.5999755859</ele>
        <time>2019-12-30T09:38:15.000Z</time>
      </trkpt>
      <trkpt lat="45.58312" lon="6.6338">
        <ele>1999</ele>
        <time>2019-12-30T09:38:18.000Z</time>
      </trkpt>
      <trkpt lat="45.58314" lon="6.63377">
        <ele>1999.8000488281</ele>
        <time>2019-12-30T09:38:21.000Z</time>
      </trkpt>
      <trkpt lat="45.58315" lon="6.63375">
        <ele>2000.8000488281</ele>
        <time>2019-12-30T09:38:25.000Z</time>
      </trkpt>
      <trkpt lat="45.58316" lon="6.63374">
        <ele>2001</ele>
        <time>2019-12-30T09:38:26.000Z</time>
      </trkpt>
      <trkpt lat="45.58318" lon="6.63371">
        <ele>2001.5999755859</ele>
        <time>2019-12-30T09:38:30.000Z</time>
      </trkpt>
      <trkpt lat="45.58319" lon="6.63369">
        <ele>2002</ele>
        <time>2019-12-30T09:38:32.000Z</time>
      </trkpt>
      <trkpt lat="45.58321" lon="6.63366">
        <ele>2003</ele>
        <time>2019-12-30T09:38:36.000Z</time>
      </trkpt>
      <trkpt lat="45.58322" lon="6.63364">
        <ele>2004</ele>
        <time>2019-12-30T09:38:40.000Z</time>
      </trkpt>
      <trkpt lat="45.58323" lon="6.63363">
        <ele>2004.4000244141</ele>
        <time>2019-12-30T09:38:42.000Z</time>
      </trkpt>
      <trkpt lat="45.58325" lon="6.63361">
        <ele>2005</ele>
        <time>2019-12-30T09:38:46.000Z</time>
      </trkpt>
      <trkpt lat="45.58325" lon="6.63361">
        <ele>2005.4000244141</ele>
        <time>2019-12-30T09:38:48.000Z</time>
      </trkpt>
      <trkpt lat="45.58326" lon="6.63359">
        <ele>2006.1999511719</ele>
        <time>2019-12-30T09:38:51.000Z</time>
      </trkpt>
      <trkpt lat="45.58327" lon="6.63358">
        <ele>2006.4000244141</ele>
        <time>2019-12-30T09:38:53.000Z</time>
      </trkpt>
      <trkpt lat="45.58329" lon="6.63356">
        <ele>2007.1999511719</ele>
        <time>2019-12-30T09:38:58.000Z</time>
      </trkpt>
      <trkpt lat="45.5833" lon="6.63355">
        <ele>2007.4000244141</ele>
        <time>2019-12-30T09:38:59.000Z</time>
      </trkpt>
      <trkpt lat="45.58331" lon="6.63354">
        <ele>2008.4000244141</ele>
        <time>2019-12-30T09:39:03.000Z</time>
      </trkpt>
      <trkpt lat="45.58332" lon="6.63354">
        <ele>2008.5999755859</ele>
        <time>2019-12-30T09:39:04.000Z</time>
      </trkpt>
      <trkpt lat="45.58336" lon="6.63351">
        <ele>2009.5999755859</ele>
        <time>2019-12-30T09:39:10.000Z</time>
      </trkpt>
      <trkpt lat="45.58337" lon="6.6335">
        <ele>2009.8000488281</ele>
        <time>2019-12-30T09:39:11.000Z</time>
      </trkpt>
      <trkpt lat="45.58339" lon="6.63347">
        <ele>2010.5999755859</ele>
        <time>2019-12-30T09:39:16.000Z</time>
      </trkpt>
      <trkpt lat="45.58341" lon="6.63343">
        <ele>2011.8000488281</ele>
        <time>2019-12-30T09:39:21.000Z</time>
      </trkpt>
      <trkpt lat="45.58344" lon="6.63338">
        <ele>2013.1999511719</ele>
        <time>2019-12-30T09:39:28.000Z</time>
      </trkpt>
      <trkpt lat="45.58346" lon="6.63333">
        <ele>2014.4000244141</ele>
        <time>2019-12-30T09:39:35.000Z</time>
      </trkpt>
      <trkpt lat="45.58347" lon="6.63328">
        <ele>2015.4000244141</ele>
        <time>2019-12-30T09:39:40.000Z</time>
      </trkpt>
      <trkpt lat="45.58347" lon="6.63327">
        <ele>2015.5999755859</ele>
        <time>2019-12-30T09:39:41.000Z</time>
      </trkpt>
      <trkpt lat="45.58347" lon="6.63324">
        <ele>2016.5999755859</ele>
        <time>2019-12-30T09:39:46.000Z</time>
      </trkpt>
      <trkpt lat="45.58346" lon="6.6332">
        <ele>2017.1999511719</ele>
        <time>2019-12-30T09:39:49.000Z</time>
      </trkpt>
      <trkpt lat="45.58346" lon="6.63318">
        <ele>2017.5999755859</ele>
        <time>2019-12-30T09:39:51.000Z</time>
      </trkpt>
      <trkpt lat="45.58346" lon="6.63317">
        <ele>2017.8000488281</ele>
        <time>2019-12-30T09:39:52.000Z</time>
      </trkpt>
      <trkpt lat="45.58345" lon="6.63313">
        <ele>2018.4000244141</ele>
        <time>2019-12-30T09:39:56.000Z</time>
      </trkpt>
      <trkpt lat="45.58343" lon="6.6331">
        <ele>2019</ele>
        <time>2019-12-30T09:39:59.000Z</time>
      </trkpt>
      <trkpt lat="45.58342" lon="6.63309">
        <ele>2019.4000244141</ele>
        <time>2019-12-30T09:40:01.000Z</time>
      </trkpt>
      <trkpt lat="45.5834" lon="6.63307">
        <ele>2020</ele>
        <time>2019-12-30T09:40:04.000Z</time>
      </trkpt>
      <trkpt lat="45.58338" lon="6.63304">
        <ele>2020.5999755859</ele>
        <time>2019-12-30T09:40:07.000Z</time>
      </trkpt>
      <trkpt lat="45.58337" lon="6.63303">
        <ele>2021</ele>
        <time>2019-12-30T09:40:10.000Z</time>
      </trkpt>
      <trkpt lat="45.58336" lon="6.63301">
        <ele>2021.4000244141</ele>
        <time>2019-12-30T09:40:12.000Z</time>
      </trkpt>
      <trkpt lat="45.58334" lon="6.63299">
        <ele>2022.1999511719</ele>
        <time>2019-12-30T09:40:16.000Z</time>
      </trkpt>
      <trkpt lat="45.58332" lon="6.63298">
        <ele>2022.5999755859</ele>
        <time>2019-12-30T09:40:18.000Z</time>
      </trkpt>
      <trkpt lat="45.58331" lon="6.63296">
        <ele>2023.1999511719</ele>
        <time>2019-12-30T09:40:22.000Z</time>
      </trkpt>
      <trkpt lat="45.5833" lon="6.63295">
        <ele>2023.8000488281</ele>
        <time>2019-12-30T09:40:24.000Z</time>
      </trkpt>
      <trkpt lat="45.58328" lon="6.63293">
        <ele>2024.4000244141</ele>
        <time>2019-12-30T09:40:28.000Z</time>
      </trkpt>
      <trkpt lat="45.58326" lon="6.63291">
        <ele>2025</ele>
        <time>2019-12-30T09:40:31.000Z</time>
      </trkpt>
      <trkpt lat="45.58324" lon="6.63289">
        <ele>2025.4000244141</ele>
        <time>2019-12-30T09:40:34.000Z</time>
      </trkpt>
      <trkpt lat="45.58323" lon="6.63286">
        <ele>2026</ele>
        <time>2019-12-30T09:40:37.000Z</time>
      </trkpt>
      <trkpt lat="45.58321" lon="6.63284">
        <ele>2026.5999755859</ele>
        <time>2019-12-30T09:40:40.000Z</time>
      </trkpt>
      <trkpt lat="45.5832" lon="6.63282">
        <ele>2027</ele>
        <time>2019-12-30T09:40:43.000Z</time>
      </trkpt>
      <trkpt lat="45.58318" lon="6.63279">
        <ele>2027.5999755859</ele>
        <time>2019-12-30T09:40:46.000Z</time>
      </trkpt>
      <trkpt lat="45.58317" lon="6.63278">
        <ele>2028</ele>
        <time>2019-12-30T09:40:48.000Z</time>
      </trkpt>
      <trkpt lat="45.58315" lon="6.63276">
        <ele>2028.4000244141</ele>
        <time>2019-12-30T09:40:51.000Z</time>
      </trkpt>
      <trkpt lat="45.58313" lon="6.63274">
        <ele>2028.8000488281</ele>
        <time>2019-12-30T09:40:54.000Z</time>
      </trkpt>
      <trkpt lat="45.58311" lon="6.63272">
        <ele>2029.8000488281</ele>
        <time>2019-12-30T09:40:59.000Z</time>
      </trkpt>
      <trkpt lat="45.5831" lon="6.63271">
        <ele>2030</ele>
        <time>2019-12-30T09:41:00.000Z</time>
      </trkpt>
      <trkpt lat="45.58309" lon="6.63268">
        <ele>2031</ele>
        <time>2019-12-30T09:41:04.000Z</time>
      </trkpt>
      <trkpt lat="45.58307" lon="6.63266">
        <ele>2031.5999755859</ele>
        <time>2019-12-30T09:41:07.000Z</time>
      </trkpt>
      <trkpt lat="45.58306" lon="6.63263">
        <ele>2032</ele>
        <time>2019-12-30T09:41:10.000Z</time>
      </trkpt>
      <trkpt lat="45.58305" lon="6.63262">
        <ele>2032.5999755859</ele>
        <time>2019-12-30T09:41:13.000Z</time>
      </trkpt>
      <trkpt lat="45.58303" lon="6.6326">
        <ele>2033</ele>
        <time>2019-12-30T09:41:15.000Z</time>
      </trkpt>
      <trkpt lat="45.58301" lon="6.63256">
        <ele>2033.8000488281</ele>
        <time>2019-12-30T09:41:19.000Z</time>
      </trkpt>
      <trkpt lat="45.58301" lon="6.63254">
        <ele>2034.1999511719</ele>
        <time>2019-12-30T09:41:21.000Z</time>
      </trkpt>
      <trkpt lat="45.583" lon="6.63251">
        <ele>2034.5999755859</ele>
        <time>2019-12-30T09:41:24.000Z</time>
      </trkpt>
      <trkpt lat="45.58299" lon="6.63247">
        <ele>2035.1999511719</ele>
        <time>2019-12-30T09:41:27.000Z</time>
      </trkpt>
      <trkpt lat="45.58298" lon="6.63245">
        <ele>2036.1999511719</ele>
        <time>2019-12-30T09:41:30.000Z</time>
      </trkpt>
      <trkpt lat="45.58297" lon="6.63244">
        <ele>2036.4000244141</ele>
        <time>2019-12-30T09:41:31.000Z</time>
      </trkpt>
      <trkpt lat="45.58296" lon="6.63238">
        <ele>2037.4000244141</ele>
        <time>2019-12-30T09:41:37.000Z</time>
      </trkpt>
      <trkpt lat="45.58296" lon="6.63233">
        <ele>2038.4000244141</ele>
        <time>2019-12-30T09:41:42.000Z</time>
      </trkpt>
      <trkpt lat="45.58296" lon="6.63232">
        <ele>2038.5999755859</ele>
        <time>2019-12-30T09:41:43.000Z</time>
      </trkpt>
      <trkpt lat="45.58296" lon="6.63225">
        <ele>2039.5999755859</ele>
        <time>2019-12-30T09:41:48.000Z</time>
      </trkpt>
      <trkpt lat="45.58296" lon="6.63225">
        <ele>2039.8000488281</ele>
        <time>2019-12-30T09:41:49.000Z</time>
      </trkpt>
      <trkpt lat="45.58295" lon="6.63221">
        <ele>2040.8000488281</ele>
        <time>2019-12-30T09:41:53.000Z</time>
      </trkpt>
      <trkpt lat="45.58295" lon="6.6322">
        <ele>2041.1999511719</ele>
        <time>2019-12-30T09:41:54.000Z</time>
      </trkpt>
      <trkpt lat="45.58293" lon="6.63215">
        <ele>2042</ele>
        <time>2019-12-30T09:41:59.000Z</time>
      </trkpt>
      <trkpt lat="45.58292" lon="6.63212">
        <ele>2042.8000488281</ele>
        <time>2019-12-30T09:42:04.000Z</time>
      </trkpt>
      <trkpt lat="45.58291" lon="6.63209">
        <ele>2043.1999511719</ele>
        <time>2019-12-30T09:42:06.000Z</time>
      </trkpt>
      <trkpt lat="45.58291" lon="6.63207">
        <ele>2043.5999755859</ele>
        <time>2019-12-30T09:42:09.000Z</time>
      </trkpt>
      <trkpt lat="45.58289" lon="6.63204">
        <ele>2044.1999511719</ele>
        <time>2019-12-30T09:42:13.000Z</time>
      </trkpt>
      <trkpt lat="45.58289" lon="6.63203">
        <ele>2044.4000244141</ele>
        <time>2019-12-30T09:42:14.000Z</time>
      </trkpt>
      <trkpt lat="45.58287" lon="6.63198">
        <ele>2045</ele>
        <time>2019-12-30T09:42:18.000Z</time>
      </trkpt>
      <trkpt lat="45.58287" lon="6.63197">
        <ele>2045.4000244141</ele>
        <time>2019-12-30T09:42:20.000Z</time>
      </trkpt>
      <trkpt lat="45.58286" lon="6.63194">
        <ele>2045.8000488281</ele>
        <time>2019-12-30T09:42:22.000Z</time>
      </trkpt>
      <trkpt lat="45.58284" lon="6.63191">
        <ele>2046.4000244141</ele>
        <time>2019-12-30T09:42:26.000Z</time>
      </trkpt>
      <trkpt lat="45.58284" lon="6.6319">
        <ele>2046.4000244141</ele>
        <time>2019-12-30T09:42:27.000Z</time>
      </trkpt>
      <trkpt lat="45.58282" lon="6.63187">
        <ele>2047.4000244141</ele>
        <time>2019-12-30T09:42:32.000Z</time>
      </trkpt>
      <trkpt lat="45.58282" lon="6.63187">
        <ele>2047.5999755859</ele>
        <time>2019-12-30T09:42:33.000Z</time>
      </trkpt>
      <trkpt lat="45.5828" lon="6.63183">
        <ele>2048.8000488281</ele>
        <time>2019-12-30T09:42:38.000Z</time>
      </trkpt>
      <trkpt lat="45.58278" lon="6.6318">
        <ele>2049.8000488281</ele>
        <time>2019-12-30T09:42:41.000Z</time>
      </trkpt>
      <trkpt lat="45.58278" lon="6.63179">
        <ele>2050</ele>
        <time>2019-12-30T09:42:42.000Z</time>
      </trkpt>
      <trkpt lat="45.58275" lon="6.63175">
        <ele>2051</ele>
        <time>2019-12-30T09:42:47.000Z</time>
      </trkpt>
      <trkpt lat="45.58274" lon="6.63175">
        <ele>2051.6000976562</ele>
        <time>2019-12-30T09:42:54.000Z</time>
      </trkpt>
      <trkpt lat="45.58274" lon="6.63175">
        <ele>2052</ele>
        <time>2019-12-30T09:43:00.000Z</time>
      </trkpt>
      <trkpt lat="45.58274" lon="6.63175">
        <ele>2052.1999511719</ele>
        <time>2019-12-30T09:43:04.000Z</time>
      </trkpt>
      <trkpt lat="45.58274" lon="6.63175">
        <ele>2052.1999511719</ele>
        <time>2019-12-30T09:43:14.000Z</time>
      </trkpt>
      <trkpt lat="45.58274" lon="6.63174">
        <ele>2052.3999023438</ele>
        <time>2019-12-30T09:43:25.000Z</time>
      </trkpt>
      <trkpt lat="45.58274" lon="6.63174">
        <ele>2052</ele>
        <time>2019-12-30T09:43:40.000Z</time>
      </trkpt>
      <trkpt lat="45.58274" lon="6.63174">
        <ele>2052</ele>
        <time>2019-12-30T09:43:57.000Z</time>
      </trkpt>
      <trkpt lat="45.58274" lon="6.63174">
        <ele>2052</ele>
        <time>2019-12-30T09:44:14.000Z</time>
      </trkpt>
      <trkpt lat="45.58274" lon="6.63174">
        <ele>2052.6000976562</ele>
        <time>2019-12-30T09:44:23.000Z</time>
      </trkpt>
      <trkpt lat="45.58274" lon="6.63174">
        <ele>2052.1999511719</ele>
        <time>2019-12-30T09:44:38.000Z</time>
      </trkpt>
      <trkpt lat="45.58274" lon="6.63173">
        <ele>2052.1999511719</ele>
        <time>2019-12-30T09:44:52.000Z</time>
      </trkpt>
      <trkpt lat="45.58274" lon="6.63173">
        <ele>2052</ele>
        <time>2019-12-30T09:45:11.000Z</time>
      </trkpt>
      <trkpt lat="45.58274" lon="6.63173">
        <ele>2051.6000976562</ele>
        <time>2019-12-30T09:45:19.000Z</time>
      </trkpt>
      <trkpt lat="45.5827" lon="6.63169">
        <ele>2052.1999511719</ele>
        <time>2019-12-30T09:45:23.000Z</time>
      </trkpt>
      <trkpt lat="45.5827" lon="6.63169">
        <ele>2052.1999511719</ele>
        <time>2019-12-30T09:45:24.000Z</time>
      </trkpt>
      <trkpt lat="45.58265" lon="6.63164">
        <ele>2052.3999023438</ele>
        <time>2019-12-30T09:45:29.000Z</time>
      </trkpt>
      <trkpt lat="45.58261" lon="6.63159">
        <ele>2053</ele>
        <time>2019-12-30T09:45:34.000Z</time>
      </trkpt>
      <trkpt lat="45.58261" lon="6.63158">
        <ele>2053</ele>
        <time>2019-12-30T09:45:35.000Z</time>
      </trkpt>
      <trkpt lat="45.58256" lon="6.63154">
        <ele>2053.8000488281</ele>
        <time>2019-12-30T09:45:40.000Z</time>
      </trkpt>
      <trkpt lat="45.58254" lon="6.63151">
        <ele>2054</ele>
        <time>2019-12-30T09:45:43.000Z</time>
      </trkpt>
      <trkpt lat="45.58252" lon="6.6315">
        <ele>2054.1999511719</ele>
        <time>2019-12-30T09:45:45.000Z</time>
      </trkpt>
      <trkpt lat="45.58248" lon="6.63145">
        <ele>2054.6000976562</ele>
        <time>2019-12-30T09:45:50.000Z</time>
      </trkpt>
      <trkpt lat="45.58243" lon="6.63139">
        <ele>2054.8000488281</ele>
        <time>2019-12-30T09:45:56.000Z</time>
      </trkpt>
      <trkpt lat="45.58242" lon="6.63137">
        <ele>2055</ele>
        <time>2019-12-30T09:45:58.000Z</time>
      </trkpt>
      <trkpt lat="45.58241" lon="6.63135">
        <ele>2055.1999511719</ele>
        <time>2019-12-30T09:46:01.000Z</time>
      </trkpt>
      <trkpt lat="45.58236" lon="6.63131">
        <ele>2055.6000976562</ele>
        <time>2019-12-30T09:46:06.000Z</time>
      </trkpt>
      <trkpt lat="45.58234" lon="6.63129">
        <ele>2055.8000488281</ele>
        <time>2019-12-30T09:46:09.000Z</time>
      </trkpt>
      <trkpt lat="45.58233" lon="6.63126">
        <ele>2056</ele>
        <time>2019-12-30T09:46:11.000Z</time>
      </trkpt>
      <trkpt lat="45.58232" lon="6.63125">
        <ele>2056.1999511719</ele>
        <time>2019-12-30T09:46:12.000Z</time>
      </trkpt>
      <trkpt lat="45.5823" lon="6.63124">
        <ele>2056.6000976562</ele>
        <time>2019-12-30T09:46:14.000Z</time>
      </trkpt>
      <trkpt lat="45.58229" lon="6.63123">
        <ele>2056.6000976562</ele>
        <time>2019-12-30T09:46:15.000Z</time>
      </trkpt>
      <trkpt lat="45.58225" lon="6.63119">
        <ele>2056.6000976562</ele>
        <time>2019-12-30T09:46:19.000Z</time>
      </trkpt>
      <trkpt lat="45.58223" lon="6.63118">
        <ele>2056.8000488281</ele>
        <time>2019-12-30T09:46:21.000Z</time>
      </trkpt>
      <trkpt lat="45.58218" lon="6.63112">
        <ele>2057.1999511719</ele>
        <time>2019-12-30T09:46:26.000Z</time>
      </trkpt>
      <trkpt lat="45.58217" lon="6.63111">
        <ele>2057.1999511719</ele>
        <time>2019-12-30T09:46:27.000Z</time>
      </trkpt>
      <trkpt lat="45.58214" lon="6.63107">
        <ele>2057.6000976562</ele>
        <time>2019-12-30T09:46:32.000Z</time>
      </trkpt>
      <trkpt lat="45.5821" lon="6.63104">
        <ele>2058</ele>
        <time>2019-12-30T09:46:38.000Z</time>
      </trkpt>
      <trkpt lat="45.58209" lon="6.63103">
        <ele>2058.1999511719</ele>
        <time>2019-12-30T09:46:39.000Z</time>
      </trkpt>
      <trkpt lat="45.58207" lon="6.631">
        <ele>2058.6000976562</ele>
        <time>2019-12-30T09:46:42.000Z</time>
      </trkpt>
      <trkpt lat="45.58204" lon="6.63096">
        <ele>2059.1999511719</ele>
        <time>2019-12-30T09:46:46.000Z</time>
      </trkpt>
      <trkpt lat="45.58203" lon="6.63095">
        <ele>2059.3999023438</ele>
        <time>2019-12-30T09:46:47.000Z</time>
      </trkpt>
      <trkpt lat="45.58199" lon="6.63089">
        <ele>2060.3999023438</ele>
        <time>2019-12-30T09:46:53.000Z</time>
      </trkpt>
      <trkpt lat="45.58196" lon="6.63085">
        <ele>2061.1999511719</ele>
        <time>2019-12-30T09:46:59.000Z</time>
      </trkpt>
      <trkpt lat="45.58195" lon="6.63084">
        <ele>2061.3999023438</ele>
        <time>2019-12-30T09:47:01.000Z</time>
      </trkpt>
      <trkpt lat="45.58193" lon="6.63082">
        <ele>2062.3999023438</ele>
        <time>2019-12-30T09:47:04.000Z</time>
      </trkpt>
      <trkpt lat="45.58192" lon="6.63081">
        <ele>2062.6000976562</ele>
        <time>2019-12-30T09:47:05.000Z</time>
      </trkpt>
      <trkpt lat="45.5819" lon="6.63078">
        <ele>2063.1999511719</ele>
        <time>2019-12-30T09:47:09.000Z</time>
      </trkpt>
      <trkpt lat="45.58187" lon="6.63075">
        <ele>2063.8000488281</ele>
        <time>2019-12-30T09:47:12.000Z</time>
      </trkpt>
      <trkpt lat="45.58185" lon="6.63073">
        <ele>2064</ele>
        <time>2019-12-30T09:47:14.000Z</time>
      </trkpt>
      <trkpt lat="45.58183" lon="6.6307">
        <ele>2064.8000488281</ele>
        <time>2019-12-30T09:47:18.000Z</time>
      </trkpt>
      <trkpt lat="45.58182" lon="6.63069">
        <ele>2065</ele>
        <time>2019-12-30T09:47:19.000Z</time>
      </trkpt>
      <trkpt lat="45.5818" lon="6.63066">
        <ele>2065.3999023438</ele>
        <time>2019-12-30T09:47:23.000Z</time>
      </trkpt>
      <trkpt lat="45.58178" lon="6.63065">
        <ele>2066</ele>
        <time>2019-12-30T09:47:27.000Z</time>
      </trkpt>
      <trkpt lat="45.58178" lon="6.63065">
        <ele>2066.1999511719</ele>
        <time>2019-12-30T09:47:28.000Z</time>
      </trkpt>
      <trkpt lat="45.58177" lon="6.63064">
        <ele>2066.3999023438</ele>
        <time>2019-12-30T09:47:34.000Z</time>
      </trkpt>
      <trkpt lat="45.58176" lon="6.63063">
        <ele>2066.3999023438</ele>
        <time>2019-12-30T09:47:40.000Z</time>
      </trkpt>
      <trkpt lat="45.58174" lon="6.63062">
        <ele>2066.6000976562</ele>
        <time>2019-12-30T09:47:48.000Z</time>
      </trkpt>
      <trkpt lat="45.58168" lon="6.63054">
        <ele>2066.8000488281</ele>
        <time>2019-12-30T09:47:54.000Z</time>
      </trkpt>
      <trkpt lat="45.58163" lon="6.6305">
        <ele>2067</ele>
        <time>2019-12-30T09:47:58.000Z</time>
      </trkpt>
      <trkpt lat="45.58162" lon="6.63049">
        <ele>2067</ele>
        <time>2019-12-30T09:47:59.000Z</time>
      </trkpt>
      <trkpt lat="45.58157" lon="6.63043">
        <ele>2067.1999511719</ele>
        <time>2019-12-30T09:48:04.000Z</time>
      </trkpt>
      <trkpt lat="45.58151" lon="6.63039">
        <ele>2067.8000488281</ele>
        <time>2019-12-30T09:48:09.000Z</time>
      </trkpt>
      <trkpt lat="45.58146" lon="6.63033">
        <ele>2067.8000488281</ele>
        <time>2019-12-30T09:48:14.000Z</time>
      </trkpt>
      <trkpt lat="45.58143" lon="6.6303">
        <ele>2068</ele>
        <time>2019-12-30T09:48:17.000Z</time>
      </trkpt>
      <trkpt lat="45.58141" lon="6.63029">
        <ele>2068.1999511719</ele>
        <time>2019-12-30T09:48:19.000Z</time>
      </trkpt>
      <trkpt lat="45.58136" lon="6.63025">
        <ele>2068.3999023438</ele>
        <time>2019-12-30T09:48:24.000Z</time>
      </trkpt>
      <trkpt lat="45.58132" lon="6.6302">
        <ele>2068.8000488281</ele>
        <time>2019-12-30T09:48:29.000Z</time>
      </trkpt>
      <trkpt lat="45.58132" lon="6.63019">
        <ele>2069</ele>
        <time>2019-12-30T09:48:30.000Z</time>
      </trkpt>
      <trkpt lat="45.58132" lon="6.63017">
        <ele>2069</ele>
        <time>2019-12-30T09:48:31.000Z</time>
      </trkpt>
      <trkpt lat="45.58128" lon="6.63008">
        <ele>2069.6000976562</ele>
        <time>2019-12-30T09:48:36.000Z</time>
      </trkpt>
      <trkpt lat="45.58125" lon="6.63002">
        <ele>2070</ele>
        <time>2019-12-30T09:48:41.000Z</time>
      </trkpt>
      <trkpt lat="45.58124" lon="6.63">
        <ele>2070.1999511719</ele>
        <time>2019-12-30T09:48:42.000Z</time>
      </trkpt>
      <trkpt lat="45.58122" lon="6.62994">
        <ele>2071</ele>
        <time>2019-12-30T09:48:46.000Z</time>
      </trkpt>
      <trkpt lat="45.58121" lon="6.62994">
        <ele>2071.1999511719</ele>
        <time>2019-12-30T09:48:47.000Z</time>
      </trkpt>
      <trkpt lat="45.58119" lon="6.6299">
        <ele>2071.6000976562</ele>
        <time>2019-12-30T09:48:50.000Z</time>
      </trkpt>
      <trkpt lat="45.58117" lon="6.62984">
        <ele>2072.3999023438</ele>
        <time>2019-12-30T09:48:55.000Z</time>
      </trkpt>
      <trkpt lat="45.58116" lon="6.62983">
        <ele>2072.6000976562</ele>
        <time>2019-12-30T09:48:56.000Z</time>
      </trkpt>
      <trkpt lat="45.58113" lon="6.62977">
        <ele>2073.3999023438</ele>
        <time>2019-12-30T09:49:01.000Z</time>
      </trkpt>
      <trkpt lat="45.58112" lon="6.62976">
        <ele>2073.3999023438</ele>
        <time>2019-12-30T09:49:02.000Z</time>
      </trkpt>
      <trkpt lat="45.58112" lon="6.62971">
        <ele>2074.1999511719</ele>
        <time>2019-12-30T09:49:05.000Z</time>
      </trkpt>
      <trkpt lat="45.58112" lon="6.62968">
        <ele>2074.6000976562</ele>
        <time>2019-12-30T09:49:07.000Z</time>
      </trkpt>
      <trkpt lat="45.5811" lon="6.62961">
        <ele>2075.3999023438</ele>
        <time>2019-12-30T09:49:13.000Z</time>
      </trkpt>
      <trkpt lat="45.58109" lon="6.6296">
        <ele>2075.8000488281</ele>
        <time>2019-12-30T09:49:16.000Z</time>
      </trkpt>
      <trkpt lat="45.58109" lon="6.6296">
        <ele>2075.8000488281</ele>
        <time>2019-12-30T09:49:17.000Z</time>
      </trkpt>
      <trkpt lat="45.58109" lon="6.62957">
        <ele>2076.6000976562</ele>
        <time>2019-12-30T09:49:26.000Z</time>
      </trkpt>
      <trkpt lat="45.58109" lon="6.62955">
        <ele>2076.3999023438</ele>
        <time>2019-12-30T09:49:31.000Z</time>
      </trkpt>
      <trkpt lat="45.58109" lon="6.62955">
        <ele>2076.8000488281</ele>
        <time>2019-12-30T09:49:37.000Z</time>
      </trkpt>
      <trkpt lat="45.58109" lon="6.62955">
        <ele>2077</ele>
        <time>2019-12-30T09:49:48.000Z</time>
      </trkpt>
      <trkpt lat="45.58109" lon="6.62953">
        <ele>2077</ele>
        <time>2019-12-30T09:49:59.000Z</time>
      </trkpt>
      <trkpt lat="45.5811" lon="6.62948">
        <ele>2077.3999023438</ele>
        <time>2019-12-30T09:50:03.000Z</time>
      </trkpt>
      <trkpt lat="45.58111" lon="6.62943">
        <ele>2077.8000488281</ele>
        <time>2019-12-30T09:50:07.000Z</time>
      </trkpt>
      <trkpt lat="45.58111" lon="6.62942">
        <ele>2078</ele>
        <time>2019-12-30T09:50:08.000Z</time>
      </trkpt>
      <trkpt lat="45.58112" lon="6.62936">
        <ele>2078.8000488281</ele>
        <time>2019-12-30T09:50:12.000Z</time>
      </trkpt>
      <trkpt lat="45.58112" lon="6.62932">
        <ele>2079</ele>
        <time>2019-12-30T09:50:14.000Z</time>
      </trkpt>
      <trkpt lat="45.58114" lon="6.62927">
        <ele>2079.3999023438</ele>
        <time>2019-12-30T09:50:17.000Z</time>
      </trkpt>
      <trkpt lat="45.58115" lon="6.62922">
        <ele>2080</ele>
        <time>2019-12-30T09:50:21.000Z</time>
      </trkpt>
      <trkpt lat="45.58115" lon="6.62921">
        <ele>2080.3999023438</ele>
        <time>2019-12-30T09:50:22.000Z</time>
      </trkpt>
      <trkpt lat="45.58115" lon="6.62918">
        <ele>2080.8000488281</ele>
        <time>2019-12-30T09:50:27.000Z</time>
      </trkpt>
      <trkpt lat="45.58115" lon="6.62918">
        <ele>2081.1999511719</ele>
        <time>2019-12-30T09:50:30.000Z</time>
      </trkpt>
      <trkpt lat="45.58116" lon="6.62917">
        <ele>2082</ele>
        <time>2019-12-30T09:50:33.000Z</time>
      </trkpt>
      <trkpt lat="45.58117" lon="6.62911">
        <ele>2081.8000488281</ele>
        <time>2019-12-30T09:50:37.000Z</time>
      </trkpt>
      <trkpt lat="45.58118" lon="6.62906">
        <ele>2082</ele>
        <time>2019-12-30T09:50:41.000Z</time>
      </trkpt>
      <trkpt lat="45.58118" lon="6.62905">
        <ele>2082.1999511719</ele>
        <time>2019-12-30T09:50:42.000Z</time>
      </trkpt>
      <trkpt lat="45.58119" lon="6.62901">
        <ele>2082.8000488281</ele>
        <time>2019-12-30T09:50:45.000Z</time>
      </trkpt>
      <trkpt lat="45.58119" lon="6.629">
        <ele>2083.3999023438</ele>
        <time>2019-12-30T09:50:47.000Z</time>
      </trkpt>
      <trkpt lat="45.58119" lon="6.62895">
        <ele>2084.1999511719</ele>
        <time>2019-12-30T09:50:51.000Z</time>
      </trkpt>
      <trkpt lat="45.5812" lon="6.62892">
        <ele>2084.3999023438</ele>
        <time>2019-12-30T09:50:53.000Z</time>
      </trkpt>
      <trkpt lat="45.58121" lon="6.6289">
        <ele>2085.1999511719</ele>
        <time>2019-12-30T09:50:56.000Z</time>
      </trkpt>
      <trkpt lat="45.58121" lon="6.62887">
        <ele>2085.6000976562</ele>
        <time>2019-12-30T09:50:58.000Z</time>
      </trkpt>
      <trkpt lat="45.58122" lon="6.62883">
        <ele>2086.1999511719</ele>
        <time>2019-12-30T09:51:02.000Z</time>
      </trkpt>
      <trkpt lat="45.58122" lon="6.62882">
        <ele>2086.6000976562</ele>
        <time>2019-12-30T09:51:04.000Z</time>
      </trkpt>
      <trkpt lat="45.58122" lon="6.62879">
        <ele>2087.1999511719</ele>
        <time>2019-12-30T09:51:07.000Z</time>
      </trkpt>
      <trkpt lat="45.58123" lon="6.62875">
        <ele>2087.8000488281</ele>
        <time>2019-12-30T09:51:10.000Z</time>
      </trkpt>
      <trkpt lat="45.58123" lon="6.62871">
        <ele>2088.1999511719</ele>
        <time>2019-12-30T09:51:13.000Z</time>
      </trkpt>
      <trkpt lat="45.58125" lon="6.62867">
        <ele>2088.8000488281</ele>
        <time>2019-12-30T09:51:18.000Z</time>
      </trkpt>
      <trkpt lat="45.58126" lon="6.62865">
        <ele>2089</ele>
        <time>2019-12-30T09:51:19.000Z</time>
      </trkpt>
      <trkpt lat="45.58127" lon="6.62857">
        <ele>2089.6000976562</ele>
        <time>2019-12-30T09:51:24.000Z</time>
      </trkpt>
      <trkpt lat="45.58128" lon="6.62856">
        <ele>2089.8000488281</ele>
        <time>2019-12-30T09:51:25.000Z</time>
      </trkpt>
      <trkpt lat="45.58128" lon="6.6285">
        <ele>2090.6000976562</ele>
        <time>2019-12-30T09:51:30.000Z</time>
      </trkpt>
      <trkpt lat="45.58128" lon="6.62846">
        <ele>2091</ele>
        <time>2019-12-30T09:51:32.000Z</time>
      </trkpt>
      <trkpt lat="45.5813" lon="6.62842">
        <ele>2091.6000976562</ele>
        <time>2019-12-30T09:51:36.000Z</time>
      </trkpt>
      <trkpt lat="45.58131" lon="6.62838">
        <ele>2092</ele>
        <time>2019-12-30T09:51:39.000Z</time>
      </trkpt>
      <trkpt lat="45.58131" lon="6.62836">
        <ele>2092.3999023438</ele>
        <time>2019-12-30T09:51:42.000Z</time>
      </trkpt>
      <trkpt lat="45.58131" lon="6.62833">
        <ele>2093</ele>
        <time>2019-12-30T09:51:45.000Z</time>
      </trkpt>
      <trkpt lat="45.58132" lon="6.62829">
        <ele>2093.8000488281</ele>
        <time>2019-12-30T09:51:48.000Z</time>
      </trkpt>
      <trkpt lat="45.58132" lon="6.62826">
        <ele>2094.1999511719</ele>
        <time>2019-12-30T09:51:51.000Z</time>
      </trkpt>
      <trkpt lat="45.58133" lon="6.62822">
        <ele>2094.6000976562</ele>
        <time>2019-12-30T09:51:53.000Z</time>
      </trkpt>
      <trkpt lat="45.58134" lon="6.62818">
        <ele>2095.3999023438</ele>
        <time>2019-12-30T09:51:57.000Z</time>
      </trkpt>
      <trkpt lat="45.58135" lon="6.62816">
        <ele>2095.6000976562</ele>
        <time>2019-12-30T09:51:59.000Z</time>
      </trkpt>
      <trkpt lat="45.58135" lon="6.62808">
        <ele>2096.1999511719</ele>
        <time>2019-12-30T09:52:05.000Z</time>
      </trkpt>
      <trkpt lat="45.58135" lon="6.62806">
        <ele>2096.3999023438</ele>
        <time>2019-12-30T09:52:06.000Z</time>
      </trkpt>
      <trkpt lat="45.58136" lon="6.628">
        <ele>2097</ele>
        <time>2019-12-30T09:52:11.000Z</time>
      </trkpt>
      <trkpt lat="45.58137" lon="6.62794">
        <ele>2097.3999023438</ele>
        <time>2019-12-30T09:52:15.000Z</time>
      </trkpt>
      <trkpt lat="45.58137" lon="6.62791">
        <ele>2097.8000488281</ele>
        <time>2019-12-30T09:52:17.000Z</time>
      </trkpt>
      <trkpt lat="45.58137" lon="6.62785">
        <ele>2098.6000976562</ele>
        <time>2019-12-30T09:52:22.000Z</time>
      </trkpt>
      <trkpt lat="45.58137" lon="6.62784">
        <ele>2098.6000976562</ele>
        <time>2019-12-30T09:52:23.000Z</time>
      </trkpt>
      <trkpt lat="45.58138" lon="6.62779">
        <ele>2099</ele>
        <time>2019-12-30T09:52:27.000Z</time>
      </trkpt>
      <trkpt lat="45.58139" lon="6.62776">
        <ele>2099.6000976562</ele>
        <time>2019-12-30T09:52:31.000Z</time>
      </trkpt>
      <trkpt lat="45.58139" lon="6.62774">
        <ele>2099.8000488281</ele>
        <time>2019-12-30T09:52:32.000Z</time>
      </trkpt>
      <trkpt lat="45.58138" lon="6.62768">
        <ele>2100.1999511719</ele>
        <time>2019-12-30T09:52:36.000Z</time>
      </trkpt>
      <trkpt lat="45.58138" lon="6.62764">
        <ele>2100.3999023438</ele>
        <time>2019-12-30T09:52:38.000Z</time>
      </trkpt>
      <trkpt lat="45.58139" lon="6.62762">
        <ele>2100.6000976562</ele>
        <time>2019-12-30T09:52:40.000Z</time>
      </trkpt>
      <trkpt lat="45.5814" lon="6.6276">
        <ele>2100.8000488281</ele>
        <time>2019-12-30T09:52:41.000Z</time>
      </trkpt>
      <trkpt lat="45.58141" lon="6.62753">
        <ele>2101.1999511719</ele>
        <time>2019-12-30T09:52:45.000Z</time>
      </trkpt>
      <trkpt lat="45.5814" lon="6.62748">
        <ele>2101.1999511719</ele>
        <time>2019-12-30T09:52:51.000Z</time>
      </trkpt>
      <trkpt lat="45.58141" lon="6.62741">
        <ele>2102</ele>
        <time>2019-12-30T09:52:56.000Z</time>
      </trkpt>
      <trkpt lat="45.58142" lon="6.6274">
        <ele>2102</ele>
        <time>2019-12-30T09:52:57.000Z</time>
      </trkpt>
      <trkpt lat="45.58143" lon="6.62731">
        <ele>2101.8000488281</ele>
        <time>2019-12-30T09:53:02.000Z</time>
      </trkpt>
      <trkpt lat="45.58144" lon="6.62723">
        <ele>2101.6000976562</ele>
        <time>2019-12-30T09:53:07.000Z</time>
      </trkpt>
      <trkpt lat="45.58146" lon="6.62715">
        <ele>2102.6000976562</ele>
        <time>2019-12-30T09:53:13.000Z</time>
      </trkpt>
      <trkpt lat="45.58145" lon="6.62713">
        <ele>2103</ele>
        <time>2019-12-30T09:53:15.000Z</time>
      </trkpt>
      <trkpt lat="45.58145" lon="6.62708">
        <ele>2103.3999023438</ele>
        <time>2019-12-30T09:53:18.000Z</time>
      </trkpt>
      <trkpt lat="45.58146" lon="6.62702">
        <ele>2104</ele>
        <time>2019-12-30T09:53:24.000Z</time>
      </trkpt>
      <trkpt lat="45.58147" lon="6.62695">
        <ele>2104.8000488281</ele>
        <time>2019-12-30T09:53:29.000Z</time>
      </trkpt>
      <trkpt lat="45.58148" lon="6.6269">
        <ele>2105.1999511719</ele>
        <time>2019-12-30T09:53:32.000Z</time>
      </trkpt>
      <trkpt lat="45.58148" lon="6.62687">
        <ele>2105.3999023438</ele>
        <time>2019-12-30T09:53:35.000Z</time>
      </trkpt>
      <trkpt lat="45.58149" lon="6.62681">
        <ele>2105.8000488281</ele>
        <time>2019-12-30T09:53:40.000Z</time>
      </trkpt>
      <trkpt lat="45.58149" lon="6.62678">
        <ele>2106.3999023438</ele>
        <time>2019-12-30T09:53:42.000Z</time>
      </trkpt>
      <trkpt lat="45.58149" lon="6.62677">
        <ele>2106.8000488281</ele>
        <time>2019-12-30T09:53:45.000Z</time>
      </trkpt>
      <trkpt lat="45.5815" lon="6.6267">
        <ele>2106.8000488281</ele>
        <time>2019-12-30T09:53:51.000Z</time>
      </trkpt>
      <trkpt lat="45.58151" lon="6.62665">
        <ele>2107</ele>
        <time>2019-12-30T09:53:55.000Z</time>
      </trkpt>
      <trkpt lat="45.58152" lon="6.62661">
        <ele>2107.3999023438</ele>
        <time>2019-12-30T09:53:58.000Z</time>
      </trkpt>
      <trkpt lat="45.58153" lon="6.62659">
        <ele>2107.6000976562</ele>
        <time>2019-12-30T09:53:59.000Z</time>
      </trkpt>
      <trkpt lat="45.58153" lon="6.62653">
        <ele>2107.8000488281</ele>
        <time>2019-12-30T09:54:04.000Z</time>
      </trkpt>
      <trkpt lat="45.58154" lon="6.62647">
        <ele>2108</ele>
        <time>2019-12-30T09:54:08.000Z</time>
      </trkpt>
      <trkpt lat="45.58156" lon="6.62639">
        <ele>2108.3999023438</ele>
        <time>2019-12-30T09:54:13.000Z</time>
      </trkpt>
      <trkpt lat="45.58159" lon="6.62632">
        <ele>2109.1999511719</ele>
        <time>2019-12-30T09:54:18.000Z</time>
      </trkpt>
      <trkpt lat="45.5816" lon="6.62629">
        <ele>2109.6000976562</ele>
        <time>2019-12-30T09:54:20.000Z</time>
      </trkpt>
      <trkpt lat="45.58161" lon="6.62624">
        <ele>2110</ele>
        <time>2019-12-30T09:54:24.000Z</time>
      </trkpt>
      <trkpt lat="45.58162" lon="6.62623">
        <ele>2110.1999511719</ele>
        <time>2019-12-30T09:54:25.000Z</time>
      </trkpt>
      <trkpt lat="45.58162" lon="6.6262">
        <ele>2110.6000976562</ele>
        <time>2019-12-30T09:54:28.000Z</time>
      </trkpt>
      <trkpt lat="45.58163" lon="6.62618">
        <ele>2110.8000488281</ele>
        <time>2019-12-30T09:54:29.000Z</time>
      </trkpt>
      <trkpt lat="45.58164" lon="6.62611">
        <ele>2111.6000976562</ele>
        <time>2019-12-30T09:54:36.000Z</time>
      </trkpt>
      <trkpt lat="45.58164" lon="6.6261">
        <ele>2111.8000488281</ele>
        <time>2019-12-30T09:54:37.000Z</time>
      </trkpt>
      <trkpt lat="45.58165" lon="6.62604">
        <ele>2113</ele>
        <time>2019-12-30T09:54:42.000Z</time>
      </trkpt>
      <trkpt lat="45.58166" lon="6.62598">
        <ele>2114</ele>
        <time>2019-12-30T09:54:47.000Z</time>
      </trkpt>
      <trkpt lat="45.58168" lon="6.62592">
        <ele>2114.6000976562</ele>
        <time>2019-12-30T09:54:52.000Z</time>
      </trkpt>
      <trkpt lat="45.58169" lon="6.62588">
        <ele>2115</ele>
        <time>2019-12-30T09:54:55.000Z</time>
      </trkpt>
      <trkpt lat="45.5817" lon="6.62584">
        <ele>2115.6000976562</ele>
        <time>2019-12-30T09:54:58.000Z</time>
      </trkpt>
      <trkpt lat="45.5817" lon="6.62582">
        <ele>2116</ele>
        <time>2019-12-30T09:55:01.000Z</time>
      </trkpt>
      <trkpt lat="45.5817" lon="6.62579">
        <ele>2116.3999023438</ele>
        <time>2019-12-30T09:55:03.000Z</time>
      </trkpt>
      <trkpt lat="45.58171" lon="6.62575">
        <ele>2117</ele>
        <time>2019-12-30T09:55:06.000Z</time>
      </trkpt>
      <trkpt lat="45.58172" lon="6.62574">
        <ele>2117.1999511719</ele>
        <time>2019-12-30T09:55:07.000Z</time>
      </trkpt>
      <trkpt lat="45.58172" lon="6.62571">
        <ele>2117.6000976562</ele>
        <time>2019-12-30T09:55:09.000Z</time>
      </trkpt>
      <trkpt lat="45.58172" lon="6.6257">
        <ele>2118.1999511719</ele>
        <time>2019-12-30T09:55:12.000Z</time>
      </trkpt>
      <trkpt lat="45.58173" lon="6.62567">
        <ele>2118.3999023438</ele>
        <time>2019-12-30T09:55:15.000Z</time>
      </trkpt>
      <trkpt lat="45.58174" lon="6.62564">
        <ele>2119.1999511719</ele>
        <time>2019-12-30T09:55:19.000Z</time>
      </trkpt>
      <trkpt lat="45.58174" lon="6.62562">
        <ele>2119.6000976562</ele>
        <time>2019-12-30T09:55:21.000Z</time>
      </trkpt>
      <trkpt lat="45.58175" lon="6.6256">
        <ele>2120</ele>
        <time>2019-12-30T09:55:23.000Z</time>
      </trkpt>
      <trkpt lat="45.58176" lon="6.62558">
        <ele>2120.1999511719</ele>
        <time>2019-12-30T09:55:26.000Z</time>
      </trkpt>
      <trkpt lat="45.58179" lon="6.62552">
        <ele>2121</ele>
        <time>2019-12-30T09:55:31.000Z</time>
      </trkpt>
      <trkpt lat="45.58181" lon="6.62546">
        <ele>2121.1999511719</ele>
        <time>2019-12-30T09:55:36.000Z</time>
      </trkpt>
      <trkpt lat="45.58183" lon="6.62542">
        <ele>2121.3999023438</ele>
        <time>2019-12-30T09:55:39.000Z</time>
      </trkpt>
      <trkpt lat="45.58184" lon="6.6254">
        <ele>2121.3999023438</ele>
        <time>2019-12-30T09:55:42.000Z</time>
      </trkpt>
      <trkpt lat="45.58187" lon="6.62534">
        <ele>2121.6000976562</ele>
        <time>2019-12-30T09:55:47.000Z</time>
      </trkpt>
      <trkpt lat="45.58187" lon="6.62529">
        <ele>2122.3999023438</ele>
        <time>2019-12-30T09:55:51.000Z</time>
      </trkpt>
      <trkpt lat="45.58187" lon="6.62527">
        <ele>2122.8000488281</ele>
        <time>2019-12-30T09:55:53.000Z</time>
      </trkpt>
      <trkpt lat="45.58187" lon="6.62524">
        <ele>2123.3999023438</ele>
        <time>2019-12-30T09:55:56.000Z</time>
      </trkpt>
      <trkpt lat="45.58188" lon="6.62521">
        <ele>2123.8000488281</ele>
        <time>2019-12-30T09:55:59.000Z</time>
      </trkpt>
      <trkpt lat="45.58189" lon="6.62519">
        <ele>2124.3999023438</ele>
        <time>2019-12-30T09:56:04.000Z</time>
      </trkpt>
      <trkpt lat="45.58189" lon="6.62518">
        <ele>2124.6000976562</ele>
        <time>2019-12-30T09:56:05.000Z</time>
      </trkpt>
      <trkpt lat="45.5819" lon="6.62513">
        <ele>2125.3999023438</ele>
        <time>2019-12-30T09:56:10.000Z</time>
      </trkpt>
      <trkpt lat="45.5819" lon="6.62512">
        <ele>2125.6000976562</ele>
        <time>2019-12-30T09:56:11.000Z</time>
      </trkpt>
      <trkpt lat="45.5819" lon="6.62507">
        <ele>2126.1999511719</ele>
        <time>2019-12-30T09:56:16.000Z</time>
      </trkpt>
      <trkpt lat="45.58191" lon="6.62505">
        <ele>2126.3999023438</ele>
        <time>2019-12-30T09:56:17.000Z</time>
      </trkpt>
      <trkpt lat="45.5819" lon="6.62501">
        <ele>2127.3999023438</ele>
        <time>2019-12-30T09:56:21.000Z</time>
      </trkpt>
      <trkpt lat="45.5819" lon="6.625">
        <ele>2127.6000976562</ele>
        <time>2019-12-30T09:56:22.000Z</time>
      </trkpt>
      <trkpt lat="45.58191" lon="6.62497">
        <ele>2128.3999023438</ele>
        <time>2019-12-30T09:56:27.000Z</time>
      </trkpt>
      <trkpt lat="45.58192" lon="6.62494">
        <ele>2128.6000976562</ele>
        <time>2019-12-30T09:56:30.000Z</time>
      </trkpt>
      <trkpt lat="45.58193" lon="6.62491">
        <ele>2129.1999511719</ele>
        <time>2019-12-30T09:56:33.000Z</time>
      </trkpt>
      <trkpt lat="45.58193" lon="6.6249">
        <ele>2129.6000976562</ele>
        <time>2019-12-30T09:56:36.000Z</time>
      </trkpt>
      <trkpt lat="45.58194" lon="6.62487">
        <ele>2130</ele>
        <time>2019-12-30T09:56:38.000Z</time>
      </trkpt>
      <trkpt lat="45.58194" lon="6.62483">
        <ele>2130.6000976562</ele>
        <time>2019-12-30T09:56:41.000Z</time>
      </trkpt>
      <trkpt lat="45.58194" lon="6.62481">
        <ele>2131</ele>
        <time>2019-12-30T09:56:43.000Z</time>
      </trkpt>
      <trkpt lat="45.58194" lon="6.62477">
        <ele>2131.8000488281</ele>
        <time>2019-12-30T09:56:47.000Z</time>
      </trkpt>
      <trkpt lat="45.58194" lon="6.62477">
        <ele>2132</ele>
        <time>2019-12-30T09:56:48.000Z</time>
      </trkpt>
      <trkpt lat="45.58195" lon="6.62475">
        <ele>2132.1999511719</ele>
        <time>2019-12-30T09:56:49.000Z</time>
      </trkpt>
      <trkpt lat="45.58195" lon="6.62472">
        <ele>2132.8000488281</ele>
        <time>2019-12-30T09:56:52.000Z</time>
      </trkpt>
      <trkpt lat="45.58196" lon="6.62468">
        <ele>2133.6000976562</ele>
        <time>2019-12-30T09:56:57.000Z</time>
      </trkpt>
      <trkpt lat="45.58197" lon="6.62466">
        <ele>2134</ele>
        <time>2019-12-30T09:56:59.000Z</time>
      </trkpt>
      <trkpt lat="45.58197" lon="6.62463">
        <ele>2134.1999511719</ele>
        <time>2019-12-30T09:57:01.000Z</time>
      </trkpt>
      <trkpt lat="45.58198" lon="6.6246">
        <ele>2135</ele>
        <time>2019-12-30T09:57:05.000Z</time>
      </trkpt>
      <trkpt lat="45.58198" lon="6.62459">
        <ele>2135.1999511719</ele>
        <time>2019-12-30T09:57:06.000Z</time>
      </trkpt>
      <trkpt lat="45.58199" lon="6.62455">
        <ele>2136</ele>
        <time>2019-12-30T09:57:10.000Z</time>
      </trkpt>
      <trkpt lat="45.58199" lon="6.62453">
        <ele>2136.1999511719</ele>
        <time>2019-12-30T09:57:11.000Z</time>
      </trkpt>
      <trkpt lat="45.58199" lon="6.6245">
        <ele>2137</ele>
        <time>2019-12-30T09:57:16.000Z</time>
      </trkpt>
      <trkpt lat="45.582" lon="6.62448">
        <ele>2137.1999511719</ele>
        <time>2019-12-30T09:57:17.000Z</time>
      </trkpt>
      <trkpt lat="45.58201" lon="6.62445">
        <ele>2137.6000976562</ele>
        <time>2019-12-30T09:57:20.000Z</time>
      </trkpt>
      <trkpt lat="45.58201" lon="6.62444">
        <ele>2137.6000976562</ele>
        <time>2019-12-30T09:57:21.000Z</time>
      </trkpt>
      <trkpt lat="45.58201" lon="6.6244">
        <ele>2138.1999511719</ele>
        <time>2019-12-30T09:57:24.000Z</time>
      </trkpt>
      <trkpt lat="45.58202" lon="6.62437">
        <ele>2138.8000488281</ele>
        <time>2019-12-30T09:57:27.000Z</time>
      </trkpt>
      <trkpt lat="45.58202" lon="6.62437">
        <ele>2139.1999511719</ele>
        <time>2019-12-30T09:57:30.000Z</time>
      </trkpt>
      <trkpt lat="45.58202" lon="6.62436">
        <ele>2139.3999023438</ele>
        <time>2019-12-30T09:57:31.000Z</time>
      </trkpt>
      <trkpt lat="45.58203" lon="6.6243">
        <ele>2140.1999511719</ele>
        <time>2019-12-30T09:57:36.000Z</time>
      </trkpt>
      <trkpt lat="45.58203" lon="6.6243">
        <ele>2140.3999023438</ele>
        <time>2019-12-30T09:57:37.000Z</time>
      </trkpt>
      <trkpt lat="45.58203" lon="6.62427">
        <ele>2140.8000488281</ele>
        <time>2019-12-30T09:57:40.000Z</time>
      </trkpt>
      <trkpt lat="45.58204" lon="6.62425">
        <ele>2141</ele>
        <time>2019-12-30T09:57:41.000Z</time>
      </trkpt>
      <trkpt lat="45.58204" lon="6.62423">
        <ele>2141.3999023438</ele>
        <time>2019-12-30T09:57:44.000Z</time>
      </trkpt>
      <trkpt lat="45.58206" lon="6.62418">
        <ele>2142.1999511719</ele>
        <time>2019-12-30T09:57:49.000Z</time>
      </trkpt>
      <trkpt lat="45.58207" lon="6.62416">
        <ele>2142.3999023438</ele>
        <time>2019-12-30T09:57:51.000Z</time>
      </trkpt>
      <trkpt lat="45.58207" lon="6.62414">
        <ele>2142.8000488281</ele>
        <time>2019-12-30T09:57:53.000Z</time>
      </trkpt>
      <trkpt lat="45.58208" lon="6.62412">
        <ele>2143</ele>
        <time>2019-12-30T09:57:54.000Z</time>
      </trkpt>
      <trkpt lat="45.5821" lon="6.6241">
        <ele>2143.3999023438</ele>
        <time>2019-12-30T09:57:56.000Z</time>
      </trkpt>
      <trkpt lat="45.58211" lon="6.62408">
        <ele>2143.6000976562</ele>
        <time>2019-12-30T09:57:58.000Z</time>
      </trkpt>
      <trkpt lat="45.58212" lon="6.62403">
        <ele>2144.3999023438</ele>
        <time>2019-12-30T09:58:03.000Z</time>
      </trkpt>
      <trkpt lat="45.58213" lon="6.624">
        <ele>2144.6000976562</ele>
        <time>2019-12-30T09:58:05.000Z</time>
      </trkpt>
      <trkpt lat="45.58215" lon="6.62396">
        <ele>2145</ele>
        <time>2019-12-30T09:58:08.000Z</time>
      </trkpt>
      <trkpt lat="45.58217" lon="6.62393">
        <ele>2145.8000488281</ele>
        <time>2019-12-30T09:58:13.000Z</time>
      </trkpt>
      <trkpt lat="45.58218" lon="6.62392">
        <ele>2145.8000488281</ele>
        <time>2019-12-30T09:58:14.000Z</time>
      </trkpt>
      <trkpt lat="45.5822" lon="6.62387">
        <ele>2146.6000976562</ele>
        <time>2019-12-30T09:58:21.000Z</time>
      </trkpt>
      <trkpt lat="45.58221" lon="6.62384">
        <ele>2146.8000488281</ele>
        <time>2019-12-30T09:58:23.000Z</time>
      </trkpt>
      <trkpt lat="45.58222" lon="6.62382">
        <ele>2147.1999511719</ele>
        <time>2019-12-30T09:58:26.000Z</time>
      </trkpt>
      <trkpt lat="45.58225" lon="6.62377">
        <ele>2147.6000976562</ele>
        <time>2019-12-30T09:58:31.000Z</time>
      </trkpt>
      <trkpt lat="45.58228" lon="6.62372">
        <ele>2148</ele>
        <time>2019-12-30T09:58:36.000Z</time>
      </trkpt>
      <trkpt lat="45.58229" lon="6.6237">
        <ele>2148</ele>
        <time>2019-12-30T09:58:37.000Z</time>
      </trkpt>
      <trkpt lat="45.58235" lon="6.62361">
        <ele>2149</ele>
        <time>2019-12-30T09:58:44.000Z</time>
      </trkpt>
      <trkpt lat="45.58239" lon="6.62356">
        <ele>2149.8000488281</ele>
        <time>2019-12-30T09:58:49.000Z</time>
      </trkpt>
      <trkpt lat="45.5824" lon="6.62353">
        <ele>2150</ele>
        <time>2019-12-30T09:58:52.000Z</time>
      </trkpt>
      <trkpt lat="45.58242" lon="6.6235">
        <ele>2150.3999023438</ele>
        <time>2019-12-30T09:58:54.000Z</time>
      </trkpt>
      <trkpt lat="45.58246" lon="6.62345">
        <ele>2151</ele>
        <time>2019-12-30T09:58:59.000Z</time>
      </trkpt>
      <trkpt lat="45.58246" lon="6.62345">
        <ele>2151.1999511719</ele>
        <time>2019-12-30T09:59:00.000Z</time>
      </trkpt>
      <trkpt lat="45.58248" lon="6.6234">
        <ele>2152</ele>
        <time>2019-12-30T09:59:04.000Z</time>
      </trkpt>
      <trkpt lat="45.58249" lon="6.62339">
        <ele>2152</ele>
        <time>2019-12-30T09:59:05.000Z</time>
      </trkpt>
      <trkpt lat="45.5825" lon="6.62338">
        <ele>2152.3999023438</ele>
        <time>2019-12-30T09:59:06.000Z</time>
      </trkpt>
      <trkpt lat="45.58251" lon="6.62333">
        <ele>2152.8000488281</ele>
        <time>2019-12-30T09:59:10.000Z</time>
      </trkpt>
      <trkpt lat="45.58253" lon="6.6233">
        <ele>2153.3999023438</ele>
        <time>2019-12-30T09:59:13.000Z</time>
      </trkpt>
      <trkpt lat="45.58253" lon="6.62327">
        <ele>2154</ele>
        <time>2019-12-30T09:59:16.000Z</time>
      </trkpt>
      <trkpt lat="45.58253" lon="6.62326">
        <ele>2154.6000976562</ele>
        <time>2019-12-30T09:59:19.000Z</time>
      </trkpt>
      <trkpt lat="45.58253" lon="6.62325">
        <ele>2154.6000976562</ele>
        <time>2019-12-30T09:59:20.000Z</time>
      </trkpt>
      <trkpt lat="45.58253" lon="6.62321">
        <ele>2155.1999511719</ele>
        <time>2019-12-30T09:59:23.000Z</time>
      </trkpt>
      <trkpt lat="45.58254" lon="6.6232">
        <ele>2155.6000976562</ele>
        <time>2019-12-30T09:59:25.000Z</time>
      </trkpt>
      <trkpt lat="45.58255" lon="6.62316">
        <ele>2156</ele>
        <time>2019-12-30T09:59:28.000Z</time>
      </trkpt>
      <trkpt lat="45.58256" lon="6.62315">
        <ele>2156.8000488281</ele>
        <time>2019-12-30T09:59:30.000Z</time>
      </trkpt>
      <trkpt lat="45.58256" lon="6.62311">
        <ele>2157.3999023438</ele>
        <time>2019-12-30T09:59:33.000Z</time>
      </trkpt>
      <trkpt lat="45.58257" lon="6.62308">
        <ele>2157.8000488281</ele>
        <time>2019-12-30T09:59:36.000Z</time>
      </trkpt>
      <trkpt lat="45.58258" lon="6.62306">
        <ele>2158.3999023438</ele>
        <time>2019-12-30T09:59:39.000Z</time>
      </trkpt>
      <trkpt lat="45.58259" lon="6.62302">
        <ele>2159</ele>
        <time>2019-12-30T09:59:43.000Z</time>
      </trkpt>
      <trkpt lat="45.58262" lon="6.62298">
        <ele>2160.1999511719</ele>
        <time>2019-12-30T09:59:48.000Z</time>
      </trkpt>
      <trkpt lat="45.58263" lon="6.62295">
        <ele>2161.1999511719</ele>
        <time>2019-12-30T09:59:54.000Z</time>
      </trkpt>
      <trkpt lat="45.58264" lon="6.62294">
        <ele>2161.3999023438</ele>
        <time>2019-12-30T09:59:55.000Z</time>
      </trkpt>
      <trkpt lat="45.58266" lon="6.62289">
        <ele>2162</ele>
        <time>2019-12-30T10:00:00.000Z</time>
      </trkpt>
      <trkpt lat="45.58267" lon="6.62286">
        <ele>2162.6000976562</ele>
        <time>2019-12-30T10:00:03.000Z</time>
      </trkpt>
      <trkpt lat="45.58268" lon="6.62283">
        <ele>2163</ele>
        <time>2019-12-30T10:00:05.000Z</time>
      </trkpt>
      <trkpt lat="45.5827" lon="6.6228">
        <ele>2163.6000976562</ele>
        <time>2019-12-30T10:00:08.000Z</time>
      </trkpt>
      <trkpt lat="45.58271" lon="6.62278">
        <ele>2164</ele>
        <time>2019-12-30T10:00:11.000Z</time>
      </trkpt>
      <trkpt lat="45.58272" lon="6.62274">
        <ele>2164.8000488281</ele>
        <time>2019-12-30T10:00:16.000Z</time>
      </trkpt>
      <trkpt lat="45.58273" lon="6.62271">
        <ele>2165.3999023438</ele>
        <time>2019-12-30T10:00:18.000Z</time>
      </trkpt>
      <trkpt lat="45.58274" lon="6.62267">
        <ele>2166</ele>
        <time>2019-12-30T10:00:22.000Z</time>
      </trkpt>
      <trkpt lat="45.58274" lon="6.62266">
        <ele>2166.1999511719</ele>
        <time>2019-12-30T10:00:23.000Z</time>
      </trkpt>
      <trkpt lat="45.58276" lon="6.6226">
        <ele>2167</ele>
        <time>2019-12-30T10:00:29.000Z</time>
      </trkpt>
      <trkpt lat="45.58276" lon="6.6226">
        <ele>2167.1999511719</ele>
        <time>2019-12-30T10:00:30.000Z</time>
      </trkpt>
      <trkpt lat="45.58277" lon="6.62255">
        <ele>2168.1999511719</ele>
        <time>2019-12-30T10:00:35.000Z</time>
      </trkpt>
      <trkpt lat="45.58279" lon="6.62252">
        <ele>2168.8000488281</ele>
        <time>2019-12-30T10:00:40.000Z</time>
      </trkpt>
      <trkpt lat="45.58279" lon="6.6225">
        <ele>2169.6000976562</ele>
        <time>2019-12-30T10:00:42.000Z</time>
      </trkpt>
      <trkpt lat="45.58281" lon="6.62246">
        <ele>2170</ele>
        <time>2019-12-30T10:00:45.000Z</time>
      </trkpt>
      <trkpt lat="45.58281" lon="6.62242">
        <ele>2170.6000976562</ele>
        <time>2019-12-30T10:00:49.000Z</time>
      </trkpt>
      <trkpt lat="45.58282" lon="6.62239">
        <ele>2171.8000488281</ele>
        <time>2019-12-30T10:00:53.000Z</time>
      </trkpt>
      <trkpt lat="45.58284" lon="6.62234">
        <ele>2172.6000976562</ele>
        <time>2019-12-30T10:00:58.000Z</time>
      </trkpt>
      <trkpt lat="45.58284" lon="6.62233">
        <ele>2172.8000488281</ele>
        <time>2019-12-30T10:01:00.000Z</time>
      </trkpt>
      <trkpt lat="45.58284" lon="6.62232">
        <ele>2173.3999023438</ele>
        <time>2019-12-30T10:01:03.000Z</time>
      </trkpt>
      <trkpt lat="45.58285" lon="6.62229">
        <ele>2174</ele>
        <time>2019-12-30T10:01:06.000Z</time>
      </trkpt>
      <trkpt lat="45.58286" lon="6.62228">
        <ele>2174.1999511719</ele>
        <time>2019-12-30T10:01:08.000Z</time>
      </trkpt>
      <trkpt lat="45.58286" lon="6.62228">
        <ele>2175</ele>
        <time>2019-12-30T10:01:12.000Z</time>
      </trkpt>
      <trkpt lat="45.58286" lon="6.62229">
        <ele>2175.1999511719</ele>
        <time>2019-12-30T10:01:16.000Z</time>
      </trkpt>
      <trkpt lat="45.5829" lon="6.62232">
        <ele>2176.1999511719</ele>
        <time>2019-12-30T10:01:21.000Z</time>
      </trkpt>
      <trkpt lat="45.5829" lon="6.62232">
        <ele>2176.1999511719</ele>
        <time>2019-12-30T10:01:22.000Z</time>
      </trkpt>
      <trkpt lat="45.58291" lon="6.62234">
        <ele>2176.8000488281</ele>
        <time>2019-12-30T10:01:26.000Z</time>
      </trkpt>
      <trkpt lat="45.58292" lon="6.62237">
        <ele>2177.1999511719</ele>
        <time>2019-12-30T10:01:29.000Z</time>
      </trkpt>
      <trkpt lat="45.58293" lon="6.62239">
        <ele>2177.8000488281</ele>
        <time>2019-12-30T10:01:31.000Z</time>
      </trkpt>
      <trkpt lat="45.58294" lon="6.6224">
        <ele>2178.3999023438</ele>
        <time>2019-12-30T10:01:34.000Z</time>
      </trkpt>
      <trkpt lat="45.58295" lon="6.62243">
        <ele>2178.8000488281</ele>
        <time>2019-12-30T10:01:37.000Z</time>
      </trkpt>
      <trkpt lat="45.58296" lon="6.62244">
        <ele>2179.3999023438</ele>
        <time>2019-12-30T10:01:40.000Z</time>
      </trkpt>
      <trkpt lat="45.58296" lon="6.62245">
        <ele>2179.8000488281</ele>
        <time>2019-12-30T10:01:42.000Z</time>
      </trkpt>
      <trkpt lat="45.58299" lon="6.62241">
        <ele>2180</ele>
        <time>2019-12-30T10:01:47.000Z</time>
      </trkpt>
      <trkpt lat="45.583" lon="6.62239">
        <ele>2180.6000976562</ele>
        <time>2019-12-30T10:01:50.000Z</time>
      </trkpt>
      <trkpt lat="45.58302" lon="6.62237">
        <ele>2181.1999511719</ele>
        <time>2019-12-30T10:01:53.000Z</time>
      </trkpt>
      <trkpt lat="45.58303" lon="6.62237">
        <ele>2181.6000976562</ele>
        <time>2019-12-30T10:01:55.000Z</time>
      </trkpt>
      <trkpt lat="45.58304" lon="6.62235">
        <ele>2182</ele>
        <time>2019-12-30T10:01:58.000Z</time>
      </trkpt>
      <trkpt lat="45.58307" lon="6.62231">
        <ele>2182.6000976562</ele>
        <time>2019-12-30T10:02:03.000Z</time>
      </trkpt>
      <trkpt lat="45.58307" lon="6.6223">
        <ele>2182.8000488281</ele>
        <time>2019-12-30T10:02:04.000Z</time>
      </trkpt>
      <trkpt lat="45.58307" lon="6.62227">
        <ele>2183.3999023438</ele>
        <time>2019-12-30T10:02:08.000Z</time>
      </trkpt>
      <trkpt lat="45.58307" lon="6.62223">
        <ele>2183.8000488281</ele>
        <time>2019-12-30T10:02:11.000Z</time>
      </trkpt>
      <trkpt lat="45.58308" lon="6.62222">
        <ele>2184</ele>
        <time>2019-12-30T10:02:12.000Z</time>
      </trkpt>
      <trkpt lat="45.58308" lon="6.62222">
        <ele>2184.1999511719</ele>
        <time>2019-12-30T10:02:13.000Z</time>
      </trkpt>
      <trkpt lat="45.58309" lon="6.6222">
        <ele>2184.6000976562</ele>
        <time>2019-12-30T10:02:17.000Z</time>
      </trkpt>
      <trkpt lat="45.58309" lon="6.6222">
        <ele>2184.8000488281</ele>
        <time>2019-12-30T10:02:18.000Z</time>
      </trkpt>
      <trkpt lat="45.58312" lon="6.62223">
        <ele>2186.1999511719</ele>
        <time>2019-12-30T10:02:22.000Z</time>
      </trkpt>
      <trkpt lat="45.58314" lon="6.62224">
        <ele>2187</ele>
        <time>2019-12-30T10:02:24.000Z</time>
      </trkpt>
      <trkpt lat="45.58315" lon="6.62225">
        <ele>2187.3999023438</ele>
        <time>2019-12-30T10:02:26.000Z</time>
      </trkpt>
      <trkpt lat="45.58314" lon="6.62225">
        <ele>2187.3999023438</ele>
        <time>2019-12-30T10:02:28.000Z</time>
      </trkpt>
      <trkpt lat="45.58316" lon="6.62229">
        <ele>2188.1999511719</ele>
        <time>2019-12-30T10:02:34.000Z</time>
      </trkpt>
      <trkpt lat="45.58316" lon="6.6223">
        <ele>2188.3999023438</ele>
        <time>2019-12-30T10:02:35.000Z</time>
      </trkpt>
      <trkpt lat="45.58317" lon="6.62231">
        <ele>2189.1999511719</ele>
        <time>2019-12-30T10:02:40.000Z</time>
      </trkpt>
      <trkpt lat="45.58318" lon="6.62234">
        <ele>2189.6000976562</ele>
        <time>2019-12-30T10:02:43.000Z</time>
      </trkpt>
      <trkpt lat="45.58318" lon="6.62236">
        <ele>2190</ele>
        <time>2019-12-30T10:02:46.000Z</time>
      </trkpt>
      <trkpt lat="45.58318" lon="6.62236">
        <ele>2190</ele>
        <time>2019-12-30T10:02:52.000Z</time>
      </trkpt>
      <trkpt lat="45.58318" lon="6.62233">
        <ele>2190</ele>
        <time>2019-12-30T10:03:03.000Z</time>
      </trkpt>
      <trkpt lat="45.58321" lon="6.6223">
        <ele>2190.6000976562</ele>
        <time>2019-12-30T10:03:08.000Z</time>
      </trkpt>
      <trkpt lat="45.58324" lon="6.62226">
        <ele>2191.6000976562</ele>
        <time>2019-12-30T10:03:13.000Z</time>
      </trkpt>
      <trkpt lat="45.58325" lon="6.62225">
        <ele>2191.8000488281</ele>
        <time>2019-12-30T10:03:14.000Z</time>
      </trkpt>
      <trkpt lat="45.58326" lon="6.62222">
        <ele>2192.3999023438</ele>
        <time>2019-12-30T10:03:18.000Z</time>
      </trkpt>
      <trkpt lat="45.58327" lon="6.62221">
        <ele>2192.8000488281</ele>
        <time>2019-12-30T10:03:20.000Z</time>
      </trkpt>
      <trkpt lat="45.58328" lon="6.62219">
        <ele>2193.3999023438</ele>
        <time>2019-12-30T10:03:23.000Z</time>
      </trkpt>
      <trkpt lat="45.58328" lon="6.62219">
        <ele>2194</ele>
        <time>2019-12-30T10:03:27.000Z</time>
      </trkpt>
      <trkpt lat="45.58328" lon="6.62219">
        <ele>2195</ele>
        <time>2019-12-30T10:03:33.000Z</time>
      </trkpt>
      <trkpt lat="45.58328" lon="6.6222">
        <ele>2195</ele>
        <time>2019-12-30T10:03:41.000Z</time>
      </trkpt>
      <trkpt lat="45.58331" lon="6.62224">
        <ele>2194.8000488281</ele>
        <time>2019-12-30T10:03:46.000Z</time>
      </trkpt>
      <trkpt lat="45.58331" lon="6.62225">
        <ele>2195.3999023438</ele>
        <time>2019-12-30T10:03:48.000Z</time>
      </trkpt>
      <trkpt lat="45.58331" lon="6.62226">
        <ele>2195.8000488281</ele>
        <time>2019-12-30T10:03:51.000Z</time>
      </trkpt>
      <trkpt lat="45.58331" lon="6.62227">
        <ele>2196.3999023438</ele>
        <time>2019-12-30T10:03:54.000Z</time>
      </trkpt>
      <trkpt lat="45.58332" lon="6.62229">
        <ele>2196.8000488281</ele>
        <time>2019-12-30T10:03:56.000Z</time>
      </trkpt>
      <trkpt lat="45.58334" lon="6.62228">
        <ele>2197.3999023438</ele>
        <time>2019-12-30T10:04:01.000Z</time>
      </trkpt>
      <trkpt lat="45.58334" lon="6.62228">
        <ele>2197.3999023438</ele>
        <time>2019-12-30T10:04:02.000Z</time>
      </trkpt>
      <trkpt lat="45.58338" lon="6.62225">
        <ele>2198</ele>
        <time>2019-12-30T10:04:06.000Z</time>
      </trkpt>
      <trkpt lat="45.58339" lon="6.62224">
        <ele>2198.3999023438</ele>
        <time>2019-12-30T10:04:08.000Z</time>
      </trkpt>
      <trkpt lat="45.58339" lon="6.62223">
        <ele>2198.8000488281</ele>
        <time>2019-12-30T10:04:10.000Z</time>
      </trkpt>
      <trkpt lat="45.58342" lon="6.62221">
        <ele>2199.3999023438</ele>
        <time>2019-12-30T10:04:14.000Z</time>
      </trkpt>
      <trkpt lat="45.58343" lon="6.6222">
        <ele>2199.6000976562</ele>
        <time>2019-12-30T10:04:15.000Z</time>
      </trkpt>
      <trkpt lat="45.58345" lon="6.62217">
        <ele>2200.6000976562</ele>
        <time>2019-12-30T10:04:19.000Z</time>
      </trkpt>
      <trkpt lat="45.58346" lon="6.62216">
        <ele>2200.8000488281</ele>
        <time>2019-12-30T10:04:20.000Z</time>
      </trkpt>
      <trkpt lat="45.58349" lon="6.62213">
        <ele>2201.6000976562</ele>
        <time>2019-12-30T10:04:25.000Z</time>
      </trkpt>
      <trkpt lat="45.5835" lon="6.62212">
        <ele>2201.8000488281</ele>
        <time>2019-12-30T10:04:26.000Z</time>
      </trkpt>
      <trkpt lat="45.5835" lon="6.6221">
        <ele>2202.3999023438</ele>
        <time>2019-12-30T10:04:30.000Z</time>
      </trkpt>
      <trkpt lat="45.58352" lon="6.62209">
        <ele>2203</ele>
        <time>2019-12-30T10:04:34.000Z</time>
      </trkpt>
      <trkpt lat="45.58352" lon="6.6221">
        <ele>2203.1999511719</ele>
        <time>2019-12-30T10:04:35.000Z</time>
      </trkpt>
      <trkpt lat="45.58354" lon="6.62214">
        <ele>2204</ele>
        <time>2019-12-30T10:04:39.000Z</time>
      </trkpt>
      <trkpt lat="45.58354" lon="6.62218">
        <ele>2205.1999511719</ele>
        <time>2019-12-30T10:04:44.000Z</time>
      </trkpt>
      <trkpt lat="45.58354" lon="6.62219">
        <ele>2205.1999511719</ele>
        <time>2019-12-30T10:04:45.000Z</time>
      </trkpt>
      <trkpt lat="45.58354" lon="6.62223">
        <ele>2206</ele>
        <time>2019-12-30T10:04:50.000Z</time>
      </trkpt>
      <trkpt lat="45.58354" lon="6.62226">
        <ele>2206.1999511719</ele>
        <time>2019-12-30T10:04:52.000Z</time>
      </trkpt>
      <trkpt lat="45.58353" lon="6.62228">
        <ele>2206.6000976562</ele>
        <time>2019-12-30T10:04:55.000Z</time>
      </trkpt>
      <trkpt lat="45.58353" lon="6.62227">
        <ele>2207.3999023438</ele>
        <time>2019-12-30T10:04:59.000Z</time>
      </trkpt>
      <trkpt lat="45.58355" lon="6.62225">
        <ele>2207.3999023438</ele>
        <time>2019-12-30T10:05:01.000Z</time>
      </trkpt>
      <trkpt lat="45.58358" lon="6.62222">
        <ele>2207.3999023438</ele>
        <time>2019-12-30T10:05:05.000Z</time>
      </trkpt>
      <trkpt lat="45.5836" lon="6.62218">
        <ele>2208.3999023438</ele>
        <time>2019-12-30T10:05:09.000Z</time>
      </trkpt>
      <trkpt lat="45.58362" lon="6.62216">
        <ele>2208.8000488281</ele>
        <time>2019-12-30T10:05:12.000Z</time>
      </trkpt>
      <trkpt lat="45.58365" lon="6.62211">
        <ele>2209.6000976562</ele>
        <time>2019-12-30T10:05:17.000Z</time>
      </trkpt>
      <trkpt lat="45.58365" lon="6.62211">
        <ele>2209.8000488281</ele>
        <time>2019-12-30T10:05:18.000Z</time>
      </trkpt>
      <trkpt lat="45.58365" lon="6.62209">
        <ele>2210</ele>
        <time>2019-12-30T10:05:19.000Z</time>
      </trkpt>
      <trkpt lat="45.58365" lon="6.62208">
        <ele>2210.8000488281</ele>
        <time>2019-12-30T10:05:22.000Z</time>
      </trkpt>
      <trkpt lat="45.58366" lon="6.62203">
        <ele>2211.8000488281</ele>
        <time>2019-12-30T10:05:28.000Z</time>
      </trkpt>
      <trkpt lat="45.58366" lon="6.62203">
        <ele>2212.6000976562</ele>
        <time>2019-12-30T10:05:36.000Z</time>
      </trkpt>
      <trkpt lat="45.58366" lon="6.62203">
        <ele>2212.8000488281</ele>
        <time>2019-12-30T10:05:37.000Z</time>
      </trkpt>
      <trkpt lat="45.58369" lon="6.62207">
        <ele>2213.8000488281</ele>
        <time>2019-12-30T10:05:43.000Z</time>
      </trkpt>
      <trkpt lat="45.58369" lon="6.62207">
        <ele>2214</ele>
        <time>2019-12-30T10:05:44.000Z</time>
      </trkpt>
      <trkpt lat="45.58371" lon="6.62212">
        <ele>2214.1999511719</ele>
        <time>2019-12-30T10:05:48.000Z</time>
      </trkpt>
      <trkpt lat="45.58373" lon="6.62213">
        <ele>2214.8000488281</ele>
        <time>2019-12-30T10:05:52.000Z</time>
      </trkpt>
      <trkpt lat="45.58373" lon="6.62213">
        <ele>2215.1999511719</ele>
        <time>2019-12-30T10:05:53.000Z</time>
      </trkpt>
      <trkpt lat="45.58375" lon="6.62215">
        <ele>2216.1999511719</ele>
        <time>2019-12-30T10:05:58.000Z</time>
      </trkpt>
      <trkpt lat="45.58375" lon="6.62215">
        <ele>2216.3999023438</ele>
        <time>2019-12-30T10:06:06.000Z</time>
      </trkpt>
      <trkpt lat="45.58375" lon="6.62215">
        <ele>2216.1999511719</ele>
        <time>2019-12-30T10:06:16.000Z</time>
      </trkpt>
      <trkpt lat="45.58375" lon="6.62215">
        <ele>2216.3999023438</ele>
        <time>2019-12-30T10:06:22.000Z</time>
      </trkpt>
      <trkpt lat="45.58377" lon="6.62213">
        <ele>2216.6000976562</ele>
        <time>2019-12-30T10:06:29.000Z</time>
      </trkpt>
      <trkpt lat="45.58381" lon="6.6221">
        <ele>2217.3999023438</ele>
        <time>2019-12-30T10:06:35.000Z</time>
      </trkpt>
      <trkpt lat="45.58384" lon="6.62208">
        <ele>2218.1999511719</ele>
        <time>2019-12-30T10:06:39.000Z</time>
      </trkpt>
      <trkpt lat="45.58385" lon="6.62208">
        <ele>2218.3999023438</ele>
        <time>2019-12-30T10:06:41.000Z</time>
      </trkpt>
      <trkpt lat="45.58385" lon="6.62207">
        <ele>2218.6000976562</ele>
        <time>2019-12-30T10:06:42.000Z</time>
      </trkpt>
      <trkpt lat="45.58387" lon="6.62206">
        <ele>2219.8000488281</ele>
        <time>2019-12-30T10:06:46.000Z</time>
      </trkpt>
      <trkpt lat="45.58389" lon="6.62204">
        <ele>2221</ele>
        <time>2019-12-30T10:06:50.000Z</time>
      </trkpt>
      <trkpt lat="45.58389" lon="6.62203">
        <ele>2221.3999023438</ele>
        <time>2019-12-30T10:06:52.000Z</time>
      </trkpt>
      <trkpt lat="45.5839" lon="6.62202">
        <ele>2222</ele>
        <time>2019-12-30T10:06:55.000Z</time>
      </trkpt>
      <trkpt lat="45.58391" lon="6.622">
        <ele>2222.6000976562</ele>
        <time>2019-12-30T10:06:58.000Z</time>
      </trkpt>
      <trkpt lat="45.58392" lon="6.62199">
        <ele>2223</ele>
        <time>2019-12-30T10:07:00.000Z</time>
      </trkpt>
      <trkpt lat="45.58396" lon="6.62196">
        <ele>2223.3999023438</ele>
        <time>2019-12-30T10:07:04.000Z</time>
      </trkpt>
      <trkpt lat="45.58397" lon="6.62194">
        <ele>2223.8000488281</ele>
        <time>2019-12-30T10:07:06.000Z</time>
      </trkpt>
      <trkpt lat="45.58398" lon="6.62193">
        <ele>2224.1999511719</ele>
        <time>2019-12-30T10:07:07.000Z</time>
      </trkpt>
      <trkpt lat="45.58399" lon="6.62192">
        <ele>2224.6000976562</ele>
        <time>2019-12-30T10:07:09.000Z</time>
      </trkpt>
      <trkpt lat="45.58401" lon="6.62188">
        <ele>2225.1999511719</ele>
        <time>2019-12-30T10:07:13.000Z</time>
      </trkpt>
      <trkpt lat="45.58402" lon="6.62188">
        <ele>2225.3999023438</ele>
        <time>2019-12-30T10:07:14.000Z</time>
      </trkpt>
      <trkpt lat="45.58405" lon="6.62185">
        <ele>2225.8000488281</ele>
        <time>2019-12-30T10:07:18.000Z</time>
      </trkpt>
      <trkpt lat="45.58405" lon="6.62184">
        <ele>2226.3999023438</ele>
        <time>2019-12-30T10:07:21.000Z</time>
      </trkpt>
      <trkpt lat="45.58405" lon="6.62183">
        <ele>2226.3999023438</ele>
        <time>2019-12-30T10:07:22.000Z</time>
      </trkpt>
      <trkpt lat="45.58406" lon="6.62175">
        <ele>2227.3999023438</ele>
        <time>2019-12-30T10:07:28.000Z</time>
      </trkpt>
      <trkpt lat="45.58405" lon="6.62175">
        <ele>2227.3999023438</ele>
        <time>2019-12-30T10:07:29.000Z</time>
      </trkpt>
      <trkpt lat="45.58408" lon="6.62171">
        <ele>2228.1999511719</ele>
        <time>2019-12-30T10:07:33.000Z</time>
      </trkpt>
      <trkpt lat="45.58409" lon="6.62169">
        <ele>2228.6000976562</ele>
        <time>2019-12-30T10:07:35.000Z</time>
      </trkpt>
      <trkpt lat="45.5841" lon="6.62167">
        <ele>2229</ele>
        <time>2019-12-30T10:07:38.000Z</time>
      </trkpt>
      <trkpt lat="45.58411" lon="6.62166">
        <ele>2229.1999511719</ele>
        <time>2019-12-30T10:07:40.000Z</time>
      </trkpt>
      <trkpt lat="45.58414" lon="6.62163">
        <ele>2229.1999511719</ele>
        <time>2019-12-30T10:07:45.000Z</time>
      </trkpt>
      <trkpt lat="45.58414" lon="6.62162">
        <ele>2228.8000488281</ele>
        <time>2019-12-30T10:07:51.000Z</time>
      </trkpt>
      <trkpt lat="45.58414" lon="6.62162">
        <ele>2229.1999511719</ele>
        <time>2019-12-30T10:08:06.000Z</time>
      </trkpt>
      <trkpt lat="45.58414" lon="6.62162">
        <ele>2229.3999023438</ele>
        <time>2019-12-30T10:08:22.000Z</time>
      </trkpt>
      <trkpt lat="45.58414" lon="6.62162">
        <ele>2229.3999023438</ele>
        <time>2019-12-30T10:08:36.000Z</time>
      </trkpt>
      <trkpt lat="45.58414" lon="6.62162">
        <ele>2229.3999023438</ele>
        <time>2019-12-30T10:08:50.000Z</time>
      </trkpt>
      <trkpt lat="45.58414" lon="6.62162">
        <ele>2229.3999023438</ele>
        <time>2019-12-30T10:09:05.000Z</time>
      </trkpt>
      <trkpt lat="45.58414" lon="6.62162">
        <ele>2229.3999023438</ele>
        <time>2019-12-30T10:09:17.000Z</time>
      </trkpt>
      <trkpt lat="45.58416" lon="6.62163">
        <ele>2229.3999023438</ele>
        <time>2019-12-30T10:09:23.000Z</time>
      </trkpt>
      <trkpt lat="45.58416" lon="6.62163">
        <ele>2229.6000976562</ele>
        <time>2019-12-30T10:09:37.000Z</time>
      </trkpt>
      <trkpt lat="45.58416" lon="6.62163">
        <ele>2229.6000976562</ele>
        <time>2019-12-30T10:09:41.000Z</time>
      </trkpt>
      <trkpt lat="45.58416" lon="6.62163">
        <ele>2229.6000976562</ele>
        <time>2019-12-30T10:09:52.000Z</time>
      </trkpt>
      <trkpt lat="45.58416" lon="6.62163">
        <ele>2229.6000976562</ele>
        <time>2019-12-30T10:10:11.000Z</time>
      </trkpt>
      <trkpt lat="45.58416" lon="6.62163">
        <ele>2229.6000976562</ele>
        <time>2019-12-30T10:10:25.000Z</time>
      </trkpt>
      <trkpt lat="45.58416" lon="6.62163">
        <ele>2229.6000976562</ele>
        <time>2019-12-30T10:10:40.000Z</time>
      </trkpt>
      <trkpt lat="45.58416" lon="6.62163">
        <ele>2229.8000488281</ele>
        <time>2019-12-30T10:10:55.000Z</time>
      </trkpt>
      <trkpt lat="45.58416" lon="6.62163">
        <ele>2230.1999511719</ele>
        <time>2019-12-30T10:11:09.000Z</time>
      </trkpt>
      <trkpt lat="45.58416" lon="6.62163">
        <ele>2229.8000488281</ele>
        <time>2019-12-30T10:11:26.000Z</time>
      </trkpt>
      <trkpt lat="45.58416" lon="6.62163">
        <ele>2229.6000976562</ele>
        <time>2019-12-30T10:11:42.000Z</time>
      </trkpt>
      <trkpt lat="45.58416" lon="6.62163">
        <ele>2229.3999023438</ele>
        <time>2019-12-30T10:11:56.000Z</time>
      </trkpt>
      <trkpt lat="45.58416" lon="6.62163">
        <ele>2230</ele>
        <time>2019-12-30T10:12:05.000Z</time>
      </trkpt>
      <trkpt lat="45.58416" lon="6.62163">
        <ele>2229.6000976562</ele>
        <time>2019-12-30T10:12:29.000Z</time>
      </trkpt>
      <trkpt lat="45.58416" lon="6.62163">
        <ele>2229.6000976562</ele>
        <time>2019-12-30T10:12:47.000Z</time>
      </trkpt>
      <trkpt lat="45.58417" lon="6.62163">
        <ele>2229.6000976562</ele>
        <time>2019-12-30T10:12:57.000Z</time>
      </trkpt>
      <trkpt lat="45.58422" lon="6.6216">
        <ele>2229.8000488281</ele>
        <time>2019-12-30T10:13:03.000Z</time>
      </trkpt>
      <trkpt lat="45.58432" lon="6.62154">
        <ele>2229.3999023438</ele>
        <time>2019-12-30T10:13:10.000Z</time>
      </trkpt>
      <trkpt lat="45.58438" lon="6.62146">
        <ele>2228.8000488281</ele>
        <time>2019-12-30T10:13:16.000Z</time>
      </trkpt>
      <trkpt lat="45.5844" lon="6.6214">
        <ele>2229.6000976562</ele>
        <time>2019-12-30T10:13:22.000Z</time>
      </trkpt>
      <trkpt lat="45.58443" lon="6.62134">
        <ele>2230</ele>
        <time>2019-12-30T10:13:28.000Z</time>
      </trkpt>
      <trkpt lat="45.58445" lon="6.62127">
        <ele>2230.8000488281</ele>
        <time>2019-12-30T10:13:33.000Z</time>
      </trkpt>
      <trkpt lat="45.58444" lon="6.62126">
        <ele>2231.1999511719</ele>
        <time>2019-12-30T10:13:35.000Z</time>
      </trkpt>
      <trkpt lat="45.58445" lon="6.62124">
        <ele>2231.8000488281</ele>
        <time>2019-12-30T10:13:38.000Z</time>
      </trkpt>
      <trkpt lat="45.58445" lon="6.62123">
        <ele>2232</ele>
        <time>2019-12-30T10:13:40.000Z</time>
      </trkpt>
      <trkpt lat="45.58447" lon="6.62118">
        <ele>2232.8000488281</ele>
        <time>2019-12-30T10:13:44.000Z</time>
      </trkpt>
      <trkpt lat="45.58447" lon="6.62114">
        <ele>2233.6000976562</ele>
        <time>2019-12-30T10:13:48.000Z</time>
      </trkpt>
      <trkpt lat="45.58448" lon="6.62113">
        <ele>2233.8000488281</ele>
        <time>2019-12-30T10:13:50.000Z</time>
      </trkpt>
      <trkpt lat="45.58448" lon="6.62107">
        <ele>2234.6000976562</ele>
        <time>2019-12-30T10:13:54.000Z</time>
      </trkpt>
      <trkpt lat="45.58449" lon="6.62107">
        <ele>2235.1999511719</ele>
        <time>2019-12-30T10:13:56.000Z</time>
      </trkpt>
      <trkpt lat="45.58449" lon="6.62107">
        <ele>2235.6000976562</ele>
        <time>2019-12-30T10:14:01.000Z</time>
      </trkpt>
      <trkpt lat="45.58449" lon="6.62103">
        <ele>2235.6000976562</ele>
        <time>2019-12-30T10:14:11.000Z</time>
      </trkpt>
      <trkpt lat="45.58451" lon="6.62096">
        <ele>2236</ele>
        <time>2019-12-30T10:14:16.000Z</time>
      </trkpt>
      <trkpt lat="45.58451" lon="6.62094">
        <ele>2236.1999511719</ele>
        <time>2019-12-30T10:14:18.000Z</time>
      </trkpt>
      <trkpt lat="45.58453" lon="6.62092">
        <ele>2236.8000488281</ele>
        <time>2019-12-30T10:14:21.000Z</time>
      </trkpt>
      <trkpt lat="45.58454" lon="6.62091">
        <ele>2237</ele>
        <time>2019-12-30T10:14:23.000Z</time>
      </trkpt>
      <trkpt lat="45.58456" lon="6.62089">
        <ele>2237.1999511719</ele>
        <time>2019-12-30T10:14:25.000Z</time>
      </trkpt>
      <trkpt lat="45.58456" lon="6.62089">
        <ele>2237.3999023438</ele>
        <time>2019-12-30T10:14:26.000Z</time>
      </trkpt>
      <trkpt lat="45.5846" lon="6.62088">
        <ele>2238.3999023438</ele>
        <time>2019-12-30T10:14:31.000Z</time>
      </trkpt>
      <trkpt lat="45.58461" lon="6.62088">
        <ele>2238.6000976562</ele>
        <time>2019-12-30T10:14:33.000Z</time>
      </trkpt>
      <trkpt lat="45.58463" lon="6.62087">
        <ele>2238.6000976562</ele>
        <time>2019-12-30T10:14:34.000Z</time>
      </trkpt>
      <trkpt lat="45.58464" lon="6.62085">
        <ele>2238.6000976562</ele>
        <time>2019-12-30T10:14:36.000Z</time>
      </trkpt>
      <trkpt lat="45.58465" lon="6.62083">
        <ele>2238.6000976562</ele>
        <time>2019-12-30T10:14:37.000Z</time>
      </trkpt>
      <trkpt lat="45.58468" lon="6.62078">
        <ele>2238.3999023438</ele>
        <time>2019-12-30T10:14:41.000Z</time>
      </trkpt>
      <trkpt lat="45.5847" lon="6.62072">
        <ele>2238.3999023438</ele>
        <time>2019-12-30T10:14:46.000Z</time>
      </trkpt>
      <trkpt lat="45.58472" lon="6.62066">
        <ele>2239</ele>
        <time>2019-12-30T10:14:51.000Z</time>
      </trkpt>
      <trkpt lat="45.58474" lon="6.62056">
        <ele>2239.1999511719</ele>
        <time>2019-12-30T10:14:57.000Z</time>
      </trkpt>
      <trkpt lat="45.58474" lon="6.62054">
        <ele>2239.3999023438</ele>
        <time>2019-12-30T10:14:59.000Z</time>
      </trkpt>
      <trkpt lat="45.58476" lon="6.62048">
        <ele>2239.8000488281</ele>
        <time>2019-12-30T10:15:03.000Z</time>
      </trkpt>
      <trkpt lat="45.58477" lon="6.62043">
        <ele>2240</ele>
        <time>2019-12-30T10:15:08.000Z</time>
      </trkpt>
      <trkpt lat="45.58477" lon="6.62039">
        <ele>2240.3999023438</ele>
        <time>2019-12-30T10:15:12.000Z</time>
      </trkpt>
      <trkpt lat="45.58478" lon="6.62037">
        <ele>2240.6000976562</ele>
        <time>2019-12-30T10:15:13.000Z</time>
      </trkpt>
      <trkpt lat="45.58479" lon="6.62033">
        <ele>2241.3999023438</ele>
        <time>2019-12-30T10:15:18.000Z</time>
      </trkpt>
      <trkpt lat="45.58479" lon="6.62031">
        <ele>2241.6000976562</ele>
        <time>2019-12-30T10:15:19.000Z</time>
      </trkpt>
      <trkpt lat="45.5848" lon="6.62029">
        <ele>2242.1999511719</ele>
        <time>2019-12-30T10:15:22.000Z</time>
      </trkpt>
      <trkpt lat="45.58481" lon="6.62027">
        <ele>2242.6000976562</ele>
        <time>2019-12-30T10:15:24.000Z</time>
      </trkpt>
      <trkpt lat="45.58482" lon="6.62024">
        <ele>2243.3999023438</ele>
        <time>2019-12-30T10:15:27.000Z</time>
      </trkpt>
      <trkpt lat="45.58482" lon="6.62023">
        <ele>2243.8000488281</ele>
        <time>2019-12-30T10:15:30.000Z</time>
      </trkpt>
      <trkpt lat="45.58484" lon="6.6202">
        <ele>2244.3999023438</ele>
        <time>2019-12-30T10:15:32.000Z</time>
      </trkpt>
      <trkpt lat="45.58484" lon="6.62019">
        <ele>2244.8000488281</ele>
        <time>2019-12-30T10:15:34.000Z</time>
      </trkpt>
      <trkpt lat="45.58486" lon="6.62014">
        <ele>2245.3999023438</ele>
        <time>2019-12-30T10:15:38.000Z</time>
      </trkpt>
      <trkpt lat="45.58487" lon="6.62012">
        <ele>2245.8000488281</ele>
        <time>2019-12-30T10:15:41.000Z</time>
      </trkpt>
      <trkpt lat="45.58488" lon="6.6201">
        <ele>2246</ele>
        <time>2019-12-30T10:15:42.000Z</time>
      </trkpt>
      <trkpt lat="45.58489" lon="6.62007">
        <ele>2247</ele>
        <time>2019-12-30T10:15:47.000Z</time>
      </trkpt>
      <trkpt lat="45.5849" lon="6.62001">
        <ele>2247.8000488281</ele>
        <time>2019-12-30T10:15:53.000Z</time>
      </trkpt>
      <trkpt lat="45.5849" lon="6.61998">
        <ele>2248.1999511719</ele>
        <time>2019-12-30T10:15:55.000Z</time>
      </trkpt>
      <trkpt lat="45.5849" lon="6.61995">
        <ele>2248.8000488281</ele>
        <time>2019-12-30T10:15:58.000Z</time>
      </trkpt>
      <trkpt lat="45.58491" lon="6.61989">
        <ele>2249.1999511719</ele>
        <time>2019-12-30T10:16:01.000Z</time>
      </trkpt>
      <trkpt lat="45.58491" lon="6.61988">
        <ele>2249.1999511719</ele>
        <time>2019-12-30T10:16:03.000Z</time>
      </trkpt>
      <trkpt lat="45.58492" lon="6.61981">
        <ele>2249.8000488281</ele>
        <time>2019-12-30T10:16:08.000Z</time>
      </trkpt>
      <trkpt lat="45.58492" lon="6.61978">
        <ele>2250.1999511719</ele>
        <time>2019-12-30T10:16:10.000Z</time>
      </trkpt>
      <trkpt lat="45.58493" lon="6.61977">
        <ele>2250.1999511719</ele>
        <time>2019-12-30T10:16:11.000Z</time>
      </trkpt>
      <trkpt lat="45.58493" lon="6.61975">
        <ele>2250.3999023438</ele>
        <time>2019-12-30T10:16:12.000Z</time>
      </trkpt>
      <trkpt lat="45.58492" lon="6.61971">
        <ele>2251</ele>
        <time>2019-12-30T10:16:16.000Z</time>
      </trkpt>
      <trkpt lat="45.58492" lon="6.61967">
        <ele>2251.3999023438</ele>
        <time>2019-12-30T10:16:18.000Z</time>
      </trkpt>
      <trkpt lat="45.58492" lon="6.61964">
        <ele>2252</ele>
        <time>2019-12-30T10:16:21.000Z</time>
      </trkpt>
      <trkpt lat="45.58491" lon="6.61961">
        <ele>2252.6000976562</ele>
        <time>2019-12-30T10:16:24.000Z</time>
      </trkpt>
      <trkpt lat="45.58489" lon="6.61956">
        <ele>2253</ele>
        <time>2019-12-30T10:16:26.000Z</time>
      </trkpt>
      <trkpt lat="45.58488" lon="6.61952">
        <ele>2253.6000976562</ele>
        <time>2019-12-30T10:16:30.000Z</time>
      </trkpt>
      <trkpt lat="45.58487" lon="6.61949">
        <ele>2254.1999511719</ele>
        <time>2019-12-30T10:16:34.000Z</time>
      </trkpt>
      <trkpt lat="45.58485" lon="6.61945">
        <ele>2255</ele>
        <time>2019-12-30T10:16:37.000Z</time>
      </trkpt>
      <trkpt lat="45.58485" lon="6.61945">
        <ele>2255.1999511719</ele>
        <time>2019-12-30T10:16:38.000Z</time>
      </trkpt>
      <trkpt lat="45.58483" lon="6.61939">
        <ele>2256</ele>
        <time>2019-12-30T10:16:43.000Z</time>
      </trkpt>
      <trkpt lat="45.58482" lon="6.61937">
        <ele>2256.1999511719</ele>
        <time>2019-12-30T10:16:44.000Z</time>
      </trkpt>
      <trkpt lat="45.58481" lon="6.61934">
        <ele>2256.8000488281</ele>
        <time>2019-12-30T10:16:48.000Z</time>
      </trkpt>
      <trkpt lat="45.58481" lon="6.61933">
        <ele>2257.1999511719</ele>
        <time>2019-12-30T10:16:50.000Z</time>
      </trkpt>
      <trkpt lat="45.5848" lon="6.61929">
        <ele>2257.6000976562</ele>
        <time>2019-12-30T10:16:53.000Z</time>
      </trkpt>
      <trkpt lat="45.5848" lon="6.61929">
        <ele>2258.3999023438</ele>
        <time>2019-12-30T10:16:57.000Z</time>
      </trkpt>
      <trkpt lat="45.5848" lon="6.61928">
        <ele>2258.6000976562</ele>
        <time>2019-12-30T10:16:59.000Z</time>
      </trkpt>
      <trkpt lat="45.58479" lon="6.61927">
        <ele>2258.8000488281</ele>
        <time>2019-12-30T10:17:00.000Z</time>
      </trkpt>
      <trkpt lat="45.58478" lon="6.61925">
        <ele>2259.3999023438</ele>
        <time>2019-12-30T10:17:04.000Z</time>
      </trkpt>
      <trkpt lat="45.58477" lon="6.61922">
        <ele>2260.3999023438</ele>
        <time>2019-12-30T10:17:09.000Z</time>
      </trkpt>
      <trkpt lat="45.58476" lon="6.6192">
        <ele>2261</ele>
        <time>2019-12-30T10:17:11.000Z</time>
      </trkpt>
      <trkpt lat="45.58476" lon="6.61917">
        <ele>2261.6000976562</ele>
        <time>2019-12-30T10:17:14.000Z</time>
      </trkpt>
      <trkpt lat="45.58475" lon="6.61916">
        <ele>2262.3999023438</ele>
        <time>2019-12-30T10:17:17.000Z</time>
      </trkpt>
      <trkpt lat="45.58474" lon="6.61915">
        <ele>2262.8000488281</ele>
        <time>2019-12-30T10:17:19.000Z</time>
      </trkpt>
      <trkpt lat="45.58473" lon="6.61912">
        <ele>2263</ele>
        <time>2019-12-30T10:17:23.000Z</time>
      </trkpt>
      <trkpt lat="45.58473" lon="6.61911">
        <ele>2263.3999023438</ele>
        <time>2019-12-30T10:17:28.000Z</time>
      </trkpt>
      <trkpt lat="45.58473" lon="6.61909">
        <ele>2263.6000976562</ele>
        <time>2019-12-30T10:17:29.000Z</time>
      </trkpt>
      <trkpt lat="45.58473" lon="6.61909">
        <ele>2263.8000488281</ele>
        <time>2019-12-30T10:17:30.000Z</time>
      </trkpt>
      <trkpt lat="45.58472" lon="6.61907">
        <ele>2264</ele>
        <time>2019-12-30T10:17:32.000Z</time>
      </trkpt>
      <trkpt lat="45.58472" lon="6.61908">
        <ele>2263.8000488281</ele>
        <time>2019-12-30T10:17:36.000Z</time>
      </trkpt>
      <trkpt lat="45.58472" lon="6.61905">
        <ele>2265</ele>
        <time>2019-12-30T10:17:39.000Z</time>
      </trkpt>
      <trkpt lat="45.58476" lon="6.61905">
        <ele>2265.6000976562</ele>
        <time>2019-12-30T10:17:42.000Z</time>
      </trkpt>
      <trkpt lat="45.58477" lon="6.61904">
        <ele>2265.8000488281</ele>
        <time>2019-12-30T10:17:44.000Z</time>
      </trkpt>
      <trkpt lat="45.58478" lon="6.61903">
        <ele>2266</ele>
        <time>2019-12-30T10:17:46.000Z</time>
      </trkpt>
      <trkpt lat="45.58478" lon="6.61903">
        <ele>2266.1999511719</ele>
        <time>2019-12-30T10:17:47.000Z</time>
      </trkpt>
      <trkpt lat="45.58483" lon="6.61902">
        <ele>2267.1999511719</ele>
        <time>2019-12-30T10:17:53.000Z</time>
      </trkpt>
      <trkpt lat="45.58485" lon="6.61901">
        <ele>2268.1999511719</ele>
        <time>2019-12-30T10:17:59.000Z</time>
      </trkpt>
      <trkpt lat="45.58489" lon="6.61899">
        <ele>2269</ele>
        <time>2019-12-30T10:18:05.000Z</time>
      </trkpt>
      <trkpt lat="45.5849" lon="6.61899">
        <ele>2269.3999023438</ele>
        <time>2019-12-30T10:18:07.000Z</time>
      </trkpt>
      <trkpt lat="45.58492" lon="6.61899">
        <ele>2270</ele>
        <time>2019-12-30T10:18:11.000Z</time>
      </trkpt>
      <trkpt lat="45.58494" lon="6.61899">
        <ele>2270.3999023438</ele>
        <time>2019-12-30T10:18:14.000Z</time>
      </trkpt>
      <trkpt lat="45.58499" lon="6.61899">
        <ele>2271.1999511719</ele>
        <time>2019-12-30T10:18:19.000Z</time>
      </trkpt>
      <trkpt lat="45.58499" lon="6.61899">
        <ele>2271.6000976562</ele>
        <time>2019-12-30T10:18:20.000Z</time>
      </trkpt>
      <trkpt lat="45.58505" lon="6.619">
        <ele>2272.6000976562</ele>
        <time>2019-12-30T10:18:26.000Z</time>
      </trkpt>
      <trkpt lat="45.58505" lon="6.61899">
        <ele>2272.6000976562</ele>
        <time>2019-12-30T10:18:27.000Z</time>
      </trkpt>
      <trkpt lat="45.58511" lon="6.61902">
        <ele>2273.3999023438</ele>
        <time>2019-12-30T10:18:34.000Z</time>
      </trkpt>
      <trkpt lat="45.58512" lon="6.61902">
        <ele>2273.8000488281</ele>
        <time>2019-12-30T10:18:36.000Z</time>
      </trkpt>
      <trkpt lat="45.58516" lon="6.61902">
        <ele>2274.8000488281</ele>
        <time>2019-12-30T10:18:41.000Z</time>
      </trkpt>
      <trkpt lat="45.58517" lon="6.61903">
        <ele>2275</ele>
        <time>2019-12-30T10:18:43.000Z</time>
      </trkpt>
      <trkpt lat="45.58519" lon="6.61905">
        <ele>2275.8000488281</ele>
        <time>2019-12-30T10:18:46.000Z</time>
      </trkpt>
      <trkpt lat="45.5852" lon="6.61906">
        <ele>2276</ele>
        <time>2019-12-30T10:18:47.000Z</time>
      </trkpt>
      <trkpt lat="45.58524" lon="6.61907">
        <ele>2277</ele>
        <time>2019-12-30T10:18:53.000Z</time>
      </trkpt>
      <trkpt lat="45.58525" lon="6.61908">
        <ele>2277.1999511719</ele>
        <time>2019-12-30T10:18:54.000Z</time>
      </trkpt>
      <trkpt lat="45.58528" lon="6.6191">
        <ele>2278.3999023438</ele>
        <time>2019-12-30T10:18:59.000Z</time>
      </trkpt>
      <trkpt lat="45.58534" lon="6.61915">
        <ele>2279.1999511719</ele>
        <time>2019-12-30T10:19:06.000Z</time>
      </trkpt>
      <trkpt lat="45.58534" lon="6.61914">
        <ele>2279.3999023438</ele>
        <time>2019-12-30T10:19:07.000Z</time>
      </trkpt>
      <trkpt lat="45.58537" lon="6.61917">
        <ele>2280.3999023438</ele>
        <time>2019-12-30T10:19:11.000Z</time>
      </trkpt>
      <trkpt lat="45.58537" lon="6.61917">
        <ele>2280.6000976562</ele>
        <time>2019-12-30T10:19:12.000Z</time>
      </trkpt>
      <trkpt lat="45.58542" lon="6.61917">
        <ele>2281.8000488281</ele>
        <time>2019-12-30T10:19:19.000Z</time>
      </trkpt>
      <trkpt lat="45.58545" lon="6.61917">
        <ele>2282.8000488281</ele>
        <time>2019-12-30T10:19:24.000Z</time>
      </trkpt>
      <trkpt lat="45.58546" lon="6.61917">
        <ele>2283</ele>
        <time>2019-12-30T10:19:25.000Z</time>
      </trkpt>
      <trkpt lat="45.5855" lon="6.61918">
        <ele>2283.8000488281</ele>
        <time>2019-12-30T10:19:31.000Z</time>
      </trkpt>
      <trkpt lat="45.58552" lon="6.61918">
        <ele>2284.3999023438</ele>
        <time>2019-12-30T10:19:33.000Z</time>
      </trkpt>
      <trkpt lat="45.58554" lon="6.61918">
        <ele>2285</ele>
        <time>2019-12-30T10:19:36.000Z</time>
      </trkpt>
      <trkpt lat="45.58557" lon="6.61919">
        <ele>2285.6000976562</ele>
        <time>2019-12-30T10:19:41.000Z</time>
      </trkpt>
      <trkpt lat="45.58558" lon="6.61919">
        <ele>2286.1999511719</ele>
        <time>2019-12-30T10:19:44.000Z</time>
      </trkpt>
      <trkpt lat="45.58558" lon="6.61919">
        <ele>2286.8000488281</ele>
        <time>2019-12-30T10:19:49.000Z</time>
      </trkpt>
      <trkpt lat="45.58562" lon="6.6192">
        <ele>2286.8000488281</ele>
        <time>2019-12-30T10:19:55.000Z</time>
      </trkpt>
      <trkpt lat="45.58564" lon="6.61921">
        <ele>2287.1999511719</ele>
        <time>2019-12-30T10:19:56.000Z</time>
      </trkpt>
      <trkpt lat="45.58567" lon="6.61921">
        <ele>2288.1999511719</ele>
        <time>2019-12-30T10:20:01.000Z</time>
      </trkpt>
      <trkpt lat="45.58571" lon="6.61923">
        <ele>2289</ele>
        <time>2019-12-30T10:20:07.000Z</time>
      </trkpt>
      <trkpt lat="45.58572" lon="6.61923">
        <ele>2289.3999023438</ele>
        <time>2019-12-30T10:20:08.000Z</time>
      </trkpt>
      <trkpt lat="45.58575" lon="6.61923">
        <ele>2290.3999023438</ele>
        <time>2019-12-30T10:20:12.000Z</time>
      </trkpt>
      <trkpt lat="45.58576" lon="6.61924">
        <ele>2290.8000488281</ele>
        <time>2019-12-30T10:20:14.000Z</time>
      </trkpt>
      <trkpt lat="45.58579" lon="6.61925">
        <ele>2291.3999023438</ele>
        <time>2019-12-30T10:20:19.000Z</time>
      </trkpt>
      <trkpt lat="45.58581" lon="6.61926">
        <ele>2291.8000488281</ele>
        <time>2019-12-30T10:20:21.000Z</time>
      </trkpt>
      <trkpt lat="45.58586" lon="6.61927">
        <ele>2292.6000976562</ele>
        <time>2019-12-30T10:20:26.000Z</time>
      </trkpt>
      <trkpt lat="45.58587" lon="6.61925">
        <ele>2293</ele>
        <time>2019-12-30T10:20:28.000Z</time>
      </trkpt>
      <trkpt lat="45.58588" lon="6.61922">
        <ele>2293.3999023438</ele>
        <time>2019-12-30T10:20:30.000Z</time>
      </trkpt>
      <trkpt lat="45.58589" lon="6.6192">
        <ele>2293.8000488281</ele>
        <time>2019-12-30T10:20:31.000Z</time>
      </trkpt>
      <trkpt lat="45.5859" lon="6.61919">
        <ele>2294.3999023438</ele>
        <time>2019-12-30T10:20:33.000Z</time>
      </trkpt>
      <trkpt lat="45.5859" lon="6.61917">
        <ele>2295</ele>
        <time>2019-12-30T10:20:35.000Z</time>
      </trkpt>
      <trkpt lat="45.58592" lon="6.61911">
        <ele>2296</ele>
        <time>2019-12-30T10:20:40.000Z</time>
      </trkpt>
      <trkpt lat="45.58593" lon="6.61908">
        <ele>2297</ele>
        <time>2019-12-30T10:20:44.000Z</time>
      </trkpt>
      <trkpt lat="45.58594" lon="6.61908">
        <ele>2297</ele>
        <time>2019-12-30T10:20:45.000Z</time>
      </trkpt>
      <trkpt lat="45.58596" lon="6.61909">
        <ele>2298</ele>
        <time>2019-12-30T10:20:49.000Z</time>
      </trkpt>
      <trkpt lat="45.58597" lon="6.6191">
        <ele>2298.1999511719</ele>
        <time>2019-12-30T10:20:50.000Z</time>
      </trkpt>
      <trkpt lat="45.586" lon="6.61912">
        <ele>2298.8000488281</ele>
        <time>2019-12-30T10:20:54.000Z</time>
      </trkpt>
      <trkpt lat="45.58601" lon="6.61914">
        <ele>2299.1999511719</ele>
        <time>2019-12-30T10:20:56.000Z</time>
      </trkpt>
      <trkpt lat="45.58603" lon="6.61916">
        <ele>2299.6000976562</ele>
        <time>2019-12-30T10:20:59.000Z</time>
      </trkpt>
      <trkpt lat="45.58605" lon="6.61919">
        <ele>2300.1999511719</ele>
        <time>2019-12-30T10:21:03.000Z</time>
      </trkpt>
      <trkpt lat="45.58605" lon="6.6192">
        <ele>2300.3999023438</ele>
        <time>2019-12-30T10:21:04.000Z</time>
      </trkpt>
      <trkpt lat="45.58607" lon="6.61924">
        <ele>2301.1999511719</ele>
        <time>2019-12-30T10:21:09.000Z</time>
      </trkpt>
      <trkpt lat="45.58607" lon="6.61925">
        <ele>2301.3999023438</ele>
        <time>2019-12-30T10:21:10.000Z</time>
      </trkpt>
      <trkpt lat="45.5861" lon="6.61928">
        <ele>2302.1999511719</ele>
        <time>2019-12-30T10:21:15.000Z</time>
      </trkpt>
      <trkpt lat="45.5861" lon="6.61928">
        <ele>2302.3999023438</ele>
        <time>2019-12-30T10:21:16.000Z</time>
      </trkpt>
      <trkpt lat="45.58612" lon="6.6193">
        <ele>2302.6000976562</ele>
        <time>2019-12-30T10:21:17.000Z</time>
      </trkpt>
      <trkpt lat="45.58613" lon="6.61933">
        <ele>2302.8000488281</ele>
        <time>2019-12-30T10:21:20.000Z</time>
      </trkpt>
      <trkpt lat="45.58615" lon="6.61935">
        <ele>2303.3999023438</ele>
        <time>2019-12-30T10:21:23.000Z</time>
      </trkpt>
      <trkpt lat="45.58616" lon="6.61937">
        <ele>2303.8000488281</ele>
        <time>2019-12-30T10:21:25.000Z</time>
      </trkpt>
      <trkpt lat="45.58619" lon="6.61941">
        <ele>2304.6000976562</ele>
        <time>2019-12-30T10:21:30.000Z</time>
      </trkpt>
      <trkpt lat="45.58619" lon="6.61941">
        <ele>2304.8000488281</ele>
        <time>2019-12-30T10:21:31.000Z</time>
      </trkpt>
      <trkpt lat="45.58619" lon="6.61941">
        <ele>2305.6000976562</ele>
        <time>2019-12-30T10:21:34.000Z</time>
      </trkpt>
      <trkpt lat="45.58619" lon="6.61941">
        <ele>2305.6000976562</ele>
        <time>2019-12-30T10:21:42.000Z</time>
      </trkpt>
      <trkpt lat="45.5862" lon="6.61943">
        <ele>2305.6000976562</ele>
        <time>2019-12-30T10:21:49.000Z</time>
      </trkpt>
      <trkpt lat="45.58622" lon="6.61944">
        <ele>2306</ele>
        <time>2019-12-30T10:21:53.000Z</time>
      </trkpt>
      <trkpt lat="45.58625" lon="6.61948">
        <ele>2307</ele>
        <time>2019-12-30T10:21:57.000Z</time>
      </trkpt>
      <trkpt lat="45.58625" lon="6.61949">
        <ele>2307.1999511719</ele>
        <time>2019-12-30T10:21:58.000Z</time>
      </trkpt>
      <trkpt lat="45.58627" lon="6.61952">
        <ele>2308</ele>
        <time>2019-12-30T10:22:03.000Z</time>
      </trkpt>
      <trkpt lat="45.58629" lon="6.61954">
        <ele>2308.1999511719</ele>
        <time>2019-12-30T10:22:04.000Z</time>
      </trkpt>
      <trkpt lat="45.58631" lon="6.61959">
        <ele>2309.1999511719</ele>
        <time>2019-12-30T10:22:09.000Z</time>
      </trkpt>
      <trkpt lat="45.58634" lon="6.61962">
        <ele>2310.1999511719</ele>
        <time>2019-12-30T10:22:14.000Z</time>
      </trkpt>
      <trkpt lat="45.58634" lon="6.61962">
        <ele>2310.3999023438</ele>
        <time>2019-12-30T10:22:15.000Z</time>
      </trkpt>
      <trkpt lat="45.58637" lon="6.61965">
        <ele>2311.1999511719</ele>
        <time>2019-12-30T10:22:21.000Z</time>
      </trkpt>
      <trkpt lat="45.58637" lon="6.61965">
        <ele>2311.3999023438</ele>
        <time>2019-12-30T10:22:22.000Z</time>
      </trkpt>
      <trkpt lat="45.58637" lon="6.61966">
        <ele>2312</ele>
        <time>2019-12-30T10:22:29.000Z</time>
      </trkpt>
      <trkpt lat="45.58642" lon="6.6197">
        <ele>2312.3999023438</ele>
        <time>2019-12-30T10:22:35.000Z</time>
      </trkpt>
      <trkpt lat="45.58641" lon="6.6197">
        <ele>2312.6000976562</ele>
        <time>2019-12-30T10:22:36.000Z</time>
      </trkpt>
      <trkpt lat="45.58643" lon="6.61971">
        <ele>2313.1999511719</ele>
        <time>2019-12-30T10:22:40.000Z</time>
      </trkpt>
      <trkpt lat="45.58645" lon="6.61968">
        <ele>2313.6000976562</ele>
        <time>2019-12-30T10:22:42.000Z</time>
      </trkpt>
      <trkpt lat="45.58645" lon="6.61968">
        <ele>2313.8000488281</ele>
        <time>2019-12-30T10:22:44.000Z</time>
      </trkpt>
      <trkpt lat="45.58646" lon="6.61965">
        <ele>2314.3999023438</ele>
        <time>2019-12-30T10:22:46.000Z</time>
      </trkpt>
      <trkpt lat="45.58647" lon="6.61962">
        <ele>2314.8000488281</ele>
        <time>2019-12-30T10:22:49.000Z</time>
      </trkpt>
      <trkpt lat="45.58647" lon="6.61963">
        <ele>2315</ele>
        <time>2019-12-30T10:22:50.000Z</time>
      </trkpt>
      <trkpt lat="45.58647" lon="6.61961">
        <ele>2315.3999023438</ele>
        <time>2019-12-30T10:22:53.000Z</time>
      </trkpt>
      <trkpt lat="45.58647" lon="6.6196">
        <ele>2315.8000488281</ele>
        <time>2019-12-30T10:22:55.000Z</time>
      </trkpt>
      <trkpt lat="45.58647" lon="6.6196">
        <ele>2316.1999511719</ele>
        <time>2019-12-30T10:22:57.000Z</time>
      </trkpt>
      <trkpt lat="45.58648" lon="6.6196">
        <ele>2316.8000488281</ele>
        <time>2019-12-30T10:23:02.000Z</time>
      </trkpt>
      <trkpt lat="45.58648" lon="6.6196">
        <ele>2317</ele>
        <time>2019-12-30T10:23:04.000Z</time>
      </trkpt>
      <trkpt lat="45.58649" lon="6.61957">
        <ele>2317.6000976562</ele>
        <time>2019-12-30T10:23:08.000Z</time>
      </trkpt>
      <trkpt lat="45.58649" lon="6.61956">
        <ele>2318</ele>
        <time>2019-12-30T10:23:09.000Z</time>
      </trkpt>
      <trkpt lat="45.5865" lon="6.61954">
        <ele>2318.1999511719</ele>
        <time>2019-12-30T10:23:13.000Z</time>
      </trkpt>
      <trkpt lat="45.58651" lon="6.61951">
        <ele>2318.3999023438</ele>
        <time>2019-12-30T10:23:18.000Z</time>
      </trkpt>
      <trkpt lat="45.58651" lon="6.61952">
        <ele>2319</ele>
        <time>2019-12-30T10:23:23.000Z</time>
      </trkpt>
      <trkpt lat="45.58651" lon="6.61952">
        <ele>2319.1999511719</ele>
        <time>2019-12-30T10:23:24.000Z</time>
      </trkpt>
      <trkpt lat="45.58653" lon="6.61954">
        <ele>2320</ele>
        <time>2019-12-30T10:23:27.000Z</time>
      </trkpt>
      <trkpt lat="45.58654" lon="6.61956">
        <ele>2320.3999023438</ele>
        <time>2019-12-30T10:23:29.000Z</time>
      </trkpt>
      <trkpt lat="45.58657" lon="6.6196">
        <ele>2321.1999511719</ele>
        <time>2019-12-30T10:23:34.000Z</time>
      </trkpt>
      <trkpt lat="45.58658" lon="6.61962">
        <ele>2321.8000488281</ele>
        <time>2019-12-30T10:23:38.000Z</time>
      </trkpt>
      <trkpt lat="45.58658" lon="6.61962">
        <ele>2322.1999511719</ele>
        <time>2019-12-30T10:23:39.000Z</time>
      </trkpt>
      <trkpt lat="45.58662" lon="6.61968">
        <ele>2323</ele>
        <time>2019-12-30T10:23:44.000Z</time>
      </trkpt>
      <trkpt lat="45.58662" lon="6.61969">
        <ele>2323.3999023438</ele>
        <time>2019-12-30T10:23:46.000Z</time>
      </trkpt>
      <trkpt lat="45.58663" lon="6.61971">
        <ele>2323.8000488281</ele>
        <time>2019-12-30T10:23:49.000Z</time>
      </trkpt>
      <trkpt lat="45.58664" lon="6.61972">
        <ele>2324.3999023438</ele>
        <time>2019-12-30T10:23:51.000Z</time>
      </trkpt>
      <trkpt lat="45.58665" lon="6.61975">
        <ele>2325.3999023438</ele>
        <time>2019-12-30T10:23:56.000Z</time>
      </trkpt>
      <trkpt lat="45.58666" lon="6.61977">
        <ele>2325.8000488281</ele>
        <time>2019-12-30T10:23:57.000Z</time>
      </trkpt>
      <trkpt lat="45.58669" lon="6.61979">
        <ele>2326.3999023438</ele>
        <time>2019-12-30T10:24:00.000Z</time>
      </trkpt>
      <trkpt lat="45.58669" lon="6.6198">
        <ele>2326.8000488281</ele>
        <time>2019-12-30T10:24:04.000Z</time>
      </trkpt>
      <trkpt lat="45.58671" lon="6.61984">
        <ele>2327.8000488281</ele>
        <time>2019-12-30T10:24:09.000Z</time>
      </trkpt>
      <trkpt lat="45.58671" lon="6.61984">
        <ele>2328</ele>
        <time>2019-12-30T10:24:10.000Z</time>
      </trkpt>
      <trkpt lat="45.58673" lon="6.61988">
        <ele>2328.6000976562</ele>
        <time>2019-12-30T10:24:14.000Z</time>
      </trkpt>
      <trkpt lat="45.58674" lon="6.61989">
        <ele>2329.1999511719</ele>
        <time>2019-12-30T10:24:16.000Z</time>
      </trkpt>
      <trkpt lat="45.58675" lon="6.6199">
        <ele>2329.8000488281</ele>
        <time>2019-12-30T10:24:20.000Z</time>
      </trkpt>
      <trkpt lat="45.58675" lon="6.6199">
        <ele>2330.3999023438</ele>
        <time>2019-12-30T10:24:21.000Z</time>
      </trkpt>
      <trkpt lat="45.58676" lon="6.61991">
        <ele>2330.8000488281</ele>
        <time>2019-12-30T10:24:32.000Z</time>
      </trkpt>
      <trkpt lat="45.58679" lon="6.61995">
        <ele>2330.8000488281</ele>
        <time>2019-12-30T10:24:36.000Z</time>
      </trkpt>
      <trkpt lat="45.58679" lon="6.61997">
        <ele>2331.3999023438</ele>
        <time>2019-12-30T10:24:39.000Z</time>
      </trkpt>
      <trkpt lat="45.58681" lon="6.62">
        <ele>2332</ele>
        <time>2019-12-30T10:24:42.000Z</time>
      </trkpt>
      <trkpt lat="45.58683" lon="6.62001">
        <ele>2332.6000976562</ele>
        <time>2019-12-30T10:24:45.000Z</time>
      </trkpt>
      <trkpt lat="45.58683" lon="6.62001">
        <ele>2333</ele>
        <time>2019-12-30T10:24:48.000Z</time>
      </trkpt>
      <trkpt lat="45.58683" lon="6.62002">
        <ele>2333.3999023438</ele>
        <time>2019-12-30T10:24:53.000Z</time>
      </trkpt>
      <trkpt lat="45.58683" lon="6.62003">
        <ele>2333.6000976562</ele>
        <time>2019-12-30T10:24:56.000Z</time>
      </trkpt>
      <trkpt lat="45.58684" lon="6.62003">
        <ele>2334</ele>
        <time>2019-12-30T10:24:59.000Z</time>
      </trkpt>
      <trkpt lat="45.58685" lon="6.62001">
        <ele>2334.3999023438</ele>
        <time>2019-12-30T10:25:02.000Z</time>
      </trkpt>
      <trkpt lat="45.58685" lon="6.61999">
        <ele>2334.6000976562</ele>
        <time>2019-12-30T10:25:04.000Z</time>
      </trkpt>
      <trkpt lat="45.58686" lon="6.61993">
        <ele>2335.6000976562</ele>
        <time>2019-12-30T10:25:09.000Z</time>
      </trkpt>
      <trkpt lat="45.58687" lon="6.61992">
        <ele>2335.8000488281</ele>
        <time>2019-12-30T10:25:10.000Z</time>
      </trkpt>
      <trkpt lat="45.58687" lon="6.61989">
        <ele>2336.3999023438</ele>
        <time>2019-12-30T10:25:14.000Z</time>
      </trkpt>
      <trkpt lat="45.58687" lon="6.61984">
        <ele>2336.8000488281</ele>
        <time>2019-12-30T10:25:18.000Z</time>
      </trkpt>
      <trkpt lat="45.58688" lon="6.61982">
        <ele>2337</ele>
        <time>2019-12-30T10:25:19.000Z</time>
      </trkpt>
      <trkpt lat="45.58688" lon="6.61981">
        <ele>2337.1999511719</ele>
        <time>2019-12-30T10:25:20.000Z</time>
      </trkpt>
      <trkpt lat="45.58689" lon="6.61976">
        <ele>2337.8000488281</ele>
        <time>2019-12-30T10:25:23.000Z</time>
      </trkpt>
      <trkpt lat="45.5869" lon="6.61973">
        <ele>2338.1999511719</ele>
        <time>2019-12-30T10:25:25.000Z</time>
      </trkpt>
      <trkpt lat="45.58689" lon="6.61971">
        <ele>2339</ele>
        <time>2019-12-30T10:25:28.000Z</time>
      </trkpt>
      <trkpt lat="45.5869" lon="6.61971">
        <ele>2339.1999511719</ele>
        <time>2019-12-30T10:25:29.000Z</time>
      </trkpt>
      <trkpt lat="45.5869" lon="6.61968">
        <ele>2340</ele>
        <time>2019-12-30T10:25:33.000Z</time>
      </trkpt>
      <trkpt lat="45.5869" lon="6.61967">
        <ele>2340.1999511719</ele>
        <time>2019-12-30T10:25:35.000Z</time>
      </trkpt>
      <trkpt lat="45.5869" lon="6.61965">
        <ele>2340.6000976562</ele>
        <time>2019-12-30T10:25:37.000Z</time>
      </trkpt>
      <trkpt lat="45.5869" lon="6.61961">
        <ele>2341.1999511719</ele>
        <time>2019-12-30T10:25:41.000Z</time>
      </trkpt>
      <trkpt lat="45.5869" lon="6.6196">
        <ele>2341.3999023438</ele>
        <time>2019-12-30T10:25:42.000Z</time>
      </trkpt>
      <trkpt lat="45.58691" lon="6.61956">
        <ele>2342</ele>
        <time>2019-12-30T10:25:46.000Z</time>
      </trkpt>
      <trkpt lat="45.58692" lon="6.61953">
        <ele>2342.3999023438</ele>
        <time>2019-12-30T10:25:48.000Z</time>
      </trkpt>
      <trkpt lat="45.58692" lon="6.61951">
        <ele>2342.8000488281</ele>
        <time>2019-12-30T10:25:51.000Z</time>
      </trkpt>
      <trkpt lat="45.58693" lon="6.61948">
        <ele>2343.3999023438</ele>
        <time>2019-12-30T10:25:55.000Z</time>
      </trkpt>
      <trkpt lat="45.58693" lon="6.61947">
        <ele>2343.6000976562</ele>
        <time>2019-12-30T10:25:56.000Z</time>
      </trkpt>
      <trkpt lat="45.58693" lon="6.61946">
        <ele>2344.1999511719</ele>
        <time>2019-12-30T10:25:59.000Z</time>
      </trkpt>
      <trkpt lat="45.58693" lon="6.61943">
        <ele>2344.6000976562</ele>
        <time>2019-12-30T10:26:02.000Z</time>
      </trkpt>
      <trkpt lat="45.58693" lon="6.61942">
        <ele>2344.8000488281</ele>
        <time>2019-12-30T10:26:04.000Z</time>
      </trkpt>
      <trkpt lat="45.58694" lon="6.6194">
        <ele>2345.6000976562</ele>
        <time>2019-12-30T10:26:10.000Z</time>
      </trkpt>
      <trkpt lat="45.58695" lon="6.6194">
        <ele>2345.6000976562</ele>
        <time>2019-12-30T10:26:16.000Z</time>
      </trkpt>
      <trkpt lat="45.58696" lon="6.61943">
        <ele>2346.8000488281</ele>
        <time>2019-12-30T10:26:20.000Z</time>
      </trkpt>
      <trkpt lat="45.58697" lon="6.61944">
        <ele>2347.1999511719</ele>
        <time>2019-12-30T10:26:21.000Z</time>
      </trkpt>
      <trkpt lat="45.58698" lon="6.61949">
        <ele>2347.6000976562</ele>
        <time>2019-12-30T10:26:26.000Z</time>
      </trkpt>
      <trkpt lat="45.58699" lon="6.61951">
        <ele>2348</ele>
        <time>2019-12-30T10:26:28.000Z</time>
      </trkpt>
      <trkpt lat="45.58701" lon="6.61955">
        <ele>2348.6000976562</ele>
        <time>2019-12-30T10:26:32.000Z</time>
      </trkpt>
      <trkpt lat="45.58702" lon="6.61958">
        <ele>2349</ele>
        <time>2019-12-30T10:26:35.000Z</time>
      </trkpt>
      <trkpt lat="45.58705" lon="6.61962">
        <ele>2349.8000488281</ele>
        <time>2019-12-30T10:26:39.000Z</time>
      </trkpt>
      <trkpt lat="45.58706" lon="6.61965">
        <ele>2350.1999511719</ele>
        <time>2019-12-30T10:26:41.000Z</time>
      </trkpt>
      <trkpt lat="45.58709" lon="6.6197">
        <ele>2351</ele>
        <time>2019-12-30T10:26:47.000Z</time>
      </trkpt>
      <trkpt lat="45.5871" lon="6.6197">
        <ele>2351.1999511719</ele>
        <time>2019-12-30T10:26:48.000Z</time>
      </trkpt>
      <trkpt lat="45.5871" lon="6.6197">
        <ele>2352</ele>
        <time>2019-12-30T10:26:53.000Z</time>
      </trkpt>
      <trkpt lat="45.58712" lon="6.61975">
        <ele>2352</ele>
        <time>2019-12-30T10:26:58.000Z</time>
      </trkpt>
      <trkpt lat="45.58713" lon="6.61976">
        <ele>2352.1999511719</ele>
        <time>2019-12-30T10:27:00.000Z</time>
      </trkpt>
      <trkpt lat="45.58714" lon="6.61976">
        <ele>2352.8000488281</ele>
        <time>2019-12-30T10:27:04.000Z</time>
      </trkpt>
      <trkpt lat="45.58715" lon="6.61972">
        <ele>2353.1999511719</ele>
        <time>2019-12-30T10:27:08.000Z</time>
      </trkpt>
      <trkpt lat="45.58716" lon="6.61971">
        <ele>2353.8000488281</ele>
        <time>2019-12-30T10:27:09.000Z</time>
      </trkpt>
      <trkpt lat="45.58717" lon="6.61968">
        <ele>2354.1999511719</ele>
        <time>2019-12-30T10:27:11.000Z</time>
      </trkpt>
      <trkpt lat="45.58718" lon="6.61965">
        <ele>2354.8000488281</ele>
        <time>2019-12-30T10:27:14.000Z</time>
      </trkpt>
      <trkpt lat="45.58719" lon="6.61961">
        <ele>2355.3999023438</ele>
        <time>2019-12-30T10:27:18.000Z</time>
      </trkpt>
      <trkpt lat="45.58721" lon="6.61953">
        <ele>2356.3999023438</ele>
        <time>2019-12-30T10:27:23.000Z</time>
      </trkpt>
      <trkpt lat="45.58722" lon="6.61952">
        <ele>2356.3999023438</ele>
        <time>2019-12-30T10:27:24.000Z</time>
      </trkpt>
      <trkpt lat="45.58723" lon="6.61948">
        <ele>2356.8000488281</ele>
        <time>2019-12-30T10:27:28.000Z</time>
      </trkpt>
      <trkpt lat="45.58724" lon="6.61945">
        <ele>2357.6000976562</ele>
        <time>2019-12-30T10:27:31.000Z</time>
      </trkpt>
      <trkpt lat="45.58724" lon="6.61944">
        <ele>2357.8000488281</ele>
        <time>2019-12-30T10:27:32.000Z</time>
      </trkpt>
      <trkpt lat="45.58725" lon="6.61941">
        <ele>2358.6000976562</ele>
        <time>2019-12-30T10:27:36.000Z</time>
      </trkpt>
      <trkpt lat="45.58725" lon="6.61941">
        <ele>2358.8000488281</ele>
        <time>2019-12-30T10:27:37.000Z</time>
      </trkpt>
      <trkpt lat="45.58725" lon="6.61937">
        <ele>2359.8000488281</ele>
        <time>2019-12-30T10:27:42.000Z</time>
      </trkpt>
      <trkpt lat="45.58727" lon="6.61933">
        <ele>2360.6000976562</ele>
        <time>2019-12-30T10:27:46.000Z</time>
      </trkpt>
      <trkpt lat="45.58727" lon="6.61932">
        <ele>2361</ele>
        <time>2019-12-30T10:27:48.000Z</time>
      </trkpt>
      <trkpt lat="45.58728" lon="6.6193">
        <ele>2361.6000976562</ele>
        <time>2019-12-30T10:27:51.000Z</time>
      </trkpt>
      <trkpt lat="45.58728" lon="6.61928">
        <ele>2362.1999511719</ele>
        <time>2019-12-30T10:27:53.000Z</time>
      </trkpt>
      <trkpt lat="45.58728" lon="6.61927">
        <ele>2362.3999023438</ele>
        <time>2019-12-30T10:27:55.000Z</time>
      </trkpt>
      <trkpt lat="45.5873" lon="6.61922">
        <ele>2363.1999511719</ele>
        <time>2019-12-30T10:28:00.000Z</time>
      </trkpt>
      <trkpt lat="45.58731" lon="6.61919">
        <ele>2364.1999511719</ele>
        <time>2019-12-30T10:28:05.000Z</time>
      </trkpt>
      <trkpt lat="45.58731" lon="6.61918">
        <ele>2364.3999023438</ele>
        <time>2019-12-30T10:28:06.000Z</time>
      </trkpt>
      <trkpt lat="45.58732" lon="6.61916">
        <ele>2364.8000488281</ele>
        <time>2019-12-30T10:28:09.000Z</time>
      </trkpt>
      <trkpt lat="45.58732" lon="6.61914">
        <ele>2365.3999023438</ele>
        <time>2019-12-30T10:28:12.000Z</time>
      </trkpt>
      <trkpt lat="45.58733" lon="6.61911">
        <ele>2365.8000488281</ele>
        <time>2019-12-30T10:28:14.000Z</time>
      </trkpt>
      <trkpt lat="45.58734" lon="6.61908">
        <ele>2366.3999023438</ele>
        <time>2019-12-30T10:28:18.000Z</time>
      </trkpt>
      <trkpt lat="45.58735" lon="6.61907">
        <ele>2366.6000976562</ele>
        <time>2019-12-30T10:28:19.000Z</time>
      </trkpt>
      <trkpt lat="45.58735" lon="6.61906">
        <ele>2367.6000976562</ele>
        <time>2019-12-30T10:28:22.000Z</time>
      </trkpt>
      <trkpt lat="45.58735" lon="6.61905">
        <ele>2367.6000976562</ele>
        <time>2019-12-30T10:28:23.000Z</time>
      </trkpt>
      <trkpt lat="45.58736" lon="6.61901">
        <ele>2368.3999023438</ele>
        <time>2019-12-30T10:28:27.000Z</time>
      </trkpt>
      <trkpt lat="45.58737" lon="6.61898">
        <ele>2368.8000488281</ele>
        <time>2019-12-30T10:28:30.000Z</time>
      </trkpt>
      <trkpt lat="45.58737" lon="6.61898">
        <ele>2369</ele>
        <time>2019-12-30T10:28:31.000Z</time>
      </trkpt>
      <trkpt lat="45.58738" lon="6.61893">
        <ele>2370</ele>
        <time>2019-12-30T10:28:36.000Z</time>
      </trkpt>
      <trkpt lat="45.58739" lon="6.6189">
        <ele>2370.3999023438</ele>
        <time>2019-12-30T10:28:40.000Z</time>
      </trkpt>
      <trkpt lat="45.58741" lon="6.61886">
        <ele>2371</ele>
        <time>2019-12-30T10:28:43.000Z</time>
      </trkpt>
      <trkpt lat="45.58741" lon="6.61886">
        <ele>2371.8000488281</ele>
        <time>2019-12-30T10:28:45.000Z</time>
      </trkpt>
      <trkpt lat="45.58742" lon="6.61882">
        <ele>2372.1999511719</ele>
        <time>2019-12-30T10:28:48.000Z</time>
      </trkpt>
      <trkpt lat="45.58743" lon="6.61882">
        <ele>2372.6000976562</ele>
        <time>2019-12-30T10:28:50.000Z</time>
      </trkpt>
      <trkpt lat="45.58744" lon="6.61877">
        <ele>2373.1999511719</ele>
        <time>2019-12-30T10:28:54.000Z</time>
      </trkpt>
      <trkpt lat="45.58745" lon="6.61876">
        <ele>2373.3999023438</ele>
        <time>2019-12-30T10:28:56.000Z</time>
      </trkpt>
      <trkpt lat="45.58746" lon="6.61875">
        <ele>2374.1999511719</ele>
        <time>2019-12-30T10:29:01.000Z</time>
      </trkpt>
      <trkpt lat="45.58748" lon="6.61877">
        <ele>2374.8000488281</ele>
        <time>2019-12-30T10:29:07.000Z</time>
      </trkpt>
      <trkpt lat="45.58748" lon="6.61878">
        <ele>2375.1999511719</ele>
        <time>2019-12-30T10:29:08.000Z</time>
      </trkpt>
      <trkpt lat="45.5875" lon="6.61881">
        <ele>2375.8000488281</ele>
        <time>2019-12-30T10:29:11.000Z</time>
      </trkpt>
      <trkpt lat="45.58751" lon="6.61882">
        <ele>2376</ele>
        <time>2019-12-30T10:29:12.000Z</time>
      </trkpt>
      <trkpt lat="45.58752" lon="6.61883">
        <ele>2376.1999511719</ele>
        <time>2019-12-30T10:29:14.000Z</time>
      </trkpt>
      <trkpt lat="45.58753" lon="6.61885">
        <ele>2376.6000976562</ele>
        <time>2019-12-30T10:29:17.000Z</time>
      </trkpt>
      <trkpt lat="45.58755" lon="6.61887">
        <ele>2377.1999511719</ele>
        <time>2019-12-30T10:29:20.000Z</time>
      </trkpt>
      <trkpt lat="45.58757" lon="6.61889">
        <ele>2377.6000976562</ele>
        <time>2019-12-30T10:29:22.000Z</time>
      </trkpt>
      <trkpt lat="45.58758" lon="6.61891">
        <ele>2378.3999023438</ele>
        <time>2019-12-30T10:29:25.000Z</time>
      </trkpt>
      <trkpt lat="45.58758" lon="6.61892">
        <ele>2378.6000976562</ele>
        <time>2019-12-30T10:29:27.000Z</time>
      </trkpt>
      <trkpt lat="45.58762" lon="6.61896">
        <ele>2379.3999023438</ele>
        <time>2019-12-30T10:29:32.000Z</time>
      </trkpt>
      <trkpt lat="45.58762" lon="6.61897">
        <ele>2379.6000976562</ele>
        <time>2019-12-30T10:29:33.000Z</time>
      </trkpt>
      <trkpt lat="45.58766" lon="6.619">
        <ele>2380.6000976562</ele>
        <time>2019-12-30T10:29:38.000Z</time>
      </trkpt>
      <trkpt lat="45.58768" lon="6.61903">
        <ele>2381.1999511719</ele>
        <time>2019-12-30T10:29:43.000Z</time>
      </trkpt>
      <trkpt lat="45.58769" lon="6.61904">
        <ele>2381.6000976562</ele>
        <time>2019-12-30T10:29:45.000Z</time>
      </trkpt>
      <trkpt lat="45.58771" lon="6.61905">
        <ele>2382.1999511719</ele>
        <time>2019-12-30T10:29:49.000Z</time>
      </trkpt>
      <trkpt lat="45.58771" lon="6.61905">
        <ele>2382.6000976562</ele>
        <time>2019-12-30T10:29:52.000Z</time>
      </trkpt>
      <trkpt lat="45.58772" lon="6.61906">
        <ele>2382.6000976562</ele>
        <time>2019-12-30T10:30:01.000Z</time>
      </trkpt>
      <trkpt lat="45.58775" lon="6.61908">
        <ele>2382.8000488281</ele>
        <time>2019-12-30T10:30:06.000Z</time>
      </trkpt>
      <trkpt lat="45.58779" lon="6.61912">
        <ele>2383.6000976562</ele>
        <time>2019-12-30T10:30:12.000Z</time>
      </trkpt>
      <trkpt lat="45.58783" lon="6.61914">
        <ele>2384.8000488281</ele>
        <time>2019-12-30T10:30:19.000Z</time>
      </trkpt>
      <trkpt lat="45.58785" lon="6.61914">
        <ele>2385.8000488281</ele>
        <time>2019-12-30T10:30:24.000Z</time>
      </trkpt>
      <trkpt lat="45.58785" lon="6.61914">
        <ele>2386.1999511719</ele>
        <time>2019-12-30T10:30:28.000Z</time>
      </trkpt>
      <trkpt lat="45.58785" lon="6.61915">
        <ele>2386</ele>
        <time>2019-12-30T10:30:36.000Z</time>
      </trkpt>
      <trkpt lat="45.58785" lon="6.61915">
        <ele>2386</ele>
        <time>2019-12-30T10:30:55.000Z</time>
      </trkpt>
      <trkpt lat="45.58785" lon="6.61915">
        <ele>2385.8000488281</ele>
        <time>2019-12-30T10:31:05.000Z</time>
      </trkpt>
      <trkpt lat="45.58785" lon="6.61915">
        <ele>2386</ele>
        <time>2019-12-30T10:31:12.000Z</time>
      </trkpt>
      <trkpt lat="45.58785" lon="6.61915">
        <ele>2385.8000488281</ele>
        <time>2019-12-30T10:31:30.000Z</time>
      </trkpt>
      <trkpt lat="45.58785" lon="6.61915">
        <ele>2385.8000488281</ele>
        <time>2019-12-30T10:31:47.000Z</time>
      </trkpt>
      <trkpt lat="45.58785" lon="6.61915">
        <ele>2385.8000488281</ele>
        <time>2019-12-30T10:32:06.000Z</time>
      </trkpt>
      <trkpt lat="45.58785" lon="6.61915">
        <ele>2386</ele>
        <time>2019-12-30T10:32:29.000Z</time>
      </trkpt>
      <trkpt lat="45.58785" lon="6.61915">
        <ele>2385.8000488281</ele>
        <time>2019-12-30T10:32:42.000Z</time>
      </trkpt>
      <trkpt lat="45.58785" lon="6.61915">
        <ele>2385.8000488281</ele>
        <time>2019-12-30T10:33:02.000Z</time>
      </trkpt>
      <trkpt lat="45.58785" lon="6.61915">
        <ele>2385.8000488281</ele>
        <time>2019-12-30T10:33:22.000Z</time>
      </trkpt>
      <trkpt lat="45.58785" lon="6.61915">
        <ele>2386</ele>
        <time>2019-12-30T10:33:38.000Z</time>
      </trkpt>
      <trkpt lat="45.58785" lon="6.61915">
        <ele>2385.3999023438</ele>
        <time>2019-12-30T10:33:48.000Z</time>
      </trkpt>
      <trkpt lat="45.58785" lon="6.61915">
        <ele>2385.8000488281</ele>
        <time>2019-12-30T10:34:04.000Z</time>
      </trkpt>
      <trkpt lat="45.58785" lon="6.61915">
        <ele>2385.6000976562</ele>
        <time>2019-12-30T10:34:26.000Z</time>
      </trkpt>
      <trkpt lat="45.58785" lon="6.61915">
        <ele>2385.8000488281</ele>
        <time>2019-12-30T10:34:37.000Z</time>
      </trkpt>
      <trkpt lat="45.58785" lon="6.61915">
        <ele>2385.8000488281</ele>
        <time>2019-12-30T10:34:54.000Z</time>
      </trkpt>
      <trkpt lat="45.58785" lon="6.61915">
        <ele>2385.6000976562</ele>
        <time>2019-12-30T10:35:13.000Z</time>
      </trkpt>
      <trkpt lat="45.58785" lon="6.61915">
        <ele>2385.8000488281</ele>
        <time>2019-12-30T10:35:24.000Z</time>
      </trkpt>
      <trkpt lat="45.58785" lon="6.61915">
        <ele>2386</ele>
        <time>2019-12-30T10:35:38.000Z</time>
      </trkpt>
      <trkpt lat="45.58785" lon="6.61915">
        <ele>2385.6000976562</ele>
        <time>2019-12-30T10:35:53.000Z</time>
      </trkpt>
      <trkpt lat="45.58785" lon="6.61915">
        <ele>2385.8000488281</ele>
        <time>2019-12-30T10:36:09.000Z</time>
      </trkpt>
      <trkpt lat="45.58785" lon="6.61915">
        <ele>2385.8000488281</ele>
        <time>2019-12-30T10:36:23.000Z</time>
      </trkpt>
      <trkpt lat="45.58785" lon="6.61915">
        <ele>2385.8000488281</ele>
        <time>2019-12-30T10:36:35.000Z</time>
      </trkpt>
      <trkpt lat="45.58785" lon="6.61915">
        <ele>2386.8000488281</ele>
        <time>2019-12-30T10:36:45.000Z</time>
      </trkpt>
      <trkpt lat="45.58785" lon="6.61915">
        <ele>2385.6000976562</ele>
        <time>2019-12-30T10:36:59.000Z</time>
      </trkpt>
      <trkpt lat="45.58785" lon="6.61915">
        <ele>2385.6000976562</ele>
        <time>2019-12-30T10:37:13.000Z</time>
      </trkpt>
      <trkpt lat="45.58785" lon="6.61916">
        <ele>2385.8000488281</ele>
        <time>2019-12-30T10:37:30.000Z</time>
      </trkpt>
      <trkpt lat="45.58785" lon="6.61916">
        <ele>2385.8000488281</ele>
        <time>2019-12-30T10:37:41.000Z</time>
      </trkpt>
      <trkpt lat="45.58785" lon="6.61916">
        <ele>2386.1999511719</ele>
        <time>2019-12-30T10:37:55.000Z</time>
      </trkpt>
      <trkpt lat="45.58785" lon="6.61916">
        <ele>2385.8000488281</ele>
        <time>2019-12-30T10:38:13.000Z</time>
      </trkpt>
      <trkpt lat="45.58785" lon="6.61916">
        <ele>2385.8000488281</ele>
        <time>2019-12-30T10:38:29.000Z</time>
      </trkpt>
      <trkpt lat="45.58785" lon="6.61916">
        <ele>2386</ele>
        <time>2019-12-30T10:38:42.000Z</time>
      </trkpt>
      <trkpt lat="45.58785" lon="6.61916">
        <ele>2386</ele>
        <time>2019-12-30T10:38:59.000Z</time>
      </trkpt>
      <trkpt lat="45.58785" lon="6.61916">
        <ele>2385.8000488281</ele>
        <time>2019-12-30T10:39:17.000Z</time>
      </trkpt>
      <trkpt lat="45.58785" lon="6.61916">
        <ele>2386</ele>
        <time>2019-12-30T10:39:33.000Z</time>
      </trkpt>
      <trkpt lat="45.58785" lon="6.61916">
        <ele>2386</ele>
        <time>2019-12-30T10:39:47.000Z</time>
      </trkpt>
      <trkpt lat="45.58786" lon="6.61916">
        <ele>2386</ele>
        <time>2019-12-30T10:40:01.000Z</time>
      </trkpt>
      <trkpt lat="45.58786" lon="6.61916">
        <ele>2385.8000488281</ele>
        <time>2019-12-30T10:40:17.000Z</time>
      </trkpt>
      <trkpt lat="45.58786" lon="6.61916">
        <ele>2386</ele>
        <time>2019-12-30T10:40:31.000Z</time>
      </trkpt>
      <trkpt lat="45.58786" lon="6.61916">
        <ele>2385.8000488281</ele>
        <time>2019-12-30T10:40:48.000Z</time>
      </trkpt>
      <trkpt lat="45.58786" lon="6.61916">
        <ele>2385.6000976562</ele>
        <time>2019-12-30T10:40:58.000Z</time>
      </trkpt>
      <trkpt lat="45.58786" lon="6.61916">
        <ele>2385.6000976562</ele>
        <time>2019-12-30T10:41:12.000Z</time>
      </trkpt>
      <trkpt lat="45.58786" lon="6.61916">
        <ele>2386.1999511719</ele>
        <time>2019-12-30T10:41:27.000Z</time>
      </trkpt>
      <trkpt lat="45.58786" lon="6.61916">
        <ele>2387</ele>
        <time>2019-12-30T10:41:37.000Z</time>
      </trkpt>
      <trkpt lat="45.58786" lon="6.61916">
        <ele>2386.6000976562</ele>
        <time>2019-12-30T10:41:40.000Z</time>
      </trkpt>
      <trkpt lat="45.58786" lon="6.61916">
        <ele>2386.1999511719</ele>
        <time>2019-12-30T10:41:57.000Z</time>
      </trkpt>
      <trkpt lat="45.58786" lon="6.61916">
        <ele>2386.1999511719</ele>
        <time>2019-12-30T10:42:15.000Z</time>
      </trkpt>
      <trkpt lat="45.58786" lon="6.61916">
        <ele>2386.1999511719</ele>
        <time>2019-12-30T10:42:36.000Z</time>
      </trkpt>
      <trkpt lat="45.58786" lon="6.61916">
        <ele>2386.3999023438</ele>
        <time>2019-12-30T10:42:54.000Z</time>
      </trkpt>
      <trkpt lat="45.58786" lon="6.61916">
        <ele>2386.3999023438</ele>
        <time>2019-12-30T10:43:10.000Z</time>
      </trkpt>
      <trkpt lat="45.58786" lon="6.61916">
        <ele>2386.3999023438</ele>
        <time>2019-12-30T10:43:25.000Z</time>
      </trkpt>
      <trkpt lat="45.58786" lon="6.61916">
        <ele>2386.3999023438</ele>
        <time>2019-12-30T10:43:38.000Z</time>
      </trkpt>
      <trkpt lat="45.58786" lon="6.61916">
        <ele>2386.3999023438</ele>
        <time>2019-12-30T10:43:56.000Z</time>
      </trkpt>
      <trkpt lat="45.58786" lon="6.61916">
        <ele>2386.3999023438</ele>
        <time>2019-12-30T10:44:18.000Z</time>
      </trkpt>
      <trkpt lat="45.58786" lon="6.61916">
        <ele>2386.6000976562</ele>
        <time>2019-12-30T10:44:36.000Z</time>
      </trkpt>
      <trkpt lat="45.58786" lon="6.61916">
        <ele>2386.6000976562</ele>
        <time>2019-12-30T10:44:52.000Z</time>
      </trkpt>
      <trkpt lat="45.58786" lon="6.61916">
        <ele>2386.6000976562</ele>
        <time>2019-12-30T10:45:09.000Z</time>
      </trkpt>
      <trkpt lat="45.58786" lon="6.61916">
        <ele>2386.8000488281</ele>
        <time>2019-12-30T10:45:30.000Z</time>
      </trkpt>
      <trkpt lat="45.58786" lon="6.61916">
        <ele>2386.6000976562</ele>
        <time>2019-12-30T10:45:53.000Z</time>
      </trkpt>
      <trkpt lat="45.58786" lon="6.61916">
        <ele>2386.8000488281</ele>
        <time>2019-12-30T10:46:11.000Z</time>
      </trkpt>
      <trkpt lat="45.58786" lon="6.61916">
        <ele>2386.8000488281</ele>
        <time>2019-12-30T10:46:31.000Z</time>
      </trkpt>
      <trkpt lat="45.58786" lon="6.61916">
        <ele>2387</ele>
        <time>2019-12-30T10:46:50.000Z</time>
      </trkpt>
      <trkpt lat="45.58786" lon="6.61916">
        <ele>2386.8000488281</ele>
        <time>2019-12-30T10:47:07.000Z</time>
      </trkpt>
      <trkpt lat="45.58787" lon="6.61915">
        <ele>2386.6000976562</ele>
        <time>2019-12-30T10:47:09.000Z</time>
      </trkpt>
      <trkpt lat="45.58789" lon="6.61914">
        <ele>2386.1999511719</ele>
        <time>2019-12-30T10:47:12.000Z</time>
      </trkpt>
      <trkpt lat="45.58789" lon="6.61915">
        <ele>2385.8000488281</ele>
        <time>2019-12-30T10:47:14.000Z</time>
      </trkpt>
      <trkpt lat="45.58789" lon="6.61922">
        <ele>2385</ele>
        <time>2019-12-30T10:47:16.000Z</time>
      </trkpt>
      <trkpt lat="45.58789" lon="6.61925">
        <ele>2384.6000976562</ele>
        <time>2019-12-30T10:47:17.000Z</time>
      </trkpt>
      <trkpt lat="45.58793" lon="6.61927">
        <ele>2384</ele>
        <time>2019-12-30T10:47:19.000Z</time>
      </trkpt>
      <trkpt lat="45.58797" lon="6.61932">
        <ele>2383.3999023438</ele>
        <time>2019-12-30T10:47:21.000Z</time>
      </trkpt>
      <trkpt lat="45.58797" lon="6.61935">
        <ele>2382.6000976562</ele>
        <time>2019-12-30T10:47:22.000Z</time>
      </trkpt>
      <trkpt lat="45.58797" lon="6.61938">
        <ele>2381.1999511719</ele>
        <time>2019-12-30T10:47:23.000Z</time>
      </trkpt>
      <trkpt lat="45.588" lon="6.61938">
        <ele>2379.1999511719</ele>
        <time>2019-12-30T10:47:24.000Z</time>
      </trkpt>
      <trkpt lat="45.58803" lon="6.61938">
        <ele>2377.8000488281</ele>
        <time>2019-12-30T10:47:25.000Z</time>
      </trkpt>
      <trkpt lat="45.5881" lon="6.61933">
        <ele>2376.1999511719</ele>
        <time>2019-12-30T10:47:27.000Z</time>
      </trkpt>
      <trkpt lat="45.58813" lon="6.61931">
        <ele>2375.3999023438</ele>
        <time>2019-12-30T10:47:28.000Z</time>
      </trkpt>
      <trkpt lat="45.58815" lon="6.6193">
        <ele>2374.1999511719</ele>
        <time>2019-12-30T10:47:29.000Z</time>
      </trkpt>
      <trkpt lat="45.58816" lon="6.61931">
        <ele>2372.8000488281</ele>
        <time>2019-12-30T10:47:30.000Z</time>
      </trkpt>
      <trkpt lat="45.58818" lon="6.61933">
        <ele>2371.3999023438</ele>
        <time>2019-12-30T10:47:31.000Z</time>
      </trkpt>
      <trkpt lat="45.58822" lon="6.61934">
        <ele>2370</ele>
        <time>2019-12-30T10:47:32.000Z</time>
      </trkpt>
      <trkpt lat="45.58825" lon="6.61933">
        <ele>2368.3999023438</ele>
        <time>2019-12-30T10:47:33.000Z</time>
      </trkpt>
      <trkpt lat="45.58827" lon="6.61935">
        <ele>2367.1999511719</ele>
        <time>2019-12-30T10:47:34.000Z</time>
      </trkpt>
      <trkpt lat="45.58829" lon="6.61938">
        <ele>2366.6000976562</ele>
        <time>2019-12-30T10:47:35.000Z</time>
      </trkpt>
      <trkpt lat="45.5883" lon="6.6194">
        <ele>2364.1999511719</ele>
        <time>2019-12-30T10:47:36.000Z</time>
      </trkpt>
      <trkpt lat="45.58832" lon="6.61941">
        <ele>2362.3999023438</ele>
        <time>2019-12-30T10:47:37.000Z</time>
      </trkpt>
      <trkpt lat="45.58835" lon="6.61939">
        <ele>2361.1999511719</ele>
        <time>2019-12-30T10:47:38.000Z</time>
      </trkpt>
      <trkpt lat="45.58839" lon="6.61938">
        <ele>2359.6000976562</ele>
        <time>2019-12-30T10:47:40.000Z</time>
      </trkpt>
      <trkpt lat="45.58842" lon="6.6194">
        <ele>2358.3999023438</ele>
        <time>2019-12-30T10:47:41.000Z</time>
      </trkpt>
      <trkpt lat="45.58843" lon="6.61944">
        <ele>2356.6000976562</ele>
        <time>2019-12-30T10:47:42.000Z</time>
      </trkpt>
      <trkpt lat="45.58845" lon="6.61947">
        <ele>2354.6000976562</ele>
        <time>2019-12-30T10:47:43.000Z</time>
      </trkpt>
      <trkpt lat="45.58848" lon="6.61947">
        <ele>2353</ele>
        <time>2019-12-30T10:47:44.000Z</time>
      </trkpt>
      <trkpt lat="45.58852" lon="6.61947">
        <ele>2352</ele>
        <time>2019-12-30T10:47:45.000Z</time>
      </trkpt>
      <trkpt lat="45.58855" lon="6.61948">
        <ele>2351.1999511719</ele>
        <time>2019-12-30T10:47:46.000Z</time>
      </trkpt>
      <trkpt lat="45.58856" lon="6.61952">
        <ele>2350</ele>
        <time>2019-12-30T10:47:47.000Z</time>
      </trkpt>
      <trkpt lat="45.58857" lon="6.61955">
        <ele>2348.3999023438</ele>
        <time>2019-12-30T10:47:48.000Z</time>
      </trkpt>
      <trkpt lat="45.58858" lon="6.61957">
        <ele>2346.1999511719</ele>
        <time>2019-12-30T10:47:49.000Z</time>
      </trkpt>
      <trkpt lat="45.5886" lon="6.61959">
        <ele>2344</ele>
        <time>2019-12-30T10:47:50.000Z</time>
      </trkpt>
      <trkpt lat="45.58863" lon="6.6196">
        <ele>2342.6000976562</ele>
        <time>2019-12-30T10:47:51.000Z</time>
      </trkpt>
      <trkpt lat="45.58865" lon="6.61962">
        <ele>2341.6000976562</ele>
        <time>2019-12-30T10:47:52.000Z</time>
      </trkpt>
      <trkpt lat="45.58869" lon="6.61962">
        <ele>2340.6000976562</ele>
        <time>2019-12-30T10:47:53.000Z</time>
      </trkpt>
      <trkpt lat="45.58872" lon="6.61964">
        <ele>2339</ele>
        <time>2019-12-30T10:47:54.000Z</time>
      </trkpt>
      <trkpt lat="45.58875" lon="6.61967">
        <ele>2337.1999511719</ele>
        <time>2019-12-30T10:47:55.000Z</time>
      </trkpt>
      <trkpt lat="45.58877" lon="6.6197">
        <ele>2335</ele>
        <time>2019-12-30T10:47:56.000Z</time>
      </trkpt>
      <trkpt lat="45.58878" lon="6.61973">
        <ele>2333</ele>
        <time>2019-12-30T10:47:57.000Z</time>
      </trkpt>
      <trkpt lat="45.5888" lon="6.61977">
        <ele>2331.3999023438</ele>
        <time>2019-12-30T10:47:58.000Z</time>
      </trkpt>
      <trkpt lat="45.58885" lon="6.61978">
        <ele>2330.3999023438</ele>
        <time>2019-12-30T10:47:59.000Z</time>
      </trkpt>
      <trkpt lat="45.58889" lon="6.61979">
        <ele>2328.6000976562</ele>
        <time>2019-12-30T10:48:00.000Z</time>
      </trkpt>
      <trkpt lat="45.58893" lon="6.6198">
        <ele>2327.1999511719</ele>
        <time>2019-12-30T10:48:01.000Z</time>
      </trkpt>
      <trkpt lat="45.58895" lon="6.61981">
        <ele>2325.6000976562</ele>
        <time>2019-12-30T10:48:02.000Z</time>
      </trkpt>
      <trkpt lat="45.58898" lon="6.61981">
        <ele>2324.3999023438</ele>
        <time>2019-12-30T10:48:03.000Z</time>
      </trkpt>
      <trkpt lat="45.589" lon="6.61981">
        <ele>2323.6000976562</ele>
        <time>2019-12-30T10:48:04.000Z</time>
      </trkpt>
      <trkpt lat="45.58901" lon="6.61981">
        <ele>2322.8000488281</ele>
        <time>2019-12-30T10:48:05.000Z</time>
      </trkpt>
      <trkpt lat="45.58897" lon="6.6198">
        <ele>2322</ele>
        <time>2019-12-30T10:48:09.000Z</time>
      </trkpt>
      <trkpt lat="45.58897" lon="6.6198">
        <ele>2321.8000488281</ele>
        <time>2019-12-30T10:48:11.000Z</time>
      </trkpt>
      <trkpt lat="45.58897" lon="6.6198">
        <ele>2322</ele>
        <time>2019-12-30T10:48:27.000Z</time>
      </trkpt>
      <trkpt lat="45.58897" lon="6.6198">
        <ele>2322</ele>
        <time>2019-12-30T10:48:45.000Z</time>
      </trkpt>
      <trkpt lat="45.58897" lon="6.61979">
        <ele>2322</ele>
        <time>2019-12-30T10:49:02.000Z</time>
      </trkpt>
      <trkpt lat="45.58897" lon="6.61979">
        <ele>2322.1999511719</ele>
        <time>2019-12-30T10:49:12.000Z</time>
      </trkpt>
      <trkpt lat="45.58897" lon="6.6198">
        <ele>2321.8000488281</ele>
        <time>2019-12-30T10:49:31.000Z</time>
      </trkpt>
      <trkpt lat="45.58892" lon="6.6198">
        <ele>2321.8000488281</ele>
        <time>2019-12-30T10:49:32.000Z</time>
      </trkpt>
      <trkpt lat="45.58879" lon="6.61976">
        <ele>2321.3999023438</ele>
        <time>2019-12-30T10:49:34.000Z</time>
      </trkpt>
      <trkpt lat="45.58872" lon="6.61975">
        <ele>2319.3999023438</ele>
        <time>2019-12-30T10:49:36.000Z</time>
      </trkpt>
      <trkpt lat="45.58871" lon="6.61976">
        <ele>2318.1999511719</ele>
        <time>2019-12-30T10:49:39.000Z</time>
      </trkpt>
      <trkpt lat="45.58871" lon="6.61981">
        <ele>2317.8000488281</ele>
        <time>2019-12-30T10:49:42.000Z</time>
      </trkpt>
      <trkpt lat="45.58873" lon="6.61983">
        <ele>2317.8000488281</ele>
        <time>2019-12-30T10:49:43.000Z</time>
      </trkpt>
      <trkpt lat="45.58872" lon="6.61987">
        <ele>2317</ele>
        <time>2019-12-30T10:49:46.000Z</time>
      </trkpt>
      <trkpt lat="45.58873" lon="6.61989">
        <ele>2315.8000488281</ele>
        <time>2019-12-30T10:49:47.000Z</time>
      </trkpt>
      <trkpt lat="45.58875" lon="6.6199">
        <ele>2314.1999511719</ele>
        <time>2019-12-30T10:49:48.000Z</time>
      </trkpt>
      <trkpt lat="45.58876" lon="6.61991">
        <ele>2313.1999511719</ele>
        <time>2019-12-30T10:49:49.000Z</time>
      </trkpt>
      <trkpt lat="45.58876" lon="6.61992">
        <ele>2312.6000976562</ele>
        <time>2019-12-30T10:49:50.000Z</time>
      </trkpt>
      <trkpt lat="45.58876" lon="6.61992">
        <ele>2312</ele>
        <time>2019-12-30T10:49:51.000Z</time>
      </trkpt>
      <trkpt lat="45.58875" lon="6.61993">
        <ele>2310.8000488281</ele>
        <time>2019-12-30T10:49:52.000Z</time>
      </trkpt>
      <trkpt lat="45.58875" lon="6.61994">
        <ele>2309.1999511719</ele>
        <time>2019-12-30T10:49:53.000Z</time>
      </trkpt>
      <trkpt lat="45.58876" lon="6.61996">
        <ele>2307.6000976562</ele>
        <time>2019-12-30T10:49:54.000Z</time>
      </trkpt>
      <trkpt lat="45.58877" lon="6.61998">
        <ele>2306.1999511719</ele>
        <time>2019-12-30T10:49:55.000Z</time>
      </trkpt>
      <trkpt lat="45.58879" lon="6.62003">
        <ele>2304.8000488281</ele>
        <time>2019-12-30T10:49:57.000Z</time>
      </trkpt>
      <trkpt lat="45.58878" lon="6.62004">
        <ele>2302.3999023438</ele>
        <time>2019-12-30T10:49:59.000Z</time>
      </trkpt>
      <trkpt lat="45.58876" lon="6.62006">
        <ele>2299</ele>
        <time>2019-12-30T10:50:00.000Z</time>
      </trkpt>
      <trkpt lat="45.58878" lon="6.6201">
        <ele>2297.3999023438</ele>
        <time>2019-12-30T10:50:02.000Z</time>
      </trkpt>
      <trkpt lat="45.58879" lon="6.62011">
        <ele>2297</ele>
        <time>2019-12-30T10:50:03.000Z</time>
      </trkpt>
      <trkpt lat="45.58877" lon="6.62015">
        <ele>2296.1999511719</ele>
        <time>2019-12-30T10:50:05.000Z</time>
      </trkpt>
      <trkpt lat="45.58876" lon="6.62017">
        <ele>2295.3999023438</ele>
        <time>2019-12-30T10:50:06.000Z</time>
      </trkpt>
      <trkpt lat="45.58878" lon="6.62019">
        <ele>2293.8000488281</ele>
        <time>2019-12-30T10:50:07.000Z</time>
      </trkpt>
      <trkpt lat="45.58879" lon="6.6202">
        <ele>2292.6000976562</ele>
        <time>2019-12-30T10:50:08.000Z</time>
      </trkpt>
      <trkpt lat="45.58881" lon="6.6202">
        <ele>2291.8000488281</ele>
        <time>2019-12-30T10:50:09.000Z</time>
      </trkpt>
      <trkpt lat="45.58881" lon="6.62021">
        <ele>2291.1999511719</ele>
        <time>2019-12-30T10:50:10.000Z</time>
      </trkpt>
      <trkpt lat="45.5888" lon="6.62024">
        <ele>2289.1999511719</ele>
        <time>2019-12-30T10:50:12.000Z</time>
      </trkpt>
      <trkpt lat="45.58878" lon="6.62026">
        <ele>2287.3999023438</ele>
        <time>2019-12-30T10:50:13.000Z</time>
      </trkpt>
      <trkpt lat="45.58876" lon="6.62028">
        <ele>2286</ele>
        <time>2019-12-30T10:50:14.000Z</time>
      </trkpt>
      <trkpt lat="45.58873" lon="6.62032">
        <ele>2284.8000488281</ele>
        <time>2019-12-30T10:50:15.000Z</time>
      </trkpt>
      <trkpt lat="45.58867" lon="6.62042">
        <ele>2283.6000976562</ele>
        <time>2019-12-30T10:50:17.000Z</time>
      </trkpt>
      <trkpt lat="45.58865" lon="6.62046">
        <ele>2283</ele>
        <time>2019-12-30T10:50:18.000Z</time>
      </trkpt>
      <trkpt lat="45.58865" lon="6.62051">
        <ele>2282</ele>
        <time>2019-12-30T10:50:19.000Z</time>
      </trkpt>
      <trkpt lat="45.58868" lon="6.62057">
        <ele>2280.3999023438</ele>
        <time>2019-12-30T10:50:21.000Z</time>
      </trkpt>
      <trkpt lat="45.58869" lon="6.62066">
        <ele>2278.8000488281</ele>
        <time>2019-12-30T10:50:23.000Z</time>
      </trkpt>
      <trkpt lat="45.5887" lon="6.62071">
        <ele>2276.1999511719</ele>
        <time>2019-12-30T10:50:24.000Z</time>
      </trkpt>
      <trkpt lat="45.58873" lon="6.62071">
        <ele>2275</ele>
        <time>2019-12-30T10:50:25.000Z</time>
      </trkpt>
      <trkpt lat="45.5888" lon="6.62073">
        <ele>2273.3999023438</ele>
        <time>2019-12-30T10:50:27.000Z</time>
      </trkpt>
      <trkpt lat="45.58882" lon="6.62076">
        <ele>2272.1999511719</ele>
        <time>2019-12-30T10:50:28.000Z</time>
      </trkpt>
      <trkpt lat="45.58885" lon="6.6208">
        <ele>2270.3999023438</ele>
        <time>2019-12-30T10:50:29.000Z</time>
      </trkpt>
      <trkpt lat="45.58889" lon="6.6208">
        <ele>2268.1999511719</ele>
        <time>2019-12-30T10:50:30.000Z</time>
      </trkpt>
      <trkpt lat="45.58893" lon="6.6208">
        <ele>2266.3999023438</ele>
        <time>2019-12-30T10:50:31.000Z</time>
      </trkpt>
      <trkpt lat="45.58897" lon="6.62081">
        <ele>2265</ele>
        <time>2019-12-30T10:50:32.000Z</time>
      </trkpt>
      <trkpt lat="45.58899" lon="6.62085">
        <ele>2263.8000488281</ele>
        <time>2019-12-30T10:50:33.000Z</time>
      </trkpt>
      <trkpt lat="45.58901" lon="6.62089">
        <ele>2261.8000488281</ele>
        <time>2019-12-30T10:50:34.000Z</time>
      </trkpt>
      <trkpt lat="45.58905" lon="6.62089">
        <ele>2259.3999023438</ele>
        <time>2019-12-30T10:50:35.000Z</time>
      </trkpt>
      <trkpt lat="45.58909" lon="6.62089">
        <ele>2257.1999511719</ele>
        <time>2019-12-30T10:50:36.000Z</time>
      </trkpt>
      <trkpt lat="45.58913" lon="6.62088">
        <ele>2255.6000976562</ele>
        <time>2019-12-30T10:50:37.000Z</time>
      </trkpt>
      <trkpt lat="45.58917" lon="6.6209">
        <ele>2254.3999023438</ele>
        <time>2019-12-30T10:50:38.000Z</time>
      </trkpt>
      <trkpt lat="45.58917" lon="6.62093">
        <ele>2252.8000488281</ele>
        <time>2019-12-30T10:50:39.000Z</time>
      </trkpt>
      <trkpt lat="45.5892" lon="6.62096">
        <ele>2250.3999023438</ele>
        <time>2019-12-30T10:50:40.000Z</time>
      </trkpt>
      <trkpt lat="45.58923" lon="6.62097">
        <ele>2248</ele>
        <time>2019-12-30T10:50:41.000Z</time>
      </trkpt>
      <trkpt lat="45.58926" lon="6.62097">
        <ele>2246</ele>
        <time>2019-12-30T10:50:42.000Z</time>
      </trkpt>
      <trkpt lat="45.5893" lon="6.62097">
        <ele>2244.8000488281</ele>
        <time>2019-12-30T10:50:43.000Z</time>
      </trkpt>
      <trkpt lat="45.58933" lon="6.62095">
        <ele>2243.8000488281</ele>
        <time>2019-12-30T10:50:44.000Z</time>
      </trkpt>
      <trkpt lat="45.58936" lon="6.62092">
        <ele>2242.3999023438</ele>
        <time>2019-12-30T10:50:45.000Z</time>
      </trkpt>
      <trkpt lat="45.58939" lon="6.62091">
        <ele>2240.3999023438</ele>
        <time>2019-12-30T10:50:46.000Z</time>
      </trkpt>
      <trkpt lat="45.58943" lon="6.62089">
        <ele>2238.6000976562</ele>
        <time>2019-12-30T10:50:47.000Z</time>
      </trkpt>
      <trkpt lat="45.58945" lon="6.62089">
        <ele>2235.6000976562</ele>
        <time>2019-12-30T10:50:48.000Z</time>
      </trkpt>
      <trkpt lat="45.58947" lon="6.62089">
        <ele>2234.6000976562</ele>
        <time>2019-12-30T10:50:49.000Z</time>
      </trkpt>
      <trkpt lat="45.58947" lon="6.62089">
        <ele>2233.6000976562</ele>
        <time>2019-12-30T10:50:50.000Z</time>
      </trkpt>
      <trkpt lat="45.58946" lon="6.62088">
        <ele>2233</ele>
        <time>2019-12-30T10:50:51.000Z</time>
      </trkpt>
      <trkpt lat="45.58946" lon="6.62086">
        <ele>2232.3999023438</ele>
        <time>2019-12-30T10:50:58.000Z</time>
      </trkpt>
      <trkpt lat="45.58949" lon="6.62085">
        <ele>2232.3999023438</ele>
        <time>2019-12-30T10:51:01.000Z</time>
      </trkpt>
      <trkpt lat="45.5895" lon="6.62088">
        <ele>2232.3999023438</ele>
        <time>2019-12-30T10:51:02.000Z</time>
      </trkpt>
      <trkpt lat="45.58945" lon="6.62095">
        <ele>2231.6000976562</ele>
        <time>2019-12-30T10:51:04.000Z</time>
      </trkpt>
      <trkpt lat="45.58946" lon="6.62098">
        <ele>2230.3999023438</ele>
        <time>2019-12-30T10:51:05.000Z</time>
      </trkpt>
      <trkpt lat="45.58948" lon="6.62099">
        <ele>2229.1999511719</ele>
        <time>2019-12-30T10:51:06.000Z</time>
      </trkpt>
      <trkpt lat="45.58951" lon="6.621">
        <ele>2228.1999511719</ele>
        <time>2019-12-30T10:51:07.000Z</time>
      </trkpt>
      <trkpt lat="45.58953" lon="6.621">
        <ele>2227.3999023438</ele>
        <time>2019-12-30T10:51:08.000Z</time>
      </trkpt>
      <trkpt lat="45.58958" lon="6.62104">
        <ele>2225.1999511719</ele>
        <time>2019-12-30T10:51:10.000Z</time>
      </trkpt>
      <trkpt lat="45.58956" lon="6.62107">
        <ele>2223.3999023438</ele>
        <time>2019-12-30T10:51:11.000Z</time>
      </trkpt>
      <trkpt lat="45.58958" lon="6.62109">
        <ele>2219.6000976562</ele>
        <time>2019-12-30T10:51:12.000Z</time>
      </trkpt>
      <trkpt lat="45.58962" lon="6.62109">
        <ele>2218</ele>
        <time>2019-12-30T10:51:13.000Z</time>
      </trkpt>
      <trkpt lat="45.58965" lon="6.62111">
        <ele>2216.8000488281</ele>
        <time>2019-12-30T10:51:14.000Z</time>
      </trkpt>
      <trkpt lat="45.58965" lon="6.62115">
        <ele>2215.6000976562</ele>
        <time>2019-12-30T10:51:15.000Z</time>
      </trkpt>
      <trkpt lat="45.58967" lon="6.62118">
        <ele>2213.8000488281</ele>
        <time>2019-12-30T10:51:16.000Z</time>
      </trkpt>
      <trkpt lat="45.58966" lon="6.6212">
        <ele>2211.1999511719</ele>
        <time>2019-12-30T10:51:17.000Z</time>
      </trkpt>
      <trkpt lat="45.58966" lon="6.62125">
        <ele>2208.8000488281</ele>
        <time>2019-12-30T10:51:18.000Z</time>
      </trkpt>
      <trkpt lat="45.58968" lon="6.62128">
        <ele>2207.1999511719</ele>
        <time>2019-12-30T10:51:19.000Z</time>
      </trkpt>
      <trkpt lat="45.58972" lon="6.62127">
        <ele>2206.1999511719</ele>
        <time>2019-12-30T10:51:20.000Z</time>
      </trkpt>
      <trkpt lat="45.58976" lon="6.62129">
        <ele>2205</ele>
        <time>2019-12-30T10:51:21.000Z</time>
      </trkpt>
      <trkpt lat="45.5898" lon="6.62132">
        <ele>2203.3999023438</ele>
        <time>2019-12-30T10:51:22.000Z</time>
      </trkpt>
      <trkpt lat="45.58982" lon="6.62134">
        <ele>2201</ele>
        <time>2019-12-30T10:51:23.000Z</time>
      </trkpt>
      <trkpt lat="45.58983" lon="6.62139">
        <ele>2198.1999511719</ele>
        <time>2019-12-30T10:51:24.000Z</time>
      </trkpt>
      <trkpt lat="45.58983" lon="6.62145">
        <ele>2195.6000976562</ele>
        <time>2019-12-30T10:51:25.000Z</time>
      </trkpt>
      <trkpt lat="45.58988" lon="6.62147">
        <ele>2193.8000488281</ele>
        <time>2019-12-30T10:51:26.000Z</time>
      </trkpt>
      <trkpt lat="45.58993" lon="6.62151">
        <ele>2192.6000976562</ele>
        <time>2019-12-30T10:51:27.000Z</time>
      </trkpt>
      <trkpt lat="45.58998" lon="6.62154">
        <ele>2191.3999023438</ele>
        <time>2019-12-30T10:51:28.000Z</time>
      </trkpt>
      <trkpt lat="45.59002" lon="6.62156">
        <ele>2189.6000976562</ele>
        <time>2019-12-30T10:51:29.000Z</time>
      </trkpt>
      <trkpt lat="45.59005" lon="6.62161">
        <ele>2187</ele>
        <time>2019-12-30T10:51:30.000Z</time>
      </trkpt>
      <trkpt lat="45.59008" lon="6.62163">
        <ele>2184.1999511719</ele>
        <time>2019-12-30T10:51:31.000Z</time>
      </trkpt>
      <trkpt lat="45.59011" lon="6.62165">
        <ele>2182.1999511719</ele>
        <time>2019-12-30T10:51:32.000Z</time>
      </trkpt>
      <trkpt lat="45.59015" lon="6.62165">
        <ele>2181</ele>
        <time>2019-12-30T10:51:33.000Z</time>
      </trkpt>
      <trkpt lat="45.59017" lon="6.62166">
        <ele>2179.8000488281</ele>
        <time>2019-12-30T10:51:34.000Z</time>
      </trkpt>
      <trkpt lat="45.59018" lon="6.62167">
        <ele>2177.8000488281</ele>
        <time>2019-12-30T10:51:35.000Z</time>
      </trkpt>
      <trkpt lat="45.59018" lon="6.62171">
        <ele>2175.3999023438</ele>
        <time>2019-12-30T10:51:36.000Z</time>
      </trkpt>
      <trkpt lat="45.59019" lon="6.62174">
        <ele>2171</ele>
        <time>2019-12-30T10:51:37.000Z</time>
      </trkpt>
      <trkpt lat="45.59021" lon="6.62177">
        <ele>2169.8000488281</ele>
        <time>2019-12-30T10:51:38.000Z</time>
      </trkpt>
      <trkpt lat="45.59023" lon="6.62179">
        <ele>2168.8000488281</ele>
        <time>2019-12-30T10:51:39.000Z</time>
      </trkpt>
      <trkpt lat="45.59026" lon="6.62181">
        <ele>2167.3999023438</ele>
        <time>2019-12-30T10:51:40.000Z</time>
      </trkpt>
      <trkpt lat="45.59028" lon="6.62184">
        <ele>2165.1999511719</ele>
        <time>2019-12-30T10:51:41.000Z</time>
      </trkpt>
      <trkpt lat="45.59029" lon="6.62188">
        <ele>2162.8000488281</ele>
        <time>2019-12-30T10:51:42.000Z</time>
      </trkpt>
      <trkpt lat="45.59029" lon="6.62193">
        <ele>2161.3999023438</ele>
        <time>2019-12-30T10:51:43.000Z</time>
      </trkpt>
      <trkpt lat="45.59033" lon="6.62197">
        <ele>2159.3999023438</ele>
        <time>2019-12-30T10:51:45.000Z</time>
      </trkpt>
      <trkpt lat="45.59035" lon="6.62198">
        <ele>2158</ele>
        <time>2019-12-30T10:51:46.000Z</time>
      </trkpt>
      <trkpt lat="45.59037" lon="6.62199">
        <ele>2156.8000488281</ele>
        <time>2019-12-30T10:51:47.000Z</time>
      </trkpt>
      <trkpt lat="45.59038" lon="6.622">
        <ele>2155.8000488281</ele>
        <time>2019-12-30T10:51:48.000Z</time>
      </trkpt>
      <trkpt lat="45.5904" lon="6.62202">
        <ele>2155.1999511719</ele>
        <time>2019-12-30T10:51:49.000Z</time>
      </trkpt>
      <trkpt lat="45.5905" lon="6.62208">
        <ele>2154.3999023438</ele>
        <time>2019-12-30T10:51:59.000Z</time>
      </trkpt>
      <trkpt lat="45.59049" lon="6.6221">
        <ele>2154.6000976562</ele>
        <time>2019-12-30T10:52:09.000Z</time>
      </trkpt>
      <trkpt lat="45.59049" lon="6.6221">
        <ele>2154.6000976562</ele>
        <time>2019-12-30T10:52:28.000Z</time>
      </trkpt>
      <trkpt lat="45.59048" lon="6.6221">
        <ele>2154.6000976562</ele>
        <time>2019-12-30T10:52:45.000Z</time>
      </trkpt>
      <trkpt lat="45.59049" lon="6.62212">
        <ele>2154.3999023438</ele>
        <time>2019-12-30T10:52:51.000Z</time>
      </trkpt>
      <trkpt lat="45.59045" lon="6.62217">
        <ele>2154.1999511719</ele>
        <time>2019-12-30T10:52:52.000Z</time>
      </trkpt>
      <trkpt lat="45.59041" lon="6.62221">
        <ele>2153</ele>
        <time>2019-12-30T10:52:54.000Z</time>
      </trkpt>
      <trkpt lat="45.5904" lon="6.62225">
        <ele>2152.3999023438</ele>
        <time>2019-12-30T10:52:55.000Z</time>
      </trkpt>
      <trkpt lat="45.5904" lon="6.62227">
        <ele>2151.3999023438</ele>
        <time>2019-12-30T10:52:56.000Z</time>
      </trkpt>
      <trkpt lat="45.59038" lon="6.62231">
        <ele>2150.1999511719</ele>
        <time>2019-12-30T10:52:57.000Z</time>
      </trkpt>
      <trkpt lat="45.59037" lon="6.62236">
        <ele>2148.6000976562</ele>
        <time>2019-12-30T10:52:58.000Z</time>
      </trkpt>
      <trkpt lat="45.59039" lon="6.62239">
        <ele>2147</ele>
        <time>2019-12-30T10:52:59.000Z</time>
      </trkpt>
      <trkpt lat="45.59041" lon="6.62242">
        <ele>2145.1999511719</ele>
        <time>2019-12-30T10:53:00.000Z</time>
      </trkpt>
      <trkpt lat="45.59044" lon="6.62242">
        <ele>2143.3999023438</ele>
        <time>2019-12-30T10:53:01.000Z</time>
      </trkpt>
      <trkpt lat="45.59047" lon="6.62243">
        <ele>2141.6000976562</ele>
        <time>2019-12-30T10:53:02.000Z</time>
      </trkpt>
      <trkpt lat="45.59049" lon="6.62243">
        <ele>2139.6000976562</ele>
        <time>2019-12-30T10:53:03.000Z</time>
      </trkpt>
      <trkpt lat="45.59053" lon="6.6224">
        <ele>2137.6000976562</ele>
        <time>2019-12-30T10:53:04.000Z</time>
      </trkpt>
      <trkpt lat="45.5906" lon="6.62234">
        <ele>2135.8000488281</ele>
        <time>2019-12-30T10:53:05.000Z</time>
      </trkpt>
      <trkpt lat="45.59065" lon="6.62231">
        <ele>2134.3999023438</ele>
        <time>2019-12-30T10:53:06.000Z</time>
      </trkpt>
      <trkpt lat="45.59068" lon="6.6223">
        <ele>2133.3999023438</ele>
        <time>2019-12-30T10:53:07.000Z</time>
      </trkpt>
      <trkpt lat="45.59068" lon="6.62232">
        <ele>2132.6000976562</ele>
        <time>2019-12-30T10:53:08.000Z</time>
      </trkpt>
      <trkpt lat="45.59069" lon="6.62236">
        <ele>2131.8000488281</ele>
        <time>2019-12-30T10:53:09.000Z</time>
      </trkpt>
      <trkpt lat="45.59072" lon="6.62242">
        <ele>2130.8000488281</ele>
        <time>2019-12-30T10:53:10.000Z</time>
      </trkpt>
      <trkpt lat="45.59075" lon="6.62247">
        <ele>2130</ele>
        <time>2019-12-30T10:53:11.000Z</time>
      </trkpt>
      <trkpt lat="45.59083" lon="6.62257">
        <ele>2126.6000976562</ele>
        <time>2019-12-30T10:53:13.000Z</time>
      </trkpt>
      <trkpt lat="45.59087" lon="6.62261">
        <ele>2124.8000488281</ele>
        <time>2019-12-30T10:53:14.000Z</time>
      </trkpt>
      <trkpt lat="45.59098" lon="6.62254">
        <ele>2122.6000976562</ele>
        <time>2019-12-30T10:53:15.000Z</time>
      </trkpt>
      <trkpt lat="45.59106" lon="6.62251">
        <ele>2120.1999511719</ele>
        <time>2019-12-30T10:53:16.000Z</time>
      </trkpt>
      <trkpt lat="45.59111" lon="6.62251">
        <ele>2118.1999511719</ele>
        <time>2019-12-30T10:53:17.000Z</time>
      </trkpt>
      <trkpt lat="45.59116" lon="6.62252">
        <ele>2116.3999023438</ele>
        <time>2019-12-30T10:53:18.000Z</time>
      </trkpt>
      <trkpt lat="45.5912" lon="6.62252">
        <ele>2115</ele>
        <time>2019-12-30T10:53:19.000Z</time>
      </trkpt>
      <trkpt lat="45.59125" lon="6.62252">
        <ele>2114</ele>
        <time>2019-12-30T10:53:20.000Z</time>
      </trkpt>
      <trkpt lat="45.5913" lon="6.62252">
        <ele>2113.3999023438</ele>
        <time>2019-12-30T10:53:21.000Z</time>
      </trkpt>
      <trkpt lat="45.59139" lon="6.62253">
        <ele>2113</ele>
        <time>2019-12-30T10:53:23.000Z</time>
      </trkpt>
      <trkpt lat="45.59164" lon="6.62255">
        <ele>2112.6000976562</ele>
        <time>2019-12-30T10:53:29.000Z</time>
      </trkpt>
      <trkpt lat="45.59169" lon="6.62256">
        <ele>2112.8000488281</ele>
        <time>2019-12-30T10:53:33.000Z</time>
      </trkpt>
      <trkpt lat="45.59151" lon="6.62253">
        <ele>2112.8000488281</ele>
        <time>2019-12-30T10:53:40.000Z</time>
      </trkpt>
      <trkpt lat="45.59151" lon="6.62253">
        <ele>2112.8000488281</ele>
        <time>2019-12-30T10:53:56.000Z</time>
      </trkpt>
      <trkpt lat="45.59144" lon="6.62248">
        <ele>2112.8000488281</ele>
        <time>2019-12-30T10:54:06.000Z</time>
      </trkpt>
      <trkpt lat="45.59144" lon="6.62246">
        <ele>2112.6000976562</ele>
        <time>2019-12-30T10:54:07.000Z</time>
      </trkpt>
      <trkpt lat="45.59143" lon="6.62242">
        <ele>2112.1999511719</ele>
        <time>2019-12-30T10:54:09.000Z</time>
      </trkpt>
      <trkpt lat="45.59142" lon="6.6224">
        <ele>2111.8000488281</ele>
        <time>2019-12-30T10:54:10.000Z</time>
      </trkpt>
      <trkpt lat="45.59141" lon="6.6224">
        <ele>2110.8000488281</ele>
        <time>2019-12-30T10:54:12.000Z</time>
      </trkpt>
      <trkpt lat="45.59134" lon="6.62241">
        <ele>2110.1999511719</ele>
        <time>2019-12-30T10:54:13.000Z</time>
      </trkpt>
      <trkpt lat="45.5913" lon="6.6225">
        <ele>2108.6000976562</ele>
        <time>2019-12-30T10:54:15.000Z</time>
      </trkpt>
      <trkpt lat="45.5913" lon="6.62253">
        <ele>2107.1999511719</ele>
        <time>2019-12-30T10:54:16.000Z</time>
      </trkpt>
      <trkpt lat="45.5913" lon="6.62259">
        <ele>2106</ele>
        <time>2019-12-30T10:54:17.000Z</time>
      </trkpt>
      <trkpt lat="45.59129" lon="6.6227">
        <ele>2104.1999511719</ele>
        <time>2019-12-30T10:54:19.000Z</time>
      </trkpt>
      <trkpt lat="45.59129" lon="6.62274">
        <ele>2102.3999023438</ele>
        <time>2019-12-30T10:54:20.000Z</time>
      </trkpt>
      <trkpt lat="45.59131" lon="6.62279">
        <ele>2100.3999023438</ele>
        <time>2019-12-30T10:54:21.000Z</time>
      </trkpt>
      <trkpt lat="45.59132" lon="6.62284">
        <ele>2098.8000488281</ele>
        <time>2019-12-30T10:54:22.000Z</time>
      </trkpt>
      <trkpt lat="45.59136" lon="6.62285">
        <ele>2097.1999511719</ele>
        <time>2019-12-30T10:54:23.000Z</time>
      </trkpt>
      <trkpt lat="45.59141" lon="6.62286">
        <ele>2095</ele>
        <time>2019-12-30T10:54:24.000Z</time>
      </trkpt>
      <trkpt lat="45.59145" lon="6.62288">
        <ele>2090.8000488281</ele>
        <time>2019-12-30T10:54:25.000Z</time>
      </trkpt>
      <trkpt lat="45.5915" lon="6.62293">
        <ele>2089.1999511719</ele>
        <time>2019-12-30T10:54:26.000Z</time>
      </trkpt>
      <trkpt lat="45.59155" lon="6.62299">
        <ele>2087.1999511719</ele>
        <time>2019-12-30T10:54:27.000Z</time>
      </trkpt>
      <trkpt lat="45.59159" lon="6.62305">
        <ele>2085.1999511719</ele>
        <time>2019-12-30T10:54:28.000Z</time>
      </trkpt>
      <trkpt lat="45.59162" lon="6.62313">
        <ele>2083.8000488281</ele>
        <time>2019-12-30T10:54:29.000Z</time>
      </trkpt>
      <trkpt lat="45.59167" lon="6.6232">
        <ele>2082.3999023438</ele>
        <time>2019-12-30T10:54:30.000Z</time>
      </trkpt>
      <trkpt lat="45.59172" lon="6.62325">
        <ele>2081</ele>
        <time>2019-12-30T10:54:31.000Z</time>
      </trkpt>
      <trkpt lat="45.59177" lon="6.62329">
        <ele>2079.6000976562</ele>
        <time>2019-12-30T10:54:32.000Z</time>
      </trkpt>
      <trkpt lat="45.59182" lon="6.62332">
        <ele>2078</ele>
        <time>2019-12-30T10:54:33.000Z</time>
      </trkpt>
      <trkpt lat="45.59187" lon="6.62338">
        <ele>2076.6000976562</ele>
        <time>2019-12-30T10:54:34.000Z</time>
      </trkpt>
      <trkpt lat="45.59191" lon="6.62345">
        <ele>2075</ele>
        <time>2019-12-30T10:54:35.000Z</time>
      </trkpt>
      <trkpt lat="45.59194" lon="6.62352">
        <ele>2073.3999023438</ele>
        <time>2019-12-30T10:54:36.000Z</time>
      </trkpt>
      <trkpt lat="45.59197" lon="6.62357">
        <ele>2072</ele>
        <time>2019-12-30T10:54:37.000Z</time>
      </trkpt>
      <trkpt lat="45.59199" lon="6.62359">
        <ele>2070.6000976562</ele>
        <time>2019-12-30T10:54:38.000Z</time>
      </trkpt>
      <trkpt lat="45.59201" lon="6.6236">
        <ele>2069.1999511719</ele>
        <time>2019-12-30T10:54:39.000Z</time>
      </trkpt>
      <trkpt lat="45.59203" lon="6.62361">
        <ele>2067.8000488281</ele>
        <time>2019-12-30T10:54:40.000Z</time>
      </trkpt>
      <trkpt lat="45.59204" lon="6.62362">
        <ele>2066.6000976562</ele>
        <time>2019-12-30T10:54:41.000Z</time>
      </trkpt>
      <trkpt lat="45.59205" lon="6.62363">
        <ele>2065.3999023438</ele>
        <time>2019-12-30T10:54:42.000Z</time>
      </trkpt>
      <trkpt lat="45.59207" lon="6.62364">
        <ele>2064</ele>
        <time>2019-12-30T10:54:44.000Z</time>
      </trkpt>
      <trkpt lat="45.59209" lon="6.62365">
        <ele>2063.6000976562</ele>
        <time>2019-12-30T10:54:45.000Z</time>
      </trkpt>
      <trkpt lat="45.59227" lon="6.62369">
        <ele>2063.3999023438</ele>
        <time>2019-12-30T10:54:55.000Z</time>
      </trkpt>
      <trkpt lat="45.59227" lon="6.62369">
        <ele>2063.3999023438</ele>
        <time>2019-12-30T10:55:02.000Z</time>
      </trkpt>
      <trkpt lat="45.59227" lon="6.62369">
        <ele>2063.3999023438</ele>
        <time>2019-12-30T10:55:10.000Z</time>
      </trkpt>
      <trkpt lat="45.59227" lon="6.62369">
        <ele>2063.1999511719</ele>
        <time>2019-12-30T10:55:21.000Z</time>
      </trkpt>
      <trkpt lat="45.59227" lon="6.62369">
        <ele>2063.1999511719</ele>
        <time>2019-12-30T10:55:35.000Z</time>
      </trkpt>
      <trkpt lat="45.59225" lon="6.62368">
        <ele>2063.3999023438</ele>
        <time>2019-12-30T10:55:47.000Z</time>
      </trkpt>
      <trkpt lat="45.59225" lon="6.62368">
        <ele>2063.6000976562</ele>
        <time>2019-12-30T10:56:00.000Z</time>
      </trkpt>
      <trkpt lat="45.59225" lon="6.62368">
        <ele>2063.1999511719</ele>
        <time>2019-12-30T10:56:14.000Z</time>
      </trkpt>
      <trkpt lat="45.59225" lon="6.62368">
        <ele>2063.1999511719</ele>
        <time>2019-12-30T10:56:30.000Z</time>
      </trkpt>
      <trkpt lat="45.59225" lon="6.62368">
        <ele>2063.3999023438</ele>
        <time>2019-12-30T10:56:40.000Z</time>
      </trkpt>
      <trkpt lat="45.59223" lon="6.62367">
        <ele>2062.6000976562</ele>
        <time>2019-12-30T10:56:56.000Z</time>
      </trkpt>
      <trkpt lat="45.59223" lon="6.62367">
        <ele>2062.3999023438</ele>
        <time>2019-12-30T10:56:57.000Z</time>
      </trkpt>
      <trkpt lat="45.59223" lon="6.62367">
        <ele>2062.6000976562</ele>
        <time>2019-12-30T10:57:11.000Z</time>
      </trkpt>
      <trkpt lat="45.59223" lon="6.62367">
        <ele>2063.8000488281</ele>
        <time>2019-12-30T10:57:15.000Z</time>
      </trkpt>
      <trkpt lat="45.59223" lon="6.62367">
        <ele>2063.1999511719</ele>
        <time>2019-12-30T10:57:23.000Z</time>
      </trkpt>
      <trkpt lat="45.59224" lon="6.62367">
        <ele>2062.6000976562</ele>
        <time>2019-12-30T10:57:39.000Z</time>
      </trkpt>
      <trkpt lat="45.59224" lon="6.62367">
        <ele>2063.6000976562</ele>
        <time>2019-12-30T10:57:47.000Z</time>
      </trkpt>
      <trkpt lat="45.59224" lon="6.62367">
        <ele>2063.1999511719</ele>
        <time>2019-12-30T10:57:55.000Z</time>
      </trkpt>
      <trkpt lat="45.59224" lon="6.62367">
        <ele>2063</ele>
        <time>2019-12-30T10:58:10.000Z</time>
      </trkpt>
      <trkpt lat="45.59223" lon="6.62367">
        <ele>2063.1999511719</ele>
        <time>2019-12-30T10:58:20.000Z</time>
      </trkpt>
      <trkpt lat="45.59223" lon="6.62367">
        <ele>2063.1999511719</ele>
        <time>2019-12-30T10:58:31.000Z</time>
      </trkpt>
      <trkpt lat="45.59223" lon="6.62367">
        <ele>2063.1999511719</ele>
        <time>2019-12-30T10:58:47.000Z</time>
      </trkpt>
      <trkpt lat="45.5922" lon="6.62366">
        <ele>2063.1999511719</ele>
        <time>2019-12-30T10:58:59.000Z</time>
      </trkpt>
      <trkpt lat="45.5922" lon="6.62366">
        <ele>2063.1999511719</ele>
        <time>2019-12-30T10:59:15.000Z</time>
      </trkpt>
      <trkpt lat="45.5922" lon="6.62366">
        <ele>2063.1999511719</ele>
        <time>2019-12-30T10:59:26.000Z</time>
      </trkpt>
      <trkpt lat="45.59219" lon="6.62366">
        <ele>2063</ele>
        <time>2019-12-30T10:59:37.000Z</time>
      </trkpt>
      <trkpt lat="45.59219" lon="6.62366">
        <ele>2063</ele>
        <time>2019-12-30T10:59:50.000Z</time>
      </trkpt>
      <trkpt lat="45.59219" lon="6.62366">
        <ele>2063.3999023438</ele>
        <time>2019-12-30T11:00:01.000Z</time>
      </trkpt>
      <trkpt lat="45.59219" lon="6.62366">
        <ele>2063.1999511719</ele>
        <time>2019-12-30T11:00:15.000Z</time>
      </trkpt>
      <trkpt lat="45.59216" lon="6.62368">
        <ele>2063.3999023438</ele>
        <time>2019-12-30T11:00:30.000Z</time>
      </trkpt>
      <trkpt lat="45.59216" lon="6.62368">
        <ele>2063.8000488281</ele>
        <time>2019-12-30T11:00:46.000Z</time>
      </trkpt>
      <trkpt lat="45.59216" lon="6.62367">
        <ele>2063.3999023438</ele>
        <time>2019-12-30T11:01:00.000Z</time>
      </trkpt>
      <trkpt lat="45.59216" lon="6.62367">
        <ele>2063.3999023438</ele>
        <time>2019-12-30T11:01:17.000Z</time>
      </trkpt>
      <trkpt lat="45.59213" lon="6.62369">
        <ele>2063.3999023438</ele>
        <time>2019-12-30T11:01:31.000Z</time>
      </trkpt>
      <trkpt lat="45.59211" lon="6.62372">
        <ele>2063.3999023438</ele>
        <time>2019-12-30T11:01:42.000Z</time>
      </trkpt>
      <trkpt lat="45.59211" lon="6.62372">
        <ele>2063.3999023438</ele>
        <time>2019-12-30T11:01:56.000Z</time>
      </trkpt>
      <trkpt lat="45.59211" lon="6.62372">
        <ele>2063.3999023438</ele>
        <time>2019-12-30T11:02:09.000Z</time>
      </trkpt>
      <trkpt lat="45.59209" lon="6.62372">
        <ele>2063.3999023438</ele>
        <time>2019-12-30T11:02:29.000Z</time>
      </trkpt>
      <trkpt lat="45.59209" lon="6.62372">
        <ele>2063.8000488281</ele>
        <time>2019-12-30T11:02:42.000Z</time>
      </trkpt>
      <trkpt lat="45.59209" lon="6.62371">
        <ele>2063.6000976562</ele>
        <time>2019-12-30T11:02:57.000Z</time>
      </trkpt>
      <trkpt lat="45.59209" lon="6.62371">
        <ele>2062.6000976562</ele>
        <time>2019-12-30T11:03:11.000Z</time>
      </trkpt>
      <trkpt lat="45.59209" lon="6.62371">
        <ele>2062.6000976562</ele>
        <time>2019-12-30T11:03:12.000Z</time>
      </trkpt>
      <trkpt lat="45.59209" lon="6.62371">
        <ele>2063.6000976562</ele>
        <time>2019-12-30T11:03:19.000Z</time>
      </trkpt>
      <trkpt lat="45.59209" lon="6.62371">
        <ele>2063.3999023438</ele>
        <time>2019-12-30T11:03:25.000Z</time>
      </trkpt>
      <trkpt lat="45.59206" lon="6.6237">
        <ele>2063.8000488281</ele>
        <time>2019-12-30T11:03:38.000Z</time>
      </trkpt>
      <trkpt lat="45.59202" lon="6.62369">
        <ele>2063.6000976562</ele>
        <time>2019-12-30T11:03:47.000Z</time>
      </trkpt>
      <trkpt lat="45.59202" lon="6.62369">
        <ele>2062.3999023438</ele>
        <time>2019-12-30T11:03:51.000Z</time>
      </trkpt>
      <trkpt lat="45.59202" lon="6.62369">
        <ele>2063.8000488281</ele>
        <time>2019-12-30T11:03:56.000Z</time>
      </trkpt>
      <trkpt lat="45.59202" lon="6.62369">
        <ele>2064</ele>
        <time>2019-12-30T11:03:58.000Z</time>
      </trkpt>
      <trkpt lat="45.59202" lon="6.62369">
        <ele>2063.6000976562</ele>
        <time>2019-12-30T11:04:15.000Z</time>
      </trkpt>
      <trkpt lat="45.59202" lon="6.62369">
        <ele>2061.6000976562</ele>
        <time>2019-12-30T11:04:24.000Z</time>
      </trkpt>
      <trkpt lat="45.59202" lon="6.62369">
        <ele>2060.3999023438</ele>
        <time>2019-12-30T11:04:25.000Z</time>
      </trkpt>
      <trkpt lat="45.59202" lon="6.62369">
        <ele>2060.6000976562</ele>
        <time>2019-12-30T11:04:26.000Z</time>
      </trkpt>
      <trkpt lat="45.59202" lon="6.62369">
        <ele>2061.6000976562</ele>
        <time>2019-12-30T11:04:27.000Z</time>
      </trkpt>
      <trkpt lat="45.59202" lon="6.62369">
        <ele>2063.6000976562</ele>
        <time>2019-12-30T11:04:28.000Z</time>
      </trkpt>
      <trkpt lat="45.59202" lon="6.62369">
        <ele>2064.6000976562</ele>
        <time>2019-12-30T11:04:29.000Z</time>
      </trkpt>
      <trkpt lat="45.59202" lon="6.62369">
        <ele>2063.6000976562</ele>
        <time>2019-12-30T11:04:36.000Z</time>
      </trkpt>
      <trkpt lat="45.59202" lon="6.62369">
        <ele>2063.3999023438</ele>
        <time>2019-12-30T11:04:37.000Z</time>
      </trkpt>
      <trkpt lat="45.59202" lon="6.62369">
        <ele>2064.6000976562</ele>
        <time>2019-12-30T11:04:46.000Z</time>
      </trkpt>
      <trkpt lat="45.59202" lon="6.62369">
        <ele>2064.8000488281</ele>
        <time>2019-12-30T11:04:48.000Z</time>
      </trkpt>
      <trkpt lat="45.59202" lon="6.62369">
        <ele>2063.6000976562</ele>
        <time>2019-12-30T11:04:50.000Z</time>
      </trkpt>
      <trkpt lat="45.59202" lon="6.62369">
        <ele>2063.6000976562</ele>
        <time>2019-12-30T11:05:02.000Z</time>
      </trkpt>
      <trkpt lat="45.59201" lon="6.62369">
        <ele>2064.6000976562</ele>
        <time>2019-12-30T11:05:12.000Z</time>
      </trkpt>
      <trkpt lat="45.59199" lon="6.62368">
        <ele>2063.3999023438</ele>
        <time>2019-12-30T11:05:25.000Z</time>
      </trkpt>
      <trkpt lat="45.59199" lon="6.62368">
        <ele>2063.8000488281</ele>
        <time>2019-12-30T11:05:38.000Z</time>
      </trkpt>
      <trkpt lat="45.59199" lon="6.62368">
        <ele>2062.1999511719</ele>
        <time>2019-12-30T11:05:46.000Z</time>
      </trkpt>
      <trkpt lat="45.59199" lon="6.62368">
        <ele>2062.6000976562</ele>
        <time>2019-12-30T11:05:49.000Z</time>
      </trkpt>
      <trkpt lat="45.59199" lon="6.62368">
        <ele>2063.3999023438</ele>
        <time>2019-12-30T11:05:50.000Z</time>
      </trkpt>
      <trkpt lat="45.59199" lon="6.62368">
        <ele>2064.6000976562</ele>
        <time>2019-12-30T11:05:51.000Z</time>
      </trkpt>
      <trkpt lat="45.59199" lon="6.62368">
        <ele>2063.3999023438</ele>
        <time>2019-12-30T11:05:59.000Z</time>
      </trkpt>
      <trkpt lat="45.59199" lon="6.62368">
        <ele>2062.8000488281</ele>
        <time>2019-12-30T11:06:02.000Z</time>
      </trkpt>
      <trkpt lat="45.59198" lon="6.62368">
        <ele>2063.8000488281</ele>
        <time>2019-12-30T11:06:15.000Z</time>
      </trkpt>
      <trkpt lat="45.59198" lon="6.62368">
        <ele>2064.3999023438</ele>
        <time>2019-12-30T11:06:27.000Z</time>
      </trkpt>
      <trkpt lat="45.59198" lon="6.62368">
        <ele>2064.1999511719</ele>
        <time>2019-12-30T11:06:29.000Z</time>
      </trkpt>
      <trkpt lat="45.59198" lon="6.62368">
        <ele>2063.8000488281</ele>
        <time>2019-12-30T11:06:39.000Z</time>
      </trkpt>
      <trkpt lat="45.59195" lon="6.62368">
        <ele>2064</ele>
        <time>2019-12-30T11:06:56.000Z</time>
      </trkpt>
      <trkpt lat="45.59195" lon="6.62368">
        <ele>2063.8000488281</ele>
        <time>2019-12-30T11:07:11.000Z</time>
      </trkpt>
      <trkpt lat="45.59195" lon="6.62368">
        <ele>2063.6000976562</ele>
        <time>2019-12-30T11:07:22.000Z</time>
      </trkpt>
      <trkpt lat="45.59194" lon="6.62368">
        <ele>2063.8000488281</ele>
        <time>2019-12-30T11:07:39.000Z</time>
      </trkpt>
      <trkpt lat="45.59194" lon="6.62368">
        <ele>2063.8000488281</ele>
        <time>2019-12-30T11:07:53.000Z</time>
      </trkpt>
      <trkpt lat="45.59194" lon="6.62368">
        <ele>2064.1999511719</ele>
        <time>2019-12-30T11:08:07.000Z</time>
      </trkpt>
      <trkpt lat="45.59194" lon="6.62368">
        <ele>2064</ele>
        <time>2019-12-30T11:08:19.000Z</time>
      </trkpt>
      <trkpt lat="45.59194" lon="6.62368">
        <ele>2063.8000488281</ele>
        <time>2019-12-30T11:08:31.000Z</time>
      </trkpt>
      <trkpt lat="45.59193" lon="6.62368">
        <ele>2064</ele>
        <time>2019-12-30T11:08:37.000Z</time>
      </trkpt>
      <trkpt lat="45.59193" lon="6.62366">
        <ele>2063.6000976562</ele>
        <time>2019-12-30T11:08:48.000Z</time>
      </trkpt>
      <trkpt lat="45.59194" lon="6.62364">
        <ele>2063.8000488281</ele>
        <time>2019-12-30T11:08:55.000Z</time>
      </trkpt>
      <trkpt lat="45.59196" lon="6.62355">
        <ele>2065.1999511719</ele>
        <time>2019-12-30T11:09:04.000Z</time>
      </trkpt>
      <trkpt lat="45.59196" lon="6.62353">
        <ele>2065.3999023438</ele>
        <time>2019-12-30T11:09:07.000Z</time>
      </trkpt>
      <trkpt lat="45.59196" lon="6.62353">
        <ele>2065.8000488281</ele>
        <time>2019-12-30T11:09:14.000Z</time>
      </trkpt>
      <trkpt lat="45.59196" lon="6.62353">
        <ele>2065.8000488281</ele>
        <time>2019-12-30T11:09:16.000Z</time>
      </trkpt>
      <trkpt lat="45.59196" lon="6.62353">
        <ele>2066</ele>
        <time>2019-12-30T11:09:22.000Z</time>
      </trkpt>
      <trkpt lat="45.59196" lon="6.62352">
        <ele>2066</ele>
        <time>2019-12-30T11:09:27.000Z</time>
      </trkpt>
      <trkpt lat="45.59198" lon="6.62349">
        <ele>2066.6000976562</ele>
        <time>2019-12-30T11:09:30.000Z</time>
      </trkpt>
      <trkpt lat="45.59197" lon="6.62347">
        <ele>2067</ele>
        <time>2019-12-30T11:09:32.000Z</time>
      </trkpt>
      <trkpt lat="45.59196" lon="6.62344">
        <ele>2067.6000976562</ele>
        <time>2019-12-30T11:09:35.000Z</time>
      </trkpt>
      <trkpt lat="45.59196" lon="6.62342">
        <ele>2067.8000488281</ele>
        <time>2019-12-30T11:09:37.000Z</time>
      </trkpt>
      <trkpt lat="45.59198" lon="6.6234">
        <ele>2068.3999023438</ele>
        <time>2019-12-30T11:09:40.000Z</time>
      </trkpt>
      <trkpt lat="45.59198" lon="6.62338">
        <ele>2068.8000488281</ele>
        <time>2019-12-30T11:09:43.000Z</time>
      </trkpt>
      <trkpt lat="45.59199" lon="6.62337">
        <ele>2069</ele>
        <time>2019-12-30T11:09:45.000Z</time>
      </trkpt>
      <trkpt lat="45.59201" lon="6.62336">
        <ele>2069.3999023438</ele>
        <time>2019-12-30T11:09:49.000Z</time>
      </trkpt>
      <trkpt lat="45.59203" lon="6.62336">
        <ele>2069.8000488281</ele>
        <time>2019-12-30T11:09:52.000Z</time>
      </trkpt>
      <trkpt lat="45.59206" lon="6.62336">
        <ele>2070.3999023438</ele>
        <time>2019-12-30T11:09:56.000Z</time>
      </trkpt>
      <trkpt lat="45.59206" lon="6.62336">
        <ele>2070.8000488281</ele>
        <time>2019-12-30T11:09:59.000Z</time>
      </trkpt>
      <trkpt lat="45.59206" lon="6.62336">
        <ele>2071</ele>
        <time>2019-12-30T11:10:00.000Z</time>
      </trkpt>
      <trkpt lat="45.59209" lon="6.62336">
        <ele>2072</ele>
        <time>2019-12-30T11:10:05.000Z</time>
      </trkpt>
      <trkpt lat="45.59212" lon="6.62336">
        <ele>2072.8000488281</ele>
        <time>2019-12-30T11:10:11.000Z</time>
      </trkpt>
      <trkpt lat="45.59214" lon="6.62337">
        <ele>2073</ele>
        <time>2019-12-30T11:10:13.000Z</time>
      </trkpt>
      <trkpt lat="45.59217" lon="6.62335">
        <ele>2073.3999023438</ele>
        <time>2019-12-30T11:10:17.000Z</time>
      </trkpt>
      <trkpt lat="45.59221" lon="6.62333">
        <ele>2074</ele>
        <time>2019-12-30T11:10:21.000Z</time>
      </trkpt>
      <trkpt lat="45.59223" lon="6.62332">
        <ele>2074.6000976562</ele>
        <time>2019-12-30T11:10:24.000Z</time>
      </trkpt>
      <trkpt lat="45.59227" lon="6.62332">
        <ele>2075.1999511719</ele>
        <time>2019-12-30T11:10:29.000Z</time>
      </trkpt>
      <trkpt lat="45.59228" lon="6.62332">
        <ele>2075.3999023438</ele>
        <time>2019-12-30T11:10:31.000Z</time>
      </trkpt>
      <trkpt lat="45.5923" lon="6.62333">
        <ele>2076.1999511719</ele>
        <time>2019-12-30T11:10:36.000Z</time>
      </trkpt>
      <trkpt lat="45.5923" lon="6.62333">
        <ele>2076.3999023438</ele>
        <time>2019-12-30T11:10:37.000Z</time>
      </trkpt>
      <trkpt lat="45.59233" lon="6.62333">
        <ele>2077</ele>
        <time>2019-12-30T11:10:43.000Z</time>
      </trkpt>
      <trkpt lat="45.59233" lon="6.62333">
        <ele>2077.1999511719</ele>
        <time>2019-12-30T11:10:45.000Z</time>
      </trkpt>
      <trkpt lat="45.59237" lon="6.62335">
        <ele>2078.3999023438</ele>
        <time>2019-12-30T11:10:51.000Z</time>
      </trkpt>
      <trkpt lat="45.59238" lon="6.62336">
        <ele>2079.3999023438</ele>
        <time>2019-12-30T11:10:56.000Z</time>
      </trkpt>
      <trkpt lat="45.59238" lon="6.62336">
        <ele>2079</ele>
        <time>2019-12-30T11:10:59.000Z</time>
      </trkpt>
      <trkpt lat="45.59239" lon="6.62336">
        <ele>2079.8000488281</ele>
        <time>2019-12-30T11:11:11.000Z</time>
      </trkpt>
      <trkpt lat="45.59241" lon="6.62335">
        <ele>2080</ele>
        <time>2019-12-30T11:11:15.000Z</time>
      </trkpt>
      <trkpt lat="45.59242" lon="6.62333">
        <ele>2080.3999023438</ele>
        <time>2019-12-30T11:11:18.000Z</time>
      </trkpt>
      <trkpt lat="45.59243" lon="6.62333">
        <ele>2080.8000488281</ele>
        <time>2019-12-30T11:11:20.000Z</time>
      </trkpt>
      <trkpt lat="45.59244" lon="6.62334">
        <ele>2081.3999023438</ele>
        <time>2019-12-30T11:11:24.000Z</time>
      </trkpt>
      <trkpt lat="45.59245" lon="6.62334">
        <ele>2081.6000976562</ele>
        <time>2019-12-30T11:11:25.000Z</time>
      </trkpt>
      <trkpt lat="45.59246" lon="6.62334">
        <ele>2082.6000976562</ele>
        <time>2019-12-30T11:11:30.000Z</time>
      </trkpt>
      <trkpt lat="45.59246" lon="6.62334">
        <ele>2082.8000488281</ele>
        <time>2019-12-30T11:11:31.000Z</time>
      </trkpt>
      <trkpt lat="45.59249" lon="6.62336">
        <ele>2083.8000488281</ele>
        <time>2019-12-30T11:11:38.000Z</time>
      </trkpt>
      <trkpt lat="45.5925" lon="6.62337">
        <ele>2084</ele>
        <time>2019-12-30T11:11:39.000Z</time>
      </trkpt>
      <trkpt lat="45.59251" lon="6.62338">
        <ele>2085</ele>
        <time>2019-12-30T11:11:46.000Z</time>
      </trkpt>
      <trkpt lat="45.59254" lon="6.62339">
        <ele>2086</ele>
        <time>2019-12-30T11:11:53.000Z</time>
      </trkpt>
      <trkpt lat="45.59255" lon="6.6234">
        <ele>2087.1999511719</ele>
        <time>2019-12-30T11:11:58.000Z</time>
      </trkpt>
      <trkpt lat="45.5926" lon="6.62339">
        <ele>2087.8000488281</ele>
        <time>2019-12-30T11:12:03.000Z</time>
      </trkpt>
      <trkpt lat="45.59264" lon="6.62339">
        <ele>2088.1999511719</ele>
        <time>2019-12-30T11:12:05.000Z</time>
      </trkpt>
      <trkpt lat="45.59264" lon="6.62339">
        <ele>2088.3999023438</ele>
        <time>2019-12-30T11:12:06.000Z</time>
      </trkpt>
      <trkpt lat="45.59268" lon="6.62338">
        <ele>2089</ele>
        <time>2019-12-30T11:12:10.000Z</time>
      </trkpt>
      <trkpt lat="45.59267" lon="6.62335">
        <ele>2089.1999511719</ele>
        <time>2019-12-30T11:12:14.000Z</time>
      </trkpt>
      <trkpt lat="45.59267" lon="6.62335">
        <ele>2089.3999023438</ele>
        <time>2019-12-30T11:12:15.000Z</time>
      </trkpt>
      <trkpt lat="45.59267" lon="6.62333">
        <ele>2090</ele>
        <time>2019-12-30T11:12:17.000Z</time>
      </trkpt>
      <trkpt lat="45.59266" lon="6.62331">
        <ele>2090.6000976562</ele>
        <time>2019-12-30T11:12:19.000Z</time>
      </trkpt>
      <trkpt lat="45.59262" lon="6.62326">
        <ele>2091</ele>
        <time>2019-12-30T11:12:25.000Z</time>
      </trkpt>
      <trkpt lat="45.59258" lon="6.62321">
        <ele>2091.6000976562</ele>
        <time>2019-12-30T11:12:31.000Z</time>
      </trkpt>
      <trkpt lat="45.59258" lon="6.6232">
        <ele>2091.6000976562</ele>
        <time>2019-12-30T11:12:32.000Z</time>
      </trkpt>
      <trkpt lat="45.59257" lon="6.62316">
        <ele>2092.8000488281</ele>
        <time>2019-12-30T11:12:38.000Z</time>
      </trkpt>
      <trkpt lat="45.59253" lon="6.62315">
        <ele>2093.1999511719</ele>
        <time>2019-12-30T11:12:42.000Z</time>
      </trkpt>
      <trkpt lat="45.59252" lon="6.62312">
        <ele>2093.8000488281</ele>
        <time>2019-12-30T11:12:46.000Z</time>
      </trkpt>
      <trkpt lat="45.59251" lon="6.62311">
        <ele>2093.8000488281</ele>
        <time>2019-12-30T11:12:47.000Z</time>
      </trkpt>
      <trkpt lat="45.59249" lon="6.62309">
        <ele>2094.8000488281</ele>
        <time>2019-12-30T11:12:53.000Z</time>
      </trkpt>
      <trkpt lat="45.59249" lon="6.62309">
        <ele>2095</ele>
        <time>2019-12-30T11:12:54.000Z</time>
      </trkpt>
      <trkpt lat="45.59249" lon="6.62304">
        <ele>2095.6000976562</ele>
        <time>2019-12-30T11:12:58.000Z</time>
      </trkpt>
      <trkpt lat="45.59248" lon="6.62301">
        <ele>2096</ele>
        <time>2019-12-30T11:13:02.000Z</time>
      </trkpt>
      <trkpt lat="45.59246" lon="6.62299">
        <ele>2096.1999511719</ele>
        <time>2019-12-30T11:13:04.000Z</time>
      </trkpt>
      <trkpt lat="45.59246" lon="6.62298">
        <ele>2096.3999023438</ele>
        <time>2019-12-30T11:13:06.000Z</time>
      </trkpt>
      <trkpt lat="45.59246" lon="6.62295">
        <ele>2097</ele>
        <time>2019-12-30T11:13:10.000Z</time>
      </trkpt>
      <trkpt lat="45.59246" lon="6.62295">
        <ele>2097.1999511719</ele>
        <time>2019-12-30T11:13:11.000Z</time>
      </trkpt>
      <trkpt lat="45.59246" lon="6.6229">
        <ele>2097.8000488281</ele>
        <time>2019-12-30T11:13:16.000Z</time>
      </trkpt>
      <trkpt lat="45.59245" lon="6.62288">
        <ele>2098.1999511719</ele>
        <time>2019-12-30T11:13:18.000Z</time>
      </trkpt>
      <trkpt lat="45.59244" lon="6.62286">
        <ele>2098.6000976562</ele>
        <time>2019-12-30T11:13:20.000Z</time>
      </trkpt>
      <trkpt lat="45.59243" lon="6.62282">
        <ele>2099.1999511719</ele>
        <time>2019-12-30T11:13:25.000Z</time>
      </trkpt>
      <trkpt lat="45.59243" lon="6.6228">
        <ele>2099.1999511719</ele>
        <time>2019-12-30T11:13:26.000Z</time>
      </trkpt>
      <trkpt lat="45.59241" lon="6.62275">
        <ele>2099.6000976562</ele>
        <time>2019-12-30T11:13:30.000Z</time>
      </trkpt>
      <trkpt lat="45.59239" lon="6.62271">
        <ele>2100</ele>
        <time>2019-12-30T11:13:34.000Z</time>
      </trkpt>
      <trkpt lat="45.59238" lon="6.62269">
        <ele>2100.1999511719</ele>
        <time>2019-12-30T11:13:36.000Z</time>
      </trkpt>
      <trkpt lat="45.59236" lon="6.62268">
        <ele>2100.3999023438</ele>
        <time>2019-12-30T11:13:37.000Z</time>
      </trkpt>
      <trkpt lat="45.59232" lon="6.62262">
        <ele>2101</ele>
        <time>2019-12-30T11:13:42.000Z</time>
      </trkpt>
      <trkpt lat="45.5923" lon="6.62259">
        <ele>2101.3999023438</ele>
        <time>2019-12-30T11:13:44.000Z</time>
      </trkpt>
      <trkpt lat="45.59225" lon="6.62254">
        <ele>2101.8000488281</ele>
        <time>2019-12-30T11:13:49.000Z</time>
      </trkpt>
      <trkpt lat="45.59221" lon="6.62248">
        <ele>2102.3999023438</ele>
        <time>2019-12-30T11:13:54.000Z</time>
      </trkpt>
      <trkpt lat="45.59221" lon="6.62247">
        <ele>2102.3999023438</ele>
        <time>2019-12-30T11:13:55.000Z</time>
      </trkpt>
      <trkpt lat="45.59217" lon="6.62242">
        <ele>2103.1999511719</ele>
        <time>2019-12-30T11:14:01.000Z</time>
      </trkpt>
      <trkpt lat="45.59219" lon="6.62241">
        <ele>2103.3999023438</ele>
        <time>2019-12-30T11:14:04.000Z</time>
      </trkpt>
      <trkpt lat="45.59217" lon="6.62241">
        <ele>2104</ele>
        <time>2019-12-30T11:14:07.000Z</time>
      </trkpt>
      <trkpt lat="45.59215" lon="6.62239">
        <ele>2104.3999023438</ele>
        <time>2019-12-30T11:14:11.000Z</time>
      </trkpt>
      <trkpt lat="45.59214" lon="6.62237">
        <ele>2105.1999511719</ele>
        <time>2019-12-30T11:14:16.000Z</time>
      </trkpt>
      <trkpt lat="45.59212" lon="6.62235">
        <ele>2105.3999023438</ele>
        <time>2019-12-30T11:14:19.000Z</time>
      </trkpt>
      <trkpt lat="45.59209" lon="6.62231">
        <ele>2106</ele>
        <time>2019-12-30T11:14:23.000Z</time>
      </trkpt>
      <trkpt lat="45.59208" lon="6.62228">
        <ele>2106.6000976562</ele>
        <time>2019-12-30T11:14:27.000Z</time>
      </trkpt>
      <trkpt lat="45.59208" lon="6.62225">
        <ele>2106.8000488281</ele>
        <time>2019-12-30T11:14:28.000Z</time>
      </trkpt>
      <trkpt lat="45.59208" lon="6.62221">
        <ele>2107</ele>
        <time>2019-12-30T11:14:30.000Z</time>
      </trkpt>
      <trkpt lat="45.5921" lon="6.62218">
        <ele>2107.3999023438</ele>
        <time>2019-12-30T11:14:33.000Z</time>
      </trkpt>
      <trkpt lat="45.59209" lon="6.62217">
        <ele>2107.6000976562</ele>
        <time>2019-12-30T11:14:35.000Z</time>
      </trkpt>
      <trkpt lat="45.59209" lon="6.62216">
        <ele>2108.1999511719</ele>
        <time>2019-12-30T11:14:39.000Z</time>
      </trkpt>
      <trkpt lat="45.59206" lon="6.62212">
        <ele>2108.8000488281</ele>
        <time>2019-12-30T11:14:43.000Z</time>
      </trkpt>
      <trkpt lat="45.59205" lon="6.62211">
        <ele>2109</ele>
        <time>2019-12-30T11:14:44.000Z</time>
      </trkpt>
      <trkpt lat="45.59204" lon="6.62209">
        <ele>2109.3999023438</ele>
        <time>2019-12-30T11:14:48.000Z</time>
      </trkpt>
      <trkpt lat="45.59201" lon="6.62207">
        <ele>2110</ele>
        <time>2019-12-30T11:14:52.000Z</time>
      </trkpt>
      <trkpt lat="45.59201" lon="6.62207">
        <ele>2110.1999511719</ele>
        <time>2019-12-30T11:14:53.000Z</time>
      </trkpt>
      <trkpt lat="45.59201" lon="6.62206">
        <ele>2110.8000488281</ele>
        <time>2019-12-30T11:14:57.000Z</time>
      </trkpt>
      <trkpt lat="45.592" lon="6.62205">
        <ele>2111</ele>
        <time>2019-12-30T11:14:58.000Z</time>
      </trkpt>
      <trkpt lat="45.59199" lon="6.62204">
        <ele>2111.3999023438</ele>
        <time>2019-12-30T11:15:01.000Z</time>
      </trkpt>
      <trkpt lat="45.59199" lon="6.62204">
        <ele>2111.8000488281</ele>
        <time>2019-12-30T11:15:06.000Z</time>
      </trkpt>
      <trkpt lat="45.592" lon="6.62204">
        <ele>2112.1999511719</ele>
        <time>2019-12-30T11:15:08.000Z</time>
      </trkpt>
      <trkpt lat="45.59202" lon="6.62203">
        <ele>2112.8000488281</ele>
        <time>2019-12-30T11:15:11.000Z</time>
      </trkpt>
      <trkpt lat="45.59204" lon="6.62203">
        <ele>2113.1999511719</ele>
        <time>2019-12-30T11:15:15.000Z</time>
      </trkpt>
      <trkpt lat="45.5921" lon="6.62201">
        <ele>2114.1999511719</ele>
        <time>2019-12-30T11:15:22.000Z</time>
      </trkpt>
      <trkpt lat="45.59214" lon="6.622">
        <ele>2115</ele>
        <time>2019-12-30T11:15:28.000Z</time>
      </trkpt>
      <trkpt lat="45.59214" lon="6.622">
        <ele>2115.1999511719</ele>
        <time>2019-12-30T11:15:32.000Z</time>
      </trkpt>
      <trkpt lat="45.59216" lon="6.62202">
        <ele>2115.6000976562</ele>
        <time>2019-12-30T11:15:36.000Z</time>
      </trkpt>
      <trkpt lat="45.59218" lon="6.622">
        <ele>2116.3999023438</ele>
        <time>2019-12-30T11:15:39.000Z</time>
      </trkpt>
      <trkpt lat="45.59219" lon="6.622">
        <ele>2116.8000488281</ele>
        <time>2019-12-30T11:15:41.000Z</time>
      </trkpt>
      <trkpt lat="45.59221" lon="6.622">
        <ele>2117.1999511719</ele>
        <time>2019-12-30T11:15:43.000Z</time>
      </trkpt>
      <trkpt lat="45.59223" lon="6.62199">
        <ele>2117.3999023438</ele>
        <time>2019-12-30T11:15:45.000Z</time>
      </trkpt>
      <trkpt lat="45.59226" lon="6.622">
        <ele>2117.3999023438</ele>
        <time>2019-12-30T11:15:49.000Z</time>
      </trkpt>
      <trkpt lat="45.59227" lon="6.622">
        <ele>2117.6000976562</ele>
        <time>2019-12-30T11:15:50.000Z</time>
      </trkpt>
      <trkpt lat="45.59231" lon="6.622">
        <ele>2118.3999023438</ele>
        <time>2019-12-30T11:15:54.000Z</time>
      </trkpt>
      <trkpt lat="45.59232" lon="6.622">
        <ele>2118.6000976562</ele>
        <time>2019-12-30T11:15:55.000Z</time>
      </trkpt>
      <trkpt lat="45.59234" lon="6.62199">
        <ele>2119.3999023438</ele>
        <time>2019-12-30T11:16:00.000Z</time>
      </trkpt>
      <trkpt lat="45.59234" lon="6.62199">
        <ele>2119.6000976562</ele>
        <time>2019-12-30T11:16:01.000Z</time>
      </trkpt>
      <trkpt lat="45.59239" lon="6.62199">
        <ele>2120.1999511719</ele>
        <time>2019-12-30T11:16:07.000Z</time>
      </trkpt>
      <trkpt lat="45.5924" lon="6.622">
        <ele>2120.6000976562</ele>
        <time>2019-12-30T11:16:09.000Z</time>
      </trkpt>
      <trkpt lat="45.59242" lon="6.622">
        <ele>2121.1999511719</ele>
        <time>2019-12-30T11:16:13.000Z</time>
      </trkpt>
      <trkpt lat="45.59244" lon="6.622">
        <ele>2121.6000976562</ele>
        <time>2019-12-30T11:16:16.000Z</time>
      </trkpt>
      <trkpt lat="45.59245" lon="6.622">
        <ele>2121.8000488281</ele>
        <time>2019-12-30T11:16:18.000Z</time>
      </trkpt>
      <trkpt lat="45.59252" lon="6.62202">
        <ele>2122.6000976562</ele>
        <time>2019-12-30T11:16:25.000Z</time>
      </trkpt>
      <trkpt lat="45.59254" lon="6.62202">
        <ele>2123.6000976562</ele>
        <time>2019-12-30T11:16:31.000Z</time>
      </trkpt>
      <trkpt lat="45.59255" lon="6.62202">
        <ele>2123.8000488281</ele>
        <time>2019-12-30T11:16:32.000Z</time>
      </trkpt>
      <trkpt lat="45.59261" lon="6.62204">
        <ele>2123.8000488281</ele>
        <time>2019-12-30T11:16:38.000Z</time>
      </trkpt>
      <trkpt lat="45.59265" lon="6.62207">
        <ele>2124.3999023438</ele>
        <time>2019-12-30T11:16:43.000Z</time>
      </trkpt>
      <trkpt lat="45.59266" lon="6.62208">
        <ele>2124.8000488281</ele>
        <time>2019-12-30T11:16:46.000Z</time>
      </trkpt>
      <trkpt lat="45.59267" lon="6.62209">
        <ele>2125.1999511719</ele>
        <time>2019-12-30T11:16:49.000Z</time>
      </trkpt>
      <trkpt lat="45.59268" lon="6.6221">
        <ele>2125.8000488281</ele>
        <time>2019-12-30T11:16:51.000Z</time>
      </trkpt>
      <trkpt lat="45.5927" lon="6.62211">
        <ele>2126.3999023438</ele>
        <time>2019-12-30T11:16:54.000Z</time>
      </trkpt>
      <trkpt lat="45.59271" lon="6.62212">
        <ele>2126.8000488281</ele>
        <time>2019-12-30T11:16:57.000Z</time>
      </trkpt>
      <trkpt lat="45.59274" lon="6.62213">
        <ele>2127.3999023438</ele>
        <time>2019-12-30T11:17:00.000Z</time>
      </trkpt>
      <trkpt lat="45.59276" lon="6.62214">
        <ele>2128</ele>
        <time>2019-12-30T11:17:05.000Z</time>
      </trkpt>
      <trkpt lat="45.59278" lon="6.62215">
        <ele>2128.6000976562</ele>
        <time>2019-12-30T11:17:10.000Z</time>
      </trkpt>
      <trkpt lat="45.5928" lon="6.62215">
        <ele>2129</ele>
        <time>2019-12-30T11:17:12.000Z</time>
      </trkpt>
      <trkpt lat="45.59282" lon="6.62216">
        <ele>2129.6000976562</ele>
        <time>2019-12-30T11:17:16.000Z</time>
      </trkpt>
      <trkpt lat="45.59283" lon="6.62216">
        <ele>2130</ele>
        <time>2019-12-30T11:17:19.000Z</time>
      </trkpt>
      <trkpt lat="45.59283" lon="6.62216">
        <ele>2130.3999023438</ele>
        <time>2019-12-30T11:17:21.000Z</time>
      </trkpt>
      <trkpt lat="45.59284" lon="6.62217">
        <ele>2131.1999511719</ele>
        <time>2019-12-30T11:17:27.000Z</time>
      </trkpt>
      <trkpt lat="45.59286" lon="6.62217">
        <ele>2131.1999511719</ele>
        <time>2019-12-30T11:17:28.000Z</time>
      </trkpt>
      <trkpt lat="45.59289" lon="6.62217">
        <ele>2132.1999511719</ele>
        <time>2019-12-30T11:17:35.000Z</time>
      </trkpt>
      <trkpt lat="45.59292" lon="6.62218">
        <ele>2133</ele>
        <time>2019-12-30T11:17:39.000Z</time>
      </trkpt>
      <trkpt lat="45.59297" lon="6.62219">
        <ele>2133.1999511719</ele>
        <time>2019-12-30T11:17:42.000Z</time>
      </trkpt>
      <trkpt lat="45.59299" lon="6.6222">
        <ele>2133.3999023438</ele>
        <time>2019-12-30T11:17:43.000Z</time>
      </trkpt>
      <trkpt lat="45.593" lon="6.6222">
        <ele>2134.1999511719</ele>
        <time>2019-12-30T11:17:48.000Z</time>
      </trkpt>
      <trkpt lat="45.59301" lon="6.6222">
        <ele>2134.3999023438</ele>
        <time>2019-12-30T11:17:49.000Z</time>
      </trkpt>
      <trkpt lat="45.59302" lon="6.62221">
        <ele>2134.8000488281</ele>
        <time>2019-12-30T11:17:54.000Z</time>
      </trkpt>
      <trkpt lat="45.59305" lon="6.62223">
        <ele>2135.3999023438</ele>
        <time>2019-12-30T11:17:59.000Z</time>
      </trkpt>
      <trkpt lat="45.59306" lon="6.62223">
        <ele>2135.6000976562</ele>
        <time>2019-12-30T11:18:00.000Z</time>
      </trkpt>
      <trkpt lat="45.59309" lon="6.62225">
        <ele>2136.1999511719</ele>
        <time>2019-12-30T11:18:04.000Z</time>
      </trkpt>
      <trkpt lat="45.59311" lon="6.62226">
        <ele>2136.6000976562</ele>
        <time>2019-12-30T11:18:07.000Z</time>
      </trkpt>
      <trkpt lat="45.59311" lon="6.62226">
        <ele>2136.8000488281</ele>
        <time>2019-12-30T11:18:08.000Z</time>
      </trkpt>
      <trkpt lat="45.59322" lon="6.6223">
        <ele>2137.3999023438</ele>
        <time>2019-12-30T11:18:13.000Z</time>
      </trkpt>
      <trkpt lat="45.59322" lon="6.62231">
        <ele>2137.6000976562</ele>
        <time>2019-12-30T11:18:15.000Z</time>
      </trkpt>
      <trkpt lat="45.59322" lon="6.62231">
        <ele>2138.1999511719</ele>
        <time>2019-12-30T11:18:18.000Z</time>
      </trkpt>
      <trkpt lat="45.59325" lon="6.62232">
        <ele>2138.8000488281</ele>
        <time>2019-12-30T11:18:23.000Z</time>
      </trkpt>
      <trkpt lat="45.59329" lon="6.62235">
        <ele>2139.6000976562</ele>
        <time>2019-12-30T11:18:29.000Z</time>
      </trkpt>
      <trkpt lat="45.5933" lon="6.62235">
        <ele>2139.8000488281</ele>
        <time>2019-12-30T11:18:30.000Z</time>
      </trkpt>
      <trkpt lat="45.59334" lon="6.62236">
        <ele>2140.1999511719</ele>
        <time>2019-12-30T11:18:34.000Z</time>
      </trkpt>
      <trkpt lat="45.59335" lon="6.62234">
        <ele>2140.8000488281</ele>
        <time>2019-12-30T11:18:39.000Z</time>
      </trkpt>
      <trkpt lat="45.59331" lon="6.6223">
        <ele>2141.3999023438</ele>
        <time>2019-12-30T11:18:42.000Z</time>
      </trkpt>
      <trkpt lat="45.59331" lon="6.62227">
        <ele>2141.8000488281</ele>
        <time>2019-12-30T11:18:44.000Z</time>
      </trkpt>
      <trkpt lat="45.59331" lon="6.62227">
        <ele>2142</ele>
        <time>2019-12-30T11:18:45.000Z</time>
      </trkpt>
      <trkpt lat="45.59331" lon="6.62223">
        <ele>2142.1999511719</ele>
        <time>2019-12-30T11:18:48.000Z</time>
      </trkpt>
      <trkpt lat="45.59331" lon="6.62223">
        <ele>2142.3999023438</ele>
        <time>2019-12-30T11:18:49.000Z</time>
      </trkpt>
      <trkpt lat="45.59329" lon="6.6222">
        <ele>2143</ele>
        <time>2019-12-30T11:18:53.000Z</time>
      </trkpt>
      <trkpt lat="45.59328" lon="6.62219">
        <ele>2143.3999023438</ele>
        <time>2019-12-30T11:18:55.000Z</time>
      </trkpt>
      <trkpt lat="45.59328" lon="6.62217">
        <ele>2144</ele>
        <time>2019-12-30T11:18:58.000Z</time>
      </trkpt>
      <trkpt lat="45.59327" lon="6.62216">
        <ele>2144.1999511719</ele>
        <time>2019-12-30T11:18:59.000Z</time>
      </trkpt>
      <trkpt lat="45.59325" lon="6.62214">
        <ele>2144.6000976562</ele>
        <time>2019-12-30T11:19:03.000Z</time>
      </trkpt>
      <trkpt lat="45.59324" lon="6.62212">
        <ele>2145</ele>
        <time>2019-12-30T11:19:07.000Z</time>
      </trkpt>
      <trkpt lat="45.59324" lon="6.62211">
        <ele>2145.1999511719</ele>
        <time>2019-12-30T11:19:08.000Z</time>
      </trkpt>
      <trkpt lat="45.59323" lon="6.62208">
        <ele>2146</ele>
        <time>2019-12-30T11:19:13.000Z</time>
      </trkpt>
      <trkpt lat="45.59322" lon="6.62206">
        <ele>2146.6000976562</ele>
        <time>2019-12-30T11:19:15.000Z</time>
      </trkpt>
      <trkpt lat="45.59322" lon="6.62205">
        <ele>2147</ele>
        <time>2019-12-30T11:19:17.000Z</time>
      </trkpt>
      <trkpt lat="45.59322" lon="6.62202">
        <ele>2147.8000488281</ele>
        <time>2019-12-30T11:19:22.000Z</time>
      </trkpt>
      <trkpt lat="45.59322" lon="6.62196">
        <ele>2148.1999511719</ele>
        <time>2019-12-30T11:19:27.000Z</time>
      </trkpt>
      <trkpt lat="45.59321" lon="6.62194">
        <ele>2148.8000488281</ele>
        <time>2019-12-30T11:19:30.000Z</time>
      </trkpt>
      <trkpt lat="45.5932" lon="6.62193">
        <ele>2149.6000976562</ele>
        <time>2019-12-30T11:19:33.000Z</time>
      </trkpt>
      <trkpt lat="45.59319" lon="6.62192">
        <ele>2150</ele>
        <time>2019-12-30T11:19:35.000Z</time>
      </trkpt>
      <trkpt lat="45.59318" lon="6.62191">
        <ele>2150.6000976562</ele>
        <time>2019-12-30T11:19:39.000Z</time>
      </trkpt>
      <trkpt lat="45.59319" lon="6.6219">
        <ele>2151</ele>
        <time>2019-12-30T11:19:41.000Z</time>
      </trkpt>
      <trkpt lat="45.59319" lon="6.62189">
        <ele>2151.3999023438</ele>
        <time>2019-12-30T11:19:43.000Z</time>
      </trkpt>
      <trkpt lat="45.59319" lon="6.6219">
        <ele>2151.8000488281</ele>
        <time>2019-12-30T11:19:48.000Z</time>
      </trkpt>
      <trkpt lat="45.59321" lon="6.6219">
        <ele>2152.1999511719</ele>
        <time>2019-12-30T11:19:50.000Z</time>
      </trkpt>
      <trkpt lat="45.59324" lon="6.62191">
        <ele>2153</ele>
        <time>2019-12-30T11:19:54.000Z</time>
      </trkpt>
      <trkpt lat="45.59325" lon="6.62191">
        <ele>2153.1999511719</ele>
        <time>2019-12-30T11:19:55.000Z</time>
      </trkpt>
      <trkpt lat="45.59326" lon="6.62191">
        <ele>2153.3999023438</ele>
        <time>2019-12-30T11:19:59.000Z</time>
      </trkpt>
      <trkpt lat="45.59328" lon="6.62192">
        <ele>2154.1999511719</ele>
        <time>2019-12-30T11:20:04.000Z</time>
      </trkpt>
      <trkpt lat="45.59329" lon="6.62192">
        <ele>2154.3999023438</ele>
        <time>2019-12-30T11:20:05.000Z</time>
      </trkpt>
      <trkpt lat="45.5933" lon="6.62192">
        <ele>2154.8000488281</ele>
        <time>2019-12-30T11:20:08.000Z</time>
      </trkpt>
      <trkpt lat="45.59332" lon="6.62195">
        <ele>2155.3999023438</ele>
        <time>2019-12-30T11:20:12.000Z</time>
      </trkpt>
      <trkpt lat="45.59333" lon="6.62196">
        <ele>2155.6000976562</ele>
        <time>2019-12-30T11:20:14.000Z</time>
      </trkpt>
      <trkpt lat="45.59334" lon="6.62197">
        <ele>2156.3999023438</ele>
        <time>2019-12-30T11:20:19.000Z</time>
      </trkpt>
      <trkpt lat="45.59335" lon="6.62196">
        <ele>2156.6000976562</ele>
        <time>2019-12-30T11:20:20.000Z</time>
      </trkpt>
      <trkpt lat="45.59336" lon="6.62198">
        <ele>2157.3999023438</ele>
        <time>2019-12-30T11:20:24.000Z</time>
      </trkpt>
      <trkpt lat="45.59337" lon="6.62198">
        <ele>2157.6000976562</ele>
        <time>2019-12-30T11:20:25.000Z</time>
      </trkpt>
      <trkpt lat="45.59338" lon="6.62199">
        <ele>2158.6000976562</ele>
        <time>2019-12-30T11:20:29.000Z</time>
      </trkpt>
      <trkpt lat="45.59338" lon="6.62199">
        <ele>2158.8000488281</ele>
        <time>2019-12-30T11:20:30.000Z</time>
      </trkpt>
      <trkpt lat="45.59341" lon="6.622">
        <ele>2159.3999023438</ele>
        <time>2019-12-30T11:20:35.000Z</time>
      </trkpt>
      <trkpt lat="45.59343" lon="6.62201">
        <ele>2159.8000488281</ele>
        <time>2019-12-30T11:20:39.000Z</time>
      </trkpt>
      <trkpt lat="45.59344" lon="6.62202">
        <ele>2160</ele>
        <time>2019-12-30T11:20:40.000Z</time>
      </trkpt>
      <trkpt lat="45.59347" lon="6.62204">
        <ele>2161</ele>
        <time>2019-12-30T11:20:45.000Z</time>
      </trkpt>
      <trkpt lat="45.59347" lon="6.62205">
        <ele>2161.1999511719</ele>
        <time>2019-12-30T11:20:47.000Z</time>
      </trkpt>
      <trkpt lat="45.59351" lon="6.62206">
        <ele>2162</ele>
        <time>2019-12-30T11:20:52.000Z</time>
      </trkpt>
      <trkpt lat="45.59355" lon="6.62208">
        <ele>2162.6000976562</ele>
        <time>2019-12-30T11:20:56.000Z</time>
      </trkpt>
      <trkpt lat="45.59357" lon="6.62209">
        <ele>2163.1999511719</ele>
        <time>2019-12-30T11:20:58.000Z</time>
      </trkpt>
      <trkpt lat="45.59359" lon="6.6221">
        <ele>2163.6000976562</ele>
        <time>2019-12-30T11:21:00.000Z</time>
      </trkpt>
      <trkpt lat="45.59363" lon="6.62213">
        <ele>2164.1999511719</ele>
        <time>2019-12-30T11:21:06.000Z</time>
      </trkpt>
      <trkpt lat="45.59365" lon="6.62214">
        <ele>2164.8000488281</ele>
        <time>2019-12-30T11:21:11.000Z</time>
      </trkpt>
      <trkpt lat="45.59365" lon="6.62214">
        <ele>2165.3999023438</ele>
        <time>2019-12-30T11:21:15.000Z</time>
      </trkpt>
      <trkpt lat="45.59365" lon="6.62213">
        <ele>2165.6000976562</ele>
        <time>2019-12-30T11:21:20.000Z</time>
      </trkpt>
      <trkpt lat="45.59365" lon="6.62213">
        <ele>2165.8000488281</ele>
        <time>2019-12-30T11:21:36.000Z</time>
      </trkpt>
      <trkpt lat="45.59365" lon="6.62213">
        <ele>2166.6000976562</ele>
        <time>2019-12-30T11:21:45.000Z</time>
      </trkpt>
      <trkpt lat="45.59365" lon="6.62213">
        <ele>2166.6000976562</ele>
        <time>2019-12-30T11:21:47.000Z</time>
      </trkpt>
      <trkpt lat="45.59363" lon="6.62211">
        <ele>2165.8000488281</ele>
        <time>2019-12-30T11:21:58.000Z</time>
      </trkpt>
      <trkpt lat="45.59362" lon="6.62209">
        <ele>2165.8000488281</ele>
        <time>2019-12-30T11:21:59.000Z</time>
      </trkpt>
      <trkpt lat="45.5936" lon="6.62206">
        <ele>2166.3999023438</ele>
        <time>2019-12-30T11:22:04.000Z</time>
      </trkpt>
      <trkpt lat="45.59362" lon="6.62201">
        <ele>2167</ele>
        <time>2019-12-30T11:22:09.000Z</time>
      </trkpt>
      <trkpt lat="45.59361" lon="6.62199">
        <ele>2167.6000976562</ele>
        <time>2019-12-30T11:22:12.000Z</time>
      </trkpt>
      <trkpt lat="45.59361" lon="6.62198">
        <ele>2168.6000976562</ele>
        <time>2019-12-30T11:22:16.000Z</time>
      </trkpt>
      <trkpt lat="45.59361" lon="6.62198">
        <ele>2169.3999023438</ele>
        <time>2019-12-30T11:22:20.000Z</time>
      </trkpt>
      <trkpt lat="45.59362" lon="6.62196">
        <ele>2169.3999023438</ele>
        <time>2019-12-30T11:22:32.000Z</time>
      </trkpt>
      <trkpt lat="45.59362" lon="6.62194">
        <ele>2169.1999511719</ele>
        <time>2019-12-30T11:22:36.000Z</time>
      </trkpt>
      <trkpt lat="45.59361" lon="6.62192">
        <ele>2169.3999023438</ele>
        <time>2019-12-30T11:22:37.000Z</time>
      </trkpt>
      <trkpt lat="45.59361" lon="6.62192">
        <ele>2169.6000976562</ele>
        <time>2019-12-30T11:22:38.000Z</time>
      </trkpt>
      <trkpt lat="45.5936" lon="6.62189">
        <ele>2170</ele>
        <time>2019-12-30T11:22:40.000Z</time>
      </trkpt>
      <trkpt lat="45.59359" lon="6.62186">
        <ele>2170.6000976562</ele>
        <time>2019-12-30T11:22:43.000Z</time>
      </trkpt>
      <trkpt lat="45.59359" lon="6.62184">
        <ele>2171</ele>
        <time>2019-12-30T11:22:45.000Z</time>
      </trkpt>
      <trkpt lat="45.59359" lon="6.6218">
        <ele>2171.6000976562</ele>
        <time>2019-12-30T11:22:49.000Z</time>
      </trkpt>
      <trkpt lat="45.59359" lon="6.6218">
        <ele>2171.6000976562</ele>
        <time>2019-12-30T11:22:50.000Z</time>
      </trkpt>
      <trkpt lat="45.59359" lon="6.6218">
        <ele>2172</ele>
        <time>2019-12-30T11:22:51.000Z</time>
      </trkpt>
      <trkpt lat="45.59359" lon="6.62178">
        <ele>2172.6000976562</ele>
        <time>2019-12-30T11:22:54.000Z</time>
      </trkpt>
      <trkpt lat="45.59359" lon="6.62178">
        <ele>2172.8000488281</ele>
        <time>2019-12-30T11:22:55.000Z</time>
      </trkpt>
      <trkpt lat="45.59357" lon="6.62171">
        <ele>2173.8000488281</ele>
        <time>2019-12-30T11:23:00.000Z</time>
      </trkpt>
      <trkpt lat="45.59357" lon="6.62171">
        <ele>2174</ele>
        <time>2019-12-30T11:23:01.000Z</time>
      </trkpt>
      <trkpt lat="45.59357" lon="6.62168">
        <ele>2174.3999023438</ele>
        <time>2019-12-30T11:23:04.000Z</time>
      </trkpt>
      <trkpt lat="45.59357" lon="6.62166">
        <ele>2175</ele>
        <time>2019-12-30T11:23:06.000Z</time>
      </trkpt>
      <trkpt lat="45.59356" lon="6.62164">
        <ele>2175.3999023438</ele>
        <time>2019-12-30T11:23:09.000Z</time>
      </trkpt>
      <trkpt lat="45.59356" lon="6.62163">
        <ele>2176</ele>
        <time>2019-12-30T11:23:12.000Z</time>
      </trkpt>
      <trkpt lat="45.59356" lon="6.62163">
        <ele>2176.1999511719</ele>
        <time>2019-12-30T11:23:14.000Z</time>
      </trkpt>
      <trkpt lat="45.59358" lon="6.62165">
        <ele>2177.1999511719</ele>
        <time>2019-12-30T11:23:19.000Z</time>
      </trkpt>
      <trkpt lat="45.59361" lon="6.62165">
        <ele>2177.8000488281</ele>
        <time>2019-12-30T11:23:23.000Z</time>
      </trkpt>
      <trkpt lat="45.59365" lon="6.62168">
        <ele>2178.1999511719</ele>
        <time>2019-12-30T11:23:28.000Z</time>
      </trkpt>
      <trkpt lat="45.59366" lon="6.62169">
        <ele>2178.3999023438</ele>
        <time>2019-12-30T11:23:29.000Z</time>
      </trkpt>
      <trkpt lat="45.59368" lon="6.6217">
        <ele>2179</ele>
        <time>2019-12-30T11:23:33.000Z</time>
      </trkpt>
      <trkpt lat="45.59368" lon="6.6217">
        <ele>2179.3999023438</ele>
        <time>2019-12-30T11:23:35.000Z</time>
      </trkpt>
      <trkpt lat="45.59369" lon="6.62171">
        <ele>2179.8000488281</ele>
        <time>2019-12-30T11:23:38.000Z</time>
      </trkpt>
      <trkpt lat="45.59371" lon="6.62174">
        <ele>2180.3999023438</ele>
        <time>2019-12-30T11:23:42.000Z</time>
      </trkpt>
      <trkpt lat="45.59371" lon="6.62174">
        <ele>2180.6000976562</ele>
        <time>2019-12-30T11:23:43.000Z</time>
      </trkpt>
      <trkpt lat="45.59372" lon="6.62175">
        <ele>2181.1999511719</ele>
        <time>2019-12-30T11:23:48.000Z</time>
      </trkpt>
      <trkpt lat="45.59374" lon="6.62176">
        <ele>2181.6000976562</ele>
        <time>2019-12-30T11:23:50.000Z</time>
      </trkpt>
      <trkpt lat="45.59377" lon="6.62177">
        <ele>2182</ele>
        <time>2019-12-30T11:23:53.000Z</time>
      </trkpt>
      <trkpt lat="45.5938" lon="6.62178">
        <ele>2182.8000488281</ele>
        <time>2019-12-30T11:23:58.000Z</time>
      </trkpt>
      <trkpt lat="45.59385" lon="6.62183">
        <ele>2183.6000976562</ele>
        <time>2019-12-30T11:24:04.000Z</time>
      </trkpt>
      <trkpt lat="45.59386" lon="6.62183">
        <ele>2184</ele>
        <time>2019-12-30T11:24:06.000Z</time>
      </trkpt>
      <trkpt lat="45.59387" lon="6.62184">
        <ele>2184.3999023438</ele>
        <time>2019-12-30T11:24:09.000Z</time>
      </trkpt>
      <trkpt lat="45.59389" lon="6.62185">
        <ele>2185</ele>
        <time>2019-12-30T11:24:13.000Z</time>
      </trkpt>
      <trkpt lat="45.59389" lon="6.62186">
        <ele>2185.3999023438</ele>
        <time>2019-12-30T11:24:15.000Z</time>
      </trkpt>
      <trkpt lat="45.59391" lon="6.62187">
        <ele>2186</ele>
        <time>2019-12-30T11:24:19.000Z</time>
      </trkpt>
      <trkpt lat="45.59391" lon="6.62187">
        <ele>2186.1999511719</ele>
        <time>2019-12-30T11:24:20.000Z</time>
      </trkpt>
      <trkpt lat="45.59394" lon="6.62191">
        <ele>2187</ele>
        <time>2019-12-30T11:24:24.000Z</time>
      </trkpt>
      <trkpt lat="45.59394" lon="6.62191">
        <ele>2187.1999511719</ele>
        <time>2019-12-30T11:24:25.000Z</time>
      </trkpt>
      <trkpt lat="45.59399" lon="6.62194">
        <ele>2187.8000488281</ele>
        <time>2019-12-30T11:24:28.000Z</time>
      </trkpt>
      <trkpt lat="45.59401" lon="6.62195">
        <ele>2188.1999511719</ele>
        <time>2019-12-30T11:24:30.000Z</time>
      </trkpt>
      <trkpt lat="45.59405" lon="6.62197">
        <ele>2188.3999023438</ele>
        <time>2019-12-30T11:24:32.000Z</time>
      </trkpt>
      <trkpt lat="45.59409" lon="6.62198">
        <ele>2189.1999511719</ele>
        <time>2019-12-30T11:24:37.000Z</time>
      </trkpt>
      <trkpt lat="45.5941" lon="6.62199">
        <ele>2190</ele>
        <time>2019-12-30T11:24:42.000Z</time>
      </trkpt>
      <trkpt lat="45.5941" lon="6.62201">
        <ele>2190.3999023438</ele>
        <time>2019-12-30T11:24:44.000Z</time>
      </trkpt>
      <trkpt lat="45.59411" lon="6.62201">
        <ele>2190.8000488281</ele>
        <time>2019-12-30T11:24:46.000Z</time>
      </trkpt>
      <trkpt lat="45.59413" lon="6.62202">
        <ele>2191.3999023438</ele>
        <time>2019-12-30T11:24:50.000Z</time>
      </trkpt>
      <trkpt lat="45.59413" lon="6.62202">
        <ele>2191.3999023438</ele>
        <time>2019-12-30T11:24:51.000Z</time>
      </trkpt>
      <trkpt lat="45.59415" lon="6.62204">
        <ele>2192</ele>
        <time>2019-12-30T11:24:55.000Z</time>
      </trkpt>
      <trkpt lat="45.59417" lon="6.62204">
        <ele>2192.6000976562</ele>
        <time>2019-12-30T11:24:58.000Z</time>
      </trkpt>
      <trkpt lat="45.59417" lon="6.62204">
        <ele>2192.8000488281</ele>
        <time>2019-12-30T11:25:00.000Z</time>
      </trkpt>
      <trkpt lat="45.59414" lon="6.62206">
        <ele>2193.3999023438</ele>
        <time>2019-12-30T11:25:09.000Z</time>
      </trkpt>
      <trkpt lat="45.59413" lon="6.62205">
        <ele>2193.6000976562</ele>
        <time>2019-12-30T11:25:11.000Z</time>
      </trkpt>
      <trkpt lat="45.59412" lon="6.62205">
        <ele>2194</ele>
        <time>2019-12-30T11:25:13.000Z</time>
      </trkpt>
      <trkpt lat="45.5941" lon="6.62202">
        <ele>2194.6000976562</ele>
        <time>2019-12-30T11:25:18.000Z</time>
      </trkpt>
      <trkpt lat="45.5941" lon="6.62201">
        <ele>2194.8000488281</ele>
        <time>2019-12-30T11:25:19.000Z</time>
      </trkpt>
      <trkpt lat="45.5941" lon="6.62201">
        <ele>2195.1999511719</ele>
        <time>2019-12-30T11:25:21.000Z</time>
      </trkpt>
      <trkpt lat="45.59409" lon="6.62199">
        <ele>2195.6000976562</ele>
        <time>2019-12-30T11:25:25.000Z</time>
      </trkpt>
      <trkpt lat="45.5941" lon="6.62198">
        <ele>2195.8000488281</ele>
        <time>2019-12-30T11:25:26.000Z</time>
      </trkpt>
      <trkpt lat="45.5941" lon="6.62195">
        <ele>2196</ele>
        <time>2019-12-30T11:25:29.000Z</time>
      </trkpt>
      <trkpt lat="45.59409" lon="6.62193">
        <ele>2196.1999511719</ele>
        <time>2019-12-30T11:25:30.000Z</time>
      </trkpt>
      <trkpt lat="45.59409" lon="6.62192">
        <ele>2196.3999023438</ele>
        <time>2019-12-30T11:25:32.000Z</time>
      </trkpt>
      <trkpt lat="45.59408" lon="6.62192">
        <ele>2196.8000488281</ele>
        <time>2019-12-30T11:25:35.000Z</time>
      </trkpt>
      <trkpt lat="45.59408" lon="6.62191">
        <ele>2197</ele>
        <time>2019-12-30T11:25:36.000Z</time>
      </trkpt>
      <trkpt lat="45.59407" lon="6.62188">
        <ele>2197.8000488281</ele>
        <time>2019-12-30T11:25:40.000Z</time>
      </trkpt>
      <trkpt lat="45.59407" lon="6.62187">
        <ele>2198</ele>
        <time>2019-12-30T11:25:41.000Z</time>
      </trkpt>
      <trkpt lat="45.59407" lon="6.62186">
        <ele>2198.3999023438</ele>
        <time>2019-12-30T11:25:45.000Z</time>
      </trkpt>
      <trkpt lat="45.59408" lon="6.62184">
        <ele>2199</ele>
        <time>2019-12-30T11:25:48.000Z</time>
      </trkpt>
      <trkpt lat="45.59408" lon="6.62183">
        <ele>2199.1999511719</ele>
        <time>2019-12-30T11:25:50.000Z</time>
      </trkpt>
      <trkpt lat="45.59408" lon="6.62179">
        <ele>2199.6000976562</ele>
        <time>2019-12-30T11:25:55.000Z</time>
      </trkpt>
      <trkpt lat="45.59408" lon="6.62179">
        <ele>2200</ele>
        <time>2019-12-30T11:25:58.000Z</time>
      </trkpt>
      <trkpt lat="45.59408" lon="6.62179">
        <ele>2202</ele>
        <time>2019-12-30T11:26:03.000Z</time>
      </trkpt>
      <trkpt lat="45.59411" lon="6.6218">
        <ele>2202.1999511719</ele>
        <time>2019-12-30T11:26:08.000Z</time>
      </trkpt>
      <trkpt lat="45.59413" lon="6.62181">
        <ele>2201.8000488281</ele>
        <time>2019-12-30T11:26:11.000Z</time>
      </trkpt>
      <trkpt lat="45.59413" lon="6.62182">
        <ele>2202.6000976562</ele>
        <time>2019-12-30T11:26:16.000Z</time>
      </trkpt>
      <trkpt lat="45.59414" lon="6.62183">
        <ele>2203</ele>
        <time>2019-12-30T11:26:19.000Z</time>
      </trkpt>
      <trkpt lat="45.59416" lon="6.62184">
        <ele>2203.1999511719</ele>
        <time>2019-12-30T11:26:21.000Z</time>
      </trkpt>
      <trkpt lat="45.59417" lon="6.62185">
        <ele>2204.1999511719</ele>
        <time>2019-12-30T11:26:25.000Z</time>
      </trkpt>
      <trkpt lat="45.59418" lon="6.62186">
        <ele>2205.1999511719</ele>
        <time>2019-12-30T11:26:30.000Z</time>
      </trkpt>
      <trkpt lat="45.59419" lon="6.62187">
        <ele>2205.8000488281</ele>
        <time>2019-12-30T11:26:34.000Z</time>
      </trkpt>
      <trkpt lat="45.59421" lon="6.62189">
        <ele>2206.1999511719</ele>
        <time>2019-12-30T11:26:38.000Z</time>
      </trkpt>
      <trkpt lat="45.59421" lon="6.6219">
        <ele>2206.8000488281</ele>
        <time>2019-12-30T11:26:42.000Z</time>
      </trkpt>
      <trkpt lat="45.59422" lon="6.62191">
        <ele>2207.1999511719</ele>
        <time>2019-12-30T11:26:44.000Z</time>
      </trkpt>
      <trkpt lat="45.59423" lon="6.62192">
        <ele>2207.8000488281</ele>
        <time>2019-12-30T11:26:47.000Z</time>
      </trkpt>
      <trkpt lat="45.59423" lon="6.62193">
        <ele>2208.3999023438</ele>
        <time>2019-12-30T11:26:50.000Z</time>
      </trkpt>
      <trkpt lat="45.59424" lon="6.62194">
        <ele>2208.8000488281</ele>
        <time>2019-12-30T11:26:52.000Z</time>
      </trkpt>
      <trkpt lat="45.59424" lon="6.62193">
        <ele>2209.3999023438</ele>
        <time>2019-12-30T11:26:58.000Z</time>
      </trkpt>
      <trkpt lat="45.59423" lon="6.62193">
        <ele>2209.8000488281</ele>
        <time>2019-12-30T11:27:05.000Z</time>
      </trkpt>
      <trkpt lat="45.59422" lon="6.62194">
        <ele>2210.3999023438</ele>
        <time>2019-12-30T11:27:08.000Z</time>
      </trkpt>
      <trkpt lat="45.59422" lon="6.62194">
        <ele>2210.6000976562</ele>
        <time>2019-12-30T11:27:09.000Z</time>
      </trkpt>
      <trkpt lat="45.59421" lon="6.62193">
        <ele>2210.6000976562</ele>
        <time>2019-12-30T11:27:12.000Z</time>
      </trkpt>
      <trkpt lat="45.59422" lon="6.62188">
        <ele>2211.3999023438</ele>
        <time>2019-12-30T11:27:17.000Z</time>
      </trkpt>
      <trkpt lat="45.59423" lon="6.62186">
        <ele>2211.6000976562</ele>
        <time>2019-12-30T11:27:18.000Z</time>
      </trkpt>
      <trkpt lat="45.59424" lon="6.62185">
        <ele>2212.1999511719</ele>
        <time>2019-12-30T11:27:20.000Z</time>
      </trkpt>
      <trkpt lat="45.59424" lon="6.62185">
        <ele>2212.6000976562</ele>
        <time>2019-12-30T11:27:22.000Z</time>
      </trkpt>
      <trkpt lat="45.59425" lon="6.62184">
        <ele>2213</ele>
        <time>2019-12-30T11:27:23.000Z</time>
      </trkpt>
      <trkpt lat="45.59425" lon="6.62184">
        <ele>2213.1999511719</ele>
        <time>2019-12-30T11:27:24.000Z</time>
      </trkpt>
      <trkpt lat="45.59425" lon="6.62183">
        <ele>2213.8000488281</ele>
        <time>2019-12-30T11:27:27.000Z</time>
      </trkpt>
      <trkpt lat="45.59425" lon="6.62182">
        <ele>2214</ele>
        <time>2019-12-30T11:27:31.000Z</time>
      </trkpt>
      <trkpt lat="45.59426" lon="6.62182">
        <ele>2214.8000488281</ele>
        <time>2019-12-30T11:27:35.000Z</time>
      </trkpt>
      <trkpt lat="45.59426" lon="6.62182">
        <ele>2215.8000488281</ele>
        <time>2019-12-30T11:27:38.000Z</time>
      </trkpt>
      <trkpt lat="45.59426" lon="6.62183">
        <ele>2215.8000488281</ele>
        <time>2019-12-30T11:27:44.000Z</time>
      </trkpt>
      <trkpt lat="45.59428" lon="6.62184">
        <ele>2216.6000976562</ele>
        <time>2019-12-30T11:27:50.000Z</time>
      </trkpt>
      <trkpt lat="45.59431" lon="6.62186">
        <ele>2217</ele>
        <time>2019-12-30T11:27:52.000Z</time>
      </trkpt>
      <trkpt lat="45.59431" lon="6.62187">
        <ele>2217.1999511719</ele>
        <time>2019-12-30T11:27:53.000Z</time>
      </trkpt>
      <trkpt lat="45.59436" lon="6.6219">
        <ele>2218</ele>
        <time>2019-12-30T11:27:57.000Z</time>
      </trkpt>
      <trkpt lat="45.59436" lon="6.6219">
        <ele>2218</ele>
        <time>2019-12-30T11:27:58.000Z</time>
      </trkpt>
      <trkpt lat="45.59436" lon="6.62191">
        <ele>2218.3999023438</ele>
        <time>2019-12-30T11:28:01.000Z</time>
      </trkpt>
      <trkpt lat="45.59436" lon="6.62191">
        <ele>2219</ele>
        <time>2019-12-30T11:28:03.000Z</time>
      </trkpt>
      <trkpt lat="45.59436" lon="6.62191">
        <ele>2219.6000976562</ele>
        <time>2019-12-30T11:28:05.000Z</time>
      </trkpt>
      <trkpt lat="45.59436" lon="6.62191">
        <ele>2219.8000488281</ele>
        <time>2019-12-30T11:28:12.000Z</time>
      </trkpt>
      <trkpt lat="45.59435" lon="6.62191">
        <ele>2220</ele>
        <time>2019-12-30T11:28:18.000Z</time>
      </trkpt>
      <trkpt lat="45.59436" lon="6.62189">
        <ele>2220.3999023438</ele>
        <time>2019-12-30T11:28:19.000Z</time>
      </trkpt>
      <trkpt lat="45.59437" lon="6.62188">
        <ele>2220.8000488281</ele>
        <time>2019-12-30T11:28:21.000Z</time>
      </trkpt>
      <trkpt lat="45.59437" lon="6.62188">
        <ele>2220.8000488281</ele>
        <time>2019-12-30T11:28:23.000Z</time>
      </trkpt>
      <trkpt lat="45.59436" lon="6.62189">
        <ele>2220.8000488281</ele>
        <time>2019-12-30T11:28:24.000Z</time>
      </trkpt>
      <trkpt lat="45.59435" lon="6.62184">
        <ele>2221.6000976562</ele>
        <time>2019-12-30T11:28:28.000Z</time>
      </trkpt>
      <trkpt lat="45.59435" lon="6.62184">
        <ele>2221.8000488281</ele>
        <time>2019-12-30T11:28:29.000Z</time>
      </trkpt>
      <trkpt lat="45.59435" lon="6.62181">
        <ele>2222.3999023438</ele>
        <time>2019-12-30T11:28:33.000Z</time>
      </trkpt>
      <trkpt lat="45.59435" lon="6.6218">
        <ele>2222.6000976562</ele>
        <time>2019-12-30T11:28:35.000Z</time>
      </trkpt>
      <trkpt lat="45.59434" lon="6.62178">
        <ele>2222.8000488281</ele>
        <time>2019-12-30T11:28:37.000Z</time>
      </trkpt>
      <trkpt lat="45.59433" lon="6.62176">
        <ele>2223.1999511719</ele>
        <time>2019-12-30T11:28:39.000Z</time>
      </trkpt>
      <trkpt lat="45.59433" lon="6.62174">
        <ele>2223.6000976562</ele>
        <time>2019-12-30T11:28:42.000Z</time>
      </trkpt>
      <trkpt lat="45.59433" lon="6.62174">
        <ele>2223.8000488281</ele>
        <time>2019-12-30T11:28:43.000Z</time>
      </trkpt>
      <trkpt lat="45.59432" lon="6.6217">
        <ele>2224.8000488281</ele>
        <time>2019-12-30T11:28:48.000Z</time>
      </trkpt>
      <trkpt lat="45.59432" lon="6.62169">
        <ele>2225</ele>
        <time>2019-12-30T11:28:49.000Z</time>
      </trkpt>
      <trkpt lat="45.59432" lon="6.62165">
        <ele>2225.8000488281</ele>
        <time>2019-12-30T11:28:53.000Z</time>
      </trkpt>
      <trkpt lat="45.59432" lon="6.62162">
        <ele>2226.3999023438</ele>
        <time>2019-12-30T11:28:57.000Z</time>
      </trkpt>
      <trkpt lat="45.5943" lon="6.6216">
        <ele>2226.8000488281</ele>
        <time>2019-12-30T11:29:00.000Z</time>
      </trkpt>
      <trkpt lat="45.5943" lon="6.62159">
        <ele>2227</ele>
        <time>2019-12-30T11:29:01.000Z</time>
      </trkpt>
      <trkpt lat="45.5943" lon="6.62159">
        <ele>2227</ele>
        <time>2019-12-30T11:29:02.000Z</time>
      </trkpt>
      <trkpt lat="45.5943" lon="6.62158">
        <ele>2227.1999511719</ele>
        <time>2019-12-30T11:29:03.000Z</time>
      </trkpt>
      <trkpt lat="45.5943" lon="6.62156">
        <ele>2227.6000976562</ele>
        <time>2019-12-30T11:29:06.000Z</time>
      </trkpt>
      <trkpt lat="45.5943" lon="6.62156">
        <ele>2227.8000488281</ele>
        <time>2019-12-30T11:29:07.000Z</time>
      </trkpt>
      <trkpt lat="45.5943" lon="6.62153">
        <ele>2228.3999023438</ele>
        <time>2019-12-30T11:29:10.000Z</time>
      </trkpt>
      <trkpt lat="45.5943" lon="6.62152">
        <ele>2229</ele>
        <time>2019-12-30T11:29:13.000Z</time>
      </trkpt>
      <trkpt lat="45.5943" lon="6.62148">
        <ele>2229.6000976562</ele>
        <time>2019-12-30T11:29:16.000Z</time>
      </trkpt>
      <trkpt lat="45.5943" lon="6.62146">
        <ele>2230.1999511719</ele>
        <time>2019-12-30T11:29:19.000Z</time>
      </trkpt>
      <trkpt lat="45.5943" lon="6.62145">
        <ele>2230.1999511719</ele>
        <time>2019-12-30T11:29:20.000Z</time>
      </trkpt>
      <trkpt lat="45.5943" lon="6.62144">
        <ele>2230.6000976562</ele>
        <time>2019-12-30T11:29:24.000Z</time>
      </trkpt>
      <trkpt lat="45.59429" lon="6.62138">
        <ele>2231.3999023438</ele>
        <time>2019-12-30T11:29:29.000Z</time>
      </trkpt>
      <trkpt lat="45.59428" lon="6.62135">
        <ele>2231.8000488281</ele>
        <time>2019-12-30T11:29:33.000Z</time>
      </trkpt>
      <trkpt lat="45.59427" lon="6.62133">
        <ele>2232.3999023438</ele>
        <time>2019-12-30T11:29:36.000Z</time>
      </trkpt>
      <trkpt lat="45.59427" lon="6.62131">
        <ele>2232.6000976562</ele>
        <time>2019-12-30T11:29:38.000Z</time>
      </trkpt>
      <trkpt lat="45.59427" lon="6.62129">
        <ele>2233.1999511719</ele>
        <time>2019-12-30T11:29:40.000Z</time>
      </trkpt>
      <trkpt lat="45.59427" lon="6.62129">
        <ele>2233.1999511719</ele>
        <time>2019-12-30T11:29:41.000Z</time>
      </trkpt>
      <trkpt lat="45.59426" lon="6.62127">
        <ele>2233.3999023438</ele>
        <time>2019-12-30T11:29:42.000Z</time>
      </trkpt>
      <trkpt lat="45.59426" lon="6.62125">
        <ele>2233.8000488281</ele>
        <time>2019-12-30T11:29:44.000Z</time>
      </trkpt>
      <trkpt lat="45.59426" lon="6.62124">
        <ele>2234</ele>
        <time>2019-12-30T11:29:45.000Z</time>
      </trkpt>
      <trkpt lat="45.59425" lon="6.62121">
        <ele>2234.6000976562</ele>
        <time>2019-12-30T11:29:48.000Z</time>
      </trkpt>
      <trkpt lat="45.59425" lon="6.6212">
        <ele>2234.8000488281</ele>
        <time>2019-12-30T11:29:50.000Z</time>
      </trkpt>
      <trkpt lat="45.59424" lon="6.62118">
        <ele>2235</ele>
        <time>2019-12-30T11:29:51.000Z</time>
      </trkpt>
      <trkpt lat="45.59423" lon="6.62116">
        <ele>2235.6000976562</ele>
        <time>2019-12-30T11:29:53.000Z</time>
      </trkpt>
      <trkpt lat="45.59422" lon="6.62114">
        <ele>2235.8000488281</ele>
        <time>2019-12-30T11:29:54.000Z</time>
      </trkpt>
      <trkpt lat="45.59421" lon="6.62111">
        <ele>2236.6000976562</ele>
        <time>2019-12-30T11:29:57.000Z</time>
      </trkpt>
      <trkpt lat="45.59419" lon="6.62109">
        <ele>2237.1999511719</ele>
        <time>2019-12-30T11:29:59.000Z</time>
      </trkpt>
      <trkpt lat="45.59418" lon="6.62106">
        <ele>2237.8000488281</ele>
        <time>2019-12-30T11:30:02.000Z</time>
      </trkpt>
      <trkpt lat="45.59418" lon="6.62105">
        <ele>2238.3999023438</ele>
        <time>2019-12-30T11:30:04.000Z</time>
      </trkpt>
      <trkpt lat="45.59417" lon="6.62103">
        <ele>2239</ele>
        <time>2019-12-30T11:30:06.000Z</time>
      </trkpt>
      <trkpt lat="45.59416" lon="6.62102">
        <ele>2239.6000976562</ele>
        <time>2019-12-30T11:30:08.000Z</time>
      </trkpt>
      <trkpt lat="45.59416" lon="6.62101">
        <ele>2239.8000488281</ele>
        <time>2019-12-30T11:30:09.000Z</time>
      </trkpt>
      <trkpt lat="45.59416" lon="6.621">
        <ele>2240.1999511719</ele>
        <time>2019-12-30T11:30:11.000Z</time>
      </trkpt>
      <trkpt lat="45.59417" lon="6.621">
        <ele>2241.1999511719</ele>
        <time>2019-12-30T11:30:16.000Z</time>
      </trkpt>
      <trkpt lat="45.59417" lon="6.621">
        <ele>2241.3999023438</ele>
        <time>2019-12-30T11:30:18.000Z</time>
      </trkpt>
      <trkpt lat="45.59417" lon="6.62099">
        <ele>2241.6000976562</ele>
        <time>2019-12-30T11:30:31.000Z</time>
      </trkpt>
      <trkpt lat="45.59417" lon="6.62094">
        <ele>2241.8000488281</ele>
        <time>2019-12-30T11:30:40.000Z</time>
      </trkpt>
      <trkpt lat="45.59416" lon="6.62094">
        <ele>2242</ele>
        <time>2019-12-30T11:30:43.000Z</time>
      </trkpt>
      <trkpt lat="45.59422" lon="6.62096">
        <ele>2242.3999023438</ele>
        <time>2019-12-30T11:30:48.000Z</time>
      </trkpt>
      <trkpt lat="45.59425" lon="6.62097">
        <ele>2242.6000976562</ele>
        <time>2019-12-30T11:30:49.000Z</time>
      </trkpt>
      <trkpt lat="45.59431" lon="6.62098">
        <ele>2243</ele>
        <time>2019-12-30T11:30:53.000Z</time>
      </trkpt>
      <trkpt lat="45.59433" lon="6.62097">
        <ele>2243.8000488281</ele>
        <time>2019-12-30T11:30:55.000Z</time>
      </trkpt>
      <trkpt lat="45.59435" lon="6.62097">
        <ele>2244.3999023438</ele>
        <time>2019-12-30T11:30:57.000Z</time>
      </trkpt>
      <trkpt lat="45.59437" lon="6.62097">
        <ele>2244.8000488281</ele>
        <time>2019-12-30T11:30:59.000Z</time>
      </trkpt>
      <trkpt lat="45.59438" lon="6.62097">
        <ele>2245.3999023438</ele>
        <time>2019-12-30T11:31:02.000Z</time>
      </trkpt>
      <trkpt lat="45.59439" lon="6.62098">
        <ele>2246</ele>
        <time>2019-12-30T11:31:05.000Z</time>
      </trkpt>
      <trkpt lat="45.59442" lon="6.62098">
        <ele>2246.6000976562</ele>
        <time>2019-12-30T11:31:07.000Z</time>
      </trkpt>
      <trkpt lat="45.59444" lon="6.62099">
        <ele>2247.1999511719</ele>
        <time>2019-12-30T11:31:10.000Z</time>
      </trkpt>
      <trkpt lat="45.59444" lon="6.62099">
        <ele>2247.3999023438</ele>
        <time>2019-12-30T11:31:11.000Z</time>
      </trkpt>
      <trkpt lat="45.59446" lon="6.62099">
        <ele>2248.1999511719</ele>
        <time>2019-12-30T11:31:14.000Z</time>
      </trkpt>
      <trkpt lat="45.59447" lon="6.62099">
        <ele>2249.1999511719</ele>
        <time>2019-12-30T11:31:16.000Z</time>
      </trkpt>
      <trkpt lat="45.59449" lon="6.62099">
        <ele>2249.3999023438</ele>
        <time>2019-12-30T11:31:17.000Z</time>
      </trkpt>
      <trkpt lat="45.5945" lon="6.621">
        <ele>2250.3999023438</ele>
        <time>2019-12-30T11:31:20.000Z</time>
      </trkpt>
      <trkpt lat="45.59451" lon="6.621">
        <ele>2250.6000976562</ele>
        <time>2019-12-30T11:31:21.000Z</time>
      </trkpt>
      <trkpt lat="45.59451" lon="6.621">
        <ele>2251.8000488281</ele>
        <time>2019-12-30T11:31:24.000Z</time>
      </trkpt>
      <trkpt lat="45.59451" lon="6.621">
        <ele>2252.1999511719</ele>
        <time>2019-12-30T11:31:26.000Z</time>
      </trkpt>
      <trkpt lat="45.59457" lon="6.62102">
        <ele>2252.1999511719</ele>
        <time>2019-12-30T11:31:35.000Z</time>
      </trkpt>
      <trkpt lat="45.59463" lon="6.62103">
        <ele>2252.8000488281</ele>
        <time>2019-12-30T11:31:40.000Z</time>
      </trkpt>
      <trkpt lat="45.59467" lon="6.62105">
        <ele>2254</ele>
        <time>2019-12-30T11:31:44.000Z</time>
      </trkpt>
      <trkpt lat="45.59469" lon="6.62106">
        <ele>2254.6000976562</ele>
        <time>2019-12-30T11:31:46.000Z</time>
      </trkpt>
      <trkpt lat="45.59471" lon="6.62106">
        <ele>2255</ele>
        <time>2019-12-30T11:31:50.000Z</time>
      </trkpt>
      <trkpt lat="45.59472" lon="6.62107">
        <ele>2255.1999511719</ele>
        <time>2019-12-30T11:31:51.000Z</time>
      </trkpt>
      <trkpt lat="45.59473" lon="6.62107">
        <ele>2256</ele>
        <time>2019-12-30T11:31:55.000Z</time>
      </trkpt>
      <trkpt lat="45.59473" lon="6.62107">
        <ele>2256.6000976562</ele>
        <time>2019-12-30T11:31:57.000Z</time>
      </trkpt>
      <trkpt lat="45.59473" lon="6.62107">
        <ele>2256.8000488281</ele>
        <time>2019-12-30T11:32:13.000Z</time>
      </trkpt>
      <trkpt lat="45.59473" lon="6.62107">
        <ele>2257.1999511719</ele>
        <time>2019-12-30T11:32:19.000Z</time>
      </trkpt>
      <trkpt lat="45.59475" lon="6.62107">
        <ele>2258.1999511719</ele>
        <time>2019-12-30T11:32:23.000Z</time>
      </trkpt>
      <trkpt lat="45.59476" lon="6.62108">
        <ele>2258.8000488281</ele>
        <time>2019-12-30T11:32:26.000Z</time>
      </trkpt>
      <trkpt lat="45.59476" lon="6.62108">
        <ele>2259.3999023438</ele>
        <time>2019-12-30T11:32:28.000Z</time>
      </trkpt>
      <trkpt lat="45.59476" lon="6.62108">
        <ele>2260.1999511719</ele>
        <time>2019-12-30T11:32:32.000Z</time>
      </trkpt>
      <trkpt lat="45.59476" lon="6.62108">
        <ele>2260.3999023438</ele>
        <time>2019-12-30T11:32:34.000Z</time>
      </trkpt>
      <trkpt lat="45.59476" lon="6.62108">
        <ele>2260.3999023438</ele>
        <time>2019-12-30T11:32:37.000Z</time>
      </trkpt>
      <trkpt lat="45.59476" lon="6.62108">
        <ele>2260.3999023438</ele>
        <time>2019-12-30T11:32:49.000Z</time>
      </trkpt>
      <trkpt lat="45.59481" lon="6.62109">
        <ele>2260.1999511719</ele>
        <time>2019-12-30T11:33:00.000Z</time>
      </trkpt>
      <trkpt lat="45.5948" lon="6.62106">
        <ele>2260.1999511719</ele>
        <time>2019-12-30T11:33:05.000Z</time>
      </trkpt>
      <trkpt lat="45.59481" lon="6.62106">
        <ele>2261</ele>
        <time>2019-12-30T11:33:21.000Z</time>
      </trkpt>
      <trkpt lat="45.59481" lon="6.62106">
        <ele>2261.3999023438</ele>
        <time>2019-12-30T11:33:26.000Z</time>
      </trkpt>
      <trkpt lat="45.59486" lon="6.6211">
        <ele>2261.6000976562</ele>
        <time>2019-12-30T11:33:29.000Z</time>
      </trkpt>
      <trkpt lat="45.59489" lon="6.62114">
        <ele>2261.8000488281</ele>
        <time>2019-12-30T11:33:33.000Z</time>
      </trkpt>
      <trkpt lat="45.59491" lon="6.62118">
        <ele>2262.3999023438</ele>
        <time>2019-12-30T11:33:37.000Z</time>
      </trkpt>
      <trkpt lat="45.59493" lon="6.62118">
        <ele>2262.6000976562</ele>
        <time>2019-12-30T11:33:38.000Z</time>
      </trkpt>
      <trkpt lat="45.59494" lon="6.6212">
        <ele>2263.8000488281</ele>
        <time>2019-12-30T11:33:41.000Z</time>
      </trkpt>
      <trkpt lat="45.59495" lon="6.62121">
        <ele>2264.1999511719</ele>
        <time>2019-12-30T11:33:43.000Z</time>
      </trkpt>
      <trkpt lat="45.59497" lon="6.62124">
        <ele>2265</ele>
        <time>2019-12-30T11:33:47.000Z</time>
      </trkpt>
      <trkpt lat="45.59497" lon="6.62125">
        <ele>2265.1999511719</ele>
        <time>2019-12-30T11:33:48.000Z</time>
      </trkpt>
      <trkpt lat="45.59499" lon="6.62127">
        <ele>2266.1999511719</ele>
        <time>2019-12-30T11:33:52.000Z</time>
      </trkpt>
      <trkpt lat="45.595" lon="6.62127">
        <ele>2266.3999023438</ele>
        <time>2019-12-30T11:33:53.000Z</time>
      </trkpt>
      <trkpt lat="45.59502" lon="6.62128">
        <ele>2267</ele>
        <time>2019-12-30T11:33:57.000Z</time>
      </trkpt>
      <trkpt lat="45.59503" lon="6.62129">
        <ele>2267.1999511719</ele>
        <time>2019-12-30T11:33:59.000Z</time>
      </trkpt>
      <trkpt lat="45.59503" lon="6.6213">
        <ele>2268</ele>
        <time>2019-12-30T11:34:03.000Z</time>
      </trkpt>
      <trkpt lat="45.59503" lon="6.6213">
        <ele>2268.3999023438</ele>
        <time>2019-12-30T11:34:04.000Z</time>
      </trkpt>
      <trkpt lat="45.59503" lon="6.6213">
        <ele>2268.6000976562</ele>
        <time>2019-12-30T11:34:19.000Z</time>
      </trkpt>
      <trkpt lat="45.59503" lon="6.6213">
        <ele>2268.6000976562</ele>
        <time>2019-12-30T11:34:38.000Z</time>
      </trkpt>
      <trkpt lat="45.59507" lon="6.62133">
        <ele>2268.6000976562</ele>
        <time>2019-12-30T11:34:45.000Z</time>
      </trkpt>
      <trkpt lat="45.59508" lon="6.62134">
        <ele>2269.1999511719</ele>
        <time>2019-12-30T11:34:48.000Z</time>
      </trkpt>
      <trkpt lat="45.59508" lon="6.62134">
        <ele>2269.3999023438</ele>
        <time>2019-12-30T11:34:49.000Z</time>
      </trkpt>
      <trkpt lat="45.59508" lon="6.62137">
        <ele>2270.6000976562</ele>
        <time>2019-12-30T11:34:53.000Z</time>
      </trkpt>
      <trkpt lat="45.59511" lon="6.6214">
        <ele>2271.3999023438</ele>
        <time>2019-12-30T11:34:57.000Z</time>
      </trkpt>
      <trkpt lat="45.59512" lon="6.62141">
        <ele>2271.6000976562</ele>
        <time>2019-12-30T11:34:59.000Z</time>
      </trkpt>
      <trkpt lat="45.59513" lon="6.62142">
        <ele>2272</ele>
        <time>2019-12-30T11:35:01.000Z</time>
      </trkpt>
      <trkpt lat="45.59514" lon="6.62144">
        <ele>2272.8000488281</ele>
        <time>2019-12-30T11:35:05.000Z</time>
      </trkpt>
      <trkpt lat="45.59514" lon="6.62144">
        <ele>2273.1999511719</ele>
        <time>2019-12-30T11:35:06.000Z</time>
      </trkpt>
      <trkpt lat="45.59514" lon="6.62143">
        <ele>2273.6000976562</ele>
        <time>2019-12-30T11:35:14.000Z</time>
      </trkpt>
      <trkpt lat="45.59514" lon="6.62141">
        <ele>2273.8000488281</ele>
        <time>2019-12-30T11:35:16.000Z</time>
      </trkpt>
      <trkpt lat="45.59513" lon="6.62141">
        <ele>2274.3999023438</ele>
        <time>2019-12-30T11:35:18.000Z</time>
      </trkpt>
      <trkpt lat="45.59513" lon="6.62136">
        <ele>2275</ele>
        <time>2019-12-30T11:35:23.000Z</time>
      </trkpt>
      <trkpt lat="45.59513" lon="6.62132">
        <ele>2275.3999023438</ele>
        <time>2019-12-30T11:35:27.000Z</time>
      </trkpt>
      <trkpt lat="45.59516" lon="6.62128">
        <ele>2276</ele>
        <time>2019-12-30T11:35:32.000Z</time>
      </trkpt>
      <trkpt lat="45.59516" lon="6.62125">
        <ele>2277.1999511719</ele>
        <time>2019-12-30T11:35:37.000Z</time>
      </trkpt>
      <trkpt lat="45.59516" lon="6.62125">
        <ele>2277.6000976562</ele>
        <time>2019-12-30T11:35:38.000Z</time>
      </trkpt>
      <trkpt lat="45.5952" lon="6.62123">
        <ele>2278.1999511719</ele>
        <time>2019-12-30T11:35:43.000Z</time>
      </trkpt>
      <trkpt lat="45.5952" lon="6.62122">
        <ele>2278.3999023438</ele>
        <time>2019-12-30T11:35:44.000Z</time>
      </trkpt>
      <trkpt lat="45.59524" lon="6.62117">
        <ele>2279.1999511719</ele>
        <time>2019-12-30T11:35:50.000Z</time>
      </trkpt>
      <trkpt lat="45.59524" lon="6.62115">
        <ele>2279.3999023438</ele>
        <time>2019-12-30T11:35:51.000Z</time>
      </trkpt>
      <trkpt lat="45.59525" lon="6.62116">
        <ele>2280.3999023438</ele>
        <time>2019-12-30T11:35:57.000Z</time>
      </trkpt>
      <trkpt lat="45.59525" lon="6.62116">
        <ele>2280.3999023438</ele>
        <time>2019-12-30T11:36:05.000Z</time>
      </trkpt>
      <trkpt lat="45.59525" lon="6.62116">
        <ele>2280.3999023438</ele>
        <time>2019-12-30T11:36:09.000Z</time>
      </trkpt>
      <trkpt lat="45.59526" lon="6.62113">
        <ele>2280.3999023438</ele>
        <time>2019-12-30T11:36:16.000Z</time>
      </trkpt>
      <trkpt lat="45.59528" lon="6.6211">
        <ele>2280.8000488281</ele>
        <time>2019-12-30T11:36:22.000Z</time>
      </trkpt>
      <trkpt lat="45.59527" lon="6.6211">
        <ele>2281.6000976562</ele>
        <time>2019-12-30T11:36:26.000Z</time>
      </trkpt>
      <trkpt lat="45.59527" lon="6.6211">
        <ele>2281.6000976562</ele>
        <time>2019-12-30T11:36:31.000Z</time>
      </trkpt>
      <trkpt lat="45.59527" lon="6.6211">
        <ele>2281.8000488281</ele>
        <time>2019-12-30T11:36:44.000Z</time>
      </trkpt>
      <trkpt lat="45.59528" lon="6.62109">
        <ele>2281.8000488281</ele>
        <time>2019-12-30T11:36:56.000Z</time>
      </trkpt>
      <trkpt lat="45.59532" lon="6.62105">
        <ele>2282</ele>
        <time>2019-12-30T11:37:00.000Z</time>
      </trkpt>
      <trkpt lat="45.59536" lon="6.62099">
        <ele>2282.6000976562</ele>
        <time>2019-12-30T11:37:04.000Z</time>
      </trkpt>
      <trkpt lat="45.59536" lon="6.62098">
        <ele>2283.1999511719</ele>
        <time>2019-12-30T11:37:08.000Z</time>
      </trkpt>
      <trkpt lat="45.59536" lon="6.62096">
        <ele>2283.6000976562</ele>
        <time>2019-12-30T11:37:12.000Z</time>
      </trkpt>
      <trkpt lat="45.59536" lon="6.62095">
        <ele>2283.8000488281</ele>
        <time>2019-12-30T11:37:15.000Z</time>
      </trkpt>
      <trkpt lat="45.59536" lon="6.62092">
        <ele>2284.8000488281</ele>
        <time>2019-12-30T11:37:19.000Z</time>
      </trkpt>
      <trkpt lat="45.59536" lon="6.62088">
        <ele>2285.6000976562</ele>
        <time>2019-12-30T11:37:23.000Z</time>
      </trkpt>
      <trkpt lat="45.59536" lon="6.62086">
        <ele>2285.8000488281</ele>
        <time>2019-12-30T11:37:25.000Z</time>
      </trkpt>
      <trkpt lat="45.59536" lon="6.62082">
        <ele>2286.3999023438</ele>
        <time>2019-12-30T11:37:27.000Z</time>
      </trkpt>
      <trkpt lat="45.59537" lon="6.62082">
        <ele>2286.6000976562</ele>
        <time>2019-12-30T11:37:28.000Z</time>
      </trkpt>
      <trkpt lat="45.59537" lon="6.62082">
        <ele>2287</ele>
        <time>2019-12-30T11:37:29.000Z</time>
      </trkpt>
      <trkpt lat="45.59536" lon="6.62078">
        <ele>2287.3999023438</ele>
        <time>2019-12-30T11:37:32.000Z</time>
      </trkpt>
      <trkpt lat="45.59535" lon="6.62076">
        <ele>2288.1999511719</ele>
        <time>2019-12-30T11:37:36.000Z</time>
      </trkpt>
      <trkpt lat="45.59535" lon="6.62074">
        <ele>2288.6000976562</ele>
        <time>2019-12-30T11:37:39.000Z</time>
      </trkpt>
      <trkpt lat="45.59534" lon="6.62074">
        <ele>2288.8000488281</ele>
        <time>2019-12-30T11:37:40.000Z</time>
      </trkpt>
      <trkpt lat="45.59533" lon="6.62072">
        <ele>2289.1999511719</ele>
        <time>2019-12-30T11:37:42.000Z</time>
      </trkpt>
      <trkpt lat="45.59531" lon="6.6207">
        <ele>2289.8000488281</ele>
        <time>2019-12-30T11:37:45.000Z</time>
      </trkpt>
      <trkpt lat="45.59529" lon="6.62067">
        <ele>2290.1999511719</ele>
        <time>2019-12-30T11:37:49.000Z</time>
      </trkpt>
      <trkpt lat="45.59529" lon="6.62067">
        <ele>2290.3999023438</ele>
        <time>2019-12-30T11:37:50.000Z</time>
      </trkpt>
      <trkpt lat="45.59529" lon="6.62066">
        <ele>2291</ele>
        <time>2019-12-30T11:37:56.000Z</time>
      </trkpt>
      <trkpt lat="45.59529" lon="6.62066">
        <ele>2291.6000976562</ele>
        <time>2019-12-30T11:37:58.000Z</time>
      </trkpt>
      <trkpt lat="45.59529" lon="6.62066">
        <ele>2292</ele>
        <time>2019-12-30T11:38:07.000Z</time>
      </trkpt>
      <trkpt lat="45.59533" lon="6.62064">
        <ele>2291.8000488281</ele>
        <time>2019-12-30T11:38:10.000Z</time>
      </trkpt>
      <trkpt lat="45.59533" lon="6.62064">
        <ele>2291.8000488281</ele>
        <time>2019-12-30T11:38:11.000Z</time>
      </trkpt>
      <trkpt lat="45.59537" lon="6.62061">
        <ele>2292.6000976562</ele>
        <time>2019-12-30T11:38:14.000Z</time>
      </trkpt>
      <trkpt lat="45.59538" lon="6.62061">
        <ele>2292.8000488281</ele>
        <time>2019-12-30T11:38:15.000Z</time>
      </trkpt>
      <trkpt lat="45.59541" lon="6.62059">
        <ele>2293.8000488281</ele>
        <time>2019-12-30T11:38:20.000Z</time>
      </trkpt>
      <trkpt lat="45.59542" lon="6.62058">
        <ele>2294</ele>
        <time>2019-12-30T11:38:21.000Z</time>
      </trkpt>
      <trkpt lat="45.59546" lon="6.62055">
        <ele>2295</ele>
        <time>2019-12-30T11:38:27.000Z</time>
      </trkpt>
      <trkpt lat="45.59548" lon="6.62054">
        <ele>2295.6000976562</ele>
        <time>2019-12-30T11:38:31.000Z</time>
      </trkpt>
      <trkpt lat="45.59549" lon="6.62054">
        <ele>2296</ele>
        <time>2019-12-30T11:38:33.000Z</time>
      </trkpt>
      <trkpt lat="45.59552" lon="6.62053">
        <ele>2296.8000488281</ele>
        <time>2019-12-30T11:38:38.000Z</time>
      </trkpt>
      <trkpt lat="45.59552" lon="6.62052">
        <ele>2297.1999511719</ele>
        <time>2019-12-30T11:38:40.000Z</time>
      </trkpt>
      <trkpt lat="45.59555" lon="6.62052">
        <ele>2298</ele>
        <time>2019-12-30T11:38:43.000Z</time>
      </trkpt>
      <trkpt lat="45.59555" lon="6.62052">
        <ele>2298.1999511719</ele>
        <time>2019-12-30T11:38:45.000Z</time>
      </trkpt>
      <trkpt lat="45.59556" lon="6.62051">
        <ele>2298.6000976562</ele>
        <time>2019-12-30T11:38:47.000Z</time>
      </trkpt>
      <trkpt lat="45.59557" lon="6.62051">
        <ele>2299</ele>
        <time>2019-12-30T11:38:51.000Z</time>
      </trkpt>
      <trkpt lat="45.59559" lon="6.6205">
        <ele>2299.3999023438</ele>
        <time>2019-12-30T11:38:53.000Z</time>
      </trkpt>
      <trkpt lat="45.5956" lon="6.62051">
        <ele>2299.6000976562</ele>
        <time>2019-12-30T11:38:55.000Z</time>
      </trkpt>
      <trkpt lat="45.59562" lon="6.62051">
        <ele>2300.3999023438</ele>
        <time>2019-12-30T11:38:58.000Z</time>
      </trkpt>
      <trkpt lat="45.59563" lon="6.62051">
        <ele>2301</ele>
        <time>2019-12-30T11:39:00.000Z</time>
      </trkpt>
      <trkpt lat="45.59564" lon="6.6205">
        <ele>2301.3999023438</ele>
        <time>2019-12-30T11:39:03.000Z</time>
      </trkpt>
      <trkpt lat="45.59565" lon="6.6205">
        <ele>2301.6000976562</ele>
        <time>2019-12-30T11:39:07.000Z</time>
      </trkpt>
      <trkpt lat="45.59567" lon="6.6205">
        <ele>2302.6000976562</ele>
        <time>2019-12-30T11:39:11.000Z</time>
      </trkpt>
      <trkpt lat="45.59567" lon="6.6205">
        <ele>2302.8000488281</ele>
        <time>2019-12-30T11:39:12.000Z</time>
      </trkpt>
      <trkpt lat="45.59571" lon="6.62051">
        <ele>2303.8000488281</ele>
        <time>2019-12-30T11:39:18.000Z</time>
      </trkpt>
      <trkpt lat="45.59572" lon="6.6205">
        <ele>2304.8000488281</ele>
        <time>2019-12-30T11:39:25.000Z</time>
      </trkpt>
      <trkpt lat="45.59572" lon="6.6205">
        <ele>2304.8000488281</ele>
        <time>2019-12-30T11:39:26.000Z</time>
      </trkpt>
      <trkpt lat="45.59576" lon="6.62049">
        <ele>2305.8000488281</ele>
        <time>2019-12-30T11:39:30.000Z</time>
      </trkpt>
      <trkpt lat="45.59578" lon="6.62049">
        <ele>2306</ele>
        <time>2019-12-30T11:39:31.000Z</time>
      </trkpt>
      <trkpt lat="45.59581" lon="6.62049">
        <ele>2306.8000488281</ele>
        <time>2019-12-30T11:39:37.000Z</time>
      </trkpt>
      <trkpt lat="45.59581" lon="6.62049">
        <ele>2307</ele>
        <time>2019-12-30T11:39:38.000Z</time>
      </trkpt>
      <trkpt lat="45.59583" lon="6.62049">
        <ele>2308</ele>
        <time>2019-12-30T11:39:41.000Z</time>
      </trkpt>
      <trkpt lat="45.59586" lon="6.62048">
        <ele>2308.1999511719</ele>
        <time>2019-12-30T11:39:44.000Z</time>
      </trkpt>
      <trkpt lat="45.59589" lon="6.62048">
        <ele>2308.8000488281</ele>
        <time>2019-12-30T11:39:49.000Z</time>
      </trkpt>
      <trkpt lat="45.59591" lon="6.62048">
        <ele>2309</ele>
        <time>2019-12-30T11:39:50.000Z</time>
      </trkpt>
      <trkpt lat="45.59594" lon="6.62047">
        <ele>2309.8000488281</ele>
        <time>2019-12-30T11:39:56.000Z</time>
      </trkpt>
      <trkpt lat="45.59595" lon="6.62047">
        <ele>2310.1999511719</ele>
        <time>2019-12-30T11:39:58.000Z</time>
      </trkpt>
      <trkpt lat="45.59595" lon="6.62047">
        <ele>2310.8000488281</ele>
        <time>2019-12-30T11:40:07.000Z</time>
      </trkpt>
      <trkpt lat="45.59595" lon="6.62047">
        <ele>2310.6000976562</ele>
        <time>2019-12-30T11:40:24.000Z</time>
      </trkpt>
      <trkpt lat="45.59597" lon="6.62046">
        <ele>2310.3999023438</ele>
        <time>2019-12-30T11:40:36.000Z</time>
      </trkpt>
      <trkpt lat="45.596" lon="6.62045">
        <ele>2311.1999511719</ele>
        <time>2019-12-30T11:40:41.000Z</time>
      </trkpt>
      <trkpt lat="45.596" lon="6.62045">
        <ele>2311.6000976562</ele>
        <time>2019-12-30T11:40:43.000Z</time>
      </trkpt>
      <trkpt lat="45.59604" lon="6.62045">
        <ele>2311.8000488281</ele>
        <time>2019-12-30T11:40:51.000Z</time>
      </trkpt>
      <trkpt lat="45.59606" lon="6.62045">
        <ele>2312.3999023438</ele>
        <time>2019-12-30T11:40:55.000Z</time>
      </trkpt>
      <trkpt lat="45.59607" lon="6.62044">
        <ele>2312.8000488281</ele>
        <time>2019-12-30T11:40:59.000Z</time>
      </trkpt>
      <trkpt lat="45.59613" lon="6.62043">
        <ele>2313.1999511719</ele>
        <time>2019-12-30T11:41:06.000Z</time>
      </trkpt>
      <trkpt lat="45.59614" lon="6.62042">
        <ele>2313.3999023438</ele>
        <time>2019-12-30T11:41:08.000Z</time>
      </trkpt>
      <trkpt lat="45.59617" lon="6.62042">
        <ele>2314.6000976562</ele>
        <time>2019-12-30T11:41:13.000Z</time>
      </trkpt>
      <trkpt lat="45.59619" lon="6.62041">
        <ele>2315.1999511719</ele>
        <time>2019-12-30T11:41:20.000Z</time>
      </trkpt>
      <trkpt lat="45.5962" lon="6.62041">
        <ele>2315.1999511719</ele>
        <time>2019-12-30T11:41:28.000Z</time>
      </trkpt>
      <trkpt lat="45.59624" lon="6.62039">
        <ele>2315.6000976562</ele>
        <time>2019-12-30T11:41:33.000Z</time>
      </trkpt>
      <trkpt lat="45.59625" lon="6.6204">
        <ele>2315.8000488281</ele>
        <time>2019-12-30T11:41:34.000Z</time>
      </trkpt>
      <trkpt lat="45.59628" lon="6.6204">
        <ele>2316.8000488281</ele>
        <time>2019-12-30T11:41:38.000Z</time>
      </trkpt>
      <trkpt lat="45.59629" lon="6.6204">
        <ele>2317.1999511719</ele>
        <time>2019-12-30T11:41:40.000Z</time>
      </trkpt>
      <trkpt lat="45.59631" lon="6.6204">
        <ele>2318</ele>
        <time>2019-12-30T11:41:45.000Z</time>
      </trkpt>
      <trkpt lat="45.59631" lon="6.62041">
        <ele>2318.3999023438</ele>
        <time>2019-12-30T11:41:47.000Z</time>
      </trkpt>
      <trkpt lat="45.59633" lon="6.62042">
        <ele>2319</ele>
        <time>2019-12-30T11:41:52.000Z</time>
      </trkpt>
      <trkpt lat="45.59635" lon="6.62045">
        <ele>2320.1999511719</ele>
        <time>2019-12-30T11:41:59.000Z</time>
      </trkpt>
      <trkpt lat="45.59635" lon="6.62045">
        <ele>2320.3999023438</ele>
        <time>2019-12-30T11:42:12.000Z</time>
      </trkpt>
      <trkpt lat="45.59635" lon="6.62045">
        <ele>2320.8000488281</ele>
        <time>2019-12-30T11:42:20.000Z</time>
      </trkpt>
      <trkpt lat="45.59635" lon="6.62045">
        <ele>2320.6000976562</ele>
        <time>2019-12-30T11:42:28.000Z</time>
      </trkpt>
      <trkpt lat="45.59635" lon="6.62045">
        <ele>2321.1999511719</ele>
        <time>2019-12-30T11:42:35.000Z</time>
      </trkpt>
      <trkpt lat="45.59635" lon="6.62044">
        <ele>2322</ele>
        <time>2019-12-30T11:42:40.000Z</time>
      </trkpt>
      <trkpt lat="45.59633" lon="6.62042">
        <ele>2322</ele>
        <time>2019-12-30T11:42:45.000Z</time>
      </trkpt>
      <trkpt lat="45.59632" lon="6.62037">
        <ele>2322</ele>
        <time>2019-12-30T11:42:49.000Z</time>
      </trkpt>
      <trkpt lat="45.59633" lon="6.62037">
        <ele>2322.1999511719</ele>
        <time>2019-12-30T11:42:50.000Z</time>
      </trkpt>
      <trkpt lat="45.59632" lon="6.62036">
        <ele>2322.3999023438</ele>
        <time>2019-12-30T11:42:51.000Z</time>
      </trkpt>
      <trkpt lat="45.59631" lon="6.62034">
        <ele>2322.8000488281</ele>
        <time>2019-12-30T11:42:53.000Z</time>
      </trkpt>
      <trkpt lat="45.5963" lon="6.62032">
        <ele>2323.1999511719</ele>
        <time>2019-12-30T11:42:56.000Z</time>
      </trkpt>
      <trkpt lat="45.59629" lon="6.6203">
        <ele>2323.3999023438</ele>
        <time>2019-12-30T11:42:57.000Z</time>
      </trkpt>
      <trkpt lat="45.59627" lon="6.62027">
        <ele>2324</ele>
        <time>2019-12-30T11:43:01.000Z</time>
      </trkpt>
      <trkpt lat="45.59626" lon="6.62026">
        <ele>2324.3999023438</ele>
        <time>2019-12-30T11:43:03.000Z</time>
      </trkpt>
      <trkpt lat="45.59625" lon="6.62025">
        <ele>2325.3999023438</ele>
        <time>2019-12-30T11:43:08.000Z</time>
      </trkpt>
      <trkpt lat="45.59625" lon="6.62025">
        <ele>2325.3999023438</ele>
        <time>2019-12-30T11:43:09.000Z</time>
      </trkpt>
      <trkpt lat="45.59625" lon="6.62024">
        <ele>2325.8000488281</ele>
        <time>2019-12-30T11:43:14.000Z</time>
      </trkpt>
      <trkpt lat="45.59624" lon="6.62023">
        <ele>2326.6000976562</ele>
        <time>2019-12-30T11:43:18.000Z</time>
      </trkpt>
      <trkpt lat="45.59623" lon="6.62023">
        <ele>2327.1999511719</ele>
        <time>2019-12-30T11:43:22.000Z</time>
      </trkpt>
      <trkpt lat="45.59622" lon="6.62021">
        <ele>2327.6000976562</ele>
        <time>2019-12-30T11:43:34.000Z</time>
      </trkpt>
      <trkpt lat="45.59622" lon="6.62022">
        <ele>2327.6000976562</ele>
        <time>2019-12-30T11:43:40.000Z</time>
      </trkpt>
      <trkpt lat="45.59622" lon="6.62021">
        <ele>2327.8000488281</ele>
        <time>2019-12-30T11:43:41.000Z</time>
      </trkpt>
      <trkpt lat="45.59624" lon="6.62021">
        <ele>2328.1999511719</ele>
        <time>2019-12-30T11:43:45.000Z</time>
      </trkpt>
      <trkpt lat="45.59627" lon="6.62021">
        <ele>2328.8000488281</ele>
        <time>2019-12-30T11:43:51.000Z</time>
      </trkpt>
      <trkpt lat="45.5963" lon="6.62021">
        <ele>2330</ele>
        <time>2019-12-30T11:43:56.000Z</time>
      </trkpt>
      <trkpt lat="45.59632" lon="6.62021">
        <ele>2331</ele>
        <time>2019-12-30T11:44:00.000Z</time>
      </trkpt>
      <trkpt lat="45.59634" lon="6.62023">
        <ele>2331.3999023438</ele>
        <time>2019-12-30T11:44:03.000Z</time>
      </trkpt>
      <trkpt lat="45.59636" lon="6.62023">
        <ele>2332</ele>
        <time>2019-12-30T11:44:07.000Z</time>
      </trkpt>
      <trkpt lat="45.59637" lon="6.62022">
        <ele>2332</ele>
        <time>2019-12-30T11:44:08.000Z</time>
      </trkpt>
      <trkpt lat="45.59638" lon="6.62022">
        <ele>2333.1999511719</ele>
        <time>2019-12-30T11:44:12.000Z</time>
      </trkpt>
      <trkpt lat="45.59638" lon="6.62022">
        <ele>2333.8000488281</ele>
        <time>2019-12-30T11:44:16.000Z</time>
      </trkpt>
      <trkpt lat="45.5964" lon="6.62022">
        <ele>2333.6000976562</ele>
        <time>2019-12-30T11:44:28.000Z</time>
      </trkpt>
      <trkpt lat="45.5964" lon="6.62022">
        <ele>2333.8000488281</ele>
        <time>2019-12-30T11:44:34.000Z</time>
      </trkpt>
      <trkpt lat="45.5964" lon="6.62022">
        <ele>2334.3999023438</ele>
        <time>2019-12-30T11:44:41.000Z</time>
      </trkpt>
      <trkpt lat="45.5964" lon="6.62022">
        <ele>2334.3999023438</ele>
        <time>2019-12-30T11:44:47.000Z</time>
      </trkpt>
      <trkpt lat="45.5964" lon="6.62022">
        <ele>2334.6000976562</ele>
        <time>2019-12-30T11:45:01.000Z</time>
      </trkpt>
      <trkpt lat="45.5964" lon="6.6202">
        <ele>2335.3999023438</ele>
        <time>2019-12-30T11:45:10.000Z</time>
      </trkpt>
      <trkpt lat="45.59639" lon="6.62019">
        <ele>2335.6000976562</ele>
        <time>2019-12-30T11:45:14.000Z</time>
      </trkpt>
      <trkpt lat="45.59638" lon="6.62016">
        <ele>2335.6000976562</ele>
        <time>2019-12-30T11:45:15.000Z</time>
      </trkpt>
      <trkpt lat="45.59637" lon="6.62015">
        <ele>2335.8000488281</ele>
        <time>2019-12-30T11:45:18.000Z</time>
      </trkpt>
      <trkpt lat="45.59633" lon="6.62012">
        <ele>2336.3999023438</ele>
        <time>2019-12-30T11:45:22.000Z</time>
      </trkpt>
      <trkpt lat="45.59633" lon="6.62011">
        <ele>2336.8000488281</ele>
        <time>2019-12-30T11:45:24.000Z</time>
      </trkpt>
      <trkpt lat="45.59631" lon="6.62007">
        <ele>2337.6000976562</ele>
        <time>2019-12-30T11:45:29.000Z</time>
      </trkpt>
      <trkpt lat="45.59627" lon="6.62004">
        <ele>2338.3999023438</ele>
        <time>2019-12-30T11:45:34.000Z</time>
      </trkpt>
      <trkpt lat="45.59626" lon="6.62003">
        <ele>2338.6000976562</ele>
        <time>2019-12-30T11:45:36.000Z</time>
      </trkpt>
      <trkpt lat="45.59623" lon="6.61997">
        <ele>2339.1999511719</ele>
        <time>2019-12-30T11:45:41.000Z</time>
      </trkpt>
      <trkpt lat="45.59622" lon="6.61995">
        <ele>2339.8000488281</ele>
        <time>2019-12-30T11:45:44.000Z</time>
      </trkpt>
      <trkpt lat="45.5962" lon="6.61992">
        <ele>2340</ele>
        <time>2019-12-30T11:45:47.000Z</time>
      </trkpt>
      <trkpt lat="45.59618" lon="6.61991">
        <ele>2340.8000488281</ele>
        <time>2019-12-30T11:45:53.000Z</time>
      </trkpt>
      <trkpt lat="45.59614" lon="6.61988">
        <ele>2341.8000488281</ele>
        <time>2019-12-30T11:45:59.000Z</time>
      </trkpt>
      <trkpt lat="45.59613" lon="6.61988">
        <ele>2342.3999023438</ele>
        <time>2019-12-30T11:46:01.000Z</time>
      </trkpt>
      <trkpt lat="45.59612" lon="6.61987">
        <ele>2343</ele>
        <time>2019-12-30T11:46:04.000Z</time>
      </trkpt>
      <trkpt lat="45.5961" lon="6.61986">
        <ele>2343.3999023438</ele>
        <time>2019-12-30T11:46:07.000Z</time>
      </trkpt>
      <trkpt lat="45.59607" lon="6.61984">
        <ele>2344.1999511719</ele>
        <time>2019-12-30T11:46:12.000Z</time>
      </trkpt>
      <trkpt lat="45.59606" lon="6.61983">
        <ele>2344.6000976562</ele>
        <time>2019-12-30T11:46:14.000Z</time>
      </trkpt>
      <trkpt lat="45.59605" lon="6.61982">
        <ele>2345.1999511719</ele>
        <time>2019-12-30T11:46:17.000Z</time>
      </trkpt>
      <trkpt lat="45.59604" lon="6.61983">
        <ele>2345.6000976562</ele>
        <time>2019-12-30T11:46:19.000Z</time>
      </trkpt>
      <trkpt lat="45.59602" lon="6.61982">
        <ele>2346.3999023438</ele>
        <time>2019-12-30T11:46:24.000Z</time>
      </trkpt>
      <trkpt lat="45.59599" lon="6.61981">
        <ele>2347.3999023438</ele>
        <time>2019-12-30T11:46:30.000Z</time>
      </trkpt>
      <trkpt lat="45.59598" lon="6.6198">
        <ele>2347.8000488281</ele>
        <time>2019-12-30T11:46:32.000Z</time>
      </trkpt>
      <trkpt lat="45.59595" lon="6.61978">
        <ele>2348.6000976562</ele>
        <time>2019-12-30T11:46:37.000Z</time>
      </trkpt>
      <trkpt lat="45.59591" lon="6.61977">
        <ele>2349.1999511719</ele>
        <time>2019-12-30T11:46:43.000Z</time>
      </trkpt>
      <trkpt lat="45.59588" lon="6.61974">
        <ele>2349.6000976562</ele>
        <time>2019-12-30T11:46:47.000Z</time>
      </trkpt>
      <trkpt lat="45.59586" lon="6.61972">
        <ele>2350.1999511719</ele>
        <time>2019-12-30T11:46:51.000Z</time>
      </trkpt>
      <trkpt lat="45.59585" lon="6.61971">
        <ele>2350.6000976562</ele>
        <time>2019-12-30T11:46:53.000Z</time>
      </trkpt>
      <trkpt lat="45.59583" lon="6.61969">
        <ele>2351</ele>
        <time>2019-12-30T11:46:56.000Z</time>
      </trkpt>
      <trkpt lat="45.5958" lon="6.61967">
        <ele>2351.6000976562</ele>
        <time>2019-12-30T11:47:01.000Z</time>
      </trkpt>
      <trkpt lat="45.59577" lon="6.61964">
        <ele>2352.1999511719</ele>
        <time>2019-12-30T11:47:06.000Z</time>
      </trkpt>
      <trkpt lat="45.59574" lon="6.61961">
        <ele>2352.8000488281</ele>
        <time>2019-12-30T11:47:11.000Z</time>
      </trkpt>
      <trkpt lat="45.59574" lon="6.61961">
        <ele>2353</ele>
        <time>2019-12-30T11:47:12.000Z</time>
      </trkpt>
      <trkpt lat="45.59571" lon="6.61957">
        <ele>2354.1999511719</ele>
        <time>2019-12-30T11:47:18.000Z</time>
      </trkpt>
      <trkpt lat="45.59569" lon="6.61956">
        <ele>2354.3999023438</ele>
        <time>2019-12-30T11:47:20.000Z</time>
      </trkpt>
      <trkpt lat="45.59568" lon="6.61952">
        <ele>2354.8000488281</ele>
        <time>2019-12-30T11:47:24.000Z</time>
      </trkpt>
      <trkpt lat="45.59566" lon="6.6195">
        <ele>2355.1999511719</ele>
        <time>2019-12-30T11:47:26.000Z</time>
      </trkpt>
      <trkpt lat="45.59565" lon="6.61949">
        <ele>2355.3999023438</ele>
        <time>2019-12-30T11:47:28.000Z</time>
      </trkpt>
      <trkpt lat="45.59563" lon="6.61946">
        <ele>2356.1999511719</ele>
        <time>2019-12-30T11:47:32.000Z</time>
      </trkpt>
      <trkpt lat="45.59563" lon="6.61944">
        <ele>2357</ele>
        <time>2019-12-30T11:47:36.000Z</time>
      </trkpt>
      <trkpt lat="45.59562" lon="6.61942">
        <ele>2357.3999023438</ele>
        <time>2019-12-30T11:47:38.000Z</time>
      </trkpt>
      <trkpt lat="45.59561" lon="6.61941">
        <ele>2357.6000976562</ele>
        <time>2019-12-30T11:47:40.000Z</time>
      </trkpt>
      <trkpt lat="45.59558" lon="6.61938">
        <ele>2358.1999511719</ele>
        <time>2019-12-30T11:47:44.000Z</time>
      </trkpt>
      <trkpt lat="45.59557" lon="6.61938">
        <ele>2358.3999023438</ele>
        <time>2019-12-30T11:47:45.000Z</time>
      </trkpt>
      <trkpt lat="45.59556" lon="6.61937">
        <ele>2358.8000488281</ele>
        <time>2019-12-30T11:47:49.000Z</time>
      </trkpt>
      <trkpt lat="45.59555" lon="6.61936">
        <ele>2359.6000976562</ele>
        <time>2019-12-30T11:47:53.000Z</time>
      </trkpt>
      <trkpt lat="45.59555" lon="6.61936">
        <ele>2359.8000488281</ele>
        <time>2019-12-30T11:47:55.000Z</time>
      </trkpt>
      <trkpt lat="45.59555" lon="6.61935">
        <ele>2360.6000976562</ele>
        <time>2019-12-30T11:48:01.000Z</time>
      </trkpt>
      <trkpt lat="45.59554" lon="6.61935">
        <ele>2360.6000976562</ele>
        <time>2019-12-30T11:48:02.000Z</time>
      </trkpt>
      <trkpt lat="45.59551" lon="6.61932">
        <ele>2361.6000976562</ele>
        <time>2019-12-30T11:48:07.000Z</time>
      </trkpt>
      <trkpt lat="45.5955" lon="6.61931">
        <ele>2361.6000976562</ele>
        <time>2019-12-30T11:48:08.000Z</time>
      </trkpt>
      <trkpt lat="45.59549" lon="6.61929">
        <ele>2362.8000488281</ele>
        <time>2019-12-30T11:48:13.000Z</time>
      </trkpt>
      <trkpt lat="45.5955" lon="6.61927">
        <ele>2363.1999511719</ele>
        <time>2019-12-30T11:48:19.000Z</time>
      </trkpt>
      <trkpt lat="45.5955" lon="6.61927">
        <ele>2363.3999023438</ele>
        <time>2019-12-30T11:48:34.000Z</time>
      </trkpt>
      <trkpt lat="45.5955" lon="6.61927">
        <ele>2363.3999023438</ele>
        <time>2019-12-30T11:48:50.000Z</time>
      </trkpt>
      <trkpt lat="45.5955" lon="6.61927">
        <ele>2363.6000976562</ele>
        <time>2019-12-30T11:49:07.000Z</time>
      </trkpt>
      <trkpt lat="45.5955" lon="6.61927">
        <ele>2363.8000488281</ele>
        <time>2019-12-30T11:49:14.000Z</time>
      </trkpt>
      <trkpt lat="45.59549" lon="6.61927">
        <ele>2364.3999023438</ele>
        <time>2019-12-30T11:49:17.000Z</time>
      </trkpt>
      <trkpt lat="45.59548" lon="6.61925">
        <ele>2364</ele>
        <time>2019-12-30T11:49:24.000Z</time>
      </trkpt>
      <trkpt lat="45.59547" lon="6.61924">
        <ele>2364.3999023438</ele>
        <time>2019-12-30T11:49:32.000Z</time>
      </trkpt>
      <trkpt lat="45.59547" lon="6.61924">
        <ele>2364</ele>
        <time>2019-12-30T11:49:41.000Z</time>
      </trkpt>
      <trkpt lat="45.59547" lon="6.61924">
        <ele>2364.6000976562</ele>
        <time>2019-12-30T11:49:56.000Z</time>
      </trkpt>
      <trkpt lat="45.59547" lon="6.61924">
        <ele>2364.6000976562</ele>
        <time>2019-12-30T11:50:19.000Z</time>
      </trkpt>
      <trkpt lat="45.59547" lon="6.61924">
        <ele>2365</ele>
        <time>2019-12-30T11:50:33.000Z</time>
      </trkpt>
      <trkpt lat="45.59545" lon="6.61922">
        <ele>2365.1999511719</ele>
        <time>2019-12-30T11:50:35.000Z</time>
      </trkpt>
      <trkpt lat="45.59542" lon="6.6192">
        <ele>2365.1999511719</ele>
        <time>2019-12-30T11:50:36.000Z</time>
      </trkpt>
      <trkpt lat="45.59537" lon="6.61918">
        <ele>2365</ele>
        <time>2019-12-30T11:50:40.000Z</time>
      </trkpt>
      <trkpt lat="45.59536" lon="6.61915">
        <ele>2364.6000976562</ele>
        <time>2019-12-30T11:50:46.000Z</time>
      </trkpt>
      <trkpt lat="45.59536" lon="6.61911">
        <ele>2364.8000488281</ele>
        <time>2019-12-30T11:50:51.000Z</time>
      </trkpt>
      <trkpt lat="45.59536" lon="6.61907">
        <ele>2364.8000488281</ele>
        <time>2019-12-30T11:50:52.000Z</time>
      </trkpt>
      <trkpt lat="45.59537" lon="6.61905">
        <ele>2365.1999511719</ele>
        <time>2019-12-30T11:50:54.000Z</time>
      </trkpt>
      <trkpt lat="45.59538" lon="6.61904">
        <ele>2366</ele>
        <time>2019-12-30T11:50:58.000Z</time>
      </trkpt>
      <trkpt lat="45.59537" lon="6.61898">
        <ele>2366.6000976562</ele>
        <time>2019-12-30T11:51:02.000Z</time>
      </trkpt>
      <trkpt lat="45.59538" lon="6.61895">
        <ele>2367</ele>
        <time>2019-12-30T11:51:06.000Z</time>
      </trkpt>
      <trkpt lat="45.59536" lon="6.6189">
        <ele>2368.1999511719</ele>
        <time>2019-12-30T11:51:13.000Z</time>
      </trkpt>
      <trkpt lat="45.59535" lon="6.61885">
        <ele>2369.1999511719</ele>
        <time>2019-12-30T11:51:19.000Z</time>
      </trkpt>
      <trkpt lat="45.59535" lon="6.61883">
        <ele>2370.3999023438</ele>
        <time>2019-12-30T11:51:25.000Z</time>
      </trkpt>
      <trkpt lat="45.59535" lon="6.61881">
        <ele>2370.8000488281</ele>
        <time>2019-12-30T11:51:27.000Z</time>
      </trkpt>
      <trkpt lat="45.59533" lon="6.61878">
        <ele>2371.3999023438</ele>
        <time>2019-12-30T11:51:32.000Z</time>
      </trkpt>
      <trkpt lat="45.59532" lon="6.61875">
        <ele>2372</ele>
        <time>2019-12-30T11:51:36.000Z</time>
      </trkpt>
      <trkpt lat="45.59532" lon="6.61871">
        <ele>2372.6000976562</ele>
        <time>2019-12-30T11:51:38.000Z</time>
      </trkpt>
      <trkpt lat="45.5953" lon="6.61864">
        <ele>2373.3999023438</ele>
        <time>2019-12-30T11:51:43.000Z</time>
      </trkpt>
      <trkpt lat="45.59529" lon="6.61865">
        <ele>2373.6000976562</ele>
        <time>2019-12-30T11:51:45.000Z</time>
      </trkpt>
      <trkpt lat="45.59528" lon="6.61863">
        <ele>2374</ele>
        <time>2019-12-30T11:51:48.000Z</time>
      </trkpt>
      <trkpt lat="45.59528" lon="6.61862">
        <ele>2374.6000976562</ele>
        <time>2019-12-30T11:51:50.000Z</time>
      </trkpt>
      <trkpt lat="45.59528" lon="6.61859">
        <ele>2375.3999023438</ele>
        <time>2019-12-30T11:51:54.000Z</time>
      </trkpt>
      <trkpt lat="45.59528" lon="6.61859">
        <ele>2375.6000976562</ele>
        <time>2019-12-30T11:51:57.000Z</time>
      </trkpt>
      <trkpt lat="45.59528" lon="6.61859">
        <ele>2376.1999511719</ele>
        <time>2019-12-30T11:52:06.000Z</time>
      </trkpt>
      <trkpt lat="45.59528" lon="6.61855">
        <ele>2376.1999511719</ele>
        <time>2019-12-30T11:52:09.000Z</time>
      </trkpt>
      <trkpt lat="45.59528" lon="6.61855">
        <ele>2376.1999511719</ele>
        <time>2019-12-30T11:52:10.000Z</time>
      </trkpt>
      <trkpt lat="45.59527" lon="6.61854">
        <ele>2376.6000976562</ele>
        <time>2019-12-30T11:52:13.000Z</time>
      </trkpt>
      <trkpt lat="45.59527" lon="6.61854">
        <ele>2376.8000488281</ele>
        <time>2019-12-30T11:52:14.000Z</time>
      </trkpt>
      <trkpt lat="45.59527" lon="6.6185">
        <ele>2377.1999511719</ele>
        <time>2019-12-30T11:52:17.000Z</time>
      </trkpt>
      <trkpt lat="45.59527" lon="6.61849">
        <ele>2377.8000488281</ele>
        <time>2019-12-30T11:52:20.000Z</time>
      </trkpt>
      <trkpt lat="45.59526" lon="6.61845">
        <ele>2378.1999511719</ele>
        <time>2019-12-30T11:52:23.000Z</time>
      </trkpt>
      <trkpt lat="45.59526" lon="6.61844">
        <ele>2379</ele>
        <time>2019-12-30T11:52:26.000Z</time>
      </trkpt>
      <trkpt lat="45.59526" lon="6.61843">
        <ele>2379.1999511719</ele>
        <time>2019-12-30T11:52:27.000Z</time>
      </trkpt>
      <trkpt lat="45.59525" lon="6.61841">
        <ele>2380.1999511719</ele>
        <time>2019-12-30T11:52:31.000Z</time>
      </trkpt>
      <trkpt lat="45.59525" lon="6.61839">
        <ele>2380.3999023438</ele>
        <time>2019-12-30T11:52:35.000Z</time>
      </trkpt>
      <trkpt lat="45.59524" lon="6.61836">
        <ele>2380.8000488281</ele>
        <time>2019-12-30T11:52:39.000Z</time>
      </trkpt>
      <trkpt lat="45.59524" lon="6.61834">
        <ele>2381.1999511719</ele>
        <time>2019-12-30T11:52:42.000Z</time>
      </trkpt>
      <trkpt lat="45.59524" lon="6.61834">
        <ele>2381.1999511719</ele>
        <time>2019-12-30T11:52:43.000Z</time>
      </trkpt>
      <trkpt lat="45.59523" lon="6.61829">
        <ele>2382</ele>
        <time>2019-12-30T11:52:47.000Z</time>
      </trkpt>
      <trkpt lat="45.59523" lon="6.61829">
        <ele>2382.1999511719</ele>
        <time>2019-12-30T11:52:49.000Z</time>
      </trkpt>
      <trkpt lat="45.59523" lon="6.61829">
        <ele>2382.6000976562</ele>
        <time>2019-12-30T11:52:52.000Z</time>
      </trkpt>
      <trkpt lat="45.59523" lon="6.61829">
        <ele>2383.6000976562</ele>
        <time>2019-12-30T11:52:55.000Z</time>
      </trkpt>
      <trkpt lat="45.59526" lon="6.61829">
        <ele>2383.1999511719</ele>
        <time>2019-12-30T11:53:04.000Z</time>
      </trkpt>
      <trkpt lat="45.59529" lon="6.61828">
        <ele>2384.3999023438</ele>
        <time>2019-12-30T11:53:11.000Z</time>
      </trkpt>
      <trkpt lat="45.5953" lon="6.61828">
        <ele>2384.6000976562</ele>
        <time>2019-12-30T11:53:12.000Z</time>
      </trkpt>
      <trkpt lat="45.59533" lon="6.61827">
        <ele>2385.6000976562</ele>
        <time>2019-12-30T11:53:17.000Z</time>
      </trkpt>
      <trkpt lat="45.59533" lon="6.61825">
        <ele>2385.6000976562</ele>
        <time>2019-12-30T11:53:18.000Z</time>
      </trkpt>
      <trkpt lat="45.59535" lon="6.61824">
        <ele>2386.1999511719</ele>
        <time>2019-12-30T11:53:21.000Z</time>
      </trkpt>
      <trkpt lat="45.59536" lon="6.61821">
        <ele>2386.6000976562</ele>
        <time>2019-12-30T11:53:23.000Z</time>
      </trkpt>
      <trkpt lat="45.59538" lon="6.6182">
        <ele>2387.3999023438</ele>
        <time>2019-12-30T11:53:26.000Z</time>
      </trkpt>
      <trkpt lat="45.59538" lon="6.6182">
        <ele>2387.6000976562</ele>
        <time>2019-12-30T11:53:28.000Z</time>
      </trkpt>
      <trkpt lat="45.5954" lon="6.61821">
        <ele>2388.1999511719</ele>
        <time>2019-12-30T11:53:33.000Z</time>
      </trkpt>
      <trkpt lat="45.59541" lon="6.61822">
        <ele>2388.8000488281</ele>
        <time>2019-12-30T11:53:36.000Z</time>
      </trkpt>
      <trkpt lat="45.59543" lon="6.61823">
        <ele>2389.1999511719</ele>
        <time>2019-12-30T11:53:38.000Z</time>
      </trkpt>
      <trkpt lat="45.59544" lon="6.61824">
        <ele>2389.8000488281</ele>
        <time>2019-12-30T11:53:41.000Z</time>
      </trkpt>
      <trkpt lat="45.59546" lon="6.61825">
        <ele>2389.8000488281</ele>
        <time>2019-12-30T11:53:42.000Z</time>
      </trkpt>
      <trkpt lat="45.59548" lon="6.61828">
        <ele>2390.3999023438</ele>
        <time>2019-12-30T11:53:47.000Z</time>
      </trkpt>
      <trkpt lat="45.59548" lon="6.61828">
        <ele>2390.8000488281</ele>
        <time>2019-12-30T11:53:50.000Z</time>
      </trkpt>
      <trkpt lat="45.59548" lon="6.61828">
        <ele>2391.6000976562</ele>
        <time>2019-12-30T11:53:55.000Z</time>
      </trkpt>
      <trkpt lat="45.59551" lon="6.6183">
        <ele>2391.6000976562</ele>
        <time>2019-12-30T11:54:00.000Z</time>
      </trkpt>
      <trkpt lat="45.59553" lon="6.61831">
        <ele>2392</ele>
        <time>2019-12-30T11:54:01.000Z</time>
      </trkpt>
      <trkpt lat="45.59554" lon="6.61831">
        <ele>2392.8000488281</ele>
        <time>2019-12-30T11:54:04.000Z</time>
      </trkpt>
      <trkpt lat="45.59555" lon="6.61832">
        <ele>2393</ele>
        <time>2019-12-30T11:54:05.000Z</time>
      </trkpt>
      <trkpt lat="45.59555" lon="6.61832">
        <ele>2393.3999023438</ele>
        <time>2019-12-30T11:54:08.000Z</time>
      </trkpt>
      <trkpt lat="45.59555" lon="6.61832">
        <ele>2394</ele>
        <time>2019-12-30T11:54:12.000Z</time>
      </trkpt>
      <trkpt lat="45.59556" lon="6.61832">
        <ele>2395</ele>
        <time>2019-12-30T11:54:18.000Z</time>
      </trkpt>
      <trkpt lat="45.59556" lon="6.61832">
        <ele>2395</ele>
        <time>2019-12-30T11:54:32.000Z</time>
      </trkpt>
      <trkpt lat="45.59556" lon="6.61832">
        <ele>2395</ele>
        <time>2019-12-30T11:54:45.000Z</time>
      </trkpt>
      <trkpt lat="45.59556" lon="6.61832">
        <ele>2395</ele>
        <time>2019-12-30T11:55:02.000Z</time>
      </trkpt>
      <trkpt lat="45.59556" lon="6.61832">
        <ele>2395</ele>
        <time>2019-12-30T11:55:20.000Z</time>
      </trkpt>
      <trkpt lat="45.59556" lon="6.61832">
        <ele>2395</ele>
        <time>2019-12-30T11:55:36.000Z</time>
      </trkpt>
      <trkpt lat="45.59559" lon="6.61835">
        <ele>2395.1999511719</ele>
        <time>2019-12-30T11:55:43.000Z</time>
      </trkpt>
      <trkpt lat="45.59562" lon="6.61837">
        <ele>2395.6000976562</ele>
        <time>2019-12-30T11:55:45.000Z</time>
      </trkpt>
      <trkpt lat="45.59562" lon="6.61838">
        <ele>2396</ele>
        <time>2019-12-30T11:55:47.000Z</time>
      </trkpt>
      <trkpt lat="45.59562" lon="6.61838">
        <ele>2396.6000976562</ele>
        <time>2019-12-30T11:55:51.000Z</time>
      </trkpt>
      <trkpt lat="45.59563" lon="6.61837">
        <ele>2397</ele>
        <time>2019-12-30T11:55:55.000Z</time>
      </trkpt>
      <trkpt lat="45.59563" lon="6.61837">
        <ele>2397</ele>
        <time>2019-12-30T11:56:02.000Z</time>
      </trkpt>
      <trkpt lat="45.59561" lon="6.61843">
        <ele>2397</ele>
        <time>2019-12-30T11:56:10.000Z</time>
      </trkpt>
      <trkpt lat="45.5956" lon="6.61845">
        <ele>2397.6000976562</ele>
        <time>2019-12-30T11:56:14.000Z</time>
      </trkpt>
      <trkpt lat="45.59559" lon="6.61844">
        <ele>2398</ele>
        <time>2019-12-30T11:56:17.000Z</time>
      </trkpt>
      <trkpt lat="45.59559" lon="6.61845">
        <ele>2398.1999511719</ele>
        <time>2019-12-30T11:56:18.000Z</time>
      </trkpt>
      <trkpt lat="45.59559" lon="6.61843">
        <ele>2398.6000976562</ele>
        <time>2019-12-30T11:56:21.000Z</time>
      </trkpt>
      <trkpt lat="45.59558" lon="6.61843">
        <ele>2399.1999511719</ele>
        <time>2019-12-30T11:56:24.000Z</time>
      </trkpt>
      <trkpt lat="45.59558" lon="6.61843">
        <ele>2399.3999023438</ele>
        <time>2019-12-30T11:56:25.000Z</time>
      </trkpt>
      <trkpt lat="45.59557" lon="6.6184">
        <ele>2399.8000488281</ele>
        <time>2019-12-30T11:56:30.000Z</time>
      </trkpt>
      <trkpt lat="45.59557" lon="6.61839">
        <ele>2400.1999511719</ele>
        <time>2019-12-30T11:56:32.000Z</time>
      </trkpt>
      <trkpt lat="45.59557" lon="6.61837">
        <ele>2401.1999511719</ele>
        <time>2019-12-30T11:56:35.000Z</time>
      </trkpt>
      <trkpt lat="45.59557" lon="6.61836">
        <ele>2401.3999023438</ele>
        <time>2019-12-30T11:56:36.000Z</time>
      </trkpt>
      <trkpt lat="45.59557" lon="6.61836">
        <ele>2401.8000488281</ele>
        <time>2019-12-30T11:56:42.000Z</time>
      </trkpt>
      <trkpt lat="45.59557" lon="6.61836">
        <ele>2402.1999511719</ele>
        <time>2019-12-30T11:56:56.000Z</time>
      </trkpt>
      <trkpt lat="45.59557" lon="6.61836">
        <ele>2402.3999023438</ele>
        <time>2019-12-30T11:57:00.000Z</time>
      </trkpt>
      <trkpt lat="45.59557" lon="6.61836">
        <ele>2402.3999023438</ele>
        <time>2019-12-30T11:57:06.000Z</time>
      </trkpt>
      <trkpt lat="45.59557" lon="6.61835">
        <ele>2402.1999511719</ele>
        <time>2019-12-30T11:57:24.000Z</time>
      </trkpt>
      <trkpt lat="45.59557" lon="6.61835">
        <ele>2402.6000976562</ele>
        <time>2019-12-30T11:57:37.000Z</time>
      </trkpt>
      <trkpt lat="45.59555" lon="6.61831">
        <ele>2402.8000488281</ele>
        <time>2019-12-30T11:57:40.000Z</time>
      </trkpt>
      <trkpt lat="45.59555" lon="6.61829">
        <ele>2403</ele>
        <time>2019-12-30T11:57:42.000Z</time>
      </trkpt>
      <trkpt lat="45.59556" lon="6.61828">
        <ele>2403.1999511719</ele>
        <time>2019-12-30T11:57:44.000Z</time>
      </trkpt>
      <trkpt lat="45.59556" lon="6.61826">
        <ele>2403.1999511719</ele>
        <time>2019-12-30T11:57:47.000Z</time>
      </trkpt>
      <trkpt lat="45.59556" lon="6.61825">
        <ele>2403.6000976562</ele>
        <time>2019-12-30T11:57:49.000Z</time>
      </trkpt>
      <trkpt lat="45.59556" lon="6.61825">
        <ele>2403.6000976562</ele>
        <time>2019-12-30T11:57:54.000Z</time>
      </trkpt>
      <trkpt lat="45.59555" lon="6.61825">
        <ele>2405</ele>
        <time>2019-12-30T11:57:58.000Z</time>
      </trkpt>
      <trkpt lat="45.59555" lon="6.61824">
        <ele>2405.8000488281</ele>
        <time>2019-12-30T11:58:00.000Z</time>
      </trkpt>
      <trkpt lat="45.59555" lon="6.61824">
        <ele>2406</ele>
        <time>2019-12-30T11:58:01.000Z</time>
      </trkpt>
      <trkpt lat="45.59556" lon="6.61822">
        <ele>2405.3999023438</ele>
        <time>2019-12-30T11:58:04.000Z</time>
      </trkpt>
      <trkpt lat="45.5956" lon="6.61821">
        <ele>2405.3999023438</ele>
        <time>2019-12-30T11:58:08.000Z</time>
      </trkpt>
      <trkpt lat="45.59564" lon="6.61816">
        <ele>2406.1999511719</ele>
        <time>2019-12-30T11:58:13.000Z</time>
      </trkpt>
      <trkpt lat="45.59564" lon="6.61814">
        <ele>2406.8000488281</ele>
        <time>2019-12-30T11:58:25.000Z</time>
      </trkpt>
      <trkpt lat="45.59564" lon="6.61814">
        <ele>2406.6000976562</ele>
        <time>2019-12-30T11:58:38.000Z</time>
      </trkpt>
      <trkpt lat="45.59564" lon="6.61814">
        <ele>2406.6000976562</ele>
        <time>2019-12-30T11:58:49.000Z</time>
      </trkpt>
      <trkpt lat="45.59564" lon="6.61813">
        <ele>2406.3999023438</ele>
        <time>2019-12-30T11:59:00.000Z</time>
      </trkpt>
      <trkpt lat="45.59564" lon="6.61813">
        <ele>2407</ele>
        <time>2019-12-30T11:59:06.000Z</time>
      </trkpt>
      <trkpt lat="45.59564" lon="6.61813">
        <ele>2406.6000976562</ele>
        <time>2019-12-30T11:59:13.000Z</time>
      </trkpt>
      <trkpt lat="45.59564" lon="6.61813">
        <ele>2406.6000976562</ele>
        <time>2019-12-30T11:59:31.000Z</time>
      </trkpt>
      <trkpt lat="45.59564" lon="6.61813">
        <ele>2406.6000976562</ele>
        <time>2019-12-30T11:59:48.000Z</time>
      </trkpt>
      <trkpt lat="45.59564" lon="6.61813">
        <ele>2406.6000976562</ele>
        <time>2019-12-30T12:00:07.000Z</time>
      </trkpt>
      <trkpt lat="45.59564" lon="6.61813">
        <ele>2406.6000976562</ele>
        <time>2019-12-30T12:00:20.000Z</time>
      </trkpt>
      <trkpt lat="45.59564" lon="6.61813">
        <ele>2406.8000488281</ele>
        <time>2019-12-30T12:00:38.000Z</time>
      </trkpt>
      <trkpt lat="45.59564" lon="6.61813">
        <ele>2406.8000488281</ele>
        <time>2019-12-30T12:00:52.000Z</time>
      </trkpt>
      <trkpt lat="45.59563" lon="6.61813">
        <ele>2405.3999023438</ele>
        <time>2019-12-30T12:01:07.000Z</time>
      </trkpt>
      <trkpt lat="45.59563" lon="6.61813">
        <ele>2404.8000488281</ele>
        <time>2019-12-30T12:01:08.000Z</time>
      </trkpt>
      <trkpt lat="45.59563" lon="6.61813">
        <ele>2404.3999023438</ele>
        <time>2019-12-30T12:01:10.000Z</time>
      </trkpt>
      <trkpt lat="45.59563" lon="6.61813">
        <ele>2405.8000488281</ele>
        <time>2019-12-30T12:01:12.000Z</time>
      </trkpt>
      <trkpt lat="45.59563" lon="6.61813">
        <ele>2406.8000488281</ele>
        <time>2019-12-30T12:01:15.000Z</time>
      </trkpt>
      <trkpt lat="45.59563" lon="6.61813">
        <ele>2406.6000976562</ele>
        <time>2019-12-30T12:01:29.000Z</time>
      </trkpt>
      <trkpt lat="45.59563" lon="6.61813">
        <ele>2407.8000488281</ele>
        <time>2019-12-30T12:01:39.000Z</time>
      </trkpt>
      <trkpt lat="45.59563" lon="6.61813">
        <ele>2407.1999511719</ele>
        <time>2019-12-30T12:01:44.000Z</time>
      </trkpt>
      <trkpt lat="45.59563" lon="6.61813">
        <ele>2406.8000488281</ele>
        <time>2019-12-30T12:01:46.000Z</time>
      </trkpt>
      <trkpt lat="45.59563" lon="6.61813">
        <ele>2407</ele>
        <time>2019-12-30T12:02:01.000Z</time>
      </trkpt>
      <trkpt lat="45.59563" lon="6.61815">
        <ele>2406.8000488281</ele>
        <time>2019-12-30T12:02:17.000Z</time>
      </trkpt>
      <trkpt lat="45.59563" lon="6.61815">
        <ele>2407.3999023438</ele>
        <time>2019-12-30T12:02:33.000Z</time>
      </trkpt>
      <trkpt lat="45.59563" lon="6.61815">
        <ele>2408</ele>
        <time>2019-12-30T12:02:36.000Z</time>
      </trkpt>
      <trkpt lat="45.59563" lon="6.61815">
        <ele>2407.3999023438</ele>
        <time>2019-12-30T12:02:49.000Z</time>
      </trkpt>
      <trkpt lat="45.59562" lon="6.61818">
        <ele>2407.3999023438</ele>
        <time>2019-12-30T12:03:01.000Z</time>
      </trkpt>
      <trkpt lat="45.59561" lon="6.61817">
        <ele>2407.6000976562</ele>
        <time>2019-12-30T12:03:07.000Z</time>
      </trkpt>
      <trkpt lat="45.59561" lon="6.61816">
        <ele>2407.8000488281</ele>
        <time>2019-12-30T12:03:12.000Z</time>
      </trkpt>
      <trkpt lat="45.59562" lon="6.61815">
        <ele>2409</ele>
        <time>2019-12-30T12:03:17.000Z</time>
      </trkpt>
      <trkpt lat="45.59562" lon="6.61815">
        <ele>2409.1999511719</ele>
        <time>2019-12-30T12:03:18.000Z</time>
      </trkpt>
      <trkpt lat="45.59563" lon="6.61813">
        <ele>2410.1999511719</ele>
        <time>2019-12-30T12:03:23.000Z</time>
      </trkpt>
      <trkpt lat="45.59563" lon="6.61813">
        <ele>2411.1999511719</ele>
        <time>2019-12-30T12:03:27.000Z</time>
      </trkpt>
      <trkpt lat="45.59564" lon="6.61813">
        <ele>2411.3999023438</ele>
        <time>2019-12-30T12:03:28.000Z</time>
      </trkpt>
      <trkpt lat="45.59565" lon="6.61811">
        <ele>2412</ele>
        <time>2019-12-30T12:03:33.000Z</time>
      </trkpt>
      <trkpt lat="45.59565" lon="6.6181">
        <ele>2412.1999511719</ele>
        <time>2019-12-30T12:03:35.000Z</time>
      </trkpt>
      <trkpt lat="45.59565" lon="6.6181">
        <ele>2412.3999023438</ele>
        <time>2019-12-30T12:03:36.000Z</time>
      </trkpt>
      <trkpt lat="45.59565" lon="6.6181">
        <ele>2412.6000976562</ele>
        <time>2019-12-30T12:03:38.000Z</time>
      </trkpt>
      <trkpt lat="45.59566" lon="6.61809">
        <ele>2413.3999023438</ele>
        <time>2019-12-30T12:03:43.000Z</time>
      </trkpt>
      <trkpt lat="45.59566" lon="6.61809">
        <ele>2413.8000488281</ele>
        <time>2019-12-30T12:03:44.000Z</time>
      </trkpt>
      <trkpt lat="45.59566" lon="6.61809">
        <ele>2414</ele>
        <time>2019-12-30T12:03:52.000Z</time>
      </trkpt>
      <trkpt lat="45.59566" lon="6.61809">
        <ele>2414.8000488281</ele>
        <time>2019-12-30T12:03:59.000Z</time>
      </trkpt>
      <trkpt lat="45.59566" lon="6.61809">
        <ele>2415.6000976562</ele>
        <time>2019-12-30T12:04:02.000Z</time>
      </trkpt>
      <trkpt lat="45.59566" lon="6.61809">
        <ele>2415.8000488281</ele>
        <time>2019-12-30T12:04:07.000Z</time>
      </trkpt>
      <trkpt lat="45.59566" lon="6.61809">
        <ele>2416</ele>
        <time>2019-12-30T12:04:09.000Z</time>
      </trkpt>
      <trkpt lat="45.59566" lon="6.61809">
        <ele>2416.6000976562</ele>
        <time>2019-12-30T12:04:16.000Z</time>
      </trkpt>
      <trkpt lat="45.59566" lon="6.61809">
        <ele>2417</ele>
        <time>2019-12-30T12:04:23.000Z</time>
      </trkpt>
      <trkpt lat="45.59566" lon="6.61809">
        <ele>2417.1999511719</ele>
        <time>2019-12-30T12:04:24.000Z</time>
      </trkpt>
      <trkpt lat="45.59566" lon="6.61808">
        <ele>2418.1999511719</ele>
        <time>2019-12-30T12:04:29.000Z</time>
      </trkpt>
      <trkpt lat="45.59566" lon="6.61807">
        <ele>2418.3999023438</ele>
        <time>2019-12-30T12:04:30.000Z</time>
      </trkpt>
      <trkpt lat="45.59566" lon="6.61807">
        <ele>2418.6000976562</ele>
        <time>2019-12-30T12:04:33.000Z</time>
      </trkpt>
      <trkpt lat="45.59567" lon="6.61806">
        <ele>2418.6000976562</ele>
        <time>2019-12-30T12:04:34.000Z</time>
      </trkpt>
      <trkpt lat="45.59567" lon="6.61805">
        <ele>2419.1999511719</ele>
        <time>2019-12-30T12:04:37.000Z</time>
      </trkpt>
      <trkpt lat="45.59568" lon="6.61804">
        <ele>2419.6000976562</ele>
        <time>2019-12-30T12:04:39.000Z</time>
      </trkpt>
      <trkpt lat="45.59569" lon="6.61802">
        <ele>2420</ele>
        <time>2019-12-30T12:04:44.000Z</time>
      </trkpt>
      <trkpt lat="45.59569" lon="6.61802">
        <ele>2420.3999023438</ele>
        <time>2019-12-30T12:04:47.000Z</time>
      </trkpt>
      <trkpt lat="45.59569" lon="6.61802">
        <ele>2421</ele>
        <time>2019-12-30T12:04:55.000Z</time>
      </trkpt>
      <trkpt lat="45.59569" lon="6.61802">
        <ele>2421</ele>
        <time>2019-12-30T12:04:56.000Z</time>
      </trkpt>
      <trkpt lat="45.59569" lon="6.618">
        <ele>2421</ele>
        <time>2019-12-30T12:04:59.000Z</time>
      </trkpt>
      <trkpt lat="45.59569" lon="6.618">
        <ele>2421.3999023438</ele>
        <time>2019-12-30T12:05:01.000Z</time>
      </trkpt>
      <trkpt lat="45.59569" lon="6.61799">
        <ele>2421.8000488281</ele>
        <time>2019-12-30T12:05:03.000Z</time>
      </trkpt>
      <trkpt lat="45.5957" lon="6.61797">
        <ele>2422.6000976562</ele>
        <time>2019-12-30T12:05:06.000Z</time>
      </trkpt>
      <trkpt lat="45.5957" lon="6.61795">
        <ele>2423</ele>
        <time>2019-12-30T12:05:08.000Z</time>
      </trkpt>
      <trkpt lat="45.5957" lon="6.61793">
        <ele>2423.6000976562</ele>
        <time>2019-12-30T12:05:12.000Z</time>
      </trkpt>
      <trkpt lat="45.5957" lon="6.61792">
        <ele>2424</ele>
        <time>2019-12-30T12:05:14.000Z</time>
      </trkpt>
      <trkpt lat="45.59569" lon="6.61791">
        <ele>2424.8000488281</ele>
        <time>2019-12-30T12:05:18.000Z</time>
      </trkpt>
      <trkpt lat="45.5957" lon="6.6179">
        <ele>2425.1999511719</ele>
        <time>2019-12-30T12:05:20.000Z</time>
      </trkpt>
      <trkpt lat="45.5957" lon="6.6179">
        <ele>2426</ele>
        <time>2019-12-30T12:05:23.000Z</time>
      </trkpt>
      <trkpt lat="45.5957" lon="6.61789">
        <ele>2426.8000488281</ele>
        <time>2019-12-30T12:05:28.000Z</time>
      </trkpt>
      <trkpt lat="45.5957" lon="6.61788">
        <ele>2427</ele>
        <time>2019-12-30T12:05:29.000Z</time>
      </trkpt>
      <trkpt lat="45.59569" lon="6.61787">
        <ele>2427.8000488281</ele>
        <time>2019-12-30T12:05:33.000Z</time>
      </trkpt>
      <trkpt lat="45.59569" lon="6.61787">
        <ele>2428</ele>
        <time>2019-12-30T12:05:34.000Z</time>
      </trkpt>
      <trkpt lat="45.5957" lon="6.61786">
        <ele>2428</ele>
        <time>2019-12-30T12:05:43.000Z</time>
      </trkpt>
      <trkpt lat="45.59571" lon="6.61783">
        <ele>2428.1999511719</ele>
        <time>2019-12-30T12:05:49.000Z</time>
      </trkpt>
      <trkpt lat="45.59572" lon="6.61779">
        <ele>2429.1999511719</ele>
        <time>2019-12-30T12:05:54.000Z</time>
      </trkpt>
      <trkpt lat="45.59573" lon="6.61778">
        <ele>2429.6000976562</ele>
        <time>2019-12-30T12:05:56.000Z</time>
      </trkpt>
      <trkpt lat="45.59575" lon="6.61774">
        <ele>2430.3999023438</ele>
        <time>2019-12-30T12:06:01.000Z</time>
      </trkpt>
      <trkpt lat="45.59575" lon="6.61774">
        <ele>2430.8000488281</ele>
        <time>2019-12-30T12:06:03.000Z</time>
      </trkpt>
      <trkpt lat="45.59575" lon="6.61767">
        <ele>2431.1999511719</ele>
        <time>2019-12-30T12:06:15.000Z</time>
      </trkpt>
      <trkpt lat="45.59575" lon="6.61767">
        <ele>2431</ele>
        <time>2019-12-30T12:06:20.000Z</time>
      </trkpt>
      <trkpt lat="45.59575" lon="6.6177">
        <ele>2431.6000976562</ele>
        <time>2019-12-30T12:06:24.000Z</time>
      </trkpt>
      <trkpt lat="45.59575" lon="6.6177">
        <ele>2432</ele>
        <time>2019-12-30T12:06:26.000Z</time>
      </trkpt>
      <trkpt lat="45.59574" lon="6.61777">
        <ele>2432.6000976562</ele>
        <time>2019-12-30T12:06:29.000Z</time>
      </trkpt>
      <trkpt lat="45.59574" lon="6.61777">
        <ele>2433</ele>
        <time>2019-12-30T12:06:32.000Z</time>
      </trkpt>
      <trkpt lat="45.59573" lon="6.61786">
        <ele>2433.8000488281</ele>
        <time>2019-12-30T12:06:36.000Z</time>
      </trkpt>
      <trkpt lat="45.59573" lon="6.6179">
        <ele>2434.1999511719</ele>
        <time>2019-12-30T12:06:41.000Z</time>
      </trkpt>
      <trkpt lat="45.59573" lon="6.61792">
        <ele>2434.3999023438</ele>
        <time>2019-12-30T12:06:43.000Z</time>
      </trkpt>
      <trkpt lat="45.59573" lon="6.61792">
        <ele>2434.8000488281</ele>
        <time>2019-12-30T12:06:46.000Z</time>
      </trkpt>
      <trkpt lat="45.59573" lon="6.61792">
        <ele>2435.8000488281</ele>
        <time>2019-12-30T12:06:54.000Z</time>
      </trkpt>
      <trkpt lat="45.59573" lon="6.61792">
        <ele>2436.1999511719</ele>
        <time>2019-12-30T12:07:04.000Z</time>
      </trkpt>
      <trkpt lat="45.59574" lon="6.61792">
        <ele>2436.6000976562</ele>
        <time>2019-12-30T12:07:09.000Z</time>
      </trkpt>
      <trkpt lat="45.59574" lon="6.61792">
        <ele>2437</ele>
        <time>2019-12-30T12:07:14.000Z</time>
      </trkpt>
      <trkpt lat="45.59574" lon="6.61792">
        <ele>2437</ele>
        <time>2019-12-30T12:07:15.000Z</time>
      </trkpt>
      <trkpt lat="45.59574" lon="6.61792">
        <ele>2437.3999023438</ele>
        <time>2019-12-30T12:07:19.000Z</time>
      </trkpt>
      <trkpt lat="45.59572" lon="6.61794">
        <ele>2438</ele>
        <time>2019-12-30T12:07:25.000Z</time>
      </trkpt>
      <trkpt lat="45.59572" lon="6.61794">
        <ele>2438.3999023438</ele>
        <time>2019-12-30T12:07:26.000Z</time>
      </trkpt>
      <trkpt lat="45.59572" lon="6.61794">
        <ele>2439</ele>
        <time>2019-12-30T12:07:34.000Z</time>
      </trkpt>
      <trkpt lat="45.59572" lon="6.61794">
        <ele>2439</ele>
        <time>2019-12-30T12:07:35.000Z</time>
      </trkpt>
      <trkpt lat="45.59572" lon="6.61794">
        <ele>2439.3999023438</ele>
        <time>2019-12-30T12:07:46.000Z</time>
      </trkpt>
      <trkpt lat="45.59572" lon="6.61794">
        <ele>2439.3999023438</ele>
        <time>2019-12-30T12:07:57.000Z</time>
      </trkpt>
      <trkpt lat="45.59572" lon="6.61794">
        <ele>2439.6000976562</ele>
        <time>2019-12-30T12:08:09.000Z</time>
      </trkpt>
      <trkpt lat="45.59572" lon="6.61794">
        <ele>2439.3999023438</ele>
        <time>2019-12-30T12:08:21.000Z</time>
      </trkpt>
      <trkpt lat="45.59572" lon="6.61794">
        <ele>2440</ele>
        <time>2019-12-30T12:08:30.000Z</time>
      </trkpt>
      <trkpt lat="45.59572" lon="6.61794">
        <ele>2439.6000976562</ele>
        <time>2019-12-30T12:08:45.000Z</time>
      </trkpt>
      <trkpt lat="45.59572" lon="6.61794">
        <ele>2439.1999511719</ele>
        <time>2019-12-30T12:08:54.000Z</time>
      </trkpt>
      <trkpt lat="45.59572" lon="6.61794">
        <ele>2440.3999023438</ele>
        <time>2019-12-30T12:09:02.000Z</time>
      </trkpt>
      <trkpt lat="45.59572" lon="6.61793">
        <ele>2440.8000488281</ele>
        <time>2019-12-30T12:09:11.000Z</time>
      </trkpt>
      <trkpt lat="45.59573" lon="6.61793">
        <ele>2440.8000488281</ele>
        <time>2019-12-30T12:09:17.000Z</time>
      </trkpt>
      <trkpt lat="45.59577" lon="6.61793">
        <ele>2441.1999511719</ele>
        <time>2019-12-30T12:09:20.000Z</time>
      </trkpt>
      <trkpt lat="45.59578" lon="6.61793">
        <ele>2441.1999511719</ele>
        <time>2019-12-30T12:09:21.000Z</time>
      </trkpt>
      <trkpt lat="45.59579" lon="6.61793">
        <ele>2441.6000976562</ele>
        <time>2019-12-30T12:09:23.000Z</time>
      </trkpt>
      <trkpt lat="45.59582" lon="6.61794">
        <ele>2442.3999023438</ele>
        <time>2019-12-30T12:09:28.000Z</time>
      </trkpt>
      <trkpt lat="45.59582" lon="6.61794">
        <ele>2443.6000976562</ele>
        <time>2019-12-30T12:09:33.000Z</time>
      </trkpt>
      <trkpt lat="45.59582" lon="6.61794">
        <ele>2443.8000488281</ele>
        <time>2019-12-30T12:09:34.000Z</time>
      </trkpt>
      <trkpt lat="45.59583" lon="6.61794">
        <ele>2444.1999511719</ele>
        <time>2019-12-30T12:09:42.000Z</time>
      </trkpt>
      <trkpt lat="45.59583" lon="6.61793">
        <ele>2444.1999511719</ele>
        <time>2019-12-30T12:09:43.000Z</time>
      </trkpt>
      <trkpt lat="45.59582" lon="6.61793">
        <ele>2444.8000488281</ele>
        <time>2019-12-30T12:09:53.000Z</time>
      </trkpt>
      <trkpt lat="45.59581" lon="6.61793">
        <ele>2445</ele>
        <time>2019-12-30T12:09:54.000Z</time>
      </trkpt>
      <trkpt lat="45.5958" lon="6.6179">
        <ele>2445.1999511719</ele>
        <time>2019-12-30T12:09:57.000Z</time>
      </trkpt>
      <trkpt lat="45.59579" lon="6.61787">
        <ele>2444.8000488281</ele>
        <time>2019-12-30T12:10:00.000Z</time>
      </trkpt>
      <trkpt lat="45.59578" lon="6.61782">
        <ele>2445.3999023438</ele>
        <time>2019-12-30T12:10:06.000Z</time>
      </trkpt>
      <trkpt lat="45.59576" lon="6.6178">
        <ele>2446</ele>
        <time>2019-12-30T12:10:08.000Z</time>
      </trkpt>
      <trkpt lat="45.59575" lon="6.61779">
        <ele>2446.1999511719</ele>
        <time>2019-12-30T12:10:10.000Z</time>
      </trkpt>
      <trkpt lat="45.59573" lon="6.61775">
        <ele>2446.8000488281</ele>
        <time>2019-12-30T12:10:15.000Z</time>
      </trkpt>
      <trkpt lat="45.59573" lon="6.61775">
        <ele>2447</ele>
        <time>2019-12-30T12:10:16.000Z</time>
      </trkpt>
      <trkpt lat="45.59572" lon="6.61773">
        <ele>2447.8000488281</ele>
        <time>2019-12-30T12:10:21.000Z</time>
      </trkpt>
      <trkpt lat="45.59571" lon="6.61773">
        <ele>2448.1999511719</ele>
        <time>2019-12-30T12:10:22.000Z</time>
      </trkpt>
      <trkpt lat="45.5957" lon="6.61771">
        <ele>2448.8000488281</ele>
        <time>2019-12-30T12:10:25.000Z</time>
      </trkpt>
      <trkpt lat="45.59569" lon="6.61769">
        <ele>2449.1999511719</ele>
        <time>2019-12-30T12:10:27.000Z</time>
      </trkpt>
      <trkpt lat="45.59569" lon="6.61767">
        <ele>2449.6000976562</ele>
        <time>2019-12-30T12:10:29.000Z</time>
      </trkpt>
      <trkpt lat="45.59569" lon="6.61766">
        <ele>2450.3999023438</ele>
        <time>2019-12-30T12:10:33.000Z</time>
      </trkpt>
      <trkpt lat="45.59569" lon="6.61766">
        <ele>2450.6000976562</ele>
        <time>2019-12-30T12:10:36.000Z</time>
      </trkpt>
      <trkpt lat="45.59569" lon="6.61766">
        <ele>2451.1999511719</ele>
        <time>2019-12-30T12:10:49.000Z</time>
      </trkpt>
      <trkpt lat="45.59572" lon="6.61768">
        <ele>2451.1999511719</ele>
        <time>2019-12-30T12:11:01.000Z</time>
      </trkpt>
      <trkpt lat="45.59574" lon="6.61769">
        <ele>2451.6000976562</ele>
        <time>2019-12-30T12:11:04.000Z</time>
      </trkpt>
      <trkpt lat="45.59577" lon="6.6177">
        <ele>2452.6000976562</ele>
        <time>2019-12-30T12:11:09.000Z</time>
      </trkpt>
      <trkpt lat="45.59578" lon="6.61768">
        <ele>2453.6000976562</ele>
        <time>2019-12-30T12:11:14.000Z</time>
      </trkpt>
      <trkpt lat="45.59579" lon="6.61768">
        <ele>2453.6000976562</ele>
        <time>2019-12-30T12:11:18.000Z</time>
      </trkpt>
      <trkpt lat="45.59579" lon="6.61769">
        <ele>2454.1999511719</ele>
        <time>2019-12-30T12:11:24.000Z</time>
      </trkpt>
      <trkpt lat="45.59578" lon="6.61768">
        <ele>2454.6000976562</ele>
        <time>2019-12-30T12:11:29.000Z</time>
      </trkpt>
      <trkpt lat="45.59578" lon="6.61768">
        <ele>2454.6000976562</ele>
        <time>2019-12-30T12:11:30.000Z</time>
      </trkpt>
      <trkpt lat="45.59576" lon="6.61765">
        <ele>2454.8000488281</ele>
        <time>2019-12-30T12:11:35.000Z</time>
      </trkpt>
      <trkpt lat="45.59576" lon="6.61765">
        <ele>2455.6000976562</ele>
        <time>2019-12-30T12:11:40.000Z</time>
      </trkpt>
      <trkpt lat="45.59576" lon="6.61765">
        <ele>2456</ele>
        <time>2019-12-30T12:11:52.000Z</time>
      </trkpt>
      <trkpt lat="45.59576" lon="6.61764">
        <ele>2456</ele>
        <time>2019-12-30T12:12:06.000Z</time>
      </trkpt>
      <trkpt lat="45.59575" lon="6.61763">
        <ele>2456</ele>
        <time>2019-12-30T12:12:16.000Z</time>
      </trkpt>
      <trkpt lat="45.59574" lon="6.61759">
        <ele>2456.3999023438</ele>
        <time>2019-12-30T12:12:20.000Z</time>
      </trkpt>
      <trkpt lat="45.59573" lon="6.61758">
        <ele>2456.8000488281</ele>
        <time>2019-12-30T12:12:22.000Z</time>
      </trkpt>
      <trkpt lat="45.59573" lon="6.61757">
        <ele>2457</ele>
        <time>2019-12-30T12:12:23.000Z</time>
      </trkpt>
      <trkpt lat="45.59572" lon="6.61753">
        <ele>2457.8000488281</ele>
        <time>2019-12-30T12:12:27.000Z</time>
      </trkpt>
      <trkpt lat="45.59572" lon="6.61752">
        <ele>2458.3999023438</ele>
        <time>2019-12-30T12:12:30.000Z</time>
      </trkpt>
      <trkpt lat="45.59572" lon="6.61751">
        <ele>2459</ele>
        <time>2019-12-30T12:12:32.000Z</time>
      </trkpt>
      <trkpt lat="45.59571" lon="6.6175">
        <ele>2459.3999023438</ele>
        <time>2019-12-30T12:12:33.000Z</time>
      </trkpt>
      <trkpt lat="45.5957" lon="6.61747">
        <ele>2460</ele>
        <time>2019-12-30T12:12:36.000Z</time>
      </trkpt>
      <trkpt lat="45.5957" lon="6.61746">
        <ele>2460.1999511719</ele>
        <time>2019-12-30T12:12:37.000Z</time>
      </trkpt>
      <trkpt lat="45.59569" lon="6.61743">
        <ele>2461</ele>
        <time>2019-12-30T12:12:41.000Z</time>
      </trkpt>
      <trkpt lat="45.59569" lon="6.61743">
        <ele>2461</ele>
        <time>2019-12-30T12:12:42.000Z</time>
      </trkpt>
      <trkpt lat="45.59569" lon="6.61742">
        <ele>2461.1999511719</ele>
        <time>2019-12-30T12:12:43.000Z</time>
      </trkpt>
      <trkpt lat="45.59568" lon="6.61738">
        <ele>2462</ele>
        <time>2019-12-30T12:12:47.000Z</time>
      </trkpt>
      <trkpt lat="45.59568" lon="6.61738">
        <ele>2462.1999511719</ele>
        <time>2019-12-30T12:12:48.000Z</time>
      </trkpt>
      <trkpt lat="45.59568" lon="6.61737">
        <ele>2462.6000976562</ele>
        <time>2019-12-30T12:12:50.000Z</time>
      </trkpt>
      <trkpt lat="45.59567" lon="6.61735">
        <ele>2463</ele>
        <time>2019-12-30T12:12:53.000Z</time>
      </trkpt>
      <trkpt lat="45.59567" lon="6.61734">
        <ele>2463.1999511719</ele>
        <time>2019-12-30T12:12:54.000Z</time>
      </trkpt>
      <trkpt lat="45.59567" lon="6.61733">
        <ele>2463.6000976562</ele>
        <time>2019-12-30T12:12:56.000Z</time>
      </trkpt>
      <trkpt lat="45.59566" lon="6.61731">
        <ele>2464.3999023438</ele>
        <time>2019-12-30T12:12:59.000Z</time>
      </trkpt>
      <trkpt lat="45.59566" lon="6.61729">
        <ele>2465</ele>
        <time>2019-12-30T12:13:02.000Z</time>
      </trkpt>
      <trkpt lat="45.59566" lon="6.61728">
        <ele>2465.3999023438</ele>
        <time>2019-12-30T12:13:05.000Z</time>
      </trkpt>
      <trkpt lat="45.59566" lon="6.61728">
        <ele>2466.3999023438</ele>
        <time>2019-12-30T12:13:13.000Z</time>
      </trkpt>
      <trkpt lat="45.59566" lon="6.61728">
        <ele>2466.3999023438</ele>
        <time>2019-12-30T12:13:15.000Z</time>
      </trkpt>
      <trkpt lat="45.59567" lon="6.61729">
        <ele>2466.1999511719</ele>
        <time>2019-12-30T12:13:28.000Z</time>
      </trkpt>
      <trkpt lat="45.59568" lon="6.61729">
        <ele>2466.6000976562</ele>
        <time>2019-12-30T12:13:32.000Z</time>
      </trkpt>
      <trkpt lat="45.59571" lon="6.61729">
        <ele>2467.1999511719</ele>
        <time>2019-12-30T12:13:36.000Z</time>
      </trkpt>
      <trkpt lat="45.59571" lon="6.61729">
        <ele>2467.6000976562</ele>
        <time>2019-12-30T12:13:38.000Z</time>
      </trkpt>
      <trkpt lat="45.59573" lon="6.61729">
        <ele>2468.8000488281</ele>
        <time>2019-12-30T12:13:42.000Z</time>
      </trkpt>
      <trkpt lat="45.59573" lon="6.6173">
        <ele>2470</ele>
        <time>2019-12-30T12:13:48.000Z</time>
      </trkpt>
      <trkpt lat="45.59574" lon="6.6173">
        <ele>2470</ele>
        <time>2019-12-30T12:13:49.000Z</time>
      </trkpt>
      <trkpt lat="45.59575" lon="6.61731">
        <ele>2471</ele>
        <time>2019-12-30T12:13:53.000Z</time>
      </trkpt>
      <trkpt lat="45.59578" lon="6.61734">
        <ele>2472</ele>
        <time>2019-12-30T12:13:58.000Z</time>
      </trkpt>
      <trkpt lat="45.59579" lon="6.61734">
        <ele>2472</ele>
        <time>2019-12-30T12:13:59.000Z</time>
      </trkpt>
      <trkpt lat="45.59582" lon="6.61736">
        <ele>2473</ele>
        <time>2019-12-30T12:14:04.000Z</time>
      </trkpt>
      <trkpt lat="45.59582" lon="6.61736">
        <ele>2473.3999023438</ele>
        <time>2019-12-30T12:14:05.000Z</time>
      </trkpt>
      <trkpt lat="45.59584" lon="6.61736">
        <ele>2474.1999511719</ele>
        <time>2019-12-30T12:14:09.000Z</time>
      </trkpt>
      <trkpt lat="45.59585" lon="6.61736">
        <ele>2474.3999023438</ele>
        <time>2019-12-30T12:14:10.000Z</time>
      </trkpt>
      <trkpt lat="45.59587" lon="6.61737">
        <ele>2474.8000488281</ele>
        <time>2019-12-30T12:14:14.000Z</time>
      </trkpt>
      <trkpt lat="45.59589" lon="6.61738">
        <ele>2475</ele>
        <time>2019-12-30T12:14:16.000Z</time>
      </trkpt>
      <trkpt lat="45.59589" lon="6.61738">
        <ele>2475.1999511719</ele>
        <time>2019-12-30T12:14:17.000Z</time>
      </trkpt>
      <trkpt lat="45.59592" lon="6.61738">
        <ele>2476</ele>
        <time>2019-12-30T12:14:23.000Z</time>
      </trkpt>
      <trkpt lat="45.59593" lon="6.61738">
        <ele>2476.1999511719</ele>
        <time>2019-12-30T12:14:24.000Z</time>
      </trkpt>
      <trkpt lat="45.59595" lon="6.61738">
        <ele>2477</ele>
        <time>2019-12-30T12:14:28.000Z</time>
      </trkpt>
      <trkpt lat="45.59597" lon="6.61739">
        <ele>2477.1999511719</ele>
        <time>2019-12-30T12:14:31.000Z</time>
      </trkpt>
      <trkpt lat="45.59598" lon="6.61739">
        <ele>2478</ele>
        <time>2019-12-30T12:14:36.000Z</time>
      </trkpt>
      <trkpt lat="45.59598" lon="6.61739">
        <ele>2478.3999023438</ele>
        <time>2019-12-30T12:14:38.000Z</time>
      </trkpt>
      <trkpt lat="45.59598" lon="6.61739">
        <ele>2479.3999023438</ele>
        <time>2019-12-30T12:14:47.000Z</time>
      </trkpt>
      <trkpt lat="45.59598" lon="6.61739">
        <ele>2479.1999511719</ele>
        <time>2019-12-30T12:15:02.000Z</time>
      </trkpt>
      <trkpt lat="45.59598" lon="6.61739">
        <ele>2479.1999511719</ele>
        <time>2019-12-30T12:15:14.000Z</time>
      </trkpt>
      <trkpt lat="45.59598" lon="6.61739">
        <ele>2479.3999023438</ele>
        <time>2019-12-30T12:15:23.000Z</time>
      </trkpt>
      <trkpt lat="45.59598" lon="6.61739">
        <ele>2479.3999023438</ele>
        <time>2019-12-30T12:15:27.000Z</time>
      </trkpt>
      <trkpt lat="45.59598" lon="6.61739">
        <ele>2479.3999023438</ele>
        <time>2019-12-30T12:15:48.000Z</time>
      </trkpt>
      <trkpt lat="45.59598" lon="6.61739">
        <ele>2479.3999023438</ele>
        <time>2019-12-30T12:16:02.000Z</time>
      </trkpt>
      <trkpt lat="45.59598" lon="6.61739">
        <ele>2479.3999023438</ele>
        <time>2019-12-30T12:16:21.000Z</time>
      </trkpt>
      <trkpt lat="45.59598" lon="6.61739">
        <ele>2479.3999023438</ele>
        <time>2019-12-30T12:16:44.000Z</time>
      </trkpt>
      <trkpt lat="45.59598" lon="6.61739">
        <ele>2479.3999023438</ele>
        <time>2019-12-30T12:16:58.000Z</time>
      </trkpt>
      <trkpt lat="45.59598" lon="6.61739">
        <ele>2479.3999023438</ele>
        <time>2019-12-30T12:17:12.000Z</time>
      </trkpt>
      <trkpt lat="45.59598" lon="6.61739">
        <ele>2479.3999023438</ele>
        <time>2019-12-30T12:17:24.000Z</time>
      </trkpt>
      <trkpt lat="45.59598" lon="6.61739">
        <ele>2480.1999511719</ele>
        <time>2019-12-30T12:17:35.000Z</time>
      </trkpt>
      <trkpt lat="45.59598" lon="6.61739">
        <ele>2480.3999023438</ele>
        <time>2019-12-30T12:17:37.000Z</time>
      </trkpt>
      <trkpt lat="45.59598" lon="6.61739">
        <ele>2480.3999023438</ele>
        <time>2019-12-30T12:17:43.000Z</time>
      </trkpt>
      <trkpt lat="45.59598" lon="6.61739">
        <ele>2480.8000488281</ele>
        <time>2019-12-30T12:17:57.000Z</time>
      </trkpt>
      <trkpt lat="45.59598" lon="6.61739">
        <ele>2481.1999511719</ele>
        <time>2019-12-30T12:18:03.000Z</time>
      </trkpt>
      <trkpt lat="45.59596" lon="6.61735">
        <ele>2481.3999023438</ele>
        <time>2019-12-30T12:18:08.000Z</time>
      </trkpt>
      <trkpt lat="45.59593" lon="6.6173">
        <ele>2482.3999023438</ele>
        <time>2019-12-30T12:18:12.000Z</time>
      </trkpt>
      <trkpt lat="45.59593" lon="6.6173">
        <ele>2482.6000976562</ele>
        <time>2019-12-30T12:18:13.000Z</time>
      </trkpt>
      <trkpt lat="45.59593" lon="6.6173">
        <ele>2483.3999023438</ele>
        <time>2019-12-30T12:18:22.000Z</time>
      </trkpt>
      <trkpt lat="45.59593" lon="6.6173">
        <ele>2483.6000976562</ele>
        <time>2019-12-30T12:18:27.000Z</time>
      </trkpt>
      <trkpt lat="45.59594" lon="6.6173">
        <ele>2483.8000488281</ele>
        <time>2019-12-30T12:18:32.000Z</time>
      </trkpt>
      <trkpt lat="45.59594" lon="6.6173">
        <ele>2484.6000976562</ele>
        <time>2019-12-30T12:18:33.000Z</time>
      </trkpt>
      <trkpt lat="45.59594" lon="6.6173">
        <ele>2484.8000488281</ele>
        <time>2019-12-30T12:18:34.000Z</time>
      </trkpt>
      <trkpt lat="45.59595" lon="6.6173">
        <ele>2484.8000488281</ele>
        <time>2019-12-30T12:18:38.000Z</time>
      </trkpt>
      <trkpt lat="45.59596" lon="6.6173">
        <ele>2485.6000976562</ele>
        <time>2019-12-30T12:18:44.000Z</time>
      </trkpt>
      <trkpt lat="45.59596" lon="6.6173">
        <ele>2485.8000488281</ele>
        <time>2019-12-30T12:18:45.000Z</time>
      </trkpt>
      <trkpt lat="45.59596" lon="6.6173">
        <ele>2486.1999511719</ele>
        <time>2019-12-30T12:18:55.000Z</time>
      </trkpt>
      <trkpt lat="45.59597" lon="6.61729">
        <ele>2486.3999023438</ele>
        <time>2019-12-30T12:19:05.000Z</time>
      </trkpt>
      <trkpt lat="45.59597" lon="6.61729">
        <ele>2486.6000976562</ele>
        <time>2019-12-30T12:19:13.000Z</time>
      </trkpt>
      <trkpt lat="45.59597" lon="6.61729">
        <ele>2487</ele>
        <time>2019-12-30T12:19:17.000Z</time>
      </trkpt>
      <trkpt lat="45.59597" lon="6.61729">
        <ele>2487.3999023438</ele>
        <time>2019-12-30T12:19:19.000Z</time>
      </trkpt>
      <trkpt lat="45.59597" lon="6.61729">
        <ele>2488</ele>
        <time>2019-12-30T12:19:30.000Z</time>
      </trkpt>
      <trkpt lat="45.59597" lon="6.61729">
        <ele>2488</ele>
        <time>2019-12-30T12:19:31.000Z</time>
      </trkpt>
      <trkpt lat="45.59597" lon="6.61729">
        <ele>2487.8000488281</ele>
        <time>2019-12-30T12:19:42.000Z</time>
      </trkpt>
      <trkpt lat="45.59597" lon="6.61729">
        <ele>2487.6000976562</ele>
        <time>2019-12-30T12:19:53.000Z</time>
      </trkpt>
      <trkpt lat="45.59597" lon="6.61729">
        <ele>2487.3999023438</ele>
        <time>2019-12-30T12:20:03.000Z</time>
      </trkpt>
      <trkpt lat="45.59597" lon="6.61729">
        <ele>2487.6000976562</ele>
        <time>2019-12-30T12:20:15.000Z</time>
      </trkpt>
      <trkpt lat="45.59597" lon="6.61728">
        <ele>2487.1999511719</ele>
        <time>2019-12-30T12:20:29.000Z</time>
      </trkpt>
      <trkpt lat="45.59596" lon="6.61726">
        <ele>2488.1999511719</ele>
        <time>2019-12-30T12:20:38.000Z</time>
      </trkpt>
      <trkpt lat="45.59596" lon="6.61726">
        <ele>2487.6000976562</ele>
        <time>2019-12-30T12:20:53.000Z</time>
      </trkpt>
      <trkpt lat="45.59596" lon="6.61726">
        <ele>2487.6000976562</ele>
        <time>2019-12-30T12:21:08.000Z</time>
      </trkpt>
      <trkpt lat="45.59596" lon="6.61726">
        <ele>2487.6000976562</ele>
        <time>2019-12-30T12:21:20.000Z</time>
      </trkpt>
      <trkpt lat="45.59596" lon="6.61726">
        <ele>2487.6000976562</ele>
        <time>2019-12-30T12:21:35.000Z</time>
      </trkpt>
      <trkpt lat="45.59596" lon="6.61726">
        <ele>2487.6000976562</ele>
        <time>2019-12-30T12:21:49.000Z</time>
      </trkpt>
      <trkpt lat="45.59596" lon="6.61724">
        <ele>2487.8000488281</ele>
        <time>2019-12-30T12:22:12.000Z</time>
      </trkpt>
      <trkpt lat="45.59596" lon="6.61724">
        <ele>2487.8000488281</ele>
        <time>2019-12-30T12:22:29.000Z</time>
      </trkpt>
      <trkpt lat="45.59595" lon="6.61724">
        <ele>2487.8000488281</ele>
        <time>2019-12-30T12:22:48.000Z</time>
      </trkpt>
      <trkpt lat="45.59595" lon="6.61724">
        <ele>2487.8000488281</ele>
        <time>2019-12-30T12:23:06.000Z</time>
      </trkpt>
      <trkpt lat="45.59595" lon="6.61723">
        <ele>2487.8000488281</ele>
        <time>2019-12-30T12:23:22.000Z</time>
      </trkpt>
      <trkpt lat="45.59595" lon="6.61723">
        <ele>2487.8000488281</ele>
        <time>2019-12-30T12:23:37.000Z</time>
      </trkpt>
      <trkpt lat="45.59595" lon="6.61723">
        <ele>2487.8000488281</ele>
        <time>2019-12-30T12:23:55.000Z</time>
      </trkpt>
      <trkpt lat="45.59595" lon="6.61723">
        <ele>2487.8000488281</ele>
        <time>2019-12-30T12:24:13.000Z</time>
      </trkpt>
      <trkpt lat="45.59595" lon="6.61722">
        <ele>2487.3999023438</ele>
        <time>2019-12-30T12:24:26.000Z</time>
      </trkpt>
      <trkpt lat="45.59595" lon="6.61722">
        <ele>2486.8000488281</ele>
        <time>2019-12-30T12:24:28.000Z</time>
      </trkpt>
      <trkpt lat="45.59595" lon="6.61722">
        <ele>2487.8000488281</ele>
        <time>2019-12-30T12:24:34.000Z</time>
      </trkpt>
      <trkpt lat="45.59595" lon="6.61722">
        <ele>2487.8000488281</ele>
        <time>2019-12-30T12:24:42.000Z</time>
      </trkpt>
      <trkpt lat="45.59595" lon="6.61722">
        <ele>2488</ele>
        <time>2019-12-30T12:24:59.000Z</time>
      </trkpt>
      <trkpt lat="45.59594" lon="6.61722">
        <ele>2487.8000488281</ele>
        <time>2019-12-30T12:25:12.000Z</time>
      </trkpt>
      <trkpt lat="45.59594" lon="6.61722">
        <ele>2487.8000488281</ele>
        <time>2019-12-30T12:25:17.000Z</time>
      </trkpt>
      <trkpt lat="45.59594" lon="6.61722">
        <ele>2488</ele>
        <time>2019-12-30T12:25:29.000Z</time>
      </trkpt>
      <trkpt lat="45.59594" lon="6.61722">
        <ele>2488.1999511719</ele>
        <time>2019-12-30T12:25:38.000Z</time>
      </trkpt>
      <trkpt lat="45.59594" lon="6.61722">
        <ele>2488</ele>
        <time>2019-12-30T12:25:48.000Z</time>
      </trkpt>
      <trkpt lat="45.59594" lon="6.61722">
        <ele>2487.6000976562</ele>
        <time>2019-12-30T12:26:00.000Z</time>
      </trkpt>
      <trkpt lat="45.59594" lon="6.61722">
        <ele>2487.8000488281</ele>
        <time>2019-12-30T12:26:15.000Z</time>
      </trkpt>
      <trkpt lat="45.59594" lon="6.61722">
        <ele>2489</ele>
        <time>2019-12-30T12:26:21.000Z</time>
      </trkpt>
      <trkpt lat="45.59594" lon="6.61722">
        <ele>2489.1999511719</ele>
        <time>2019-12-30T12:26:23.000Z</time>
      </trkpt>
      <trkpt lat="45.59593" lon="6.61721">
        <ele>2488.3999023438</ele>
        <time>2019-12-30T12:26:30.000Z</time>
      </trkpt>
      <trkpt lat="45.59593" lon="6.61721">
        <ele>2488.1999511719</ele>
        <time>2019-12-30T12:26:38.000Z</time>
      </trkpt>
      <trkpt lat="45.59593" lon="6.61721">
        <ele>2488</ele>
        <time>2019-12-30T12:26:39.000Z</time>
      </trkpt>
      <trkpt lat="45.59593" lon="6.61721">
        <ele>2488</ele>
        <time>2019-12-30T12:26:47.000Z</time>
      </trkpt>
      <trkpt lat="45.59593" lon="6.61721">
        <ele>2488.3999023438</ele>
        <time>2019-12-30T12:26:59.000Z</time>
      </trkpt>
      <trkpt lat="45.59593" lon="6.61721">
        <ele>2488.1999511719</ele>
        <time>2019-12-30T12:27:09.000Z</time>
      </trkpt>
      <trkpt lat="45.59593" lon="6.61721">
        <ele>2488.6000976562</ele>
        <time>2019-12-30T12:27:20.000Z</time>
      </trkpt>
      <trkpt lat="45.59593" lon="6.61721">
        <ele>2488</ele>
        <time>2019-12-30T12:27:35.000Z</time>
      </trkpt>
      <trkpt lat="45.59593" lon="6.61721">
        <ele>2488</ele>
        <time>2019-12-30T12:27:53.000Z</time>
      </trkpt>
      <trkpt lat="45.59593" lon="6.61721">
        <ele>2487.8000488281</ele>
        <time>2019-12-30T12:28:10.000Z</time>
      </trkpt>
      <trkpt lat="45.59593" lon="6.61721">
        <ele>2489.1999511719</ele>
        <time>2019-12-30T12:28:17.000Z</time>
      </trkpt>
      <trkpt lat="45.59593" lon="6.61721">
        <ele>2488.8000488281</ele>
        <time>2019-12-30T12:28:21.000Z</time>
      </trkpt>
      <trkpt lat="45.59593" lon="6.61721">
        <ele>2488</ele>
        <time>2019-12-30T12:28:27.000Z</time>
      </trkpt>
      <trkpt lat="45.59593" lon="6.61721">
        <ele>2488.1999511719</ele>
        <time>2019-12-30T12:28:35.000Z</time>
      </trkpt>
      <trkpt lat="45.59593" lon="6.61721">
        <ele>2488</ele>
        <time>2019-12-30T12:28:52.000Z</time>
      </trkpt>
      <trkpt lat="45.59593" lon="6.61721">
        <ele>2488.1999511719</ele>
        <time>2019-12-30T12:29:08.000Z</time>
      </trkpt>
      <trkpt lat="45.59593" lon="6.61721">
        <ele>2488.1999511719</ele>
        <time>2019-12-30T12:29:22.000Z</time>
      </trkpt>
      <trkpt lat="45.59593" lon="6.61722">
        <ele>2487.8000488281</ele>
        <time>2019-12-30T12:29:30.000Z</time>
      </trkpt>
      <trkpt lat="45.59593" lon="6.61721">
        <ele>2487.8000488281</ele>
        <time>2019-12-30T12:29:39.000Z</time>
      </trkpt>
      <trkpt lat="45.59593" lon="6.61721">
        <ele>2488.6000976562</ele>
        <time>2019-12-30T12:29:51.000Z</time>
      </trkpt>
      <trkpt lat="45.59593" lon="6.61721">
        <ele>2488.6000976562</ele>
        <time>2019-12-30T12:30:10.000Z</time>
      </trkpt>
      <trkpt lat="45.59593" lon="6.61721">
        <ele>2488.6000976562</ele>
        <time>2019-12-30T12:30:27.000Z</time>
      </trkpt>
      <trkpt lat="45.59593" lon="6.61721">
        <ele>2488.6000976562</ele>
        <time>2019-12-30T12:30:44.000Z</time>
      </trkpt>
      <trkpt lat="45.59593" lon="6.61721">
        <ele>2488.6000976562</ele>
        <time>2019-12-30T12:30:59.000Z</time>
      </trkpt>
      <trkpt lat="45.59593" lon="6.61721">
        <ele>2488.6000976562</ele>
        <time>2019-12-30T12:31:19.000Z</time>
      </trkpt>
      <trkpt lat="45.59593" lon="6.61721">
        <ele>2488.6000976562</ele>
        <time>2019-12-30T12:31:36.000Z</time>
      </trkpt>
      <trkpt lat="45.59593" lon="6.61721">
        <ele>2488.6000976562</ele>
        <time>2019-12-30T12:31:51.000Z</time>
      </trkpt>
      <trkpt lat="45.59593" lon="6.61721">
        <ele>2488.6000976562</ele>
        <time>2019-12-30T12:32:07.000Z</time>
      </trkpt>
      <trkpt lat="45.59594" lon="6.61721">
        <ele>2488.8000488281</ele>
        <time>2019-12-30T12:32:24.000Z</time>
      </trkpt>
      <trkpt lat="45.59594" lon="6.61721">
        <ele>2488.8000488281</ele>
        <time>2019-12-30T12:32:39.000Z</time>
      </trkpt>
      <trkpt lat="45.59593" lon="6.6172">
        <ele>2488.8000488281</ele>
        <time>2019-12-30T12:32:57.000Z</time>
      </trkpt>
      <trkpt lat="45.59593" lon="6.6172">
        <ele>2488.8000488281</ele>
        <time>2019-12-30T12:33:15.000Z</time>
      </trkpt>
      <trkpt lat="45.59594" lon="6.6172">
        <ele>2488.8000488281</ele>
        <time>2019-12-30T12:33:33.000Z</time>
      </trkpt>
      <trkpt lat="45.59594" lon="6.6172">
        <ele>2488.8000488281</ele>
        <time>2019-12-30T12:33:51.000Z</time>
      </trkpt>
      <trkpt lat="45.59594" lon="6.6172">
        <ele>2488.8000488281</ele>
        <time>2019-12-30T12:34:09.000Z</time>
      </trkpt>
      <trkpt lat="45.59594" lon="6.6172">
        <ele>2488.8000488281</ele>
        <time>2019-12-30T12:34:15.000Z</time>
      </trkpt>
      <trkpt lat="45.59594" lon="6.6172">
        <ele>2488.8000488281</ele>
        <time>2019-12-30T12:34:23.000Z</time>
      </trkpt>
      <trkpt lat="45.59594" lon="6.6172">
        <ele>2488.8000488281</ele>
        <time>2019-12-30T12:34:42.000Z</time>
      </trkpt>
      <trkpt lat="45.59594" lon="6.6172">
        <ele>2488.8000488281</ele>
        <time>2019-12-30T12:34:57.000Z</time>
      </trkpt>
      <trkpt lat="45.59594" lon="6.6172">
        <ele>2488.6000976562</ele>
        <time>2019-12-30T12:35:12.000Z</time>
      </trkpt>
      <trkpt lat="45.59594" lon="6.6172">
        <ele>2488.6000976562</ele>
        <time>2019-12-30T12:35:30.000Z</time>
      </trkpt>
      <trkpt lat="45.59594" lon="6.6172">
        <ele>2488.6000976562</ele>
        <time>2019-12-30T12:35:51.000Z</time>
      </trkpt>
      <trkpt lat="45.59594" lon="6.6172">
        <ele>2488.6000976562</ele>
        <time>2019-12-30T12:36:05.000Z</time>
      </trkpt>
      <trkpt lat="45.59594" lon="6.61719">
        <ele>2488.3999023438</ele>
        <time>2019-12-30T12:36:20.000Z</time>
      </trkpt>
      <trkpt lat="45.59594" lon="6.61719">
        <ele>2489.3999023438</ele>
        <time>2019-12-30T12:36:27.000Z</time>
      </trkpt>
      <trkpt lat="45.59594" lon="6.61719">
        <ele>2489.6000976562</ele>
        <time>2019-12-30T12:36:29.000Z</time>
      </trkpt>
      <trkpt lat="45.59594" lon="6.61719">
        <ele>2488.3999023438</ele>
        <time>2019-12-30T12:36:34.000Z</time>
      </trkpt>
      <trkpt lat="45.59594" lon="6.61719">
        <ele>2487.8000488281</ele>
        <time>2019-12-30T12:36:41.000Z</time>
      </trkpt>
      <trkpt lat="45.59595" lon="6.61719">
        <ele>2488.1999511719</ele>
        <time>2019-12-30T12:36:55.000Z</time>
      </trkpt>
      <trkpt lat="45.59595" lon="6.61719">
        <ele>2487.1999511719</ele>
        <time>2019-12-30T12:36:59.000Z</time>
      </trkpt>
      <trkpt lat="45.59595" lon="6.61719">
        <ele>2488.3999023438</ele>
        <time>2019-12-30T12:37:02.000Z</time>
      </trkpt>
      <trkpt lat="45.59595" lon="6.61719">
        <ele>2488.3999023438</ele>
        <time>2019-12-30T12:37:06.000Z</time>
      </trkpt>
      <trkpt lat="45.59595" lon="6.61719">
        <ele>2488.1999511719</ele>
        <time>2019-12-30T12:37:19.000Z</time>
      </trkpt>
      <trkpt lat="45.59595" lon="6.61719">
        <ele>2488.3999023438</ele>
        <time>2019-12-30T12:37:26.000Z</time>
      </trkpt>
      <trkpt lat="45.59595" lon="6.61719">
        <ele>2488.1999511719</ele>
        <time>2019-12-30T12:37:30.000Z</time>
      </trkpt>
      <trkpt lat="45.59595" lon="6.61718">
        <ele>2488</ele>
        <time>2019-12-30T12:37:47.000Z</time>
      </trkpt>
      <trkpt lat="45.59595" lon="6.61718">
        <ele>2488.1999511719</ele>
        <time>2019-12-30T12:38:01.000Z</time>
      </trkpt>
      <trkpt lat="45.59595" lon="6.61717">
        <ele>2488.8000488281</ele>
        <time>2019-12-30T12:38:11.000Z</time>
      </trkpt>
      <trkpt lat="45.59595" lon="6.61717">
        <ele>2488.3999023438</ele>
        <time>2019-12-30T12:38:25.000Z</time>
      </trkpt>
      <trkpt lat="45.59595" lon="6.61717">
        <ele>2488.3999023438</ele>
        <time>2019-12-30T12:38:45.000Z</time>
      </trkpt>
      <trkpt lat="45.59595" lon="6.61717">
        <ele>2488.3999023438</ele>
        <time>2019-12-30T12:38:59.000Z</time>
      </trkpt>
      <trkpt lat="45.59595" lon="6.61717">
        <ele>2488.3999023438</ele>
        <time>2019-12-30T12:39:12.000Z</time>
      </trkpt>
      <trkpt lat="45.59595" lon="6.61717">
        <ele>2488.3999023438</ele>
        <time>2019-12-30T12:39:20.000Z</time>
      </trkpt>
      <trkpt lat="45.59597" lon="6.61721">
        <ele>2488.1999511719</ele>
        <time>2019-12-30T12:39:25.000Z</time>
      </trkpt>
      <trkpt lat="45.59597" lon="6.61722">
        <ele>2488</ele>
        <time>2019-12-30T12:39:26.000Z</time>
      </trkpt>
      <trkpt lat="45.59598" lon="6.61724">
        <ele>2487</ele>
        <time>2019-12-30T12:39:29.000Z</time>
      </trkpt>
      <trkpt lat="45.59596" lon="6.61728">
        <ele>2486</ele>
        <time>2019-12-30T12:39:31.000Z</time>
      </trkpt>
      <trkpt lat="45.59595" lon="6.61728">
        <ele>2485</ele>
        <time>2019-12-30T12:39:32.000Z</time>
      </trkpt>
      <trkpt lat="45.59594" lon="6.61729">
        <ele>2484.6000976562</ele>
        <time>2019-12-30T12:39:33.000Z</time>
      </trkpt>
      <trkpt lat="45.59596" lon="6.61733">
        <ele>2483.8000488281</ele>
        <time>2019-12-30T12:39:35.000Z</time>
      </trkpt>
      <trkpt lat="45.59598" lon="6.61736">
        <ele>2483.3999023438</ele>
        <time>2019-12-30T12:39:36.000Z</time>
      </trkpt>
      <trkpt lat="45.59598" lon="6.61741">
        <ele>2483.1999511719</ele>
        <time>2019-12-30T12:39:37.000Z</time>
      </trkpt>
      <trkpt lat="45.59597" lon="6.61745">
        <ele>2481.1999511719</ele>
        <time>2019-12-30T12:39:39.000Z</time>
      </trkpt>
      <trkpt lat="45.59599" lon="6.61748">
        <ele>2479.3999023438</ele>
        <time>2019-12-30T12:39:40.000Z</time>
      </trkpt>
      <trkpt lat="45.596" lon="6.6175">
        <ele>2477.8000488281</ele>
        <time>2019-12-30T12:39:41.000Z</time>
      </trkpt>
      <trkpt lat="45.59601" lon="6.61751">
        <ele>2476.8000488281</ele>
        <time>2019-12-30T12:39:42.000Z</time>
      </trkpt>
      <trkpt lat="45.59599" lon="6.61753">
        <ele>2476</ele>
        <time>2019-12-30T12:39:43.000Z</time>
      </trkpt>
      <trkpt lat="45.59597" lon="6.61757">
        <ele>2474.3999023438</ele>
        <time>2019-12-30T12:39:44.000Z</time>
      </trkpt>
      <trkpt lat="45.59598" lon="6.61765">
        <ele>2472.1999511719</ele>
        <time>2019-12-30T12:39:45.000Z</time>
      </trkpt>
      <trkpt lat="45.59599" lon="6.6177">
        <ele>2470</ele>
        <time>2019-12-30T12:39:46.000Z</time>
      </trkpt>
      <trkpt lat="45.596" lon="6.61774">
        <ele>2468.3999023438</ele>
        <time>2019-12-30T12:39:47.000Z</time>
      </trkpt>
      <trkpt lat="45.596" lon="6.61779">
        <ele>2466.6000976562</ele>
        <time>2019-12-30T12:39:48.000Z</time>
      </trkpt>
      <trkpt lat="45.59598" lon="6.61782">
        <ele>2465.1999511719</ele>
        <time>2019-12-30T12:39:49.000Z</time>
      </trkpt>
      <trkpt lat="45.59594" lon="6.61783">
        <ele>2463</ele>
        <time>2019-12-30T12:39:50.000Z</time>
      </trkpt>
      <trkpt lat="45.59593" lon="6.61786">
        <ele>2460.6000976562</ele>
        <time>2019-12-30T12:39:51.000Z</time>
      </trkpt>
      <trkpt lat="45.59592" lon="6.61789">
        <ele>2459</ele>
        <time>2019-12-30T12:39:52.000Z</time>
      </trkpt>
      <trkpt lat="45.59591" lon="6.61792">
        <ele>2458</ele>
        <time>2019-12-30T12:39:53.000Z</time>
      </trkpt>
      <trkpt lat="45.59585" lon="6.618">
        <ele>2455.8000488281</ele>
        <time>2019-12-30T12:39:55.000Z</time>
      </trkpt>
      <trkpt lat="45.59586" lon="6.61806">
        <ele>2454</ele>
        <time>2019-12-30T12:39:56.000Z</time>
      </trkpt>
      <trkpt lat="45.59586" lon="6.61809">
        <ele>2452.1999511719</ele>
        <time>2019-12-30T12:39:57.000Z</time>
      </trkpt>
      <trkpt lat="45.59585" lon="6.61811">
        <ele>2450.8000488281</ele>
        <time>2019-12-30T12:39:58.000Z</time>
      </trkpt>
      <trkpt lat="45.59586" lon="6.61813">
        <ele>2449.6000976562</ele>
        <time>2019-12-30T12:39:59.000Z</time>
      </trkpt>
      <trkpt lat="45.59586" lon="6.61814">
        <ele>2448.3999023438</ele>
        <time>2019-12-30T12:40:00.000Z</time>
      </trkpt>
      <trkpt lat="45.59585" lon="6.61815">
        <ele>2447.3999023438</ele>
        <time>2019-12-30T12:40:01.000Z</time>
      </trkpt>
      <trkpt lat="45.59585" lon="6.61818">
        <ele>2446.1999511719</ele>
        <time>2019-12-30T12:40:03.000Z</time>
      </trkpt>
      <trkpt lat="45.59586" lon="6.61816">
        <ele>2446</ele>
        <time>2019-12-30T12:40:06.000Z</time>
      </trkpt>
      <trkpt lat="45.59586" lon="6.61816">
        <ele>2446.1999511719</ele>
        <time>2019-12-30T12:40:19.000Z</time>
      </trkpt>
      <trkpt lat="45.59586" lon="6.61816">
        <ele>2446.1999511719</ele>
        <time>2019-12-30T12:40:32.000Z</time>
      </trkpt>
      <trkpt lat="45.59586" lon="6.61816">
        <ele>2445.8000488281</ele>
        <time>2019-12-30T12:40:40.000Z</time>
      </trkpt>
      <trkpt lat="45.59586" lon="6.61816">
        <ele>2445.8000488281</ele>
        <time>2019-12-30T12:40:56.000Z</time>
      </trkpt>
      <trkpt lat="45.59586" lon="6.61816">
        <ele>2445.8000488281</ele>
        <time>2019-12-30T12:41:11.000Z</time>
      </trkpt>
      <trkpt lat="45.59586" lon="6.61815">
        <ele>2446</ele>
        <time>2019-12-30T12:41:33.000Z</time>
      </trkpt>
      <trkpt lat="45.59586" lon="6.61815">
        <ele>2446</ele>
        <time>2019-12-30T12:41:49.000Z</time>
      </trkpt>
      <trkpt lat="45.59589" lon="6.61811">
        <ele>2445.6000976562</ele>
        <time>2019-12-30T12:41:58.000Z</time>
      </trkpt>
      <trkpt lat="45.59589" lon="6.61811">
        <ele>2445.3999023438</ele>
        <time>2019-12-30T12:42:15.000Z</time>
      </trkpt>
      <trkpt lat="45.59589" lon="6.61811">
        <ele>2445.3999023438</ele>
        <time>2019-12-30T12:42:27.000Z</time>
      </trkpt>
      <trkpt lat="45.59589" lon="6.61811">
        <ele>2445.3999023438</ele>
        <time>2019-12-30T12:42:42.000Z</time>
      </trkpt>
      <trkpt lat="45.59589" lon="6.61811">
        <ele>2445.3999023438</ele>
        <time>2019-12-30T12:42:57.000Z</time>
      </trkpt>
      <trkpt lat="45.59589" lon="6.61811">
        <ele>2445.1999511719</ele>
        <time>2019-12-30T12:43:02.000Z</time>
      </trkpt>
      <trkpt lat="45.59588" lon="6.61811">
        <ele>2444.6000976562</ele>
        <time>2019-12-30T12:43:08.000Z</time>
      </trkpt>
      <trkpt lat="45.59588" lon="6.61811">
        <ele>2444.1999511719</ele>
        <time>2019-12-30T12:43:09.000Z</time>
      </trkpt>
      <trkpt lat="45.5959" lon="6.6181">
        <ele>2443.8000488281</ele>
        <time>2019-12-30T12:43:12.000Z</time>
      </trkpt>
      <trkpt lat="45.59592" lon="6.61809">
        <ele>2443.8000488281</ele>
        <time>2019-12-30T12:43:13.000Z</time>
      </trkpt>
      <trkpt lat="45.59597" lon="6.61809">
        <ele>2442.8000488281</ele>
        <time>2019-12-30T12:43:18.000Z</time>
      </trkpt>
      <trkpt lat="45.59597" lon="6.61808">
        <ele>2441.6000976562</ele>
        <time>2019-12-30T12:43:20.000Z</time>
      </trkpt>
      <trkpt lat="45.59597" lon="6.61808">
        <ele>2440.8000488281</ele>
        <time>2019-12-30T12:43:28.000Z</time>
      </trkpt>
      <trkpt lat="45.59598" lon="6.61812">
        <ele>2440.6000976562</ele>
        <time>2019-12-30T12:43:34.000Z</time>
      </trkpt>
      <trkpt lat="45.59598" lon="6.61812">
        <ele>2440.1999511719</ele>
        <time>2019-12-30T12:43:35.000Z</time>
      </trkpt>
      <trkpt lat="45.59597" lon="6.61811">
        <ele>2439.3999023438</ele>
        <time>2019-12-30T12:43:38.000Z</time>
      </trkpt>
      <trkpt lat="45.59602" lon="6.61811">
        <ele>2438.8000488281</ele>
        <time>2019-12-30T12:43:40.000Z</time>
      </trkpt>
      <trkpt lat="45.59604" lon="6.6181">
        <ele>2438.1999511719</ele>
        <time>2019-12-30T12:43:41.000Z</time>
      </trkpt>
      <trkpt lat="45.59612" lon="6.61807">
        <ele>2437</ele>
        <time>2019-12-30T12:43:45.000Z</time>
      </trkpt>
      <trkpt lat="45.59614" lon="6.61805">
        <ele>2435.8000488281</ele>
        <time>2019-12-30T12:43:47.000Z</time>
      </trkpt>
      <trkpt lat="45.59613" lon="6.61806">
        <ele>2434.6000976562</ele>
        <time>2019-12-30T12:43:49.000Z</time>
      </trkpt>
      <trkpt lat="45.59614" lon="6.61808">
        <ele>2434.3999023438</ele>
        <time>2019-12-30T12:43:50.000Z</time>
      </trkpt>
      <trkpt lat="45.59614" lon="6.61808">
        <ele>2434</ele>
        <time>2019-12-30T12:43:51.000Z</time>
      </trkpt>
      <trkpt lat="45.5961" lon="6.61812">
        <ele>2433</ele>
        <time>2019-12-30T12:43:53.000Z</time>
      </trkpt>
      <trkpt lat="45.59608" lon="6.61816">
        <ele>2432.1999511719</ele>
        <time>2019-12-30T12:43:55.000Z</time>
      </trkpt>
      <trkpt lat="45.59611" lon="6.61816">
        <ele>2432</ele>
        <time>2019-12-30T12:43:56.000Z</time>
      </trkpt>
      <trkpt lat="45.59614" lon="6.61816">
        <ele>2431.6000976562</ele>
        <time>2019-12-30T12:43:58.000Z</time>
      </trkpt>
      <trkpt lat="45.59617" lon="6.61816">
        <ele>2430.6000976562</ele>
        <time>2019-12-30T12:44:00.000Z</time>
      </trkpt>
      <trkpt lat="45.59618" lon="6.61816">
        <ele>2429.1999511719</ele>
        <time>2019-12-30T12:44:01.000Z</time>
      </trkpt>
      <trkpt lat="45.59619" lon="6.61815">
        <ele>2427.8000488281</ele>
        <time>2019-12-30T12:44:02.000Z</time>
      </trkpt>
      <trkpt lat="45.59614" lon="6.61816">
        <ele>2426.3999023438</ele>
        <time>2019-12-30T12:44:04.000Z</time>
      </trkpt>
      <trkpt lat="45.59615" lon="6.61819">
        <ele>2425.3999023438</ele>
        <time>2019-12-30T12:44:07.000Z</time>
      </trkpt>
      <trkpt lat="45.59618" lon="6.6182">
        <ele>2425.1999511719</ele>
        <time>2019-12-30T12:44:08.000Z</time>
      </trkpt>
      <trkpt lat="45.5962" lon="6.61823">
        <ele>2424.8000488281</ele>
        <time>2019-12-30T12:44:11.000Z</time>
      </trkpt>
      <trkpt lat="45.59622" lon="6.61828">
        <ele>2424</ele>
        <time>2019-12-30T12:44:12.000Z</time>
      </trkpt>
      <trkpt lat="45.59625" lon="6.61829">
        <ele>2421.3999023438</ele>
        <time>2019-12-30T12:44:13.000Z</time>
      </trkpt>
      <trkpt lat="45.59627" lon="6.61831">
        <ele>2419.8000488281</ele>
        <time>2019-12-30T12:44:15.000Z</time>
      </trkpt>
      <trkpt lat="45.59629" lon="6.61835">
        <ele>2418</ele>
        <time>2019-12-30T12:44:17.000Z</time>
      </trkpt>
      <trkpt lat="45.59631" lon="6.61837">
        <ele>2416.1999511719</ele>
        <time>2019-12-30T12:44:18.000Z</time>
      </trkpt>
      <trkpt lat="45.59632" lon="6.61839">
        <ele>2414.3999023438</ele>
        <time>2019-12-30T12:44:19.000Z</time>
      </trkpt>
      <trkpt lat="45.59634" lon="6.6184">
        <ele>2413</ele>
        <time>2019-12-30T12:44:20.000Z</time>
      </trkpt>
      <trkpt lat="45.59635" lon="6.61842">
        <ele>2411.6000976562</ele>
        <time>2019-12-30T12:44:22.000Z</time>
      </trkpt>
      <trkpt lat="45.59635" lon="6.61843">
        <ele>2410</ele>
        <time>2019-12-30T12:44:24.000Z</time>
      </trkpt>
      <trkpt lat="45.59636" lon="6.61843">
        <ele>2408.3999023438</ele>
        <time>2019-12-30T12:44:26.000Z</time>
      </trkpt>
      <trkpt lat="45.59635" lon="6.61846">
        <ele>2407.8000488281</ele>
        <time>2019-12-30T12:44:27.000Z</time>
      </trkpt>
      <trkpt lat="45.59634" lon="6.61848">
        <ele>2407.1999511719</ele>
        <time>2019-12-30T12:44:28.000Z</time>
      </trkpt>
      <trkpt lat="45.59633" lon="6.61848">
        <ele>2406.3999023438</ele>
        <time>2019-12-30T12:44:29.000Z</time>
      </trkpt>
      <trkpt lat="45.59632" lon="6.6185">
        <ele>2405.6000976562</ele>
        <time>2019-12-30T12:44:30.000Z</time>
      </trkpt>
      <trkpt lat="45.59631" lon="6.6185">
        <ele>2404.1999511719</ele>
        <time>2019-12-30T12:44:33.000Z</time>
      </trkpt>
      <trkpt lat="45.59631" lon="6.6185">
        <ele>2403.3999023438</ele>
        <time>2019-12-30T12:44:36.000Z</time>
      </trkpt>
      <trkpt lat="45.59631" lon="6.6185">
        <ele>2403.1999511719</ele>
        <time>2019-12-30T12:44:37.000Z</time>
      </trkpt>
      <trkpt lat="45.59633" lon="6.6185">
        <ele>2402.8000488281</ele>
        <time>2019-12-30T12:44:43.000Z</time>
      </trkpt>
      <trkpt lat="45.59635" lon="6.6185">
        <ele>2402.8000488281</ele>
        <time>2019-12-30T12:44:44.000Z</time>
      </trkpt>
      <trkpt lat="45.59636" lon="6.61851">
        <ele>2402</ele>
        <time>2019-12-30T12:44:48.000Z</time>
      </trkpt>
      <trkpt lat="45.59636" lon="6.61851">
        <ele>2401</ele>
        <time>2019-12-30T12:44:50.000Z</time>
      </trkpt>
      <trkpt lat="45.59635" lon="6.61852">
        <ele>2399.6000976562</ele>
        <time>2019-12-30T12:44:56.000Z</time>
      </trkpt>
      <trkpt lat="45.59634" lon="6.61853">
        <ele>2398.1999511719</ele>
        <time>2019-12-30T12:44:58.000Z</time>
      </trkpt>
      <trkpt lat="45.59634" lon="6.61853">
        <ele>2397.6000976562</ele>
        <time>2019-12-30T12:45:04.000Z</time>
      </trkpt>
      <trkpt lat="45.59634" lon="6.61853">
        <ele>2397.1999511719</ele>
        <time>2019-12-30T12:45:06.000Z</time>
      </trkpt>
      <trkpt lat="45.59634" lon="6.61853">
        <ele>2396.1999511719</ele>
        <time>2019-12-30T12:45:12.000Z</time>
      </trkpt>
      <trkpt lat="45.59634" lon="6.61853">
        <ele>2395.8000488281</ele>
        <time>2019-12-30T12:45:14.000Z</time>
      </trkpt>
      <trkpt lat="45.59637" lon="6.61853">
        <ele>2395.8000488281</ele>
        <time>2019-12-30T12:45:18.000Z</time>
      </trkpt>
      <trkpt lat="45.59641" lon="6.61854">
        <ele>2395.8000488281</ele>
        <time>2019-12-30T12:45:22.000Z</time>
      </trkpt>
      <trkpt lat="45.5964" lon="6.61858">
        <ele>2394.6000976562</ele>
        <time>2019-12-30T12:45:24.000Z</time>
      </trkpt>
      <trkpt lat="45.5964" lon="6.61858">
        <ele>2392.6000976562</ele>
        <time>2019-12-30T12:45:25.000Z</time>
      </trkpt>
      <trkpt lat="45.59639" lon="6.6186">
        <ele>2391.6000976562</ele>
        <time>2019-12-30T12:45:26.000Z</time>
      </trkpt>
      <trkpt lat="45.59638" lon="6.6186">
        <ele>2391.1999511719</ele>
        <time>2019-12-30T12:45:27.000Z</time>
      </trkpt>
      <trkpt lat="45.59642" lon="6.61862">
        <ele>2390.3999023438</ele>
        <time>2019-12-30T12:45:31.000Z</time>
      </trkpt>
      <trkpt lat="45.59647" lon="6.6186">
        <ele>2390</ele>
        <time>2019-12-30T12:45:34.000Z</time>
      </trkpt>
      <trkpt lat="45.59647" lon="6.61863">
        <ele>2388.3999023438</ele>
        <time>2019-12-30T12:45:36.000Z</time>
      </trkpt>
      <trkpt lat="45.59647" lon="6.61869">
        <ele>2386.8000488281</ele>
        <time>2019-12-30T12:45:38.000Z</time>
      </trkpt>
      <trkpt lat="45.59646" lon="6.61875">
        <ele>2385.1999511719</ele>
        <time>2019-12-30T12:45:40.000Z</time>
      </trkpt>
      <trkpt lat="45.59646" lon="6.6188">
        <ele>2384.1999511719</ele>
        <time>2019-12-30T12:45:42.000Z</time>
      </trkpt>
      <trkpt lat="45.59646" lon="6.61881">
        <ele>2384</ele>
        <time>2019-12-30T12:45:43.000Z</time>
      </trkpt>
      <trkpt lat="45.59645" lon="6.61883">
        <ele>2383.8000488281</ele>
        <time>2019-12-30T12:45:44.000Z</time>
      </trkpt>
      <trkpt lat="45.59643" lon="6.61893">
        <ele>2383.1999511719</ele>
        <time>2019-12-30T12:45:48.000Z</time>
      </trkpt>
      <trkpt lat="45.59642" lon="6.61895">
        <ele>2382</ele>
        <time>2019-12-30T12:45:49.000Z</time>
      </trkpt>
      <trkpt lat="45.59643" lon="6.61898">
        <ele>2381.3999023438</ele>
        <time>2019-12-30T12:45:50.000Z</time>
      </trkpt>
      <trkpt lat="45.59645" lon="6.61901">
        <ele>2381</ele>
        <time>2019-12-30T12:45:51.000Z</time>
      </trkpt>
      <trkpt lat="45.59647" lon="6.61904">
        <ele>2380.3999023438</ele>
        <time>2019-12-30T12:45:52.000Z</time>
      </trkpt>
      <trkpt lat="45.59649" lon="6.61905">
        <ele>2379.8000488281</ele>
        <time>2019-12-30T12:45:53.000Z</time>
      </trkpt>
      <trkpt lat="45.59651" lon="6.61908">
        <ele>2379.3999023438</ele>
        <time>2019-12-30T12:45:54.000Z</time>
      </trkpt>
      <trkpt lat="45.59654" lon="6.61911">
        <ele>2378.3999023438</ele>
        <time>2019-12-30T12:45:55.000Z</time>
      </trkpt>
      <trkpt lat="45.59657" lon="6.61913">
        <ele>2376.8000488281</ele>
        <time>2019-12-30T12:45:56.000Z</time>
      </trkpt>
      <trkpt lat="45.59661" lon="6.61914">
        <ele>2375</ele>
        <time>2019-12-30T12:45:57.000Z</time>
      </trkpt>
      <trkpt lat="45.59663" lon="6.61915">
        <ele>2373.8000488281</ele>
        <time>2019-12-30T12:45:58.000Z</time>
      </trkpt>
      <trkpt lat="45.59673" lon="6.61917">
        <ele>2372</ele>
        <time>2019-12-30T12:46:00.000Z</time>
      </trkpt>
      <trkpt lat="45.59676" lon="6.6192">
        <ele>2370.3999023438</ele>
        <time>2019-12-30T12:46:01.000Z</time>
      </trkpt>
      <trkpt lat="45.59678" lon="6.61922">
        <ele>2368.1999511719</ele>
        <time>2019-12-30T12:46:02.000Z</time>
      </trkpt>
      <trkpt lat="45.59681" lon="6.61924">
        <ele>2366.6000976562</ele>
        <time>2019-12-30T12:46:03.000Z</time>
      </trkpt>
      <trkpt lat="45.59683" lon="6.6192">
        <ele>2365.6000976562</ele>
        <time>2019-12-30T12:46:04.000Z</time>
      </trkpt>
      <trkpt lat="45.59689" lon="6.6192">
        <ele>2363.3999023438</ele>
        <time>2019-12-30T12:46:06.000Z</time>
      </trkpt>
      <trkpt lat="45.59694" lon="6.61918">
        <ele>2361.6000976562</ele>
        <time>2019-12-30T12:46:07.000Z</time>
      </trkpt>
      <trkpt lat="45.597" lon="6.61918">
        <ele>2359.3999023438</ele>
        <time>2019-12-30T12:46:08.000Z</time>
      </trkpt>
      <trkpt lat="45.59705" lon="6.61916">
        <ele>2357.6000976562</ele>
        <time>2019-12-30T12:46:09.000Z</time>
      </trkpt>
      <trkpt lat="45.59709" lon="6.61914">
        <ele>2356.3999023438</ele>
        <time>2019-12-30T12:46:10.000Z</time>
      </trkpt>
      <trkpt lat="45.59713" lon="6.61912">
        <ele>2355.6000976562</ele>
        <time>2019-12-30T12:46:11.000Z</time>
      </trkpt>
      <trkpt lat="45.59718" lon="6.61912">
        <ele>2354.8000488281</ele>
        <time>2019-12-30T12:46:12.000Z</time>
      </trkpt>
      <trkpt lat="45.59723" lon="6.61912">
        <ele>2351.6000976562</ele>
        <time>2019-12-30T12:46:13.000Z</time>
      </trkpt>
      <trkpt lat="45.59728" lon="6.61912">
        <ele>2349.8000488281</ele>
        <time>2019-12-30T12:46:14.000Z</time>
      </trkpt>
      <trkpt lat="45.59733" lon="6.61908">
        <ele>2348.1999511719</ele>
        <time>2019-12-30T12:46:15.000Z</time>
      </trkpt>
      <trkpt lat="45.59737" lon="6.61904">
        <ele>2347</ele>
        <time>2019-12-30T12:46:16.000Z</time>
      </trkpt>
      <trkpt lat="45.59742" lon="6.61902">
        <ele>2346</ele>
        <time>2019-12-30T12:46:17.000Z</time>
      </trkpt>
      <trkpt lat="45.59747" lon="6.619">
        <ele>2344.1999511719</ele>
        <time>2019-12-30T12:46:18.000Z</time>
      </trkpt>
      <trkpt lat="45.59752" lon="6.619">
        <ele>2342</ele>
        <time>2019-12-30T12:46:19.000Z</time>
      </trkpt>
      <trkpt lat="45.59756" lon="6.61903">
        <ele>2339.3999023438</ele>
        <time>2019-12-30T12:46:20.000Z</time>
      </trkpt>
      <trkpt lat="45.5976" lon="6.61903">
        <ele>2337.1999511719</ele>
        <time>2019-12-30T12:46:21.000Z</time>
      </trkpt>
      <trkpt lat="45.59764" lon="6.61904">
        <ele>2335.8000488281</ele>
        <time>2019-12-30T12:46:22.000Z</time>
      </trkpt>
      <trkpt lat="45.59768" lon="6.61904">
        <ele>2334.8000488281</ele>
        <time>2019-12-30T12:46:23.000Z</time>
      </trkpt>
      <trkpt lat="45.59772" lon="6.61904">
        <ele>2333.8000488281</ele>
        <time>2019-12-30T12:46:24.000Z</time>
      </trkpt>
      <trkpt lat="45.59777" lon="6.61906">
        <ele>2331.8000488281</ele>
        <time>2019-12-30T12:46:25.000Z</time>
      </trkpt>
      <trkpt lat="45.59782" lon="6.61907">
        <ele>2329</ele>
        <time>2019-12-30T12:46:26.000Z</time>
      </trkpt>
      <trkpt lat="45.59786" lon="6.61906">
        <ele>2326.8000488281</ele>
        <time>2019-12-30T12:46:27.000Z</time>
      </trkpt>
      <trkpt lat="45.59789" lon="6.61905">
        <ele>2325.1999511719</ele>
        <time>2019-12-30T12:46:28.000Z</time>
      </trkpt>
      <trkpt lat="45.59797" lon="6.61903">
        <ele>2322.8000488281</ele>
        <time>2019-12-30T12:46:30.000Z</time>
      </trkpt>
      <trkpt lat="45.598" lon="6.61906">
        <ele>2320.6000976562</ele>
        <time>2019-12-30T12:46:31.000Z</time>
      </trkpt>
      <trkpt lat="45.59805" lon="6.61909">
        <ele>2318</ele>
        <time>2019-12-30T12:46:32.000Z</time>
      </trkpt>
      <trkpt lat="45.59807" lon="6.61909">
        <ele>2315.1999511719</ele>
        <time>2019-12-30T12:46:33.000Z</time>
      </trkpt>
      <trkpt lat="45.59809" lon="6.61909">
        <ele>2313.1999511719</ele>
        <time>2019-12-30T12:46:34.000Z</time>
      </trkpt>
      <trkpt lat="45.59811" lon="6.6191">
        <ele>2311.8000488281</ele>
        <time>2019-12-30T12:46:35.000Z</time>
      </trkpt>
      <trkpt lat="45.59812" lon="6.6191">
        <ele>2310.6000976562</ele>
        <time>2019-12-30T12:46:36.000Z</time>
      </trkpt>
      <trkpt lat="45.59813" lon="6.6191">
        <ele>2307.1999511719</ele>
        <time>2019-12-30T12:46:37.000Z</time>
      </trkpt>
      <trkpt lat="45.59814" lon="6.6191">
        <ele>2305.6000976562</ele>
        <time>2019-12-30T12:46:38.000Z</time>
      </trkpt>
      <trkpt lat="45.59815" lon="6.6191">
        <ele>2304.6000976562</ele>
        <time>2019-12-30T12:46:39.000Z</time>
      </trkpt>
      <trkpt lat="45.59816" lon="6.61911">
        <ele>2303.3999023438</ele>
        <time>2019-12-30T12:46:41.000Z</time>
      </trkpt>
      <trkpt lat="45.59816" lon="6.61911">
        <ele>2303.1999511719</ele>
        <time>2019-12-30T12:46:42.000Z</time>
      </trkpt>
      <trkpt lat="45.59816" lon="6.61911">
        <ele>2302.6000976562</ele>
        <time>2019-12-30T12:46:44.000Z</time>
      </trkpt>
      <trkpt lat="45.59811" lon="6.61917">
        <ele>2302.1999511719</ele>
        <time>2019-12-30T12:46:45.000Z</time>
      </trkpt>
      <trkpt lat="45.59808" lon="6.61927">
        <ele>2300.8000488281</ele>
        <time>2019-12-30T12:46:47.000Z</time>
      </trkpt>
      <trkpt lat="45.59811" lon="6.61927">
        <ele>2300.1999511719</ele>
        <time>2019-12-30T12:46:48.000Z</time>
      </trkpt>
      <trkpt lat="45.59815" lon="6.61927">
        <ele>2299.6000976562</ele>
        <time>2019-12-30T12:46:49.000Z</time>
      </trkpt>
      <trkpt lat="45.59818" lon="6.61929">
        <ele>2299.1999511719</ele>
        <time>2019-12-30T12:46:50.000Z</time>
      </trkpt>
      <trkpt lat="45.5982" lon="6.61932">
        <ele>2298.1999511719</ele>
        <time>2019-12-30T12:46:51.000Z</time>
      </trkpt>
      <trkpt lat="45.59822" lon="6.61936">
        <ele>2296.3999023438</ele>
        <time>2019-12-30T12:46:52.000Z</time>
      </trkpt>
      <trkpt lat="45.59827" lon="6.6194">
        <ele>2293.8000488281</ele>
        <time>2019-12-30T12:46:53.000Z</time>
      </trkpt>
      <trkpt lat="45.59833" lon="6.61939">
        <ele>2291.3999023438</ele>
        <time>2019-12-30T12:46:54.000Z</time>
      </trkpt>
      <trkpt lat="45.59837" lon="6.6194">
        <ele>2289.8000488281</ele>
        <time>2019-12-30T12:46:55.000Z</time>
      </trkpt>
      <trkpt lat="45.59842" lon="6.61938">
        <ele>2288.6000976562</ele>
        <time>2019-12-30T12:46:56.000Z</time>
      </trkpt>
      <trkpt lat="45.59848" lon="6.61937">
        <ele>2287.1999511719</ele>
        <time>2019-12-30T12:46:57.000Z</time>
      </trkpt>
      <trkpt lat="45.59854" lon="6.61937">
        <ele>2284.6000976562</ele>
        <time>2019-12-30T12:46:58.000Z</time>
      </trkpt>
      <trkpt lat="45.59859" lon="6.61938">
        <ele>2281.1999511719</ele>
        <time>2019-12-30T12:46:59.000Z</time>
      </trkpt>
      <trkpt lat="45.59866" lon="6.61938">
        <ele>2277.6000976562</ele>
        <time>2019-12-30T12:47:00.000Z</time>
      </trkpt>
      <trkpt lat="45.59873" lon="6.6194">
        <ele>2271.8000488281</ele>
        <time>2019-12-30T12:47:01.000Z</time>
      </trkpt>
      <trkpt lat="45.59878" lon="6.61941">
        <ele>2269.8000488281</ele>
        <time>2019-12-30T12:47:02.000Z</time>
      </trkpt>
      <trkpt lat="45.59882" lon="6.61941">
        <ele>2268.1999511719</ele>
        <time>2019-12-30T12:47:03.000Z</time>
      </trkpt>
      <trkpt lat="45.59886" lon="6.6194">
        <ele>2266.1999511719</ele>
        <time>2019-12-30T12:47:04.000Z</time>
      </trkpt>
      <trkpt lat="45.59889" lon="6.6194">
        <ele>2263.6000976562</ele>
        <time>2019-12-30T12:47:05.000Z</time>
      </trkpt>
      <trkpt lat="45.59891" lon="6.61941">
        <ele>2260.6000976562</ele>
        <time>2019-12-30T12:47:06.000Z</time>
      </trkpt>
      <trkpt lat="45.59892" lon="6.61942">
        <ele>2258</ele>
        <time>2019-12-30T12:47:07.000Z</time>
      </trkpt>
      <trkpt lat="45.59894" lon="6.61943">
        <ele>2256</ele>
        <time>2019-12-30T12:47:08.000Z</time>
      </trkpt>
      <trkpt lat="45.59895" lon="6.61944">
        <ele>2254.6000976562</ele>
        <time>2019-12-30T12:47:09.000Z</time>
      </trkpt>
      <trkpt lat="45.59897" lon="6.61945">
        <ele>2253.1999511719</ele>
        <time>2019-12-30T12:47:11.000Z</time>
      </trkpt>
      <trkpt lat="45.59897" lon="6.61945">
        <ele>2252.6000976562</ele>
        <time>2019-12-30T12:47:13.000Z</time>
      </trkpt>
      <trkpt lat="45.59897" lon="6.61945">
        <ele>2252.3999023438</ele>
        <time>2019-12-30T12:47:25.000Z</time>
      </trkpt>
      <trkpt lat="45.59897" lon="6.61945">
        <ele>2252.3999023438</ele>
        <time>2019-12-30T12:47:37.000Z</time>
      </trkpt>
      <trkpt lat="45.59897" lon="6.61945">
        <ele>2252.6000976562</ele>
        <time>2019-12-30T12:47:49.000Z</time>
      </trkpt>
      <trkpt lat="45.59897" lon="6.61946">
        <ele>2252.6000976562</ele>
        <time>2019-12-30T12:47:58.000Z</time>
      </trkpt>
      <trkpt lat="45.59897" lon="6.61946">
        <ele>2252.3999023438</ele>
        <time>2019-12-30T12:48:11.000Z</time>
      </trkpt>
      <trkpt lat="45.59897" lon="6.61946">
        <ele>2252.3999023438</ele>
        <time>2019-12-30T12:48:26.000Z</time>
      </trkpt>
      <trkpt lat="45.59898" lon="6.61946">
        <ele>2252.1999511719</ele>
        <time>2019-12-30T12:48:35.000Z</time>
      </trkpt>
      <trkpt lat="45.59898" lon="6.61946">
        <ele>2252.1999511719</ele>
        <time>2019-12-30T12:48:37.000Z</time>
      </trkpt>
      <trkpt lat="45.59898" lon="6.61946">
        <ele>2252.1999511719</ele>
        <time>2019-12-30T12:48:39.000Z</time>
      </trkpt>
      <trkpt lat="45.59898" lon="6.61946">
        <ele>2252.1999511719</ele>
        <time>2019-12-30T12:48:49.000Z</time>
      </trkpt>
      <trkpt lat="45.59905" lon="6.61944">
        <ele>2252.3999023438</ele>
        <time>2019-12-30T12:48:56.000Z</time>
      </trkpt>
      <trkpt lat="45.59914" lon="6.6194">
        <ele>2252.3999023438</ele>
        <time>2019-12-30T12:48:58.000Z</time>
      </trkpt>
      <trkpt lat="45.59919" lon="6.61939">
        <ele>2252.1999511719</ele>
        <time>2019-12-30T12:48:59.000Z</time>
      </trkpt>
      <trkpt lat="45.59924" lon="6.61943">
        <ele>2250.6000976562</ele>
        <time>2019-12-30T12:49:01.000Z</time>
      </trkpt>
      <trkpt lat="45.59926" lon="6.61946">
        <ele>2249.1999511719</ele>
        <time>2019-12-30T12:49:02.000Z</time>
      </trkpt>
      <trkpt lat="45.59929" lon="6.61949">
        <ele>2247.3999023438</ele>
        <time>2019-12-30T12:49:03.000Z</time>
      </trkpt>
      <trkpt lat="45.5993" lon="6.61954">
        <ele>2245.8000488281</ele>
        <time>2019-12-30T12:49:04.000Z</time>
      </trkpt>
      <trkpt lat="45.59931" lon="6.61958">
        <ele>2244.6000976562</ele>
        <time>2019-12-30T12:49:05.000Z</time>
      </trkpt>
      <trkpt lat="45.59933" lon="6.61961">
        <ele>2243</ele>
        <time>2019-12-30T12:49:06.000Z</time>
      </trkpt>
      <trkpt lat="45.59937" lon="6.61962">
        <ele>2241</ele>
        <time>2019-12-30T12:49:07.000Z</time>
      </trkpt>
      <trkpt lat="45.5994" lon="6.61966">
        <ele>2239.3999023438</ele>
        <time>2019-12-30T12:49:08.000Z</time>
      </trkpt>
      <trkpt lat="45.59943" lon="6.61971">
        <ele>2238</ele>
        <time>2019-12-30T12:49:09.000Z</time>
      </trkpt>
      <trkpt lat="45.59945" lon="6.61976">
        <ele>2236.1999511719</ele>
        <time>2019-12-30T12:49:10.000Z</time>
      </trkpt>
      <trkpt lat="45.5995" lon="6.61979">
        <ele>2233.8000488281</ele>
        <time>2019-12-30T12:49:11.000Z</time>
      </trkpt>
      <trkpt lat="45.59953" lon="6.61983">
        <ele>2231.6000976562</ele>
        <time>2019-12-30T12:49:12.000Z</time>
      </trkpt>
      <trkpt lat="45.59958" lon="6.61985">
        <ele>2230.1999511719</ele>
        <time>2019-12-30T12:49:13.000Z</time>
      </trkpt>
      <trkpt lat="45.59964" lon="6.61984">
        <ele>2228.6000976562</ele>
        <time>2019-12-30T12:49:14.000Z</time>
      </trkpt>
      <trkpt lat="45.5997" lon="6.61985">
        <ele>2226.6000976562</ele>
        <time>2019-12-30T12:49:15.000Z</time>
      </trkpt>
      <trkpt lat="45.59976" lon="6.61988">
        <ele>2224.3999023438</ele>
        <time>2019-12-30T12:49:16.000Z</time>
      </trkpt>
      <trkpt lat="45.59982" lon="6.61991">
        <ele>2222.3999023438</ele>
        <time>2019-12-30T12:49:17.000Z</time>
      </trkpt>
      <trkpt lat="45.59987" lon="6.61992">
        <ele>2220.1999511719</ele>
        <time>2019-12-30T12:49:18.000Z</time>
      </trkpt>
      <trkpt lat="45.59993" lon="6.61993">
        <ele>2217.3999023438</ele>
        <time>2019-12-30T12:49:19.000Z</time>
      </trkpt>
      <trkpt lat="45.6" lon="6.61997">
        <ele>2215</ele>
        <time>2019-12-30T12:49:20.000Z</time>
      </trkpt>
      <trkpt lat="45.60007" lon="6.62002">
        <ele>2213.3999023438</ele>
        <time>2019-12-30T12:49:21.000Z</time>
      </trkpt>
      <trkpt lat="45.60014" lon="6.62004">
        <ele>2211.6000976562</ele>
        <time>2019-12-30T12:49:22.000Z</time>
      </trkpt>
      <trkpt lat="45.60023" lon="6.62005">
        <ele>2208.8000488281</ele>
        <time>2019-12-30T12:49:23.000Z</time>
      </trkpt>
      <trkpt lat="45.60031" lon="6.62004">
        <ele>2206.3999023438</ele>
        <time>2019-12-30T12:49:24.000Z</time>
      </trkpt>
      <trkpt lat="45.6004" lon="6.62003">
        <ele>2203.8000488281</ele>
        <time>2019-12-30T12:49:25.000Z</time>
      </trkpt>
      <trkpt lat="45.60048" lon="6.62004">
        <ele>2201.3999023438</ele>
        <time>2019-12-30T12:49:26.000Z</time>
      </trkpt>
      <trkpt lat="45.60055" lon="6.62002">
        <ele>2198.6000976562</ele>
        <time>2019-12-30T12:49:27.000Z</time>
      </trkpt>
      <trkpt lat="45.60063" lon="6.61999">
        <ele>2196.3999023438</ele>
        <time>2019-12-30T12:49:28.000Z</time>
      </trkpt>
      <trkpt lat="45.6007" lon="6.61997">
        <ele>2195</ele>
        <time>2019-12-30T12:49:29.000Z</time>
      </trkpt>
      <trkpt lat="45.60078" lon="6.61999">
        <ele>2193.6000976562</ele>
        <time>2019-12-30T12:49:30.000Z</time>
      </trkpt>
      <trkpt lat="45.60085" lon="6.61997">
        <ele>2191.3999023438</ele>
        <time>2019-12-30T12:49:31.000Z</time>
      </trkpt>
      <trkpt lat="45.60092" lon="6.61995">
        <ele>2188.8000488281</ele>
        <time>2019-12-30T12:49:32.000Z</time>
      </trkpt>
      <trkpt lat="45.60101" lon="6.61998">
        <ele>2187</ele>
        <time>2019-12-30T12:49:33.000Z</time>
      </trkpt>
      <trkpt lat="45.60108" lon="6.61998">
        <ele>2185.3999023438</ele>
        <time>2019-12-30T12:49:34.000Z</time>
      </trkpt>
      <trkpt lat="45.60117" lon="6.61998">
        <ele>2183.3999023438</ele>
        <time>2019-12-30T12:49:35.000Z</time>
      </trkpt>
      <trkpt lat="45.60127" lon="6.62">
        <ele>2181.3999023438</ele>
        <time>2019-12-30T12:49:36.000Z</time>
      </trkpt>
      <trkpt lat="45.60136" lon="6.62005">
        <ele>2179.8000488281</ele>
        <time>2019-12-30T12:49:37.000Z</time>
      </trkpt>
      <trkpt lat="45.60144" lon="6.6201">
        <ele>2178.1999511719</ele>
        <time>2019-12-30T12:49:38.000Z</time>
      </trkpt>
      <trkpt lat="45.60151" lon="6.62016">
        <ele>2176.1999511719</ele>
        <time>2019-12-30T12:49:39.000Z</time>
      </trkpt>
      <trkpt lat="45.60158" lon="6.62021">
        <ele>2174.1999511719</ele>
        <time>2019-12-30T12:49:40.000Z</time>
      </trkpt>
      <trkpt lat="45.60165" lon="6.62023">
        <ele>2172.6000976562</ele>
        <time>2019-12-30T12:49:41.000Z</time>
      </trkpt>
      <trkpt lat="45.6017" lon="6.62021">
        <ele>2171.3999023438</ele>
        <time>2019-12-30T12:49:42.000Z</time>
      </trkpt>
      <trkpt lat="45.60174" lon="6.62016">
        <ele>2170.1999511719</ele>
        <time>2019-12-30T12:49:43.000Z</time>
      </trkpt>
      <trkpt lat="45.60177" lon="6.62011">
        <ele>2168.6000976562</ele>
        <time>2019-12-30T12:49:44.000Z</time>
      </trkpt>
      <trkpt lat="45.60179" lon="6.62007">
        <ele>2166.8000488281</ele>
        <time>2019-12-30T12:49:45.000Z</time>
      </trkpt>
      <trkpt lat="45.60181" lon="6.62003">
        <ele>2164.8000488281</ele>
        <time>2019-12-30T12:49:46.000Z</time>
      </trkpt>
      <trkpt lat="45.60183" lon="6.61998">
        <ele>2163.1999511719</ele>
        <time>2019-12-30T12:49:47.000Z</time>
      </trkpt>
      <trkpt lat="45.60185" lon="6.61995">
        <ele>2161.6000976562</ele>
        <time>2019-12-30T12:49:48.000Z</time>
      </trkpt>
      <trkpt lat="45.6019" lon="6.61996">
        <ele>2159.6000976562</ele>
        <time>2019-12-30T12:49:49.000Z</time>
      </trkpt>
      <trkpt lat="45.60195" lon="6.61998">
        <ele>2158.3999023438</ele>
        <time>2019-12-30T12:49:50.000Z</time>
      </trkpt>
      <trkpt lat="45.60199" lon="6.61996">
        <ele>2157</ele>
        <time>2019-12-30T12:49:51.000Z</time>
      </trkpt>
      <trkpt lat="45.60204" lon="6.61995">
        <ele>2156</ele>
        <time>2019-12-30T12:49:52.000Z</time>
      </trkpt>
      <trkpt lat="45.60208" lon="6.61996">
        <ele>2155.3999023438</ele>
        <time>2019-12-30T12:49:53.000Z</time>
      </trkpt>
      <trkpt lat="45.60212" lon="6.61995">
        <ele>2154.1999511719</ele>
        <time>2019-12-30T12:49:54.000Z</time>
      </trkpt>
      <trkpt lat="45.60215" lon="6.61992">
        <ele>2152.1999511719</ele>
        <time>2019-12-30T12:49:55.000Z</time>
      </trkpt>
      <trkpt lat="45.60217" lon="6.61985">
        <ele>2150.3999023438</ele>
        <time>2019-12-30T12:49:56.000Z</time>
      </trkpt>
      <trkpt lat="45.60218" lon="6.61979">
        <ele>2148.8000488281</ele>
        <time>2019-12-30T12:49:57.000Z</time>
      </trkpt>
      <trkpt lat="45.60218" lon="6.61972">
        <ele>2147.3999023438</ele>
        <time>2019-12-30T12:49:58.000Z</time>
      </trkpt>
      <trkpt lat="45.60219" lon="6.61966">
        <ele>2145.8000488281</ele>
        <time>2019-12-30T12:49:59.000Z</time>
      </trkpt>
      <trkpt lat="45.60219" lon="6.61962">
        <ele>2144</ele>
        <time>2019-12-30T12:50:00.000Z</time>
      </trkpt>
      <trkpt lat="45.6022" lon="6.61957">
        <ele>2142.6000976562</ele>
        <time>2019-12-30T12:50:01.000Z</time>
      </trkpt>
      <trkpt lat="45.6022" lon="6.61953">
        <ele>2141.3999023438</ele>
        <time>2019-12-30T12:50:02.000Z</time>
      </trkpt>
      <trkpt lat="45.60221" lon="6.61948">
        <ele>2140.3999023438</ele>
        <time>2019-12-30T12:50:03.000Z</time>
      </trkpt>
      <trkpt lat="45.60225" lon="6.61941">
        <ele>2138.8000488281</ele>
        <time>2019-12-30T12:50:05.000Z</time>
      </trkpt>
      <trkpt lat="45.60232" lon="6.61941">
        <ele>2137.3999023438</ele>
        <time>2019-12-30T12:50:07.000Z</time>
      </trkpt>
      <trkpt lat="45.60242" lon="6.61943">
        <ele>2135.1999511719</ele>
        <time>2019-12-30T12:50:09.000Z</time>
      </trkpt>
      <trkpt lat="45.60247" lon="6.6194">
        <ele>2134</ele>
        <time>2019-12-30T12:50:10.000Z</time>
      </trkpt>
      <trkpt lat="45.60252" lon="6.61939">
        <ele>2133</ele>
        <time>2019-12-30T12:50:11.000Z</time>
      </trkpt>
      <trkpt lat="45.60258" lon="6.61941">
        <ele>2132.1999511719</ele>
        <time>2019-12-30T12:50:12.000Z</time>
      </trkpt>
      <trkpt lat="45.60264" lon="6.61942">
        <ele>2128.6000976562</ele>
        <time>2019-12-30T12:50:13.000Z</time>
      </trkpt>
      <trkpt lat="45.6027" lon="6.61941">
        <ele>2126.6000976562</ele>
        <time>2019-12-30T12:50:14.000Z</time>
      </trkpt>
      <trkpt lat="45.60276" lon="6.6194">
        <ele>2125</ele>
        <time>2019-12-30T12:50:15.000Z</time>
      </trkpt>
      <trkpt lat="45.60284" lon="6.61942">
        <ele>2123.6000976562</ele>
        <time>2019-12-30T12:50:16.000Z</time>
      </trkpt>
      <trkpt lat="45.60293" lon="6.61943">
        <ele>2121.6000976562</ele>
        <time>2019-12-30T12:50:17.000Z</time>
      </trkpt>
      <trkpt lat="45.60302" lon="6.61943">
        <ele>2119.3999023438</ele>
        <time>2019-12-30T12:50:18.000Z</time>
      </trkpt>
      <trkpt lat="45.6031" lon="6.61943">
        <ele>2117.3999023438</ele>
        <time>2019-12-30T12:50:19.000Z</time>
      </trkpt>
      <trkpt lat="45.60319" lon="6.61943">
        <ele>2115.3999023438</ele>
        <time>2019-12-30T12:50:20.000Z</time>
      </trkpt>
      <trkpt lat="45.60327" lon="6.61941">
        <ele>2113.1999511719</ele>
        <time>2019-12-30T12:50:21.000Z</time>
      </trkpt>
      <trkpt lat="45.60335" lon="6.6194">
        <ele>2110.8000488281</ele>
        <time>2019-12-30T12:50:22.000Z</time>
      </trkpt>
      <trkpt lat="45.60344" lon="6.6194">
        <ele>2108.8000488281</ele>
        <time>2019-12-30T12:50:23.000Z</time>
      </trkpt>
      <trkpt lat="45.60351" lon="6.61939">
        <ele>2106.8000488281</ele>
        <time>2019-12-30T12:50:24.000Z</time>
      </trkpt>
      <trkpt lat="45.60359" lon="6.61938">
        <ele>2105.3999023438</ele>
        <time>2019-12-30T12:50:25.000Z</time>
      </trkpt>
      <trkpt lat="45.60366" lon="6.61937">
        <ele>2104</ele>
        <time>2019-12-30T12:50:26.000Z</time>
      </trkpt>
      <trkpt lat="45.60372" lon="6.61934">
        <ele>2102.6000976562</ele>
        <time>2019-12-30T12:50:27.000Z</time>
      </trkpt>
      <trkpt lat="45.60378" lon="6.6193">
        <ele>2101.1999511719</ele>
        <time>2019-12-30T12:50:28.000Z</time>
      </trkpt>
      <trkpt lat="45.60384" lon="6.61927">
        <ele>2099.6000976562</ele>
        <time>2019-12-30T12:50:29.000Z</time>
      </trkpt>
      <trkpt lat="45.60387" lon="6.61925">
        <ele>2098.1999511719</ele>
        <time>2019-12-30T12:50:30.000Z</time>
      </trkpt>
      <trkpt lat="45.60389" lon="6.61924">
        <ele>2097</ele>
        <time>2019-12-30T12:50:31.000Z</time>
      </trkpt>
      <trkpt lat="45.6039" lon="6.61924">
        <ele>2096</ele>
        <time>2019-12-30T12:50:32.000Z</time>
      </trkpt>
      <trkpt lat="45.6039" lon="6.61923">
        <ele>2094.6000976562</ele>
        <time>2019-12-30T12:50:34.000Z</time>
      </trkpt>
      <trkpt lat="45.6039" lon="6.61923">
        <ele>2094</ele>
        <time>2019-12-30T12:50:37.000Z</time>
      </trkpt>
      <trkpt lat="45.6039" lon="6.61923">
        <ele>2093.8000488281</ele>
        <time>2019-12-30T12:50:43.000Z</time>
      </trkpt>
      <trkpt lat="45.6039" lon="6.61923">
        <ele>2093.8000488281</ele>
        <time>2019-12-30T12:50:49.000Z</time>
      </trkpt>
      <trkpt lat="45.6039" lon="6.61923">
        <ele>2093.8000488281</ele>
        <time>2019-12-30T12:51:03.000Z</time>
      </trkpt>
      <trkpt lat="45.60391" lon="6.61924">
        <ele>2093.8000488281</ele>
        <time>2019-12-30T12:51:15.000Z</time>
      </trkpt>
      <trkpt lat="45.60391" lon="6.61924">
        <ele>2093.8000488281</ele>
        <time>2019-12-30T12:51:29.000Z</time>
      </trkpt>
      <trkpt lat="45.60391" lon="6.61924">
        <ele>2093.8000488281</ele>
        <time>2019-12-30T12:51:46.000Z</time>
      </trkpt>
      <trkpt lat="45.60392" lon="6.61923">
        <ele>2093.6000976562</ele>
        <time>2019-12-30T12:51:55.000Z</time>
      </trkpt>
      <trkpt lat="45.60392" lon="6.61923">
        <ele>2093.6000976562</ele>
        <time>2019-12-30T12:51:57.000Z</time>
      </trkpt>
      <trkpt lat="45.60392" lon="6.61923">
        <ele>2093.6000976562</ele>
        <time>2019-12-30T12:52:12.000Z</time>
      </trkpt>
      <trkpt lat="45.60392" lon="6.61923">
        <ele>2093.1999511719</ele>
        <time>2019-12-30T12:52:23.000Z</time>
      </trkpt>
      <trkpt lat="45.60395" lon="6.61921">
        <ele>2093.6000976562</ele>
        <time>2019-12-30T12:52:33.000Z</time>
      </trkpt>
      <trkpt lat="45.60395" lon="6.61921">
        <ele>2094</ele>
        <time>2019-12-30T12:52:44.000Z</time>
      </trkpt>
      <trkpt lat="45.60395" lon="6.61921">
        <ele>2093.6000976562</ele>
        <time>2019-12-30T12:52:54.000Z</time>
      </trkpt>
      <trkpt lat="45.60398" lon="6.61921">
        <ele>2093.6000976562</ele>
        <time>2019-12-30T12:52:58.000Z</time>
      </trkpt>
      <trkpt lat="45.60398" lon="6.61921">
        <ele>2093.6000976562</ele>
        <time>2019-12-30T12:53:10.000Z</time>
      </trkpt>
      <trkpt lat="45.60398" lon="6.61921">
        <ele>2093.1999511719</ele>
        <time>2019-12-30T12:53:19.000Z</time>
      </trkpt>
      <trkpt lat="45.60398" lon="6.61921">
        <ele>2093.3999023438</ele>
        <time>2019-12-30T12:53:34.000Z</time>
      </trkpt>
      <trkpt lat="45.604" lon="6.61918">
        <ele>2093.6000976562</ele>
        <time>2019-12-30T12:53:49.000Z</time>
      </trkpt>
      <trkpt lat="45.604" lon="6.61918">
        <ele>2093.6000976562</ele>
        <time>2019-12-30T12:54:02.000Z</time>
      </trkpt>
      <trkpt lat="45.60401" lon="6.61916">
        <ele>2093.6000976562</ele>
        <time>2019-12-30T12:54:21.000Z</time>
      </trkpt>
      <trkpt lat="45.60401" lon="6.61916">
        <ele>2093.6000976562</ele>
        <time>2019-12-30T12:54:36.000Z</time>
      </trkpt>
      <trkpt lat="45.60401" lon="6.61916">
        <ele>2093.3999023438</ele>
        <time>2019-12-30T12:54:52.000Z</time>
      </trkpt>
      <trkpt lat="45.60403" lon="6.61916">
        <ele>2093.6000976562</ele>
        <time>2019-12-30T12:55:07.000Z</time>
      </trkpt>
      <trkpt lat="45.60403" lon="6.61916">
        <ele>2093.3999023438</ele>
        <time>2019-12-30T12:55:22.000Z</time>
      </trkpt>
      <trkpt lat="45.60403" lon="6.61916">
        <ele>2093.3999023438</ele>
        <time>2019-12-30T12:55:33.000Z</time>
      </trkpt>
      <trkpt lat="45.60404" lon="6.61916">
        <ele>2093.3999023438</ele>
        <time>2019-12-30T12:55:47.000Z</time>
      </trkpt>
      <trkpt lat="45.60404" lon="6.61916">
        <ele>2093.3999023438</ele>
        <time>2019-12-30T12:56:03.000Z</time>
      </trkpt>
      <trkpt lat="45.60407" lon="6.61916">
        <ele>2093.3999023438</ele>
        <time>2019-12-30T12:56:19.000Z</time>
      </trkpt>
      <trkpt lat="45.60407" lon="6.61916">
        <ele>2093.3999023438</ele>
        <time>2019-12-30T12:56:32.000Z</time>
      </trkpt>
      <trkpt lat="45.60407" lon="6.61916">
        <ele>2093.1999511719</ele>
        <time>2019-12-30T12:56:45.000Z</time>
      </trkpt>
      <trkpt lat="45.60408" lon="6.61915">
        <ele>2093.3999023438</ele>
        <time>2019-12-30T12:57:02.000Z</time>
      </trkpt>
      <trkpt lat="45.60408" lon="6.61915">
        <ele>2093</ele>
        <time>2019-12-30T12:57:23.000Z</time>
      </trkpt>
      <trkpt lat="45.60408" lon="6.61915">
        <ele>2092.6000976562</ele>
        <time>2019-12-30T12:57:26.000Z</time>
      </trkpt>
      <trkpt lat="45.60408" lon="6.61915">
        <ele>2093.6000976562</ele>
        <time>2019-12-30T12:57:36.000Z</time>
      </trkpt>
      <trkpt lat="45.60408" lon="6.61915">
        <ele>2094</ele>
        <time>2019-12-30T12:57:38.000Z</time>
      </trkpt>
      <trkpt lat="45.60408" lon="6.61915">
        <ele>2093</ele>
        <time>2019-12-30T12:57:51.000Z</time>
      </trkpt>
      <trkpt lat="45.60408" lon="6.61915">
        <ele>2092.8000488281</ele>
        <time>2019-12-30T12:58:05.000Z</time>
      </trkpt>
      <trkpt lat="45.60409" lon="6.61913">
        <ele>2093.1999511719</ele>
        <time>2019-12-30T12:58:13.000Z</time>
      </trkpt>
      <trkpt lat="45.60409" lon="6.61913">
        <ele>2092.6000976562</ele>
        <time>2019-12-30T12:58:14.000Z</time>
      </trkpt>
      <trkpt lat="45.60409" lon="6.61913">
        <ele>2093.6000976562</ele>
        <time>2019-12-30T12:58:24.000Z</time>
      </trkpt>
      <trkpt lat="45.60409" lon="6.61913">
        <ele>2093.8000488281</ele>
        <time>2019-12-30T12:58:25.000Z</time>
      </trkpt>
      <trkpt lat="45.60409" lon="6.61913">
        <ele>2093.1999511719</ele>
        <time>2019-12-30T12:58:43.000Z</time>
      </trkpt>
      <trkpt lat="45.60412" lon="6.61909">
        <ele>2093.1999511719</ele>
        <time>2019-12-30T12:59:00.000Z</time>
      </trkpt>
      <trkpt lat="45.60412" lon="6.61909">
        <ele>2092.8000488281</ele>
        <time>2019-12-30T12:59:12.000Z</time>
      </trkpt>
      <trkpt lat="45.60412" lon="6.61909">
        <ele>2093.3999023438</ele>
        <time>2019-12-30T12:59:26.000Z</time>
      </trkpt>
      <trkpt lat="45.60413" lon="6.61907">
        <ele>2093.1999511719</ele>
        <time>2019-12-30T12:59:40.000Z</time>
      </trkpt>
      <trkpt lat="45.60413" lon="6.61907">
        <ele>2093</ele>
        <time>2019-12-30T12:59:50.000Z</time>
      </trkpt>
      <trkpt lat="45.60413" lon="6.61907">
        <ele>2092.6000976562</ele>
        <time>2019-12-30T12:59:52.000Z</time>
      </trkpt>
      <trkpt lat="45.60413" lon="6.61907">
        <ele>2093</ele>
        <time>2019-12-30T13:00:03.000Z</time>
      </trkpt>
      <trkpt lat="45.60413" lon="6.61907">
        <ele>2091.6000976562</ele>
        <time>2019-12-30T13:00:07.000Z</time>
      </trkpt>
      <trkpt lat="45.60415" lon="6.61901">
        <ele>2092.8000488281</ele>
        <time>2019-12-30T13:00:10.000Z</time>
      </trkpt>
      <trkpt lat="45.60415" lon="6.61901">
        <ele>2093.8000488281</ele>
        <time>2019-12-30T13:00:11.000Z</time>
      </trkpt>
      <trkpt lat="45.60415" lon="6.61901">
        <ele>2094.3999023438</ele>
        <time>2019-12-30T13:00:15.000Z</time>
      </trkpt>
      <trkpt lat="45.60415" lon="6.61901">
        <ele>2092.6000976562</ele>
        <time>2019-12-30T13:00:22.000Z</time>
      </trkpt>
      <trkpt lat="45.60415" lon="6.619">
        <ele>2094</ele>
        <time>2019-12-30T13:00:28.000Z</time>
      </trkpt>
      <trkpt lat="45.60416" lon="6.61899">
        <ele>2094.6000976562</ele>
        <time>2019-12-30T13:00:29.000Z</time>
      </trkpt>
      <trkpt lat="45.60416" lon="6.61898">
        <ele>2095.1999511719</ele>
        <time>2019-12-30T13:00:31.000Z</time>
      </trkpt>
      <trkpt lat="45.60417" lon="6.61895">
        <ele>2094</ele>
        <time>2019-12-30T13:00:34.000Z</time>
      </trkpt>
      <trkpt lat="45.60418" lon="6.61894">
        <ele>2093.8000488281</ele>
        <time>2019-12-30T13:00:35.000Z</time>
      </trkpt>
      <trkpt lat="45.60417" lon="6.61885">
        <ele>2093.6000976562</ele>
        <time>2019-12-30T13:00:41.000Z</time>
      </trkpt>
      <trkpt lat="45.60415" lon="6.61878">
        <ele>2094</ele>
        <time>2019-12-30T13:00:46.000Z</time>
      </trkpt>
      <trkpt lat="45.60413" lon="6.61873">
        <ele>2094.1999511719</ele>
        <time>2019-12-30T13:00:50.000Z</time>
      </trkpt>
      <trkpt lat="45.60411" lon="6.61867">
        <ele>2094.8000488281</ele>
        <time>2019-12-30T13:00:54.000Z</time>
      </trkpt>
      <trkpt lat="45.60412" lon="6.61864">
        <ele>2095.1999511719</ele>
        <time>2019-12-30T13:00:56.000Z</time>
      </trkpt>
      <trkpt lat="45.6041" lon="6.61859">
        <ele>2095.6000976562</ele>
        <time>2019-12-30T13:00:59.000Z</time>
      </trkpt>
      <trkpt lat="45.60407" lon="6.61854">
        <ele>2096.1999511719</ele>
        <time>2019-12-30T13:01:02.000Z</time>
      </trkpt>
      <trkpt lat="45.60404" lon="6.6185">
        <ele>2096.3999023438</ele>
        <time>2019-12-30T13:01:05.000Z</time>
      </trkpt>
      <trkpt lat="45.60401" lon="6.61844">
        <ele>2096.8000488281</ele>
        <time>2019-12-30T13:01:10.000Z</time>
      </trkpt>
      <trkpt lat="45.60397" lon="6.61836">
        <ele>2097.1999511719</ele>
        <time>2019-12-30T13:01:15.000Z</time>
      </trkpt>
      <trkpt lat="45.60394" lon="6.61829">
        <ele>2097.8000488281</ele>
        <time>2019-12-30T13:01:19.000Z</time>
      </trkpt>
      <trkpt lat="45.60391" lon="6.61823">
        <ele>2098</ele>
        <time>2019-12-30T13:01:23.000Z</time>
      </trkpt>
      <trkpt lat="45.60388" lon="6.61817">
        <ele>2098</ele>
        <time>2019-12-30T13:01:27.000Z</time>
      </trkpt>
      <trkpt lat="45.60384" lon="6.61808">
        <ele>2098</ele>
        <time>2019-12-30T13:01:32.000Z</time>
      </trkpt>
      <trkpt lat="45.60384" lon="6.61806">
        <ele>2098</ele>
        <time>2019-12-30T13:01:33.000Z</time>
      </trkpt>
      <trkpt lat="45.60381" lon="6.61799">
        <ele>2098.1999511719</ele>
        <time>2019-12-30T13:01:37.000Z</time>
      </trkpt>
      <trkpt lat="45.60376" lon="6.61793">
        <ele>2098.1999511719</ele>
        <time>2019-12-30T13:01:41.000Z</time>
      </trkpt>
      <trkpt lat="45.60374" lon="6.61788">
        <ele>2098.1999511719</ele>
        <time>2019-12-30T13:01:44.000Z</time>
      </trkpt>
      <trkpt lat="45.60373" lon="6.61786">
        <ele>2098.1999511719</ele>
        <time>2019-12-30T13:01:45.000Z</time>
      </trkpt>
      <trkpt lat="45.60369" lon="6.61781">
        <ele>2098.6000976562</ele>
        <time>2019-12-30T13:01:49.000Z</time>
      </trkpt>
      <trkpt lat="45.60363" lon="6.61772">
        <ele>2098.8000488281</ele>
        <time>2019-12-30T13:01:54.000Z</time>
      </trkpt>
      <trkpt lat="45.60358" lon="6.61763">
        <ele>2099</ele>
        <time>2019-12-30T13:01:59.000Z</time>
      </trkpt>
      <trkpt lat="45.60354" lon="6.61759">
        <ele>2099</ele>
        <time>2019-12-30T13:02:03.000Z</time>
      </trkpt>
      <trkpt lat="45.60351" lon="6.61754">
        <ele>2099.3999023438</ele>
        <time>2019-12-30T13:02:06.000Z</time>
      </trkpt>
      <trkpt lat="45.60349" lon="6.61749">
        <ele>2099.3999023438</ele>
        <time>2019-12-30T13:02:09.000Z</time>
      </trkpt>
      <trkpt lat="45.60346" lon="6.61744">
        <ele>2099.8000488281</ele>
        <time>2019-12-30T13:02:13.000Z</time>
      </trkpt>
      <trkpt lat="45.60281" lon="6.61738">
        <ele>2099.8000488281</ele>
        <time>2019-12-30T13:02:18.000Z</time>
      </trkpt>
      <trkpt lat="45.60205" lon="6.61733">
        <ele>2099.8000488281</ele>
        <time>2019-12-30T13:02:23.000Z</time>
      </trkpt>
      <trkpt lat="45.6018" lon="6.61725">
        <ele>2100.3999023438</ele>
        <time>2019-12-30T13:02:28.000Z</time>
      </trkpt>
      <trkpt lat="45.60177" lon="6.61724">
        <ele>2100.3999023438</ele>
        <time>2019-12-30T13:02:29.000Z</time>
      </trkpt>
      <trkpt lat="45.60161" lon="6.61718">
        <ele>2100.3999023438</ele>
        <time>2019-12-30T13:02:33.000Z</time>
      </trkpt>
      <trkpt lat="45.60157" lon="6.61714">
        <ele>2100.3999023438</ele>
        <time>2019-12-30T13:02:35.000Z</time>
      </trkpt>
      <trkpt lat="45.60151" lon="6.61709">
        <ele>2100.3999023438</ele>
        <time>2019-12-30T13:02:38.000Z</time>
      </trkpt>
      <trkpt lat="45.60147" lon="6.61704">
        <ele>2100.3999023438</ele>
        <time>2019-12-30T13:02:42.000Z</time>
      </trkpt>
      <trkpt lat="45.60144" lon="6.61698">
        <ele>2100.1999511719</ele>
        <time>2019-12-30T13:02:46.000Z</time>
      </trkpt>
      <trkpt lat="45.60142" lon="6.61691">
        <ele>2100.3999023438</ele>
        <time>2019-12-30T13:02:51.000Z</time>
      </trkpt>
      <trkpt lat="45.60142" lon="6.61684">
        <ele>2101.1999511719</ele>
        <time>2019-12-30T13:02:57.000Z</time>
      </trkpt>
      <trkpt lat="45.6014" lon="6.61682">
        <ele>2101.3999023438</ele>
        <time>2019-12-30T13:03:01.000Z</time>
      </trkpt>
      <trkpt lat="45.6014" lon="6.61682">
        <ele>2101.3999023438</ele>
        <time>2019-12-30T13:03:02.000Z</time>
      </trkpt>
      <trkpt lat="45.60139" lon="6.61676">
        <ele>2101.6000976562</ele>
        <time>2019-12-30T13:03:07.000Z</time>
      </trkpt>
      <trkpt lat="45.60139" lon="6.61675">
        <ele>2101.6000976562</ele>
        <time>2019-12-30T13:03:11.000Z</time>
      </trkpt>
      <trkpt lat="45.6014" lon="6.61671">
        <ele>2102.3999023438</ele>
        <time>2019-12-30T13:03:16.000Z</time>
      </trkpt>
      <trkpt lat="45.6014" lon="6.6167">
        <ele>2102.6000976562</ele>
        <time>2019-12-30T13:03:17.000Z</time>
      </trkpt>
      <trkpt lat="45.60142" lon="6.61666">
        <ele>2103</ele>
        <time>2019-12-30T13:03:20.000Z</time>
      </trkpt>
      <trkpt lat="45.60141" lon="6.61666">
        <ele>2103</ele>
        <time>2019-12-30T13:03:21.000Z</time>
      </trkpt>
      <trkpt lat="45.6014" lon="6.61665">
        <ele>2103.1999511719</ele>
        <time>2019-12-30T13:03:29.000Z</time>
      </trkpt>
      <trkpt lat="45.60141" lon="6.61662">
        <ele>2103.1999511719</ele>
        <time>2019-12-30T13:03:34.000Z</time>
      </trkpt>
      <trkpt lat="45.60141" lon="6.6166">
        <ele>2103.1999511719</ele>
        <time>2019-12-30T13:03:35.000Z</time>
      </trkpt>
      <trkpt lat="45.60142" lon="6.61654">
        <ele>2103.3999023438</ele>
        <time>2019-12-30T13:03:39.000Z</time>
      </trkpt>
      <trkpt lat="45.60142" lon="6.61649">
        <ele>2103.6000976562</ele>
        <time>2019-12-30T13:03:42.000Z</time>
      </trkpt>
      <trkpt lat="45.60143" lon="6.61647">
        <ele>2103.8000488281</ele>
        <time>2019-12-30T13:03:44.000Z</time>
      </trkpt>
      <trkpt lat="45.60142" lon="6.6164">
        <ele>2104</ele>
        <time>2019-12-30T13:03:50.000Z</time>
      </trkpt>
      <trkpt lat="45.60143" lon="6.61636">
        <ele>2104.6000976562</ele>
        <time>2019-12-30T13:03:53.000Z</time>
      </trkpt>
      <trkpt lat="45.60143" lon="6.61636">
        <ele>2104.8000488281</ele>
        <time>2019-12-30T13:03:54.000Z</time>
      </trkpt>
      <trkpt lat="45.60146" lon="6.6163">
        <ele>2105.1999511719</ele>
        <time>2019-12-30T13:04:00.000Z</time>
      </trkpt>
      <trkpt lat="45.60148" lon="6.61625">
        <ele>2105.3999023438</ele>
        <time>2019-12-30T13:04:05.000Z</time>
      </trkpt>
      <trkpt lat="45.60148" lon="6.61621">
        <ele>2105.6000976562</ele>
        <time>2019-12-30T13:04:09.000Z</time>
      </trkpt>
      <trkpt lat="45.60148" lon="6.6162">
        <ele>2105.8000488281</ele>
        <time>2019-12-30T13:04:10.000Z</time>
      </trkpt>
      <trkpt lat="45.60148" lon="6.61614">
        <ele>2106</ele>
        <time>2019-12-30T13:04:15.000Z</time>
      </trkpt>
      <trkpt lat="45.6015" lon="6.61608">
        <ele>2106.3999023438</ele>
        <time>2019-12-30T13:04:20.000Z</time>
      </trkpt>
      <trkpt lat="45.60149" lon="6.61605">
        <ele>2106.8000488281</ele>
        <time>2019-12-30T13:04:25.000Z</time>
      </trkpt>
      <trkpt lat="45.60151" lon="6.61599">
        <ele>2107.1999511719</ele>
        <time>2019-12-30T13:04:31.000Z</time>
      </trkpt>
      <trkpt lat="45.60152" lon="6.61595">
        <ele>2107.3999023438</ele>
        <time>2019-12-30T13:04:35.000Z</time>
      </trkpt>
      <trkpt lat="45.60152" lon="6.61591">
        <ele>2107.6000976562</ele>
        <time>2019-12-30T13:04:40.000Z</time>
      </trkpt>
      <trkpt lat="45.60153" lon="6.61588">
        <ele>2107.8000488281</ele>
        <time>2019-12-30T13:04:43.000Z</time>
      </trkpt>
      <trkpt lat="45.60154" lon="6.61586">
        <ele>2107.8000488281</ele>
        <time>2019-12-30T13:04:45.000Z</time>
      </trkpt>
      <trkpt lat="45.60154" lon="6.61581">
        <ele>2108.3999023438</ele>
        <time>2019-12-30T13:04:50.000Z</time>
      </trkpt>
      <trkpt lat="45.60155" lon="6.61578">
        <ele>2108.8000488281</ele>
        <time>2019-12-30T13:04:54.000Z</time>
      </trkpt>
      <trkpt lat="45.60155" lon="6.61576">
        <ele>2108.8000488281</ele>
        <time>2019-12-30T13:04:55.000Z</time>
      </trkpt>
      <trkpt lat="45.60155" lon="6.61571">
        <ele>2109.6000976562</ele>
        <time>2019-12-30T13:05:00.000Z</time>
      </trkpt>
      <trkpt lat="45.60156" lon="6.61569">
        <ele>2110</ele>
        <time>2019-12-30T13:05:03.000Z</time>
      </trkpt>
      <trkpt lat="45.60156" lon="6.61567">
        <ele>2110</ele>
        <time>2019-12-30T13:05:05.000Z</time>
      </trkpt>
      <trkpt lat="45.60156" lon="6.61563">
        <ele>2110.3999023438</ele>
        <time>2019-12-30T13:05:10.000Z</time>
      </trkpt>
      <trkpt lat="45.60157" lon="6.61558">
        <ele>2111</ele>
        <time>2019-12-30T13:05:15.000Z</time>
      </trkpt>
      <trkpt lat="45.60157" lon="6.61556">
        <ele>2111</ele>
        <time>2019-12-30T13:05:16.000Z</time>
      </trkpt>
      <trkpt lat="45.60157" lon="6.61553">
        <ele>2111.3999023438</ele>
        <time>2019-12-30T13:05:20.000Z</time>
      </trkpt>
      <trkpt lat="45.60159" lon="6.61545">
        <ele>2112</ele>
        <time>2019-12-30T13:05:26.000Z</time>
      </trkpt>
      <trkpt lat="45.60159" lon="6.61544">
        <ele>2112</ele>
        <time>2019-12-30T13:05:28.000Z</time>
      </trkpt>
      <trkpt lat="45.60159" lon="6.6154">
        <ele>2112.1999511719</ele>
        <time>2019-12-30T13:05:31.000Z</time>
      </trkpt>
      <trkpt lat="45.6016" lon="6.61537">
        <ele>2112.6000976562</ele>
        <time>2019-12-30T13:05:35.000Z</time>
      </trkpt>
      <trkpt lat="45.60159" lon="6.61532">
        <ele>2113</ele>
        <time>2019-12-30T13:05:40.000Z</time>
      </trkpt>
      <trkpt lat="45.60159" lon="6.61532">
        <ele>2113</ele>
        <time>2019-12-30T13:05:41.000Z</time>
      </trkpt>
      <trkpt lat="45.60158" lon="6.61528">
        <ele>2113.6000976562</ele>
        <time>2019-12-30T13:05:44.000Z</time>
      </trkpt>
      <trkpt lat="45.60157" lon="6.61524">
        <ele>2114</ele>
        <time>2019-12-30T13:05:48.000Z</time>
      </trkpt>
      <trkpt lat="45.60157" lon="6.61524">
        <ele>2114.1999511719</ele>
        <time>2019-12-30T13:05:49.000Z</time>
      </trkpt>
      <trkpt lat="45.60157" lon="6.61524">
        <ele>2114.8000488281</ele>
        <time>2019-12-30T13:06:05.000Z</time>
      </trkpt>
      <trkpt lat="45.60157" lon="6.61524">
        <ele>2114.8000488281</ele>
        <time>2019-12-30T13:06:21.000Z</time>
      </trkpt>
      <trkpt lat="45.60157" lon="6.61524">
        <ele>2114.8000488281</ele>
        <time>2019-12-30T13:06:39.000Z</time>
      </trkpt>
      <trkpt lat="45.60157" lon="6.61524">
        <ele>2114.8000488281</ele>
        <time>2019-12-30T13:06:45.000Z</time>
      </trkpt>
      <trkpt lat="45.60157" lon="6.6152">
        <ele>2115.1999511719</ele>
        <time>2019-12-30T13:06:48.000Z</time>
      </trkpt>
      <trkpt lat="45.60157" lon="6.61516">
        <ele>2115.6000976562</ele>
        <time>2019-12-30T13:06:51.000Z</time>
      </trkpt>
      <trkpt lat="45.60157" lon="6.61514">
        <ele>2116.1999511719</ele>
        <time>2019-12-30T13:06:54.000Z</time>
      </trkpt>
      <trkpt lat="45.60156" lon="6.61511">
        <ele>2116.6000976562</ele>
        <time>2019-12-30T13:06:56.000Z</time>
      </trkpt>
      <trkpt lat="45.60156" lon="6.61507">
        <ele>2117.1999511719</ele>
        <time>2019-12-30T13:07:00.000Z</time>
      </trkpt>
      <trkpt lat="45.60156" lon="6.61506">
        <ele>2117.3999023438</ele>
        <time>2019-12-30T13:07:01.000Z</time>
      </trkpt>
      <trkpt lat="45.60157" lon="6.61502">
        <ele>2118.1999511719</ele>
        <time>2019-12-30T13:07:05.000Z</time>
      </trkpt>
      <trkpt lat="45.60156" lon="6.61501">
        <ele>2118.3999023438</ele>
        <time>2019-12-30T13:07:07.000Z</time>
      </trkpt>
      <trkpt lat="45.60157" lon="6.615">
        <ele>2118.6000976562</ele>
        <time>2019-12-30T13:07:09.000Z</time>
      </trkpt>
      <trkpt lat="45.60156" lon="6.61493">
        <ele>2119</ele>
        <time>2019-12-30T13:07:14.000Z</time>
      </trkpt>
      <trkpt lat="45.60157" lon="6.6149">
        <ele>2119.6000976562</ele>
        <time>2019-12-30T13:07:19.000Z</time>
      </trkpt>
      <trkpt lat="45.60156" lon="6.61486">
        <ele>2120.1999511719</ele>
        <time>2019-12-30T13:07:24.000Z</time>
      </trkpt>
      <trkpt lat="45.60156" lon="6.61481">
        <ele>2121</ele>
        <time>2019-12-30T13:07:28.000Z</time>
      </trkpt>
      <trkpt lat="45.60155" lon="6.61479">
        <ele>2121.1999511719</ele>
        <time>2019-12-30T13:07:30.000Z</time>
      </trkpt>
      <trkpt lat="45.60152" lon="6.61473">
        <ele>2122</ele>
        <time>2019-12-30T13:07:35.000Z</time>
      </trkpt>
      <trkpt lat="45.60152" lon="6.61473">
        <ele>2122.1999511719</ele>
        <time>2019-12-30T13:07:36.000Z</time>
      </trkpt>
      <trkpt lat="45.60148" lon="6.61467">
        <ele>2122.8000488281</ele>
        <time>2019-12-30T13:07:42.000Z</time>
      </trkpt>
      <trkpt lat="45.60147" lon="6.61466">
        <ele>2123.1999511719</ele>
        <time>2019-12-30T13:07:44.000Z</time>
      </trkpt>
      <trkpt lat="45.60146" lon="6.61466">
        <ele>2124</ele>
        <time>2019-12-30T13:07:50.000Z</time>
      </trkpt>
      <trkpt lat="45.60145" lon="6.61465">
        <ele>2123.8000488281</ele>
        <time>2019-12-30T13:08:03.000Z</time>
      </trkpt>
      <trkpt lat="45.60142" lon="6.61461">
        <ele>2124.3999023438</ele>
        <time>2019-12-30T13:08:09.000Z</time>
      </trkpt>
      <trkpt lat="45.60141" lon="6.61461">
        <ele>2124.6000976562</ele>
        <time>2019-12-30T13:08:10.000Z</time>
      </trkpt>
      <trkpt lat="45.60138" lon="6.61454">
        <ele>2125.3999023438</ele>
        <time>2019-12-30T13:08:17.000Z</time>
      </trkpt>
      <trkpt lat="45.60135" lon="6.6145">
        <ele>2126.1999511719</ele>
        <time>2019-12-30T13:08:23.000Z</time>
      </trkpt>
      <trkpt lat="45.60134" lon="6.6145">
        <ele>2126.3999023438</ele>
        <time>2019-12-30T13:08:25.000Z</time>
      </trkpt>
      <trkpt lat="45.60133" lon="6.61448">
        <ele>2126.6000976562</ele>
        <time>2019-12-30T13:08:28.000Z</time>
      </trkpt>
      <trkpt lat="45.60127" lon="6.61444">
        <ele>2127.3999023438</ele>
        <time>2019-12-30T13:08:34.000Z</time>
      </trkpt>
      <trkpt lat="45.60126" lon="6.61442">
        <ele>2127.3999023438</ele>
        <time>2019-12-30T13:08:36.000Z</time>
      </trkpt>
      <trkpt lat="45.60123" lon="6.61439">
        <ele>2127.8000488281</ele>
        <time>2019-12-30T13:08:41.000Z</time>
      </trkpt>
      <trkpt lat="45.60122" lon="6.61439">
        <ele>2127.8000488281</ele>
        <time>2019-12-30T13:08:42.000Z</time>
      </trkpt>
      <trkpt lat="45.60117" lon="6.61436">
        <ele>2128</ele>
        <time>2019-12-30T13:08:47.000Z</time>
      </trkpt>
      <trkpt lat="45.60115" lon="6.61432">
        <ele>2128.6000976562</ele>
        <time>2019-12-30T13:08:53.000Z</time>
      </trkpt>
      <trkpt lat="45.60112" lon="6.61427">
        <ele>2129.1999511719</ele>
        <time>2019-12-30T13:09:01.000Z</time>
      </trkpt>
      <trkpt lat="45.6011" lon="6.61422">
        <ele>2129.6000976562</ele>
        <time>2019-12-30T13:09:06.000Z</time>
      </trkpt>
      <trkpt lat="45.60108" lon="6.6142">
        <ele>2129.8000488281</ele>
        <time>2019-12-30T13:09:09.000Z</time>
      </trkpt>
      <trkpt lat="45.60105" lon="6.61413">
        <ele>2130.1999511719</ele>
        <time>2019-12-30T13:09:16.000Z</time>
      </trkpt>
      <trkpt lat="45.60104" lon="6.61408">
        <ele>2130.6000976562</ele>
        <time>2019-12-30T13:09:23.000Z</time>
      </trkpt>
      <trkpt lat="45.60104" lon="6.61407">
        <ele>2130.6000976562</ele>
        <time>2019-12-30T13:09:24.000Z</time>
      </trkpt>
      <trkpt lat="45.60101" lon="6.61401">
        <ele>2131.1999511719</ele>
        <time>2019-12-30T13:09:30.000Z</time>
      </trkpt>
      <trkpt lat="45.60101" lon="6.61397">
        <ele>2131.3999023438</ele>
        <time>2019-12-30T13:09:36.000Z</time>
      </trkpt>
      <trkpt lat="45.601" lon="6.61394">
        <ele>2131.8000488281</ele>
        <time>2019-12-30T13:09:40.000Z</time>
      </trkpt>
      <trkpt lat="45.60101" lon="6.61393">
        <ele>2131.8000488281</ele>
        <time>2019-12-30T13:09:41.000Z</time>
      </trkpt>
      <trkpt lat="45.60101" lon="6.6139">
        <ele>2132.3999023438</ele>
        <time>2019-12-30T13:09:47.000Z</time>
      </trkpt>
      <trkpt lat="45.60099" lon="6.61386">
        <ele>2132.8000488281</ele>
        <time>2019-12-30T13:09:51.000Z</time>
      </trkpt>
      <trkpt lat="45.60099" lon="6.61384">
        <ele>2133</ele>
        <time>2019-12-30T13:09:52.000Z</time>
      </trkpt>
      <trkpt lat="45.60097" lon="6.61378">
        <ele>2133.3999023438</ele>
        <time>2019-12-30T13:09:58.000Z</time>
      </trkpt>
      <trkpt lat="45.60096" lon="6.61374">
        <ele>2133.6000976562</ele>
        <time>2019-12-30T13:10:02.000Z</time>
      </trkpt>
      <trkpt lat="45.60095" lon="6.61369">
        <ele>2133.8000488281</ele>
        <time>2019-12-30T13:10:08.000Z</time>
      </trkpt>
      <trkpt lat="45.60095" lon="6.61368">
        <ele>2133.8000488281</ele>
        <time>2019-12-30T13:10:09.000Z</time>
      </trkpt>
      <trkpt lat="45.60093" lon="6.61362">
        <ele>2134.1999511719</ele>
        <time>2019-12-30T13:10:14.000Z</time>
      </trkpt>
      <trkpt lat="45.60092" lon="6.61359">
        <ele>2134.6000976562</ele>
        <time>2019-12-30T13:10:19.000Z</time>
      </trkpt>
      <trkpt lat="45.60092" lon="6.61355">
        <ele>2134.8000488281</ele>
        <time>2019-12-30T13:10:24.000Z</time>
      </trkpt>
      <trkpt lat="45.60092" lon="6.61354">
        <ele>2135</ele>
        <time>2019-12-30T13:10:25.000Z</time>
      </trkpt>
      <trkpt lat="45.60093" lon="6.6135">
        <ele>2135.3999023438</ele>
        <time>2019-12-30T13:10:30.000Z</time>
      </trkpt>
      <trkpt lat="45.60092" lon="6.61348">
        <ele>2135.6000976562</ele>
        <time>2019-12-30T13:10:35.000Z</time>
      </trkpt>
      <trkpt lat="45.60093" lon="6.61346">
        <ele>2136</ele>
        <time>2019-12-30T13:10:38.000Z</time>
      </trkpt>
      <trkpt lat="45.60093" lon="6.61345">
        <ele>2136.3999023438</ele>
        <time>2019-12-30T13:10:40.000Z</time>
      </trkpt>
      <trkpt lat="45.60091" lon="6.61339">
        <ele>2136.8000488281</ele>
        <time>2019-12-30T13:10:46.000Z</time>
      </trkpt>
      <trkpt lat="45.60091" lon="6.61339">
        <ele>2137</ele>
        <time>2019-12-30T13:10:47.000Z</time>
      </trkpt>
      <trkpt lat="45.60091" lon="6.61336">
        <ele>2137.3999023438</ele>
        <time>2019-12-30T13:10:51.000Z</time>
      </trkpt>
      <trkpt lat="45.60089" lon="6.61331">
        <ele>2137.8000488281</ele>
        <time>2019-12-30T13:10:57.000Z</time>
      </trkpt>
      <trkpt lat="45.60087" lon="6.61326">
        <ele>2138.1999511719</ele>
        <time>2019-12-30T13:11:01.000Z</time>
      </trkpt>
      <trkpt lat="45.60086" lon="6.61321">
        <ele>2138.8000488281</ele>
        <time>2019-12-30T13:11:07.000Z</time>
      </trkpt>
      <trkpt lat="45.60087" lon="6.61319">
        <ele>2139.1999511719</ele>
        <time>2019-12-30T13:11:11.000Z</time>
      </trkpt>
      <trkpt lat="45.60087" lon="6.61314">
        <ele>2139.3999023438</ele>
        <time>2019-12-30T13:11:16.000Z</time>
      </trkpt>
      <trkpt lat="45.60087" lon="6.61311">
        <ele>2139.8000488281</ele>
        <time>2019-12-30T13:11:21.000Z</time>
      </trkpt>
      <trkpt lat="45.60087" lon="6.6131">
        <ele>2140.1999511719</ele>
        <time>2019-12-30T13:11:24.000Z</time>
      </trkpt>
      <trkpt lat="45.60087" lon="6.61308">
        <ele>2140.3999023438</ele>
        <time>2019-12-30T13:11:26.000Z</time>
      </trkpt>
      <trkpt lat="45.60087" lon="6.61306">
        <ele>2140.8000488281</ele>
        <time>2019-12-30T13:11:30.000Z</time>
      </trkpt>
      <trkpt lat="45.60087" lon="6.61304">
        <ele>2141.1999511719</ele>
        <time>2019-12-30T13:11:32.000Z</time>
      </trkpt>
      <trkpt lat="45.60087" lon="6.61301">
        <ele>2141.8000488281</ele>
        <time>2019-12-30T13:11:35.000Z</time>
      </trkpt>
      <trkpt lat="45.60089" lon="6.61297">
        <ele>2142.1999511719</ele>
        <time>2019-12-30T13:11:40.000Z</time>
      </trkpt>
      <trkpt lat="45.60089" lon="6.61296">
        <ele>2142.1999511719</ele>
        <time>2019-12-30T13:11:41.000Z</time>
      </trkpt>
      <trkpt lat="45.60089" lon="6.61293">
        <ele>2143</ele>
        <time>2019-12-30T13:11:46.000Z</time>
      </trkpt>
      <trkpt lat="45.60089" lon="6.61291">
        <ele>2143.3999023438</ele>
        <time>2019-12-30T13:11:49.000Z</time>
      </trkpt>
      <trkpt lat="45.60089" lon="6.6129">
        <ele>2143.6000976562</ele>
        <time>2019-12-30T13:11:50.000Z</time>
      </trkpt>
      <trkpt lat="45.60089" lon="6.61289">
        <ele>2144.3999023438</ele>
        <time>2019-12-30T13:11:54.000Z</time>
      </trkpt>
      <trkpt lat="45.6009" lon="6.61288">
        <ele>2144.3999023438</ele>
        <time>2019-12-30T13:11:55.000Z</time>
      </trkpt>
      <trkpt lat="45.6009" lon="6.61284">
        <ele>2145</ele>
        <time>2019-12-30T13:12:00.000Z</time>
      </trkpt>
      <trkpt lat="45.60088" lon="6.61282">
        <ele>2145.3999023438</ele>
        <time>2019-12-30T13:12:04.000Z</time>
      </trkpt>
      <trkpt lat="45.60088" lon="6.61281">
        <ele>2145.8000488281</ele>
        <time>2019-12-30T13:12:05.000Z</time>
      </trkpt>
      <trkpt lat="45.60088" lon="6.61276">
        <ele>2146.3999023438</ele>
        <time>2019-12-30T13:12:09.000Z</time>
      </trkpt>
      <trkpt lat="45.60088" lon="6.61274">
        <ele>2146.8000488281</ele>
        <time>2019-12-30T13:12:11.000Z</time>
      </trkpt>
      <trkpt lat="45.60086" lon="6.61271">
        <ele>2147.6000976562</ele>
        <time>2019-12-30T13:12:14.000Z</time>
      </trkpt>
      <trkpt lat="45.60084" lon="6.61269">
        <ele>2148.3999023438</ele>
        <time>2019-12-30T13:12:17.000Z</time>
      </trkpt>
      <trkpt lat="45.60083" lon="6.61269">
        <ele>2148.8000488281</ele>
        <time>2019-12-30T13:12:18.000Z</time>
      </trkpt>
      <trkpt lat="45.6008" lon="6.61265">
        <ele>2149.8000488281</ele>
        <time>2019-12-30T13:12:23.000Z</time>
      </trkpt>
      <trkpt lat="45.60078" lon="6.61262">
        <ele>2150.8000488281</ele>
        <time>2019-12-30T13:12:27.000Z</time>
      </trkpt>
      <trkpt lat="45.60077" lon="6.61262">
        <ele>2151.1999511719</ele>
        <time>2019-12-30T13:12:29.000Z</time>
      </trkpt>
      <trkpt lat="45.60076" lon="6.6126">
        <ele>2152</ele>
        <time>2019-12-30T13:12:33.000Z</time>
      </trkpt>
      <trkpt lat="45.60075" lon="6.61259">
        <ele>2152.6000976562</ele>
        <time>2019-12-30T13:12:35.000Z</time>
      </trkpt>
      <trkpt lat="45.60072" lon="6.61256">
        <ele>2153</ele>
        <time>2019-12-30T13:12:39.000Z</time>
      </trkpt>
      <trkpt lat="45.60071" lon="6.61256">
        <ele>2153.6000976562</ele>
        <time>2019-12-30T13:12:41.000Z</time>
      </trkpt>
      <trkpt lat="45.60069" lon="6.61255">
        <ele>2154</ele>
        <time>2019-12-30T13:12:43.000Z</time>
      </trkpt>
      <trkpt lat="45.60065" lon="6.61253">
        <ele>2154.6000976562</ele>
        <time>2019-12-30T13:12:48.000Z</time>
      </trkpt>
      <trkpt lat="45.60062" lon="6.61249">
        <ele>2155.1999511719</ele>
        <time>2019-12-30T13:12:54.000Z</time>
      </trkpt>
      <trkpt lat="45.60058" lon="6.61246">
        <ele>2156.1999511719</ele>
        <time>2019-12-30T13:13:00.000Z</time>
      </trkpt>
      <trkpt lat="45.60056" lon="6.61242">
        <ele>2157</ele>
        <time>2019-12-30T13:13:07.000Z</time>
      </trkpt>
      <trkpt lat="45.60055" lon="6.61241">
        <ele>2157.1999511719</ele>
        <time>2019-12-30T13:13:08.000Z</time>
      </trkpt>
      <trkpt lat="45.60051" lon="6.61238">
        <ele>2158.1999511719</ele>
        <time>2019-12-30T13:13:14.000Z</time>
      </trkpt>
      <trkpt lat="45.60048" lon="6.61234">
        <ele>2159.3999023438</ele>
        <time>2019-12-30T13:13:21.000Z</time>
      </trkpt>
      <trkpt lat="45.60043" lon="6.6123">
        <ele>2160.1999511719</ele>
        <time>2019-12-30T13:13:28.000Z</time>
      </trkpt>
      <trkpt lat="45.60043" lon="6.6123">
        <ele>2160.6000976562</ele>
        <time>2019-12-30T13:13:29.000Z</time>
      </trkpt>
      <trkpt lat="45.60041" lon="6.61228">
        <ele>2161.6000976562</ele>
        <time>2019-12-30T13:13:35.000Z</time>
      </trkpt>
      <trkpt lat="45.60037" lon="6.61225">
        <ele>2162.3999023438</ele>
        <time>2019-12-30T13:13:41.000Z</time>
      </trkpt>
      <trkpt lat="45.60035" lon="6.61222">
        <ele>2162.6000976562</ele>
        <time>2019-12-30T13:13:44.000Z</time>
      </trkpt>
      <trkpt lat="45.60035" lon="6.61222">
        <ele>2163</ele>
        <time>2019-12-30T13:13:48.000Z</time>
      </trkpt>
      <trkpt lat="45.60031" lon="6.61218">
        <ele>2163.6000976562</ele>
        <time>2019-12-30T13:13:54.000Z</time>
      </trkpt>
      <trkpt lat="45.60029" lon="6.61217">
        <ele>2163.8000488281</ele>
        <time>2019-12-30T13:13:57.000Z</time>
      </trkpt>
      <trkpt lat="45.60027" lon="6.61214">
        <ele>2164.3999023438</ele>
        <time>2019-12-30T13:14:01.000Z</time>
      </trkpt>
      <trkpt lat="45.60024" lon="6.61212">
        <ele>2164.8000488281</ele>
        <time>2019-12-30T13:14:04.000Z</time>
      </trkpt>
      <trkpt lat="45.60022" lon="6.6121">
        <ele>2165</ele>
        <time>2019-12-30T13:14:08.000Z</time>
      </trkpt>
      <trkpt lat="45.60016" lon="6.61207">
        <ele>2164.8000488281</ele>
        <time>2019-12-30T13:14:15.000Z</time>
      </trkpt>
      <trkpt lat="45.60013" lon="6.61203">
        <ele>2165.6000976562</ele>
        <time>2019-12-30T13:14:21.000Z</time>
      </trkpt>
      <trkpt lat="45.60013" lon="6.61203">
        <ele>2165.8000488281</ele>
        <time>2019-12-30T13:14:22.000Z</time>
      </trkpt>
      <trkpt lat="45.6001" lon="6.61202">
        <ele>2166.1999511719</ele>
        <time>2019-12-30T13:14:26.000Z</time>
      </trkpt>
      <trkpt lat="45.60005" lon="6.61196">
        <ele>2166.8000488281</ele>
        <time>2019-12-30T13:14:33.000Z</time>
      </trkpt>
      <trkpt lat="45.60005" lon="6.61196">
        <ele>2167</ele>
        <time>2019-12-30T13:14:34.000Z</time>
      </trkpt>
      <trkpt lat="45.60001" lon="6.61193">
        <ele>2167.8000488281</ele>
        <time>2019-12-30T13:14:40.000Z</time>
      </trkpt>
      <trkpt lat="45.6" lon="6.61192">
        <ele>2168.1999511719</ele>
        <time>2019-12-30T13:14:41.000Z</time>
      </trkpt>
      <trkpt lat="45.59997" lon="6.61187">
        <ele>2168.8000488281</ele>
        <time>2019-12-30T13:14:48.000Z</time>
      </trkpt>
      <trkpt lat="45.59997" lon="6.61187">
        <ele>2169</ele>
        <time>2019-12-30T13:14:49.000Z</time>
      </trkpt>
      <trkpt lat="45.59994" lon="6.61183">
        <ele>2169.6000976562</ele>
        <time>2019-12-30T13:14:54.000Z</time>
      </trkpt>
      <trkpt lat="45.59992" lon="6.6118">
        <ele>2170</ele>
        <time>2019-12-30T13:14:58.000Z</time>
      </trkpt>
      <trkpt lat="45.59991" lon="6.61178">
        <ele>2170.1999511719</ele>
        <time>2019-12-30T13:15:00.000Z</time>
      </trkpt>
      <trkpt lat="45.59988" lon="6.61174">
        <ele>2171</ele>
        <time>2019-12-30T13:15:06.000Z</time>
      </trkpt>
      <trkpt lat="45.59988" lon="6.61173">
        <ele>2171.1999511719</ele>
        <time>2019-12-30T13:15:07.000Z</time>
      </trkpt>
      <trkpt lat="45.59985" lon="6.61169">
        <ele>2171.6000976562</ele>
        <time>2019-12-30T13:15:12.000Z</time>
      </trkpt>
      <trkpt lat="45.59984" lon="6.61167">
        <ele>2172.1999511719</ele>
        <time>2019-12-30T13:15:15.000Z</time>
      </trkpt>
      <trkpt lat="45.59982" lon="6.61164">
        <ele>2172.8000488281</ele>
        <time>2019-12-30T13:15:18.000Z</time>
      </trkpt>
      <trkpt lat="45.5998" lon="6.61162">
        <ele>2173.1999511719</ele>
        <time>2019-12-30T13:15:21.000Z</time>
      </trkpt>
      <trkpt lat="45.59978" lon="6.61159">
        <ele>2174</ele>
        <time>2019-12-30T13:15:25.000Z</time>
      </trkpt>
      <trkpt lat="45.59976" lon="6.61157">
        <ele>2174.3999023438</ele>
        <time>2019-12-30T13:15:28.000Z</time>
      </trkpt>
      <trkpt lat="45.59976" lon="6.61156">
        <ele>2174.8000488281</ele>
        <time>2019-12-30T13:15:31.000Z</time>
      </trkpt>
      <trkpt lat="45.59974" lon="6.61154">
        <ele>2175.6000976562</ele>
        <time>2019-12-30T13:15:36.000Z</time>
      </trkpt>
      <trkpt lat="45.59973" lon="6.61153">
        <ele>2175.8000488281</ele>
        <time>2019-12-30T13:15:38.000Z</time>
      </trkpt>
      <trkpt lat="45.5997" lon="6.61149">
        <ele>2176.6000976562</ele>
        <time>2019-12-30T13:15:44.000Z</time>
      </trkpt>
      <trkpt lat="45.59969" lon="6.61148">
        <ele>2176.6000976562</ele>
        <time>2019-12-30T13:15:45.000Z</time>
      </trkpt>
      <trkpt lat="45.59967" lon="6.61147">
        <ele>2177.6000976562</ele>
        <time>2019-12-30T13:15:50.000Z</time>
      </trkpt>
      <trkpt lat="45.59967" lon="6.61147">
        <ele>2177.8000488281</ele>
        <time>2019-12-30T13:15:53.000Z</time>
      </trkpt>
      <trkpt lat="45.59965" lon="6.61143">
        <ele>2177.8000488281</ele>
        <time>2019-12-30T13:15:59.000Z</time>
      </trkpt>
      <trkpt lat="45.59962" lon="6.61139">
        <ele>2178.8000488281</ele>
        <time>2019-12-30T13:16:04.000Z</time>
      </trkpt>
      <trkpt lat="45.59961" lon="6.61139">
        <ele>2178.8000488281</ele>
        <time>2019-12-30T13:16:05.000Z</time>
      </trkpt>
      <trkpt lat="45.59958" lon="6.61137">
        <ele>2179.3999023438</ele>
        <time>2019-12-30T13:16:11.000Z</time>
      </trkpt>
      <trkpt lat="45.59957" lon="6.61133">
        <ele>2179.8000488281</ele>
        <time>2019-12-30T13:16:14.000Z</time>
      </trkpt>
      <trkpt lat="45.59957" lon="6.61132">
        <ele>2180</ele>
        <time>2019-12-30T13:16:16.000Z</time>
      </trkpt>
      <trkpt lat="45.59956" lon="6.6113">
        <ele>2180.6000976562</ele>
        <time>2019-12-30T13:16:19.000Z</time>
      </trkpt>
      <trkpt lat="45.59956" lon="6.61129">
        <ele>2180.8000488281</ele>
        <time>2019-12-30T13:16:20.000Z</time>
      </trkpt>
      <trkpt lat="45.59957" lon="6.61128">
        <ele>2181</ele>
        <time>2019-12-30T13:16:21.000Z</time>
      </trkpt>
      <trkpt lat="45.59956" lon="6.61126">
        <ele>2181.8000488281</ele>
        <time>2019-12-30T13:16:25.000Z</time>
      </trkpt>
      <trkpt lat="45.59956" lon="6.61125">
        <ele>2181.8000488281</ele>
        <time>2019-12-30T13:16:26.000Z</time>
      </trkpt>
      <trkpt lat="45.59956" lon="6.61121">
        <ele>2182.3999023438</ele>
        <time>2019-12-30T13:16:30.000Z</time>
      </trkpt>
      <trkpt lat="45.59956" lon="6.61118">
        <ele>2183</ele>
        <time>2019-12-30T13:16:34.000Z</time>
      </trkpt>
      <trkpt lat="45.59956" lon="6.61117">
        <ele>2183.1999511719</ele>
        <time>2019-12-30T13:16:35.000Z</time>
      </trkpt>
      <trkpt lat="45.59955" lon="6.61113">
        <ele>2183.8000488281</ele>
        <time>2019-12-30T13:16:40.000Z</time>
      </trkpt>
      <trkpt lat="45.59954" lon="6.61113">
        <ele>2184</ele>
        <time>2019-12-30T13:16:41.000Z</time>
      </trkpt>
      <trkpt lat="45.59954" lon="6.61111">
        <ele>2184.6000976562</ele>
        <time>2019-12-30T13:16:44.000Z</time>
      </trkpt>
      <trkpt lat="45.59953" lon="6.61106">
        <ele>2185.1999511719</ele>
        <time>2019-12-30T13:16:49.000Z</time>
      </trkpt>
      <trkpt lat="45.59951" lon="6.61101">
        <ele>2185.6000976562</ele>
        <time>2019-12-30T13:16:54.000Z</time>
      </trkpt>
      <trkpt lat="45.5995" lon="6.61097">
        <ele>2185.8000488281</ele>
        <time>2019-12-30T13:16:58.000Z</time>
      </trkpt>
      <trkpt lat="45.5995" lon="6.61092">
        <ele>2186.3999023438</ele>
        <time>2019-12-30T13:17:03.000Z</time>
      </trkpt>
      <trkpt lat="45.5995" lon="6.61091">
        <ele>2186.3999023438</ele>
        <time>2019-12-30T13:17:04.000Z</time>
      </trkpt>
      <trkpt lat="45.59949" lon="6.61088">
        <ele>2187.1999511719</ele>
        <time>2019-12-30T13:17:09.000Z</time>
      </trkpt>
      <trkpt lat="45.59949" lon="6.61088">
        <ele>2187.3999023438</ele>
        <time>2019-12-30T13:17:10.000Z</time>
      </trkpt>
      <trkpt lat="45.59948" lon="6.61086">
        <ele>2187.8000488281</ele>
        <time>2019-12-30T13:17:13.000Z</time>
      </trkpt>
      <trkpt lat="45.59947" lon="6.61081">
        <ele>2188.1999511719</ele>
        <time>2019-12-30T13:17:19.000Z</time>
      </trkpt>
      <trkpt lat="45.59948" lon="6.61078">
        <ele>2188.6000976562</ele>
        <time>2019-12-30T13:17:21.000Z</time>
      </trkpt>
      <trkpt lat="45.59948" lon="6.61077">
        <ele>2189</ele>
        <time>2019-12-30T13:17:23.000Z</time>
      </trkpt>
      <trkpt lat="45.59949" lon="6.61074">
        <ele>2189.8000488281</ele>
        <time>2019-12-30T13:17:27.000Z</time>
      </trkpt>
      <trkpt lat="45.59949" lon="6.61073">
        <ele>2190</ele>
        <time>2019-12-30T13:17:28.000Z</time>
      </trkpt>
      <trkpt lat="45.5995" lon="6.61069">
        <ele>2190.6000976562</ele>
        <time>2019-12-30T13:17:33.000Z</time>
      </trkpt>
      <trkpt lat="45.59951" lon="6.61068">
        <ele>2190.8000488281</ele>
        <time>2019-12-30T13:17:35.000Z</time>
      </trkpt>
      <trkpt lat="45.59951" lon="6.61066">
        <ele>2191.1999511719</ele>
        <time>2019-12-30T13:17:37.000Z</time>
      </trkpt>
      <trkpt lat="45.59953" lon="6.61063">
        <ele>2191.8000488281</ele>
        <time>2019-12-30T13:17:41.000Z</time>
      </trkpt>
      <trkpt lat="45.59954" lon="6.61061">
        <ele>2192.1999511719</ele>
        <time>2019-12-30T13:17:43.000Z</time>
      </trkpt>
      <trkpt lat="45.59954" lon="6.61058">
        <ele>2192.8000488281</ele>
        <time>2019-12-30T13:17:48.000Z</time>
      </trkpt>
      <trkpt lat="45.59955" lon="6.61056">
        <ele>2193</ele>
        <time>2019-12-30T13:17:49.000Z</time>
      </trkpt>
      <trkpt lat="45.59955" lon="6.61055">
        <ele>2193.3999023438</ele>
        <time>2019-12-30T13:17:52.000Z</time>
      </trkpt>
      <trkpt lat="45.59955" lon="6.61051">
        <ele>2194</ele>
        <time>2019-12-30T13:17:55.000Z</time>
      </trkpt>
      <trkpt lat="45.59955" lon="6.61049">
        <ele>2194.1999511719</ele>
        <time>2019-12-30T13:17:57.000Z</time>
      </trkpt>
      <trkpt lat="45.59955" lon="6.61046">
        <ele>2194.6000976562</ele>
        <time>2019-12-30T13:18:01.000Z</time>
      </trkpt>
      <trkpt lat="45.59955" lon="6.61043">
        <ele>2195.1999511719</ele>
        <time>2019-12-30T13:18:04.000Z</time>
      </trkpt>
      <trkpt lat="45.59955" lon="6.61042">
        <ele>2195.3999023438</ele>
        <time>2019-12-30T13:18:06.000Z</time>
      </trkpt>
      <trkpt lat="45.59955" lon="6.61042">
        <ele>2196.1999511719</ele>
        <time>2019-12-30T13:18:11.000Z</time>
      </trkpt>
      <trkpt lat="45.59955" lon="6.61042">
        <ele>2196.1999511719</ele>
        <time>2019-12-30T13:18:18.000Z</time>
      </trkpt>
      <trkpt lat="45.59955" lon="6.61039">
        <ele>2196</ele>
        <time>2019-12-30T13:18:28.000Z</time>
      </trkpt>
      <trkpt lat="45.59955" lon="6.61035">
        <ele>2196.6000976562</ele>
        <time>2019-12-30T13:18:34.000Z</time>
      </trkpt>
      <trkpt lat="45.59955" lon="6.61032">
        <ele>2197.1999511719</ele>
        <time>2019-12-30T13:18:38.000Z</time>
      </trkpt>
      <trkpt lat="45.59955" lon="6.61031">
        <ele>2197.6000976562</ele>
        <time>2019-12-30T13:18:40.000Z</time>
      </trkpt>
      <trkpt lat="45.59955" lon="6.61031">
        <ele>2198.3999023438</ele>
        <time>2019-12-30T13:18:42.000Z</time>
      </trkpt>
      <trkpt lat="45.59954" lon="6.61031">
        <ele>2198.3999023438</ele>
        <time>2019-12-30T13:18:53.000Z</time>
      </trkpt>
      <trkpt lat="45.59951" lon="6.61032">
        <ele>2199.1999511719</ele>
        <time>2019-12-30T13:19:00.000Z</time>
      </trkpt>
      <trkpt lat="45.59951" lon="6.61032">
        <ele>2199.1999511719</ele>
        <time>2019-12-30T13:19:01.000Z</time>
      </trkpt>
      <trkpt lat="45.59949" lon="6.61032">
        <ele>2199.6000976562</ele>
        <time>2019-12-30T13:19:04.000Z</time>
      </trkpt>
      <trkpt lat="45.59948" lon="6.61033">
        <ele>2199.8000488281</ele>
        <time>2019-12-30T13:19:05.000Z</time>
      </trkpt>
      <trkpt lat="45.59946" lon="6.61032">
        <ele>2200</ele>
        <time>2019-12-30T13:19:09.000Z</time>
      </trkpt>
      <trkpt lat="45.59943" lon="6.61031">
        <ele>2200.6000976562</ele>
        <time>2019-12-30T13:19:13.000Z</time>
      </trkpt>
      <trkpt lat="45.5994" lon="6.61031">
        <ele>2201.1999511719</ele>
        <time>2019-12-30T13:19:17.000Z</time>
      </trkpt>
      <trkpt lat="45.59937" lon="6.61033">
        <ele>2201.8000488281</ele>
        <time>2019-12-30T13:19:20.000Z</time>
      </trkpt>
      <trkpt lat="45.59936" lon="6.61034">
        <ele>2202.1999511719</ele>
        <time>2019-12-30T13:19:22.000Z</time>
      </trkpt>
      <trkpt lat="45.59933" lon="6.61037">
        <ele>2202.8000488281</ele>
        <time>2019-12-30T13:19:27.000Z</time>
      </trkpt>
      <trkpt lat="45.59932" lon="6.61039">
        <ele>2203.6000976562</ele>
        <time>2019-12-30T13:19:30.000Z</time>
      </trkpt>
      <trkpt lat="45.59929" lon="6.61041">
        <ele>2203.8000488281</ele>
        <time>2019-12-30T13:19:33.000Z</time>
      </trkpt>
      <trkpt lat="45.59927" lon="6.61041">
        <ele>2204.3999023438</ele>
        <time>2019-12-30T13:19:37.000Z</time>
      </trkpt>
      <trkpt lat="45.59927" lon="6.61041">
        <ele>2205</ele>
        <time>2019-12-30T13:19:44.000Z</time>
      </trkpt>
      <trkpt lat="45.59927" lon="6.61041">
        <ele>2205.3999023438</ele>
        <time>2019-12-30T13:19:50.000Z</time>
      </trkpt>
      <trkpt lat="45.59923" lon="6.61044">
        <ele>2206</ele>
        <time>2019-12-30T13:19:57.000Z</time>
      </trkpt>
      <trkpt lat="45.5992" lon="6.6105">
        <ele>2206.6000976562</ele>
        <time>2019-12-30T13:20:04.000Z</time>
      </trkpt>
      <trkpt lat="45.59918" lon="6.61052">
        <ele>2207.1999511719</ele>
        <time>2019-12-30T13:20:07.000Z</time>
      </trkpt>
      <trkpt lat="45.59918" lon="6.61053">
        <ele>2207.3999023438</ele>
        <time>2019-12-30T13:20:08.000Z</time>
      </trkpt>
      <trkpt lat="45.59916" lon="6.61055">
        <ele>2208</ele>
        <time>2019-12-30T13:20:13.000Z</time>
      </trkpt>
      <trkpt lat="45.59915" lon="6.61056">
        <ele>2208.1999511719</ele>
        <time>2019-12-30T13:20:14.000Z</time>
      </trkpt>
      <trkpt lat="45.59914" lon="6.61057">
        <ele>2209</ele>
        <time>2019-12-30T13:20:18.000Z</time>
      </trkpt>
      <trkpt lat="45.59914" lon="6.61057">
        <ele>2209.3999023438</ele>
        <time>2019-12-30T13:20:20.000Z</time>
      </trkpt>
      <trkpt lat="45.59913" lon="6.61058">
        <ele>2210</ele>
        <time>2019-12-30T13:20:23.000Z</time>
      </trkpt>
      <trkpt lat="45.59911" lon="6.6106">
        <ele>2210.6000976562</ele>
        <time>2019-12-30T13:20:28.000Z</time>
      </trkpt>
      <trkpt lat="45.59908" lon="6.61067">
        <ele>2211.6000976562</ele>
        <time>2019-12-30T13:20:34.000Z</time>
      </trkpt>
      <trkpt lat="45.59905" lon="6.61071">
        <ele>2212.6000976562</ele>
        <time>2019-12-30T13:20:40.000Z</time>
      </trkpt>
      <trkpt lat="45.59904" lon="6.61072">
        <ele>2212.8000488281</ele>
        <time>2019-12-30T13:20:41.000Z</time>
      </trkpt>
      <trkpt lat="45.59903" lon="6.61074">
        <ele>2213.3999023438</ele>
        <time>2019-12-30T13:20:44.000Z</time>
      </trkpt>
      <trkpt lat="45.59901" lon="6.61076">
        <ele>2213.8000488281</ele>
        <time>2019-12-30T13:20:48.000Z</time>
      </trkpt>
      <trkpt lat="45.59901" lon="6.61077">
        <ele>2214</ele>
        <time>2019-12-30T13:20:49.000Z</time>
      </trkpt>
      <trkpt lat="45.59898" lon="6.6108">
        <ele>2214.6000976562</ele>
        <time>2019-12-30T13:20:54.000Z</time>
      </trkpt>
      <trkpt lat="45.59896" lon="6.61081">
        <ele>2215</ele>
        <time>2019-12-30T13:20:57.000Z</time>
      </trkpt>
      <trkpt lat="45.59896" lon="6.61081">
        <ele>2215</ele>
        <time>2019-12-30T13:20:58.000Z</time>
      </trkpt>
      <trkpt lat="45.59893" lon="6.61083">
        <ele>2215.3999023438</ele>
        <time>2019-12-30T13:21:02.000Z</time>
      </trkpt>
      <trkpt lat="45.59891" lon="6.61085">
        <ele>2216</ele>
        <time>2019-12-30T13:21:05.000Z</time>
      </trkpt>
      <trkpt lat="45.59889" lon="6.61087">
        <ele>2216.1999511719</ele>
        <time>2019-12-30T13:21:07.000Z</time>
      </trkpt>
      <trkpt lat="45.59888" lon="6.6109">
        <ele>2216.6000976562</ele>
        <time>2019-12-30T13:21:11.000Z</time>
      </trkpt>
      <trkpt lat="45.59885" lon="6.61092">
        <ele>2217</ele>
        <time>2019-12-30T13:21:15.000Z</time>
      </trkpt>
      <trkpt lat="45.59884" lon="6.61093">
        <ele>2217.8000488281</ele>
        <time>2019-12-30T13:21:20.000Z</time>
      </trkpt>
      <trkpt lat="45.59883" lon="6.61094">
        <ele>2218.1999511719</ele>
        <time>2019-12-30T13:21:21.000Z</time>
      </trkpt>
      <trkpt lat="45.59883" lon="6.61095">
        <ele>2218.3999023438</ele>
        <time>2019-12-30T13:21:24.000Z</time>
      </trkpt>
      <trkpt lat="45.5988" lon="6.61098">
        <ele>2219.3999023438</ele>
        <time>2019-12-30T13:21:29.000Z</time>
      </trkpt>
      <trkpt lat="45.59877" lon="6.61103">
        <ele>2220.1999511719</ele>
        <time>2019-12-30T13:21:34.000Z</time>
      </trkpt>
      <trkpt lat="45.59877" lon="6.61104">
        <ele>2220.6000976562</ele>
        <time>2019-12-30T13:21:36.000Z</time>
      </trkpt>
      <trkpt lat="45.59876" lon="6.61106">
        <ele>2221</ele>
        <time>2019-12-30T13:21:40.000Z</time>
      </trkpt>
      <trkpt lat="45.59875" lon="6.61108">
        <ele>2221.3999023438</ele>
        <time>2019-12-30T13:21:44.000Z</time>
      </trkpt>
      <trkpt lat="45.59874" lon="6.61109">
        <ele>2221.6000976562</ele>
        <time>2019-12-30T13:21:45.000Z</time>
      </trkpt>
      <trkpt lat="45.59874" lon="6.6111">
        <ele>2222</ele>
        <time>2019-12-30T13:21:48.000Z</time>
      </trkpt>
      <trkpt lat="45.59871" lon="6.61115">
        <ele>2222.8000488281</ele>
        <time>2019-12-30T13:21:53.000Z</time>
      </trkpt>
      <trkpt lat="45.59868" lon="6.61119">
        <ele>2223.8000488281</ele>
        <time>2019-12-30T13:21:58.000Z</time>
      </trkpt>
      <trkpt lat="45.59868" lon="6.61121">
        <ele>2224</ele>
        <time>2019-12-30T13:22:00.000Z</time>
      </trkpt>
      <trkpt lat="45.59866" lon="6.61125">
        <ele>2224.1999511719</ele>
        <time>2019-12-30T13:22:04.000Z</time>
      </trkpt>
      <trkpt lat="45.59865" lon="6.61127">
        <ele>2224.8000488281</ele>
        <time>2019-12-30T13:22:09.000Z</time>
      </trkpt>
      <trkpt lat="45.59864" lon="6.61127">
        <ele>2225</ele>
        <time>2019-12-30T13:22:10.000Z</time>
      </trkpt>
      <trkpt lat="45.59864" lon="6.61123">
        <ele>2226</ele>
        <time>2019-12-30T13:22:15.000Z</time>
      </trkpt>
      <trkpt lat="45.59863" lon="6.61123">
        <ele>2226.1999511719</ele>
        <time>2019-12-30T13:22:16.000Z</time>
      </trkpt>
      <trkpt lat="45.59862" lon="6.61123">
        <ele>2226.3999023438</ele>
        <time>2019-12-30T13:22:17.000Z</time>
      </trkpt>
      <trkpt lat="45.59859" lon="6.61125">
        <ele>2226.8000488281</ele>
        <time>2019-12-30T13:22:20.000Z</time>
      </trkpt>
      <trkpt lat="45.59859" lon="6.61122">
        <ele>2227.1999511719</ele>
        <time>2019-12-30T13:22:23.000Z</time>
      </trkpt>
      <trkpt lat="45.5986" lon="6.6112">
        <ele>2227.6000976562</ele>
        <time>2019-12-30T13:22:25.000Z</time>
      </trkpt>
      <trkpt lat="45.5986" lon="6.61119">
        <ele>2228.1999511719</ele>
        <time>2019-12-30T13:22:29.000Z</time>
      </trkpt>
      <trkpt lat="45.5986" lon="6.61119">
        <ele>2228.3999023438</ele>
        <time>2019-12-30T13:22:30.000Z</time>
      </trkpt>
      <trkpt lat="45.5986" lon="6.61117">
        <ele>2228.6000976562</ele>
        <time>2019-12-30T13:22:42.000Z</time>
      </trkpt>
      <trkpt lat="45.59859" lon="6.61117">
        <ele>2229.1999511719</ele>
        <time>2019-12-30T13:22:46.000Z</time>
      </trkpt>
      <trkpt lat="45.59859" lon="6.61117">
        <ele>2229.3999023438</ele>
        <time>2019-12-30T13:22:47.000Z</time>
      </trkpt>
      <trkpt lat="45.59857" lon="6.61111">
        <ele>2230</ele>
        <time>2019-12-30T13:22:52.000Z</time>
      </trkpt>
      <trkpt lat="45.59857" lon="6.6111">
        <ele>2230.3999023438</ele>
        <time>2019-12-30T13:22:54.000Z</time>
      </trkpt>
      <trkpt lat="45.59856" lon="6.61108">
        <ele>2230.8000488281</ele>
        <time>2019-12-30T13:22:57.000Z</time>
      </trkpt>
      <trkpt lat="45.59856" lon="6.61105">
        <ele>2231.3999023438</ele>
        <time>2019-12-30T13:23:00.000Z</time>
      </trkpt>
      <trkpt lat="45.59856" lon="6.61104">
        <ele>2231.8000488281</ele>
        <time>2019-12-30T13:23:02.000Z</time>
      </trkpt>
      <trkpt lat="45.59856" lon="6.61102">
        <ele>2232.3999023438</ele>
        <time>2019-12-30T13:23:05.000Z</time>
      </trkpt>
      <trkpt lat="45.59854" lon="6.61102">
        <ele>2232.8000488281</ele>
        <time>2019-12-30T13:23:07.000Z</time>
      </trkpt>
      <trkpt lat="45.59853" lon="6.611">
        <ele>2233.6000976562</ele>
        <time>2019-12-30T13:23:11.000Z</time>
      </trkpt>
      <trkpt lat="45.59852" lon="6.61098">
        <ele>2234</ele>
        <time>2019-12-30T13:23:14.000Z</time>
      </trkpt>
      <trkpt lat="45.59851" lon="6.61096">
        <ele>2234.8000488281</ele>
        <time>2019-12-30T13:23:19.000Z</time>
      </trkpt>
      <trkpt lat="45.5985" lon="6.61096">
        <ele>2235</ele>
        <time>2019-12-30T13:23:24.000Z</time>
      </trkpt>
      <trkpt lat="45.5985" lon="6.61097">
        <ele>2235</ele>
        <time>2019-12-30T13:23:25.000Z</time>
      </trkpt>
      <trkpt lat="45.59847" lon="6.611">
        <ele>2235.1999511719</ele>
        <time>2019-12-30T13:23:30.000Z</time>
      </trkpt>
      <trkpt lat="45.59844" lon="6.611">
        <ele>2235.8000488281</ele>
        <time>2019-12-30T13:23:34.000Z</time>
      </trkpt>
      <trkpt lat="45.59842" lon="6.61102">
        <ele>2236.3999023438</ele>
        <time>2019-12-30T13:23:38.000Z</time>
      </trkpt>
      <trkpt lat="45.59842" lon="6.61102">
        <ele>2236.8000488281</ele>
        <time>2019-12-30T13:23:41.000Z</time>
      </trkpt>
      <trkpt lat="45.59841" lon="6.61104">
        <ele>2237</ele>
        <time>2019-12-30T13:23:43.000Z</time>
      </trkpt>
      <trkpt lat="45.59838" lon="6.61107">
        <ele>2237.8000488281</ele>
        <time>2019-12-30T13:23:47.000Z</time>
      </trkpt>
      <trkpt lat="45.59838" lon="6.61106">
        <ele>2238</ele>
        <time>2019-12-30T13:23:48.000Z</time>
      </trkpt>
      <trkpt lat="45.59836" lon="6.61107">
        <ele>2238.3999023438</ele>
        <time>2019-12-30T13:23:51.000Z</time>
      </trkpt>
      <trkpt lat="45.59836" lon="6.61109">
        <ele>2239</ele>
        <time>2019-12-30T13:23:55.000Z</time>
      </trkpt>
      <trkpt lat="45.59835" lon="6.61109">
        <ele>2239.1999511719</ele>
        <time>2019-12-30T13:23:56.000Z</time>
      </trkpt>
      <trkpt lat="45.59833" lon="6.61112">
        <ele>2239.6000976562</ele>
        <time>2019-12-30T13:24:01.000Z</time>
      </trkpt>
      <trkpt lat="45.59832" lon="6.61114">
        <ele>2240</ele>
        <time>2019-12-30T13:24:05.000Z</time>
      </trkpt>
      <trkpt lat="45.59829" lon="6.61119">
        <ele>2240.8000488281</ele>
        <time>2019-12-30T13:24:11.000Z</time>
      </trkpt>
      <trkpt lat="45.59829" lon="6.61121">
        <ele>2241.1999511719</ele>
        <time>2019-12-30T13:24:13.000Z</time>
      </trkpt>
      <trkpt lat="45.59829" lon="6.61123">
        <ele>2241.6000976562</ele>
        <time>2019-12-30T13:24:15.000Z</time>
      </trkpt>
      <trkpt lat="45.59827" lon="6.61126">
        <ele>2242.3999023438</ele>
        <time>2019-12-30T13:24:19.000Z</time>
      </trkpt>
      <trkpt lat="45.59825" lon="6.61129">
        <ele>2242.6000976562</ele>
        <time>2019-12-30T13:24:22.000Z</time>
      </trkpt>
      <trkpt lat="45.59823" lon="6.61132">
        <ele>2243.1999511719</ele>
        <time>2019-12-30T13:24:27.000Z</time>
      </trkpt>
      <trkpt lat="45.59823" lon="6.61133">
        <ele>2243.3999023438</ele>
        <time>2019-12-30T13:24:29.000Z</time>
      </trkpt>
      <trkpt lat="45.59822" lon="6.61133">
        <ele>2243.8000488281</ele>
        <time>2019-12-30T13:24:32.000Z</time>
      </trkpt>
      <trkpt lat="45.59819" lon="6.61137">
        <ele>2244.3999023438</ele>
        <time>2019-12-30T13:24:38.000Z</time>
      </trkpt>
      <trkpt lat="45.59818" lon="6.61139">
        <ele>2244.6000976562</ele>
        <time>2019-12-30T13:24:39.000Z</time>
      </trkpt>
      <trkpt lat="45.59816" lon="6.61143">
        <ele>2245.6000976562</ele>
        <time>2019-12-30T13:24:43.000Z</time>
      </trkpt>
      <trkpt lat="45.59816" lon="6.61143">
        <ele>2245.6000976562</ele>
        <time>2019-12-30T13:24:44.000Z</time>
      </trkpt>
      <trkpt lat="45.59814" lon="6.61149">
        <ele>2246.6000976562</ele>
        <time>2019-12-30T13:24:51.000Z</time>
      </trkpt>
      <trkpt lat="45.59813" lon="6.6115">
        <ele>2246.6000976562</ele>
        <time>2019-12-30T13:24:52.000Z</time>
      </trkpt>
      <trkpt lat="45.59813" lon="6.61152">
        <ele>2247.1999511719</ele>
        <time>2019-12-30T13:24:56.000Z</time>
      </trkpt>
      <trkpt lat="45.59813" lon="6.61153">
        <ele>2247.6000976562</ele>
        <time>2019-12-30T13:24:58.000Z</time>
      </trkpt>
      <trkpt lat="45.59812" lon="6.61155">
        <ele>2248.3999023438</ele>
        <time>2019-12-30T13:25:02.000Z</time>
      </trkpt>
      <trkpt lat="45.59812" lon="6.61157">
        <ele>2248.6000976562</ele>
        <time>2019-12-30T13:25:04.000Z</time>
      </trkpt>
      <trkpt lat="45.59812" lon="6.61161">
        <ele>2249.1999511719</ele>
        <time>2019-12-30T13:25:07.000Z</time>
      </trkpt>
      <trkpt lat="45.59811" lon="6.61162">
        <ele>2249.8000488281</ele>
        <time>2019-12-30T13:25:11.000Z</time>
      </trkpt>
      <trkpt lat="45.59812" lon="6.61163">
        <ele>2250</ele>
        <time>2019-12-30T13:25:13.000Z</time>
      </trkpt>
      <trkpt lat="45.59811" lon="6.61167">
        <ele>2250.3999023438</ele>
        <time>2019-12-30T13:25:19.000Z</time>
      </trkpt>
      <trkpt lat="45.59809" lon="6.61172">
        <ele>2250.8000488281</ele>
        <time>2019-12-30T13:25:23.000Z</time>
      </trkpt>
      <trkpt lat="45.59808" lon="6.61175">
        <ele>2251.1999511719</ele>
        <time>2019-12-30T13:25:25.000Z</time>
      </trkpt>
      <trkpt lat="45.59807" lon="6.6118">
        <ele>2252</ele>
        <time>2019-12-30T13:25:30.000Z</time>
      </trkpt>
      <trkpt lat="45.59807" lon="6.6118">
        <ele>2252.1999511719</ele>
        <time>2019-12-30T13:25:31.000Z</time>
      </trkpt>
      <trkpt lat="45.59807" lon="6.61184">
        <ele>2253</ele>
        <time>2019-12-30T13:25:35.000Z</time>
      </trkpt>
      <trkpt lat="45.59806" lon="6.61186">
        <ele>2253.3999023438</ele>
        <time>2019-12-30T13:25:38.000Z</time>
      </trkpt>
      <trkpt lat="45.59806" lon="6.61188">
        <ele>2254.1999511719</ele>
        <time>2019-12-30T13:25:42.000Z</time>
      </trkpt>
      <trkpt lat="45.59804" lon="6.61192">
        <ele>2254.6000976562</ele>
        <time>2019-12-30T13:25:45.000Z</time>
      </trkpt>
      <trkpt lat="45.59804" lon="6.61195">
        <ele>2255.1999511719</ele>
        <time>2019-12-30T13:25:49.000Z</time>
      </trkpt>
      <trkpt lat="45.59802" lon="6.61198">
        <ele>2255.6000976562</ele>
        <time>2019-12-30T13:25:51.000Z</time>
      </trkpt>
      <trkpt lat="45.59802" lon="6.61198">
        <ele>2256.1999511719</ele>
        <time>2019-12-30T13:25:53.000Z</time>
      </trkpt>
      <trkpt lat="45.59802" lon="6.61202">
        <ele>2256.6000976562</ele>
        <time>2019-12-30T13:25:57.000Z</time>
      </trkpt>
      <trkpt lat="45.59801" lon="6.61204">
        <ele>2257.1999511719</ele>
        <time>2019-12-30T13:26:02.000Z</time>
      </trkpt>
      <trkpt lat="45.598" lon="6.61205">
        <ele>2258</ele>
        <time>2019-12-30T13:26:09.000Z</time>
      </trkpt>
      <trkpt lat="45.598" lon="6.61205">
        <ele>2258.1999511719</ele>
        <time>2019-12-30T13:26:14.000Z</time>
      </trkpt>
      <trkpt lat="45.598" lon="6.61205">
        <ele>2258.1999511719</ele>
        <time>2019-12-30T13:26:16.000Z</time>
      </trkpt>
      <trkpt lat="45.598" lon="6.61205">
        <ele>2259</ele>
        <time>2019-12-30T13:26:32.000Z</time>
      </trkpt>
      <trkpt lat="45.598" lon="6.61205">
        <ele>2258.6000976562</ele>
        <time>2019-12-30T13:26:45.000Z</time>
      </trkpt>
      <trkpt lat="45.59798" lon="6.61213">
        <ele>2258.6000976562</ele>
        <time>2019-12-30T13:26:51.000Z</time>
      </trkpt>
      <trkpt lat="45.59797" lon="6.61214">
        <ele>2259.3999023438</ele>
        <time>2019-12-30T13:26:55.000Z</time>
      </trkpt>
      <trkpt lat="45.59797" lon="6.61216">
        <ele>2259.6000976562</ele>
        <time>2019-12-30T13:26:57.000Z</time>
      </trkpt>
      <trkpt lat="45.59794" lon="6.61222">
        <ele>2260.3999023438</ele>
        <time>2019-12-30T13:27:03.000Z</time>
      </trkpt>
      <trkpt lat="45.59793" lon="6.61227">
        <ele>2261.6000976562</ele>
        <time>2019-12-30T13:27:08.000Z</time>
      </trkpt>
      <trkpt lat="45.59793" lon="6.61228">
        <ele>2261.8000488281</ele>
        <time>2019-12-30T13:27:09.000Z</time>
      </trkpt>
      <trkpt lat="45.59792" lon="6.61232">
        <ele>2262.6000976562</ele>
        <time>2019-12-30T13:27:15.000Z</time>
      </trkpt>
      <trkpt lat="45.59792" lon="6.61233">
        <ele>2262.8000488281</ele>
        <time>2019-12-30T13:27:16.000Z</time>
      </trkpt>
      <trkpt lat="45.5979" lon="6.61239">
        <ele>2263.6000976562</ele>
        <time>2019-12-30T13:27:21.000Z</time>
      </trkpt>
      <trkpt lat="45.5979" lon="6.6124">
        <ele>2264</ele>
        <time>2019-12-30T13:27:23.000Z</time>
      </trkpt>
      <trkpt lat="45.5979" lon="6.61245">
        <ele>2265</ele>
        <time>2019-12-30T13:27:29.000Z</time>
      </trkpt>
      <trkpt lat="45.59789" lon="6.6125">
        <ele>2266</ele>
        <time>2019-12-30T13:27:35.000Z</time>
      </trkpt>
      <trkpt lat="45.59788" lon="6.6125">
        <ele>2266.1999511719</ele>
        <time>2019-12-30T13:27:36.000Z</time>
      </trkpt>
      <trkpt lat="45.59787" lon="6.61258">
        <ele>2267.1999511719</ele>
        <time>2019-12-30T13:27:42.000Z</time>
      </trkpt>
      <trkpt lat="45.59787" lon="6.61258">
        <ele>2267.1999511719</ele>
        <time>2019-12-30T13:27:43.000Z</time>
      </trkpt>
      <trkpt lat="45.59787" lon="6.61258">
        <ele>2268.3999023438</ele>
        <time>2019-12-30T13:27:48.000Z</time>
      </trkpt>
      <trkpt lat="45.59787" lon="6.61258">
        <ele>2268.6000976562</ele>
        <time>2019-12-30T13:27:50.000Z</time>
      </trkpt>
      <trkpt lat="45.59787" lon="6.61258">
        <ele>2268.3999023438</ele>
        <time>2019-12-30T13:28:03.000Z</time>
      </trkpt>
      <trkpt lat="45.59787" lon="6.61258">
        <ele>2268.6000976562</ele>
        <time>2019-12-30T13:28:18.000Z</time>
      </trkpt>
      <trkpt lat="45.59786" lon="6.61259">
        <ele>2268.6000976562</ele>
        <time>2019-12-30T13:28:37.000Z</time>
      </trkpt>
      <trkpt lat="45.59786" lon="6.61259">
        <ele>2268</ele>
        <time>2019-12-30T13:28:51.000Z</time>
      </trkpt>
      <trkpt lat="45.59788" lon="6.61256">
        <ele>2268</ele>
        <time>2019-12-30T13:29:04.000Z</time>
      </trkpt>
      <trkpt lat="45.59788" lon="6.61256">
        <ele>2268.8000488281</ele>
        <time>2019-12-30T13:29:19.000Z</time>
      </trkpt>
      <trkpt lat="45.59788" lon="6.61256">
        <ele>2268.6000976562</ele>
        <time>2019-12-30T13:29:34.000Z</time>
      </trkpt>
      <trkpt lat="45.59788" lon="6.61256">
        <ele>2268.3999023438</ele>
        <time>2019-12-30T13:29:51.000Z</time>
      </trkpt>
      <trkpt lat="45.59788" lon="6.61256">
        <ele>2268.3999023438</ele>
        <time>2019-12-30T13:30:04.000Z</time>
      </trkpt>
      <trkpt lat="45.59788" lon="6.61256">
        <ele>2268.3999023438</ele>
        <time>2019-12-30T13:30:15.000Z</time>
      </trkpt>
      <trkpt lat="45.59789" lon="6.61255">
        <ele>2268.3999023438</ele>
        <time>2019-12-30T13:30:26.000Z</time>
      </trkpt>
      <trkpt lat="45.59788" lon="6.61257">
        <ele>2268.8000488281</ele>
        <time>2019-12-30T13:30:32.000Z</time>
      </trkpt>
      <trkpt lat="45.59787" lon="6.61262">
        <ele>2269.3999023438</ele>
        <time>2019-12-30T13:30:36.000Z</time>
      </trkpt>
      <trkpt lat="45.59787" lon="6.61263">
        <ele>2269.6000976562</ele>
        <time>2019-12-30T13:30:38.000Z</time>
      </trkpt>
      <trkpt lat="45.59785" lon="6.61269">
        <ele>2270.3999023438</ele>
        <time>2019-12-30T13:30:44.000Z</time>
      </trkpt>
      <trkpt lat="45.59782" lon="6.61276">
        <ele>2271.6000976562</ele>
        <time>2019-12-30T13:30:50.000Z</time>
      </trkpt>
      <trkpt lat="45.5978" lon="6.61279">
        <ele>2272.6000976562</ele>
        <time>2019-12-30T13:30:55.000Z</time>
      </trkpt>
      <trkpt lat="45.59781" lon="6.61279">
        <ele>2272.8000488281</ele>
        <time>2019-12-30T13:30:56.000Z</time>
      </trkpt>
      <trkpt lat="45.5978" lon="6.61284">
        <ele>2273.8000488281</ele>
        <time>2019-12-30T13:31:01.000Z</time>
      </trkpt>
      <trkpt lat="45.5978" lon="6.61284">
        <ele>2273.8000488281</ele>
        <time>2019-12-30T13:31:02.000Z</time>
      </trkpt>
      <trkpt lat="45.59779" lon="6.61287">
        <ele>2274.8000488281</ele>
        <time>2019-12-30T13:31:06.000Z</time>
      </trkpt>
      <trkpt lat="45.59778" lon="6.61292">
        <ele>2275.3999023438</ele>
        <time>2019-12-30T13:31:09.000Z</time>
      </trkpt>
      <trkpt lat="45.59778" lon="6.61295">
        <ele>2275.8000488281</ele>
        <time>2019-12-30T13:31:13.000Z</time>
      </trkpt>
      <trkpt lat="45.59777" lon="6.61297">
        <ele>2276.3999023438</ele>
        <time>2019-12-30T13:31:16.000Z</time>
      </trkpt>
      <trkpt lat="45.59777" lon="6.61301">
        <ele>2277</ele>
        <time>2019-12-30T13:31:19.000Z</time>
      </trkpt>
      <trkpt lat="45.59777" lon="6.61304">
        <ele>2277.8000488281</ele>
        <time>2019-12-30T13:31:23.000Z</time>
      </trkpt>
      <trkpt lat="45.59776" lon="6.61306">
        <ele>2278.1999511719</ele>
        <time>2019-12-30T13:31:25.000Z</time>
      </trkpt>
      <trkpt lat="45.59775" lon="6.6131">
        <ele>2279</ele>
        <time>2019-12-30T13:31:30.000Z</time>
      </trkpt>
      <trkpt lat="45.59775" lon="6.61312">
        <ele>2279.1999511719</ele>
        <time>2019-12-30T13:31:32.000Z</time>
      </trkpt>
      <trkpt lat="45.59775" lon="6.61312">
        <ele>2279.6000976562</ele>
        <time>2019-12-30T13:31:36.000Z</time>
      </trkpt>
      <trkpt lat="45.59775" lon="6.61308">
        <ele>2280.3999023438</ele>
        <time>2019-12-30T13:31:42.000Z</time>
      </trkpt>
      <trkpt lat="45.59775" lon="6.61306">
        <ele>2280.8000488281</ele>
        <time>2019-12-30T13:31:44.000Z</time>
      </trkpt>
      <trkpt lat="45.59774" lon="6.61305">
        <ele>2280.8000488281</ele>
        <time>2019-12-30T13:31:46.000Z</time>
      </trkpt>
      <trkpt lat="45.59773" lon="6.61303">
        <ele>2281.1999511719</ele>
        <time>2019-12-30T13:31:50.000Z</time>
      </trkpt>
      <trkpt lat="45.59772" lon="6.61301">
        <ele>2281.3999023438</ele>
        <time>2019-12-30T13:31:52.000Z</time>
      </trkpt>
      <trkpt lat="45.5977" lon="6.61301">
        <ele>2282.1999511719</ele>
        <time>2019-12-30T13:31:56.000Z</time>
      </trkpt>
      <trkpt lat="45.59768" lon="6.613">
        <ele>2282.3999023438</ele>
        <time>2019-12-30T13:31:58.000Z</time>
      </trkpt>
      <trkpt lat="45.59765" lon="6.61299">
        <ele>2283.1999511719</ele>
        <time>2019-12-30T13:32:04.000Z</time>
      </trkpt>
      <trkpt lat="45.59763" lon="6.61298">
        <ele>2283.6000976562</ele>
        <time>2019-12-30T13:32:07.000Z</time>
      </trkpt>
      <trkpt lat="45.59762" lon="6.61296">
        <ele>2284.1999511719</ele>
        <time>2019-12-30T13:32:11.000Z</time>
      </trkpt>
      <trkpt lat="45.5976" lon="6.61295">
        <ele>2284.6000976562</ele>
        <time>2019-12-30T13:32:14.000Z</time>
      </trkpt>
      <trkpt lat="45.5976" lon="6.61291">
        <ele>2285.1999511719</ele>
        <time>2019-12-30T13:32:18.000Z</time>
      </trkpt>
      <trkpt lat="45.59759" lon="6.61288">
        <ele>2285.6000976562</ele>
        <time>2019-12-30T13:32:21.000Z</time>
      </trkpt>
      <trkpt lat="45.59757" lon="6.61286">
        <ele>2286.3999023438</ele>
        <time>2019-12-30T13:32:25.000Z</time>
      </trkpt>
      <trkpt lat="45.59756" lon="6.61284">
        <ele>2286.8000488281</ele>
        <time>2019-12-30T13:32:27.000Z</time>
      </trkpt>
      <trkpt lat="45.59755" lon="6.61282">
        <ele>2287.8000488281</ele>
        <time>2019-12-30T13:32:32.000Z</time>
      </trkpt>
      <trkpt lat="45.59754" lon="6.61282">
        <ele>2288</ele>
        <time>2019-12-30T13:32:33.000Z</time>
      </trkpt>
      <trkpt lat="45.59752" lon="6.61277">
        <ele>2288.8000488281</ele>
        <time>2019-12-30T13:32:39.000Z</time>
      </trkpt>
      <trkpt lat="45.5975" lon="6.61277">
        <ele>2289</ele>
        <time>2019-12-30T13:32:41.000Z</time>
      </trkpt>
      <trkpt lat="45.59748" lon="6.61275">
        <ele>2290</ele>
        <time>2019-12-30T13:32:46.000Z</time>
      </trkpt>
      <trkpt lat="45.59747" lon="6.61275">
        <ele>2290</ele>
        <time>2019-12-30T13:32:47.000Z</time>
      </trkpt>
      <trkpt lat="45.59741" lon="6.6127">
        <ele>2291.1999511719</ele>
        <time>2019-12-30T13:32:53.000Z</time>
      </trkpt>
      <trkpt lat="45.59741" lon="6.61271">
        <ele>2291.8000488281</ele>
        <time>2019-12-30T13:33:00.000Z</time>
      </trkpt>
      <trkpt lat="45.59741" lon="6.61271">
        <ele>2292.6000976562</ele>
        <time>2019-12-30T13:33:07.000Z</time>
      </trkpt>
      <trkpt lat="45.59741" lon="6.61273">
        <ele>2293</ele>
        <time>2019-12-30T13:33:11.000Z</time>
      </trkpt>
      <trkpt lat="45.5974" lon="6.6128">
        <ele>2292.8000488281</ele>
        <time>2019-12-30T13:33:18.000Z</time>
      </trkpt>
      <trkpt lat="45.59738" lon="6.61286">
        <ele>2293.6000976562</ele>
        <time>2019-12-30T13:33:23.000Z</time>
      </trkpt>
      <trkpt lat="45.59738" lon="6.61289">
        <ele>2294</ele>
        <time>2019-12-30T13:33:25.000Z</time>
      </trkpt>
      <trkpt lat="45.59738" lon="6.61292">
        <ele>2294.8000488281</ele>
        <time>2019-12-30T13:33:28.000Z</time>
      </trkpt>
      <trkpt lat="45.59738" lon="6.61293">
        <ele>2295.1999511719</ele>
        <time>2019-12-30T13:33:31.000Z</time>
      </trkpt>
      <trkpt lat="45.59738" lon="6.61296">
        <ele>2296</ele>
        <time>2019-12-30T13:33:35.000Z</time>
      </trkpt>
      <trkpt lat="45.59738" lon="6.61297">
        <ele>2296.3999023438</ele>
        <time>2019-12-30T13:33:37.000Z</time>
      </trkpt>
      <trkpt lat="45.59738" lon="6.61303">
        <ele>2297.1999511719</ele>
        <time>2019-12-30T13:33:43.000Z</time>
      </trkpt>
      <trkpt lat="45.59738" lon="6.61304">
        <ele>2297.1999511719</ele>
        <time>2019-12-30T13:33:44.000Z</time>
      </trkpt>
      <trkpt lat="45.59738" lon="6.6131">
        <ele>2298.1999511719</ele>
        <time>2019-12-30T13:33:50.000Z</time>
      </trkpt>
      <trkpt lat="45.59738" lon="6.61315">
        <ele>2299.1999511719</ele>
        <time>2019-12-30T13:33:55.000Z</time>
      </trkpt>
      <trkpt lat="45.59738" lon="6.61315">
        <ele>2299.3999023438</ele>
        <time>2019-12-30T13:33:56.000Z</time>
      </trkpt>
      <trkpt lat="45.5974" lon="6.61319">
        <ele>2300.1999511719</ele>
        <time>2019-12-30T13:34:02.000Z</time>
      </trkpt>
      <trkpt lat="45.5974" lon="6.61325">
        <ele>2301</ele>
        <time>2019-12-30T13:34:08.000Z</time>
      </trkpt>
      <trkpt lat="45.5974" lon="6.6133">
        <ele>2301.3999023438</ele>
        <time>2019-12-30T13:34:12.000Z</time>
      </trkpt>
      <trkpt lat="45.5974" lon="6.6133">
        <ele>2301.8000488281</ele>
        <time>2019-12-30T13:34:14.000Z</time>
      </trkpt>
      <trkpt lat="45.59741" lon="6.61332">
        <ele>2302.3999023438</ele>
        <time>2019-12-30T13:34:19.000Z</time>
      </trkpt>
      <trkpt lat="45.59741" lon="6.61333">
        <ele>2302.6000976562</ele>
        <time>2019-12-30T13:34:21.000Z</time>
      </trkpt>
      <trkpt lat="45.59743" lon="6.61338">
        <ele>2303.3999023438</ele>
        <time>2019-12-30T13:34:27.000Z</time>
      </trkpt>
      <trkpt lat="45.59743" lon="6.6134">
        <ele>2303.3999023438</ele>
        <time>2019-12-30T13:34:28.000Z</time>
      </trkpt>
      <trkpt lat="45.59744" lon="6.61342">
        <ele>2303.6000976562</ele>
        <time>2019-12-30T13:34:31.000Z</time>
      </trkpt>
      <trkpt lat="45.59746" lon="6.61346">
        <ele>2304.3999023438</ele>
        <time>2019-12-30T13:34:36.000Z</time>
      </trkpt>
      <trkpt lat="45.59746" lon="6.61348">
        <ele>2304.6000976562</ele>
        <time>2019-12-30T13:34:37.000Z</time>
      </trkpt>
      <trkpt lat="45.59747" lon="6.6135">
        <ele>2305.1999511719</ele>
        <time>2019-12-30T13:34:40.000Z</time>
      </trkpt>
      <trkpt lat="45.59748" lon="6.61352">
        <ele>2305.6000976562</ele>
        <time>2019-12-30T13:34:44.000Z</time>
      </trkpt>
      <trkpt lat="45.5975" lon="6.61357">
        <ele>2306.1999511719</ele>
        <time>2019-12-30T13:34:48.000Z</time>
      </trkpt>
      <trkpt lat="45.5975" lon="6.61358">
        <ele>2306.6000976562</ele>
        <time>2019-12-30T13:34:50.000Z</time>
      </trkpt>
      <trkpt lat="45.59752" lon="6.61361">
        <ele>2307</ele>
        <time>2019-12-30T13:34:53.000Z</time>
      </trkpt>
      <trkpt lat="45.59751" lon="6.61363">
        <ele>2307.3999023438</ele>
        <time>2019-12-30T13:34:58.000Z</time>
      </trkpt>
      <trkpt lat="45.5975" lon="6.61363">
        <ele>2307.6000976562</ele>
        <time>2019-12-30T13:34:59.000Z</time>
      </trkpt>
      <trkpt lat="45.5975" lon="6.61363">
        <ele>2308</ele>
        <time>2019-12-30T13:35:00.000Z</time>
      </trkpt>
      <trkpt lat="45.59749" lon="6.61363">
        <ele>2308.8000488281</ele>
        <time>2019-12-30T13:35:03.000Z</time>
      </trkpt>
      <trkpt lat="45.59749" lon="6.61363">
        <ele>2309</ele>
        <time>2019-12-30T13:35:04.000Z</time>
      </trkpt>
      <trkpt lat="45.59747" lon="6.61364">
        <ele>2309.1999511719</ele>
        <time>2019-12-30T13:35:11.000Z</time>
      </trkpt>
      <trkpt lat="45.59746" lon="6.61363">
        <ele>2309.6000976562</ele>
        <time>2019-12-30T13:35:16.000Z</time>
      </trkpt>
      <trkpt lat="45.59745" lon="6.61364">
        <ele>2310</ele>
        <time>2019-12-30T13:35:18.000Z</time>
      </trkpt>
      <trkpt lat="45.59744" lon="6.61364">
        <ele>2310.6000976562</ele>
        <time>2019-12-30T13:35:21.000Z</time>
      </trkpt>
      <trkpt lat="45.59743" lon="6.61363">
        <ele>2311.1999511719</ele>
        <time>2019-12-30T13:35:26.000Z</time>
      </trkpt>
      <trkpt lat="45.59741" lon="6.61361">
        <ele>2312.1999511719</ele>
        <time>2019-12-30T13:35:31.000Z</time>
      </trkpt>
      <trkpt lat="45.59739" lon="6.6136">
        <ele>2313.1999511719</ele>
        <time>2019-12-30T13:35:37.000Z</time>
      </trkpt>
      <trkpt lat="45.59738" lon="6.6136">
        <ele>2313.1999511719</ele>
        <time>2019-12-30T13:35:38.000Z</time>
      </trkpt>
      <trkpt lat="45.59735" lon="6.61359">
        <ele>2314</ele>
        <time>2019-12-30T13:35:43.000Z</time>
      </trkpt>
      <trkpt lat="45.59734" lon="6.61357">
        <ele>2314.3999023438</ele>
        <time>2019-12-30T13:35:45.000Z</time>
      </trkpt>
      <trkpt lat="45.59732" lon="6.61355">
        <ele>2314.8000488281</ele>
        <time>2019-12-30T13:35:49.000Z</time>
      </trkpt>
      <trkpt lat="45.59732" lon="6.61354">
        <ele>2315.3999023438</ele>
        <time>2019-12-30T13:35:53.000Z</time>
      </trkpt>
      <trkpt lat="45.59732" lon="6.61354">
        <ele>2315.8000488281</ele>
        <time>2019-12-30T13:35:57.000Z</time>
      </trkpt>
      <trkpt lat="45.59731" lon="6.61355">
        <ele>2315.6000976562</ele>
        <time>2019-12-30T13:36:03.000Z</time>
      </trkpt>
      <trkpt lat="45.5973" lon="6.61355">
        <ele>2316.3999023438</ele>
        <time>2019-12-30T13:36:08.000Z</time>
      </trkpt>
      <trkpt lat="45.5973" lon="6.61355">
        <ele>2316.3999023438</ele>
        <time>2019-12-30T13:36:10.000Z</time>
      </trkpt>
      <trkpt lat="45.59729" lon="6.61357">
        <ele>2316.6000976562</ele>
        <time>2019-12-30T13:36:18.000Z</time>
      </trkpt>
      <trkpt lat="45.59729" lon="6.61362">
        <ele>2317.1999511719</ele>
        <time>2019-12-30T13:36:24.000Z</time>
      </trkpt>
      <trkpt lat="45.59729" lon="6.61364">
        <ele>2317.3999023438</ele>
        <time>2019-12-30T13:36:27.000Z</time>
      </trkpt>
      <trkpt lat="45.59729" lon="6.61365">
        <ele>2317.8000488281</ele>
        <time>2019-12-30T13:36:29.000Z</time>
      </trkpt>
      <trkpt lat="45.59729" lon="6.61371">
        <ele>2318.3999023438</ele>
        <time>2019-12-30T13:36:35.000Z</time>
      </trkpt>
      <trkpt lat="45.5973" lon="6.61372">
        <ele>2318.3999023438</ele>
        <time>2019-12-30T13:36:36.000Z</time>
      </trkpt>
      <trkpt lat="45.5973" lon="6.61379">
        <ele>2319.8000488281</ele>
        <time>2019-12-30T13:36:42.000Z</time>
      </trkpt>
      <trkpt lat="45.5973" lon="6.61384">
        <ele>2320.6000976562</ele>
        <time>2019-12-30T13:36:47.000Z</time>
      </trkpt>
      <trkpt lat="45.5973" lon="6.61386">
        <ele>2320.8000488281</ele>
        <time>2019-12-30T13:36:48.000Z</time>
      </trkpt>
      <trkpt lat="45.59729" lon="6.61394">
        <ele>2321.3999023438</ele>
        <time>2019-12-30T13:36:54.000Z</time>
      </trkpt>
      <trkpt lat="45.5973" lon="6.61397">
        <ele>2321.8000488281</ele>
        <time>2019-12-30T13:36:57.000Z</time>
      </trkpt>
      <trkpt lat="45.59729" lon="6.614">
        <ele>2322.1999511719</ele>
        <time>2019-12-30T13:36:59.000Z</time>
      </trkpt>
      <trkpt lat="45.5973" lon="6.61404">
        <ele>2323</ele>
        <time>2019-12-30T13:37:03.000Z</time>
      </trkpt>
      <trkpt lat="45.5973" lon="6.61406">
        <ele>2323.6000976562</ele>
        <time>2019-12-30T13:37:05.000Z</time>
      </trkpt>
      <trkpt lat="45.59731" lon="6.61409">
        <ele>2324.1999511719</ele>
        <time>2019-12-30T13:37:08.000Z</time>
      </trkpt>
      <trkpt lat="45.59731" lon="6.61413">
        <ele>2324.6000976562</ele>
        <time>2019-12-30T13:37:11.000Z</time>
      </trkpt>
      <trkpt lat="45.59732" lon="6.61419">
        <ele>2325.3999023438</ele>
        <time>2019-12-30T13:37:16.000Z</time>
      </trkpt>
      <trkpt lat="45.59733" lon="6.61426">
        <ele>2326.1999511719</ele>
        <time>2019-12-30T13:37:22.000Z</time>
      </trkpt>
      <trkpt lat="45.59733" lon="6.61427">
        <ele>2326.3999023438</ele>
        <time>2019-12-30T13:37:23.000Z</time>
      </trkpt>
      <trkpt lat="45.59734" lon="6.61431">
        <ele>2326.8000488281</ele>
        <time>2019-12-30T13:37:27.000Z</time>
      </trkpt>
      <trkpt lat="45.59734" lon="6.61435">
        <ele>2327.3999023438</ele>
        <time>2019-12-30T13:37:30.000Z</time>
      </trkpt>
      <trkpt lat="45.59735" lon="6.61437">
        <ele>2327.6000976562</ele>
        <time>2019-12-30T13:37:33.000Z</time>
      </trkpt>
      <trkpt lat="45.59736" lon="6.61441">
        <ele>2328.3999023438</ele>
        <time>2019-12-30T13:37:39.000Z</time>
      </trkpt>
      <trkpt lat="45.59736" lon="6.61442">
        <ele>2328.3999023438</ele>
        <time>2019-12-30T13:37:40.000Z</time>
      </trkpt>
      <trkpt lat="45.59737" lon="6.61446">
        <ele>2329.1999511719</ele>
        <time>2019-12-30T13:37:44.000Z</time>
      </trkpt>
      <trkpt lat="45.59738" lon="6.61449">
        <ele>2329.6000976562</ele>
        <time>2019-12-30T13:37:48.000Z</time>
      </trkpt>
      <trkpt lat="45.59738" lon="6.6145">
        <ele>2329.8000488281</ele>
        <time>2019-12-30T13:37:49.000Z</time>
      </trkpt>
      <trkpt lat="45.59739" lon="6.61454">
        <ele>2330.6000976562</ele>
        <time>2019-12-30T13:37:53.000Z</time>
      </trkpt>
      <trkpt lat="45.59739" lon="6.61455">
        <ele>2330.8000488281</ele>
        <time>2019-12-30T13:37:54.000Z</time>
      </trkpt>
      <trkpt lat="45.5974" lon="6.61458">
        <ele>2331.3999023438</ele>
        <time>2019-12-30T13:37:58.000Z</time>
      </trkpt>
      <trkpt lat="45.5974" lon="6.61459">
        <ele>2331.8000488281</ele>
        <time>2019-12-30T13:38:00.000Z</time>
      </trkpt>
      <trkpt lat="45.59742" lon="6.61462">
        <ele>2332.6000976562</ele>
        <time>2019-12-30T13:38:04.000Z</time>
      </trkpt>
      <trkpt lat="45.59743" lon="6.61463">
        <ele>2333</ele>
        <time>2019-12-30T13:38:06.000Z</time>
      </trkpt>
      <trkpt lat="45.59743" lon="6.61464">
        <ele>2333.1999511719</ele>
        <time>2019-12-30T13:38:08.000Z</time>
      </trkpt>
      <trkpt lat="45.59746" lon="6.61466">
        <ele>2334</ele>
        <time>2019-12-30T13:38:13.000Z</time>
      </trkpt>
      <trkpt lat="45.59748" lon="6.61468">
        <ele>2334.8000488281</ele>
        <time>2019-12-30T13:38:18.000Z</time>
      </trkpt>
      <trkpt lat="45.59749" lon="6.61468">
        <ele>2335</ele>
        <time>2019-12-30T13:38:20.000Z</time>
      </trkpt>
      <trkpt lat="45.5975" lon="6.61469">
        <ele>2335.3999023438</ele>
        <time>2019-12-30T13:38:22.000Z</time>
      </trkpt>
      <trkpt lat="45.59752" lon="6.61469">
        <ele>2336.1999511719</ele>
        <time>2019-12-30T13:38:25.000Z</time>
      </trkpt>
      <trkpt lat="45.59754" lon="6.61469">
        <ele>2336.8000488281</ele>
        <time>2019-12-30T13:38:28.000Z</time>
      </trkpt>
      <trkpt lat="45.59758" lon="6.61468">
        <ele>2337.3999023438</ele>
        <time>2019-12-30T13:38:32.000Z</time>
      </trkpt>
      <trkpt lat="45.5976" lon="6.61468">
        <ele>2337.8000488281</ele>
        <time>2019-12-30T13:38:34.000Z</time>
      </trkpt>
      <trkpt lat="45.59762" lon="6.61466">
        <ele>2338.3999023438</ele>
        <time>2019-12-30T13:38:37.000Z</time>
      </trkpt>
      <trkpt lat="45.59763" lon="6.61465">
        <ele>2338.8000488281</ele>
        <time>2019-12-30T13:38:39.000Z</time>
      </trkpt>
      <trkpt lat="45.59765" lon="6.61465">
        <ele>2339.3999023438</ele>
        <time>2019-12-30T13:38:42.000Z</time>
      </trkpt>
      <trkpt lat="45.59768" lon="6.61464">
        <ele>2339.8000488281</ele>
        <time>2019-12-30T13:38:46.000Z</time>
      </trkpt>
      <trkpt lat="45.5977" lon="6.61464">
        <ele>2340.6000976562</ele>
        <time>2019-12-30T13:38:50.000Z</time>
      </trkpt>
      <trkpt lat="45.59771" lon="6.61463">
        <ele>2340.8000488281</ele>
        <time>2019-12-30T13:38:51.000Z</time>
      </trkpt>
      <trkpt lat="45.59774" lon="6.61462">
        <ele>2341.6000976562</ele>
        <time>2019-12-30T13:38:55.000Z</time>
      </trkpt>
      <trkpt lat="45.59775" lon="6.61461">
        <ele>2341.8000488281</ele>
        <time>2019-12-30T13:38:57.000Z</time>
      </trkpt>
      <trkpt lat="45.59777" lon="6.61461">
        <ele>2342.6000976562</ele>
        <time>2019-12-30T13:39:02.000Z</time>
      </trkpt>
      <trkpt lat="45.59777" lon="6.61461">
        <ele>2342.8000488281</ele>
        <time>2019-12-30T13:39:03.000Z</time>
      </trkpt>
      <trkpt lat="45.5978" lon="6.61459">
        <ele>2344</ele>
        <time>2019-12-30T13:39:08.000Z</time>
      </trkpt>
      <trkpt lat="45.59781" lon="6.61459">
        <ele>2344</ele>
        <time>2019-12-30T13:39:09.000Z</time>
      </trkpt>
      <trkpt lat="45.59784" lon="6.61458">
        <ele>2345</ele>
        <time>2019-12-30T13:39:14.000Z</time>
      </trkpt>
      <trkpt lat="45.59784" lon="6.61458">
        <ele>2345.1999511719</ele>
        <time>2019-12-30T13:39:15.000Z</time>
      </trkpt>
      <trkpt lat="45.59786" lon="6.61458">
        <ele>2346</ele>
        <time>2019-12-30T13:39:19.000Z</time>
      </trkpt>
      <trkpt lat="45.59787" lon="6.61458">
        <ele>2346.1999511719</ele>
        <time>2019-12-30T13:39:20.000Z</time>
      </trkpt>
      <trkpt lat="45.59791" lon="6.61459">
        <ele>2347.1999511719</ele>
        <time>2019-12-30T13:39:25.000Z</time>
      </trkpt>
      <trkpt lat="45.59794" lon="6.6146">
        <ele>2348.1999511719</ele>
        <time>2019-12-30T13:39:30.000Z</time>
      </trkpt>
      <trkpt lat="45.59794" lon="6.61461">
        <ele>2348.3999023438</ele>
        <time>2019-12-30T13:39:31.000Z</time>
      </trkpt>
      <trkpt lat="45.59794" lon="6.61461">
        <ele>2349</ele>
        <time>2019-12-30T13:39:36.000Z</time>
      </trkpt>
      <trkpt lat="45.59794" lon="6.61461">
        <ele>2349.1999511719</ele>
        <time>2019-12-30T13:39:43.000Z</time>
      </trkpt>
      <trkpt lat="45.59794" lon="6.61461">
        <ele>2349.3999023438</ele>
        <time>2019-12-30T13:39:52.000Z</time>
      </trkpt>
      <trkpt lat="45.59794" lon="6.61461">
        <ele>2349.3999023438</ele>
        <time>2019-12-30T13:40:08.000Z</time>
      </trkpt>
      <trkpt lat="45.59795" lon="6.61463">
        <ele>2350</ele>
        <time>2019-12-30T13:40:14.000Z</time>
      </trkpt>
      <trkpt lat="45.59796" lon="6.61465">
        <ele>2350.1999511719</ele>
        <time>2019-12-30T13:40:15.000Z</time>
      </trkpt>
      <trkpt lat="45.59799" lon="6.61469">
        <ele>2350.1999511719</ele>
        <time>2019-12-30T13:40:18.000Z</time>
      </trkpt>
      <trkpt lat="45.59799" lon="6.61472">
        <ele>2350.3999023438</ele>
        <time>2019-12-30T13:40:20.000Z</time>
      </trkpt>
      <trkpt lat="45.59799" lon="6.61476">
        <ele>2350.6000976562</ele>
        <time>2019-12-30T13:40:23.000Z</time>
      </trkpt>
      <trkpt lat="45.59798" lon="6.61481">
        <ele>2351.3999023438</ele>
        <time>2019-12-30T13:40:27.000Z</time>
      </trkpt>
      <trkpt lat="45.59798" lon="6.61487">
        <ele>2352</ele>
        <time>2019-12-30T13:40:31.000Z</time>
      </trkpt>
      <trkpt lat="45.59798" lon="6.6149">
        <ele>2352.3999023438</ele>
        <time>2019-12-30T13:40:34.000Z</time>
      </trkpt>
      <trkpt lat="45.59798" lon="6.61491">
        <ele>2352.8000488281</ele>
        <time>2019-12-30T13:40:36.000Z</time>
      </trkpt>
      <trkpt lat="45.59798" lon="6.61497">
        <ele>2353.6000976562</ele>
        <time>2019-12-30T13:40:42.000Z</time>
      </trkpt>
      <trkpt lat="45.59798" lon="6.61503">
        <ele>2354.8000488281</ele>
        <time>2019-12-30T13:40:48.000Z</time>
      </trkpt>
      <trkpt lat="45.59798" lon="6.6151">
        <ele>2355.8000488281</ele>
        <time>2019-12-30T13:40:54.000Z</time>
      </trkpt>
      <trkpt lat="45.59798" lon="6.61511">
        <ele>2355.8000488281</ele>
        <time>2019-12-30T13:40:55.000Z</time>
      </trkpt>
      <trkpt lat="45.59798" lon="6.61513">
        <ele>2356.8000488281</ele>
        <time>2019-12-30T13:41:00.000Z</time>
      </trkpt>
      <trkpt lat="45.59798" lon="6.61514">
        <ele>2357</ele>
        <time>2019-12-30T13:41:01.000Z</time>
      </trkpt>
      <trkpt lat="45.59798" lon="6.61514">
        <ele>2357.8000488281</ele>
        <time>2019-12-30T13:41:10.000Z</time>
      </trkpt>
      <trkpt lat="45.59798" lon="6.61514">
        <ele>2357.3999023438</ele>
        <time>2019-12-30T13:41:25.000Z</time>
      </trkpt>
      <trkpt lat="45.59799" lon="6.61515">
        <ele>2357.8000488281</ele>
        <time>2019-12-30T13:41:37.000Z</time>
      </trkpt>
      <trkpt lat="45.59799" lon="6.61516">
        <ele>2358</ele>
        <time>2019-12-30T13:41:38.000Z</time>
      </trkpt>
      <trkpt lat="45.598" lon="6.61521">
        <ele>2358.6000976562</ele>
        <time>2019-12-30T13:41:42.000Z</time>
      </trkpt>
      <trkpt lat="45.59801" lon="6.61528">
        <ele>2359</ele>
        <time>2019-12-30T13:41:48.000Z</time>
      </trkpt>
      <trkpt lat="45.59801" lon="6.61528">
        <ele>2359.1999511719</ele>
        <time>2019-12-30T13:41:49.000Z</time>
      </trkpt>
      <trkpt lat="45.59802" lon="6.61531">
        <ele>2359.8000488281</ele>
        <time>2019-12-30T13:41:54.000Z</time>
      </trkpt>
      <trkpt lat="45.59803" lon="6.61533">
        <ele>2360.1999511719</ele>
        <time>2019-12-30T13:41:56.000Z</time>
      </trkpt>
      <trkpt lat="45.59803" lon="6.61538">
        <ele>2361</ele>
        <time>2019-12-30T13:42:01.000Z</time>
      </trkpt>
      <trkpt lat="45.59804" lon="6.6154">
        <ele>2361.3999023438</ele>
        <time>2019-12-30T13:42:03.000Z</time>
      </trkpt>
      <trkpt lat="45.59805" lon="6.61541">
        <ele>2362.3999023438</ele>
        <time>2019-12-30T13:42:08.000Z</time>
      </trkpt>
      <trkpt lat="45.59805" lon="6.61545">
        <ele>2363.3999023438</ele>
        <time>2019-12-30T13:42:14.000Z</time>
      </trkpt>
      <trkpt lat="45.59804" lon="6.61544">
        <ele>2363.3999023438</ele>
        <time>2019-12-30T13:42:15.000Z</time>
      </trkpt>
      <trkpt lat="45.59801" lon="6.61545">
        <ele>2364.6000976562</ele>
        <time>2019-12-30T13:42:20.000Z</time>
      </trkpt>
      <trkpt lat="45.59801" lon="6.61545">
        <ele>2365.3999023438</ele>
        <time>2019-12-30T13:42:27.000Z</time>
      </trkpt>
      <trkpt lat="45.59801" lon="6.61545">
        <ele>2365.1999511719</ele>
        <time>2019-12-30T13:42:40.000Z</time>
      </trkpt>
      <trkpt lat="45.59798" lon="6.61542">
        <ele>2365.1999511719</ele>
        <time>2019-12-30T13:42:46.000Z</time>
      </trkpt>
      <trkpt lat="45.59796" lon="6.61541">
        <ele>2365.6000976562</ele>
        <time>2019-12-30T13:42:49.000Z</time>
      </trkpt>
      <trkpt lat="45.59794" lon="6.6154">
        <ele>2366</ele>
        <time>2019-12-30T13:42:51.000Z</time>
      </trkpt>
      <trkpt lat="45.59793" lon="6.6154">
        <ele>2366.6000976562</ele>
        <time>2019-12-30T13:42:55.000Z</time>
      </trkpt>
      <trkpt lat="45.59793" lon="6.6154">
        <ele>2366.8000488281</ele>
        <time>2019-12-30T13:42:58.000Z</time>
      </trkpt>
      <trkpt lat="45.59793" lon="6.6154">
        <ele>2366.8000488281</ele>
        <time>2019-12-30T13:43:11.000Z</time>
      </trkpt>
      <trkpt lat="45.59793" lon="6.6154">
        <ele>2366.8000488281</ele>
        <time>2019-12-30T13:43:26.000Z</time>
      </trkpt>
      <trkpt lat="45.59793" lon="6.6154">
        <ele>2366.6000976562</ele>
        <time>2019-12-30T13:43:41.000Z</time>
      </trkpt>
      <trkpt lat="45.59793" lon="6.6154">
        <ele>2366.6000976562</ele>
        <time>2019-12-30T13:43:52.000Z</time>
      </trkpt>
      <trkpt lat="45.59792" lon="6.61539">
        <ele>2366.6000976562</ele>
        <time>2019-12-30T13:43:58.000Z</time>
      </trkpt>
      <trkpt lat="45.59788" lon="6.61539">
        <ele>2366.8000488281</ele>
        <time>2019-12-30T13:44:03.000Z</time>
      </trkpt>
      <trkpt lat="45.59786" lon="6.61538">
        <ele>2367.3999023438</ele>
        <time>2019-12-30T13:44:08.000Z</time>
      </trkpt>
      <trkpt lat="45.59785" lon="6.61538">
        <ele>2367.6000976562</ele>
        <time>2019-12-30T13:44:09.000Z</time>
      </trkpt>
      <trkpt lat="45.59785" lon="6.61538">
        <ele>2368.1999511719</ele>
        <time>2019-12-30T13:44:13.000Z</time>
      </trkpt>
      <trkpt lat="45.59785" lon="6.61538">
        <ele>2368.3999023438</ele>
        <time>2019-12-30T13:44:14.000Z</time>
      </trkpt>
      <trkpt lat="45.59782" lon="6.61538">
        <ele>2368.3999023438</ele>
        <time>2019-12-30T13:44:20.000Z</time>
      </trkpt>
      <trkpt lat="45.59782" lon="6.61538">
        <ele>2368.6000976562</ele>
        <time>2019-12-30T13:44:24.000Z</time>
      </trkpt>
      <trkpt lat="45.59782" lon="6.61538">
        <ele>2369.1999511719</ele>
        <time>2019-12-30T13:44:29.000Z</time>
      </trkpt>
      <trkpt lat="45.59779" lon="6.61539">
        <ele>2369</ele>
        <time>2019-12-30T13:44:36.000Z</time>
      </trkpt>
      <trkpt lat="45.59776" lon="6.61539">
        <ele>2369.3999023438</ele>
        <time>2019-12-30T13:44:41.000Z</time>
      </trkpt>
      <trkpt lat="45.59775" lon="6.6154">
        <ele>2369.8000488281</ele>
        <time>2019-12-30T13:44:43.000Z</time>
      </trkpt>
      <trkpt lat="45.59771" lon="6.6154">
        <ele>2370.3999023438</ele>
        <time>2019-12-30T13:44:47.000Z</time>
      </trkpt>
      <trkpt lat="45.59771" lon="6.6154">
        <ele>2370.8000488281</ele>
        <time>2019-12-30T13:44:49.000Z</time>
      </trkpt>
      <trkpt lat="45.59769" lon="6.61541">
        <ele>2371.3999023438</ele>
        <time>2019-12-30T13:44:53.000Z</time>
      </trkpt>
      <trkpt lat="45.59768" lon="6.61541">
        <ele>2372</ele>
        <time>2019-12-30T13:44:57.000Z</time>
      </trkpt>
      <trkpt lat="45.59767" lon="6.61541">
        <ele>2372.1999511719</ele>
        <time>2019-12-30T13:44:58.000Z</time>
      </trkpt>
      <trkpt lat="45.59763" lon="6.6154">
        <ele>2372.8000488281</ele>
        <time>2019-12-30T13:45:04.000Z</time>
      </trkpt>
      <trkpt lat="45.59762" lon="6.6154">
        <ele>2373</ele>
        <time>2019-12-30T13:45:06.000Z</time>
      </trkpt>
      <trkpt lat="45.5976" lon="6.61541">
        <ele>2373.8000488281</ele>
        <time>2019-12-30T13:45:10.000Z</time>
      </trkpt>
      <trkpt lat="45.59759" lon="6.61541">
        <ele>2374</ele>
        <time>2019-12-30T13:45:12.000Z</time>
      </trkpt>
      <trkpt lat="45.59759" lon="6.61542">
        <ele>2374.3999023438</ele>
        <time>2019-12-30T13:45:14.000Z</time>
      </trkpt>
      <trkpt lat="45.59756" lon="6.61543">
        <ele>2375</ele>
        <time>2019-12-30T13:45:18.000Z</time>
      </trkpt>
      <trkpt lat="45.59756" lon="6.61543">
        <ele>2375.1999511719</ele>
        <time>2019-12-30T13:45:19.000Z</time>
      </trkpt>
      <trkpt lat="45.59752" lon="6.61544">
        <ele>2375.8000488281</ele>
        <time>2019-12-30T13:45:25.000Z</time>
      </trkpt>
      <trkpt lat="45.59751" lon="6.61544">
        <ele>2376.1999511719</ele>
        <time>2019-12-30T13:45:27.000Z</time>
      </trkpt>
      <trkpt lat="45.59749" lon="6.61544">
        <ele>2376.3999023438</ele>
        <time>2019-12-30T13:45:31.000Z</time>
      </trkpt>
      <trkpt lat="45.59748" lon="6.61544">
        <ele>2377</ele>
        <time>2019-12-30T13:45:36.000Z</time>
      </trkpt>
      <trkpt lat="45.59747" lon="6.61544">
        <ele>2377.1999511719</ele>
        <time>2019-12-30T13:45:37.000Z</time>
      </trkpt>
      <trkpt lat="45.59745" lon="6.61543">
        <ele>2377.6000976562</ele>
        <time>2019-12-30T13:45:42.000Z</time>
      </trkpt>
      <trkpt lat="45.59744" lon="6.61543">
        <ele>2378</ele>
        <time>2019-12-30T13:45:44.000Z</time>
      </trkpt>
      <trkpt lat="45.59744" lon="6.61543">
        <ele>2378.1999511719</ele>
        <time>2019-12-30T13:45:45.000Z</time>
      </trkpt>
      <trkpt lat="45.59744" lon="6.61543">
        <ele>2379</ele>
        <time>2019-12-30T13:45:50.000Z</time>
      </trkpt>
      <trkpt lat="45.59744" lon="6.61543">
        <ele>2378.8000488281</ele>
        <time>2019-12-30T13:46:03.000Z</time>
      </trkpt>
      <trkpt lat="45.59744" lon="6.61543">
        <ele>2379.3999023438</ele>
        <time>2019-12-30T13:46:08.000Z</time>
      </trkpt>
      <trkpt lat="45.59744" lon="6.61543">
        <ele>2379.3999023438</ele>
        <time>2019-12-30T13:46:11.000Z</time>
      </trkpt>
      <trkpt lat="45.59744" lon="6.61545">
        <ele>2379.1999511719</ele>
        <time>2019-12-30T13:46:20.000Z</time>
      </trkpt>
      <trkpt lat="45.59744" lon="6.61547">
        <ele>2380.1999511719</ele>
        <time>2019-12-30T13:46:25.000Z</time>
      </trkpt>
      <trkpt lat="45.59744" lon="6.61548">
        <ele>2380.1999511719</ele>
        <time>2019-12-30T13:46:26.000Z</time>
      </trkpt>
      <trkpt lat="45.59745" lon="6.6155">
        <ele>2380.1999511719</ele>
        <time>2019-12-30T13:46:30.000Z</time>
      </trkpt>
      <trkpt lat="45.59746" lon="6.61552">
        <ele>2380.3999023438</ele>
        <time>2019-12-30T13:46:32.000Z</time>
      </trkpt>
      <trkpt lat="45.59747" lon="6.61555">
        <ele>2380.6000976562</ele>
        <time>2019-12-30T13:46:35.000Z</time>
      </trkpt>
      <trkpt lat="45.59747" lon="6.61555">
        <ele>2381.3999023438</ele>
        <time>2019-12-30T13:46:39.000Z</time>
      </trkpt>
      <trkpt lat="45.59747" lon="6.61555">
        <ele>2381.6000976562</ele>
        <time>2019-12-30T13:46:41.000Z</time>
      </trkpt>
      <trkpt lat="45.59747" lon="6.61555">
        <ele>2382</ele>
        <time>2019-12-30T13:46:55.000Z</time>
      </trkpt>
      <trkpt lat="45.59749" lon="6.61558">
        <ele>2382</ele>
        <time>2019-12-30T13:47:04.000Z</time>
      </trkpt>
      <trkpt lat="45.59749" lon="6.61558">
        <ele>2382.3999023438</ele>
        <time>2019-12-30T13:47:09.000Z</time>
      </trkpt>
      <trkpt lat="45.59749" lon="6.61558">
        <ele>2382.3999023438</ele>
        <time>2019-12-30T13:47:20.000Z</time>
      </trkpt>
      <trkpt lat="45.5975" lon="6.61561">
        <ele>2382.3999023438</ele>
        <time>2019-12-30T13:47:23.000Z</time>
      </trkpt>
      <trkpt lat="45.5975" lon="6.61562">
        <ele>2382.3999023438</ele>
        <time>2019-12-30T13:47:24.000Z</time>
      </trkpt>
      <trkpt lat="45.59751" lon="6.61563">
        <ele>2382.3999023438</ele>
        <time>2019-12-30T13:47:25.000Z</time>
      </trkpt>
      <trkpt lat="45.59753" lon="6.61566">
        <ele>2382.3999023438</ele>
        <time>2019-12-30T13:47:28.000Z</time>
      </trkpt>
      <trkpt lat="45.59755" lon="6.61571">
        <ele>2383.1999511719</ele>
        <time>2019-12-30T13:47:32.000Z</time>
      </trkpt>
      <trkpt lat="45.59756" lon="6.61573">
        <ele>2383.6000976562</ele>
        <time>2019-12-30T13:47:35.000Z</time>
      </trkpt>
      <trkpt lat="45.59757" lon="6.61574">
        <ele>2384</ele>
        <time>2019-12-30T13:47:38.000Z</time>
      </trkpt>
      <trkpt lat="45.59758" lon="6.61577">
        <ele>2384.6000976562</ele>
        <time>2019-12-30T13:47:42.000Z</time>
      </trkpt>
      <trkpt lat="45.59758" lon="6.61577">
        <ele>2385.3999023438</ele>
        <time>2019-12-30T13:47:45.000Z</time>
      </trkpt>
      <trkpt lat="45.5976" lon="6.6158">
        <ele>2385.6000976562</ele>
        <time>2019-12-30T13:47:53.000Z</time>
      </trkpt>
      <trkpt lat="45.5976" lon="6.61585">
        <ele>2385.8000488281</ele>
        <time>2019-12-30T13:47:57.000Z</time>
      </trkpt>
      <trkpt lat="45.59761" lon="6.61587">
        <ele>2386.1999511719</ele>
        <time>2019-12-30T13:47:59.000Z</time>
      </trkpt>
      <trkpt lat="45.59761" lon="6.6159">
        <ele>2387</ele>
        <time>2019-12-30T13:48:03.000Z</time>
      </trkpt>
      <trkpt lat="45.59761" lon="6.61592">
        <ele>2387.1999511719</ele>
        <time>2019-12-30T13:48:05.000Z</time>
      </trkpt>
      <trkpt lat="45.5976" lon="6.61596">
        <ele>2388</ele>
        <time>2019-12-30T13:48:10.000Z</time>
      </trkpt>
      <trkpt lat="45.5976" lon="6.61597">
        <ele>2388.1999511719</ele>
        <time>2019-12-30T13:48:11.000Z</time>
      </trkpt>
      <trkpt lat="45.59758" lon="6.61596">
        <ele>2389.1999511719</ele>
        <time>2019-12-30T13:48:16.000Z</time>
      </trkpt>
      <trkpt lat="45.59757" lon="6.61596">
        <ele>2389.3999023438</ele>
        <time>2019-12-30T13:48:17.000Z</time>
      </trkpt>
      <trkpt lat="45.59756" lon="6.61595">
        <ele>2390.1999511719</ele>
        <time>2019-12-30T13:48:20.000Z</time>
      </trkpt>
      <trkpt lat="45.59756" lon="6.61595">
        <ele>2390.8000488281</ele>
        <time>2019-12-30T13:48:24.000Z</time>
      </trkpt>
      <trkpt lat="45.59754" lon="6.61594">
        <ele>2390.8000488281</ele>
        <time>2019-12-30T13:48:35.000Z</time>
      </trkpt>
      <trkpt lat="45.59753" lon="6.61593">
        <ele>2390.8000488281</ele>
        <time>2019-12-30T13:48:38.000Z</time>
      </trkpt>
      <trkpt lat="45.59752" lon="6.61592">
        <ele>2391.1999511719</ele>
        <time>2019-12-30T13:48:40.000Z</time>
      </trkpt>
      <trkpt lat="45.59752" lon="6.61592">
        <ele>2391.3999023438</ele>
        <time>2019-12-30T13:48:41.000Z</time>
      </trkpt>
      <trkpt lat="45.59747" lon="6.61589">
        <ele>2392.1999511719</ele>
        <time>2019-12-30T13:48:47.000Z</time>
      </trkpt>
      <trkpt lat="45.59747" lon="6.61589">
        <ele>2392.3999023438</ele>
        <time>2019-12-30T13:48:48.000Z</time>
      </trkpt>
      <trkpt lat="45.59745" lon="6.61587">
        <ele>2393</ele>
        <time>2019-12-30T13:48:52.000Z</time>
      </trkpt>
      <trkpt lat="45.59743" lon="6.61585">
        <ele>2393.3999023438</ele>
        <time>2019-12-30T13:48:56.000Z</time>
      </trkpt>
      <trkpt lat="45.59743" lon="6.61585">
        <ele>2393.8000488281</ele>
        <time>2019-12-30T13:48:58.000Z</time>
      </trkpt>
      <trkpt lat="45.59741" lon="6.61584">
        <ele>2394.3999023438</ele>
        <time>2019-12-30T13:49:02.000Z</time>
      </trkpt>
      <trkpt lat="45.59741" lon="6.61583">
        <ele>2394.8000488281</ele>
        <time>2019-12-30T13:49:04.000Z</time>
      </trkpt>
      <trkpt lat="45.59741" lon="6.61583">
        <ele>2395.1999511719</ele>
        <time>2019-12-30T13:49:19.000Z</time>
      </trkpt>
      <trkpt lat="45.59741" lon="6.61583">
        <ele>2395.1999511719</ele>
        <time>2019-12-30T13:49:33.000Z</time>
      </trkpt>
      <trkpt lat="45.59741" lon="6.61583">
        <ele>2395.1999511719</ele>
        <time>2019-12-30T13:49:55.000Z</time>
      </trkpt>
      <trkpt lat="45.59741" lon="6.61583">
        <ele>2395.1999511719</ele>
        <time>2019-12-30T13:50:10.000Z</time>
      </trkpt>
      <trkpt lat="45.59741" lon="6.61583">
        <ele>2395.3999023438</ele>
        <time>2019-12-30T13:50:25.000Z</time>
      </trkpt>
      <trkpt lat="45.59741" lon="6.61583">
        <ele>2395</ele>
        <time>2019-12-30T13:50:44.000Z</time>
      </trkpt>
      <trkpt lat="45.59741" lon="6.61583">
        <ele>2395.3999023438</ele>
        <time>2019-12-30T13:50:59.000Z</time>
      </trkpt>
      <trkpt lat="45.59741" lon="6.61583">
        <ele>2395</ele>
        <time>2019-12-30T13:51:13.000Z</time>
      </trkpt>
      <trkpt lat="45.59741" lon="6.61583">
        <ele>2395.1999511719</ele>
        <time>2019-12-30T13:51:28.000Z</time>
      </trkpt>
      <trkpt lat="45.59741" lon="6.61583">
        <ele>2394.3999023438</ele>
        <time>2019-12-30T13:51:37.000Z</time>
      </trkpt>
      <trkpt lat="45.59741" lon="6.61583">
        <ele>2395.8000488281</ele>
        <time>2019-12-30T13:51:44.000Z</time>
      </trkpt>
      <trkpt lat="45.59741" lon="6.61583">
        <ele>2395.3999023438</ele>
        <time>2019-12-30T13:51:49.000Z</time>
      </trkpt>
      <trkpt lat="45.59741" lon="6.61583">
        <ele>2394.8000488281</ele>
        <time>2019-12-30T13:51:53.000Z</time>
      </trkpt>
      <trkpt lat="45.59741" lon="6.61583">
        <ele>2395</ele>
        <time>2019-12-30T13:52:03.000Z</time>
      </trkpt>
      <trkpt lat="45.59741" lon="6.61583">
        <ele>2395.1999511719</ele>
        <time>2019-12-30T13:52:15.000Z</time>
      </trkpt>
      <trkpt lat="45.59741" lon="6.61583">
        <ele>2395.8000488281</ele>
        <time>2019-12-30T13:52:17.000Z</time>
      </trkpt>
      <trkpt lat="45.59741" lon="6.61583">
        <ele>2395</ele>
        <time>2019-12-30T13:52:31.000Z</time>
      </trkpt>
      <trkpt lat="45.59741" lon="6.61583">
        <ele>2394.8000488281</ele>
        <time>2019-12-30T13:52:44.000Z</time>
      </trkpt>
      <trkpt lat="45.59741" lon="6.61583">
        <ele>2394.8000488281</ele>
        <time>2019-12-30T13:52:45.000Z</time>
      </trkpt>
      <trkpt lat="45.59741" lon="6.61583">
        <ele>2395</ele>
        <time>2019-12-30T13:53:00.000Z</time>
      </trkpt>
      <trkpt lat="45.59741" lon="6.61583">
        <ele>2395.8000488281</ele>
        <time>2019-12-30T13:53:11.000Z</time>
      </trkpt>
      <trkpt lat="45.59741" lon="6.61583">
        <ele>2396</ele>
        <time>2019-12-30T13:53:12.000Z</time>
      </trkpt>
      <trkpt lat="45.59741" lon="6.61583">
        <ele>2395.3999023438</ele>
        <time>2019-12-30T13:53:29.000Z</time>
      </trkpt>
      <trkpt lat="45.59741" lon="6.61583">
        <ele>2394.8000488281</ele>
        <time>2019-12-30T13:53:42.000Z</time>
      </trkpt>
      <trkpt lat="45.59741" lon="6.61583">
        <ele>2395.6000976562</ele>
        <time>2019-12-30T13:53:58.000Z</time>
      </trkpt>
      <trkpt lat="45.59741" lon="6.61583">
        <ele>2395.6000976562</ele>
        <time>2019-12-30T13:54:12.000Z</time>
      </trkpt>
      <trkpt lat="45.59741" lon="6.61583">
        <ele>2396</ele>
        <time>2019-12-30T13:54:25.000Z</time>
      </trkpt>
      <trkpt lat="45.59741" lon="6.61583">
        <ele>2395.6000976562</ele>
        <time>2019-12-30T13:54:41.000Z</time>
      </trkpt>
      <trkpt lat="45.59741" lon="6.61583">
        <ele>2395.8000488281</ele>
        <time>2019-12-30T13:54:58.000Z</time>
      </trkpt>
      <trkpt lat="45.59741" lon="6.61583">
        <ele>2395.8000488281</ele>
        <time>2019-12-30T13:55:15.000Z</time>
      </trkpt>
      <trkpt lat="45.59741" lon="6.61583">
        <ele>2395.6000976562</ele>
        <time>2019-12-30T13:55:29.000Z</time>
      </trkpt>
      <trkpt lat="45.5974" lon="6.61583">
        <ele>2394.6000976562</ele>
        <time>2019-12-30T13:55:33.000Z</time>
      </trkpt>
      <trkpt lat="45.5974" lon="6.61583">
        <ele>2394.3999023438</ele>
        <time>2019-12-30T13:55:38.000Z</time>
      </trkpt>
      <trkpt lat="45.5974" lon="6.61583">
        <ele>2395.8000488281</ele>
        <time>2019-12-30T13:55:41.000Z</time>
      </trkpt>
      <trkpt lat="45.5974" lon="6.61583">
        <ele>2396</ele>
        <time>2019-12-30T13:55:53.000Z</time>
      </trkpt>
      <trkpt lat="45.5974" lon="6.61583">
        <ele>2394.8000488281</ele>
        <time>2019-12-30T13:56:00.000Z</time>
      </trkpt>
      <trkpt lat="45.5974" lon="6.61583">
        <ele>2396.8000488281</ele>
        <time>2019-12-30T13:56:04.000Z</time>
      </trkpt>
      <trkpt lat="45.5974" lon="6.61583">
        <ele>2397.8000488281</ele>
        <time>2019-12-30T13:56:06.000Z</time>
      </trkpt>
      <trkpt lat="45.5974" lon="6.61583">
        <ele>2396.8000488281</ele>
        <time>2019-12-30T13:56:09.000Z</time>
      </trkpt>
      <trkpt lat="45.5974" lon="6.61583">
        <ele>2395.8000488281</ele>
        <time>2019-12-30T13:56:12.000Z</time>
      </trkpt>
      <trkpt lat="45.5974" lon="6.61583">
        <ele>2395.8000488281</ele>
        <time>2019-12-30T13:56:20.000Z</time>
      </trkpt>
      <trkpt lat="45.5974" lon="6.61583">
        <ele>2396.1999511719</ele>
        <time>2019-12-30T13:56:35.000Z</time>
      </trkpt>
      <trkpt lat="45.5974" lon="6.61583">
        <ele>2395.8000488281</ele>
        <time>2019-12-30T13:56:49.000Z</time>
      </trkpt>
      <trkpt lat="45.5974" lon="6.61583">
        <ele>2395.8000488281</ele>
        <time>2019-12-30T13:57:02.000Z</time>
      </trkpt>
      <trkpt lat="45.5974" lon="6.61583">
        <ele>2395.8000488281</ele>
        <time>2019-12-30T13:57:23.000Z</time>
      </trkpt>
      <trkpt lat="45.5974" lon="6.61583">
        <ele>2395.8000488281</ele>
        <time>2019-12-30T13:57:39.000Z</time>
      </trkpt>
      <trkpt lat="45.5974" lon="6.61583">
        <ele>2395.8000488281</ele>
        <time>2019-12-30T13:57:54.000Z</time>
      </trkpt>
      <trkpt lat="45.59739" lon="6.61584">
        <ele>2395.6000976562</ele>
        <time>2019-12-30T13:58:09.000Z</time>
      </trkpt>
      <trkpt lat="45.59739" lon="6.61584">
        <ele>2395.8000488281</ele>
        <time>2019-12-30T13:58:14.000Z</time>
      </trkpt>
      <trkpt lat="45.59738" lon="6.61584">
        <ele>2396.1999511719</ele>
        <time>2019-12-30T13:58:20.000Z</time>
      </trkpt>
      <trkpt lat="45.59738" lon="6.61584">
        <ele>2396.8000488281</ele>
        <time>2019-12-30T13:58:22.000Z</time>
      </trkpt>
      <trkpt lat="45.59737" lon="6.61585">
        <ele>2397.1999511719</ele>
        <time>2019-12-30T13:58:26.000Z</time>
      </trkpt>
      <trkpt lat="45.59736" lon="6.61586">
        <ele>2397.8000488281</ele>
        <time>2019-12-30T13:58:31.000Z</time>
      </trkpt>
      <trkpt lat="45.59735" lon="6.61587">
        <ele>2398.3999023438</ele>
        <time>2019-12-30T13:58:34.000Z</time>
      </trkpt>
      <trkpt lat="45.59735" lon="6.61587">
        <ele>2399</ele>
        <time>2019-12-30T13:58:36.000Z</time>
      </trkpt>
      <trkpt lat="45.59734" lon="6.61587">
        <ele>2400</ele>
        <time>2019-12-30T13:58:40.000Z</time>
      </trkpt>
      <trkpt lat="45.59734" lon="6.61587">
        <ele>2400.3999023438</ele>
        <time>2019-12-30T13:58:43.000Z</time>
      </trkpt>
      <trkpt lat="45.59733" lon="6.61587">
        <ele>2401</ele>
        <time>2019-12-30T13:58:48.000Z</time>
      </trkpt>
      <trkpt lat="45.59733" lon="6.61587">
        <ele>2401.1999511719</ele>
        <time>2019-12-30T13:58:50.000Z</time>
      </trkpt>
      <trkpt lat="45.59731" lon="6.61589">
        <ele>2401.6000976562</ele>
        <time>2019-12-30T13:58:53.000Z</time>
      </trkpt>
      <trkpt lat="45.59731" lon="6.61589">
        <ele>2402.1999511719</ele>
        <time>2019-12-30T13:58:55.000Z</time>
      </trkpt>
      <trkpt lat="45.5973" lon="6.61589">
        <ele>2402.8000488281</ele>
        <time>2019-12-30T13:58:59.000Z</time>
      </trkpt>
      <trkpt lat="45.5973" lon="6.61589">
        <ele>2403.1999511719</ele>
        <time>2019-12-30T13:59:03.000Z</time>
      </trkpt>
      <trkpt lat="45.5973" lon="6.61589">
        <ele>2403.8000488281</ele>
        <time>2019-12-30T13:59:12.000Z</time>
      </trkpt>
      <trkpt lat="45.59729" lon="6.6159">
        <ele>2403.8000488281</ele>
        <time>2019-12-30T13:59:18.000Z</time>
      </trkpt>
      <trkpt lat="45.59728" lon="6.61591">
        <ele>2404.3999023438</ele>
        <time>2019-12-30T13:59:22.000Z</time>
      </trkpt>
      <trkpt lat="45.59728" lon="6.61591">
        <ele>2404.6000976562</ele>
        <time>2019-12-30T13:59:24.000Z</time>
      </trkpt>
      <trkpt lat="45.59727" lon="6.61592">
        <ele>2405.3999023438</ele>
        <time>2019-12-30T13:59:29.000Z</time>
      </trkpt>
      <trkpt lat="45.59726" lon="6.61592">
        <ele>2405.3999023438</ele>
        <time>2019-12-30T13:59:30.000Z</time>
      </trkpt>
      <trkpt lat="45.59725" lon="6.61591">
        <ele>2405.8000488281</ele>
        <time>2019-12-30T13:59:35.000Z</time>
      </trkpt>
      <trkpt lat="45.59724" lon="6.61591">
        <ele>2406.3999023438</ele>
        <time>2019-12-30T13:59:43.000Z</time>
      </trkpt>
      <trkpt lat="45.59724" lon="6.61592">
        <ele>2406.3999023438</ele>
        <time>2019-12-30T13:59:44.000Z</time>
      </trkpt>
      <trkpt lat="45.59724" lon="6.61592">
        <ele>2407.1999511719</ele>
        <time>2019-12-30T13:59:48.000Z</time>
      </trkpt>
      <trkpt lat="45.59724" lon="6.61595">
        <ele>2407.3999023438</ele>
        <time>2019-12-30T13:59:52.000Z</time>
      </trkpt>
      <trkpt lat="45.59724" lon="6.61595">
        <ele>2407.6000976562</ele>
        <time>2019-12-30T13:59:53.000Z</time>
      </trkpt>
      <trkpt lat="45.59724" lon="6.61595">
        <ele>2408.6000976562</ele>
        <time>2019-12-30T13:59:58.000Z</time>
      </trkpt>
      <trkpt lat="45.59724" lon="6.61595">
        <ele>2408.8000488281</ele>
        <time>2019-12-30T14:00:01.000Z</time>
      </trkpt>
      <trkpt lat="45.59724" lon="6.61596">
        <ele>2408.8000488281</ele>
        <time>2019-12-30T14:00:09.000Z</time>
      </trkpt>
      <trkpt lat="45.59723" lon="6.61597">
        <ele>2409.6000976562</ele>
        <time>2019-12-30T14:00:13.000Z</time>
      </trkpt>
      <trkpt lat="45.59723" lon="6.61597">
        <ele>2409.8000488281</ele>
        <time>2019-12-30T14:00:16.000Z</time>
      </trkpt>
      <trkpt lat="45.59722" lon="6.61597">
        <ele>2410.8000488281</ele>
        <time>2019-12-30T14:00:20.000Z</time>
      </trkpt>
      <trkpt lat="45.59721" lon="6.61598">
        <ele>2411.1999511719</ele>
        <time>2019-12-30T14:00:21.000Z</time>
      </trkpt>
      <trkpt lat="45.59719" lon="6.61599">
        <ele>2411.8000488281</ele>
        <time>2019-12-30T14:00:27.000Z</time>
      </trkpt>
      <trkpt lat="45.59718" lon="6.616">
        <ele>2412.1999511719</ele>
        <time>2019-12-30T14:00:33.000Z</time>
      </trkpt>
      <trkpt lat="45.59718" lon="6.616">
        <ele>2412.3999023438</ele>
        <time>2019-12-30T14:00:34.000Z</time>
      </trkpt>
      <trkpt lat="45.59718" lon="6.616">
        <ele>2413</ele>
        <time>2019-12-30T14:00:40.000Z</time>
      </trkpt>
      <trkpt lat="45.59717" lon="6.616">
        <ele>2413.6000976562</ele>
        <time>2019-12-30T14:00:45.000Z</time>
      </trkpt>
      <trkpt lat="45.59716" lon="6.61599">
        <ele>2413.6000976562</ele>
        <time>2019-12-30T14:00:47.000Z</time>
      </trkpt>
      <trkpt lat="45.59714" lon="6.61599">
        <ele>2414.6000976562</ele>
        <time>2019-12-30T14:00:54.000Z</time>
      </trkpt>
      <trkpt lat="45.59714" lon="6.61599">
        <ele>2414.8000488281</ele>
        <time>2019-12-30T14:00:55.000Z</time>
      </trkpt>
      <trkpt lat="45.59713" lon="6.61598">
        <ele>2415</ele>
        <time>2019-12-30T14:01:03.000Z</time>
      </trkpt>
      <trkpt lat="45.59712" lon="6.61597">
        <ele>2415</ele>
        <time>2019-12-30T14:01:11.000Z</time>
      </trkpt>
      <trkpt lat="45.59711" lon="6.61597">
        <ele>2415.8000488281</ele>
        <time>2019-12-30T14:01:15.000Z</time>
      </trkpt>
      <trkpt lat="45.59711" lon="6.61597">
        <ele>2416</ele>
        <time>2019-12-30T14:01:17.000Z</time>
      </trkpt>
      <trkpt lat="45.5971" lon="6.61597">
        <ele>2415.8000488281</ele>
        <time>2019-12-30T14:01:24.000Z</time>
      </trkpt>
      <trkpt lat="45.59709" lon="6.61598">
        <ele>2417</ele>
        <time>2019-12-30T14:01:31.000Z</time>
      </trkpt>
      <trkpt lat="45.59706" lon="6.61597">
        <ele>2417.6000976562</ele>
        <time>2019-12-30T14:01:39.000Z</time>
      </trkpt>
      <trkpt lat="45.59706" lon="6.61597">
        <ele>2418</ele>
        <time>2019-12-30T14:01:46.000Z</time>
      </trkpt>
      <trkpt lat="45.59706" lon="6.61597">
        <ele>2418.6000976562</ele>
        <time>2019-12-30T14:01:51.000Z</time>
      </trkpt>
      <trkpt lat="45.59704" lon="6.61597">
        <ele>2419.1999511719</ele>
        <time>2019-12-30T14:01:54.000Z</time>
      </trkpt>
      <trkpt lat="45.59704" lon="6.61596">
        <ele>2419</ele>
        <time>2019-12-30T14:01:57.000Z</time>
      </trkpt>
      <trkpt lat="45.59703" lon="6.61597">
        <ele>2419.3999023438</ele>
        <time>2019-12-30T14:02:04.000Z</time>
      </trkpt>
      <trkpt lat="45.59702" lon="6.61597">
        <ele>2419.8000488281</ele>
        <time>2019-12-30T14:02:12.000Z</time>
      </trkpt>
      <trkpt lat="45.59701" lon="6.61597">
        <ele>2420</ele>
        <time>2019-12-30T14:02:18.000Z</time>
      </trkpt>
      <trkpt lat="45.597" lon="6.61597">
        <ele>2420.1999511719</ele>
        <time>2019-12-30T14:02:19.000Z</time>
      </trkpt>
      <trkpt lat="45.59699" lon="6.61597">
        <ele>2421.3999023438</ele>
        <time>2019-12-30T14:02:24.000Z</time>
      </trkpt>
      <trkpt lat="45.59699" lon="6.61597">
        <ele>2421.3999023438</ele>
        <time>2019-12-30T14:02:28.000Z</time>
      </trkpt>
      <trkpt lat="45.59698" lon="6.61598">
        <ele>2421.1999511719</ele>
        <time>2019-12-30T14:02:44.000Z</time>
      </trkpt>
      <trkpt lat="45.59698" lon="6.61598">
        <ele>2422.1999511719</ele>
        <time>2019-12-30T14:02:53.000Z</time>
      </trkpt>
      <trkpt lat="45.59698" lon="6.61598">
        <ele>2422.3999023438</ele>
        <time>2019-12-30T14:02:59.000Z</time>
      </trkpt>
      <trkpt lat="45.59698" lon="6.616">
        <ele>2422.8000488281</ele>
        <time>2019-12-30T14:03:04.000Z</time>
      </trkpt>
      <trkpt lat="45.59698" lon="6.61601">
        <ele>2423.1999511719</ele>
        <time>2019-12-30T14:03:11.000Z</time>
      </trkpt>
      <trkpt lat="45.59698" lon="6.61601">
        <ele>2423.6000976562</ele>
        <time>2019-12-30T14:03:13.000Z</time>
      </trkpt>
      <trkpt lat="45.59698" lon="6.61601">
        <ele>2424.3999023438</ele>
        <time>2019-12-30T14:03:19.000Z</time>
      </trkpt>
      <trkpt lat="45.59698" lon="6.61601">
        <ele>2424.6000976562</ele>
        <time>2019-12-30T14:03:21.000Z</time>
      </trkpt>
      <trkpt lat="45.59698" lon="6.61601">
        <ele>2425.3999023438</ele>
        <time>2019-12-30T14:03:28.000Z</time>
      </trkpt>
      <trkpt lat="45.59698" lon="6.61601">
        <ele>2425.6000976562</ele>
        <time>2019-12-30T14:03:30.000Z</time>
      </trkpt>
      <trkpt lat="45.59698" lon="6.61601">
        <ele>2426</ele>
        <time>2019-12-30T14:03:37.000Z</time>
      </trkpt>
      <trkpt lat="45.59698" lon="6.61602">
        <ele>2426.6000976562</ele>
        <time>2019-12-30T14:03:45.000Z</time>
      </trkpt>
      <trkpt lat="45.59698" lon="6.61602">
        <ele>2426.8000488281</ele>
        <time>2019-12-30T14:03:47.000Z</time>
      </trkpt>
      <trkpt lat="45.59698" lon="6.61602">
        <ele>2427.3999023438</ele>
        <time>2019-12-30T14:03:56.000Z</time>
      </trkpt>
      <trkpt lat="45.59698" lon="6.61602">
        <ele>2428</ele>
        <time>2019-12-30T14:03:57.000Z</time>
      </trkpt>
      <trkpt lat="45.59697" lon="6.61606">
        <ele>2428.8000488281</ele>
        <time>2019-12-30T14:04:04.000Z</time>
      </trkpt>
      <trkpt lat="45.59697" lon="6.61606">
        <ele>2429</ele>
        <time>2019-12-30T14:04:05.000Z</time>
      </trkpt>
      <trkpt lat="45.59698" lon="6.6161">
        <ele>2429.6000976562</ele>
        <time>2019-12-30T14:04:09.000Z</time>
      </trkpt>
      <trkpt lat="45.59698" lon="6.6161">
        <ele>2430</ele>
        <time>2019-12-30T14:04:12.000Z</time>
      </trkpt>
      <trkpt lat="45.59698" lon="6.6161">
        <ele>2431.1999511719</ele>
        <time>2019-12-30T14:04:22.000Z</time>
      </trkpt>
      <trkpt lat="45.59698" lon="6.6161">
        <ele>2431.8000488281</ele>
        <time>2019-12-30T14:04:24.000Z</time>
      </trkpt>
      <trkpt lat="45.59698" lon="6.61612">
        <ele>2432.1999511719</ele>
        <time>2019-12-30T14:04:27.000Z</time>
      </trkpt>
      <trkpt lat="45.59699" lon="6.61614">
        <ele>2432.3999023438</ele>
        <time>2019-12-30T14:04:32.000Z</time>
      </trkpt>
      <trkpt lat="45.59699" lon="6.61614">
        <ele>2433.1999511719</ele>
        <time>2019-12-30T14:04:39.000Z</time>
      </trkpt>
      <trkpt lat="45.59699" lon="6.61614">
        <ele>2433.6000976562</ele>
        <time>2019-12-30T14:04:47.000Z</time>
      </trkpt>
      <trkpt lat="45.59699" lon="6.61614">
        <ele>2433.3999023438</ele>
        <time>2019-12-30T14:04:58.000Z</time>
      </trkpt>
      <trkpt lat="45.59699" lon="6.61616">
        <ele>2434.3999023438</ele>
        <time>2019-12-30T14:05:07.000Z</time>
      </trkpt>
      <trkpt lat="45.59699" lon="6.61619">
        <ele>2435.3999023438</ele>
        <time>2019-12-30T14:05:14.000Z</time>
      </trkpt>
      <trkpt lat="45.59699" lon="6.61619">
        <ele>2435.6000976562</ele>
        <time>2019-12-30T14:05:17.000Z</time>
      </trkpt>
      <trkpt lat="45.59699" lon="6.6162">
        <ele>2435.3999023438</ele>
        <time>2019-12-30T14:05:30.000Z</time>
      </trkpt>
      <trkpt lat="45.59698" lon="6.61623">
        <ele>2436</ele>
        <time>2019-12-30T14:05:36.000Z</time>
      </trkpt>
      <trkpt lat="45.59697" lon="6.61626">
        <ele>2436.3999023438</ele>
        <time>2019-12-30T14:05:39.000Z</time>
      </trkpt>
      <trkpt lat="45.59696" lon="6.61626">
        <ele>2437.6000976562</ele>
        <time>2019-12-30T14:05:44.000Z</time>
      </trkpt>
      <trkpt lat="45.59696" lon="6.61627">
        <ele>2438.3999023438</ele>
        <time>2019-12-30T14:05:51.000Z</time>
      </trkpt>
      <trkpt lat="45.59696" lon="6.61627">
        <ele>2438.6000976562</ele>
        <time>2019-12-30T14:05:52.000Z</time>
      </trkpt>
      <trkpt lat="45.59695" lon="6.61628">
        <ele>2439</ele>
        <time>2019-12-30T14:06:00.000Z</time>
      </trkpt>
      <trkpt lat="45.59695" lon="6.61628">
        <ele>2439.1999511719</ele>
        <time>2019-12-30T14:06:08.000Z</time>
      </trkpt>
      <trkpt lat="45.59695" lon="6.61628">
        <ele>2439.8000488281</ele>
        <time>2019-12-30T14:06:11.000Z</time>
      </trkpt>
      <trkpt lat="45.59693" lon="6.6163">
        <ele>2440.1999511719</ele>
        <time>2019-12-30T14:06:14.000Z</time>
      </trkpt>
      <trkpt lat="45.59693" lon="6.6163">
        <ele>2441</ele>
        <time>2019-12-30T14:06:20.000Z</time>
      </trkpt>
      <trkpt lat="45.59692" lon="6.6163">
        <ele>2441.3999023438</ele>
        <time>2019-12-30T14:06:22.000Z</time>
      </trkpt>
      <trkpt lat="45.59691" lon="6.61632">
        <ele>2441.6000976562</ele>
        <time>2019-12-30T14:06:29.000Z</time>
      </trkpt>
      <trkpt lat="45.5969" lon="6.61632">
        <ele>2442.1999511719</ele>
        <time>2019-12-30T14:06:32.000Z</time>
      </trkpt>
      <trkpt lat="45.5969" lon="6.61632">
        <ele>2443.1999511719</ele>
        <time>2019-12-30T14:06:35.000Z</time>
      </trkpt>
      <trkpt lat="45.59688" lon="6.61633">
        <ele>2444.1999511719</ele>
        <time>2019-12-30T14:06:41.000Z</time>
      </trkpt>
      <trkpt lat="45.59687" lon="6.61633">
        <ele>2444.3999023438</ele>
        <time>2019-12-30T14:06:42.000Z</time>
      </trkpt>
      <trkpt lat="45.59687" lon="6.61633">
        <ele>2445.1999511719</ele>
        <time>2019-12-30T14:06:46.000Z</time>
      </trkpt>
      <trkpt lat="45.59687" lon="6.61633">
        <ele>2445.3999023438</ele>
        <time>2019-12-30T14:06:48.000Z</time>
      </trkpt>
      <trkpt lat="45.59685" lon="6.61634">
        <ele>2446.1999511719</ele>
        <time>2019-12-30T14:06:54.000Z</time>
      </trkpt>
      <trkpt lat="45.59684" lon="6.61634">
        <ele>2446.6000976562</ele>
        <time>2019-12-30T14:06:57.000Z</time>
      </trkpt>
      <trkpt lat="45.59684" lon="6.61634">
        <ele>2447.1999511719</ele>
        <time>2019-12-30T14:07:02.000Z</time>
      </trkpt>
      <trkpt lat="45.59682" lon="6.61636">
        <ele>2447.1999511719</ele>
        <time>2019-12-30T14:07:08.000Z</time>
      </trkpt>
      <trkpt lat="45.59681" lon="6.61636">
        <ele>2448</ele>
        <time>2019-12-30T14:07:10.000Z</time>
      </trkpt>
      <trkpt lat="45.5968" lon="6.61636">
        <ele>2448.8000488281</ele>
        <time>2019-12-30T14:07:15.000Z</time>
      </trkpt>
      <trkpt lat="45.5968" lon="6.61636">
        <ele>2449.1999511719</ele>
        <time>2019-12-30T14:07:16.000Z</time>
      </trkpt>
      <trkpt lat="45.59679" lon="6.61637">
        <ele>2449.6000976562</ele>
        <time>2019-12-30T14:07:21.000Z</time>
      </trkpt>
      <trkpt lat="45.59678" lon="6.61637">
        <ele>2450</ele>
        <time>2019-12-30T14:07:26.000Z</time>
      </trkpt>
      <trkpt lat="45.59678" lon="6.61637">
        <ele>2450.3999023438</ele>
        <time>2019-12-30T14:07:27.000Z</time>
      </trkpt>
      <trkpt lat="45.59677" lon="6.61638">
        <ele>2451.1999511719</ele>
        <time>2019-12-30T14:07:32.000Z</time>
      </trkpt>
      <trkpt lat="45.59676" lon="6.61638">
        <ele>2451.6000976562</ele>
        <time>2019-12-30T14:07:36.000Z</time>
      </trkpt>
      <trkpt lat="45.59675" lon="6.61639">
        <ele>2452.6000976562</ele>
        <time>2019-12-30T14:07:39.000Z</time>
      </trkpt>
      <trkpt lat="45.59675" lon="6.61639">
        <ele>2452.8000488281</ele>
        <time>2019-12-30T14:07:40.000Z</time>
      </trkpt>
      <trkpt lat="45.59674" lon="6.6164">
        <ele>2452.8000488281</ele>
        <time>2019-12-30T14:07:47.000Z</time>
      </trkpt>
      <trkpt lat="45.59673" lon="6.61641">
        <ele>2454</ele>
        <time>2019-12-30T14:07:53.000Z</time>
      </trkpt>
      <trkpt lat="45.59673" lon="6.61641">
        <ele>2454.3999023438</ele>
        <time>2019-12-30T14:07:54.000Z</time>
      </trkpt>
      <trkpt lat="45.59672" lon="6.61641">
        <ele>2455</ele>
        <time>2019-12-30T14:07:58.000Z</time>
      </trkpt>
      <trkpt lat="45.59672" lon="6.61641">
        <ele>2455.1999511719</ele>
        <time>2019-12-30T14:08:01.000Z</time>
      </trkpt>
      <trkpt lat="45.59671" lon="6.61641">
        <ele>2456.1999511719</ele>
        <time>2019-12-30T14:08:07.000Z</time>
      </trkpt>
      <trkpt lat="45.59669" lon="6.61641">
        <ele>2457.1999511719</ele>
        <time>2019-12-30T14:08:11.000Z</time>
      </trkpt>
      <trkpt lat="45.59669" lon="6.61641">
        <ele>2457.8000488281</ele>
        <time>2019-12-30T14:08:15.000Z</time>
      </trkpt>
      <trkpt lat="45.59669" lon="6.61641">
        <ele>2458.1999511719</ele>
        <time>2019-12-30T14:08:21.000Z</time>
      </trkpt>
      <trkpt lat="45.59668" lon="6.61642">
        <ele>2457.6000976562</ele>
        <time>2019-12-30T14:08:24.000Z</time>
      </trkpt>
      <trkpt lat="45.59668" lon="6.61642">
        <ele>2457.1999511719</ele>
        <time>2019-12-30T14:08:26.000Z</time>
      </trkpt>
      <trkpt lat="45.59668" lon="6.61642">
        <ele>2458.1999511719</ele>
        <time>2019-12-30T14:08:29.000Z</time>
      </trkpt>
      <trkpt lat="45.59667" lon="6.61642">
        <ele>2458.3999023438</ele>
        <time>2019-12-30T14:08:34.000Z</time>
      </trkpt>
      <trkpt lat="45.59666" lon="6.61643">
        <ele>2459.3999023438</ele>
        <time>2019-12-30T14:08:38.000Z</time>
      </trkpt>
      <trkpt lat="45.59665" lon="6.61643">
        <ele>2460.3999023438</ele>
        <time>2019-12-30T14:08:40.000Z</time>
      </trkpt>
      <trkpt lat="45.59665" lon="6.61643">
        <ele>2460.6000976562</ele>
        <time>2019-12-30T14:08:41.000Z</time>
      </trkpt>
      <trkpt lat="45.59663" lon="6.61644">
        <ele>2460.6000976562</ele>
        <time>2019-12-30T14:08:47.000Z</time>
      </trkpt>
      <trkpt lat="45.59662" lon="6.61644">
        <ele>2461.3999023438</ele>
        <time>2019-12-30T14:08:51.000Z</time>
      </trkpt>
      <trkpt lat="45.5966" lon="6.61644">
        <ele>2461.8000488281</ele>
        <time>2019-12-30T14:08:52.000Z</time>
      </trkpt>
      <trkpt lat="45.59658" lon="6.61644">
        <ele>2462.3999023438</ele>
        <time>2019-12-30T14:08:55.000Z</time>
      </trkpt>
      <trkpt lat="45.59658" lon="6.61645">
        <ele>2463</ele>
        <time>2019-12-30T14:08:57.000Z</time>
      </trkpt>
      <trkpt lat="45.59655" lon="6.61646">
        <ele>2463.6000976562</ele>
        <time>2019-12-30T14:09:02.000Z</time>
      </trkpt>
      <trkpt lat="45.59655" lon="6.61646">
        <ele>2464.6000976562</ele>
        <time>2019-12-30T14:09:06.000Z</time>
      </trkpt>
      <trkpt lat="45.59655" lon="6.61646">
        <ele>2465</ele>
        <time>2019-12-30T14:09:08.000Z</time>
      </trkpt>
      <trkpt lat="45.59654" lon="6.61646">
        <ele>2464.6000976562</ele>
        <time>2019-12-30T14:09:16.000Z</time>
      </trkpt>
      <trkpt lat="45.59651" lon="6.61644">
        <ele>2465.6000976562</ele>
        <time>2019-12-30T14:09:22.000Z</time>
      </trkpt>
      <trkpt lat="45.59649" lon="6.61645">
        <ele>2466.1999511719</ele>
        <time>2019-12-30T14:09:27.000Z</time>
      </trkpt>
      <trkpt lat="45.59647" lon="6.61644">
        <ele>2466.8000488281</ele>
        <time>2019-12-30T14:09:31.000Z</time>
      </trkpt>
      <trkpt lat="45.59647" lon="6.61645">
        <ele>2466.8000488281</ele>
        <time>2019-12-30T14:09:32.000Z</time>
      </trkpt>
      <trkpt lat="45.59645" lon="6.61644">
        <ele>2467.8000488281</ele>
        <time>2019-12-30T14:09:36.000Z</time>
      </trkpt>
      <trkpt lat="45.59645" lon="6.61643">
        <ele>2468.1999511719</ele>
        <time>2019-12-30T14:09:38.000Z</time>
      </trkpt>
      <trkpt lat="45.59642" lon="6.61642">
        <ele>2468.8000488281</ele>
        <time>2019-12-30T14:09:43.000Z</time>
      </trkpt>
      <trkpt lat="45.59642" lon="6.61642">
        <ele>2470</ele>
        <time>2019-12-30T14:09:49.000Z</time>
      </trkpt>
      <trkpt lat="45.59641" lon="6.61643">
        <ele>2470.8000488281</ele>
        <time>2019-12-30T14:09:54.000Z</time>
      </trkpt>
      <trkpt lat="45.59641" lon="6.61643">
        <ele>2471.1999511719</ele>
        <time>2019-12-30T14:09:56.000Z</time>
      </trkpt>
      <trkpt lat="45.5964" lon="6.61643">
        <ele>2472.1999511719</ele>
        <time>2019-12-30T14:09:59.000Z</time>
      </trkpt>
      <trkpt lat="45.59639" lon="6.61643">
        <ele>2472.3999023438</ele>
        <time>2019-12-30T14:10:00.000Z</time>
      </trkpt>
      <trkpt lat="45.59638" lon="6.61645">
        <ele>2473.3999023438</ele>
        <time>2019-12-30T14:10:05.000Z</time>
      </trkpt>
      <trkpt lat="45.59637" lon="6.61646">
        <ele>2474.3999023438</ele>
        <time>2019-12-30T14:10:09.000Z</time>
      </trkpt>
      <trkpt lat="45.59637" lon="6.61647">
        <ele>2474.6000976562</ele>
        <time>2019-12-30T14:10:11.000Z</time>
      </trkpt>
      <trkpt lat="45.59636" lon="6.61647">
        <ele>2475.3999023438</ele>
        <time>2019-12-30T14:10:20.000Z</time>
      </trkpt>
      <trkpt lat="45.59636" lon="6.61647">
        <ele>2475.6000976562</ele>
        <time>2019-12-30T14:10:21.000Z</time>
      </trkpt>
      <trkpt lat="45.59636" lon="6.61647">
        <ele>2475.6000976562</ele>
        <time>2019-12-30T14:10:36.000Z</time>
      </trkpt>
      <trkpt lat="45.59636" lon="6.61647">
        <ele>2476.1999511719</ele>
        <time>2019-12-30T14:10:47.000Z</time>
      </trkpt>
      <trkpt lat="45.59634" lon="6.61648">
        <ele>2476.3999023438</ele>
        <time>2019-12-30T14:10:52.000Z</time>
      </trkpt>
      <trkpt lat="45.59634" lon="6.61648">
        <ele>2476.3999023438</ele>
        <time>2019-12-30T14:10:53.000Z</time>
      </trkpt>
      <trkpt lat="45.59632" lon="6.6165">
        <ele>2477.1999511719</ele>
        <time>2019-12-30T14:10:57.000Z</time>
      </trkpt>
      <trkpt lat="45.59632" lon="6.6165">
        <ele>2477.3999023438</ele>
        <time>2019-12-30T14:10:58.000Z</time>
      </trkpt>
      <trkpt lat="45.59631" lon="6.61651">
        <ele>2478.1999511719</ele>
        <time>2019-12-30T14:11:02.000Z</time>
      </trkpt>
      <trkpt lat="45.5963" lon="6.61652">
        <ele>2478.6000976562</ele>
        <time>2019-12-30T14:11:04.000Z</time>
      </trkpt>
      <trkpt lat="45.5963" lon="6.61652">
        <ele>2479.3999023438</ele>
        <time>2019-12-30T14:11:07.000Z</time>
      </trkpt>
      <trkpt lat="45.59629" lon="6.61653">
        <ele>2479.8000488281</ele>
        <time>2019-12-30T14:11:08.000Z</time>
      </trkpt>
      <trkpt lat="45.59629" lon="6.61653">
        <ele>2480.3999023438</ele>
        <time>2019-12-30T14:11:12.000Z</time>
      </trkpt>
      <trkpt lat="45.59629" lon="6.61653">
        <ele>2480.8000488281</ele>
        <time>2019-12-30T14:11:15.000Z</time>
      </trkpt>
      <trkpt lat="45.59629" lon="6.61653">
        <ele>2481.3999023438</ele>
        <time>2019-12-30T14:11:18.000Z</time>
      </trkpt>
      <trkpt lat="45.59628" lon="6.61654">
        <ele>2482</ele>
        <time>2019-12-30T14:11:21.000Z</time>
      </trkpt>
      <trkpt lat="45.59627" lon="6.61656">
        <ele>2482.3999023438</ele>
        <time>2019-12-30T14:11:25.000Z</time>
      </trkpt>
      <trkpt lat="45.59627" lon="6.61659">
        <ele>2483</ele>
        <time>2019-12-30T14:11:28.000Z</time>
      </trkpt>
      <trkpt lat="45.59626" lon="6.6166">
        <ele>2484</ele>
        <time>2019-12-30T14:11:32.000Z</time>
      </trkpt>
      <trkpt lat="45.59626" lon="6.6166">
        <ele>2484.1999511719</ele>
        <time>2019-12-30T14:11:33.000Z</time>
      </trkpt>
      <trkpt lat="45.59626" lon="6.6166">
        <ele>2484.3999023438</ele>
        <time>2019-12-30T14:11:39.000Z</time>
      </trkpt>
      <trkpt lat="45.59626" lon="6.6166">
        <ele>2485.1999511719</ele>
        <time>2019-12-30T14:11:43.000Z</time>
      </trkpt>
      <trkpt lat="45.59626" lon="6.6166">
        <ele>2485.6000976562</ele>
        <time>2019-12-30T14:11:50.000Z</time>
      </trkpt>
      <trkpt lat="45.59625" lon="6.61661">
        <ele>2485</ele>
        <time>2019-12-30T14:12:01.000Z</time>
      </trkpt>
      <trkpt lat="45.59625" lon="6.61661">
        <ele>2485</ele>
        <time>2019-12-30T14:12:23.000Z</time>
      </trkpt>
      <trkpt lat="45.59626" lon="6.6166">
        <ele>2485</ele>
        <time>2019-12-30T14:12:37.000Z</time>
      </trkpt>
      <trkpt lat="45.59626" lon="6.6166">
        <ele>2485</ele>
        <time>2019-12-30T14:12:53.000Z</time>
      </trkpt>
      <trkpt lat="45.59624" lon="6.6166">
        <ele>2484.8000488281</ele>
        <time>2019-12-30T14:13:10.000Z</time>
      </trkpt>
      <trkpt lat="45.59623" lon="6.6166">
        <ele>2484.8000488281</ele>
        <time>2019-12-30T14:13:15.000Z</time>
      </trkpt>
      <trkpt lat="45.59622" lon="6.6166">
        <ele>2485.1999511719</ele>
        <time>2019-12-30T14:13:23.000Z</time>
      </trkpt>
      <trkpt lat="45.59621" lon="6.6166">
        <ele>2486.1999511719</ele>
        <time>2019-12-30T14:13:29.000Z</time>
      </trkpt>
      <trkpt lat="45.59619" lon="6.6166">
        <ele>2486.6000976562</ele>
        <time>2019-12-30T14:13:31.000Z</time>
      </trkpt>
      <trkpt lat="45.59618" lon="6.61659">
        <ele>2487.1999511719</ele>
        <time>2019-12-30T14:13:34.000Z</time>
      </trkpt>
      <trkpt lat="45.59616" lon="6.61657">
        <ele>2487.3999023438</ele>
        <time>2019-12-30T14:13:35.000Z</time>
      </trkpt>
      <trkpt lat="45.59615" lon="6.61656">
        <ele>2487.3999023438</ele>
        <time>2019-12-30T14:13:37.000Z</time>
      </trkpt>
      <trkpt lat="45.59611" lon="6.61653">
        <ele>2487.3999023438</ele>
        <time>2019-12-30T14:13:44.000Z</time>
      </trkpt>
      <trkpt lat="45.5961" lon="6.61653">
        <ele>2487.6000976562</ele>
        <time>2019-12-30T14:13:48.000Z</time>
      </trkpt>
      <trkpt lat="45.59609" lon="6.61653">
        <ele>2488.1999511719</ele>
        <time>2019-12-30T14:13:52.000Z</time>
      </trkpt>
      <trkpt lat="45.59609" lon="6.61653">
        <ele>2488.3999023438</ele>
        <time>2019-12-30T14:13:53.000Z</time>
      </trkpt>
      <trkpt lat="45.59608" lon="6.61654">
        <ele>2489.6000976562</ele>
        <time>2019-12-30T14:13:58.000Z</time>
      </trkpt>
      <trkpt lat="45.59608" lon="6.61654">
        <ele>2490.6000976562</ele>
        <time>2019-12-30T14:14:03.000Z</time>
      </trkpt>
      <trkpt lat="45.59607" lon="6.61654">
        <ele>2490.8000488281</ele>
        <time>2019-12-30T14:14:04.000Z</time>
      </trkpt>
      <trkpt lat="45.59606" lon="6.61655">
        <ele>2491.1999511719</ele>
        <time>2019-12-30T14:14:09.000Z</time>
      </trkpt>
      <trkpt lat="45.59605" lon="6.61655">
        <ele>2491.6000976562</ele>
        <time>2019-12-30T14:14:11.000Z</time>
      </trkpt>
      <trkpt lat="45.59604" lon="6.61657">
        <ele>2492</ele>
        <time>2019-12-30T14:14:15.000Z</time>
      </trkpt>
      <trkpt lat="45.59604" lon="6.61657">
        <ele>2492.8000488281</ele>
        <time>2019-12-30T14:14:21.000Z</time>
      </trkpt>
      <trkpt lat="45.59604" lon="6.61658">
        <ele>2493.6000976562</ele>
        <time>2019-12-30T14:14:23.000Z</time>
      </trkpt>
      <trkpt lat="45.59603" lon="6.61659">
        <ele>2493.8000488281</ele>
        <time>2019-12-30T14:14:26.000Z</time>
      </trkpt>
      <trkpt lat="45.59603" lon="6.61659">
        <ele>2494.6000976562</ele>
        <time>2019-12-30T14:14:31.000Z</time>
      </trkpt>
      <trkpt lat="45.59603" lon="6.61659">
        <ele>2494.8000488281</ele>
        <time>2019-12-30T14:14:33.000Z</time>
      </trkpt>
      <trkpt lat="45.59603" lon="6.61663">
        <ele>2495.1999511719</ele>
        <time>2019-12-30T14:14:37.000Z</time>
      </trkpt>
      <trkpt lat="45.59603" lon="6.61663">
        <ele>2495.8000488281</ele>
        <time>2019-12-30T14:14:39.000Z</time>
      </trkpt>
      <trkpt lat="45.59603" lon="6.61665">
        <ele>2496.8000488281</ele>
        <time>2019-12-30T14:14:42.000Z</time>
      </trkpt>
      <trkpt lat="45.59603" lon="6.61665">
        <ele>2498</ele>
        <time>2019-12-30T14:14:49.000Z</time>
      </trkpt>
      <trkpt lat="45.59603" lon="6.61665">
        <ele>2498.3999023438</ele>
        <time>2019-12-30T14:14:51.000Z</time>
      </trkpt>
      <trkpt lat="45.59603" lon="6.61665">
        <ele>2499</ele>
        <time>2019-12-30T14:14:55.000Z</time>
      </trkpt>
      <trkpt lat="45.59602" lon="6.61666">
        <ele>2499.3999023438</ele>
        <time>2019-12-30T14:15:00.000Z</time>
      </trkpt>
      <trkpt lat="45.59602" lon="6.61666">
        <ele>2499.8000488281</ele>
        <time>2019-12-30T14:15:08.000Z</time>
      </trkpt>
      <trkpt lat="45.59602" lon="6.61667">
        <ele>2500</ele>
        <time>2019-12-30T14:15:10.000Z</time>
      </trkpt>
      <trkpt lat="45.596" lon="6.61668">
        <ele>2500.8000488281</ele>
        <time>2019-12-30T14:15:13.000Z</time>
      </trkpt>
      <trkpt lat="45.59599" lon="6.61669">
        <ele>2501</ele>
        <time>2019-12-30T14:15:18.000Z</time>
      </trkpt>
      <trkpt lat="45.59599" lon="6.6167">
        <ele>2501.1999511719</ele>
        <time>2019-12-30T14:15:20.000Z</time>
      </trkpt>
      <trkpt lat="45.59597" lon="6.61673">
        <ele>2502.1999511719</ele>
        <time>2019-12-30T14:15:24.000Z</time>
      </trkpt>
      <trkpt lat="45.59597" lon="6.61674">
        <ele>2503.3999023438</ele>
        <time>2019-12-30T14:15:28.000Z</time>
      </trkpt>
      <trkpt lat="45.59596" lon="6.61675">
        <ele>2503.6000976562</ele>
        <time>2019-12-30T14:15:29.000Z</time>
      </trkpt>
      <trkpt lat="45.59595" lon="6.61676">
        <ele>2504.3999023438</ele>
        <time>2019-12-30T14:15:33.000Z</time>
      </trkpt>
      <trkpt lat="45.59595" lon="6.61677">
        <ele>2504.8000488281</ele>
        <time>2019-12-30T14:15:34.000Z</time>
      </trkpt>
      <trkpt lat="45.59594" lon="6.61678">
        <ele>2505.6000976562</ele>
        <time>2019-12-30T14:15:37.000Z</time>
      </trkpt>
      <trkpt lat="45.59593" lon="6.61678">
        <ele>2506.1999511719</ele>
        <time>2019-12-30T14:15:39.000Z</time>
      </trkpt>
      <trkpt lat="45.59594" lon="6.61679">
        <ele>2506.3999023438</ele>
        <time>2019-12-30T14:15:44.000Z</time>
      </trkpt>
      <trkpt lat="45.59594" lon="6.61679">
        <ele>2505.8000488281</ele>
        <time>2019-12-30T14:15:50.000Z</time>
      </trkpt>
      <trkpt lat="45.59594" lon="6.61679">
        <ele>2506.3999023438</ele>
        <time>2019-12-30T14:16:00.000Z</time>
      </trkpt>
      <trkpt lat="45.59594" lon="6.61678">
        <ele>2506.1999511719</ele>
        <time>2019-12-30T14:16:09.000Z</time>
      </trkpt>
      <trkpt lat="45.59594" lon="6.61678">
        <ele>2506</ele>
        <time>2019-12-30T14:16:24.000Z</time>
      </trkpt>
      <trkpt lat="45.59594" lon="6.61678">
        <ele>2504.3999023438</ele>
        <time>2019-12-30T14:16:30.000Z</time>
      </trkpt>
      <trkpt lat="45.59594" lon="6.61678">
        <ele>2505.6000976562</ele>
        <time>2019-12-30T14:16:36.000Z</time>
      </trkpt>
      <trkpt lat="45.59594" lon="6.61678">
        <ele>2505.8000488281</ele>
        <time>2019-12-30T14:16:39.000Z</time>
      </trkpt>
      <trkpt lat="45.59594" lon="6.61678">
        <ele>2506.8000488281</ele>
        <time>2019-12-30T14:16:46.000Z</time>
      </trkpt>
      <trkpt lat="45.59594" lon="6.61678">
        <ele>2505.8000488281</ele>
        <time>2019-12-30T14:16:49.000Z</time>
      </trkpt>
      <trkpt lat="45.59594" lon="6.61678">
        <ele>2505.6000976562</ele>
        <time>2019-12-30T14:16:50.000Z</time>
      </trkpt>
      <trkpt lat="45.59594" lon="6.61678">
        <ele>2505.8000488281</ele>
        <time>2019-12-30T14:16:59.000Z</time>
      </trkpt>
      <trkpt lat="45.59594" lon="6.61678">
        <ele>2505.1999511719</ele>
        <time>2019-12-30T14:17:10.000Z</time>
      </trkpt>
      <trkpt lat="45.59594" lon="6.61678">
        <ele>2505.3999023438</ele>
        <time>2019-12-30T14:17:17.000Z</time>
      </trkpt>
      <trkpt lat="45.59594" lon="6.61679">
        <ele>2505.3999023438</ele>
        <time>2019-12-30T14:17:36.000Z</time>
      </trkpt>
      <trkpt lat="45.59594" lon="6.61679">
        <ele>2505.3999023438</ele>
        <time>2019-12-30T14:17:55.000Z</time>
      </trkpt>
      <trkpt lat="45.59594" lon="6.61679">
        <ele>2506</ele>
        <time>2019-12-30T14:18:07.000Z</time>
      </trkpt>
      <trkpt lat="45.59594" lon="6.61679">
        <ele>2505.8000488281</ele>
        <time>2019-12-30T14:18:21.000Z</time>
      </trkpt>
      <trkpt lat="45.59594" lon="6.61679">
        <ele>2506</ele>
        <time>2019-12-30T14:18:33.000Z</time>
      </trkpt>
      <trkpt lat="45.59593" lon="6.61679">
        <ele>2506.1999511719</ele>
        <time>2019-12-30T14:18:53.000Z</time>
      </trkpt>
      <trkpt lat="45.59593" lon="6.61679">
        <ele>2506.1999511719</ele>
        <time>2019-12-30T14:19:05.000Z</time>
      </trkpt>
      <trkpt lat="45.59594" lon="6.61682">
        <ele>2506</ele>
        <time>2019-12-30T14:19:13.000Z</time>
      </trkpt>
      <trkpt lat="45.59594" lon="6.61682">
        <ele>2505.6000976562</ele>
        <time>2019-12-30T14:19:23.000Z</time>
      </trkpt>
      <trkpt lat="45.59594" lon="6.61682">
        <ele>2506.1999511719</ele>
        <time>2019-12-30T14:19:42.000Z</time>
      </trkpt>
      <trkpt lat="45.59595" lon="6.61684">
        <ele>2506.3999023438</ele>
        <time>2019-12-30T14:19:53.000Z</time>
      </trkpt>
      <trkpt lat="45.59595" lon="6.61684">
        <ele>2506.1999511719</ele>
        <time>2019-12-30T14:20:02.000Z</time>
      </trkpt>
      <trkpt lat="45.59596" lon="6.61685">
        <ele>2506</ele>
        <time>2019-12-30T14:20:15.000Z</time>
      </trkpt>
      <trkpt lat="45.59598" lon="6.61687">
        <ele>2505.8000488281</ele>
        <time>2019-12-30T14:20:18.000Z</time>
      </trkpt>
      <trkpt lat="45.59599" lon="6.61688">
        <ele>2506</ele>
        <time>2019-12-30T14:20:22.000Z</time>
      </trkpt>
      <trkpt lat="45.59599" lon="6.61689">
        <ele>2506.3999023438</ele>
        <time>2019-12-30T14:20:26.000Z</time>
      </trkpt>
      <trkpt lat="45.596" lon="6.6169">
        <ele>2506.3999023438</ele>
        <time>2019-12-30T14:20:27.000Z</time>
      </trkpt>
      <trkpt lat="45.59601" lon="6.61692">
        <ele>2506.6000976562</ele>
        <time>2019-12-30T14:20:30.000Z</time>
      </trkpt>
      <trkpt lat="45.59601" lon="6.61693">
        <ele>2507.1999511719</ele>
        <time>2019-12-30T14:20:39.000Z</time>
      </trkpt>
      <trkpt lat="45.59601" lon="6.61692">
        <ele>2507</ele>
        <time>2019-12-30T14:20:56.000Z</time>
      </trkpt>
      <trkpt lat="45.59601" lon="6.61692">
        <ele>2506.8000488281</ele>
        <time>2019-12-30T14:21:09.000Z</time>
      </trkpt>
      <trkpt lat="45.59601" lon="6.61692">
        <ele>2506.8000488281</ele>
        <time>2019-12-30T14:21:25.000Z</time>
      </trkpt>
      <trkpt lat="45.59601" lon="6.61692">
        <ele>2505.6000976562</ele>
        <time>2019-12-30T14:21:32.000Z</time>
      </trkpt>
      <trkpt lat="45.59601" lon="6.61692">
        <ele>2505.8000488281</ele>
        <time>2019-12-30T14:21:35.000Z</time>
      </trkpt>
      <trkpt lat="45.59601" lon="6.61693">
        <ele>2507.1999511719</ele>
        <time>2019-12-30T14:21:38.000Z</time>
      </trkpt>
      <trkpt lat="45.59601" lon="6.61693">
        <ele>2508</ele>
        <time>2019-12-30T14:21:41.000Z</time>
      </trkpt>
      <trkpt lat="45.59601" lon="6.61693">
        <ele>2506.8000488281</ele>
        <time>2019-12-30T14:21:55.000Z</time>
      </trkpt>
      <trkpt lat="45.59601" lon="6.61693">
        <ele>2507</ele>
        <time>2019-12-30T14:22:07.000Z</time>
      </trkpt>
      <trkpt lat="45.59601" lon="6.61693">
        <ele>2506.8000488281</ele>
        <time>2019-12-30T14:22:19.000Z</time>
      </trkpt>
      <trkpt lat="45.59601" lon="6.61693">
        <ele>2505.8000488281</ele>
        <time>2019-12-30T14:22:23.000Z</time>
      </trkpt>
      <trkpt lat="45.59601" lon="6.61693">
        <ele>2506.6000976562</ele>
        <time>2019-12-30T14:22:30.000Z</time>
      </trkpt>
      <trkpt lat="45.59601" lon="6.61693">
        <ele>2506.8000488281</ele>
        <time>2019-12-30T14:22:31.000Z</time>
      </trkpt>
      <trkpt lat="45.59601" lon="6.61693">
        <ele>2506.1999511719</ele>
        <time>2019-12-30T14:22:47.000Z</time>
      </trkpt>
      <trkpt lat="45.59601" lon="6.61693">
        <ele>2505.6000976562</ele>
        <time>2019-12-30T14:22:49.000Z</time>
      </trkpt>
      <trkpt lat="45.59601" lon="6.61693">
        <ele>2506.1999511719</ele>
        <time>2019-12-30T14:22:57.000Z</time>
      </trkpt>
      <trkpt lat="45.59601" lon="6.61693">
        <ele>2506.8000488281</ele>
        <time>2019-12-30T14:23:01.000Z</time>
      </trkpt>
      <trkpt lat="45.59601" lon="6.61693">
        <ele>2506.6000976562</ele>
        <time>2019-12-30T14:23:11.000Z</time>
      </trkpt>
      <trkpt lat="45.59601" lon="6.61693">
        <ele>2506.1999511719</ele>
        <time>2019-12-30T14:23:20.000Z</time>
      </trkpt>
      <trkpt lat="45.59601" lon="6.61693">
        <ele>2506.1999511719</ele>
        <time>2019-12-30T14:23:36.000Z</time>
      </trkpt>
      <trkpt lat="45.59601" lon="6.61693">
        <ele>2506.1999511719</ele>
        <time>2019-12-30T14:23:50.000Z</time>
      </trkpt>
      <trkpt lat="45.59601" lon="6.61693">
        <ele>2506.6000976562</ele>
        <time>2019-12-30T14:24:03.000Z</time>
      </trkpt>
      <trkpt lat="45.59601" lon="6.61693">
        <ele>2506.6000976562</ele>
        <time>2019-12-30T14:24:06.000Z</time>
      </trkpt>
      <trkpt lat="45.59602" lon="6.61693">
        <ele>2506.6000976562</ele>
        <time>2019-12-30T14:24:17.000Z</time>
      </trkpt>
      <trkpt lat="45.59602" lon="6.61693">
        <ele>2506.3999023438</ele>
        <time>2019-12-30T14:24:34.000Z</time>
      </trkpt>
      <trkpt lat="45.59602" lon="6.61693">
        <ele>2506.6000976562</ele>
        <time>2019-12-30T14:24:41.000Z</time>
      </trkpt>
      <trkpt lat="45.59602" lon="6.61693">
        <ele>2506</ele>
        <time>2019-12-30T14:24:55.000Z</time>
      </trkpt>
      <trkpt lat="45.59602" lon="6.61693">
        <ele>2506.6000976562</ele>
        <time>2019-12-30T14:25:08.000Z</time>
      </trkpt>
      <trkpt lat="45.59602" lon="6.61693">
        <ele>2506.6000976562</ele>
        <time>2019-12-30T14:25:19.000Z</time>
      </trkpt>
      <trkpt lat="45.59602" lon="6.61693">
        <ele>2506.1999511719</ele>
        <time>2019-12-30T14:25:35.000Z</time>
      </trkpt>
      <trkpt lat="45.59602" lon="6.61693">
        <ele>2506.3999023438</ele>
        <time>2019-12-30T14:25:52.000Z</time>
      </trkpt>
      <trkpt lat="45.59602" lon="6.61693">
        <ele>2506.6000976562</ele>
        <time>2019-12-30T14:26:11.000Z</time>
      </trkpt>
      <trkpt lat="45.59602" lon="6.61693">
        <ele>2506.3999023438</ele>
        <time>2019-12-30T14:26:28.000Z</time>
      </trkpt>
      <trkpt lat="45.59602" lon="6.61693">
        <ele>2506.8000488281</ele>
        <time>2019-12-30T14:26:38.000Z</time>
      </trkpt>
      <trkpt lat="45.59602" lon="6.61693">
        <ele>2506.1999511719</ele>
        <time>2019-12-30T14:26:51.000Z</time>
      </trkpt>
      <trkpt lat="45.59602" lon="6.61693">
        <ele>2506.8000488281</ele>
        <time>2019-12-30T14:27:03.000Z</time>
      </trkpt>
      <trkpt lat="45.59602" lon="6.61693">
        <ele>2506.8000488281</ele>
        <time>2019-12-30T14:27:19.000Z</time>
      </trkpt>
      <trkpt lat="45.59602" lon="6.61693">
        <ele>2506.8000488281</ele>
        <time>2019-12-30T14:27:38.000Z</time>
      </trkpt>
      <trkpt lat="45.59602" lon="6.61693">
        <ele>2505.8000488281</ele>
        <time>2019-12-30T14:27:48.000Z</time>
      </trkpt>
      <trkpt lat="45.59602" lon="6.61693">
        <ele>2505.6000976562</ele>
        <time>2019-12-30T14:27:49.000Z</time>
      </trkpt>
      <trkpt lat="45.59602" lon="6.61693">
        <ele>2506</ele>
        <time>2019-12-30T14:28:05.000Z</time>
      </trkpt>
      <trkpt lat="45.59602" lon="6.61693">
        <ele>2506.8000488281</ele>
        <time>2019-12-30T14:28:10.000Z</time>
      </trkpt>
      <trkpt lat="45.59602" lon="6.61693">
        <ele>2505.8000488281</ele>
        <time>2019-12-30T14:28:14.000Z</time>
      </trkpt>
      <trkpt lat="45.59602" lon="6.61693">
        <ele>2505.6000976562</ele>
        <time>2019-12-30T14:28:15.000Z</time>
      </trkpt>
      <trkpt lat="45.59602" lon="6.61693">
        <ele>2506.1999511719</ele>
        <time>2019-12-30T14:28:30.000Z</time>
      </trkpt>
      <trkpt lat="45.59602" lon="6.61693">
        <ele>2506.1999511719</ele>
        <time>2019-12-30T14:28:49.000Z</time>
      </trkpt>
      <trkpt lat="45.59602" lon="6.61693">
        <ele>2506</ele>
        <time>2019-12-30T14:29:06.000Z</time>
      </trkpt>
      <trkpt lat="45.59602" lon="6.61693">
        <ele>2506</ele>
        <time>2019-12-30T14:29:24.000Z</time>
      </trkpt>
      <trkpt lat="45.59602" lon="6.61693">
        <ele>2506.3999023438</ele>
        <time>2019-12-30T14:29:34.000Z</time>
      </trkpt>
      <trkpt lat="45.59602" lon="6.61693">
        <ele>2506.6000976562</ele>
        <time>2019-12-30T14:29:49.000Z</time>
      </trkpt>
      <trkpt lat="45.59602" lon="6.61693">
        <ele>2506.8000488281</ele>
        <time>2019-12-30T14:30:01.000Z</time>
      </trkpt>
      <trkpt lat="45.59602" lon="6.61693">
        <ele>2506.8000488281</ele>
        <time>2019-12-30T14:30:04.000Z</time>
      </trkpt>
      <trkpt lat="45.59602" lon="6.61693">
        <ele>2506.6000976562</ele>
        <time>2019-12-30T14:30:20.000Z</time>
      </trkpt>
      <trkpt lat="45.59602" lon="6.61693">
        <ele>2506.8000488281</ele>
        <time>2019-12-30T14:30:33.000Z</time>
      </trkpt>
      <trkpt lat="45.59602" lon="6.61693">
        <ele>2507.1999511719</ele>
        <time>2019-12-30T14:30:41.000Z</time>
      </trkpt>
      <trkpt lat="45.59602" lon="6.61692">
        <ele>2507.3999023438</ele>
        <time>2019-12-30T14:30:48.000Z</time>
      </trkpt>
      <trkpt lat="45.59602" lon="6.61693">
        <ele>2506.8000488281</ele>
        <time>2019-12-30T14:30:58.000Z</time>
      </trkpt>
      <trkpt lat="45.59602" lon="6.61693">
        <ele>2507.1999511719</ele>
        <time>2019-12-30T14:31:10.000Z</time>
      </trkpt>
      <trkpt lat="45.59602" lon="6.61693">
        <ele>2506.8000488281</ele>
        <time>2019-12-30T14:31:27.000Z</time>
      </trkpt>
      <trkpt lat="45.59602" lon="6.61693">
        <ele>2506.8000488281</ele>
        <time>2019-12-30T14:31:46.000Z</time>
      </trkpt>
      <trkpt lat="45.59602" lon="6.61693">
        <ele>2506.8000488281</ele>
        <time>2019-12-30T14:32:02.000Z</time>
      </trkpt>
      <trkpt lat="45.59602" lon="6.61693">
        <ele>2506.6000976562</ele>
        <time>2019-12-30T14:32:15.000Z</time>
      </trkpt>
      <trkpt lat="45.59602" lon="6.61693">
        <ele>2506.8000488281</ele>
        <time>2019-12-30T14:32:32.000Z</time>
      </trkpt>
      <trkpt lat="45.59602" lon="6.61693">
        <ele>2506.6000976562</ele>
        <time>2019-12-30T14:32:47.000Z</time>
      </trkpt>
      <trkpt lat="45.59602" lon="6.61693">
        <ele>2506.8000488281</ele>
        <time>2019-12-30T14:33:00.000Z</time>
      </trkpt>
      <trkpt lat="45.59602" lon="6.61693">
        <ele>2506</ele>
        <time>2019-12-30T14:33:10.000Z</time>
      </trkpt>
      <trkpt lat="45.59602" lon="6.61693">
        <ele>2507.3999023438</ele>
        <time>2019-12-30T14:33:22.000Z</time>
      </trkpt>
      <trkpt lat="45.59602" lon="6.61693">
        <ele>2506.8000488281</ele>
        <time>2019-12-30T14:33:41.000Z</time>
      </trkpt>
      <trkpt lat="45.59602" lon="6.61693">
        <ele>2506.8000488281</ele>
        <time>2019-12-30T14:33:57.000Z</time>
      </trkpt>
      <trkpt lat="45.59602" lon="6.61693">
        <ele>2506.8000488281</ele>
        <time>2019-12-30T14:34:11.000Z</time>
      </trkpt>
      <trkpt lat="45.59602" lon="6.61693">
        <ele>2506.6000976562</ele>
        <time>2019-12-30T14:34:17.000Z</time>
      </trkpt>
      <trkpt lat="45.59602" lon="6.61693">
        <ele>2506.3999023438</ele>
        <time>2019-12-30T14:34:26.000Z</time>
      </trkpt>
      <trkpt lat="45.59602" lon="6.61694">
        <ele>2506.1999511719</ele>
        <time>2019-12-30T14:34:38.000Z</time>
      </trkpt>
      <trkpt lat="45.59602" lon="6.61694">
        <ele>2506.3999023438</ele>
        <time>2019-12-30T14:34:51.000Z</time>
      </trkpt>
      <trkpt lat="45.59602" lon="6.61694">
        <ele>2506.3999023438</ele>
        <time>2019-12-30T14:35:10.000Z</time>
      </trkpt>
      <trkpt lat="45.596" lon="6.61694">
        <ele>2506.1999511719</ele>
        <time>2019-12-30T14:35:18.000Z</time>
      </trkpt>
      <trkpt lat="45.596" lon="6.61694">
        <ele>2505.8000488281</ele>
        <time>2019-12-30T14:35:22.000Z</time>
      </trkpt>
      <trkpt lat="45.59598" lon="6.61695">
        <ele>2505.3999023438</ele>
        <time>2019-12-30T14:35:24.000Z</time>
      </trkpt>
      <trkpt lat="45.59595" lon="6.61696">
        <ele>2504.3999023438</ele>
        <time>2019-12-30T14:35:28.000Z</time>
      </trkpt>
      <trkpt lat="45.59595" lon="6.61696">
        <ele>2504.1999511719</ele>
        <time>2019-12-30T14:35:29.000Z</time>
      </trkpt>
      <trkpt lat="45.59592" lon="6.61696">
        <ele>2503.3999023438</ele>
        <time>2019-12-30T14:35:31.000Z</time>
      </trkpt>
      <trkpt lat="45.5959" lon="6.61697">
        <ele>2503.1999511719</ele>
        <time>2019-12-30T14:35:32.000Z</time>
      </trkpt>
      <trkpt lat="45.59588" lon="6.61697">
        <ele>2502.3999023438</ele>
        <time>2019-12-30T14:35:34.000Z</time>
      </trkpt>
      <trkpt lat="45.59588" lon="6.61698">
        <ele>2500.8000488281</ele>
        <time>2019-12-30T14:35:36.000Z</time>
      </trkpt>
      <trkpt lat="45.59588" lon="6.61698">
        <ele>2499.8000488281</ele>
        <time>2019-12-30T14:35:41.000Z</time>
      </trkpt>
      <trkpt lat="45.59588" lon="6.61698">
        <ele>2499.3999023438</ele>
        <time>2019-12-30T14:35:43.000Z</time>
      </trkpt>
      <trkpt lat="45.59589" lon="6.617">
        <ele>2499</ele>
        <time>2019-12-30T14:35:47.000Z</time>
      </trkpt>
      <trkpt lat="45.59589" lon="6.61702">
        <ele>2499</ele>
        <time>2019-12-30T14:35:48.000Z</time>
      </trkpt>
      <trkpt lat="45.59589" lon="6.61703">
        <ele>2498.6000976562</ele>
        <time>2019-12-30T14:35:50.000Z</time>
      </trkpt>
      <trkpt lat="45.59589" lon="6.61705">
        <ele>2497.6000976562</ele>
        <time>2019-12-30T14:35:53.000Z</time>
      </trkpt>
      <trkpt lat="45.59589" lon="6.61705">
        <ele>2497.1999511719</ele>
        <time>2019-12-30T14:35:54.000Z</time>
      </trkpt>
      <trkpt lat="45.59588" lon="6.61706">
        <ele>2496.1999511719</ele>
        <time>2019-12-30T14:35:58.000Z</time>
      </trkpt>
      <trkpt lat="45.59588" lon="6.61707">
        <ele>2496</ele>
        <time>2019-12-30T14:35:59.000Z</time>
      </trkpt>
      <trkpt lat="45.59588" lon="6.61709">
        <ele>2495.3999023438</ele>
        <time>2019-12-30T14:36:00.000Z</time>
      </trkpt>
      <trkpt lat="45.5959" lon="6.61716">
        <ele>2494.8000488281</ele>
        <time>2019-12-30T14:36:02.000Z</time>
      </trkpt>
      <trkpt lat="45.59591" lon="6.61718">
        <ele>2494.1999511719</ele>
        <time>2019-12-30T14:36:03.000Z</time>
      </trkpt>
      <trkpt lat="45.59592" lon="6.6172">
        <ele>2493.6000976562</ele>
        <time>2019-12-30T14:36:04.000Z</time>
      </trkpt>
      <trkpt lat="45.59592" lon="6.6172">
        <ele>2492.1999511719</ele>
        <time>2019-12-30T14:36:06.000Z</time>
      </trkpt>
      <trkpt lat="45.59592" lon="6.61721">
        <ele>2491.1999511719</ele>
        <time>2019-12-30T14:36:09.000Z</time>
      </trkpt>
      <trkpt lat="45.59594" lon="6.61728">
        <ele>2490.8000488281</ele>
        <time>2019-12-30T14:36:11.000Z</time>
      </trkpt>
      <trkpt lat="45.59596" lon="6.61732">
        <ele>2490.1999511719</ele>
        <time>2019-12-30T14:36:14.000Z</time>
      </trkpt>
      <trkpt lat="45.59596" lon="6.61732">
        <ele>2489.1999511719</ele>
        <time>2019-12-30T14:36:16.000Z</time>
      </trkpt>
      <trkpt lat="45.59595" lon="6.61735">
        <ele>2488.6000976562</ele>
        <time>2019-12-30T14:36:17.000Z</time>
      </trkpt>
      <trkpt lat="45.59592" lon="6.61737">
        <ele>2488</ele>
        <time>2019-12-30T14:36:18.000Z</time>
      </trkpt>
      <trkpt lat="45.5959" lon="6.61738">
        <ele>2487.3999023438</ele>
        <time>2019-12-30T14:36:19.000Z</time>
      </trkpt>
      <trkpt lat="45.59587" lon="6.61745">
        <ele>2485.6000976562</ele>
        <time>2019-12-30T14:36:21.000Z</time>
      </trkpt>
      <trkpt lat="45.59587" lon="6.61751">
        <ele>2484.1999511719</ele>
        <time>2019-12-30T14:36:23.000Z</time>
      </trkpt>
      <trkpt lat="45.59584" lon="6.61752">
        <ele>2483</ele>
        <time>2019-12-30T14:36:24.000Z</time>
      </trkpt>
      <trkpt lat="45.59582" lon="6.61753">
        <ele>2481.6000976562</ele>
        <time>2019-12-30T14:36:25.000Z</time>
      </trkpt>
      <trkpt lat="45.59581" lon="6.61753">
        <ele>2479.8000488281</ele>
        <time>2019-12-30T14:36:26.000Z</time>
      </trkpt>
      <trkpt lat="45.59581" lon="6.61753">
        <ele>2477.8000488281</ele>
        <time>2019-12-30T14:36:27.000Z</time>
      </trkpt>
      <trkpt lat="45.59581" lon="6.61753">
        <ele>2475.8000488281</ele>
        <time>2019-12-30T14:36:28.000Z</time>
      </trkpt>
      <trkpt lat="45.59582" lon="6.61753">
        <ele>2474.6000976562</ele>
        <time>2019-12-30T14:36:29.000Z</time>
      </trkpt>
      <trkpt lat="45.59583" lon="6.61752">
        <ele>2473.1999511719</ele>
        <time>2019-12-30T14:36:31.000Z</time>
      </trkpt>
      <trkpt lat="45.59584" lon="6.61751">
        <ele>2472.1999511719</ele>
        <time>2019-12-30T14:36:33.000Z</time>
      </trkpt>
      <trkpt lat="45.59585" lon="6.61751">
        <ele>2471.8000488281</ele>
        <time>2019-12-30T14:36:38.000Z</time>
      </trkpt>
      <trkpt lat="45.59585" lon="6.61751">
        <ele>2471</ele>
        <time>2019-12-30T14:36:46.000Z</time>
      </trkpt>
      <trkpt lat="45.59585" lon="6.61751">
        <ele>2471.8000488281</ele>
        <time>2019-12-30T14:36:50.000Z</time>
      </trkpt>
      <trkpt lat="45.59585" lon="6.61751">
        <ele>2472.1999511719</ele>
        <time>2019-12-30T14:36:51.000Z</time>
      </trkpt>
      <trkpt lat="45.59585" lon="6.61751">
        <ele>2472.6000976562</ele>
        <time>2019-12-30T14:37:00.000Z</time>
      </trkpt>
      <trkpt lat="45.59585" lon="6.61751">
        <ele>2473.1999511719</ele>
        <time>2019-12-30T14:37:04.000Z</time>
      </trkpt>
      <trkpt lat="45.59585" lon="6.61751">
        <ele>2472.3999023438</ele>
        <time>2019-12-30T14:37:11.000Z</time>
      </trkpt>
      <trkpt lat="45.59585" lon="6.61751">
        <ele>2472</ele>
        <time>2019-12-30T14:37:14.000Z</time>
      </trkpt>
      <trkpt lat="45.59585" lon="6.61751">
        <ele>2473.1999511719</ele>
        <time>2019-12-30T14:37:19.000Z</time>
      </trkpt>
      <trkpt lat="45.59585" lon="6.61751">
        <ele>2473</ele>
        <time>2019-12-30T14:37:24.000Z</time>
      </trkpt>
      <trkpt lat="45.59585" lon="6.61751">
        <ele>2472</ele>
        <time>2019-12-30T14:37:35.000Z</time>
      </trkpt>
      <trkpt lat="45.59585" lon="6.61751">
        <ele>2472.1999511719</ele>
        <time>2019-12-30T14:37:38.000Z</time>
      </trkpt>
      <trkpt lat="45.59585" lon="6.61752">
        <ele>2472.3999023438</ele>
        <time>2019-12-30T14:37:44.000Z</time>
      </trkpt>
      <trkpt lat="45.59585" lon="6.61755">
        <ele>2472.3999023438</ele>
        <time>2019-12-30T14:37:45.000Z</time>
      </trkpt>
      <trkpt lat="45.59587" lon="6.61762">
        <ele>2471.8000488281</ele>
        <time>2019-12-30T14:37:49.000Z</time>
      </trkpt>
      <trkpt lat="45.59586" lon="6.61764">
        <ele>2471.1999511719</ele>
        <time>2019-12-30T14:37:50.000Z</time>
      </trkpt>
      <trkpt lat="45.59583" lon="6.61765">
        <ele>2470.3999023438</ele>
        <time>2019-12-30T14:37:51.000Z</time>
      </trkpt>
      <trkpt lat="45.5958" lon="6.61764">
        <ele>2469.3999023438</ele>
        <time>2019-12-30T14:37:52.000Z</time>
      </trkpt>
      <trkpt lat="45.59576" lon="6.61766">
        <ele>2468.3999023438</ele>
        <time>2019-12-30T14:37:53.000Z</time>
      </trkpt>
      <trkpt lat="45.59575" lon="6.61772">
        <ele>2467.1999511719</ele>
        <time>2019-12-30T14:37:54.000Z</time>
      </trkpt>
      <trkpt lat="45.59578" lon="6.61781">
        <ele>2465.8000488281</ele>
        <time>2019-12-30T14:37:56.000Z</time>
      </trkpt>
      <trkpt lat="45.5958" lon="6.61786">
        <ele>2464.3999023438</ele>
        <time>2019-12-30T14:37:58.000Z</time>
      </trkpt>
      <trkpt lat="45.59579" lon="6.61788">
        <ele>2463.1999511719</ele>
        <time>2019-12-30T14:37:59.000Z</time>
      </trkpt>
      <trkpt lat="45.59578" lon="6.61788">
        <ele>2460.1999511719</ele>
        <time>2019-12-30T14:38:00.000Z</time>
      </trkpt>
      <trkpt lat="45.59574" lon="6.6179">
        <ele>2458.6000976562</ele>
        <time>2019-12-30T14:38:01.000Z</time>
      </trkpt>
      <trkpt lat="45.59573" lon="6.61793">
        <ele>2457.1999511719</ele>
        <time>2019-12-30T14:38:02.000Z</time>
      </trkpt>
      <trkpt lat="45.59574" lon="6.61796">
        <ele>2456</ele>
        <time>2019-12-30T14:38:03.000Z</time>
      </trkpt>
      <trkpt lat="45.59573" lon="6.61802">
        <ele>2454.8000488281</ele>
        <time>2019-12-30T14:38:05.000Z</time>
      </trkpt>
      <trkpt lat="45.59571" lon="6.61802">
        <ele>2453.8000488281</ele>
        <time>2019-12-30T14:38:06.000Z</time>
      </trkpt>
      <trkpt lat="45.59569" lon="6.61801">
        <ele>2452</ele>
        <time>2019-12-30T14:38:07.000Z</time>
      </trkpt>
      <trkpt lat="45.59567" lon="6.61799">
        <ele>2449.8000488281</ele>
        <time>2019-12-30T14:38:08.000Z</time>
      </trkpt>
      <trkpt lat="45.59566" lon="6.61798">
        <ele>2448.1999511719</ele>
        <time>2019-12-30T14:38:09.000Z</time>
      </trkpt>
      <trkpt lat="45.59565" lon="6.61797">
        <ele>2447.1999511719</ele>
        <time>2019-12-30T14:38:10.000Z</time>
      </trkpt>
      <trkpt lat="45.59565" lon="6.61796">
        <ele>2446.3999023438</ele>
        <time>2019-12-30T14:38:11.000Z</time>
      </trkpt>
      <trkpt lat="45.59566" lon="6.61796">
        <ele>2445.8000488281</ele>
        <time>2019-12-30T14:38:12.000Z</time>
      </trkpt>
      <trkpt lat="45.59567" lon="6.61796">
        <ele>2444.6000976562</ele>
        <time>2019-12-30T14:38:14.000Z</time>
      </trkpt>
      <trkpt lat="45.59567" lon="6.61797">
        <ele>2444.3999023438</ele>
        <time>2019-12-30T14:38:15.000Z</time>
      </trkpt>
      <trkpt lat="45.59568" lon="6.61801">
        <ele>2444.3999023438</ele>
        <time>2019-12-30T14:38:16.000Z</time>
      </trkpt>
      <trkpt lat="45.59569" lon="6.61803">
        <ele>2444.1999511719</ele>
        <time>2019-12-30T14:38:17.000Z</time>
      </trkpt>
      <trkpt lat="45.5957" lon="6.61804">
        <ele>2444</ele>
        <time>2019-12-30T14:38:20.000Z</time>
      </trkpt>
      <trkpt lat="45.5957" lon="6.61804">
        <ele>2443.3999023438</ele>
        <time>2019-12-30T14:38:21.000Z</time>
      </trkpt>
      <trkpt lat="45.5957" lon="6.61804">
        <ele>2441.6000976562</ele>
        <time>2019-12-30T14:38:23.000Z</time>
      </trkpt>
      <trkpt lat="45.59568" lon="6.61804">
        <ele>2440.6000976562</ele>
        <time>2019-12-30T14:38:24.000Z</time>
      </trkpt>
      <trkpt lat="45.59565" lon="6.61803">
        <ele>2440.1999511719</ele>
        <time>2019-12-30T14:38:25.000Z</time>
      </trkpt>
      <trkpt lat="45.59561" lon="6.61802">
        <ele>2439</ele>
        <time>2019-12-30T14:38:27.000Z</time>
      </trkpt>
      <trkpt lat="45.5956" lon="6.61801">
        <ele>2438.3999023438</ele>
        <time>2019-12-30T14:38:28.000Z</time>
      </trkpt>
      <trkpt lat="45.5956" lon="6.618">
        <ele>2437.8000488281</ele>
        <time>2019-12-30T14:38:29.000Z</time>
      </trkpt>
      <trkpt lat="45.59559" lon="6.61799">
        <ele>2436.6000976562</ele>
        <time>2019-12-30T14:38:32.000Z</time>
      </trkpt>
      <trkpt lat="45.59558" lon="6.618">
        <ele>2436</ele>
        <time>2019-12-30T14:38:36.000Z</time>
      </trkpt>
      <trkpt lat="45.59557" lon="6.618">
        <ele>2435.3999023438</ele>
        <time>2019-12-30T14:38:39.000Z</time>
      </trkpt>
      <trkpt lat="45.59557" lon="6.618">
        <ele>2434.3999023438</ele>
        <time>2019-12-30T14:38:41.000Z</time>
      </trkpt>
      <trkpt lat="45.59557" lon="6.618">
        <ele>2434</ele>
        <time>2019-12-30T14:38:42.000Z</time>
      </trkpt>
      <trkpt lat="45.59557" lon="6.61801">
        <ele>2433.3999023438</ele>
        <time>2019-12-30T14:38:45.000Z</time>
      </trkpt>
      <trkpt lat="45.5956" lon="6.61805">
        <ele>2433.1999511719</ele>
        <time>2019-12-30T14:38:46.000Z</time>
      </trkpt>
      <trkpt lat="45.59564" lon="6.6181">
        <ele>2432.6000976562</ele>
        <time>2019-12-30T14:38:49.000Z</time>
      </trkpt>
      <trkpt lat="45.59564" lon="6.6181">
        <ele>2432</ele>
        <time>2019-12-30T14:38:50.000Z</time>
      </trkpt>
      <trkpt lat="45.59563" lon="6.6181">
        <ele>2430.3999023438</ele>
        <time>2019-12-30T14:38:52.000Z</time>
      </trkpt>
      <trkpt lat="45.59561" lon="6.61811">
        <ele>2429.8000488281</ele>
        <time>2019-12-30T14:38:53.000Z</time>
      </trkpt>
      <trkpt lat="45.59558" lon="6.61811">
        <ele>2429.1999511719</ele>
        <time>2019-12-30T14:38:54.000Z</time>
      </trkpt>
      <trkpt lat="45.59557" lon="6.61811">
        <ele>2427.8000488281</ele>
        <time>2019-12-30T14:38:56.000Z</time>
      </trkpt>
      <trkpt lat="45.59557" lon="6.6181">
        <ele>2427.1999511719</ele>
        <time>2019-12-30T14:38:57.000Z</time>
      </trkpt>
      <trkpt lat="45.59557" lon="6.6181">
        <ele>2426.6000976562</ele>
        <time>2019-12-30T14:38:58.000Z</time>
      </trkpt>
      <trkpt lat="45.59558" lon="6.61815">
        <ele>2425.6000976562</ele>
        <time>2019-12-30T14:39:05.000Z</time>
      </trkpt>
      <trkpt lat="45.5956" lon="6.6182">
        <ele>2425.6000976562</ele>
        <time>2019-12-30T14:39:08.000Z</time>
      </trkpt>
      <trkpt lat="45.5956" lon="6.6182">
        <ele>2425.3999023438</ele>
        <time>2019-12-30T14:39:09.000Z</time>
      </trkpt>
      <trkpt lat="45.59559" lon="6.6182">
        <ele>2424</ele>
        <time>2019-12-30T14:39:11.000Z</time>
      </trkpt>
      <trkpt lat="45.59556" lon="6.61819">
        <ele>2422.1999511719</ele>
        <time>2019-12-30T14:39:12.000Z</time>
      </trkpt>
      <trkpt lat="45.59556" lon="6.61819">
        <ele>2421.3999023438</ele>
        <time>2019-12-30T14:39:13.000Z</time>
      </trkpt>
      <trkpt lat="45.59556" lon="6.61819">
        <ele>2420.6000976562</ele>
        <time>2019-12-30T14:39:14.000Z</time>
      </trkpt>
      <trkpt lat="45.59557" lon="6.61818">
        <ele>2419.3999023438</ele>
        <time>2019-12-30T14:39:16.000Z</time>
      </trkpt>
      <trkpt lat="45.59556" lon="6.61818">
        <ele>2418.8000488281</ele>
        <time>2019-12-30T14:39:18.000Z</time>
      </trkpt>
      <trkpt lat="45.59557" lon="6.61822">
        <ele>2418.3999023438</ele>
        <time>2019-12-30T14:39:19.000Z</time>
      </trkpt>
      <trkpt lat="45.59558" lon="6.61825">
        <ele>2418.1999511719</ele>
        <time>2019-12-30T14:39:20.000Z</time>
      </trkpt>
      <trkpt lat="45.59558" lon="6.61827">
        <ele>2418</ele>
        <time>2019-12-30T14:39:21.000Z</time>
      </trkpt>
      <trkpt lat="45.59557" lon="6.61826">
        <ele>2417</ele>
        <time>2019-12-30T14:39:24.000Z</time>
      </trkpt>
      <trkpt lat="45.59554" lon="6.61827">
        <ele>2416.1999511719</ele>
        <time>2019-12-30T14:39:25.000Z</time>
      </trkpt>
      <trkpt lat="45.59553" lon="6.61826">
        <ele>2415.3999023438</ele>
        <time>2019-12-30T14:39:26.000Z</time>
      </trkpt>
      <trkpt lat="45.59553" lon="6.61826">
        <ele>2413.6000976562</ele>
        <time>2019-12-30T14:39:28.000Z</time>
      </trkpt>
      <trkpt lat="45.59553" lon="6.61825">
        <ele>2411.8000488281</ele>
        <time>2019-12-30T14:39:30.000Z</time>
      </trkpt>
      <trkpt lat="45.59554" lon="6.61824">
        <ele>2410.6000976562</ele>
        <time>2019-12-30T14:39:33.000Z</time>
      </trkpt>
      <trkpt lat="45.59555" lon="6.61823">
        <ele>2410.8000488281</ele>
        <time>2019-12-30T14:39:39.000Z</time>
      </trkpt>
      <trkpt lat="45.59554" lon="6.61827">
        <ele>2410.8000488281</ele>
        <time>2019-12-30T14:39:41.000Z</time>
      </trkpt>
      <trkpt lat="45.59554" lon="6.61829">
        <ele>2410.8000488281</ele>
        <time>2019-12-30T14:39:42.000Z</time>
      </trkpt>
      <trkpt lat="45.59553" lon="6.61829">
        <ele>2410</ele>
        <time>2019-12-30T14:39:45.000Z</time>
      </trkpt>
      <trkpt lat="45.5955" lon="6.61828">
        <ele>2409.1999511719</ele>
        <time>2019-12-30T14:39:46.000Z</time>
      </trkpt>
      <trkpt lat="45.59544" lon="6.61825">
        <ele>2407.3999023438</ele>
        <time>2019-12-30T14:39:48.000Z</time>
      </trkpt>
      <trkpt lat="45.59542" lon="6.61824">
        <ele>2406.1999511719</ele>
        <time>2019-12-30T14:39:49.000Z</time>
      </trkpt>
      <trkpt lat="45.59538" lon="6.61822">
        <ele>2404.6000976562</ele>
        <time>2019-12-30T14:39:51.000Z</time>
      </trkpt>
      <trkpt lat="45.59538" lon="6.61821">
        <ele>2404.1999511719</ele>
        <time>2019-12-30T14:39:52.000Z</time>
      </trkpt>
      <trkpt lat="45.59538" lon="6.6182">
        <ele>2403.6000976562</ele>
        <time>2019-12-30T14:39:53.000Z</time>
      </trkpt>
      <trkpt lat="45.5954" lon="6.61817">
        <ele>2402.6000976562</ele>
        <time>2019-12-30T14:39:56.000Z</time>
      </trkpt>
      <trkpt lat="45.59539" lon="6.61817">
        <ele>2401.6000976562</ele>
        <time>2019-12-30T14:40:01.000Z</time>
      </trkpt>
      <trkpt lat="45.59539" lon="6.61818">
        <ele>2401.1999511719</ele>
        <time>2019-12-30T14:40:04.000Z</time>
      </trkpt>
      <trkpt lat="45.5953" lon="6.61813">
        <ele>2400.3999023438</ele>
        <time>2019-12-30T14:40:07.000Z</time>
      </trkpt>
      <trkpt lat="45.59517" lon="6.61808">
        <ele>2398.8000488281</ele>
        <time>2019-12-30T14:40:11.000Z</time>
      </trkpt>
      <trkpt lat="45.59515" lon="6.61806">
        <ele>2398.1999511719</ele>
        <time>2019-12-30T14:40:12.000Z</time>
      </trkpt>
      <trkpt lat="45.59513" lon="6.61805">
        <ele>2397.3999023438</ele>
        <time>2019-12-30T14:40:13.000Z</time>
      </trkpt>
      <trkpt lat="45.59512" lon="6.61803">
        <ele>2396</ele>
        <time>2019-12-30T14:40:15.000Z</time>
      </trkpt>
      <trkpt lat="45.59512" lon="6.61803">
        <ele>2395.3999023438</ele>
        <time>2019-12-30T14:40:16.000Z</time>
      </trkpt>
      <trkpt lat="45.59512" lon="6.61803">
        <ele>2394.8000488281</ele>
        <time>2019-12-30T14:40:18.000Z</time>
      </trkpt>
      <trkpt lat="45.59512" lon="6.61803">
        <ele>2393.8000488281</ele>
        <time>2019-12-30T14:40:22.000Z</time>
      </trkpt>
      <trkpt lat="45.59511" lon="6.61808">
        <ele>2393.6000976562</ele>
        <time>2019-12-30T14:40:23.000Z</time>
      </trkpt>
      <trkpt lat="45.59509" lon="6.61816">
        <ele>2393</ele>
        <time>2019-12-30T14:40:26.000Z</time>
      </trkpt>
      <trkpt lat="45.59505" lon="6.61816">
        <ele>2392.6000976562</ele>
        <time>2019-12-30T14:40:27.000Z</time>
      </trkpt>
      <trkpt lat="45.595" lon="6.61815">
        <ele>2390.3999023438</ele>
        <time>2019-12-30T14:40:29.000Z</time>
      </trkpt>
      <trkpt lat="45.59499" lon="6.6182">
        <ele>2389.1999511719</ele>
        <time>2019-12-30T14:40:30.000Z</time>
      </trkpt>
      <trkpt lat="45.595" lon="6.61825">
        <ele>2388.3999023438</ele>
        <time>2019-12-30T14:40:31.000Z</time>
      </trkpt>
      <trkpt lat="45.595" lon="6.61828">
        <ele>2387.6000976562</ele>
        <time>2019-12-30T14:40:32.000Z</time>
      </trkpt>
      <trkpt lat="45.59499" lon="6.61832">
        <ele>2386.1999511719</ele>
        <time>2019-12-30T14:40:34.000Z</time>
      </trkpt>
      <trkpt lat="45.59497" lon="6.61834">
        <ele>2385</ele>
        <time>2019-12-30T14:40:35.000Z</time>
      </trkpt>
      <trkpt lat="45.59495" lon="6.61834">
        <ele>2383.6000976562</ele>
        <time>2019-12-30T14:40:36.000Z</time>
      </trkpt>
      <trkpt lat="45.59493" lon="6.61832">
        <ele>2382.1999511719</ele>
        <time>2019-12-30T14:40:37.000Z</time>
      </trkpt>
      <trkpt lat="45.5949" lon="6.61831">
        <ele>2380.6000976562</ele>
        <time>2019-12-30T14:40:38.000Z</time>
      </trkpt>
      <trkpt lat="45.59487" lon="6.61832">
        <ele>2379.1999511719</ele>
        <time>2019-12-30T14:40:39.000Z</time>
      </trkpt>
      <trkpt lat="45.59486" lon="6.61837">
        <ele>2377.8000488281</ele>
        <time>2019-12-30T14:40:41.000Z</time>
      </trkpt>
      <trkpt lat="45.59487" lon="6.61843">
        <ele>2376.8000488281</ele>
        <time>2019-12-30T14:40:43.000Z</time>
      </trkpt>
      <trkpt lat="45.59486" lon="6.61847">
        <ele>2375.8000488281</ele>
        <time>2019-12-30T14:40:44.000Z</time>
      </trkpt>
      <trkpt lat="45.59485" lon="6.61848">
        <ele>2374.6000976562</ele>
        <time>2019-12-30T14:40:45.000Z</time>
      </trkpt>
      <trkpt lat="45.59482" lon="6.61851">
        <ele>2373.1999511719</ele>
        <time>2019-12-30T14:40:46.000Z</time>
      </trkpt>
      <trkpt lat="45.59481" lon="6.61856">
        <ele>2371.8000488281</ele>
        <time>2019-12-30T14:40:47.000Z</time>
      </trkpt>
      <trkpt lat="45.59482" lon="6.6186">
        <ele>2369.1999511719</ele>
        <time>2019-12-30T14:40:48.000Z</time>
      </trkpt>
      <trkpt lat="45.59483" lon="6.61866">
        <ele>2367.3999023438</ele>
        <time>2019-12-30T14:40:50.000Z</time>
      </trkpt>
      <trkpt lat="45.59484" lon="6.61869">
        <ele>2366.1999511719</ele>
        <time>2019-12-30T14:40:51.000Z</time>
      </trkpt>
      <trkpt lat="45.59484" lon="6.61869">
        <ele>2364.6000976562</ele>
        <time>2019-12-30T14:40:52.000Z</time>
      </trkpt>
      <trkpt lat="45.59484" lon="6.61869">
        <ele>2363.3999023438</ele>
        <time>2019-12-30T14:40:53.000Z</time>
      </trkpt>
      <trkpt lat="45.59484" lon="6.61869">
        <ele>2361.8000488281</ele>
        <time>2019-12-30T14:40:55.000Z</time>
      </trkpt>
      <trkpt lat="45.59484" lon="6.61869">
        <ele>2360.8000488281</ele>
        <time>2019-12-30T14:40:58.000Z</time>
      </trkpt>
      <trkpt lat="45.59483" lon="6.61872">
        <ele>2360.6000976562</ele>
        <time>2019-12-30T14:41:02.000Z</time>
      </trkpt>
      <trkpt lat="45.5948" lon="6.61873">
        <ele>2360.3999023438</ele>
        <time>2019-12-30T14:41:03.000Z</time>
      </trkpt>
      <trkpt lat="45.59466" lon="6.61869">
        <ele>2359.1999511719</ele>
        <time>2019-12-30T14:41:07.000Z</time>
      </trkpt>
      <trkpt lat="45.59464" lon="6.61868">
        <ele>2358.1999511719</ele>
        <time>2019-12-30T14:41:08.000Z</time>
      </trkpt>
      <trkpt lat="45.59462" lon="6.61871">
        <ele>2357.1999511719</ele>
        <time>2019-12-30T14:41:09.000Z</time>
      </trkpt>
      <trkpt lat="45.59462" lon="6.61876">
        <ele>2356.6000976562</ele>
        <time>2019-12-30T14:41:10.000Z</time>
      </trkpt>
      <trkpt lat="45.59461" lon="6.61885">
        <ele>2355</ele>
        <time>2019-12-30T14:41:12.000Z</time>
      </trkpt>
      <trkpt lat="45.59458" lon="6.61887">
        <ele>2353.6000976562</ele>
        <time>2019-12-30T14:41:13.000Z</time>
      </trkpt>
      <trkpt lat="45.59455" lon="6.61893">
        <ele>2352</ele>
        <time>2019-12-30T14:41:14.000Z</time>
      </trkpt>
      <trkpt lat="45.59454" lon="6.61899">
        <ele>2350.1999511719</ele>
        <time>2019-12-30T14:41:15.000Z</time>
      </trkpt>
      <trkpt lat="45.59455" lon="6.61905">
        <ele>2349</ele>
        <time>2019-12-30T14:41:16.000Z</time>
      </trkpt>
      <trkpt lat="45.59454" lon="6.61912">
        <ele>2347</ele>
        <time>2019-12-30T14:41:18.000Z</time>
      </trkpt>
      <trkpt lat="45.59452" lon="6.61916">
        <ele>2345.3999023438</ele>
        <time>2019-12-30T14:41:19.000Z</time>
      </trkpt>
      <trkpt lat="45.5945" lon="6.61922">
        <ele>2343.3999023438</ele>
        <time>2019-12-30T14:41:20.000Z</time>
      </trkpt>
      <trkpt lat="45.59451" lon="6.61926">
        <ele>2341.3999023438</ele>
        <time>2019-12-30T14:41:21.000Z</time>
      </trkpt>
      <trkpt lat="45.59451" lon="6.61927">
        <ele>2340</ele>
        <time>2019-12-30T14:41:22.000Z</time>
      </trkpt>
      <trkpt lat="45.59451" lon="6.61927">
        <ele>2339</ele>
        <time>2019-12-30T14:41:23.000Z</time>
      </trkpt>
      <trkpt lat="45.59451" lon="6.61927">
        <ele>2338</ele>
        <time>2019-12-30T14:41:24.000Z</time>
      </trkpt>
      <trkpt lat="45.59451" lon="6.61927">
        <ele>2336.8000488281</ele>
        <time>2019-12-30T14:41:25.000Z</time>
      </trkpt>
      <trkpt lat="45.59451" lon="6.61927">
        <ele>2335.6000976562</ele>
        <time>2019-12-30T14:41:26.000Z</time>
      </trkpt>
      <trkpt lat="45.59451" lon="6.61927">
        <ele>2334.1999511719</ele>
        <time>2019-12-30T14:41:28.000Z</time>
      </trkpt>
      <trkpt lat="45.5945" lon="6.61926">
        <ele>2333.3999023438</ele>
        <time>2019-12-30T14:41:34.000Z</time>
      </trkpt>
      <trkpt lat="45.59451" lon="6.6193">
        <ele>2333.6000976562</ele>
        <time>2019-12-30T14:41:44.000Z</time>
      </trkpt>
      <trkpt lat="45.59451" lon="6.61938">
        <ele>2333.1999511719</ele>
        <time>2019-12-30T14:41:47.000Z</time>
      </trkpt>
      <trkpt lat="45.59444" lon="6.61941">
        <ele>2332</ele>
        <time>2019-12-30T14:41:49.000Z</time>
      </trkpt>
      <trkpt lat="45.59441" lon="6.61943">
        <ele>2330.8000488281</ele>
        <time>2019-12-30T14:41:50.000Z</time>
      </trkpt>
      <trkpt lat="45.59442" lon="6.61947">
        <ele>2329.3999023438</ele>
        <time>2019-12-30T14:41:51.000Z</time>
      </trkpt>
      <trkpt lat="45.59443" lon="6.6195">
        <ele>2328.1999511719</ele>
        <time>2019-12-30T14:41:52.000Z</time>
      </trkpt>
      <trkpt lat="45.59441" lon="6.61957">
        <ele>2326.8000488281</ele>
        <time>2019-12-30T14:41:54.000Z</time>
      </trkpt>
      <trkpt lat="45.59438" lon="6.61958">
        <ele>2325.8000488281</ele>
        <time>2019-12-30T14:41:55.000Z</time>
      </trkpt>
      <trkpt lat="45.59436" lon="6.6196">
        <ele>2324.1999511719</ele>
        <time>2019-12-30T14:41:56.000Z</time>
      </trkpt>
      <trkpt lat="45.59434" lon="6.61963">
        <ele>2322</ele>
        <time>2019-12-30T14:41:57.000Z</time>
      </trkpt>
      <trkpt lat="45.59433" lon="6.61965">
        <ele>2320.3999023438</ele>
        <time>2019-12-30T14:41:58.000Z</time>
      </trkpt>
      <trkpt lat="45.59433" lon="6.61968">
        <ele>2319.1999511719</ele>
        <time>2019-12-30T14:41:59.000Z</time>
      </trkpt>
      <trkpt lat="45.59438" lon="6.61977">
        <ele>2315.6000976562</ele>
        <time>2019-12-30T14:42:01.000Z</time>
      </trkpt>
      <trkpt lat="45.59438" lon="6.61981">
        <ele>2313.8000488281</ele>
        <time>2019-12-30T14:42:02.000Z</time>
      </trkpt>
      <trkpt lat="45.59435" lon="6.61983">
        <ele>2312</ele>
        <time>2019-12-30T14:42:03.000Z</time>
      </trkpt>
      <trkpt lat="45.59433" lon="6.61984">
        <ele>2310.3999023438</ele>
        <time>2019-12-30T14:42:04.000Z</time>
      </trkpt>
      <trkpt lat="45.5943" lon="6.61987">
        <ele>2308.6000976562</ele>
        <time>2019-12-30T14:42:05.000Z</time>
      </trkpt>
      <trkpt lat="45.59431" lon="6.61993">
        <ele>2307</ele>
        <time>2019-12-30T14:42:06.000Z</time>
      </trkpt>
      <trkpt lat="45.59433" lon="6.61999">
        <ele>2305.8000488281</ele>
        <time>2019-12-30T14:42:07.000Z</time>
      </trkpt>
      <trkpt lat="45.59438" lon="6.62008">
        <ele>2304.3999023438</ele>
        <time>2019-12-30T14:42:09.000Z</time>
      </trkpt>
      <trkpt lat="45.5944" lon="6.62009">
        <ele>2303.1999511719</ele>
        <time>2019-12-30T14:42:10.000Z</time>
      </trkpt>
      <trkpt lat="45.5944" lon="6.62011">
        <ele>2301.6000976562</ele>
        <time>2019-12-30T14:42:11.000Z</time>
      </trkpt>
      <trkpt lat="45.5944" lon="6.62014">
        <ele>2300</ele>
        <time>2019-12-30T14:42:12.000Z</time>
      </trkpt>
      <trkpt lat="45.59438" lon="6.62016">
        <ele>2299</ele>
        <time>2019-12-30T14:42:13.000Z</time>
      </trkpt>
      <trkpt lat="45.59434" lon="6.62017">
        <ele>2298</ele>
        <time>2019-12-30T14:42:14.000Z</time>
      </trkpt>
      <trkpt lat="45.59431" lon="6.62016">
        <ele>2297</ele>
        <time>2019-12-30T14:42:15.000Z</time>
      </trkpt>
      <trkpt lat="45.59426" lon="6.62011">
        <ele>2295.8000488281</ele>
        <time>2019-12-30T14:42:16.000Z</time>
      </trkpt>
      <trkpt lat="45.59421" lon="6.62009">
        <ele>2294.6000976562</ele>
        <time>2019-12-30T14:42:17.000Z</time>
      </trkpt>
      <trkpt lat="45.59419" lon="6.62011">
        <ele>2293.6000976562</ele>
        <time>2019-12-30T14:42:18.000Z</time>
      </trkpt>
      <trkpt lat="45.59418" lon="6.62014">
        <ele>2293</ele>
        <time>2019-12-30T14:42:19.000Z</time>
      </trkpt>
      <trkpt lat="45.59416" lon="6.62018">
        <ele>2291.6000976562</ele>
        <time>2019-12-30T14:42:21.000Z</time>
      </trkpt>
      <trkpt lat="45.59412" lon="6.62022">
        <ele>2289.8000488281</ele>
        <time>2019-12-30T14:42:23.000Z</time>
      </trkpt>
      <trkpt lat="45.59413" lon="6.62028">
        <ele>2288.3999023438</ele>
        <time>2019-12-30T14:42:24.000Z</time>
      </trkpt>
      <trkpt lat="45.59416" lon="6.62033">
        <ele>2285.8000488281</ele>
        <time>2019-12-30T14:42:25.000Z</time>
      </trkpt>
      <trkpt lat="45.59419" lon="6.62038">
        <ele>2285.1999511719</ele>
        <time>2019-12-30T14:42:26.000Z</time>
      </trkpt>
      <trkpt lat="45.59421" lon="6.62043">
        <ele>2284.1999511719</ele>
        <time>2019-12-30T14:42:27.000Z</time>
      </trkpt>
      <trkpt lat="45.59423" lon="6.62047">
        <ele>2282.6000976562</ele>
        <time>2019-12-30T14:42:28.000Z</time>
      </trkpt>
      <trkpt lat="45.59425" lon="6.6205">
        <ele>2280.8000488281</ele>
        <time>2019-12-30T14:42:29.000Z</time>
      </trkpt>
      <trkpt lat="45.59427" lon="6.62054">
        <ele>2279.3999023438</ele>
        <time>2019-12-30T14:42:30.000Z</time>
      </trkpt>
      <trkpt lat="45.59428" lon="6.62057">
        <ele>2278</ele>
        <time>2019-12-30T14:42:31.000Z</time>
      </trkpt>
      <trkpt lat="45.5943" lon="6.62059">
        <ele>2277</ele>
        <time>2019-12-30T14:42:32.000Z</time>
      </trkpt>
      <trkpt lat="45.5943" lon="6.62061">
        <ele>2276</ele>
        <time>2019-12-30T14:42:33.000Z</time>
      </trkpt>
      <trkpt lat="45.59431" lon="6.62063">
        <ele>2275.1999511719</ele>
        <time>2019-12-30T14:42:34.000Z</time>
      </trkpt>
      <trkpt lat="45.59433" lon="6.6207">
        <ele>2273.8000488281</ele>
        <time>2019-12-30T14:42:36.000Z</time>
      </trkpt>
      <trkpt lat="45.59435" lon="6.62072">
        <ele>2273.1999511719</ele>
        <time>2019-12-30T14:42:37.000Z</time>
      </trkpt>
      <trkpt lat="45.59436" lon="6.62073">
        <ele>2272.6000976562</ele>
        <time>2019-12-30T14:42:38.000Z</time>
      </trkpt>
      <trkpt lat="45.59436" lon="6.62072">
        <ele>2271.8000488281</ele>
        <time>2019-12-30T14:42:40.000Z</time>
      </trkpt>
      <trkpt lat="45.59436" lon="6.62072">
        <ele>2271.1999511719</ele>
        <time>2019-12-30T14:42:41.000Z</time>
      </trkpt>
      <trkpt lat="45.59437" lon="6.62072">
        <ele>2270.1999511719</ele>
        <time>2019-12-30T14:42:44.000Z</time>
      </trkpt>
      <trkpt lat="45.59437" lon="6.62072">
        <ele>2270</ele>
        <time>2019-12-30T14:42:49.000Z</time>
      </trkpt>
      <trkpt lat="45.59437" lon="6.62072">
        <ele>2269.6000976562</ele>
        <time>2019-12-30T14:43:07.000Z</time>
      </trkpt>
      <trkpt lat="45.59441" lon="6.6208">
        <ele>2269.6000976562</ele>
        <time>2019-12-30T14:43:12.000Z</time>
      </trkpt>
      <trkpt lat="45.59443" lon="6.62084">
        <ele>2269</ele>
        <time>2019-12-30T14:43:14.000Z</time>
      </trkpt>
      <trkpt lat="45.59443" lon="6.62085">
        <ele>2268.1999511719</ele>
        <time>2019-12-30T14:43:16.000Z</time>
      </trkpt>
      <trkpt lat="45.59443" lon="6.62085">
        <ele>2267.8000488281</ele>
        <time>2019-12-30T14:43:17.000Z</time>
      </trkpt>
      <trkpt lat="45.5944" lon="6.62087">
        <ele>2267.1999511719</ele>
        <time>2019-12-30T14:43:19.000Z</time>
      </trkpt>
      <trkpt lat="45.59435" lon="6.62087">
        <ele>2266.8000488281</ele>
        <time>2019-12-30T14:43:20.000Z</time>
      </trkpt>
      <trkpt lat="45.59433" lon="6.62085">
        <ele>2266.3999023438</ele>
        <time>2019-12-30T14:43:21.000Z</time>
      </trkpt>
      <trkpt lat="45.59432" lon="6.62083">
        <ele>2264.8000488281</ele>
        <time>2019-12-30T14:43:23.000Z</time>
      </trkpt>
      <trkpt lat="45.59432" lon="6.62083">
        <ele>2263.3999023438</ele>
        <time>2019-12-30T14:43:25.000Z</time>
      </trkpt>
      <trkpt lat="45.59432" lon="6.62083">
        <ele>2262.1999511719</ele>
        <time>2019-12-30T14:43:29.000Z</time>
      </trkpt>
      <trkpt lat="45.59432" lon="6.62083">
        <ele>2261.8000488281</ele>
        <time>2019-12-30T14:43:31.000Z</time>
      </trkpt>
      <trkpt lat="45.59432" lon="6.62083">
        <ele>2262.3999023438</ele>
        <time>2019-12-30T14:43:44.000Z</time>
      </trkpt>
      <trkpt lat="45.59431" lon="6.62083">
        <ele>2262.1999511719</ele>
        <time>2019-12-30T14:44:06.000Z</time>
      </trkpt>
      <trkpt lat="45.59431" lon="6.62089">
        <ele>2261.8000488281</ele>
        <time>2019-12-30T14:44:13.000Z</time>
      </trkpt>
      <trkpt lat="45.59436" lon="6.621">
        <ele>2261.3999023438</ele>
        <time>2019-12-30T14:44:16.000Z</time>
      </trkpt>
      <trkpt lat="45.59438" lon="6.62105">
        <ele>2261</ele>
        <time>2019-12-30T14:44:17.000Z</time>
      </trkpt>
      <trkpt lat="45.59441" lon="6.62112">
        <ele>2259.1999511719</ele>
        <time>2019-12-30T14:44:19.000Z</time>
      </trkpt>
      <trkpt lat="45.5944" lon="6.62116">
        <ele>2258.1999511719</ele>
        <time>2019-12-30T14:44:20.000Z</time>
      </trkpt>
      <trkpt lat="45.59434" lon="6.62117">
        <ele>2256.3999023438</ele>
        <time>2019-12-30T14:44:22.000Z</time>
      </trkpt>
      <trkpt lat="45.5943" lon="6.62116">
        <ele>2255.1999511719</ele>
        <time>2019-12-30T14:44:23.000Z</time>
      </trkpt>
      <trkpt lat="45.59427" lon="6.62113">
        <ele>2254.1999511719</ele>
        <time>2019-12-30T14:44:24.000Z</time>
      </trkpt>
      <trkpt lat="45.59424" lon="6.62112">
        <ele>2251.6000976562</ele>
        <time>2019-12-30T14:44:25.000Z</time>
      </trkpt>
      <trkpt lat="45.59421" lon="6.62113">
        <ele>2250.6000976562</ele>
        <time>2019-12-30T14:44:26.000Z</time>
      </trkpt>
      <trkpt lat="45.5942" lon="6.62116">
        <ele>2249.6000976562</ele>
        <time>2019-12-30T14:44:27.000Z</time>
      </trkpt>
      <trkpt lat="45.59418" lon="6.62119">
        <ele>2249</ele>
        <time>2019-12-30T14:44:28.000Z</time>
      </trkpt>
      <trkpt lat="45.59419" lon="6.62122">
        <ele>2248.6000976562</ele>
        <time>2019-12-30T14:44:29.000Z</time>
      </trkpt>
      <trkpt lat="45.59425" lon="6.62128">
        <ele>2247.3999023438</ele>
        <time>2019-12-30T14:44:31.000Z</time>
      </trkpt>
      <trkpt lat="45.59426" lon="6.62131">
        <ele>2246.3999023438</ele>
        <time>2019-12-30T14:44:32.000Z</time>
      </trkpt>
      <trkpt lat="45.59429" lon="6.62135">
        <ele>2245.1999511719</ele>
        <time>2019-12-30T14:44:33.000Z</time>
      </trkpt>
      <trkpt lat="45.59431" lon="6.62137">
        <ele>2244.1999511719</ele>
        <time>2019-12-30T14:44:34.000Z</time>
      </trkpt>
      <trkpt lat="45.59431" lon="6.62138">
        <ele>2243.1999511719</ele>
        <time>2019-12-30T14:44:35.000Z</time>
      </trkpt>
      <trkpt lat="45.5943" lon="6.62141">
        <ele>2242.1999511719</ele>
        <time>2019-12-30T14:44:36.000Z</time>
      </trkpt>
      <trkpt lat="45.59425" lon="6.62139">
        <ele>2240.3999023438</ele>
        <time>2019-12-30T14:44:38.000Z</time>
      </trkpt>
      <trkpt lat="45.59416" lon="6.6213">
        <ele>2238.3999023438</ele>
        <time>2019-12-30T14:44:40.000Z</time>
      </trkpt>
      <trkpt lat="45.59411" lon="6.62128">
        <ele>2237</ele>
        <time>2019-12-30T14:44:41.000Z</time>
      </trkpt>
      <trkpt lat="45.59407" lon="6.62127">
        <ele>2235.8000488281</ele>
        <time>2019-12-30T14:44:42.000Z</time>
      </trkpt>
      <trkpt lat="45.59404" lon="6.62125">
        <ele>2234.6000976562</ele>
        <time>2019-12-30T14:44:43.000Z</time>
      </trkpt>
      <trkpt lat="45.59399" lon="6.62125">
        <ele>2232.6000976562</ele>
        <time>2019-12-30T14:44:45.000Z</time>
      </trkpt>
      <trkpt lat="45.59395" lon="6.62122">
        <ele>2231</ele>
        <time>2019-12-30T14:44:47.000Z</time>
      </trkpt>
      <trkpt lat="45.59391" lon="6.62116">
        <ele>2229</ele>
        <time>2019-12-30T14:44:49.000Z</time>
      </trkpt>
      <trkpt lat="45.59388" lon="6.62112">
        <ele>2228.8000488281</ele>
        <time>2019-12-30T14:44:50.000Z</time>
      </trkpt>
      <trkpt lat="45.5938" lon="6.621">
        <ele>2227.6000976562</ele>
        <time>2019-12-30T14:44:52.000Z</time>
      </trkpt>
      <trkpt lat="45.59376" lon="6.62095">
        <ele>2226.3999023438</ele>
        <time>2019-12-30T14:44:53.000Z</time>
      </trkpt>
      <trkpt lat="45.59371" lon="6.6209">
        <ele>2225.1999511719</ele>
        <time>2019-12-30T14:44:54.000Z</time>
      </trkpt>
      <trkpt lat="45.59365" lon="6.62086">
        <ele>2223.8000488281</ele>
        <time>2019-12-30T14:44:55.000Z</time>
      </trkpt>
      <trkpt lat="45.5936" lon="6.62083">
        <ele>2222.3999023438</ele>
        <time>2019-12-30T14:44:56.000Z</time>
      </trkpt>
      <trkpt lat="45.59355" lon="6.6208">
        <ele>2221</ele>
        <time>2019-12-30T14:44:57.000Z</time>
      </trkpt>
      <trkpt lat="45.5935" lon="6.62078">
        <ele>2219.8000488281</ele>
        <time>2019-12-30T14:44:58.000Z</time>
      </trkpt>
      <trkpt lat="45.59345" lon="6.62077">
        <ele>2219</ele>
        <time>2019-12-30T14:44:59.000Z</time>
      </trkpt>
      <trkpt lat="45.59341" lon="6.62076">
        <ele>2218.3999023438</ele>
        <time>2019-12-30T14:45:00.000Z</time>
      </trkpt>
      <trkpt lat="45.59333" lon="6.62074">
        <ele>2217</ele>
        <time>2019-12-30T14:45:02.000Z</time>
      </trkpt>
      <trkpt lat="45.59331" lon="6.62073">
        <ele>2216.1999511719</ele>
        <time>2019-12-30T14:45:03.000Z</time>
      </trkpt>
      <trkpt lat="45.59331" lon="6.62074">
        <ele>2215.6000976562</ele>
        <time>2019-12-30T14:45:04.000Z</time>
      </trkpt>
      <trkpt lat="45.59328" lon="6.62075">
        <ele>2214.3999023438</ele>
        <time>2019-12-30T14:45:07.000Z</time>
      </trkpt>
      <trkpt lat="45.5932" lon="6.62078">
        <ele>2214</ele>
        <time>2019-12-30T14:45:11.000Z</time>
      </trkpt>
      <trkpt lat="45.59321" lon="6.62086">
        <ele>2212.6000976562</ele>
        <time>2019-12-30T14:45:13.000Z</time>
      </trkpt>
      <trkpt lat="45.5932" lon="6.62091">
        <ele>2212.1999511719</ele>
        <time>2019-12-30T14:45:14.000Z</time>
      </trkpt>
      <trkpt lat="45.59318" lon="6.62095">
        <ele>2211.6000976562</ele>
        <time>2019-12-30T14:45:15.000Z</time>
      </trkpt>
      <trkpt lat="45.59315" lon="6.62098">
        <ele>2210.3999023438</ele>
        <time>2019-12-30T14:45:16.000Z</time>
      </trkpt>
      <trkpt lat="45.59312" lon="6.62099">
        <ele>2208.8000488281</ele>
        <time>2019-12-30T14:45:17.000Z</time>
      </trkpt>
      <trkpt lat="45.5931" lon="6.621">
        <ele>2207.1999511719</ele>
        <time>2019-12-30T14:45:18.000Z</time>
      </trkpt>
      <trkpt lat="45.59307" lon="6.62099">
        <ele>2206</ele>
        <time>2019-12-30T14:45:19.000Z</time>
      </trkpt>
      <trkpt lat="45.59301" lon="6.62096">
        <ele>2204.1999511719</ele>
        <time>2019-12-30T14:45:21.000Z</time>
      </trkpt>
      <trkpt lat="45.59299" lon="6.62094">
        <ele>2203</ele>
        <time>2019-12-30T14:45:22.000Z</time>
      </trkpt>
      <trkpt lat="45.59298" lon="6.62092">
        <ele>2201.8000488281</ele>
        <time>2019-12-30T14:45:23.000Z</time>
      </trkpt>
      <trkpt lat="45.59296" lon="6.62091">
        <ele>2201</ele>
        <time>2019-12-30T14:45:24.000Z</time>
      </trkpt>
      <trkpt lat="45.59294" lon="6.62093">
        <ele>2200.6000976562</ele>
        <time>2019-12-30T14:45:25.000Z</time>
      </trkpt>
      <trkpt lat="45.59295" lon="6.62104">
        <ele>2199.8000488281</ele>
        <time>2019-12-30T14:45:28.000Z</time>
      </trkpt>
      <trkpt lat="45.59296" lon="6.62106">
        <ele>2199.3999023438</ele>
        <time>2019-12-30T14:45:29.000Z</time>
      </trkpt>
      <trkpt lat="45.59293" lon="6.62116">
        <ele>2197.1999511719</ele>
        <time>2019-12-30T14:45:31.000Z</time>
      </trkpt>
      <trkpt lat="45.5929" lon="6.62118">
        <ele>2195.8000488281</ele>
        <time>2019-12-30T14:45:32.000Z</time>
      </trkpt>
      <trkpt lat="45.59287" lon="6.62119">
        <ele>2194.6000976562</ele>
        <time>2019-12-30T14:45:33.000Z</time>
      </trkpt>
      <trkpt lat="45.59283" lon="6.62117">
        <ele>2193.3999023438</ele>
        <time>2019-12-30T14:45:34.000Z</time>
      </trkpt>
      <trkpt lat="45.5928" lon="6.62116">
        <ele>2192.3999023438</ele>
        <time>2019-12-30T14:45:35.000Z</time>
      </trkpt>
      <trkpt lat="45.59276" lon="6.62115">
        <ele>2191.1999511719</ele>
        <time>2019-12-30T14:45:36.000Z</time>
      </trkpt>
      <trkpt lat="45.59272" lon="6.62114">
        <ele>2188.6000976562</ele>
        <time>2019-12-30T14:45:37.000Z</time>
      </trkpt>
      <trkpt lat="45.59268" lon="6.62113">
        <ele>2187.6000976562</ele>
        <time>2019-12-30T14:45:38.000Z</time>
      </trkpt>
      <trkpt lat="45.5926" lon="6.62109">
        <ele>2185.8000488281</ele>
        <time>2019-12-30T14:45:40.000Z</time>
      </trkpt>
      <trkpt lat="45.59257" lon="6.62107">
        <ele>2184.8000488281</ele>
        <time>2019-12-30T14:45:41.000Z</time>
      </trkpt>
      <trkpt lat="45.59255" lon="6.62106">
        <ele>2183.6000976562</ele>
        <time>2019-12-30T14:45:42.000Z</time>
      </trkpt>
      <trkpt lat="45.59253" lon="6.62106">
        <ele>2182.3999023438</ele>
        <time>2019-12-30T14:45:43.000Z</time>
      </trkpt>
      <trkpt lat="45.5925" lon="6.62107">
        <ele>2181.6000976562</ele>
        <time>2019-12-30T14:45:44.000Z</time>
      </trkpt>
      <trkpt lat="45.5925" lon="6.62111">
        <ele>2181.1999511719</ele>
        <time>2019-12-30T14:45:45.000Z</time>
      </trkpt>
      <trkpt lat="45.59249" lon="6.62114">
        <ele>2180.8000488281</ele>
        <time>2019-12-30T14:45:46.000Z</time>
      </trkpt>
      <trkpt lat="45.59244" lon="6.62121">
        <ele>2180</ele>
        <time>2019-12-30T14:45:48.000Z</time>
      </trkpt>
      <trkpt lat="45.59241" lon="6.62127">
        <ele>2179.3999023438</ele>
        <time>2019-12-30T14:45:49.000Z</time>
      </trkpt>
      <trkpt lat="45.59241" lon="6.62132">
        <ele>2178</ele>
        <time>2019-12-30T14:45:50.000Z</time>
      </trkpt>
      <trkpt lat="45.59242" lon="6.62138">
        <ele>2176.3999023438</ele>
        <time>2019-12-30T14:45:51.000Z</time>
      </trkpt>
      <trkpt lat="45.59243" lon="6.62143">
        <ele>2175.1999511719</ele>
        <time>2019-12-30T14:45:52.000Z</time>
      </trkpt>
      <trkpt lat="45.5924" lon="6.62146">
        <ele>2174.1999511719</ele>
        <time>2019-12-30T14:45:53.000Z</time>
      </trkpt>
      <trkpt lat="45.59236" lon="6.62147">
        <ele>2172.3999023438</ele>
        <time>2019-12-30T14:45:54.000Z</time>
      </trkpt>
      <trkpt lat="45.59232" lon="6.6215">
        <ele>2170.1999511719</ele>
        <time>2019-12-30T14:45:55.000Z</time>
      </trkpt>
      <trkpt lat="45.59229" lon="6.62155">
        <ele>2168</ele>
        <time>2019-12-30T14:45:56.000Z</time>
      </trkpt>
      <trkpt lat="45.59228" lon="6.62159">
        <ele>2166.1999511719</ele>
        <time>2019-12-30T14:45:57.000Z</time>
      </trkpt>
      <trkpt lat="45.59227" lon="6.62164">
        <ele>2165.1999511719</ele>
        <time>2019-12-30T14:45:58.000Z</time>
      </trkpt>
      <trkpt lat="45.59221" lon="6.62169">
        <ele>2163.1999511719</ele>
        <time>2019-12-30T14:46:00.000Z</time>
      </trkpt>
      <trkpt lat="45.59219" lon="6.62175">
        <ele>2159.1999511719</ele>
        <time>2019-12-30T14:46:01.000Z</time>
      </trkpt>
      <trkpt lat="45.5922" lon="6.6218">
        <ele>2157.6000976562</ele>
        <time>2019-12-30T14:46:02.000Z</time>
      </trkpt>
      <trkpt lat="45.59222" lon="6.62185">
        <ele>2156.3999023438</ele>
        <time>2019-12-30T14:46:03.000Z</time>
      </trkpt>
      <trkpt lat="45.59223" lon="6.62192">
        <ele>2155.1999511719</ele>
        <time>2019-12-30T14:46:04.000Z</time>
      </trkpt>
      <trkpt lat="45.59223" lon="6.62198">
        <ele>2153.8000488281</ele>
        <time>2019-12-30T14:46:05.000Z</time>
      </trkpt>
      <trkpt lat="45.59222" lon="6.62201">
        <ele>2151.6000976562</ele>
        <time>2019-12-30T14:46:06.000Z</time>
      </trkpt>
      <trkpt lat="45.5922" lon="6.62198">
        <ele>2149.1999511719</ele>
        <time>2019-12-30T14:46:07.000Z</time>
      </trkpt>
      <trkpt lat="45.59217" lon="6.62195">
        <ele>2147</ele>
        <time>2019-12-30T14:46:08.000Z</time>
      </trkpt>
      <trkpt lat="45.59216" lon="6.62193">
        <ele>2145.3999023438</ele>
        <time>2019-12-30T14:46:09.000Z</time>
      </trkpt>
      <trkpt lat="45.59215" lon="6.6219">
        <ele>2144.1999511719</ele>
        <time>2019-12-30T14:46:10.000Z</time>
      </trkpt>
      <trkpt lat="45.59214" lon="6.62189">
        <ele>2142.8000488281</ele>
        <time>2019-12-30T14:46:12.000Z</time>
      </trkpt>
      <trkpt lat="45.59212" lon="6.62186">
        <ele>2142</ele>
        <time>2019-12-30T14:46:16.000Z</time>
      </trkpt>
      <trkpt lat="45.59212" lon="6.62186">
        <ele>2142.1999511719</ele>
        <time>2019-12-30T14:46:28.000Z</time>
      </trkpt>
      <trkpt lat="45.59211" lon="6.62187">
        <ele>2142.3999023438</ele>
        <time>2019-12-30T14:46:34.000Z</time>
      </trkpt>
      <trkpt lat="45.59212" lon="6.62194">
        <ele>2142.3999023438</ele>
        <time>2019-12-30T14:46:36.000Z</time>
      </trkpt>
      <trkpt lat="45.59213" lon="6.62211">
        <ele>2142</ele>
        <time>2019-12-30T14:46:39.000Z</time>
      </trkpt>
      <trkpt lat="45.59216" lon="6.62216">
        <ele>2141.1999511719</ele>
        <time>2019-12-30T14:46:40.000Z</time>
      </trkpt>
      <trkpt lat="45.59215" lon="6.62222">
        <ele>2140</ele>
        <time>2019-12-30T14:46:41.000Z</time>
      </trkpt>
      <trkpt lat="45.59212" lon="6.62229">
        <ele>2138.6000976562</ele>
        <time>2019-12-30T14:46:42.000Z</time>
      </trkpt>
      <trkpt lat="45.59213" lon="6.62234">
        <ele>2137</ele>
        <time>2019-12-30T14:46:43.000Z</time>
      </trkpt>
      <trkpt lat="45.59214" lon="6.62238">
        <ele>2135</ele>
        <time>2019-12-30T14:46:44.000Z</time>
      </trkpt>
      <trkpt lat="45.59214" lon="6.62241">
        <ele>2133.1999511719</ele>
        <time>2019-12-30T14:46:45.000Z</time>
      </trkpt>
      <trkpt lat="45.59214" lon="6.62245">
        <ele>2131.8000488281</ele>
        <time>2019-12-30T14:46:46.000Z</time>
      </trkpt>
      <trkpt lat="45.59215" lon="6.62249">
        <ele>2130.1999511719</ele>
        <time>2019-12-30T14:46:47.000Z</time>
      </trkpt>
      <trkpt lat="45.59215" lon="6.6225">
        <ele>2128</ele>
        <time>2019-12-30T14:46:48.000Z</time>
      </trkpt>
      <trkpt lat="45.59214" lon="6.62251">
        <ele>2124.8000488281</ele>
        <time>2019-12-30T14:46:49.000Z</time>
      </trkpt>
      <trkpt lat="45.59213" lon="6.62251">
        <ele>2124</ele>
        <time>2019-12-30T14:46:50.000Z</time>
      </trkpt>
      <trkpt lat="45.59212" lon="6.62252">
        <ele>2123.1999511719</ele>
        <time>2019-12-30T14:46:51.000Z</time>
      </trkpt>
      <trkpt lat="45.59212" lon="6.62252">
        <ele>2122</ele>
        <time>2019-12-30T14:46:52.000Z</time>
      </trkpt>
      <trkpt lat="45.59212" lon="6.62252">
        <ele>2120.6000976562</ele>
        <time>2019-12-30T14:46:54.000Z</time>
      </trkpt>
      <trkpt lat="45.59212" lon="6.62252">
        <ele>2120.1999511719</ele>
        <time>2019-12-30T14:46:56.000Z</time>
      </trkpt>
      <trkpt lat="45.59209" lon="6.62256">
        <ele>2120</ele>
        <time>2019-12-30T14:46:58.000Z</time>
      </trkpt>
      <trkpt lat="45.59207" lon="6.62258">
        <ele>2119.8000488281</ele>
        <time>2019-12-30T14:46:59.000Z</time>
      </trkpt>
      <trkpt lat="45.59203" lon="6.62262">
        <ele>2119.3999023438</ele>
        <time>2019-12-30T14:47:00.000Z</time>
      </trkpt>
      <trkpt lat="45.59199" lon="6.62275">
        <ele>2118.1999511719</ele>
        <time>2019-12-30T14:47:02.000Z</time>
      </trkpt>
      <trkpt lat="45.59193" lon="6.62282">
        <ele>2116.8000488281</ele>
        <time>2019-12-30T14:47:04.000Z</time>
      </trkpt>
      <trkpt lat="45.59189" lon="6.62286">
        <ele>2115.3999023438</ele>
        <time>2019-12-30T14:47:05.000Z</time>
      </trkpt>
      <trkpt lat="45.59187" lon="6.62292">
        <ele>2113.8000488281</ele>
        <time>2019-12-30T14:47:06.000Z</time>
      </trkpt>
      <trkpt lat="45.59188" lon="6.62296">
        <ele>2112.1999511719</ele>
        <time>2019-12-30T14:47:07.000Z</time>
      </trkpt>
      <trkpt lat="45.59189" lon="6.623">
        <ele>2111.1999511719</ele>
        <time>2019-12-30T14:47:08.000Z</time>
      </trkpt>
      <trkpt lat="45.59189" lon="6.62303">
        <ele>2110</ele>
        <time>2019-12-30T14:47:09.000Z</time>
      </trkpt>
      <trkpt lat="45.59186" lon="6.62304">
        <ele>2108.3999023438</ele>
        <time>2019-12-30T14:47:10.000Z</time>
      </trkpt>
      <trkpt lat="45.59184" lon="6.62307">
        <ele>2106.1999511719</ele>
        <time>2019-12-30T14:47:11.000Z</time>
      </trkpt>
      <trkpt lat="45.59181" lon="6.62303">
        <ele>2104</ele>
        <time>2019-12-30T14:47:12.000Z</time>
      </trkpt>
      <trkpt lat="45.59177" lon="6.62303">
        <ele>2100.6000976562</ele>
        <time>2019-12-30T14:47:13.000Z</time>
      </trkpt>
      <trkpt lat="45.59175" lon="6.62306">
        <ele>2099</ele>
        <time>2019-12-30T14:47:14.000Z</time>
      </trkpt>
      <trkpt lat="45.59173" lon="6.62308">
        <ele>2097.8000488281</ele>
        <time>2019-12-30T14:47:15.000Z</time>
      </trkpt>
      <trkpt lat="45.59173" lon="6.62309">
        <ele>2097</ele>
        <time>2019-12-30T14:47:16.000Z</time>
      </trkpt>
      <trkpt lat="45.59172" lon="6.6231">
        <ele>2096</ele>
        <time>2019-12-30T14:47:17.000Z</time>
      </trkpt>
      <trkpt lat="45.59171" lon="6.6231">
        <ele>2095</ele>
        <time>2019-12-30T14:47:18.000Z</time>
      </trkpt>
      <trkpt lat="45.59171" lon="6.6231">
        <ele>2093.8000488281</ele>
        <time>2019-12-30T14:47:19.000Z</time>
      </trkpt>
      <trkpt lat="45.59171" lon="6.6231">
        <ele>2092.3999023438</ele>
        <time>2019-12-30T14:47:21.000Z</time>
      </trkpt>
      <trkpt lat="45.59171" lon="6.6231">
        <ele>2092</ele>
        <time>2019-12-30T14:47:22.000Z</time>
      </trkpt>
      <trkpt lat="45.59168" lon="6.62313">
        <ele>2091.6000976562</ele>
        <time>2019-12-30T14:47:33.000Z</time>
      </trkpt>
      <trkpt lat="45.59162" lon="6.62318">
        <ele>2091.6000976562</ele>
        <time>2019-12-30T14:47:34.000Z</time>
      </trkpt>
      <trkpt lat="45.59156" lon="6.62323">
        <ele>2091.3999023438</ele>
        <time>2019-12-30T14:47:35.000Z</time>
      </trkpt>
      <trkpt lat="45.59152" lon="6.62326">
        <ele>2091.1999511719</ele>
        <time>2019-12-30T14:47:36.000Z</time>
      </trkpt>
      <trkpt lat="45.59145" lon="6.62332">
        <ele>2089.3999023438</ele>
        <time>2019-12-30T14:47:38.000Z</time>
      </trkpt>
      <trkpt lat="45.59138" lon="6.62335">
        <ele>2088</ele>
        <time>2019-12-30T14:47:40.000Z</time>
      </trkpt>
      <trkpt lat="45.59131" lon="6.6234">
        <ele>2086.8000488281</ele>
        <time>2019-12-30T14:47:42.000Z</time>
      </trkpt>
      <trkpt lat="45.59127" lon="6.62343">
        <ele>2086.1999511719</ele>
        <time>2019-12-30T14:47:43.000Z</time>
      </trkpt>
      <trkpt lat="45.59123" lon="6.62349">
        <ele>2085.3999023438</ele>
        <time>2019-12-30T14:47:45.000Z</time>
      </trkpt>
      <trkpt lat="45.59119" lon="6.62355">
        <ele>2084.1999511719</ele>
        <time>2019-12-30T14:47:47.000Z</time>
      </trkpt>
      <trkpt lat="45.59117" lon="6.62359">
        <ele>2083.6000976562</ele>
        <time>2019-12-30T14:47:48.000Z</time>
      </trkpt>
      <trkpt lat="45.59116" lon="6.62364">
        <ele>2083.1999511719</ele>
        <time>2019-12-30T14:47:49.000Z</time>
      </trkpt>
      <trkpt lat="45.59117" lon="6.62378">
        <ele>2082.1999511719</ele>
        <time>2019-12-30T14:47:51.000Z</time>
      </trkpt>
      <trkpt lat="45.59116" lon="6.62397">
        <ele>2080.8000488281</ele>
        <time>2019-12-30T14:47:53.000Z</time>
      </trkpt>
      <trkpt lat="45.59118" lon="6.62406">
        <ele>2079.8000488281</ele>
        <time>2019-12-30T14:47:54.000Z</time>
      </trkpt>
      <trkpt lat="45.59117" lon="6.62416">
        <ele>2078.6000976562</ele>
        <time>2019-12-30T14:47:55.000Z</time>
      </trkpt>
      <trkpt lat="45.59116" lon="6.62426">
        <ele>2077</ele>
        <time>2019-12-30T14:47:56.000Z</time>
      </trkpt>
      <trkpt lat="45.59115" lon="6.62438">
        <ele>2075.3999023438</ele>
        <time>2019-12-30T14:47:57.000Z</time>
      </trkpt>
      <trkpt lat="45.59114" lon="6.62451">
        <ele>2073.6000976562</ele>
        <time>2019-12-30T14:47:58.000Z</time>
      </trkpt>
      <trkpt lat="45.59117" lon="6.62459">
        <ele>2071.8000488281</ele>
        <time>2019-12-30T14:47:59.000Z</time>
      </trkpt>
      <trkpt lat="45.59116" lon="6.62467">
        <ele>2070</ele>
        <time>2019-12-30T14:48:00.000Z</time>
      </trkpt>
      <trkpt lat="45.59113" lon="6.62473">
        <ele>2068.1999511719</ele>
        <time>2019-12-30T14:48:01.000Z</time>
      </trkpt>
      <trkpt lat="45.59108" lon="6.62475">
        <ele>2064.1999511719</ele>
        <time>2019-12-30T14:48:02.000Z</time>
      </trkpt>
      <trkpt lat="45.59102" lon="6.62474">
        <ele>2062.6000976562</ele>
        <time>2019-12-30T14:48:03.000Z</time>
      </trkpt>
      <trkpt lat="45.59098" lon="6.62477">
        <ele>2061</ele>
        <time>2019-12-30T14:48:04.000Z</time>
      </trkpt>
      <trkpt lat="45.59093" lon="6.6248">
        <ele>2059.3999023438</ele>
        <time>2019-12-30T14:48:05.000Z</time>
      </trkpt>
      <trkpt lat="45.5909" lon="6.62485">
        <ele>2058</ele>
        <time>2019-12-30T14:48:06.000Z</time>
      </trkpt>
      <trkpt lat="45.59088" lon="6.62488">
        <ele>2056.6000976562</ele>
        <time>2019-12-30T14:48:07.000Z</time>
      </trkpt>
      <trkpt lat="45.59087" lon="6.62492">
        <ele>2055.1999511719</ele>
        <time>2019-12-30T14:48:08.000Z</time>
      </trkpt>
      <trkpt lat="45.59087" lon="6.62497">
        <ele>2054</ele>
        <time>2019-12-30T14:48:09.000Z</time>
      </trkpt>
      <trkpt lat="45.59086" lon="6.62507">
        <ele>2052.6000976562</ele>
        <time>2019-12-30T14:48:11.000Z</time>
      </trkpt>
      <trkpt lat="45.59086" lon="6.62513">
        <ele>2052.1999511719</ele>
        <time>2019-12-30T14:48:12.000Z</time>
      </trkpt>
      <trkpt lat="45.59086" lon="6.62516">
        <ele>2051.6000976562</ele>
        <time>2019-12-30T14:48:13.000Z</time>
      </trkpt>
      <trkpt lat="45.59086" lon="6.62523">
        <ele>2049.8000488281</ele>
        <time>2019-12-30T14:48:15.000Z</time>
      </trkpt>
      <trkpt lat="45.59087" lon="6.62532">
        <ele>2048.1999511719</ele>
        <time>2019-12-30T14:48:17.000Z</time>
      </trkpt>
      <trkpt lat="45.59088" lon="6.6255">
        <ele>2047</ele>
        <time>2019-12-30T14:48:20.000Z</time>
      </trkpt>
      <trkpt lat="45.59086" lon="6.6256">
        <ele>2046</ele>
        <time>2019-12-30T14:48:22.000Z</time>
      </trkpt>
      <trkpt lat="45.59084" lon="6.62568">
        <ele>2044.8000488281</ele>
        <time>2019-12-30T14:48:24.000Z</time>
      </trkpt>
      <trkpt lat="45.59082" lon="6.62572">
        <ele>2044.1999511719</ele>
        <time>2019-12-30T14:48:25.000Z</time>
      </trkpt>
      <trkpt lat="45.5908" lon="6.62577">
        <ele>2043.1999511719</ele>
        <time>2019-12-30T14:48:26.000Z</time>
      </trkpt>
      <trkpt lat="45.59076" lon="6.62588">
        <ele>2042</ele>
        <time>2019-12-30T14:48:28.000Z</time>
      </trkpt>
      <trkpt lat="45.59072" lon="6.62603">
        <ele>2040.4000244141</ele>
        <time>2019-12-30T14:48:30.000Z</time>
      </trkpt>
      <trkpt lat="45.59071" lon="6.6261">
        <ele>2039.5999755859</ele>
        <time>2019-12-30T14:48:31.000Z</time>
      </trkpt>
      <trkpt lat="45.59069" lon="6.62617">
        <ele>2038.5999755859</ele>
        <time>2019-12-30T14:48:32.000Z</time>
      </trkpt>
      <trkpt lat="45.59068" lon="6.62625">
        <ele>2037.5999755859</ele>
        <time>2019-12-30T14:48:33.000Z</time>
      </trkpt>
      <trkpt lat="45.59067" lon="6.62635">
        <ele>2036.8000488281</ele>
        <time>2019-12-30T14:48:34.000Z</time>
      </trkpt>
      <trkpt lat="45.59066" lon="6.62644">
        <ele>2035.8000488281</ele>
        <time>2019-12-30T14:48:35.000Z</time>
      </trkpt>
      <trkpt lat="45.59063" lon="6.62654">
        <ele>2034.8000488281</ele>
        <time>2019-12-30T14:48:36.000Z</time>
      </trkpt>
      <trkpt lat="45.59059" lon="6.62663">
        <ele>2033.5999755859</ele>
        <time>2019-12-30T14:48:37.000Z</time>
      </trkpt>
      <trkpt lat="45.59056" lon="6.62672">
        <ele>2032.4000244141</ele>
        <time>2019-12-30T14:48:38.000Z</time>
      </trkpt>
      <trkpt lat="45.59053" lon="6.62679">
        <ele>2031</ele>
        <time>2019-12-30T14:48:39.000Z</time>
      </trkpt>
      <trkpt lat="45.59049" lon="6.62682">
        <ele>2029.5999755859</ele>
        <time>2019-12-30T14:48:40.000Z</time>
      </trkpt>
      <trkpt lat="45.59045" lon="6.62683">
        <ele>2028.1999511719</ele>
        <time>2019-12-30T14:48:41.000Z</time>
      </trkpt>
      <trkpt lat="45.59043" lon="6.62683">
        <ele>2026.8000488281</ele>
        <time>2019-12-30T14:48:42.000Z</time>
      </trkpt>
      <trkpt lat="45.59042" lon="6.62682">
        <ele>2025.5999755859</ele>
        <time>2019-12-30T14:48:43.000Z</time>
      </trkpt>
      <trkpt lat="45.59042" lon="6.62682">
        <ele>2024.4000244141</ele>
        <time>2019-12-30T14:48:44.000Z</time>
      </trkpt>
      <trkpt lat="45.59042" lon="6.62681">
        <ele>2023.1999511719</ele>
        <time>2019-12-30T14:48:46.000Z</time>
      </trkpt>
      <trkpt lat="45.59041" lon="6.62683">
        <ele>2023</ele>
        <time>2019-12-30T14:48:47.000Z</time>
      </trkpt>
      <trkpt lat="45.59037" lon="6.62693">
        <ele>2022.8000488281</ele>
        <time>2019-12-30T14:48:49.000Z</time>
      </trkpt>
      <trkpt lat="45.59026" lon="6.62719">
        <ele>2021.8000488281</ele>
        <time>2019-12-30T14:48:52.000Z</time>
      </trkpt>
      <trkpt lat="45.59022" lon="6.6273">
        <ele>2020.5999755859</ele>
        <time>2019-12-30T14:48:53.000Z</time>
      </trkpt>
      <trkpt lat="45.59018" lon="6.62743">
        <ele>2019</ele>
        <time>2019-12-30T14:48:54.000Z</time>
      </trkpt>
      <trkpt lat="45.59015" lon="6.62756">
        <ele>2017.5999755859</ele>
        <time>2019-12-30T14:48:55.000Z</time>
      </trkpt>
      <trkpt lat="45.59011" lon="6.6277">
        <ele>2015.8000488281</ele>
        <time>2019-12-30T14:48:56.000Z</time>
      </trkpt>
      <trkpt lat="45.59007" lon="6.62784">
        <ele>2014</ele>
        <time>2019-12-30T14:48:57.000Z</time>
      </trkpt>
      <trkpt lat="45.59003" lon="6.62795">
        <ele>2011.8000488281</ele>
        <time>2019-12-30T14:48:58.000Z</time>
      </trkpt>
      <trkpt lat="45.59" lon="6.62806">
        <ele>2009.4000244141</ele>
        <time>2019-12-30T14:48:59.000Z</time>
      </trkpt>
      <trkpt lat="45.58997" lon="6.62816">
        <ele>2007</ele>
        <time>2019-12-30T14:49:00.000Z</time>
      </trkpt>
      <trkpt lat="45.58995" lon="6.62826">
        <ele>2004.5999755859</ele>
        <time>2019-12-30T14:49:01.000Z</time>
      </trkpt>
      <trkpt lat="45.58994" lon="6.62834">
        <ele>2002.5999755859</ele>
        <time>2019-12-30T14:49:02.000Z</time>
      </trkpt>
      <trkpt lat="45.58993" lon="6.62841">
        <ele>2001</ele>
        <time>2019-12-30T14:49:03.000Z</time>
      </trkpt>
      <trkpt lat="45.58992" lon="6.62848">
        <ele>1999.4000244141</ele>
        <time>2019-12-30T14:49:04.000Z</time>
      </trkpt>
      <trkpt lat="45.58992" lon="6.62854">
        <ele>1998.4000244141</ele>
        <time>2019-12-30T14:49:05.000Z</time>
      </trkpt>
      <trkpt lat="45.58991" lon="6.62867">
        <ele>1996.5999755859</ele>
        <time>2019-12-30T14:49:07.000Z</time>
      </trkpt>
      <trkpt lat="45.58989" lon="6.62877">
        <ele>1995.4000244141</ele>
        <time>2019-12-30T14:49:09.000Z</time>
      </trkpt>
      <trkpt lat="45.58986" lon="6.62885">
        <ele>1994.1999511719</ele>
        <time>2019-12-30T14:49:11.000Z</time>
      </trkpt>
      <trkpt lat="45.58985" lon="6.62888">
        <ele>1993.8000488281</ele>
        <time>2019-12-30T14:49:12.000Z</time>
      </trkpt>
      <trkpt lat="45.58984" lon="6.62893">
        <ele>1993.1999511719</ele>
        <time>2019-12-30T14:49:13.000Z</time>
      </trkpt>
      <trkpt lat="45.58984" lon="6.62905">
        <ele>1992</ele>
        <time>2019-12-30T14:49:15.000Z</time>
      </trkpt>
      <trkpt lat="45.58982" lon="6.62911">
        <ele>1991.5999755859</ele>
        <time>2019-12-30T14:49:16.000Z</time>
      </trkpt>
      <trkpt lat="45.5898" lon="6.62926">
        <ele>1990.4000244141</ele>
        <time>2019-12-30T14:49:18.000Z</time>
      </trkpt>
      <trkpt lat="45.58978" lon="6.62943">
        <ele>1988.4000244141</ele>
        <time>2019-12-30T14:49:20.000Z</time>
      </trkpt>
      <trkpt lat="45.58977" lon="6.62948">
        <ele>1987.4000244141</ele>
        <time>2019-12-30T14:49:21.000Z</time>
      </trkpt>
      <trkpt lat="45.58976" lon="6.62955">
        <ele>1986.4000244141</ele>
        <time>2019-12-30T14:49:22.000Z</time>
      </trkpt>
      <trkpt lat="45.58976" lon="6.62964">
        <ele>1985.4000244141</ele>
        <time>2019-12-30T14:49:23.000Z</time>
      </trkpt>
      <trkpt lat="45.58977" lon="6.62973">
        <ele>1984.4000244141</ele>
        <time>2019-12-30T14:49:24.000Z</time>
      </trkpt>
      <trkpt lat="45.58978" lon="6.62982">
        <ele>1983.4000244141</ele>
        <time>2019-12-30T14:49:25.000Z</time>
      </trkpt>
      <trkpt lat="45.58978" lon="6.6299">
        <ele>1982.4000244141</ele>
        <time>2019-12-30T14:49:26.000Z</time>
      </trkpt>
      <trkpt lat="45.58979" lon="6.62997">
        <ele>1981</ele>
        <time>2019-12-30T14:49:27.000Z</time>
      </trkpt>
      <trkpt lat="45.5898" lon="6.63003">
        <ele>1979.5999755859</ele>
        <time>2019-12-30T14:49:28.000Z</time>
      </trkpt>
      <trkpt lat="45.58981" lon="6.63009">
        <ele>1978.1999511719</ele>
        <time>2019-12-30T14:49:29.000Z</time>
      </trkpt>
      <trkpt lat="45.58981" lon="6.63014">
        <ele>1977.1999511719</ele>
        <time>2019-12-30T14:49:30.000Z</time>
      </trkpt>
      <trkpt lat="45.5898" lon="6.63023">
        <ele>1975.4000244141</ele>
        <time>2019-12-30T14:49:32.000Z</time>
      </trkpt>
      <trkpt lat="45.5898" lon="6.63034">
        <ele>1974.1999511719</ele>
        <time>2019-12-30T14:49:34.000Z</time>
      </trkpt>
      <trkpt lat="45.58979" lon="6.63048">
        <ele>1973.4000244141</ele>
        <time>2019-12-30T14:49:36.000Z</time>
      </trkpt>
      <trkpt lat="45.58978" lon="6.63055">
        <ele>1972.8000488281</ele>
        <time>2019-12-30T14:49:37.000Z</time>
      </trkpt>
      <trkpt lat="45.58978" lon="6.6306">
        <ele>1971.5999755859</ele>
        <time>2019-12-30T14:49:38.000Z</time>
      </trkpt>
      <trkpt lat="45.58976" lon="6.63066">
        <ele>1969.8000488281</ele>
        <time>2019-12-30T14:49:40.000Z</time>
      </trkpt>
      <trkpt lat="45.58977" lon="6.63066">
        <ele>1969</ele>
        <time>2019-12-30T14:49:41.000Z</time>
      </trkpt>
      <trkpt lat="45.58976" lon="6.63066">
        <ele>1968.5999755859</ele>
        <time>2019-12-30T14:49:42.000Z</time>
      </trkpt>
      <trkpt lat="45.58976" lon="6.63066">
        <ele>1967.4000244141</ele>
        <time>2019-12-30T14:49:45.000Z</time>
      </trkpt>
      <trkpt lat="45.58976" lon="6.63066">
        <ele>1966.8000488281</ele>
        <time>2019-12-30T14:49:49.000Z</time>
      </trkpt>
      <trkpt lat="45.58979" lon="6.6307">
        <ele>1966.8000488281</ele>
        <time>2019-12-30T14:49:53.000Z</time>
      </trkpt>
      <trkpt lat="45.58984" lon="6.63072">
        <ele>1966.8000488281</ele>
        <time>2019-12-30T14:49:54.000Z</time>
      </trkpt>
      <trkpt lat="45.58995" lon="6.63096">
        <ele>1966.4000244141</ele>
        <time>2019-12-30T14:49:57.000Z</time>
      </trkpt>
      <trkpt lat="45.58996" lon="6.63103">
        <ele>1965.8000488281</ele>
        <time>2019-12-30T14:49:58.000Z</time>
      </trkpt>
      <trkpt lat="45.58996" lon="6.63109">
        <ele>1964.8000488281</ele>
        <time>2019-12-30T14:49:59.000Z</time>
      </trkpt>
      <trkpt lat="45.58996" lon="6.63116">
        <ele>1963.5999755859</ele>
        <time>2019-12-30T14:50:00.000Z</time>
      </trkpt>
      <trkpt lat="45.58995" lon="6.6312">
        <ele>1962.4000244141</ele>
        <time>2019-12-30T14:50:01.000Z</time>
      </trkpt>
      <trkpt lat="45.58993" lon="6.63125">
        <ele>1960.8000488281</ele>
        <time>2019-12-30T14:50:02.000Z</time>
      </trkpt>
      <trkpt lat="45.58991" lon="6.63129">
        <ele>1960.1999511719</ele>
        <time>2019-12-30T14:50:03.000Z</time>
      </trkpt>
      <trkpt lat="45.58989" lon="6.63135">
        <ele>1959.8000488281</ele>
        <time>2019-12-30T14:50:04.000Z</time>
      </trkpt>
      <trkpt lat="45.58978" lon="6.63155">
        <ele>1958</ele>
        <time>2019-12-30T14:50:07.000Z</time>
      </trkpt>
      <trkpt lat="45.58975" lon="6.63162">
        <ele>1957.1999511719</ele>
        <time>2019-12-30T14:50:08.000Z</time>
      </trkpt>
      <trkpt lat="45.58972" lon="6.63167">
        <ele>1956.1999511719</ele>
        <time>2019-12-30T14:50:09.000Z</time>
      </trkpt>
      <trkpt lat="45.5897" lon="6.63171">
        <ele>1955</ele>
        <time>2019-12-30T14:50:10.000Z</time>
      </trkpt>
      <trkpt lat="45.58969" lon="6.63173">
        <ele>1953.8000488281</ele>
        <time>2019-12-30T14:50:11.000Z</time>
      </trkpt>
      <trkpt lat="45.58968" lon="6.63175">
        <ele>1952.8000488281</ele>
        <time>2019-12-30T14:50:12.000Z</time>
      </trkpt>
      <trkpt lat="45.58967" lon="6.63179">
        <ele>1951</ele>
        <time>2019-12-30T14:50:14.000Z</time>
      </trkpt>
      <trkpt lat="45.5897" lon="6.63181">
        <ele>1950.4000244141</ele>
        <time>2019-12-30T14:50:15.000Z</time>
      </trkpt>
      <trkpt lat="45.58974" lon="6.63179">
        <ele>1949.8000488281</ele>
        <time>2019-12-30T14:50:16.000Z</time>
      </trkpt>
      <trkpt lat="45.58978" lon="6.63177">
        <ele>1949</ele>
        <time>2019-12-30T14:50:18.000Z</time>
      </trkpt>
      <trkpt lat="45.5898" lon="6.63176">
        <ele>1948.5999755859</ele>
        <time>2019-12-30T14:50:19.000Z</time>
      </trkpt>
      <trkpt lat="45.58983" lon="6.63177">
        <ele>1948</ele>
        <time>2019-12-30T14:50:20.000Z</time>
      </trkpt>
      <trkpt lat="45.58984" lon="6.63181">
        <ele>1947</ele>
        <time>2019-12-30T14:50:21.000Z</time>
      </trkpt>
      <trkpt lat="45.58983" lon="6.63185">
        <ele>1946</ele>
        <time>2019-12-30T14:50:22.000Z</time>
      </trkpt>
      <trkpt lat="45.58982" lon="6.6319">
        <ele>1945</ele>
        <time>2019-12-30T14:50:23.000Z</time>
      </trkpt>
      <trkpt lat="45.58983" lon="6.63192">
        <ele>1943.5999755859</ele>
        <time>2019-12-30T14:50:24.000Z</time>
      </trkpt>
      <trkpt lat="45.58986" lon="6.63194">
        <ele>1942.1999511719</ele>
        <time>2019-12-30T14:50:25.000Z</time>
      </trkpt>
      <trkpt lat="45.58989" lon="6.63198">
        <ele>1940.4000244141</ele>
        <time>2019-12-30T14:50:26.000Z</time>
      </trkpt>
      <trkpt lat="45.58985" lon="6.63208">
        <ele>1938.4000244141</ele>
        <time>2019-12-30T14:50:28.000Z</time>
      </trkpt>
      <trkpt lat="45.58982" lon="6.63214">
        <ele>1936.5999755859</ele>
        <time>2019-12-30T14:50:29.000Z</time>
      </trkpt>
      <trkpt lat="45.58979" lon="6.6322">
        <ele>1934.8000488281</ele>
        <time>2019-12-30T14:50:30.000Z</time>
      </trkpt>
      <trkpt lat="45.58978" lon="6.63224">
        <ele>1933.4000244141</ele>
        <time>2019-12-30T14:50:31.000Z</time>
      </trkpt>
      <trkpt lat="45.58977" lon="6.63231">
        <ele>1932.4000244141</ele>
        <time>2019-12-30T14:50:32.000Z</time>
      </trkpt>
      <trkpt lat="45.58975" lon="6.63237">
        <ele>1931.1999511719</ele>
        <time>2019-12-30T14:50:33.000Z</time>
      </trkpt>
      <trkpt lat="45.58973" lon="6.63241">
        <ele>1930</ele>
        <time>2019-12-30T14:50:34.000Z</time>
      </trkpt>
      <trkpt lat="45.58972" lon="6.63242">
        <ele>1928.8000488281</ele>
        <time>2019-12-30T14:50:35.000Z</time>
      </trkpt>
      <trkpt lat="45.58972" lon="6.63243">
        <ele>1927.5999755859</ele>
        <time>2019-12-30T14:50:36.000Z</time>
      </trkpt>
      <trkpt lat="45.58971" lon="6.63245">
        <ele>1926.4000244141</ele>
        <time>2019-12-30T14:50:37.000Z</time>
      </trkpt>
      <trkpt lat="45.58968" lon="6.63253">
        <ele>1925.1999511719</ele>
        <time>2019-12-30T14:50:39.000Z</time>
      </trkpt>
      <trkpt lat="45.58966" lon="6.63256">
        <ele>1924.5999755859</ele>
        <time>2019-12-30T14:50:40.000Z</time>
      </trkpt>
      <trkpt lat="45.58967" lon="6.6326">
        <ele>1924</ele>
        <time>2019-12-30T14:50:41.000Z</time>
      </trkpt>
      <trkpt lat="45.58972" lon="6.63264">
        <ele>1922.5999755859</ele>
        <time>2019-12-30T14:50:43.000Z</time>
      </trkpt>
      <trkpt lat="45.58971" lon="6.63276">
        <ele>1920.8000488281</ele>
        <time>2019-12-30T14:50:45.000Z</time>
      </trkpt>
      <trkpt lat="45.58969" lon="6.63282">
        <ele>1919.1999511719</ele>
        <time>2019-12-30T14:50:46.000Z</time>
      </trkpt>
      <trkpt lat="45.58967" lon="6.63289">
        <ele>1917.5999755859</ele>
        <time>2019-12-30T14:50:47.000Z</time>
      </trkpt>
      <trkpt lat="45.58965" lon="6.63294">
        <ele>1916.4000244141</ele>
        <time>2019-12-30T14:50:48.000Z</time>
      </trkpt>
      <trkpt lat="45.58963" lon="6.63302">
        <ele>1913.4000244141</ele>
        <time>2019-12-30T14:50:50.000Z</time>
      </trkpt>
      <trkpt lat="45.58963" lon="6.63306">
        <ele>1912.1999511719</ele>
        <time>2019-12-30T14:50:51.000Z</time>
      </trkpt>
      <trkpt lat="45.58963" lon="6.63314">
        <ele>1910.5999755859</ele>
        <time>2019-12-30T14:50:53.000Z</time>
      </trkpt>
      <trkpt lat="45.58963" lon="6.63325">
        <ele>1909.8000488281</ele>
        <time>2019-12-30T14:50:55.000Z</time>
      </trkpt>
      <trkpt lat="45.58962" lon="6.6333">
        <ele>1909.5999755859</ele>
        <time>2019-12-30T14:50:56.000Z</time>
      </trkpt>
      <trkpt lat="45.58961" lon="6.63336">
        <ele>1909.4000244141</ele>
        <time>2019-12-30T14:50:57.000Z</time>
      </trkpt>
      <trkpt lat="45.58956" lon="6.63347">
        <ele>1908.1999511719</ele>
        <time>2019-12-30T14:50:59.000Z</time>
      </trkpt>
      <trkpt lat="45.58953" lon="6.6335">
        <ele>1907.1999511719</ele>
        <time>2019-12-30T14:51:00.000Z</time>
      </trkpt>
      <trkpt lat="45.58951" lon="6.63352">
        <ele>1906</ele>
        <time>2019-12-30T14:51:01.000Z</time>
      </trkpt>
      <trkpt lat="45.58951" lon="6.63352">
        <ele>1905.1999511719</ele>
        <time>2019-12-30T14:51:02.000Z</time>
      </trkpt>
      <trkpt lat="45.58951" lon="6.63352">
        <ele>1904.4000244141</ele>
        <time>2019-12-30T14:51:03.000Z</time>
      </trkpt>
      <trkpt lat="45.58951" lon="6.63352">
        <ele>1903.4000244141</ele>
        <time>2019-12-30T14:51:08.000Z</time>
      </trkpt>
      <trkpt lat="45.58951" lon="6.63352">
        <ele>1903.4000244141</ele>
        <time>2019-12-30T14:51:09.000Z</time>
      </trkpt>
      <trkpt lat="45.5895" lon="6.63355">
        <ele>1902.5999755859</ele>
        <time>2019-12-30T14:51:16.000Z</time>
      </trkpt>
      <trkpt lat="45.5895" lon="6.63358">
        <ele>1902.5999755859</ele>
        <time>2019-12-30T14:51:17.000Z</time>
      </trkpt>
      <trkpt lat="45.58949" lon="6.63365">
        <ele>1902.1999511719</ele>
        <time>2019-12-30T14:51:19.000Z</time>
      </trkpt>
      <trkpt lat="45.5895" lon="6.63376">
        <ele>1901.8000488281</ele>
        <time>2019-12-30T14:51:23.000Z</time>
      </trkpt>
      <trkpt lat="45.58951" lon="6.63387">
        <ele>1901.5999755859</ele>
        <time>2019-12-30T14:51:30.000Z</time>
      </trkpt>
      <trkpt lat="45.58951" lon="6.63392">
        <ele>1902</ele>
        <time>2019-12-30T14:51:35.000Z</time>
      </trkpt>
      <trkpt lat="45.58951" lon="6.63393">
        <ele>1901.5999755859</ele>
        <time>2019-12-30T14:51:42.000Z</time>
      </trkpt>
      <trkpt lat="45.58951" lon="6.63393">
        <ele>1901.4000244141</ele>
        <time>2019-12-30T14:51:56.000Z</time>
      </trkpt>
      <trkpt lat="45.58953" lon="6.63393">
        <ele>1901.4000244141</ele>
        <time>2019-12-30T14:52:09.000Z</time>
      </trkpt>
      <trkpt lat="45.58959" lon="6.6339">
        <ele>1901.4000244141</ele>
        <time>2019-12-30T14:52:13.000Z</time>
      </trkpt>
      <trkpt lat="45.58962" lon="6.63387">
        <ele>1901.4000244141</ele>
        <time>2019-12-30T14:52:14.000Z</time>
      </trkpt>
      <trkpt lat="45.5897" lon="6.6338">
        <ele>1901.1999511719</ele>
        <time>2019-12-30T14:52:17.000Z</time>
      </trkpt>
      <trkpt lat="45.58977" lon="6.63388">
        <ele>1899.8000488281</ele>
        <time>2019-12-30T14:52:19.000Z</time>
      </trkpt>
      <trkpt lat="45.5898" lon="6.63389">
        <ele>1898.5999755859</ele>
        <time>2019-12-30T14:52:20.000Z</time>
      </trkpt>
      <trkpt lat="45.58983" lon="6.63389">
        <ele>1897.4000244141</ele>
        <time>2019-12-30T14:52:21.000Z</time>
      </trkpt>
      <trkpt lat="45.58986" lon="6.6339">
        <ele>1896.4000244141</ele>
        <time>2019-12-30T14:52:22.000Z</time>
      </trkpt>
      <trkpt lat="45.58987" lon="6.634">
        <ele>1894.5999755859</ele>
        <time>2019-12-30T14:52:24.000Z</time>
      </trkpt>
      <trkpt lat="45.58989" lon="6.63401">
        <ele>1893.1999511719</ele>
        <time>2019-12-30T14:52:25.000Z</time>
      </trkpt>
      <trkpt lat="45.58991" lon="6.63399">
        <ele>1890</ele>
        <time>2019-12-30T14:52:26.000Z</time>
      </trkpt>
      <trkpt lat="45.58995" lon="6.63397">
        <ele>1889</ele>
        <time>2019-12-30T14:52:27.000Z</time>
      </trkpt>
      <trkpt lat="45.58999" lon="6.63393">
        <ele>1888.1999511719</ele>
        <time>2019-12-30T14:52:28.000Z</time>
      </trkpt>
      <trkpt lat="45.59003" lon="6.63393">
        <ele>1887</ele>
        <time>2019-12-30T14:52:29.000Z</time>
      </trkpt>
      <trkpt lat="45.59007" lon="6.63394">
        <ele>1885.5999755859</ele>
        <time>2019-12-30T14:52:30.000Z</time>
      </trkpt>
      <trkpt lat="45.59011" lon="6.63397">
        <ele>1884</ele>
        <time>2019-12-30T14:52:31.000Z</time>
      </trkpt>
      <trkpt lat="45.59011" lon="6.63406">
        <ele>1882.4000244141</ele>
        <time>2019-12-30T14:52:32.000Z</time>
      </trkpt>
      <trkpt lat="45.59005" lon="6.63413">
        <ele>1880.5999755859</ele>
        <time>2019-12-30T14:52:33.000Z</time>
      </trkpt>
      <trkpt lat="45.59002" lon="6.63415">
        <ele>1879</ele>
        <time>2019-12-30T14:52:34.000Z</time>
      </trkpt>
      <trkpt lat="45.59002" lon="6.63416">
        <ele>1877.5999755859</ele>
        <time>2019-12-30T14:52:35.000Z</time>
      </trkpt>
      <trkpt lat="45.59" lon="6.63418">
        <ele>1876.5999755859</ele>
        <time>2019-12-30T14:52:36.000Z</time>
      </trkpt>
      <trkpt lat="45.58998" lon="6.6342">
        <ele>1875</ele>
        <time>2019-12-30T14:52:38.000Z</time>
      </trkpt>
      <trkpt lat="45.58998" lon="6.6342">
        <ele>1874.4000244141</ele>
        <time>2019-12-30T14:52:46.000Z</time>
      </trkpt>
      <trkpt lat="45.58998" lon="6.6342">
        <ele>1874.5999755859</ele>
        <time>2019-12-30T14:52:58.000Z</time>
      </trkpt>
      <trkpt lat="45.58999" lon="6.63421">
        <ele>1874.4000244141</ele>
        <time>2019-12-30T14:53:08.000Z</time>
      </trkpt>
      <trkpt lat="45.59" lon="6.63424">
        <ele>1874.1999511719</ele>
        <time>2019-12-30T14:53:09.000Z</time>
      </trkpt>
      <trkpt lat="45.59002" lon="6.63441">
        <ele>1874</ele>
        <time>2019-12-30T14:53:11.000Z</time>
      </trkpt>
      <trkpt lat="45.59003" lon="6.63452">
        <ele>1873.8000488281</ele>
        <time>2019-12-30T14:53:12.000Z</time>
      </trkpt>
      <trkpt lat="45.59004" lon="6.6347">
        <ele>1872</ele>
        <time>2019-12-30T14:53:14.000Z</time>
      </trkpt>
      <trkpt lat="45.59005" lon="6.63477">
        <ele>1870.5999755859</ele>
        <time>2019-12-30T14:53:15.000Z</time>
      </trkpt>
      <trkpt lat="45.59005" lon="6.63484">
        <ele>1868.8000488281</ele>
        <time>2019-12-30T14:53:16.000Z</time>
      </trkpt>
      <trkpt lat="45.59005" lon="6.63491">
        <ele>1867.4000244141</ele>
        <time>2019-12-30T14:53:17.000Z</time>
      </trkpt>
      <trkpt lat="45.59006" lon="6.63505">
        <ele>1866</ele>
        <time>2019-12-30T14:53:19.000Z</time>
      </trkpt>
      <trkpt lat="45.59008" lon="6.63512">
        <ele>1865.1999511719</ele>
        <time>2019-12-30T14:53:20.000Z</time>
      </trkpt>
      <trkpt lat="45.5901" lon="6.63521">
        <ele>1864.4000244141</ele>
        <time>2019-12-30T14:53:21.000Z</time>
      </trkpt>
      <trkpt lat="45.59013" lon="6.63539">
        <ele>1862.8000488281</ele>
        <time>2019-12-30T14:53:23.000Z</time>
      </trkpt>
      <trkpt lat="45.59013" lon="6.63547">
        <ele>1861.8000488281</ele>
        <time>2019-12-30T14:53:24.000Z</time>
      </trkpt>
      <trkpt lat="45.59013" lon="6.63554">
        <ele>1860.5999755859</ele>
        <time>2019-12-30T14:53:25.000Z</time>
      </trkpt>
      <trkpt lat="45.59014" lon="6.63562">
        <ele>1859.5999755859</ele>
        <time>2019-12-30T14:53:26.000Z</time>
      </trkpt>
      <trkpt lat="45.59015" lon="6.63577">
        <ele>1857.8000488281</ele>
        <time>2019-12-30T14:53:28.000Z</time>
      </trkpt>
      <trkpt lat="45.59015" lon="6.63585">
        <ele>1857</ele>
        <time>2019-12-30T14:53:29.000Z</time>
      </trkpt>
      <trkpt lat="45.59015" lon="6.63591">
        <ele>1856.4000244141</ele>
        <time>2019-12-30T14:53:30.000Z</time>
      </trkpt>
      <trkpt lat="45.59017" lon="6.63604">
        <ele>1855</ele>
        <time>2019-12-30T14:53:32.000Z</time>
      </trkpt>
      <trkpt lat="45.59018" lon="6.63611">
        <ele>1854.4000244141</ele>
        <time>2019-12-30T14:53:33.000Z</time>
      </trkpt>
      <trkpt lat="45.59019" lon="6.63617">
        <ele>1853.8000488281</ele>
        <time>2019-12-30T14:53:34.000Z</time>
      </trkpt>
      <trkpt lat="45.59019" lon="6.63629">
        <ele>1852.8000488281</ele>
        <time>2019-12-30T14:53:36.000Z</time>
      </trkpt>
      <trkpt lat="45.59019" lon="6.6364">
        <ele>1851.4000244141</ele>
        <time>2019-12-30T14:53:38.000Z</time>
      </trkpt>
      <trkpt lat="45.59018" lon="6.63648">
        <ele>1850.1999511719</ele>
        <time>2019-12-30T14:53:40.000Z</time>
      </trkpt>
      <trkpt lat="45.59016" lon="6.63658">
        <ele>1849.5999755859</ele>
        <time>2019-12-30T14:53:42.000Z</time>
      </trkpt>
      <trkpt lat="45.59013" lon="6.63673">
        <ele>1849.1999511719</ele>
        <time>2019-12-30T14:53:46.000Z</time>
      </trkpt>
      <trkpt lat="45.59014" lon="6.63676">
        <ele>1849</ele>
        <time>2019-12-30T14:53:47.000Z</time>
      </trkpt>
      <trkpt lat="45.59014" lon="6.6368">
        <ele>1848.8000488281</ele>
        <time>2019-12-30T14:53:48.000Z</time>
      </trkpt>
      <trkpt lat="45.5901" lon="6.63698">
        <ele>1848.5999755859</ele>
        <time>2019-12-30T14:53:51.000Z</time>
      </trkpt>
      <trkpt lat="45.59006" lon="6.63711">
        <ele>1848</ele>
        <time>2019-12-30T14:53:53.000Z</time>
      </trkpt>
      <trkpt lat="45.58999" lon="6.63726">
        <ele>1846.8000488281</ele>
        <time>2019-12-30T14:53:56.000Z</time>
      </trkpt>
      <trkpt lat="45.58995" lon="6.63734">
        <ele>1845.8000488281</ele>
        <time>2019-12-30T14:53:58.000Z</time>
      </trkpt>
      <trkpt lat="45.58989" lon="6.63748">
        <ele>1844.5999755859</ele>
        <time>2019-12-30T14:54:01.000Z</time>
      </trkpt>
      <trkpt lat="45.58986" lon="6.63752">
        <ele>1843.5999755859</ele>
        <time>2019-12-30T14:54:02.000Z</time>
      </trkpt>
      <trkpt lat="45.58981" lon="6.63757">
        <ele>1843</ele>
        <time>2019-12-30T14:54:03.000Z</time>
      </trkpt>
      <trkpt lat="45.5897" lon="6.63767">
        <ele>1841.4000244141</ele>
        <time>2019-12-30T14:54:05.000Z</time>
      </trkpt>
      <trkpt lat="45.58961" lon="6.63775">
        <ele>1839.8000488281</ele>
        <time>2019-12-30T14:54:07.000Z</time>
      </trkpt>
      <trkpt lat="45.58957" lon="6.6378">
        <ele>1838.5999755859</ele>
        <time>2019-12-30T14:54:08.000Z</time>
      </trkpt>
      <trkpt lat="45.58952" lon="6.63787">
        <ele>1837.4000244141</ele>
        <time>2019-12-30T14:54:09.000Z</time>
      </trkpt>
      <trkpt lat="45.58948" lon="6.63795">
        <ele>1836.4000244141</ele>
        <time>2019-12-30T14:54:10.000Z</time>
      </trkpt>
      <trkpt lat="45.58944" lon="6.63808">
        <ele>1834.5999755859</ele>
        <time>2019-12-30T14:54:12.000Z</time>
      </trkpt>
      <trkpt lat="45.58943" lon="6.63819">
        <ele>1832.8000488281</ele>
        <time>2019-12-30T14:54:14.000Z</time>
      </trkpt>
      <trkpt lat="45.5894" lon="6.63829">
        <ele>1831.5999755859</ele>
        <time>2019-12-30T14:54:17.000Z</time>
      </trkpt>
      <trkpt lat="45.58936" lon="6.63835">
        <ele>1830.8000488281</ele>
        <time>2019-12-30T14:54:19.000Z</time>
      </trkpt>
      <trkpt lat="45.58932" lon="6.6384">
        <ele>1830.4000244141</ele>
        <time>2019-12-30T14:54:20.000Z</time>
      </trkpt>
      <trkpt lat="45.58928" lon="6.63845">
        <ele>1830.1999511719</ele>
        <time>2019-12-30T14:54:21.000Z</time>
      </trkpt>
      <trkpt lat="45.58918" lon="6.63848">
        <ele>1829.4000244141</ele>
        <time>2019-12-30T14:54:23.000Z</time>
      </trkpt>
      <trkpt lat="45.58913" lon="6.63847">
        <ele>1829</ele>
        <time>2019-12-30T14:54:24.000Z</time>
      </trkpt>
      <trkpt lat="45.58905" lon="6.63843">
        <ele>1826.5999755859</ele>
        <time>2019-12-30T14:54:26.000Z</time>
      </trkpt>
      <trkpt lat="45.58897" lon="6.63836">
        <ele>1824.8000488281</ele>
        <time>2019-12-30T14:54:28.000Z</time>
      </trkpt>
      <trkpt lat="45.58891" lon="6.63835">
        <ele>1823.8000488281</ele>
        <time>2019-12-30T14:54:29.000Z</time>
      </trkpt>
      <trkpt lat="45.58885" lon="6.63836">
        <ele>1822.8000488281</ele>
        <time>2019-12-30T14:54:30.000Z</time>
      </trkpt>
      <trkpt lat="45.58882" lon="6.63838">
        <ele>1821.5999755859</ele>
        <time>2019-12-30T14:54:31.000Z</time>
      </trkpt>
      <trkpt lat="45.58881" lon="6.63841">
        <ele>1820.1999511719</ele>
        <time>2019-12-30T14:54:32.000Z</time>
      </trkpt>
      <trkpt lat="45.5888" lon="6.63842">
        <ele>1819</ele>
        <time>2019-12-30T14:54:33.000Z</time>
      </trkpt>
      <trkpt lat="45.58879" lon="6.63848">
        <ele>1818</ele>
        <time>2019-12-30T14:54:35.000Z</time>
      </trkpt>
      <trkpt lat="45.58877" lon="6.63863">
        <ele>1817.4000244141</ele>
        <time>2019-12-30T14:54:38.000Z</time>
      </trkpt>
      <trkpt lat="45.58875" lon="6.63884">
        <ele>1816.5999755859</ele>
        <time>2019-12-30T14:54:41.000Z</time>
      </trkpt>
      <trkpt lat="45.58874" lon="6.63888">
        <ele>1816.1999511719</ele>
        <time>2019-12-30T14:54:42.000Z</time>
      </trkpt>
      <trkpt lat="45.58874" lon="6.63889">
        <ele>1815.5999755859</ele>
        <time>2019-12-30T14:54:43.000Z</time>
      </trkpt>
      <trkpt lat="45.58874" lon="6.6389">
        <ele>1814.5999755859</ele>
        <time>2019-12-30T14:54:45.000Z</time>
      </trkpt>
      <trkpt lat="45.58874" lon="6.6389">
        <ele>1814.4000244141</ele>
        <time>2019-12-30T14:54:46.000Z</time>
      </trkpt>
      <trkpt lat="45.58874" lon="6.6389">
        <ele>1814.1999511719</ele>
        <time>2019-12-30T14:54:50.000Z</time>
      </trkpt>
      <trkpt lat="45.58874" lon="6.6389">
        <ele>1814.1999511719</ele>
        <time>2019-12-30T14:55:02.000Z</time>
      </trkpt>
      <trkpt lat="45.58874" lon="6.63891">
        <ele>1814</ele>
        <time>2019-12-30T14:55:09.000Z</time>
      </trkpt>
      <trkpt lat="45.58874" lon="6.63891">
        <ele>1814</ele>
        <time>2019-12-30T14:55:19.000Z</time>
      </trkpt>
      <trkpt lat="45.58874" lon="6.63891">
        <ele>1813.1999511719</ele>
        <time>2019-12-30T14:55:30.000Z</time>
      </trkpt>
      <trkpt lat="45.58874" lon="6.63891">
        <ele>1813</ele>
        <time>2019-12-30T14:55:32.000Z</time>
      </trkpt>
      <trkpt lat="45.58873" lon="6.63891">
        <ele>1813.4000244141</ele>
        <time>2019-12-30T14:55:41.000Z</time>
      </trkpt>
      <trkpt lat="45.58873" lon="6.63891">
        <ele>1814.4000244141</ele>
        <time>2019-12-30T14:55:47.000Z</time>
      </trkpt>
      <trkpt lat="45.58873" lon="6.63891">
        <ele>1813.5999755859</ele>
        <time>2019-12-30T14:55:52.000Z</time>
      </trkpt>
      <trkpt lat="45.58873" lon="6.63891">
        <ele>1813.8000488281</ele>
        <time>2019-12-30T14:56:06.000Z</time>
      </trkpt>
      <trkpt lat="45.58874" lon="6.63891">
        <ele>1813.5999755859</ele>
        <time>2019-12-30T14:56:22.000Z</time>
      </trkpt>
      <trkpt lat="45.58874" lon="6.63891">
        <ele>1813.8000488281</ele>
        <time>2019-12-30T14:56:36.000Z</time>
      </trkpt>
      <trkpt lat="45.58874" lon="6.63891">
        <ele>1813.8000488281</ele>
        <time>2019-12-30T14:56:47.000Z</time>
      </trkpt>
      <trkpt lat="45.58874" lon="6.63892">
        <ele>1813.8000488281</ele>
        <time>2019-12-30T14:57:01.000Z</time>
      </trkpt>
      <trkpt lat="45.58874" lon="6.63892">
        <ele>1813.4000244141</ele>
        <time>2019-12-30T14:57:09.000Z</time>
      </trkpt>
      <trkpt lat="45.58874" lon="6.63892">
        <ele>1813.4000244141</ele>
        <time>2019-12-30T14:57:15.000Z</time>
      </trkpt>
      <trkpt lat="45.58874" lon="6.63892">
        <ele>1813.5999755859</ele>
        <time>2019-12-30T14:57:26.000Z</time>
      </trkpt>
      <trkpt lat="45.58874" lon="6.63892">
        <ele>1813.4000244141</ele>
        <time>2019-12-30T14:57:34.000Z</time>
      </trkpt>
      <trkpt lat="45.58874" lon="6.63892">
        <ele>1813.8000488281</ele>
        <time>2019-12-30T14:57:45.000Z</time>
      </trkpt>
      <trkpt lat="45.58874" lon="6.63892">
        <ele>1813.5999755859</ele>
        <time>2019-12-30T14:57:55.000Z</time>
      </trkpt>
      <trkpt lat="45.58874" lon="6.63892">
        <ele>1813</ele>
        <time>2019-12-30T14:58:05.000Z</time>
      </trkpt>
      <trkpt lat="45.58873" lon="6.63892">
        <ele>1813.4000244141</ele>
        <time>2019-12-30T14:58:14.000Z</time>
      </trkpt>
      <trkpt lat="45.58873" lon="6.63892">
        <ele>1813.5999755859</ele>
        <time>2019-12-30T14:58:25.000Z</time>
      </trkpt>
      <trkpt lat="45.58873" lon="6.63892">
        <ele>1814.4000244141</ele>
        <time>2019-12-30T14:58:26.000Z</time>
      </trkpt>
      <trkpt lat="45.58873" lon="6.63892">
        <ele>1813</ele>
        <time>2019-12-30T14:58:33.000Z</time>
      </trkpt>
      <trkpt lat="45.58873" lon="6.63892">
        <ele>1812.5999755859</ele>
        <time>2019-12-30T14:58:36.000Z</time>
      </trkpt>
      <trkpt lat="45.58873" lon="6.63892">
        <ele>1814.4000244141</ele>
        <time>2019-12-30T14:58:39.000Z</time>
      </trkpt>
      <trkpt lat="45.58873" lon="6.63892">
        <ele>1813.8000488281</ele>
        <time>2019-12-30T14:58:50.000Z</time>
      </trkpt>
      <trkpt lat="45.58873" lon="6.63892">
        <ele>1813.1999511719</ele>
        <time>2019-12-30T14:58:59.000Z</time>
      </trkpt>
      <trkpt lat="45.58873" lon="6.63892">
        <ele>1812.8000488281</ele>
        <time>2019-12-30T14:59:00.000Z</time>
      </trkpt>
      <trkpt lat="45.58873" lon="6.63892">
        <ele>1814.1999511719</ele>
        <time>2019-12-30T14:59:04.000Z</time>
      </trkpt>
      <trkpt lat="45.58874" lon="6.63893">
        <ele>1813.5999755859</ele>
        <time>2019-12-30T14:59:13.000Z</time>
      </trkpt>
      <trkpt lat="45.58874" lon="6.63893">
        <ele>1813</ele>
        <time>2019-12-30T14:59:14.000Z</time>
      </trkpt>
      <trkpt lat="45.58874" lon="6.63893">
        <ele>1814</ele>
        <time>2019-12-30T14:59:17.000Z</time>
      </trkpt>
      <trkpt lat="45.58874" lon="6.63893">
        <ele>1814</ele>
        <time>2019-12-30T14:59:23.000Z</time>
      </trkpt>
      <trkpt lat="45.58874" lon="6.63893">
        <ele>1813.8000488281</ele>
        <time>2019-12-30T14:59:35.000Z</time>
      </trkpt>
      <trkpt lat="45.58874" lon="6.63893">
        <ele>1814</ele>
        <time>2019-12-30T14:59:48.000Z</time>
      </trkpt>
      <trkpt lat="45.58874" lon="6.63893">
        <ele>1813.8000488281</ele>
        <time>2019-12-30T14:59:59.000Z</time>
      </trkpt>
      <trkpt lat="45.58874" lon="6.63893">
        <ele>1814</ele>
        <time>2019-12-30T15:00:11.000Z</time>
      </trkpt>
      <trkpt lat="45.58874" lon="6.63893">
        <ele>1813.8000488281</ele>
        <time>2019-12-30T15:00:24.000Z</time>
      </trkpt>
      <trkpt lat="45.58874" lon="6.63893">
        <ele>1814</ele>
        <time>2019-12-30T15:00:37.000Z</time>
      </trkpt>
      <trkpt lat="45.58873" lon="6.63893">
        <ele>1814</ele>
        <time>2019-12-30T15:00:46.000Z</time>
      </trkpt>
      <trkpt lat="45.58873" lon="6.63893">
        <ele>1814</ele>
        <time>2019-12-30T15:01:00.000Z</time>
      </trkpt>
      <trkpt lat="45.58873" lon="6.63893">
        <ele>1813.8000488281</ele>
        <time>2019-12-30T15:01:06.000Z</time>
      </trkpt>
      <trkpt lat="45.58873" lon="6.63893">
        <ele>1813.8000488281</ele>
        <time>2019-12-30T15:01:08.000Z</time>
      </trkpt>
      <trkpt lat="45.58873" lon="6.63893">
        <ele>1813.8000488281</ele>
        <time>2019-12-30T15:01:23.000Z</time>
      </trkpt>
      <trkpt lat="45.58873" lon="6.63893">
        <ele>1814</ele>
        <time>2019-12-30T15:01:37.000Z</time>
      </trkpt>
      <trkpt lat="45.58873" lon="6.63893">
        <ele>1813.8000488281</ele>
        <time>2019-12-30T15:01:46.000Z</time>
      </trkpt>
      <trkpt lat="45.58874" lon="6.639">
        <ele>1813.8000488281</ele>
        <time>2019-12-30T15:01:52.000Z</time>
      </trkpt>
      <trkpt lat="45.58874" lon="6.63901">
        <ele>1814.1999511719</ele>
        <time>2019-12-30T15:01:58.000Z</time>
      </trkpt>
      <trkpt lat="45.58874" lon="6.63902">
        <ele>1814</ele>
        <time>2019-12-30T15:02:10.000Z</time>
      </trkpt>
      <trkpt lat="45.58874" lon="6.63908">
        <ele>1814</ele>
        <time>2019-12-30T15:02:13.000Z</time>
      </trkpt>
      <trkpt lat="45.58874" lon="6.63909">
        <ele>1814</ele>
        <time>2019-12-30T15:02:14.000Z</time>
      </trkpt>
      <trkpt lat="45.58874" lon="6.63915">
        <ele>1814.4000244141</ele>
        <time>2019-12-30T15:02:19.000Z</time>
      </trkpt>
      <trkpt lat="45.58874" lon="6.63919">
        <ele>1815</ele>
        <time>2019-12-30T15:02:22.000Z</time>
      </trkpt>
      <trkpt lat="45.58874" lon="6.63922">
        <ele>1815.4000244141</ele>
        <time>2019-12-30T15:02:23.000Z</time>
      </trkpt>
      <trkpt lat="45.58873" lon="6.63927">
        <ele>1816</ele>
        <time>2019-12-30T15:02:28.000Z</time>
      </trkpt>
      <trkpt lat="45.58873" lon="6.63935">
        <ele>1816</ele>
        <time>2019-12-30T15:02:33.000Z</time>
      </trkpt>
      <trkpt lat="45.58873" lon="6.63941">
        <ele>1816</ele>
        <time>2019-12-30T15:02:38.000Z</time>
      </trkpt>
      <trkpt lat="45.58872" lon="6.63944">
        <ele>1816.1999511719</ele>
        <time>2019-12-30T15:02:42.000Z</time>
      </trkpt>
      <trkpt lat="45.58872" lon="6.63946">
        <ele>1816.1999511719</ele>
        <time>2019-12-30T15:02:43.000Z</time>
      </trkpt>
      <trkpt lat="45.58872" lon="6.63948">
        <ele>1816.1999511719</ele>
        <time>2019-12-30T15:02:44.000Z</time>
      </trkpt>
      <trkpt lat="45.58872" lon="6.63951">
        <ele>1816.5999755859</ele>
        <time>2019-12-30T15:02:48.000Z</time>
      </trkpt>
      <trkpt lat="45.58872" lon="6.63955">
        <ele>1817.1999511719</ele>
        <time>2019-12-30T15:02:51.000Z</time>
      </trkpt>
      <trkpt lat="45.58872" lon="6.63954">
        <ele>1817.4000244141</ele>
        <time>2019-12-30T15:02:52.000Z</time>
      </trkpt>
      <trkpt lat="45.58868" lon="6.63957">
        <ele>1818.4000244141</ele>
        <time>2019-12-30T15:02:58.000Z</time>
      </trkpt>
      <trkpt lat="45.58866" lon="6.63959">
        <ele>1819.4000244141</ele>
        <time>2019-12-30T15:03:04.000Z</time>
      </trkpt>
      <trkpt lat="45.58864" lon="6.6396">
        <ele>1819.5999755859</ele>
        <time>2019-12-30T15:03:11.000Z</time>
      </trkpt>
      <trkpt lat="45.58863" lon="6.63962">
        <ele>1819.8000488281</ele>
        <time>2019-12-30T15:03:13.000Z</time>
      </trkpt>
      <trkpt lat="45.5886" lon="6.63964">
        <ele>1820.4000244141</ele>
        <time>2019-12-30T15:03:16.000Z</time>
      </trkpt>
      <trkpt lat="45.5886" lon="6.63964">
        <ele>1820.5999755859</ele>
        <time>2019-12-30T15:03:17.000Z</time>
      </trkpt>
      <trkpt lat="45.58856" lon="6.63966">
        <ele>1821.4000244141</ele>
        <time>2019-12-30T15:03:21.000Z</time>
      </trkpt>
      <trkpt lat="45.58855" lon="6.63967">
        <ele>1821.5999755859</ele>
        <time>2019-12-30T15:03:24.000Z</time>
      </trkpt>
      <trkpt lat="45.58853" lon="6.6397">
        <ele>1822</ele>
        <time>2019-12-30T15:03:27.000Z</time>
      </trkpt>
      <trkpt lat="45.58851" lon="6.63972">
        <ele>1822.5999755859</ele>
        <time>2019-12-30T15:03:30.000Z</time>
      </trkpt>
      <trkpt lat="45.58849" lon="6.63973">
        <ele>1822.8000488281</ele>
        <time>2019-12-30T15:03:32.000Z</time>
      </trkpt>
      <trkpt lat="45.58848" lon="6.63977">
        <ele>1823.5999755859</ele>
        <time>2019-12-30T15:03:37.000Z</time>
      </trkpt>
      <trkpt lat="45.58848" lon="6.63978">
        <ele>1823.8000488281</ele>
        <time>2019-12-30T15:03:38.000Z</time>
      </trkpt>
      <trkpt lat="45.58845" lon="6.63981">
        <ele>1824.4000244141</ele>
        <time>2019-12-30T15:03:43.000Z</time>
      </trkpt>
      <trkpt lat="45.58843" lon="6.63984">
        <ele>1824.8000488281</ele>
        <time>2019-12-30T15:03:47.000Z</time>
      </trkpt>
      <trkpt lat="45.58842" lon="6.63985">
        <ele>1824.8000488281</ele>
        <time>2019-12-30T15:03:49.000Z</time>
      </trkpt>
      <trkpt lat="45.58838" lon="6.63989">
        <ele>1825.8000488281</ele>
        <time>2019-12-30T15:03:55.000Z</time>
      </trkpt>
      <trkpt lat="45.58836" lon="6.63993">
        <ele>1826.5999755859</ele>
        <time>2019-12-30T15:04:01.000Z</time>
      </trkpt>
      <trkpt lat="45.58833" lon="6.63996">
        <ele>1826.8000488281</ele>
        <time>2019-12-30T15:04:05.000Z</time>
      </trkpt>
      <trkpt lat="45.58833" lon="6.63996">
        <ele>1827</ele>
        <time>2019-12-30T15:04:06.000Z</time>
      </trkpt>
      <trkpt lat="45.5883" lon="6.64001">
        <ele>1827.8000488281</ele>
        <time>2019-12-30T15:04:12.000Z</time>
      </trkpt>
      <trkpt lat="45.58829" lon="6.64002">
        <ele>1828</ele>
        <time>2019-12-30T15:04:14.000Z</time>
      </trkpt>
      <trkpt lat="45.58828" lon="6.64005">
        <ele>1828.4000244141</ele>
        <time>2019-12-30T15:04:17.000Z</time>
      </trkpt>
      <trkpt lat="45.58824" lon="6.64009">
        <ele>1828.8000488281</ele>
        <time>2019-12-30T15:04:23.000Z</time>
      </trkpt>
      <trkpt lat="45.58824" lon="6.64009">
        <ele>1829</ele>
        <time>2019-12-30T15:04:24.000Z</time>
      </trkpt>
      <trkpt lat="45.58819" lon="6.64012">
        <ele>1829.8000488281</ele>
        <time>2019-12-30T15:04:28.000Z</time>
      </trkpt>
      <trkpt lat="45.58817" lon="6.64013">
        <ele>1830</ele>
        <time>2019-12-30T15:04:33.000Z</time>
      </trkpt>
      <trkpt lat="45.58815" lon="6.64014">
        <ele>1830</ele>
        <time>2019-12-30T15:04:34.000Z</time>
      </trkpt>
      <trkpt lat="45.58812" lon="6.64016">
        <ele>1830.5999755859</ele>
        <time>2019-12-30T15:04:39.000Z</time>
      </trkpt>
      <trkpt lat="45.58808" lon="6.64016">
        <ele>1831.1999511719</ele>
        <time>2019-12-30T15:04:43.000Z</time>
      </trkpt>
      <trkpt lat="45.58807" lon="6.64016">
        <ele>1831.4000244141</ele>
        <time>2019-12-30T15:04:45.000Z</time>
      </trkpt>
      <trkpt lat="45.58804" lon="6.64017">
        <ele>1832.1999511719</ele>
        <time>2019-12-30T15:04:50.000Z</time>
      </trkpt>
      <trkpt lat="45.58803" lon="6.64017">
        <ele>1832.4000244141</ele>
        <time>2019-12-30T15:04:52.000Z</time>
      </trkpt>
      <trkpt lat="45.58798" lon="6.64019">
        <ele>1833</ele>
        <time>2019-12-30T15:04:58.000Z</time>
      </trkpt>
      <trkpt lat="45.58798" lon="6.6402">
        <ele>1833.4000244141</ele>
        <time>2019-12-30T15:05:02.000Z</time>
      </trkpt>
      <trkpt lat="45.58798" lon="6.6402">
        <ele>1833.5999755859</ele>
        <time>2019-12-30T15:05:04.000Z</time>
      </trkpt>
      <trkpt lat="45.58795" lon="6.64021">
        <ele>1833.5999755859</ele>
        <time>2019-12-30T15:05:05.000Z</time>
      </trkpt>
      <trkpt lat="45.58794" lon="6.64022">
        <ele>1833.8000488281</ele>
        <time>2019-12-30T15:05:07.000Z</time>
      </trkpt>
      <trkpt lat="45.58793" lon="6.64026">
        <ele>1834.4000244141</ele>
        <time>2019-12-30T15:05:12.000Z</time>
      </trkpt>
      <trkpt lat="45.58792" lon="6.64027">
        <ele>1834.4000244141</ele>
        <time>2019-12-30T15:05:13.000Z</time>
      </trkpt>
      <trkpt lat="45.5879" lon="6.64032">
        <ele>1835</ele>
        <time>2019-12-30T15:05:19.000Z</time>
      </trkpt>
      <trkpt lat="45.58788" lon="6.64034">
        <ele>1835.5999755859</ele>
        <time>2019-12-30T15:05:22.000Z</time>
      </trkpt>
      <trkpt lat="45.58787" lon="6.64035">
        <ele>1835.8000488281</ele>
        <time>2019-12-30T15:05:25.000Z</time>
      </trkpt>
      <trkpt lat="45.58783" lon="6.64039">
        <ele>1836.1999511719</ele>
        <time>2019-12-30T15:05:31.000Z</time>
      </trkpt>
      <trkpt lat="45.58783" lon="6.6404">
        <ele>1836.5999755859</ele>
        <time>2019-12-30T15:05:34.000Z</time>
      </trkpt>
      <trkpt lat="45.5878" lon="6.64043">
        <ele>1837.1999511719</ele>
        <time>2019-12-30T15:05:39.000Z</time>
      </trkpt>
      <trkpt lat="45.58776" lon="6.64043">
        <ele>1837.5999755859</ele>
        <time>2019-12-30T15:05:43.000Z</time>
      </trkpt>
      <trkpt lat="45.58775" lon="6.64044">
        <ele>1838</ele>
        <time>2019-12-30T15:05:45.000Z</time>
      </trkpt>
      <trkpt lat="45.58771" lon="6.64045">
        <ele>1838.8000488281</ele>
        <time>2019-12-30T15:05:50.000Z</time>
      </trkpt>
      <trkpt lat="45.58769" lon="6.64045">
        <ele>1838.8000488281</ele>
        <time>2019-12-30T15:05:51.000Z</time>
      </trkpt>
      <trkpt lat="45.58765" lon="6.64048">
        <ele>1839.5999755859</ele>
        <time>2019-12-30T15:05:58.000Z</time>
      </trkpt>
      <trkpt lat="45.58764" lon="6.64048">
        <ele>1839.8000488281</ele>
        <time>2019-12-30T15:06:01.000Z</time>
      </trkpt>
      <trkpt lat="45.58761" lon="6.6405">
        <ele>1840.5999755859</ele>
        <time>2019-12-30T15:06:05.000Z</time>
      </trkpt>
      <trkpt lat="45.58759" lon="6.64051">
        <ele>1841</ele>
        <time>2019-12-30T15:06:08.000Z</time>
      </trkpt>
      <trkpt lat="45.58758" lon="6.64052">
        <ele>1841.4000244141</ele>
        <time>2019-12-30T15:06:10.000Z</time>
      </trkpt>
      <trkpt lat="45.58754" lon="6.64053">
        <ele>1842</ele>
        <time>2019-12-30T15:06:16.000Z</time>
      </trkpt>
      <trkpt lat="45.58754" lon="6.64053">
        <ele>1842.1999511719</ele>
        <time>2019-12-30T15:06:17.000Z</time>
      </trkpt>
      <trkpt lat="45.5875" lon="6.64053">
        <ele>1843</ele>
        <time>2019-12-30T15:06:22.000Z</time>
      </trkpt>
      <trkpt lat="45.58748" lon="6.64054">
        <ele>1843.4000244141</ele>
        <time>2019-12-30T15:06:25.000Z</time>
      </trkpt>
      <trkpt lat="45.58744" lon="6.64056">
        <ele>1844.1999511719</ele>
        <time>2019-12-30T15:06:30.000Z</time>
      </trkpt>
      <trkpt lat="45.58743" lon="6.64056">
        <ele>1844.1999511719</ele>
        <time>2019-12-30T15:06:31.000Z</time>
      </trkpt>
      <trkpt lat="45.58739" lon="6.64059">
        <ele>1844.5999755859</ele>
        <time>2019-12-30T15:06:38.000Z</time>
      </trkpt>
      <trkpt lat="45.58733" lon="6.64062">
        <ele>1845.1999511719</ele>
        <time>2019-12-30T15:06:44.000Z</time>
      </trkpt>
      <trkpt lat="45.58727" lon="6.64062">
        <ele>1845.5999755859</ele>
        <time>2019-12-30T15:06:51.000Z</time>
      </trkpt>
      <trkpt lat="45.58722" lon="6.64061">
        <ele>1846.1999511719</ele>
        <time>2019-12-30T15:06:57.000Z</time>
      </trkpt>
      <trkpt lat="45.58721" lon="6.64061">
        <ele>1846.1999511719</ele>
        <time>2019-12-30T15:06:58.000Z</time>
      </trkpt>
      <trkpt lat="45.58719" lon="6.64061">
        <ele>1847</ele>
        <time>2019-12-30T15:07:03.000Z</time>
      </trkpt>
      <trkpt lat="45.58718" lon="6.64062">
        <ele>1847.4000244141</ele>
        <time>2019-12-30T15:07:05.000Z</time>
      </trkpt>
      <trkpt lat="45.58714" lon="6.64063">
        <ele>1848.4000244141</ele>
        <time>2019-12-30T15:07:10.000Z</time>
      </trkpt>
      <trkpt lat="45.58713" lon="6.64063">
        <ele>1848.4000244141</ele>
        <time>2019-12-30T15:07:12.000Z</time>
      </trkpt>
      <trkpt lat="45.58712" lon="6.64063">
        <ele>1848.5999755859</ele>
        <time>2019-12-30T15:07:13.000Z</time>
      </trkpt>
      <trkpt lat="45.58709" lon="6.64065">
        <ele>1849.5999755859</ele>
        <time>2019-12-30T15:07:18.000Z</time>
      </trkpt>
      <trkpt lat="45.58708" lon="6.64066">
        <ele>1849.8000488281</ele>
        <time>2019-12-30T15:07:20.000Z</time>
      </trkpt>
      <trkpt lat="45.58703" lon="6.64068">
        <ele>1850.1999511719</ele>
        <time>2019-12-30T15:07:28.000Z</time>
      </trkpt>
      <trkpt lat="45.58701" lon="6.64069">
        <ele>1850.5999755859</ele>
        <time>2019-12-30T15:07:31.000Z</time>
      </trkpt>
      <trkpt lat="45.58701" lon="6.64069">
        <ele>1851</ele>
        <time>2019-12-30T15:07:36.000Z</time>
      </trkpt>
      <trkpt lat="45.587" lon="6.64069">
        <ele>1851.1999511719</ele>
        <time>2019-12-30T15:07:48.000Z</time>
      </trkpt>
      <trkpt lat="45.58701" lon="6.64069">
        <ele>1851.8000488281</ele>
        <time>2019-12-30T15:07:51.000Z</time>
      </trkpt>
      <trkpt lat="45.58702" lon="6.64067">
        <ele>1852</ele>
        <time>2019-12-30T15:07:55.000Z</time>
      </trkpt>
      <trkpt lat="45.58703" lon="6.64061">
        <ele>1852.4000244141</ele>
        <time>2019-12-30T15:08:02.000Z</time>
      </trkpt>
      <trkpt lat="45.58703" lon="6.6406">
        <ele>1852.8000488281</ele>
        <time>2019-12-30T15:08:03.000Z</time>
      </trkpt>
      <trkpt lat="45.58704" lon="6.64056">
        <ele>1853.5999755859</ele>
        <time>2019-12-30T15:08:09.000Z</time>
      </trkpt>
      <trkpt lat="45.58702" lon="6.64057">
        <ele>1854</ele>
        <time>2019-12-30T15:08:11.000Z</time>
      </trkpt>
      <trkpt lat="45.587" lon="6.64057">
        <ele>1854.5999755859</ele>
        <time>2019-12-30T15:08:15.000Z</time>
      </trkpt>
      <trkpt lat="45.58699" lon="6.64057">
        <ele>1855</ele>
        <time>2019-12-30T15:08:17.000Z</time>
      </trkpt>
      <trkpt lat="45.58699" lon="6.64057">
        <ele>1855.4000244141</ele>
        <time>2019-12-30T15:08:20.000Z</time>
      </trkpt>
      <trkpt lat="45.58694" lon="6.64058">
        <ele>1856</ele>
        <time>2019-12-30T15:08:27.000Z</time>
      </trkpt>
      <trkpt lat="45.58694" lon="6.64058">
        <ele>1856</ele>
        <time>2019-12-30T15:08:28.000Z</time>
      </trkpt>
      <trkpt lat="45.5869" lon="6.6406">
        <ele>1857.1999511719</ele>
        <time>2019-12-30T15:08:35.000Z</time>
      </trkpt>
      <trkpt lat="45.58689" lon="6.64061">
        <ele>1857.4000244141</ele>
        <time>2019-12-30T15:08:36.000Z</time>
      </trkpt>
      <trkpt lat="45.58686" lon="6.64062">
        <ele>1858.1999511719</ele>
        <time>2019-12-30T15:08:41.000Z</time>
      </trkpt>
      <trkpt lat="45.58684" lon="6.64063">
        <ele>1858.5999755859</ele>
        <time>2019-12-30T15:08:43.000Z</time>
      </trkpt>
      <trkpt lat="45.58683" lon="6.64062">
        <ele>1859.4000244141</ele>
        <time>2019-12-30T15:08:48.000Z</time>
      </trkpt>
      <trkpt lat="45.58683" lon="6.64062">
        <ele>1859.5999755859</ele>
        <time>2019-12-30T15:08:50.000Z</time>
      </trkpt>
      <trkpt lat="45.58683" lon="6.64062">
        <ele>1860</ele>
        <time>2019-12-30T15:09:01.000Z</time>
      </trkpt>
      <trkpt lat="45.58683" lon="6.64062">
        <ele>1859.8000488281</ele>
        <time>2019-12-30T15:09:18.000Z</time>
      </trkpt>
      <trkpt lat="45.58682" lon="6.64062">
        <ele>1859.8000488281</ele>
        <time>2019-12-30T15:09:35.000Z</time>
      </trkpt>
      <trkpt lat="45.58682" lon="6.64062">
        <ele>1860</ele>
        <time>2019-12-30T15:09:51.000Z</time>
      </trkpt>
      <trkpt lat="45.58682" lon="6.64062">
        <ele>1860</ele>
        <time>2019-12-30T15:10:01.000Z</time>
      </trkpt>
      <trkpt lat="45.58683" lon="6.64062">
        <ele>1859.8000488281</ele>
        <time>2019-12-30T15:10:19.000Z</time>
      </trkpt>
      <trkpt lat="45.58683" lon="6.6406">
        <ele>1860</ele>
        <time>2019-12-30T15:10:28.000Z</time>
      </trkpt>
      <trkpt lat="45.58682" lon="6.64058">
        <ele>1860.4000244141</ele>
        <time>2019-12-30T15:10:31.000Z</time>
      </trkpt>
      <trkpt lat="45.58682" lon="6.64057">
        <ele>1860.5999755859</ele>
        <time>2019-12-30T15:10:34.000Z</time>
      </trkpt>
      <trkpt lat="45.58682" lon="6.64052">
        <ele>1861.5999755859</ele>
        <time>2019-12-30T15:10:41.000Z</time>
      </trkpt>
      <trkpt lat="45.58682" lon="6.6405">
        <ele>1861.8000488281</ele>
        <time>2019-12-30T15:10:43.000Z</time>
      </trkpt>
      <trkpt lat="45.58682" lon="6.64049">
        <ele>1862.5999755859</ele>
        <time>2019-12-30T15:10:51.000Z</time>
      </trkpt>
      <trkpt lat="45.58683" lon="6.64048">
        <ele>1862.5999755859</ele>
        <time>2019-12-30T15:10:52.000Z</time>
      </trkpt>
      <trkpt lat="45.58683" lon="6.64047">
        <ele>1863.1999511719</ele>
        <time>2019-12-30T15:11:00.000Z</time>
      </trkpt>
      <trkpt lat="45.58683" lon="6.64047">
        <ele>1863.5999755859</ele>
        <time>2019-12-30T15:11:02.000Z</time>
      </trkpt>
      <trkpt lat="45.58681" lon="6.64047">
        <ele>1864</ele>
        <time>2019-12-30T15:11:11.000Z</time>
      </trkpt>
      <trkpt lat="45.58676" lon="6.64047">
        <ele>1864.5999755859</ele>
        <time>2019-12-30T15:11:17.000Z</time>
      </trkpt>
      <trkpt lat="45.58675" lon="6.64047">
        <ele>1864.8000488281</ele>
        <time>2019-12-30T15:11:18.000Z</time>
      </trkpt>
      <trkpt lat="45.58671" lon="6.64048">
        <ele>1865.5999755859</ele>
        <time>2019-12-30T15:11:24.000Z</time>
      </trkpt>
      <trkpt lat="45.5867" lon="6.64049">
        <ele>1865.8000488281</ele>
        <time>2019-12-30T15:11:25.000Z</time>
      </trkpt>
      <trkpt lat="45.58667" lon="6.64049">
        <ele>1866.4000244141</ele>
        <time>2019-12-30T15:11:30.000Z</time>
      </trkpt>
      <trkpt lat="45.58667" lon="6.64049">
        <ele>1866.8000488281</ele>
        <time>2019-12-30T15:11:32.000Z</time>
      </trkpt>
      <trkpt lat="45.58666" lon="6.64049">
        <ele>1867.1999511719</ele>
        <time>2019-12-30T15:11:36.000Z</time>
      </trkpt>
      <trkpt lat="45.58665" lon="6.64047">
        <ele>1868</ele>
        <time>2019-12-30T15:11:39.000Z</time>
      </trkpt>
      <trkpt lat="45.58666" lon="6.64046">
        <ele>1868.8000488281</ele>
        <time>2019-12-30T15:11:41.000Z</time>
      </trkpt>
      <trkpt lat="45.58666" lon="6.64045">
        <ele>1869</ele>
        <time>2019-12-30T15:11:42.000Z</time>
      </trkpt>
      <trkpt lat="45.58666" lon="6.64041">
        <ele>1869.8000488281</ele>
        <time>2019-12-30T15:11:47.000Z</time>
      </trkpt>
      <trkpt lat="45.58666" lon="6.6404">
        <ele>1870.1999511719</ele>
        <time>2019-12-30T15:11:51.000Z</time>
      </trkpt>
      <trkpt lat="45.58667" lon="6.64038">
        <ele>1870.5999755859</ele>
        <time>2019-12-30T15:11:54.000Z</time>
      </trkpt>
      <trkpt lat="45.58665" lon="6.64036">
        <ele>1871.1999511719</ele>
        <time>2019-12-30T15:12:01.000Z</time>
      </trkpt>
      <trkpt lat="45.58663" lon="6.64036">
        <ele>1871.4000244141</ele>
        <time>2019-12-30T15:12:03.000Z</time>
      </trkpt>
      <trkpt lat="45.58661" lon="6.64037">
        <ele>1872.1999511719</ele>
        <time>2019-12-30T15:12:08.000Z</time>
      </trkpt>
      <trkpt lat="45.5866" lon="6.64037">
        <ele>1872.4000244141</ele>
        <time>2019-12-30T15:12:10.000Z</time>
      </trkpt>
      <trkpt lat="45.58659" lon="6.64037">
        <ele>1873.1999511719</ele>
        <time>2019-12-30T15:12:14.000Z</time>
      </trkpt>
      <trkpt lat="45.58658" lon="6.64037">
        <ele>1873.4000244141</ele>
        <time>2019-12-30T15:12:16.000Z</time>
      </trkpt>
      <trkpt lat="45.58654" lon="6.64037">
        <ele>1874.4000244141</ele>
        <time>2019-12-30T15:12:22.000Z</time>
      </trkpt>
      <trkpt lat="45.58654" lon="6.64037">
        <ele>1874.4000244141</ele>
        <time>2019-12-30T15:12:23.000Z</time>
      </trkpt>
      <trkpt lat="45.58653" lon="6.64038">
        <ele>1874.8000488281</ele>
        <time>2019-12-30T15:12:26.000Z</time>
      </trkpt>
      <trkpt lat="45.58653" lon="6.64038">
        <ele>1875.5999755859</ele>
        <time>2019-12-30T15:12:29.000Z</time>
      </trkpt>
      <trkpt lat="45.58653" lon="6.64038">
        <ele>1875.8000488281</ele>
        <time>2019-12-30T15:12:34.000Z</time>
      </trkpt>
      <trkpt lat="45.5865" lon="6.64039">
        <ele>1875.5999755859</ele>
        <time>2019-12-30T15:12:41.000Z</time>
      </trkpt>
      <trkpt lat="45.58647" lon="6.64038">
        <ele>1876.4000244141</ele>
        <time>2019-12-30T15:12:44.000Z</time>
      </trkpt>
      <trkpt lat="45.58647" lon="6.64039">
        <ele>1876.5999755859</ele>
        <time>2019-12-30T15:12:45.000Z</time>
      </trkpt>
      <trkpt lat="45.58647" lon="6.64038">
        <ele>1876.8000488281</ele>
        <time>2019-12-30T15:12:46.000Z</time>
      </trkpt>
      <trkpt lat="45.58645" lon="6.64039">
        <ele>1877.1999511719</ele>
        <time>2019-12-30T15:12:50.000Z</time>
      </trkpt>
      <trkpt lat="45.58643" lon="6.64038">
        <ele>1877.5999755859</ele>
        <time>2019-12-30T15:12:52.000Z</time>
      </trkpt>
      <trkpt lat="45.58643" lon="6.64038">
        <ele>1877.8000488281</ele>
        <time>2019-12-30T15:12:54.000Z</time>
      </trkpt>
      <trkpt lat="45.5864" lon="6.64036">
        <ele>1878.5999755859</ele>
        <time>2019-12-30T15:12:59.000Z</time>
      </trkpt>
      <trkpt lat="45.5864" lon="6.64036">
        <ele>1878.8000488281</ele>
        <time>2019-12-30T15:13:00.000Z</time>
      </trkpt>
      <trkpt lat="45.58639" lon="6.64034">
        <ele>1879</ele>
        <time>2019-12-30T15:13:01.000Z</time>
      </trkpt>
      <trkpt lat="45.58639" lon="6.64033">
        <ele>1879</ele>
        <time>2019-12-30T15:13:03.000Z</time>
      </trkpt>
      <trkpt lat="45.58638" lon="6.6403">
        <ele>1879.5999755859</ele>
        <time>2019-12-30T15:13:08.000Z</time>
      </trkpt>
      <trkpt lat="45.58638" lon="6.64029">
        <ele>1879.8000488281</ele>
        <time>2019-12-30T15:13:09.000Z</time>
      </trkpt>
      <trkpt lat="45.58638" lon="6.64026">
        <ele>1881</ele>
        <time>2019-12-30T15:13:12.000Z</time>
      </trkpt>
      <trkpt lat="45.58638" lon="6.64025">
        <ele>1881.1999511719</ele>
        <time>2019-12-30T15:13:13.000Z</time>
      </trkpt>
      <trkpt lat="45.58638" lon="6.64022">
        <ele>1882</ele>
        <time>2019-12-30T15:13:17.000Z</time>
      </trkpt>
      <trkpt lat="45.58639" lon="6.64017">
        <ele>1883</ele>
        <time>2019-12-30T15:13:23.000Z</time>
      </trkpt>
      <trkpt lat="45.58639" lon="6.64016">
        <ele>1883.1999511719</ele>
        <time>2019-12-30T15:13:24.000Z</time>
      </trkpt>
      <trkpt lat="45.5864" lon="6.64013">
        <ele>1883.8000488281</ele>
        <time>2019-12-30T15:13:28.000Z</time>
      </trkpt>
      <trkpt lat="45.5864" lon="6.6401">
        <ele>1884.4000244141</ele>
        <time>2019-12-30T15:13:31.000Z</time>
      </trkpt>
      <trkpt lat="45.58641" lon="6.64009">
        <ele>1884.8000488281</ele>
        <time>2019-12-30T15:13:33.000Z</time>
      </trkpt>
      <trkpt lat="45.58642" lon="6.64008">
        <ele>1885.4000244141</ele>
        <time>2019-12-30T15:13:36.000Z</time>
      </trkpt>
      <trkpt lat="45.58642" lon="6.64007">
        <ele>1885.8000488281</ele>
        <time>2019-12-30T15:13:38.000Z</time>
      </trkpt>
      <trkpt lat="45.58643" lon="6.64003">
        <ele>1886.5999755859</ele>
        <time>2019-12-30T15:13:43.000Z</time>
      </trkpt>
      <trkpt lat="45.58644" lon="6.64002">
        <ele>1886.8000488281</ele>
        <time>2019-12-30T15:13:44.000Z</time>
      </trkpt>
      <trkpt lat="45.58644" lon="6.64001">
        <ele>1887</ele>
        <time>2019-12-30T15:13:45.000Z</time>
      </trkpt>
      <trkpt lat="45.58645" lon="6.63998">
        <ele>1887.5999755859</ele>
        <time>2019-12-30T15:13:49.000Z</time>
      </trkpt>
      <trkpt lat="45.58645" lon="6.63995">
        <ele>1888</ele>
        <time>2019-12-30T15:13:51.000Z</time>
      </trkpt>
      <trkpt lat="45.58646" lon="6.63989">
        <ele>1888.5999755859</ele>
        <time>2019-12-30T15:13:57.000Z</time>
      </trkpt>
      <trkpt lat="45.58647" lon="6.63984">
        <ele>1889.8000488281</ele>
        <time>2019-12-30T15:14:03.000Z</time>
      </trkpt>
      <trkpt lat="45.58647" lon="6.63983">
        <ele>1889.8000488281</ele>
        <time>2019-12-30T15:14:04.000Z</time>
      </trkpt>
      <trkpt lat="45.58649" lon="6.63981">
        <ele>1889.8000488281</ele>
        <time>2019-12-30T15:14:08.000Z</time>
      </trkpt>
      <trkpt lat="45.5865" lon="6.63976">
        <ele>1890.5999755859</ele>
        <time>2019-12-30T15:14:13.000Z</time>
      </trkpt>
      <trkpt lat="45.58651" lon="6.63975">
        <ele>1890.8000488281</ele>
        <time>2019-12-30T15:14:15.000Z</time>
      </trkpt>
      <trkpt lat="45.58651" lon="6.63973">
        <ele>1891.4000244141</ele>
        <time>2019-12-30T15:14:18.000Z</time>
      </trkpt>
      <trkpt lat="45.58653" lon="6.6397">
        <ele>1891.8000488281</ele>
        <time>2019-12-30T15:14:21.000Z</time>
      </trkpt>
      <trkpt lat="45.58653" lon="6.63969">
        <ele>1892.1999511719</ele>
        <time>2019-12-30T15:14:23.000Z</time>
      </trkpt>
      <trkpt lat="45.58654" lon="6.63967">
        <ele>1892.8000488281</ele>
        <time>2019-12-30T15:14:26.000Z</time>
      </trkpt>
      <trkpt lat="45.58655" lon="6.63965">
        <ele>1893.5999755859</ele>
        <time>2019-12-30T15:14:29.000Z</time>
      </trkpt>
      <trkpt lat="45.58658" lon="6.63963">
        <ele>1894</ele>
        <time>2019-12-30T15:14:32.000Z</time>
      </trkpt>
      <trkpt lat="45.58659" lon="6.63962">
        <ele>1894.4000244141</ele>
        <time>2019-12-30T15:14:35.000Z</time>
      </trkpt>
      <trkpt lat="45.58662" lon="6.6396">
        <ele>1895</ele>
        <time>2019-12-30T15:14:39.000Z</time>
      </trkpt>
      <trkpt lat="45.58662" lon="6.6396">
        <ele>1895.1999511719</ele>
        <time>2019-12-30T15:14:40.000Z</time>
      </trkpt>
      <trkpt lat="45.58665" lon="6.63957">
        <ele>1896</ele>
        <time>2019-12-30T15:14:46.000Z</time>
      </trkpt>
      <trkpt lat="45.58668" lon="6.63953">
        <ele>1897</ele>
        <time>2019-12-30T15:14:52.000Z</time>
      </trkpt>
      <trkpt lat="45.58669" lon="6.63953">
        <ele>1897.1999511719</ele>
        <time>2019-12-30T15:14:53.000Z</time>
      </trkpt>
      <trkpt lat="45.58671" lon="6.6395">
        <ele>1897.8000488281</ele>
        <time>2019-12-30T15:14:57.000Z</time>
      </trkpt>
      <trkpt lat="45.58673" lon="6.63948">
        <ele>1898.1999511719</ele>
        <time>2019-12-30T15:15:02.000Z</time>
      </trkpt>
      <trkpt lat="45.58674" lon="6.63947">
        <ele>1898.4000244141</ele>
        <time>2019-12-30T15:15:03.000Z</time>
      </trkpt>
      <trkpt lat="45.58673" lon="6.63945">
        <ele>1898.8000488281</ele>
        <time>2019-12-30T15:15:08.000Z</time>
      </trkpt>
      <trkpt lat="45.58671" lon="6.63945">
        <ele>1899.5999755859</ele>
        <time>2019-12-30T15:15:11.000Z</time>
      </trkpt>
      <trkpt lat="45.58671" lon="6.63944">
        <ele>1899.8000488281</ele>
        <time>2019-12-30T15:15:12.000Z</time>
      </trkpt>
      <trkpt lat="45.58668" lon="6.63944">
        <ele>1900.4000244141</ele>
        <time>2019-12-30T15:15:16.000Z</time>
      </trkpt>
      <trkpt lat="45.58667" lon="6.63944">
        <ele>1900.5999755859</ele>
        <time>2019-12-30T15:15:17.000Z</time>
      </trkpt>
      <trkpt lat="45.58665" lon="6.63945">
        <ele>1901</ele>
        <time>2019-12-30T15:15:20.000Z</time>
      </trkpt>
      <trkpt lat="45.58664" lon="6.63944">
        <ele>1901</ele>
        <time>2019-12-30T15:15:21.000Z</time>
      </trkpt>
      <trkpt lat="45.58663" lon="6.63944">
        <ele>1901</ele>
        <time>2019-12-30T15:15:24.000Z</time>
      </trkpt>
      <trkpt lat="45.5866" lon="6.63944">
        <ele>1901.5999755859</ele>
        <time>2019-12-30T15:15:29.000Z</time>
      </trkpt>
      <trkpt lat="45.58659" lon="6.63943">
        <ele>1901.8000488281</ele>
        <time>2019-12-30T15:15:30.000Z</time>
      </trkpt>
      <trkpt lat="45.58656" lon="6.63942">
        <ele>1902.4000244141</ele>
        <time>2019-12-30T15:15:34.000Z</time>
      </trkpt>
      <trkpt lat="45.58655" lon="6.63942">
        <ele>1902.8000488281</ele>
        <time>2019-12-30T15:15:36.000Z</time>
      </trkpt>
      <trkpt lat="45.58654" lon="6.63941">
        <ele>1902.8000488281</ele>
        <time>2019-12-30T15:15:37.000Z</time>
      </trkpt>
      <trkpt lat="45.58653" lon="6.63941">
        <ele>1903.5999755859</ele>
        <time>2019-12-30T15:15:41.000Z</time>
      </trkpt>
      <trkpt lat="45.58652" lon="6.63941">
        <ele>1903.8000488281</ele>
        <time>2019-12-30T15:15:43.000Z</time>
      </trkpt>
      <trkpt lat="45.58651" lon="6.63941">
        <ele>1904.4000244141</ele>
        <time>2019-12-30T15:15:46.000Z</time>
      </trkpt>
      <trkpt lat="45.5865" lon="6.6394">
        <ele>1905</ele>
        <time>2019-12-30T15:15:49.000Z</time>
      </trkpt>
      <trkpt lat="45.58649" lon="6.6394">
        <ele>1905.1999511719</ele>
        <time>2019-12-30T15:15:50.000Z</time>
      </trkpt>
      <trkpt lat="45.58646" lon="6.63941">
        <ele>1906</ele>
        <time>2019-12-30T15:15:56.000Z</time>
      </trkpt>
      <trkpt lat="45.58642" lon="6.6394">
        <ele>1906.5999755859</ele>
        <time>2019-12-30T15:16:01.000Z</time>
      </trkpt>
      <trkpt lat="45.5864" lon="6.6394">
        <ele>1907.1999511719</ele>
        <time>2019-12-30T15:16:04.000Z</time>
      </trkpt>
      <trkpt lat="45.58638" lon="6.6394">
        <ele>1907.5999755859</ele>
        <time>2019-12-30T15:16:07.000Z</time>
      </trkpt>
      <trkpt lat="45.58637" lon="6.63941">
        <ele>1908.1999511719</ele>
        <time>2019-12-30T15:16:10.000Z</time>
      </trkpt>
      <trkpt lat="45.58636" lon="6.63941">
        <ele>1908.5999755859</ele>
        <time>2019-12-30T15:16:11.000Z</time>
      </trkpt>
      <trkpt lat="45.58633" lon="6.63941">
        <ele>1909.4000244141</ele>
        <time>2019-12-30T15:16:16.000Z</time>
      </trkpt>
      <trkpt lat="45.58631" lon="6.63941">
        <ele>1909.8000488281</ele>
        <time>2019-12-30T15:16:20.000Z</time>
      </trkpt>
      <trkpt lat="45.58628" lon="6.63941">
        <ele>1910.4000244141</ele>
        <time>2019-12-30T15:16:24.000Z</time>
      </trkpt>
      <trkpt lat="45.58627" lon="6.6394">
        <ele>1910.5999755859</ele>
        <time>2019-12-30T15:16:25.000Z</time>
      </trkpt>
      <trkpt lat="45.58626" lon="6.6394">
        <ele>1911.5999755859</ele>
        <time>2019-12-30T15:16:28.000Z</time>
      </trkpt>
      <trkpt lat="45.58625" lon="6.6394">
        <ele>1911.5999755859</ele>
        <time>2019-12-30T15:16:29.000Z</time>
      </trkpt>
      <trkpt lat="45.58623" lon="6.63939">
        <ele>1912.1999511719</ele>
        <time>2019-12-30T15:16:34.000Z</time>
      </trkpt>
      <trkpt lat="45.58622" lon="6.63939">
        <ele>1912.5999755859</ele>
        <time>2019-12-30T15:16:36.000Z</time>
      </trkpt>
      <trkpt lat="45.5862" lon="6.63939">
        <ele>1912.8000488281</ele>
        <time>2019-12-30T15:16:38.000Z</time>
      </trkpt>
      <trkpt lat="45.58618" lon="6.63938">
        <ele>1913.5999755859</ele>
        <time>2019-12-30T15:16:42.000Z</time>
      </trkpt>
      <trkpt lat="45.58618" lon="6.63938">
        <ele>1913.5999755859</ele>
        <time>2019-12-30T15:16:43.000Z</time>
      </trkpt>
      <trkpt lat="45.58616" lon="6.63938">
        <ele>1914.1999511719</ele>
        <time>2019-12-30T15:16:46.000Z</time>
      </trkpt>
      <trkpt lat="45.58613" lon="6.63937">
        <ele>1914.5999755859</ele>
        <time>2019-12-30T15:16:49.000Z</time>
      </trkpt>
      <trkpt lat="45.58612" lon="6.63937">
        <ele>1914.8000488281</ele>
        <time>2019-12-30T15:16:50.000Z</time>
      </trkpt>
      <trkpt lat="45.5861" lon="6.63937">
        <ele>1915.4000244141</ele>
        <time>2019-12-30T15:16:52.000Z</time>
      </trkpt>
      <trkpt lat="45.58608" lon="6.63936">
        <ele>1915.8000488281</ele>
        <time>2019-12-30T15:16:55.000Z</time>
      </trkpt>
      <trkpt lat="45.58606" lon="6.63936">
        <ele>1915.8000488281</ele>
        <time>2019-12-30T15:16:56.000Z</time>
      </trkpt>
      <trkpt lat="45.58604" lon="6.63935">
        <ele>1916.1999511719</ele>
        <time>2019-12-30T15:16:59.000Z</time>
      </trkpt>
      <trkpt lat="45.58601" lon="6.63933">
        <ele>1916.4000244141</ele>
        <time>2019-12-30T15:17:03.000Z</time>
      </trkpt>
      <trkpt lat="45.58601" lon="6.63932">
        <ele>1916.8000488281</ele>
        <time>2019-12-30T15:17:04.000Z</time>
      </trkpt>
      <trkpt lat="45.58599" lon="6.63931">
        <ele>1917.8000488281</ele>
        <time>2019-12-30T15:17:08.000Z</time>
      </trkpt>
      <trkpt lat="45.58598" lon="6.63931">
        <ele>1917.8000488281</ele>
        <time>2019-12-30T15:17:09.000Z</time>
      </trkpt>
      <trkpt lat="45.58595" lon="6.63929">
        <ele>1918.4000244141</ele>
        <time>2019-12-30T15:17:14.000Z</time>
      </trkpt>
      <trkpt lat="45.58592" lon="6.63927">
        <ele>1919</ele>
        <time>2019-12-30T15:17:17.000Z</time>
      </trkpt>
      <trkpt lat="45.58592" lon="6.63926">
        <ele>1919</ele>
        <time>2019-12-30T15:17:18.000Z</time>
      </trkpt>
      <trkpt lat="45.58589" lon="6.63924">
        <ele>1920</ele>
        <time>2019-12-30T15:17:23.000Z</time>
      </trkpt>
      <trkpt lat="45.58586" lon="6.63922">
        <ele>1920.5999755859</ele>
        <time>2019-12-30T15:17:27.000Z</time>
      </trkpt>
      <trkpt lat="45.58583" lon="6.63918">
        <ele>1920.8000488281</ele>
        <time>2019-12-30T15:17:32.000Z</time>
      </trkpt>
      <trkpt lat="45.58581" lon="6.63916">
        <ele>1921.1999511719</ele>
        <time>2019-12-30T15:17:34.000Z</time>
      </trkpt>
      <trkpt lat="45.5858" lon="6.63915">
        <ele>1921.4000244141</ele>
        <time>2019-12-30T15:17:36.000Z</time>
      </trkpt>
      <trkpt lat="45.58579" lon="6.63914">
        <ele>1921.5999755859</ele>
        <time>2019-12-30T15:17:37.000Z</time>
      </trkpt>
      <trkpt lat="45.58575" lon="6.6391">
        <ele>1922.1999511719</ele>
        <time>2019-12-30T15:17:43.000Z</time>
      </trkpt>
      <trkpt lat="45.58575" lon="6.63908">
        <ele>1922.1999511719</ele>
        <time>2019-12-30T15:17:44.000Z</time>
      </trkpt>
      <trkpt lat="45.58574" lon="6.63907">
        <ele>1922.4000244141</ele>
        <time>2019-12-30T15:17:45.000Z</time>
      </trkpt>
      <trkpt lat="45.58572" lon="6.63905">
        <ele>1923</ele>
        <time>2019-12-30T15:17:48.000Z</time>
      </trkpt>
      <trkpt lat="45.58571" lon="6.63902">
        <ele>1923.1999511719</ele>
        <time>2019-12-30T15:17:51.000Z</time>
      </trkpt>
      <trkpt lat="45.5857" lon="6.639">
        <ele>1923.5999755859</ele>
        <time>2019-12-30T15:17:53.000Z</time>
      </trkpt>
      <trkpt lat="45.58567" lon="6.63896">
        <ele>1924</ele>
        <time>2019-12-30T15:17:58.000Z</time>
      </trkpt>
      <trkpt lat="45.58564" lon="6.63892">
        <ele>1924.4000244141</ele>
        <time>2019-12-30T15:18:02.000Z</time>
      </trkpt>
      <trkpt lat="45.5856" lon="6.63888">
        <ele>1924.8000488281</ele>
        <time>2019-12-30T15:18:07.000Z</time>
      </trkpt>
      <trkpt lat="45.58558" lon="6.63884">
        <ele>1925</ele>
        <time>2019-12-30T15:18:12.000Z</time>
      </trkpt>
      <trkpt lat="45.58556" lon="6.63881">
        <ele>1925.5999755859</ele>
        <time>2019-12-30T15:18:16.000Z</time>
      </trkpt>
      <trkpt lat="45.58555" lon="6.63881">
        <ele>1925.8000488281</ele>
        <time>2019-12-30T15:18:17.000Z</time>
      </trkpt>
      <trkpt lat="45.58553" lon="6.63878">
        <ele>1926.4000244141</ele>
        <time>2019-12-30T15:18:22.000Z</time>
      </trkpt>
      <trkpt lat="45.58552" lon="6.63877">
        <ele>1926.5999755859</ele>
        <time>2019-12-30T15:18:23.000Z</time>
      </trkpt>
      <trkpt lat="45.58551" lon="6.63876">
        <ele>1927</ele>
        <time>2019-12-30T15:18:26.000Z</time>
      </trkpt>
      <trkpt lat="45.58549" lon="6.63875">
        <ele>1927.5999755859</ele>
        <time>2019-12-30T15:18:28.000Z</time>
      </trkpt>
      <trkpt lat="45.58547" lon="6.63874">
        <ele>1928</ele>
        <time>2019-12-30T15:18:31.000Z</time>
      </trkpt>
      <trkpt lat="45.58545" lon="6.63873">
        <ele>1928.8000488281</ele>
        <time>2019-12-30T15:18:35.000Z</time>
      </trkpt>
      <trkpt lat="45.58542" lon="6.63872">
        <ele>1929.8000488281</ele>
        <time>2019-12-30T15:18:40.000Z</time>
      </trkpt>
      <trkpt lat="45.58539" lon="6.63872">
        <ele>1930.5999755859</ele>
        <time>2019-12-30T15:18:44.000Z</time>
      </trkpt>
      <trkpt lat="45.58537" lon="6.63871">
        <ele>1930.8000488281</ele>
        <time>2019-12-30T15:18:48.000Z</time>
      </trkpt>
      <trkpt lat="45.58533" lon="6.63872">
        <ele>1931.8000488281</ele>
        <time>2019-12-30T15:18:53.000Z</time>
      </trkpt>
      <trkpt lat="45.58533" lon="6.63871">
        <ele>1932</ele>
        <time>2019-12-30T15:18:54.000Z</time>
      </trkpt>
      <trkpt lat="45.5853" lon="6.63871">
        <ele>1932.5999755859</ele>
        <time>2019-12-30T15:18:58.000Z</time>
      </trkpt>
      <trkpt lat="45.58526" lon="6.63872">
        <ele>1933</ele>
        <time>2019-12-30T15:19:02.000Z</time>
      </trkpt>
      <trkpt lat="45.58525" lon="6.63872">
        <ele>1933</ele>
        <time>2019-12-30T15:19:03.000Z</time>
      </trkpt>
      <trkpt lat="45.5852" lon="6.63869">
        <ele>1933.8000488281</ele>
        <time>2019-12-30T15:19:07.000Z</time>
      </trkpt>
      <trkpt lat="45.58518" lon="6.63867">
        <ele>1934.1999511719</ele>
        <time>2019-12-30T15:19:09.000Z</time>
      </trkpt>
      <trkpt lat="45.58516" lon="6.63865">
        <ele>1934.5999755859</ele>
        <time>2019-12-30T15:19:12.000Z</time>
      </trkpt>
      <trkpt lat="45.58511" lon="6.63862">
        <ele>1935</ele>
        <time>2019-12-30T15:19:16.000Z</time>
      </trkpt>
      <trkpt lat="45.58508" lon="6.63858">
        <ele>1935.4000244141</ele>
        <time>2019-12-30T15:19:19.000Z</time>
      </trkpt>
      <trkpt lat="45.58506" lon="6.63857">
        <ele>1935.8000488281</ele>
        <time>2019-12-30T15:19:21.000Z</time>
      </trkpt>
      <trkpt lat="45.58502" lon="6.63854">
        <ele>1936.4000244141</ele>
        <time>2019-12-30T15:19:25.000Z</time>
      </trkpt>
      <trkpt lat="45.58501" lon="6.63853">
        <ele>1936.8000488281</ele>
        <time>2019-12-30T15:19:27.000Z</time>
      </trkpt>
      <trkpt lat="45.58497" lon="6.63849">
        <ele>1937.4000244141</ele>
        <time>2019-12-30T15:19:31.000Z</time>
      </trkpt>
      <trkpt lat="45.58496" lon="6.63848">
        <ele>1937.8000488281</ele>
        <time>2019-12-30T15:19:32.000Z</time>
      </trkpt>
      <trkpt lat="45.58493" lon="6.63848">
        <ele>1938.5999755859</ele>
        <time>2019-12-30T15:19:35.000Z</time>
      </trkpt>
      <trkpt lat="45.58491" lon="6.63847">
        <ele>1939.1999511719</ele>
        <time>2019-12-30T15:19:37.000Z</time>
      </trkpt>
      <trkpt lat="45.58488" lon="6.63847">
        <ele>1939.5999755859</ele>
        <time>2019-12-30T15:19:40.000Z</time>
      </trkpt>
      <trkpt lat="45.58486" lon="6.63846">
        <ele>1939.8000488281</ele>
        <time>2019-12-30T15:19:41.000Z</time>
      </trkpt>
      <trkpt lat="45.58481" lon="6.63843">
        <ele>1940.5999755859</ele>
        <time>2019-12-30T15:19:46.000Z</time>
      </trkpt>
      <trkpt lat="45.58477" lon="6.63841">
        <ele>1941.4000244141</ele>
        <time>2019-12-30T15:19:50.000Z</time>
      </trkpt>
      <trkpt lat="45.58476" lon="6.6384">
        <ele>1941.5999755859</ele>
        <time>2019-12-30T15:19:51.000Z</time>
      </trkpt>
      <trkpt lat="45.58475" lon="6.63839">
        <ele>1941.8000488281</ele>
        <time>2019-12-30T15:19:52.000Z</time>
      </trkpt>
      <trkpt lat="45.58472" lon="6.63835">
        <ele>1942.4000244141</ele>
        <time>2019-12-30T15:19:56.000Z</time>
      </trkpt>
      <trkpt lat="45.58471" lon="6.63834">
        <ele>1943</ele>
        <time>2019-12-30T15:19:58.000Z</time>
      </trkpt>
      <trkpt lat="45.58468" lon="6.6383">
        <ele>1943.5999755859</ele>
        <time>2019-12-30T15:20:01.000Z</time>
      </trkpt>
      <trkpt lat="45.58466" lon="6.63827">
        <ele>1944</ele>
        <time>2019-12-30T15:20:04.000Z</time>
      </trkpt>
      <trkpt lat="45.58464" lon="6.63825">
        <ele>1944.5999755859</ele>
        <time>2019-12-30T15:20:06.000Z</time>
      </trkpt>
      <trkpt lat="45.58463" lon="6.63823">
        <ele>1945.1999511719</ele>
        <time>2019-12-30T15:20:08.000Z</time>
      </trkpt>
      <trkpt lat="45.58462" lon="6.6382">
        <ele>1945.5999755859</ele>
        <time>2019-12-30T15:20:11.000Z</time>
      </trkpt>
      <trkpt lat="45.58459" lon="6.63817">
        <ele>1945.8000488281</ele>
        <time>2019-12-30T15:20:16.000Z</time>
      </trkpt>
      <trkpt lat="45.58457" lon="6.63812">
        <ele>1946.4000244141</ele>
        <time>2019-12-30T15:20:20.000Z</time>
      </trkpt>
      <trkpt lat="45.58457" lon="6.63812">
        <ele>1946.5999755859</ele>
        <time>2019-12-30T15:20:21.000Z</time>
      </trkpt>
      <trkpt lat="45.58454" lon="6.63807">
        <ele>1947.1999511719</ele>
        <time>2019-12-30T15:20:26.000Z</time>
      </trkpt>
      <trkpt lat="45.58453" lon="6.63805">
        <ele>1947.5999755859</ele>
        <time>2019-12-30T15:20:28.000Z</time>
      </trkpt>
      <trkpt lat="45.58452" lon="6.63803">
        <ele>1948.1999511719</ele>
        <time>2019-12-30T15:20:31.000Z</time>
      </trkpt>
      <trkpt lat="45.58452" lon="6.63803">
        <ele>1948.8000488281</ele>
        <time>2019-12-30T15:20:35.000Z</time>
      </trkpt>
      <trkpt lat="45.5845" lon="6.63801">
        <ele>1948.5999755859</ele>
        <time>2019-12-30T15:20:42.000Z</time>
      </trkpt>
      <trkpt lat="45.58447" lon="6.63798">
        <ele>1948.5999755859</ele>
        <time>2019-12-30T15:20:46.000Z</time>
      </trkpt>
      <trkpt lat="45.58443" lon="6.63794">
        <ele>1949.4000244141</ele>
        <time>2019-12-30T15:20:51.000Z</time>
      </trkpt>
      <trkpt lat="45.5844" lon="6.63788">
        <ele>1949.8000488281</ele>
        <time>2019-12-30T15:20:56.000Z</time>
      </trkpt>
      <trkpt lat="45.58437" lon="6.63783">
        <ele>1950.4000244141</ele>
        <time>2019-12-30T15:21:02.000Z</time>
      </trkpt>
      <trkpt lat="45.58433" lon="6.63779">
        <ele>1950.8000488281</ele>
        <time>2019-12-30T15:21:08.000Z</time>
      </trkpt>
      <trkpt lat="45.58431" lon="6.63777">
        <ele>1951.8000488281</ele>
        <time>2019-12-30T15:21:13.000Z</time>
      </trkpt>
      <trkpt lat="45.5843" lon="6.63776">
        <ele>1951.8000488281</ele>
        <time>2019-12-30T15:21:14.000Z</time>
      </trkpt>
      <trkpt lat="45.58427" lon="6.63774">
        <ele>1952.4000244141</ele>
        <time>2019-12-30T15:21:18.000Z</time>
      </trkpt>
      <trkpt lat="45.58425" lon="6.63773">
        <ele>1952.8000488281</ele>
        <time>2019-12-30T15:21:24.000Z</time>
      </trkpt>
      <trkpt lat="45.58424" lon="6.63772">
        <ele>1953</ele>
        <time>2019-12-30T15:21:26.000Z</time>
      </trkpt>
      <trkpt lat="45.58423" lon="6.63771">
        <ele>1953</ele>
        <time>2019-12-30T15:21:27.000Z</time>
      </trkpt>
      <trkpt lat="45.58421" lon="6.6377">
        <ele>1953</ele>
        <time>2019-12-30T15:21:30.000Z</time>
      </trkpt>
      <trkpt lat="45.5842" lon="6.63769">
        <ele>1953.8000488281</ele>
        <time>2019-12-30T15:21:37.000Z</time>
      </trkpt>
      <trkpt lat="45.5842" lon="6.63769">
        <ele>1953.5999755859</ele>
        <time>2019-12-30T15:21:50.000Z</time>
      </trkpt>
      <trkpt lat="45.5842" lon="6.63769">
        <ele>1951.8000488281</ele>
        <time>2019-12-30T15:21:59.000Z</time>
      </trkpt>
      <trkpt lat="45.5842" lon="6.63769">
        <ele>1953.8000488281</ele>
        <time>2019-12-30T15:22:03.000Z</time>
      </trkpt>
      <trkpt lat="45.5842" lon="6.63769">
        <ele>1952.5999755859</ele>
        <time>2019-12-30T15:22:07.000Z</time>
      </trkpt>
      <trkpt lat="45.5842" lon="6.63769">
        <ele>1952.4000244141</ele>
        <time>2019-12-30T15:22:11.000Z</time>
      </trkpt>
      <trkpt lat="45.5842" lon="6.63769">
        <ele>1953.8000488281</ele>
        <time>2019-12-30T15:22:16.000Z</time>
      </trkpt>
      <trkpt lat="45.5842" lon="6.63769">
        <ele>1953.8000488281</ele>
        <time>2019-12-30T15:22:20.000Z</time>
      </trkpt>
      <trkpt lat="45.5842" lon="6.63769">
        <ele>1954.1999511719</ele>
        <time>2019-12-30T15:22:32.000Z</time>
      </trkpt>
      <trkpt lat="45.5842" lon="6.63769">
        <ele>1953.4000244141</ele>
        <time>2019-12-30T15:22:45.000Z</time>
      </trkpt>
      <trkpt lat="45.5842" lon="6.63769">
        <ele>1953.5999755859</ele>
        <time>2019-12-30T15:22:59.000Z</time>
      </trkpt>
      <trkpt lat="45.5842" lon="6.63769">
        <ele>1953.4000244141</ele>
        <time>2019-12-30T15:23:11.000Z</time>
      </trkpt>
      <trkpt lat="45.5842" lon="6.63769">
        <ele>1953.1999511719</ele>
        <time>2019-12-30T15:23:27.000Z</time>
      </trkpt>
      <trkpt lat="45.5842" lon="6.63769">
        <ele>1953.4000244141</ele>
        <time>2019-12-30T15:23:36.000Z</time>
      </trkpt>
      <trkpt lat="45.5842" lon="6.63769">
        <ele>1953.4000244141</ele>
        <time>2019-12-30T15:23:50.000Z</time>
      </trkpt>
      <trkpt lat="45.5842" lon="6.63769">
        <ele>1953.4000244141</ele>
        <time>2019-12-30T15:24:09.000Z</time>
      </trkpt>
      <trkpt lat="45.5842" lon="6.63769">
        <ele>1953.4000244141</ele>
        <time>2019-12-30T15:24:23.000Z</time>
      </trkpt>
      <trkpt lat="45.5842" lon="6.63769">
        <ele>1952.8000488281</ele>
        <time>2019-12-30T15:24:25.000Z</time>
      </trkpt>
      <trkpt lat="45.5842" lon="6.63769">
        <ele>1952.8000488281</ele>
        <time>2019-12-30T15:24:37.000Z</time>
      </trkpt>
      <trkpt lat="45.5842" lon="6.63769">
        <ele>1953.4000244141</ele>
        <time>2019-12-30T15:24:52.000Z</time>
      </trkpt>
      <trkpt lat="45.5842" lon="6.63769">
        <ele>1951.5999755859</ele>
        <time>2019-12-30T15:25:05.000Z</time>
      </trkpt>
      <trkpt lat="45.5842" lon="6.63769">
        <ele>1953</ele>
        <time>2019-12-30T15:25:10.000Z</time>
      </trkpt>
      <trkpt lat="45.5842" lon="6.63769">
        <ele>1954</ele>
        <time>2019-12-30T15:25:11.000Z</time>
      </trkpt>
      <trkpt lat="45.5842" lon="6.63769">
        <ele>1955</ele>
        <time>2019-12-30T15:25:14.000Z</time>
      </trkpt>
      <trkpt lat="45.5842" lon="6.63769">
        <ele>1953.8000488281</ele>
        <time>2019-12-30T15:25:17.000Z</time>
      </trkpt>
      <trkpt lat="45.5842" lon="6.63769">
        <ele>1953.1999511719</ele>
        <time>2019-12-30T15:25:23.000Z</time>
      </trkpt>
      <trkpt lat="45.5842" lon="6.63769">
        <ele>1953.5999755859</ele>
        <time>2019-12-30T15:25:34.000Z</time>
      </trkpt>
      <trkpt lat="45.5842" lon="6.63769">
        <ele>1953.5999755859</ele>
        <time>2019-12-30T15:25:50.000Z</time>
      </trkpt>
      <trkpt lat="45.5842" lon="6.63769">
        <ele>1953.5999755859</ele>
        <time>2019-12-30T15:25:58.000Z</time>
      </trkpt>
      <trkpt lat="45.5842" lon="6.63769">
        <ele>1953.4000244141</ele>
        <time>2019-12-30T15:26:09.000Z</time>
      </trkpt>
      <trkpt lat="45.58421" lon="6.63769">
        <ele>1953.5999755859</ele>
        <time>2019-12-30T15:26:19.000Z</time>
      </trkpt>
      <trkpt lat="45.58421" lon="6.63769">
        <ele>1953.5999755859</ele>
        <time>2019-12-30T15:26:34.000Z</time>
      </trkpt>
      <trkpt lat="45.58421" lon="6.63769">
        <ele>1953.5999755859</ele>
        <time>2019-12-30T15:26:42.000Z</time>
      </trkpt>
      <trkpt lat="45.58421" lon="6.63769">
        <ele>1953.8000488281</ele>
        <time>2019-12-30T15:26:54.000Z</time>
      </trkpt>
      <trkpt lat="45.58421" lon="6.63769">
        <ele>1953.5999755859</ele>
        <time>2019-12-30T15:27:10.000Z</time>
      </trkpt>
      <trkpt lat="45.58421" lon="6.63769">
        <ele>1952.5999755859</ele>
        <time>2019-12-30T15:27:18.000Z</time>
      </trkpt>
      <trkpt lat="45.58421" lon="6.63769">
        <ele>1952.5999755859</ele>
        <time>2019-12-30T15:27:22.000Z</time>
      </trkpt>
      <trkpt lat="45.58421" lon="6.63769">
        <ele>1954.1999511719</ele>
        <time>2019-12-30T15:27:25.000Z</time>
      </trkpt>
      <trkpt lat="45.58421" lon="6.63769">
        <ele>1953.5999755859</ele>
        <time>2019-12-30T15:27:39.000Z</time>
      </trkpt>
      <trkpt lat="45.58421" lon="6.63769">
        <ele>1953.5999755859</ele>
        <time>2019-12-30T15:27:56.000Z</time>
      </trkpt>
      <trkpt lat="45.58421" lon="6.63769">
        <ele>1953.8000488281</ele>
        <time>2019-12-30T15:28:07.000Z</time>
      </trkpt>
      <trkpt lat="45.58421" lon="6.63769">
        <ele>1953.8000488281</ele>
        <time>2019-12-30T15:28:20.000Z</time>
      </trkpt>
      <trkpt lat="45.58421" lon="6.63769">
        <ele>1953.8000488281</ele>
        <time>2019-12-30T15:28:33.000Z</time>
      </trkpt>
      <trkpt lat="45.58421" lon="6.63769">
        <ele>1953.8000488281</ele>
        <time>2019-12-30T15:28:48.000Z</time>
      </trkpt>
      <trkpt lat="45.58421" lon="6.63769">
        <ele>1953.8000488281</ele>
        <time>2019-12-30T15:29:00.000Z</time>
      </trkpt>
      <trkpt lat="45.58419" lon="6.63769">
        <ele>1953.8000488281</ele>
        <time>2019-12-30T15:29:08.000Z</time>
      </trkpt>
      <trkpt lat="45.58417" lon="6.63768">
        <ele>1953.5999755859</ele>
        <time>2019-12-30T15:29:19.000Z</time>
      </trkpt>
      <trkpt lat="45.58414" lon="6.63778">
        <ele>1953.4000244141</ele>
        <time>2019-12-30T15:29:25.000Z</time>
      </trkpt>
      <trkpt lat="45.58416" lon="6.63793">
        <ele>1953</ele>
        <time>2019-12-30T15:29:28.000Z</time>
      </trkpt>
      <trkpt lat="45.58408" lon="6.63796">
        <ele>1951.5999755859</ele>
        <time>2019-12-30T15:29:30.000Z</time>
      </trkpt>
      <trkpt lat="45.58406" lon="6.63801">
        <ele>1950.1999511719</ele>
        <time>2019-12-30T15:29:31.000Z</time>
      </trkpt>
      <trkpt lat="45.58403" lon="6.63806">
        <ele>1949.1999511719</ele>
        <time>2019-12-30T15:29:32.000Z</time>
      </trkpt>
      <trkpt lat="45.58401" lon="6.63813">
        <ele>1948.4000244141</ele>
        <time>2019-12-30T15:29:33.000Z</time>
      </trkpt>
      <trkpt lat="45.584" lon="6.63819">
        <ele>1947.5999755859</ele>
        <time>2019-12-30T15:29:34.000Z</time>
      </trkpt>
      <trkpt lat="45.58397" lon="6.63821">
        <ele>1945.1999511719</ele>
        <time>2019-12-30T15:29:36.000Z</time>
      </trkpt>
      <trkpt lat="45.58395" lon="6.6382">
        <ele>1943.5999755859</ele>
        <time>2019-12-30T15:29:37.000Z</time>
      </trkpt>
      <trkpt lat="45.58392" lon="6.63817">
        <ele>1941.8000488281</ele>
        <time>2019-12-30T15:29:38.000Z</time>
      </trkpt>
      <trkpt lat="45.58387" lon="6.63814">
        <ele>1940.1999511719</ele>
        <time>2019-12-30T15:29:39.000Z</time>
      </trkpt>
      <trkpt lat="45.58383" lon="6.63812">
        <ele>1938.5999755859</ele>
        <time>2019-12-30T15:29:40.000Z</time>
      </trkpt>
      <trkpt lat="45.5838" lon="6.63813">
        <ele>1937.1999511719</ele>
        <time>2019-12-30T15:29:41.000Z</time>
      </trkpt>
      <trkpt lat="45.58379" lon="6.63816">
        <ele>1934.5999755859</ele>
        <time>2019-12-30T15:29:42.000Z</time>
      </trkpt>
      <trkpt lat="45.58383" lon="6.63825">
        <ele>1932.8000488281</ele>
        <time>2019-12-30T15:29:44.000Z</time>
      </trkpt>
      <trkpt lat="45.58383" lon="6.63827">
        <ele>1931.5999755859</ele>
        <time>2019-12-30T15:29:45.000Z</time>
      </trkpt>
      <trkpt lat="45.58383" lon="6.6383">
        <ele>1930.1999511719</ele>
        <time>2019-12-30T15:29:46.000Z</time>
      </trkpt>
      <trkpt lat="45.58381" lon="6.63833">
        <ele>1928.8000488281</ele>
        <time>2019-12-30T15:29:47.000Z</time>
      </trkpt>
      <trkpt lat="45.58377" lon="6.63834">
        <ele>1927.4000244141</ele>
        <time>2019-12-30T15:29:48.000Z</time>
      </trkpt>
      <trkpt lat="45.58371" lon="6.63832">
        <ele>1926</ele>
        <time>2019-12-30T15:29:49.000Z</time>
      </trkpt>
      <trkpt lat="45.58365" lon="6.6383">
        <ele>1924.8000488281</ele>
        <time>2019-12-30T15:29:50.000Z</time>
      </trkpt>
      <trkpt lat="45.5836" lon="6.63827">
        <ele>1923.5999755859</ele>
        <time>2019-12-30T15:29:51.000Z</time>
      </trkpt>
      <trkpt lat="45.58351" lon="6.63822">
        <ele>1921.5999755859</ele>
        <time>2019-12-30T15:29:53.000Z</time>
      </trkpt>
      <trkpt lat="45.58349" lon="6.63824">
        <ele>1920.4000244141</ele>
        <time>2019-12-30T15:29:54.000Z</time>
      </trkpt>
      <trkpt lat="45.58347" lon="6.6383">
        <ele>1919.1999511719</ele>
        <time>2019-12-30T15:29:55.000Z</time>
      </trkpt>
      <trkpt lat="45.58342" lon="6.63841">
        <ele>1918</ele>
        <time>2019-12-30T15:29:57.000Z</time>
      </trkpt>
      <trkpt lat="45.58337" lon="6.63855">
        <ele>1917</ele>
        <time>2019-12-30T15:29:59.000Z</time>
      </trkpt>
      <trkpt lat="45.58332" lon="6.63869">
        <ele>1914.8000488281</ele>
        <time>2019-12-30T15:30:01.000Z</time>
      </trkpt>
      <trkpt lat="45.58331" lon="6.63878">
        <ele>1913.8000488281</ele>
        <time>2019-12-30T15:30:02.000Z</time>
      </trkpt>
      <trkpt lat="45.58332" lon="6.63882">
        <ele>1912.4000244141</ele>
        <time>2019-12-30T15:30:03.000Z</time>
      </trkpt>
      <trkpt lat="45.58332" lon="6.63888">
        <ele>1911</ele>
        <time>2019-12-30T15:30:04.000Z</time>
      </trkpt>
      <trkpt lat="45.58332" lon="6.63894">
        <ele>1909.5999755859</ele>
        <time>2019-12-30T15:30:05.000Z</time>
      </trkpt>
      <trkpt lat="45.5833" lon="6.63899">
        <ele>1906.4000244141</ele>
        <time>2019-12-30T15:30:06.000Z</time>
      </trkpt>
      <trkpt lat="45.58327" lon="6.63905">
        <ele>1904.8000488281</ele>
        <time>2019-12-30T15:30:07.000Z</time>
      </trkpt>
      <trkpt lat="45.58326" lon="6.63911">
        <ele>1903</ele>
        <time>2019-12-30T15:30:08.000Z</time>
      </trkpt>
      <trkpt lat="45.58324" lon="6.63916">
        <ele>1901.5999755859</ele>
        <time>2019-12-30T15:30:09.000Z</time>
      </trkpt>
      <trkpt lat="45.5832" lon="6.6392">
        <ele>1900.1999511719</ele>
        <time>2019-12-30T15:30:10.000Z</time>
      </trkpt>
      <trkpt lat="45.5832" lon="6.63924">
        <ele>1899</ele>
        <time>2019-12-30T15:30:11.000Z</time>
      </trkpt>
      <trkpt lat="45.5832" lon="6.63929">
        <ele>1897.4000244141</ele>
        <time>2019-12-30T15:30:12.000Z</time>
      </trkpt>
      <trkpt lat="45.58319" lon="6.63935">
        <ele>1895.8000488281</ele>
        <time>2019-12-30T15:30:13.000Z</time>
      </trkpt>
      <trkpt lat="45.58316" lon="6.6394">
        <ele>1894.4000244141</ele>
        <time>2019-12-30T15:30:14.000Z</time>
      </trkpt>
      <trkpt lat="45.58316" lon="6.63948">
        <ele>1893</ele>
        <time>2019-12-30T15:30:15.000Z</time>
      </trkpt>
      <trkpt lat="45.58317" lon="6.63953">
        <ele>1891.1999511719</ele>
        <time>2019-12-30T15:30:16.000Z</time>
      </trkpt>
      <trkpt lat="45.58314" lon="6.63959">
        <ele>1889.4000244141</ele>
        <time>2019-12-30T15:30:17.000Z</time>
      </trkpt>
      <trkpt lat="45.58315" lon="6.63964">
        <ele>1887.8000488281</ele>
        <time>2019-12-30T15:30:18.000Z</time>
      </trkpt>
      <trkpt lat="45.58314" lon="6.63969">
        <ele>1886</ele>
        <time>2019-12-30T15:30:19.000Z</time>
      </trkpt>
      <trkpt lat="45.58312" lon="6.63974">
        <ele>1884</ele>
        <time>2019-12-30T15:30:20.000Z</time>
      </trkpt>
      <trkpt lat="45.58308" lon="6.63979">
        <ele>1882</ele>
        <time>2019-12-30T15:30:21.000Z</time>
      </trkpt>
      <trkpt lat="45.58308" lon="6.63986">
        <ele>1880.5999755859</ele>
        <time>2019-12-30T15:30:22.000Z</time>
      </trkpt>
      <trkpt lat="45.58311" lon="6.63992">
        <ele>1879.1999511719</ele>
        <time>2019-12-30T15:30:23.000Z</time>
      </trkpt>
      <trkpt lat="45.58312" lon="6.63994">
        <ele>1878</ele>
        <time>2019-12-30T15:30:24.000Z</time>
      </trkpt>
      <trkpt lat="45.58312" lon="6.63996">
        <ele>1876.8000488281</ele>
        <time>2019-12-30T15:30:25.000Z</time>
      </trkpt>
      <trkpt lat="45.58311" lon="6.63996">
        <ele>1875.8000488281</ele>
        <time>2019-12-30T15:30:26.000Z</time>
      </trkpt>
      <trkpt lat="45.5831" lon="6.63996">
        <ele>1874.8000488281</ele>
        <time>2019-12-30T15:30:27.000Z</time>
      </trkpt>
      <trkpt lat="45.5831" lon="6.63996">
        <ele>1873.8000488281</ele>
        <time>2019-12-30T15:30:28.000Z</time>
      </trkpt>
      <trkpt lat="45.5831" lon="6.63996">
        <ele>1871.4000244141</ele>
        <time>2019-12-30T15:30:30.000Z</time>
      </trkpt>
      <trkpt lat="45.5831" lon="6.63996">
        <ele>1870.5999755859</ele>
        <time>2019-12-30T15:30:43.000Z</time>
      </trkpt>
      <trkpt lat="45.5831" lon="6.63998">
        <ele>1870.5999755859</ele>
        <time>2019-12-30T15:30:45.000Z</time>
      </trkpt>
      <trkpt lat="45.58308" lon="6.64006">
        <ele>1870.5999755859</ele>
        <time>2019-12-30T15:30:47.000Z</time>
      </trkpt>
      <trkpt lat="45.58302" lon="6.64016">
        <ele>1870.1999511719</ele>
        <time>2019-12-30T15:30:49.000Z</time>
      </trkpt>
      <trkpt lat="45.58308" lon="6.64025">
        <ele>1869</ele>
        <time>2019-12-30T15:30:51.000Z</time>
      </trkpt>
      <trkpt lat="45.58315" lon="6.64034">
        <ele>1867.8000488281</ele>
        <time>2019-12-30T15:30:53.000Z</time>
      </trkpt>
      <trkpt lat="45.58315" lon="6.6404">
        <ele>1866.1999511719</ele>
        <time>2019-12-30T15:30:54.000Z</time>
      </trkpt>
      <trkpt lat="45.58312" lon="6.64048">
        <ele>1865</ele>
        <time>2019-12-30T15:30:55.000Z</time>
      </trkpt>
      <trkpt lat="45.58306" lon="6.64053">
        <ele>1863.8000488281</ele>
        <time>2019-12-30T15:30:56.000Z</time>
      </trkpt>
      <trkpt lat="45.58301" lon="6.64059">
        <ele>1862.4000244141</ele>
        <time>2019-12-30T15:30:57.000Z</time>
      </trkpt>
      <trkpt lat="45.58301" lon="6.64065">
        <ele>1861</ele>
        <time>2019-12-30T15:30:58.000Z</time>
      </trkpt>
      <trkpt lat="45.58304" lon="6.64069">
        <ele>1859.4000244141</ele>
        <time>2019-12-30T15:30:59.000Z</time>
      </trkpt>
      <trkpt lat="45.58308" lon="6.64072">
        <ele>1857.8000488281</ele>
        <time>2019-12-30T15:31:00.000Z</time>
      </trkpt>
      <trkpt lat="45.58309" lon="6.64078">
        <ele>1856.4000244141</ele>
        <time>2019-12-30T15:31:01.000Z</time>
      </trkpt>
      <trkpt lat="45.58307" lon="6.64083">
        <ele>1855</ele>
        <time>2019-12-30T15:31:02.000Z</time>
      </trkpt>
      <trkpt lat="45.58304" lon="6.64088">
        <ele>1853.4000244141</ele>
        <time>2019-12-30T15:31:03.000Z</time>
      </trkpt>
      <trkpt lat="45.58304" lon="6.64094">
        <ele>1851.8000488281</ele>
        <time>2019-12-30T15:31:04.000Z</time>
      </trkpt>
      <trkpt lat="45.58307" lon="6.64097">
        <ele>1850.5999755859</ele>
        <time>2019-12-30T15:31:05.000Z</time>
      </trkpt>
      <trkpt lat="45.58314" lon="6.64103">
        <ele>1849.1999511719</ele>
        <time>2019-12-30T15:31:07.000Z</time>
      </trkpt>
      <trkpt lat="45.58315" lon="6.64109">
        <ele>1848.1999511719</ele>
        <time>2019-12-30T15:31:08.000Z</time>
      </trkpt>
      <trkpt lat="45.58312" lon="6.64115">
        <ele>1847</ele>
        <time>2019-12-30T15:31:09.000Z</time>
      </trkpt>
      <trkpt lat="45.58308" lon="6.64118">
        <ele>1845.5999755859</ele>
        <time>2019-12-30T15:31:10.000Z</time>
      </trkpt>
      <trkpt lat="45.58303" lon="6.64119">
        <ele>1844</ele>
        <time>2019-12-30T15:31:11.000Z</time>
      </trkpt>
      <trkpt lat="45.58303" lon="6.64124">
        <ele>1842.5999755859</ele>
        <time>2019-12-30T15:31:12.000Z</time>
      </trkpt>
      <trkpt lat="45.58305" lon="6.6413">
        <ele>1841.4000244141</ele>
        <time>2019-12-30T15:31:13.000Z</time>
      </trkpt>
      <trkpt lat="45.58308" lon="6.64133">
        <ele>1840.1999511719</ele>
        <time>2019-12-30T15:31:14.000Z</time>
      </trkpt>
      <trkpt lat="45.58315" lon="6.64138">
        <ele>1838.5999755859</ele>
        <time>2019-12-30T15:31:16.000Z</time>
      </trkpt>
      <trkpt lat="45.58317" lon="6.64141">
        <ele>1837.4000244141</ele>
        <time>2019-12-30T15:31:17.000Z</time>
      </trkpt>
      <trkpt lat="45.58316" lon="6.64144">
        <ele>1834.4000244141</ele>
        <time>2019-12-30T15:31:18.000Z</time>
      </trkpt>
      <trkpt lat="45.58312" lon="6.64148">
        <ele>1833</ele>
        <time>2019-12-30T15:31:19.000Z</time>
      </trkpt>
      <trkpt lat="45.58314" lon="6.64154">
        <ele>1831.4000244141</ele>
        <time>2019-12-30T15:31:20.000Z</time>
      </trkpt>
      <trkpt lat="45.58318" lon="6.64157">
        <ele>1829.8000488281</ele>
        <time>2019-12-30T15:31:21.000Z</time>
      </trkpt>
      <trkpt lat="45.58321" lon="6.6416">
        <ele>1828.8000488281</ele>
        <time>2019-12-30T15:31:22.000Z</time>
      </trkpt>
      <trkpt lat="45.58325" lon="6.64162">
        <ele>1827.1999511719</ele>
        <time>2019-12-30T15:31:24.000Z</time>
      </trkpt>
      <trkpt lat="45.58328" lon="6.64164">
        <ele>1825.8000488281</ele>
        <time>2019-12-30T15:31:25.000Z</time>
      </trkpt>
      <trkpt lat="45.58331" lon="6.64166">
        <ele>1824.1999511719</ele>
        <time>2019-12-30T15:31:26.000Z</time>
      </trkpt>
      <trkpt lat="45.58333" lon="6.64167">
        <ele>1822.8000488281</ele>
        <time>2019-12-30T15:31:27.000Z</time>
      </trkpt>
      <trkpt lat="45.58336" lon="6.64168">
        <ele>1821.5999755859</ele>
        <time>2019-12-30T15:31:28.000Z</time>
      </trkpt>
      <trkpt lat="45.58338" lon="6.6417">
        <ele>1820.8000488281</ele>
        <time>2019-12-30T15:31:29.000Z</time>
      </trkpt>
      <trkpt lat="45.58338" lon="6.64173">
        <ele>1819.8000488281</ele>
        <time>2019-12-30T15:31:30.000Z</time>
      </trkpt>
      <trkpt lat="45.58335" lon="6.64176">
        <ele>1819</ele>
        <time>2019-12-30T15:31:31.000Z</time>
      </trkpt>
      <trkpt lat="45.58331" lon="6.64176">
        <ele>1817.8000488281</ele>
        <time>2019-12-30T15:31:32.000Z</time>
      </trkpt>
      <trkpt lat="45.58328" lon="6.6418">
        <ele>1816.5999755859</ele>
        <time>2019-12-30T15:31:33.000Z</time>
      </trkpt>
      <trkpt lat="45.5833" lon="6.64184">
        <ele>1815.4000244141</ele>
        <time>2019-12-30T15:31:34.000Z</time>
      </trkpt>
      <trkpt lat="45.58336" lon="6.64188">
        <ele>1813.8000488281</ele>
        <time>2019-12-30T15:31:36.000Z</time>
      </trkpt>
      <trkpt lat="45.58338" lon="6.6419">
        <ele>1813.4000244141</ele>
        <time>2019-12-30T15:31:37.000Z</time>
      </trkpt>
      <trkpt lat="45.58342" lon="6.64191">
        <ele>1812.8000488281</ele>
        <time>2019-12-30T15:31:38.000Z</time>
      </trkpt>
      <trkpt lat="45.58346" lon="6.64196">
        <ele>1810.8000488281</ele>
        <time>2019-12-30T15:31:40.000Z</time>
      </trkpt>
      <trkpt lat="45.58344" lon="6.64201">
        <ele>1809.8000488281</ele>
        <time>2019-12-30T15:31:41.000Z</time>
      </trkpt>
      <trkpt lat="45.58341" lon="6.64205">
        <ele>1807.4000244141</ele>
        <time>2019-12-30T15:31:42.000Z</time>
      </trkpt>
      <trkpt lat="45.58338" lon="6.64208">
        <ele>1806.1999511719</ele>
        <time>2019-12-30T15:31:43.000Z</time>
      </trkpt>
      <trkpt lat="45.58337" lon="6.64211">
        <ele>1805</ele>
        <time>2019-12-30T15:31:44.000Z</time>
      </trkpt>
      <trkpt lat="45.58337" lon="6.64212">
        <ele>1803.5999755859</ele>
        <time>2019-12-30T15:31:46.000Z</time>
      </trkpt>
      <trkpt lat="45.58337" lon="6.64213">
        <ele>1803.1999511719</ele>
        <time>2019-12-30T15:31:47.000Z</time>
      </trkpt>
      <trkpt lat="45.58337" lon="6.64213">
        <ele>1802</ele>
        <time>2019-12-30T15:31:49.000Z</time>
      </trkpt>
      <trkpt lat="45.58337" lon="6.64213">
        <ele>1800.8000488281</ele>
        <time>2019-12-30T15:31:51.000Z</time>
      </trkpt>
      <trkpt lat="45.58337" lon="6.64213">
        <ele>1800</ele>
        <time>2019-12-30T15:31:58.000Z</time>
      </trkpt>
      <trkpt lat="45.58338" lon="6.64214">
        <ele>1800</ele>
        <time>2019-12-30T15:31:59.000Z</time>
      </trkpt>
      <trkpt lat="45.58343" lon="6.6422">
        <ele>1800</ele>
        <time>2019-12-30T15:32:01.000Z</time>
      </trkpt>
      <trkpt lat="45.58344" lon="6.64226">
        <ele>1799.8000488281</ele>
        <time>2019-12-30T15:32:03.000Z</time>
      </trkpt>
      <trkpt lat="45.58342" lon="6.64227">
        <ele>1799.5999755859</ele>
        <time>2019-12-30T15:32:04.000Z</time>
      </trkpt>
      <trkpt lat="45.58343" lon="6.64234">
        <ele>1797.1999511719</ele>
        <time>2019-12-30T15:32:06.000Z</time>
      </trkpt>
      <trkpt lat="45.58344" lon="6.64234">
        <ele>1796.5999755859</ele>
        <time>2019-12-30T15:32:07.000Z</time>
      </trkpt>
      <trkpt lat="45.58344" lon="6.64234">
        <ele>1795.8000488281</ele>
        <time>2019-12-30T15:32:09.000Z</time>
      </trkpt>
      <trkpt lat="45.58345" lon="6.64238">
        <ele>1794.4000244141</ele>
        <time>2019-12-30T15:32:11.000Z</time>
      </trkpt>
      <trkpt lat="45.58342" lon="6.64242">
        <ele>1792.8000488281</ele>
        <time>2019-12-30T15:32:13.000Z</time>
      </trkpt>
      <trkpt lat="45.58342" lon="6.64242">
        <ele>1792</ele>
        <time>2019-12-30T15:32:14.000Z</time>
      </trkpt>
      <trkpt lat="45.58341" lon="6.64242">
        <ele>1791.1999511719</ele>
        <time>2019-12-30T15:32:15.000Z</time>
      </trkpt>
      <trkpt lat="45.58341" lon="6.64242">
        <ele>1790.1999511719</ele>
        <time>2019-12-30T15:32:17.000Z</time>
      </trkpt>
      <trkpt lat="45.58341" lon="6.64241">
        <ele>1789</ele>
        <time>2019-12-30T15:32:20.000Z</time>
      </trkpt>
      <trkpt lat="45.5834" lon="6.64241">
        <ele>1789</ele>
        <time>2019-12-30T15:32:29.000Z</time>
      </trkpt>
      <trkpt lat="45.58339" lon="6.64238">
        <ele>1789.5999755859</ele>
        <time>2019-12-30T15:32:36.000Z</time>
      </trkpt>
      <trkpt lat="45.58338" lon="6.64239">
        <ele>1789.1999511719</ele>
        <time>2019-12-30T15:32:40.000Z</time>
      </trkpt>
      <trkpt lat="45.5834" lon="6.64241">
        <ele>1788.8000488281</ele>
        <time>2019-12-30T15:32:42.000Z</time>
      </trkpt>
      <trkpt lat="45.58338" lon="6.64255">
        <ele>1787.5999755859</ele>
        <time>2019-12-30T15:32:46.000Z</time>
      </trkpt>
      <trkpt lat="45.58335" lon="6.64256">
        <ele>1785.5999755859</ele>
        <time>2019-12-30T15:32:48.000Z</time>
      </trkpt>
      <trkpt lat="45.58333" lon="6.64255">
        <ele>1784.4000244141</ele>
        <time>2019-12-30T15:32:50.000Z</time>
      </trkpt>
      <trkpt lat="45.58333" lon="6.6426">
        <ele>1783.8000488281</ele>
        <time>2019-12-30T15:32:52.000Z</time>
      </trkpt>
      <trkpt lat="45.58333" lon="6.64263">
        <ele>1783</ele>
        <time>2019-12-30T15:32:54.000Z</time>
      </trkpt>
      <trkpt lat="45.58333" lon="6.64264">
        <ele>1781.1999511719</ele>
        <time>2019-12-30T15:32:55.000Z</time>
      </trkpt>
      <trkpt lat="45.58333" lon="6.64266">
        <ele>1780</ele>
        <time>2019-12-30T15:32:57.000Z</time>
      </trkpt>
      <trkpt lat="45.58333" lon="6.64269">
        <ele>1780.1999511719</ele>
        <time>2019-12-30T15:33:00.000Z</time>
      </trkpt>
      <trkpt lat="45.58333" lon="6.64271">
        <ele>1781.1999511719</ele>
        <time>2019-12-30T15:33:02.000Z</time>
      </trkpt>
      <trkpt lat="45.58332" lon="6.64273">
        <ele>1780.1999511719</ele>
        <time>2019-12-30T15:33:04.000Z</time>
      </trkpt>
      <trkpt lat="45.58331" lon="6.64272">
        <ele>1779.5999755859</ele>
        <time>2019-12-30T15:33:09.000Z</time>
      </trkpt>
      <trkpt lat="45.58331" lon="6.64276">
        <ele>1781</ele>
        <time>2019-12-30T15:33:15.000Z</time>
      </trkpt>
      <trkpt lat="45.58334" lon="6.64283">
        <ele>1780.8000488281</ele>
        <time>2019-12-30T15:33:16.000Z</time>
      </trkpt>
      <trkpt lat="45.58338" lon="6.6429">
        <ele>1779.5999755859</ele>
        <time>2019-12-30T15:33:18.000Z</time>
      </trkpt>
      <trkpt lat="45.58338" lon="6.6429">
        <ele>1778.5999755859</ele>
        <time>2019-12-30T15:33:19.000Z</time>
      </trkpt>
      <trkpt lat="45.58338" lon="6.6429">
        <ele>1777.1999511719</ele>
        <time>2019-12-30T15:33:20.000Z</time>
      </trkpt>
      <trkpt lat="45.58337" lon="6.6429">
        <ele>1776</ele>
        <time>2019-12-30T15:33:21.000Z</time>
      </trkpt>
      <trkpt lat="45.58336" lon="6.64291">
        <ele>1775</ele>
        <time>2019-12-30T15:33:22.000Z</time>
      </trkpt>
      <trkpt lat="45.58339" lon="6.64298">
        <ele>1773.5999755859</ele>
        <time>2019-12-30T15:33:24.000Z</time>
      </trkpt>
      <trkpt lat="45.58342" lon="6.643">
        <ele>1773</ele>
        <time>2019-12-30T15:33:25.000Z</time>
      </trkpt>
      <trkpt lat="45.58345" lon="6.64301">
        <ele>1772.1999511719</ele>
        <time>2019-12-30T15:33:27.000Z</time>
      </trkpt>
      <trkpt lat="45.58346" lon="6.64301">
        <ele>1771.5999755859</ele>
        <time>2019-12-30T15:33:28.000Z</time>
      </trkpt>
      <trkpt lat="45.58347" lon="6.64301">
        <ele>1771</ele>
        <time>2019-12-30T15:33:29.000Z</time>
      </trkpt>
      <trkpt lat="45.58346" lon="6.64301">
        <ele>1770</ele>
        <time>2019-12-30T15:33:31.000Z</time>
      </trkpt>
      <trkpt lat="45.58346" lon="6.64301">
        <ele>1769.1999511719</ele>
        <time>2019-12-30T15:33:34.000Z</time>
      </trkpt>
      <trkpt lat="45.58346" lon="6.643">
        <ele>1769</ele>
        <time>2019-12-30T15:33:36.000Z</time>
      </trkpt>
      <trkpt lat="45.58346" lon="6.64299">
        <ele>1768.5999755859</ele>
        <time>2019-12-30T15:33:41.000Z</time>
      </trkpt>
      <trkpt lat="45.58348" lon="6.64299">
        <ele>1768.1999511719</ele>
        <time>2019-12-30T15:33:47.000Z</time>
      </trkpt>
      <trkpt lat="45.58351" lon="6.643">
        <ele>1767.8000488281</ele>
        <time>2019-12-30T15:33:49.000Z</time>
      </trkpt>
      <trkpt lat="45.58356" lon="6.64302">
        <ele>1767</ele>
        <time>2019-12-30T15:33:52.000Z</time>
      </trkpt>
      <trkpt lat="45.58358" lon="6.64302">
        <ele>1766.5999755859</ele>
        <time>2019-12-30T15:33:54.000Z</time>
      </trkpt>
      <trkpt lat="45.58358" lon="6.64302">
        <ele>1766.1999511719</ele>
        <time>2019-12-30T15:33:57.000Z</time>
      </trkpt>
      <trkpt lat="45.5836" lon="6.64308">
        <ele>1765.8000488281</ele>
        <time>2019-12-30T15:33:58.000Z</time>
      </trkpt>
      <trkpt lat="45.58364" lon="6.64311">
        <ele>1765.4000244141</ele>
        <time>2019-12-30T15:33:59.000Z</time>
      </trkpt>
      <trkpt lat="45.58367" lon="6.64312">
        <ele>1764.5999755859</ele>
        <time>2019-12-30T15:34:02.000Z</time>
      </trkpt>
      <trkpt lat="45.58367" lon="6.64312">
        <ele>1764</ele>
        <time>2019-12-30T15:34:03.000Z</time>
      </trkpt>
      <trkpt lat="45.58367" lon="6.64316">
        <ele>1762.5999755859</ele>
        <time>2019-12-30T15:34:05.000Z</time>
      </trkpt>
      <trkpt lat="45.58366" lon="6.6432">
        <ele>1761.5999755859</ele>
        <time>2019-12-30T15:34:06.000Z</time>
      </trkpt>
      <trkpt lat="45.58367" lon="6.64326">
        <ele>1760.5999755859</ele>
        <time>2019-12-30T15:34:09.000Z</time>
      </trkpt>
      <trkpt lat="45.58368" lon="6.64327">
        <ele>1760.1999511719</ele>
        <time>2019-12-30T15:34:10.000Z</time>
      </trkpt>
      <trkpt lat="45.58368" lon="6.64327">
        <ele>1759</ele>
        <time>2019-12-30T15:34:12.000Z</time>
      </trkpt>
      <trkpt lat="45.58368" lon="6.64327">
        <ele>1757.4000244141</ele>
        <time>2019-12-30T15:34:14.000Z</time>
      </trkpt>
      <trkpt lat="45.58368" lon="6.64327">
        <ele>1756.5999755859</ele>
        <time>2019-12-30T15:34:17.000Z</time>
      </trkpt>
      <trkpt lat="45.5837" lon="6.64327">
        <ele>1756.5999755859</ele>
        <time>2019-12-30T15:34:24.000Z</time>
      </trkpt>
      <trkpt lat="45.58376" lon="6.64328">
        <ele>1756.5999755859</ele>
        <time>2019-12-30T15:34:30.000Z</time>
      </trkpt>
      <trkpt lat="45.58381" lon="6.64329">
        <ele>1756.5999755859</ele>
        <time>2019-12-30T15:34:35.000Z</time>
      </trkpt>
      <trkpt lat="45.58386" lon="6.64331">
        <ele>1756.4000244141</ele>
        <time>2019-12-30T15:34:37.000Z</time>
      </trkpt>
      <trkpt lat="45.58394" lon="6.64336">
        <ele>1756.1999511719</ele>
        <time>2019-12-30T15:34:39.000Z</time>
      </trkpt>
      <trkpt lat="45.58401" lon="6.64344">
        <ele>1755.4000244141</ele>
        <time>2019-12-30T15:34:41.000Z</time>
      </trkpt>
      <trkpt lat="45.58403" lon="6.64352">
        <ele>1754.1999511719</ele>
        <time>2019-12-30T15:34:43.000Z</time>
      </trkpt>
      <trkpt lat="45.584" lon="6.64355">
        <ele>1753.4000244141</ele>
        <time>2019-12-30T15:34:44.000Z</time>
      </trkpt>
      <trkpt lat="45.58397" lon="6.64355">
        <ele>1752.4000244141</ele>
        <time>2019-12-30T15:34:45.000Z</time>
      </trkpt>
      <trkpt lat="45.58395" lon="6.64354">
        <ele>1751.1999511719</ele>
        <time>2019-12-30T15:34:46.000Z</time>
      </trkpt>
      <trkpt lat="45.58393" lon="6.64353">
        <ele>1750</ele>
        <time>2019-12-30T15:34:47.000Z</time>
      </trkpt>
      <trkpt lat="45.58392" lon="6.64352">
        <ele>1748.8000488281</ele>
        <time>2019-12-30T15:34:48.000Z</time>
      </trkpt>
      <trkpt lat="45.58391" lon="6.64354">
        <ele>1747.8000488281</ele>
        <time>2019-12-30T15:34:49.000Z</time>
      </trkpt>
      <trkpt lat="45.58392" lon="6.64356">
        <ele>1747</ele>
        <time>2019-12-30T15:34:50.000Z</time>
      </trkpt>
      <trkpt lat="45.5839" lon="6.64363">
        <ele>1745.8000488281</ele>
        <time>2019-12-30T15:34:52.000Z</time>
      </trkpt>
      <trkpt lat="45.58387" lon="6.64366">
        <ele>1745.4000244141</ele>
        <time>2019-12-30T15:34:53.000Z</time>
      </trkpt>
      <trkpt lat="45.58382" lon="6.64368">
        <ele>1743.1999511719</ele>
        <time>2019-12-30T15:34:54.000Z</time>
      </trkpt>
      <trkpt lat="45.58378" lon="6.64369">
        <ele>1741.8000488281</ele>
        <time>2019-12-30T15:34:55.000Z</time>
      </trkpt>
      <trkpt lat="45.58374" lon="6.6437">
        <ele>1740.5999755859</ele>
        <time>2019-12-30T15:34:56.000Z</time>
      </trkpt>
      <trkpt lat="45.5837" lon="6.64371">
        <ele>1739.4000244141</ele>
        <time>2019-12-30T15:34:57.000Z</time>
      </trkpt>
      <trkpt lat="45.58366" lon="6.64371">
        <ele>1738.4000244141</ele>
        <time>2019-12-30T15:34:58.000Z</time>
      </trkpt>
      <trkpt lat="45.58361" lon="6.64372">
        <ele>1736.8000488281</ele>
        <time>2019-12-30T15:35:00.000Z</time>
      </trkpt>
      <trkpt lat="45.5836" lon="6.64374">
        <ele>1736.4000244141</ele>
        <time>2019-12-30T15:35:01.000Z</time>
      </trkpt>
      <trkpt lat="45.58364" lon="6.64385">
        <ele>1735.4000244141</ele>
        <time>2019-12-30T15:35:03.000Z</time>
      </trkpt>
      <trkpt lat="45.5837" lon="6.64393">
        <ele>1734.4000244141</ele>
        <time>2019-12-30T15:35:05.000Z</time>
      </trkpt>
      <trkpt lat="45.58372" lon="6.64399">
        <ele>1733.1999511719</ele>
        <time>2019-12-30T15:35:06.000Z</time>
      </trkpt>
      <trkpt lat="45.58369" lon="6.64405">
        <ele>1732</ele>
        <time>2019-12-30T15:35:07.000Z</time>
      </trkpt>
      <trkpt lat="45.58364" lon="6.6441">
        <ele>1730.4000244141</ele>
        <time>2019-12-30T15:35:08.000Z</time>
      </trkpt>
      <trkpt lat="45.5836" lon="6.64414">
        <ele>1728.8000488281</ele>
        <time>2019-12-30T15:35:09.000Z</time>
      </trkpt>
      <trkpt lat="45.58355" lon="6.64417">
        <ele>1727.4000244141</ele>
        <time>2019-12-30T15:35:10.000Z</time>
      </trkpt>
      <trkpt lat="45.58351" lon="6.64419">
        <ele>1726</ele>
        <time>2019-12-30T15:35:11.000Z</time>
      </trkpt>
      <trkpt lat="45.58346" lon="6.6442">
        <ele>1724.5999755859</ele>
        <time>2019-12-30T15:35:12.000Z</time>
      </trkpt>
      <trkpt lat="45.58342" lon="6.64424">
        <ele>1723.1999511719</ele>
        <time>2019-12-30T15:35:13.000Z</time>
      </trkpt>
      <trkpt lat="45.58343" lon="6.64428">
        <ele>1722</ele>
        <time>2019-12-30T15:35:14.000Z</time>
      </trkpt>
      <trkpt lat="45.58346" lon="6.64433">
        <ele>1720.8000488281</ele>
        <time>2019-12-30T15:35:15.000Z</time>
      </trkpt>
      <trkpt lat="45.58354" lon="6.64442">
        <ele>1719.1999511719</ele>
        <time>2019-12-30T15:35:17.000Z</time>
      </trkpt>
      <trkpt lat="45.58358" lon="6.64446">
        <ele>1717.4000244141</ele>
        <time>2019-12-30T15:35:18.000Z</time>
      </trkpt>
      <trkpt lat="45.58359" lon="6.64455">
        <ele>1716.4000244141</ele>
        <time>2019-12-30T15:35:19.000Z</time>
      </trkpt>
      <trkpt lat="45.58358" lon="6.64463">
        <ele>1715.1999511719</ele>
        <time>2019-12-30T15:35:20.000Z</time>
      </trkpt>
      <trkpt lat="45.58355" lon="6.64469">
        <ele>1714</ele>
        <time>2019-12-30T15:35:21.000Z</time>
      </trkpt>
      <trkpt lat="45.58351" lon="6.64472">
        <ele>1712.4000244141</ele>
        <time>2019-12-30T15:35:22.000Z</time>
      </trkpt>
      <trkpt lat="45.58347" lon="6.64469">
        <ele>1711</ele>
        <time>2019-12-30T15:35:23.000Z</time>
      </trkpt>
      <trkpt lat="45.58345" lon="6.64468">
        <ele>1709.4000244141</ele>
        <time>2019-12-30T15:35:24.000Z</time>
      </trkpt>
      <trkpt lat="45.58344" lon="6.64467">
        <ele>1708</ele>
        <time>2019-12-30T15:35:25.000Z</time>
      </trkpt>
      <trkpt lat="45.58342" lon="6.64465">
        <ele>1706.8000488281</ele>
        <time>2019-12-30T15:35:26.000Z</time>
      </trkpt>
      <trkpt lat="45.58339" lon="6.64465">
        <ele>1705.1999511719</ele>
        <time>2019-12-30T15:35:28.000Z</time>
      </trkpt>
      <trkpt lat="45.58334" lon="6.64465">
        <ele>1704.5999755859</ele>
        <time>2019-12-30T15:35:30.000Z</time>
      </trkpt>
      <trkpt lat="45.58331" lon="6.64464">
        <ele>1704</ele>
        <time>2019-12-30T15:35:32.000Z</time>
      </trkpt>
      <trkpt lat="45.58331" lon="6.64466">
        <ele>1703</ele>
        <time>2019-12-30T15:35:35.000Z</time>
      </trkpt>
      <trkpt lat="45.58337" lon="6.6447">
        <ele>1702.4000244141</ele>
        <time>2019-12-30T15:35:38.000Z</time>
      </trkpt>
      <trkpt lat="45.58337" lon="6.64469">
        <ele>1701.8000488281</ele>
        <time>2019-12-30T15:35:39.000Z</time>
      </trkpt>
      <trkpt lat="45.58337" lon="6.6447">
        <ele>1699.8000488281</ele>
        <time>2019-12-30T15:35:41.000Z</time>
      </trkpt>
      <trkpt lat="45.58339" lon="6.64474">
        <ele>1698</ele>
        <time>2019-12-30T15:35:42.000Z</time>
      </trkpt>
      <trkpt lat="45.58344" lon="6.64483">
        <ele>1696.8000488281</ele>
        <time>2019-12-30T15:35:44.000Z</time>
      </trkpt>
      <trkpt lat="45.58346" lon="6.64486">
        <ele>1696.1999511719</ele>
        <time>2019-12-30T15:35:45.000Z</time>
      </trkpt>
      <trkpt lat="45.58348" lon="6.64489">
        <ele>1695.5999755859</ele>
        <time>2019-12-30T15:35:46.000Z</time>
      </trkpt>
      <trkpt lat="45.58348" lon="6.6449">
        <ele>1693.8000488281</ele>
        <time>2019-12-30T15:35:48.000Z</time>
      </trkpt>
      <trkpt lat="45.58347" lon="6.64491">
        <ele>1693</ele>
        <time>2019-12-30T15:35:49.000Z</time>
      </trkpt>
      <trkpt lat="45.58347" lon="6.64493">
        <ele>1692.1999511719</ele>
        <time>2019-12-30T15:35:50.000Z</time>
      </trkpt>
      <trkpt lat="45.58341" lon="6.64499">
        <ele>1690.8000488281</ele>
        <time>2019-12-30T15:35:52.000Z</time>
      </trkpt>
      <trkpt lat="45.58331" lon="6.645">
        <ele>1689</ele>
        <time>2019-12-30T15:35:54.000Z</time>
      </trkpt>
      <trkpt lat="45.58327" lon="6.64499">
        <ele>1687.8000488281</ele>
        <time>2019-12-30T15:35:55.000Z</time>
      </trkpt>
      <trkpt lat="45.58324" lon="6.64499">
        <ele>1686.4000244141</ele>
        <time>2019-12-30T15:35:56.000Z</time>
      </trkpt>
      <trkpt lat="45.58321" lon="6.64499">
        <ele>1685.1999511719</ele>
        <time>2019-12-30T15:35:57.000Z</time>
      </trkpt>
      <trkpt lat="45.58319" lon="6.64499">
        <ele>1684</ele>
        <time>2019-12-30T15:35:58.000Z</time>
      </trkpt>
      <trkpt lat="45.58319" lon="6.645">
        <ele>1683</ele>
        <time>2019-12-30T15:35:59.000Z</time>
      </trkpt>
      <trkpt lat="45.58321" lon="6.64503">
        <ele>1682.1999511719</ele>
        <time>2019-12-30T15:36:00.000Z</time>
      </trkpt>
      <trkpt lat="45.58322" lon="6.64505">
        <ele>1681.5999755859</ele>
        <time>2019-12-30T15:36:01.000Z</time>
      </trkpt>
      <trkpt lat="45.58318" lon="6.64518">
        <ele>1680.1999511719</ele>
        <time>2019-12-30T15:36:04.000Z</time>
      </trkpt>
      <trkpt lat="45.58309" lon="6.64525">
        <ele>1676.1999511719</ele>
        <time>2019-12-30T15:36:06.000Z</time>
      </trkpt>
      <trkpt lat="45.58305" lon="6.64527">
        <ele>1675</ele>
        <time>2019-12-30T15:36:07.000Z</time>
      </trkpt>
      <trkpt lat="45.58302" lon="6.64527">
        <ele>1674.1999511719</ele>
        <time>2019-12-30T15:36:08.000Z</time>
      </trkpt>
      <trkpt lat="45.58299" lon="6.64527">
        <ele>1673.1999511719</ele>
        <time>2019-12-30T15:36:09.000Z</time>
      </trkpt>
      <trkpt lat="45.58295" lon="6.64528">
        <ele>1671.4000244141</ele>
        <time>2019-12-30T15:36:11.000Z</time>
      </trkpt>
      <trkpt lat="45.58293" lon="6.64531">
        <ele>1670.8000488281</ele>
        <time>2019-12-30T15:36:12.000Z</time>
      </trkpt>
      <trkpt lat="45.5829" lon="6.64534">
        <ele>1670.5999755859</ele>
        <time>2019-12-30T15:36:13.000Z</time>
      </trkpt>
      <trkpt lat="45.58285" lon="6.64537">
        <ele>1670.1999511719</ele>
        <time>2019-12-30T15:36:14.000Z</time>
      </trkpt>
      <trkpt lat="45.58277" lon="6.64538">
        <ele>1668.5999755859</ele>
        <time>2019-12-30T15:36:16.000Z</time>
      </trkpt>
      <trkpt lat="45.58275" lon="6.64539">
        <ele>1667.5999755859</ele>
        <time>2019-12-30T15:36:17.000Z</time>
      </trkpt>
      <trkpt lat="45.58279" lon="6.64547">
        <ele>1665.8000488281</ele>
        <time>2019-12-30T15:36:19.000Z</time>
      </trkpt>
      <trkpt lat="45.58275" lon="6.64558">
        <ele>1664.1999511719</ele>
        <time>2019-12-30T15:36:21.000Z</time>
      </trkpt>
      <trkpt lat="45.58273" lon="6.64561">
        <ele>1663</ele>
        <time>2019-12-30T15:36:22.000Z</time>
      </trkpt>
      <trkpt lat="45.5827" lon="6.64564">
        <ele>1661.4000244141</ele>
        <time>2019-12-30T15:36:23.000Z</time>
      </trkpt>
      <trkpt lat="45.58265" lon="6.64566">
        <ele>1659.8000488281</ele>
        <time>2019-12-30T15:36:24.000Z</time>
      </trkpt>
      <trkpt lat="45.5826" lon="6.64569">
        <ele>1658.4000244141</ele>
        <time>2019-12-30T15:36:25.000Z</time>
      </trkpt>
      <trkpt lat="45.58257" lon="6.64569">
        <ele>1657.4000244141</ele>
        <time>2019-12-30T15:36:26.000Z</time>
      </trkpt>
      <trkpt lat="45.58254" lon="6.6457">
        <ele>1656.8000488281</ele>
        <time>2019-12-30T15:36:27.000Z</time>
      </trkpt>
      <trkpt lat="45.58253" lon="6.64569">
        <ele>1655.1999511719</ele>
        <time>2019-12-30T15:36:29.000Z</time>
      </trkpt>
      <trkpt lat="45.58253" lon="6.64569">
        <ele>1654</ele>
        <time>2019-12-30T15:36:31.000Z</time>
      </trkpt>
      <trkpt lat="45.58253" lon="6.64569">
        <ele>1654</ele>
        <time>2019-12-30T15:36:32.000Z</time>
      </trkpt>
      <trkpt lat="45.58251" lon="6.64572">
        <ele>1654.5999755859</ele>
        <time>2019-12-30T15:36:41.000Z</time>
      </trkpt>
      <trkpt lat="45.58252" lon="6.64575">
        <ele>1654.5999755859</ele>
        <time>2019-12-30T15:36:42.000Z</time>
      </trkpt>
      <trkpt lat="45.58252" lon="6.64579">
        <ele>1654.1999511719</ele>
        <time>2019-12-30T15:36:45.000Z</time>
      </trkpt>
      <trkpt lat="45.58249" lon="6.64581">
        <ele>1652.1999511719</ele>
        <time>2019-12-30T15:36:48.000Z</time>
      </trkpt>
      <trkpt lat="45.58248" lon="6.64579">
        <ele>1650.4000244141</ele>
        <time>2019-12-30T15:36:50.000Z</time>
      </trkpt>
      <trkpt lat="45.58245" lon="6.64577">
        <ele>1649.1999511719</ele>
        <time>2019-12-30T15:36:53.000Z</time>
      </trkpt>
      <trkpt lat="45.58246" lon="6.64586">
        <ele>1648.8000488281</ele>
        <time>2019-12-30T15:36:55.000Z</time>
      </trkpt>
      <trkpt lat="45.58246" lon="6.64593">
        <ele>1648.4000244141</ele>
        <time>2019-12-30T15:36:56.000Z</time>
      </trkpt>
      <trkpt lat="45.58248" lon="6.64599">
        <ele>1648</ele>
        <time>2019-12-30T15:36:57.000Z</time>
      </trkpt>
      <trkpt lat="45.58251" lon="6.64608">
        <ele>1645.8000488281</ele>
        <time>2019-12-30T15:36:59.000Z</time>
      </trkpt>
      <trkpt lat="45.58252" lon="6.6461">
        <ele>1644.5999755859</ele>
        <time>2019-12-30T15:37:00.000Z</time>
      </trkpt>
      <trkpt lat="45.58251" lon="6.6461">
        <ele>1643.4000244141</ele>
        <time>2019-12-30T15:37:01.000Z</time>
      </trkpt>
      <trkpt lat="45.58251" lon="6.6461">
        <ele>1642.4000244141</ele>
        <time>2019-12-30T15:37:02.000Z</time>
      </trkpt>
      <trkpt lat="45.58251" lon="6.6461">
        <ele>1641.5999755859</ele>
        <time>2019-12-30T15:37:03.000Z</time>
      </trkpt>
      <trkpt lat="45.5825" lon="6.64613">
        <ele>1640.8000488281</ele>
        <time>2019-12-30T15:37:04.000Z</time>
      </trkpt>
      <trkpt lat="45.58248" lon="6.64613">
        <ele>1640.1999511719</ele>
        <time>2019-12-30T15:37:05.000Z</time>
      </trkpt>
      <trkpt lat="45.58243" lon="6.64612">
        <ele>1639.5999755859</ele>
        <time>2019-12-30T15:37:06.000Z</time>
      </trkpt>
      <trkpt lat="45.58239" lon="6.64611">
        <ele>1639</ele>
        <time>2019-12-30T15:37:07.000Z</time>
      </trkpt>
      <trkpt lat="45.58228" lon="6.64607">
        <ele>1638</ele>
        <time>2019-12-30T15:37:10.000Z</time>
      </trkpt>
      <trkpt lat="45.58226" lon="6.64605">
        <ele>1637.4000244141</ele>
        <time>2019-12-30T15:37:11.000Z</time>
      </trkpt>
      <trkpt lat="45.58224" lon="6.64605">
        <ele>1636.5999755859</ele>
        <time>2019-12-30T15:37:12.000Z</time>
      </trkpt>
      <trkpt lat="45.58225" lon="6.64618">
        <ele>1634.8000488281</ele>
        <time>2019-12-30T15:37:14.000Z</time>
      </trkpt>
      <trkpt lat="45.58231" lon="6.64627">
        <ele>1633.5999755859</ele>
        <time>2019-12-30T15:37:16.000Z</time>
      </trkpt>
      <trkpt lat="45.58233" lon="6.6463">
        <ele>1633</ele>
        <time>2019-12-30T15:37:17.000Z</time>
      </trkpt>
      <trkpt lat="45.58235" lon="6.64633">
        <ele>1631.8000488281</ele>
        <time>2019-12-30T15:37:18.000Z</time>
      </trkpt>
      <trkpt lat="45.58237" lon="6.64639">
        <ele>1630</ele>
        <time>2019-12-30T15:37:20.000Z</time>
      </trkpt>
      <trkpt lat="45.58232" lon="6.64648">
        <ele>1628</ele>
        <time>2019-12-30T15:37:22.000Z</time>
      </trkpt>
      <trkpt lat="45.58225" lon="6.64645">
        <ele>1626.1999511719</ele>
        <time>2019-12-30T15:37:24.000Z</time>
      </trkpt>
      <trkpt lat="45.58222" lon="6.64642">
        <ele>1625.4000244141</ele>
        <time>2019-12-30T15:37:25.000Z</time>
      </trkpt>
      <trkpt lat="45.5822" lon="6.6464">
        <ele>1624.1999511719</ele>
        <time>2019-12-30T15:37:26.000Z</time>
      </trkpt>
      <trkpt lat="45.58219" lon="6.6464">
        <ele>1622.8000488281</ele>
        <time>2019-12-30T15:37:27.000Z</time>
      </trkpt>
      <trkpt lat="45.58219" lon="6.6464">
        <ele>1622</ele>
        <time>2019-12-30T15:37:28.000Z</time>
      </trkpt>
      <trkpt lat="45.58219" lon="6.6464">
        <ele>1621.5999755859</ele>
        <time>2019-12-30T15:37:29.000Z</time>
      </trkpt>
      <trkpt lat="45.58217" lon="6.64641">
        <ele>1621.1999511719</ele>
        <time>2019-12-30T15:37:30.000Z</time>
      </trkpt>
      <trkpt lat="45.58208" lon="6.64642">
        <ele>1621</ele>
        <time>2019-12-30T15:37:32.000Z</time>
      </trkpt>
      <trkpt lat="45.58197" lon="6.64636">
        <ele>1620.4000244141</ele>
        <time>2019-12-30T15:37:34.000Z</time>
      </trkpt>
      <trkpt lat="45.58193" lon="6.64633">
        <ele>1619.5999755859</ele>
        <time>2019-12-30T15:37:35.000Z</time>
      </trkpt>
      <trkpt lat="45.58187" lon="6.64632">
        <ele>1618.4000244141</ele>
        <time>2019-12-30T15:37:36.000Z</time>
      </trkpt>
      <trkpt lat="45.58183" lon="6.64629">
        <ele>1617.4000244141</ele>
        <time>2019-12-30T15:37:37.000Z</time>
      </trkpt>
      <trkpt lat="45.5818" lon="6.64627">
        <ele>1616.1999511719</ele>
        <time>2019-12-30T15:37:38.000Z</time>
      </trkpt>
      <trkpt lat="45.58177" lon="6.64623">
        <ele>1614.4000244141</ele>
        <time>2019-12-30T15:37:40.000Z</time>
      </trkpt>
      <trkpt lat="45.58175" lon="6.64621">
        <ele>1612.1999511719</ele>
        <time>2019-12-30T15:37:42.000Z</time>
      </trkpt>
      <trkpt lat="45.58175" lon="6.64621">
        <ele>1611.4000244141</ele>
        <time>2019-12-30T15:37:44.000Z</time>
      </trkpt>
      <trkpt lat="45.58172" lon="6.64622">
        <ele>1611.1999511719</ele>
        <time>2019-12-30T15:37:52.000Z</time>
      </trkpt>
      <trkpt lat="45.58169" lon="6.64621">
        <ele>1611</ele>
        <time>2019-12-30T15:37:53.000Z</time>
      </trkpt>
      <trkpt lat="45.58166" lon="6.64622">
        <ele>1610.1999511719</ele>
        <time>2019-12-30T15:37:56.000Z</time>
      </trkpt>
      <trkpt lat="45.58166" lon="6.64622">
        <ele>1609.8000488281</ele>
        <time>2019-12-30T15:37:57.000Z</time>
      </trkpt>
      <trkpt lat="45.58166" lon="6.64622">
        <ele>1608.5999755859</ele>
        <time>2019-12-30T15:37:59.000Z</time>
      </trkpt>
      <trkpt lat="45.58166" lon="6.64623">
        <ele>1608.1999511719</ele>
        <time>2019-12-30T15:38:00.000Z</time>
      </trkpt>
      <trkpt lat="45.58169" lon="6.64635">
        <ele>1607.8000488281</ele>
        <time>2019-12-30T15:38:02.000Z</time>
      </trkpt>
      <trkpt lat="45.58172" lon="6.64646">
        <ele>1607.4000244141</ele>
        <time>2019-12-30T15:38:04.000Z</time>
      </trkpt>
      <trkpt lat="45.58171" lon="6.64651">
        <ele>1607.1999511719</ele>
        <time>2019-12-30T15:38:05.000Z</time>
      </trkpt>
      <trkpt lat="45.58166" lon="6.64653">
        <ele>1605.8000488281</ele>
        <time>2019-12-30T15:38:06.000Z</time>
      </trkpt>
      <trkpt lat="45.58159" lon="6.64651">
        <ele>1604.5999755859</ele>
        <time>2019-12-30T15:38:07.000Z</time>
      </trkpt>
      <trkpt lat="45.58155" lon="6.64648">
        <ele>1603.1999511719</ele>
        <time>2019-12-30T15:38:08.000Z</time>
      </trkpt>
      <trkpt lat="45.58153" lon="6.64647">
        <ele>1601.8000488281</ele>
        <time>2019-12-30T15:38:09.000Z</time>
      </trkpt>
      <trkpt lat="45.58152" lon="6.64649">
        <ele>1600.4000244141</ele>
        <time>2019-12-30T15:38:10.000Z</time>
      </trkpt>
      <trkpt lat="45.58153" lon="6.64653">
        <ele>1599.1999511719</ele>
        <time>2019-12-30T15:38:11.000Z</time>
      </trkpt>
      <trkpt lat="45.58152" lon="6.64659">
        <ele>1598</ele>
        <time>2019-12-30T15:38:13.000Z</time>
      </trkpt>
      <trkpt lat="45.5815" lon="6.64659">
        <ele>1597.4000244141</ele>
        <time>2019-12-30T15:38:14.000Z</time>
      </trkpt>
      <trkpt lat="45.58148" lon="6.6466">
        <ele>1596</ele>
        <time>2019-12-30T15:38:15.000Z</time>
      </trkpt>
      <trkpt lat="45.58146" lon="6.64662">
        <ele>1594.4000244141</ele>
        <time>2019-12-30T15:38:16.000Z</time>
      </trkpt>
      <trkpt lat="45.58145" lon="6.64663">
        <ele>1593.1999511719</ele>
        <time>2019-12-30T15:38:17.000Z</time>
      </trkpt>
      <trkpt lat="45.58142" lon="6.64665">
        <ele>1592</ele>
        <time>2019-12-30T15:38:19.000Z</time>
      </trkpt>
      <trkpt lat="45.58143" lon="6.64664">
        <ele>1591.8000488281</ele>
        <time>2019-12-30T15:38:21.000Z</time>
      </trkpt>
      <trkpt lat="45.58141" lon="6.64664">
        <ele>1592.1999511719</ele>
        <time>2019-12-30T15:38:29.000Z</time>
      </trkpt>
      <trkpt lat="45.5814" lon="6.64669">
        <ele>1592.8000488281</ele>
        <time>2019-12-30T15:38:30.000Z</time>
      </trkpt>
      <trkpt lat="45.58141" lon="6.64675">
        <ele>1592.8000488281</ele>
        <time>2019-12-30T15:38:31.000Z</time>
      </trkpt>
      <trkpt lat="45.58143" lon="6.64682">
        <ele>1591.1999511719</ele>
        <time>2019-12-30T15:38:34.000Z</time>
      </trkpt>
      <trkpt lat="45.5814" lon="6.64682">
        <ele>1590</ele>
        <time>2019-12-30T15:38:35.000Z</time>
      </trkpt>
      <trkpt lat="45.58138" lon="6.64681">
        <ele>1589</ele>
        <time>2019-12-30T15:38:36.000Z</time>
      </trkpt>
      <trkpt lat="45.58136" lon="6.64679">
        <ele>1588</ele>
        <time>2019-12-30T15:38:37.000Z</time>
      </trkpt>
      <trkpt lat="45.58135" lon="6.64679">
        <ele>1587.1999511719</ele>
        <time>2019-12-30T15:38:38.000Z</time>
      </trkpt>
      <trkpt lat="45.58132" lon="6.64684">
        <ele>1586</ele>
        <time>2019-12-30T15:38:40.000Z</time>
      </trkpt>
      <trkpt lat="45.58134" lon="6.64687">
        <ele>1585.5999755859</ele>
        <time>2019-12-30T15:38:41.000Z</time>
      </trkpt>
      <trkpt lat="45.58134" lon="6.64692">
        <ele>1585</ele>
        <time>2019-12-30T15:38:43.000Z</time>
      </trkpt>
      <trkpt lat="45.58131" lon="6.64696">
        <ele>1583.4000244141</ele>
        <time>2019-12-30T15:38:45.000Z</time>
      </trkpt>
      <trkpt lat="45.58128" lon="6.64694">
        <ele>1582.4000244141</ele>
        <time>2019-12-30T15:38:46.000Z</time>
      </trkpt>
      <trkpt lat="45.58125" lon="6.64691">
        <ele>1580.5999755859</ele>
        <time>2019-12-30T15:38:48.000Z</time>
      </trkpt>
      <trkpt lat="45.58123" lon="6.64691">
        <ele>1579.8000488281</ele>
        <time>2019-12-30T15:38:49.000Z</time>
      </trkpt>
      <trkpt lat="45.58122" lon="6.64693">
        <ele>1579.1999511719</ele>
        <time>2019-12-30T15:38:50.000Z</time>
      </trkpt>
      <trkpt lat="45.58123" lon="6.64698">
        <ele>1578.5999755859</ele>
        <time>2019-12-30T15:38:51.000Z</time>
      </trkpt>
      <trkpt lat="45.58124" lon="6.64701">
        <ele>1578.1999511719</ele>
        <time>2019-12-30T15:38:52.000Z</time>
      </trkpt>
      <trkpt lat="45.58126" lon="6.64705">
        <ele>1576.5999755859</ele>
        <time>2019-12-30T15:38:54.000Z</time>
      </trkpt>
      <trkpt lat="45.58126" lon="6.64707">
        <ele>1575.5999755859</ele>
        <time>2019-12-30T15:38:55.000Z</time>
      </trkpt>
      <trkpt lat="45.58124" lon="6.64709">
        <ele>1574.8000488281</ele>
        <time>2019-12-30T15:38:56.000Z</time>
      </trkpt>
      <trkpt lat="45.58119" lon="6.64707">
        <ele>1573</ele>
        <time>2019-12-30T15:38:58.000Z</time>
      </trkpt>
      <trkpt lat="45.58117" lon="6.64706">
        <ele>1572.1999511719</ele>
        <time>2019-12-30T15:38:59.000Z</time>
      </trkpt>
      <trkpt lat="45.58116" lon="6.64704">
        <ele>1571.5999755859</ele>
        <time>2019-12-30T15:39:00.000Z</time>
      </trkpt>
      <trkpt lat="45.58115" lon="6.64706">
        <ele>1571.1999511719</ele>
        <time>2019-12-30T15:39:01.000Z</time>
      </trkpt>
      <trkpt lat="45.58115" lon="6.6471">
        <ele>1570.5999755859</ele>
        <time>2019-12-30T15:39:02.000Z</time>
      </trkpt>
      <trkpt lat="45.58115" lon="6.64713">
        <ele>1570.4000244141</ele>
        <time>2019-12-30T15:39:03.000Z</time>
      </trkpt>
      <trkpt lat="45.58112" lon="6.6472">
        <ele>1569.1999511719</ele>
        <time>2019-12-30T15:39:06.000Z</time>
      </trkpt>
      <trkpt lat="45.58111" lon="6.64721">
        <ele>1568.4000244141</ele>
        <time>2019-12-30T15:39:07.000Z</time>
      </trkpt>
      <trkpt lat="45.58107" lon="6.64716">
        <ele>1567.4000244141</ele>
        <time>2019-12-30T15:39:08.000Z</time>
      </trkpt>
      <trkpt lat="45.58104" lon="6.64713">
        <ele>1566.4000244141</ele>
        <time>2019-12-30T15:39:09.000Z</time>
      </trkpt>
      <trkpt lat="45.58102" lon="6.64712">
        <ele>1565.5999755859</ele>
        <time>2019-12-30T15:39:10.000Z</time>
      </trkpt>
      <trkpt lat="45.58099" lon="6.64716">
        <ele>1564.5999755859</ele>
        <time>2019-12-30T15:39:12.000Z</time>
      </trkpt>
      <trkpt lat="45.58099" lon="6.64721">
        <ele>1563.5999755859</ele>
        <time>2019-12-30T15:39:14.000Z</time>
      </trkpt>
      <trkpt lat="45.58099" lon="6.64721">
        <ele>1563.1999511719</ele>
        <time>2019-12-30T15:39:15.000Z</time>
      </trkpt>
      <trkpt lat="45.58099" lon="6.64721">
        <ele>1562</ele>
        <time>2019-12-30T15:39:17.000Z</time>
      </trkpt>
      <trkpt lat="45.58099" lon="6.64721">
        <ele>1560.8000488281</ele>
        <time>2019-12-30T15:39:18.000Z</time>
      </trkpt>
      <trkpt lat="45.58099" lon="6.64721">
        <ele>1559.8000488281</ele>
        <time>2019-12-30T15:39:23.000Z</time>
      </trkpt>
      <trkpt lat="45.58099" lon="6.64721">
        <ele>1559.8000488281</ele>
        <time>2019-12-30T15:39:25.000Z</time>
      </trkpt>
      <trkpt lat="45.58099" lon="6.64722">
        <ele>1559.8000488281</ele>
        <time>2019-12-30T15:39:27.000Z</time>
      </trkpt>
      <trkpt lat="45.58091" lon="6.64726">
        <ele>1559.5999755859</ele>
        <time>2019-12-30T15:39:30.000Z</time>
      </trkpt>
      <trkpt lat="45.58081" lon="6.64715">
        <ele>1558.4000244141</ele>
        <time>2019-12-30T15:39:33.000Z</time>
      </trkpt>
      <trkpt lat="45.58074" lon="6.64711">
        <ele>1557</ele>
        <time>2019-12-30T15:39:35.000Z</time>
      </trkpt>
      <trkpt lat="45.58072" lon="6.64715">
        <ele>1556.4000244141</ele>
        <time>2019-12-30T15:39:36.000Z</time>
      </trkpt>
      <trkpt lat="45.58072" lon="6.64722">
        <ele>1555.5999755859</ele>
        <time>2019-12-30T15:39:37.000Z</time>
      </trkpt>
      <trkpt lat="45.58071" lon="6.64727">
        <ele>1555</ele>
        <time>2019-12-30T15:39:38.000Z</time>
      </trkpt>
      <trkpt lat="45.58071" lon="6.64729">
        <ele>1554.5999755859</ele>
        <time>2019-12-30T15:39:39.000Z</time>
      </trkpt>
      <trkpt lat="45.58071" lon="6.6473">
        <ele>1553</ele>
        <time>2019-12-30T15:39:41.000Z</time>
      </trkpt>
      <trkpt lat="45.58071" lon="6.6473">
        <ele>1551.1999511719</ele>
        <time>2019-12-30T15:39:42.000Z</time>
      </trkpt>
      <trkpt lat="45.5807" lon="6.6473">
        <ele>1550</ele>
        <time>2019-12-30T15:39:45.000Z</time>
      </trkpt>
      <trkpt lat="45.58071" lon="6.64733">
        <ele>1549.5999755859</ele>
        <time>2019-12-30T15:39:48.000Z</time>
      </trkpt>
      <trkpt lat="45.58075" lon="6.64749">
        <ele>1549</ele>
        <time>2019-12-30T15:39:52.000Z</time>
      </trkpt>
      <trkpt lat="45.58075" lon="6.6475">
        <ele>1548.8000488281</ele>
        <time>2019-12-30T15:39:53.000Z</time>
      </trkpt>
      <trkpt lat="45.58074" lon="6.64752">
        <ele>1547.8000488281</ele>
        <time>2019-12-30T15:39:55.000Z</time>
      </trkpt>
      <trkpt lat="45.5807" lon="6.64751">
        <ele>1547.4000244141</ele>
        <time>2019-12-30T15:39:56.000Z</time>
      </trkpt>
      <trkpt lat="45.58059" lon="6.64746">
        <ele>1546.4000244141</ele>
        <time>2019-12-30T15:39:59.000Z</time>
      </trkpt>
      <trkpt lat="45.5805" lon="6.64741">
        <ele>1545.4000244141</ele>
        <time>2019-12-30T15:40:01.000Z</time>
      </trkpt>
      <trkpt lat="45.58046" lon="6.64739">
        <ele>1544.8000488281</ele>
        <time>2019-12-30T15:40:02.000Z</time>
      </trkpt>
      <trkpt lat="45.58041" lon="6.64735">
        <ele>1543.1999511719</ele>
        <time>2019-12-30T15:40:04.000Z</time>
      </trkpt>
      <trkpt lat="45.58038" lon="6.64736">
        <ele>1542.5999755859</ele>
        <time>2019-12-30T15:40:05.000Z</time>
      </trkpt>
      <trkpt lat="45.58036" lon="6.64742">
        <ele>1541.4000244141</ele>
        <time>2019-12-30T15:40:06.000Z</time>
      </trkpt>
      <trkpt lat="45.58035" lon="6.64749">
        <ele>1540.8000488281</ele>
        <time>2019-12-30T15:40:07.000Z</time>
      </trkpt>
      <trkpt lat="45.58034" lon="6.64759">
        <ele>1539.8000488281</ele>
        <time>2019-12-30T15:40:09.000Z</time>
      </trkpt>
      <trkpt lat="45.58028" lon="6.64767">
        <ele>1538</ele>
        <time>2019-12-30T15:40:11.000Z</time>
      </trkpt>
      <trkpt lat="45.58022" lon="6.6476">
        <ele>1537</ele>
        <time>2019-12-30T15:40:12.000Z</time>
      </trkpt>
      <trkpt lat="45.5802" lon="6.64753">
        <ele>1536</ele>
        <time>2019-12-30T15:40:13.000Z</time>
      </trkpt>
      <trkpt lat="45.58019" lon="6.64747">
        <ele>1535</ele>
        <time>2019-12-30T15:40:14.000Z</time>
      </trkpt>
      <trkpt lat="45.58018" lon="6.64743">
        <ele>1534</ele>
        <time>2019-12-30T15:40:15.000Z</time>
      </trkpt>
      <trkpt lat="45.58016" lon="6.6474">
        <ele>1532.8000488281</ele>
        <time>2019-12-30T15:40:16.000Z</time>
      </trkpt>
      <trkpt lat="45.58014" lon="6.64743">
        <ele>1531.8000488281</ele>
        <time>2019-12-30T15:40:17.000Z</time>
      </trkpt>
      <trkpt lat="45.58012" lon="6.64753">
        <ele>1530</ele>
        <time>2019-12-30T15:40:19.000Z</time>
      </trkpt>
      <trkpt lat="45.58012" lon="6.64755">
        <ele>1529.4000244141</ele>
        <time>2019-12-30T15:40:20.000Z</time>
      </trkpt>
      <trkpt lat="45.58012" lon="6.64756">
        <ele>1528.8000488281</ele>
        <time>2019-12-30T15:40:21.000Z</time>
      </trkpt>
      <trkpt lat="45.58009" lon="6.64764">
        <ele>1527.5999755859</ele>
        <time>2019-12-30T15:40:23.000Z</time>
      </trkpt>
      <trkpt lat="45.58009" lon="6.64771">
        <ele>1527.1999511719</ele>
        <time>2019-12-30T15:40:24.000Z</time>
      </trkpt>
      <trkpt lat="45.5801" lon="6.64776">
        <ele>1526.4000244141</ele>
        <time>2019-12-30T15:40:26.000Z</time>
      </trkpt>
      <trkpt lat="45.5801" lon="6.64776">
        <ele>1525.8000488281</ele>
        <time>2019-12-30T15:40:27.000Z</time>
      </trkpt>
      <trkpt lat="45.58009" lon="6.64776">
        <ele>1525.1999511719</ele>
        <time>2019-12-30T15:40:28.000Z</time>
      </trkpt>
      <trkpt lat="45.58009" lon="6.64777">
        <ele>1523.8000488281</ele>
        <time>2019-12-30T15:40:30.000Z</time>
      </trkpt>
      <trkpt lat="45.58008" lon="6.6478">
        <ele>1523.5999755859</ele>
        <time>2019-12-30T15:40:31.000Z</time>
      </trkpt>
      <trkpt lat="45.58008" lon="6.64785">
        <ele>1523.4000244141</ele>
        <time>2019-12-30T15:40:32.000Z</time>
      </trkpt>
      <trkpt lat="45.58007" lon="6.64805">
        <ele>1522.5999755859</ele>
        <time>2019-12-30T15:40:35.000Z</time>
      </trkpt>
      <trkpt lat="45.58" lon="6.6481">
        <ele>1520.8000488281</ele>
        <time>2019-12-30T15:40:37.000Z</time>
      </trkpt>
      <trkpt lat="45.57995" lon="6.64803">
        <ele>1519.8000488281</ele>
        <time>2019-12-30T15:40:38.000Z</time>
      </trkpt>
      <trkpt lat="45.5799" lon="6.64798">
        <ele>1518.5999755859</ele>
        <time>2019-12-30T15:40:39.000Z</time>
      </trkpt>
      <trkpt lat="45.57987" lon="6.64797">
        <ele>1517.4000244141</ele>
        <time>2019-12-30T15:40:40.000Z</time>
      </trkpt>
      <trkpt lat="45.57982" lon="6.64801">
        <ele>1516.1999511719</ele>
        <time>2019-12-30T15:40:41.000Z</time>
      </trkpt>
      <trkpt lat="45.57981" lon="6.64808">
        <ele>1515</ele>
        <time>2019-12-30T15:40:42.000Z</time>
      </trkpt>
      <trkpt lat="45.57982" lon="6.64815">
        <ele>1513.5999755859</ele>
        <time>2019-12-30T15:40:43.000Z</time>
      </trkpt>
      <trkpt lat="45.57983" lon="6.64817">
        <ele>1512.1999511719</ele>
        <time>2019-12-30T15:40:44.000Z</time>
      </trkpt>
      <trkpt lat="45.57983" lon="6.64818">
        <ele>1510.5999755859</ele>
        <time>2019-12-30T15:40:45.000Z</time>
      </trkpt>
      <trkpt lat="45.57983" lon="6.6482">
        <ele>1509.1999511719</ele>
        <time>2019-12-30T15:40:46.000Z</time>
      </trkpt>
      <trkpt lat="45.57983" lon="6.64824">
        <ele>1508.1999511719</ele>
        <time>2019-12-30T15:40:47.000Z</time>
      </trkpt>
      <trkpt lat="45.5798" lon="6.64828">
        <ele>1507.4000244141</ele>
        <time>2019-12-30T15:40:48.000Z</time>
      </trkpt>
      <trkpt lat="45.57976" lon="6.64832">
        <ele>1507</ele>
        <time>2019-12-30T15:40:49.000Z</time>
      </trkpt>
      <trkpt lat="45.57967" lon="6.64831">
        <ele>1505.5999755859</ele>
        <time>2019-12-30T15:40:51.000Z</time>
      </trkpt>
      <trkpt lat="45.57961" lon="6.64826">
        <ele>1504.5999755859</ele>
        <time>2019-12-30T15:40:52.000Z</time>
      </trkpt>
      <trkpt lat="45.57957" lon="6.64823">
        <ele>1503.5999755859</ele>
        <time>2019-12-30T15:40:53.000Z</time>
      </trkpt>
      <trkpt lat="45.57952" lon="6.6482">
        <ele>1501.1999511719</ele>
        <time>2019-12-30T15:40:54.000Z</time>
      </trkpt>
      <trkpt lat="45.57947" lon="6.64818">
        <ele>1500.1999511719</ele>
        <time>2019-12-30T15:40:55.000Z</time>
      </trkpt>
      <trkpt lat="45.57944" lon="6.64817">
        <ele>1499.1999511719</ele>
        <time>2019-12-30T15:40:56.000Z</time>
      </trkpt>
      <trkpt lat="45.57939" lon="6.6482">
        <ele>1498.5999755859</ele>
        <time>2019-12-30T15:40:57.000Z</time>
      </trkpt>
      <trkpt lat="45.57941" lon="6.64828">
        <ele>1497.5999755859</ele>
        <time>2019-12-30T15:40:59.000Z</time>
      </trkpt>
      <trkpt lat="45.57943" lon="6.6483">
        <ele>1497.1999511719</ele>
        <time>2019-12-30T15:41:00.000Z</time>
      </trkpt>
      <trkpt lat="45.57946" lon="6.64838">
        <ele>1495.5999755859</ele>
        <time>2019-12-30T15:41:02.000Z</time>
      </trkpt>
      <trkpt lat="45.57947" lon="6.64842">
        <ele>1495</ele>
        <time>2019-12-30T15:41:03.000Z</time>
      </trkpt>
      <trkpt lat="45.57949" lon="6.64845">
        <ele>1494.4000244141</ele>
        <time>2019-12-30T15:41:04.000Z</time>
      </trkpt>
      <trkpt lat="45.57952" lon="6.64851">
        <ele>1493</ele>
        <time>2019-12-30T15:41:06.000Z</time>
      </trkpt>
      <trkpt lat="45.57952" lon="6.64855">
        <ele>1492.4000244141</ele>
        <time>2019-12-30T15:41:07.000Z</time>
      </trkpt>
      <trkpt lat="45.57948" lon="6.6486">
        <ele>1491.5999755859</ele>
        <time>2019-12-30T15:41:08.000Z</time>
      </trkpt>
      <trkpt lat="45.57939" lon="6.64864">
        <ele>1490.1999511719</ele>
        <time>2019-12-30T15:41:10.000Z</time>
      </trkpt>
      <trkpt lat="45.57929" lon="6.6486">
        <ele>1488.5999755859</ele>
        <time>2019-12-30T15:41:12.000Z</time>
      </trkpt>
      <trkpt lat="45.57925" lon="6.64858">
        <ele>1487.5999755859</ele>
        <time>2019-12-30T15:41:13.000Z</time>
      </trkpt>
      <trkpt lat="45.57921" lon="6.64856">
        <ele>1486.5999755859</ele>
        <time>2019-12-30T15:41:14.000Z</time>
      </trkpt>
      <trkpt lat="45.57917" lon="6.64855">
        <ele>1485.5999755859</ele>
        <time>2019-12-30T15:41:15.000Z</time>
      </trkpt>
      <trkpt lat="45.57914" lon="6.64858">
        <ele>1484.5999755859</ele>
        <time>2019-12-30T15:41:16.000Z</time>
      </trkpt>
      <trkpt lat="45.57911" lon="6.64865">
        <ele>1483.8000488281</ele>
        <time>2019-12-30T15:41:17.000Z</time>
      </trkpt>
      <trkpt lat="45.57916" lon="6.64878">
        <ele>1482.5999755859</ele>
        <time>2019-12-30T15:41:19.000Z</time>
      </trkpt>
      <trkpt lat="45.57923" lon="6.64887">
        <ele>1481</ele>
        <time>2019-12-30T15:41:21.000Z</time>
      </trkpt>
      <trkpt lat="45.57926" lon="6.64891">
        <ele>1480</ele>
        <time>2019-12-30T15:41:22.000Z</time>
      </trkpt>
      <trkpt lat="45.57928" lon="6.64897">
        <ele>1479</ele>
        <time>2019-12-30T15:41:23.000Z</time>
      </trkpt>
      <trkpt lat="45.57933" lon="6.64903">
        <ele>1477.4000244141</ele>
        <time>2019-12-30T15:41:25.000Z</time>
      </trkpt>
      <trkpt lat="45.57935" lon="6.64905">
        <ele>1476.5999755859</ele>
        <time>2019-12-30T15:41:26.000Z</time>
      </trkpt>
      <trkpt lat="45.57936" lon="6.64908">
        <ele>1475.8000488281</ele>
        <time>2019-12-30T15:41:27.000Z</time>
      </trkpt>
      <trkpt lat="45.57935" lon="6.64915">
        <ele>1474.5999755859</ele>
        <time>2019-12-30T15:41:29.000Z</time>
      </trkpt>
      <trkpt lat="45.57931" lon="6.6492">
        <ele>1474.1999511719</ele>
        <time>2019-12-30T15:41:30.000Z</time>
      </trkpt>
      <trkpt lat="45.57922" lon="6.64918">
        <ele>1472.8000488281</ele>
        <time>2019-12-30T15:41:32.000Z</time>
      </trkpt>
      <trkpt lat="45.57918" lon="6.64916">
        <ele>1472</ele>
        <time>2019-12-30T15:41:33.000Z</time>
      </trkpt>
      <trkpt lat="45.57913" lon="6.64916">
        <ele>1471</ele>
        <time>2019-12-30T15:41:34.000Z</time>
      </trkpt>
      <trkpt lat="45.57909" lon="6.64927">
        <ele>1469.1999511719</ele>
        <time>2019-12-30T15:41:36.000Z</time>
      </trkpt>
      <trkpt lat="45.57914" lon="6.64934">
        <ele>1467.5999755859</ele>
        <time>2019-12-30T15:41:38.000Z</time>
      </trkpt>
      <trkpt lat="45.57917" lon="6.64938">
        <ele>1466.1999511719</ele>
        <time>2019-12-30T15:41:40.000Z</time>
      </trkpt>
      <trkpt lat="45.57922" lon="6.64948">
        <ele>1464</ele>
        <time>2019-12-30T15:41:42.000Z</time>
      </trkpt>
      <trkpt lat="45.57916" lon="6.6496">
        <ele>1462.4000244141</ele>
        <time>2019-12-30T15:41:44.000Z</time>
      </trkpt>
      <trkpt lat="45.57911" lon="6.64964">
        <ele>1461.4000244141</ele>
        <time>2019-12-30T15:41:45.000Z</time>
      </trkpt>
      <trkpt lat="45.57904" lon="6.64963">
        <ele>1460.1999511719</ele>
        <time>2019-12-30T15:41:46.000Z</time>
      </trkpt>
      <trkpt lat="45.57899" lon="6.64962">
        <ele>1459.1999511719</ele>
        <time>2019-12-30T15:41:47.000Z</time>
      </trkpt>
      <trkpt lat="45.57894" lon="6.64962">
        <ele>1458.1999511719</ele>
        <time>2019-12-30T15:41:48.000Z</time>
      </trkpt>
      <trkpt lat="45.57889" lon="6.64966">
        <ele>1456.8000488281</ele>
        <time>2019-12-30T15:41:49.000Z</time>
      </trkpt>
      <trkpt lat="45.57889" lon="6.6497">
        <ele>1455.5999755859</ele>
        <time>2019-12-30T15:41:50.000Z</time>
      </trkpt>
      <trkpt lat="45.57891" lon="6.64972">
        <ele>1454.5999755859</ele>
        <time>2019-12-30T15:41:51.000Z</time>
      </trkpt>
      <trkpt lat="45.57892" lon="6.64973">
        <ele>1453.8000488281</ele>
        <time>2019-12-30T15:41:52.000Z</time>
      </trkpt>
      <trkpt lat="45.57892" lon="6.64973">
        <ele>1453</ele>
        <time>2019-12-30T15:41:53.000Z</time>
      </trkpt>
      <trkpt lat="45.57892" lon="6.64973">
        <ele>1451.5999755859</ele>
        <time>2019-12-30T15:41:55.000Z</time>
      </trkpt>
      <trkpt lat="45.57892" lon="6.64973">
        <ele>1450.5999755859</ele>
        <time>2019-12-30T15:41:58.000Z</time>
      </trkpt>
      <trkpt lat="45.57892" lon="6.64973">
        <ele>1450.1999511719</ele>
        <time>2019-12-30T15:42:03.000Z</time>
      </trkpt>
      <trkpt lat="45.57892" lon="6.64974">
        <ele>1450.1999511719</ele>
        <time>2019-12-30T15:42:07.000Z</time>
      </trkpt>
      <trkpt lat="45.57891" lon="6.64984">
        <ele>1450</ele>
        <time>2019-12-30T15:42:09.000Z</time>
      </trkpt>
      <trkpt lat="45.57898" lon="6.64996">
        <ele>1449.4000244141</ele>
        <time>2019-12-30T15:42:11.000Z</time>
      </trkpt>
      <trkpt lat="45.579" lon="6.65">
        <ele>1449</ele>
        <time>2019-12-30T15:42:12.000Z</time>
      </trkpt>
      <trkpt lat="45.57903" lon="6.65004">
        <ele>1448.4000244141</ele>
        <time>2019-12-30T15:42:13.000Z</time>
      </trkpt>
      <trkpt lat="45.57904" lon="6.65016">
        <ele>1446.4000244141</ele>
        <time>2019-12-30T15:42:15.000Z</time>
      </trkpt>
      <trkpt lat="45.579" lon="6.65022">
        <ele>1445.1999511719</ele>
        <time>2019-12-30T15:42:16.000Z</time>
      </trkpt>
      <trkpt lat="45.57895" lon="6.65024">
        <ele>1444.1999511719</ele>
        <time>2019-12-30T15:42:17.000Z</time>
      </trkpt>
      <trkpt lat="45.5789" lon="6.65025">
        <ele>1443</ele>
        <time>2019-12-30T15:42:18.000Z</time>
      </trkpt>
      <trkpt lat="45.57884" lon="6.65021">
        <ele>1441.8000488281</ele>
        <time>2019-12-30T15:42:19.000Z</time>
      </trkpt>
      <trkpt lat="45.57878" lon="6.65019">
        <ele>1440.5999755859</ele>
        <time>2019-12-30T15:42:20.000Z</time>
      </trkpt>
      <trkpt lat="45.57873" lon="6.65019">
        <ele>1439</ele>
        <time>2019-12-30T15:42:21.000Z</time>
      </trkpt>
      <trkpt lat="45.57871" lon="6.65021">
        <ele>1437.1999511719</ele>
        <time>2019-12-30T15:42:22.000Z</time>
      </trkpt>
      <trkpt lat="45.57874" lon="6.65029">
        <ele>1435.4000244141</ele>
        <time>2019-12-30T15:42:23.000Z</time>
      </trkpt>
      <trkpt lat="45.57878" lon="6.65038">
        <ele>1434.1999511719</ele>
        <time>2019-12-30T15:42:24.000Z</time>
      </trkpt>
      <trkpt lat="45.57883" lon="6.65045">
        <ele>1433</ele>
        <time>2019-12-30T15:42:25.000Z</time>
      </trkpt>
      <trkpt lat="45.57887" lon="6.65051">
        <ele>1432</ele>
        <time>2019-12-30T15:42:26.000Z</time>
      </trkpt>
      <trkpt lat="45.57891" lon="6.65056">
        <ele>1430.5999755859</ele>
        <time>2019-12-30T15:42:27.000Z</time>
      </trkpt>
      <trkpt lat="45.57893" lon="6.65062">
        <ele>1429.1999511719</ele>
        <time>2019-12-30T15:42:28.000Z</time>
      </trkpt>
      <trkpt lat="45.57891" lon="6.65067">
        <ele>1427.8000488281</ele>
        <time>2019-12-30T15:42:29.000Z</time>
      </trkpt>
      <trkpt lat="45.57887" lon="6.65072">
        <ele>1426.8000488281</ele>
        <time>2019-12-30T15:42:30.000Z</time>
      </trkpt>
      <trkpt lat="45.57883" lon="6.65075">
        <ele>1424.8000488281</ele>
        <time>2019-12-30T15:42:31.000Z</time>
      </trkpt>
      <trkpt lat="45.57876" lon="6.65071">
        <ele>1423.5999755859</ele>
        <time>2019-12-30T15:42:32.000Z</time>
      </trkpt>
      <trkpt lat="45.57869" lon="6.65072">
        <ele>1422.1999511719</ele>
        <time>2019-12-30T15:42:33.000Z</time>
      </trkpt>
      <trkpt lat="45.57865" lon="6.65073">
        <ele>1420.8000488281</ele>
        <time>2019-12-30T15:42:34.000Z</time>
      </trkpt>
      <trkpt lat="45.57867" lon="6.65078">
        <ele>1419.8000488281</ele>
        <time>2019-12-30T15:42:35.000Z</time>
      </trkpt>
      <trkpt lat="45.57873" lon="6.65083">
        <ele>1418</ele>
        <time>2019-12-30T15:42:37.000Z</time>
      </trkpt>
      <trkpt lat="45.57874" lon="6.65085">
        <ele>1416.8000488281</ele>
        <time>2019-12-30T15:42:38.000Z</time>
      </trkpt>
      <trkpt lat="45.57875" lon="6.65087">
        <ele>1415.5999755859</ele>
        <time>2019-12-30T15:42:39.000Z</time>
      </trkpt>
      <trkpt lat="45.57876" lon="6.6509">
        <ele>1414.4000244141</ele>
        <time>2019-12-30T15:42:40.000Z</time>
      </trkpt>
      <trkpt lat="45.57869" lon="6.65092">
        <ele>1412.8000488281</ele>
        <time>2019-12-30T15:42:42.000Z</time>
      </trkpt>
      <trkpt lat="45.57864" lon="6.65094">
        <ele>1411.4000244141</ele>
        <time>2019-12-30T15:42:44.000Z</time>
      </trkpt>
      <trkpt lat="45.57863" lon="6.65097">
        <ele>1410.5999755859</ele>
        <time>2019-12-30T15:42:45.000Z</time>
      </trkpt>
      <trkpt lat="45.57866" lon="6.65102">
        <ele>1409.8000488281</ele>
        <time>2019-12-30T15:42:46.000Z</time>
      </trkpt>
      <trkpt lat="45.57869" lon="6.65105">
        <ele>1409.1999511719</ele>
        <time>2019-12-30T15:42:47.000Z</time>
      </trkpt>
      <trkpt lat="45.57871" lon="6.65109">
        <ele>1408.5999755859</ele>
        <time>2019-12-30T15:42:48.000Z</time>
      </trkpt>
      <trkpt lat="45.57875" lon="6.65115">
        <ele>1407</ele>
        <time>2019-12-30T15:42:50.000Z</time>
      </trkpt>
      <trkpt lat="45.57876" lon="6.65117">
        <ele>1406</ele>
        <time>2019-12-30T15:42:51.000Z</time>
      </trkpt>
      <trkpt lat="45.57877" lon="6.65119">
        <ele>1405.1999511719</ele>
        <time>2019-12-30T15:42:52.000Z</time>
      </trkpt>
      <trkpt lat="45.57878" lon="6.65121">
        <ele>1404.4000244141</ele>
        <time>2019-12-30T15:42:53.000Z</time>
      </trkpt>
      <trkpt lat="45.57878" lon="6.65126">
        <ele>1403.8000488281</ele>
        <time>2019-12-30T15:42:54.000Z</time>
      </trkpt>
      <trkpt lat="45.57874" lon="6.6513">
        <ele>1402.5999755859</ele>
        <time>2019-12-30T15:42:55.000Z</time>
      </trkpt>
      <trkpt lat="45.57864" lon="6.65134">
        <ele>1401</ele>
        <time>2019-12-30T15:42:57.000Z</time>
      </trkpt>
      <trkpt lat="45.57858" lon="6.65135">
        <ele>1400.1999511719</ele>
        <time>2019-12-30T15:42:58.000Z</time>
      </trkpt>
      <trkpt lat="45.57853" lon="6.65135">
        <ele>1399.4000244141</ele>
        <time>2019-12-30T15:42:59.000Z</time>
      </trkpt>
      <trkpt lat="45.57849" lon="6.65138">
        <ele>1398.4000244141</ele>
        <time>2019-12-30T15:43:00.000Z</time>
      </trkpt>
      <trkpt lat="45.57847" lon="6.65145">
        <ele>1397.1999511719</ele>
        <time>2019-12-30T15:43:01.000Z</time>
      </trkpt>
      <trkpt lat="45.57848" lon="6.65152">
        <ele>1396</ele>
        <time>2019-12-30T15:43:02.000Z</time>
      </trkpt>
      <trkpt lat="45.57854" lon="6.65163">
        <ele>1394.4000244141</ele>
        <time>2019-12-30T15:43:04.000Z</time>
      </trkpt>
      <trkpt lat="45.57857" lon="6.65166">
        <ele>1393.8000488281</ele>
        <time>2019-12-30T15:43:05.000Z</time>
      </trkpt>
      <trkpt lat="45.57859" lon="6.6517">
        <ele>1393.1999511719</ele>
        <time>2019-12-30T15:43:06.000Z</time>
      </trkpt>
      <trkpt lat="45.57861" lon="6.65178">
        <ele>1391.5999755859</ele>
        <time>2019-12-30T15:43:08.000Z</time>
      </trkpt>
      <trkpt lat="45.57862" lon="6.65184">
        <ele>1390.8000488281</ele>
        <time>2019-12-30T15:43:09.000Z</time>
      </trkpt>
      <trkpt lat="45.57862" lon="6.6519">
        <ele>1390</ele>
        <time>2019-12-30T15:43:10.000Z</time>
      </trkpt>
      <trkpt lat="45.57854" lon="6.652">
        <ele>1388.8000488281</ele>
        <time>2019-12-30T15:43:12.000Z</time>
      </trkpt>
      <trkpt lat="45.57848" lon="6.65198">
        <ele>1387.1999511719</ele>
        <time>2019-12-30T15:43:14.000Z</time>
      </trkpt>
      <trkpt lat="45.57848" lon="6.65196">
        <ele>1385.4000244141</ele>
        <time>2019-12-30T15:43:16.000Z</time>
      </trkpt>
      <trkpt lat="45.57848" lon="6.65196">
        <ele>1384.4000244141</ele>
        <time>2019-12-30T15:43:17.000Z</time>
      </trkpt>
      <trkpt lat="45.57848" lon="6.65196">
        <ele>1383.8000488281</ele>
        <time>2019-12-30T15:43:18.000Z</time>
      </trkpt>
      <trkpt lat="45.57847" lon="6.65198">
        <ele>1383</ele>
        <time>2019-12-30T15:43:29.000Z</time>
      </trkpt>
      <trkpt lat="45.57852" lon="6.65207">
        <ele>1382.8000488281</ele>
        <time>2019-12-30T15:43:32.000Z</time>
      </trkpt>
      <trkpt lat="45.57851" lon="6.65206">
        <ele>1382.8000488281</ele>
        <time>2019-12-30T15:43:33.000Z</time>
      </trkpt>
      <trkpt lat="45.57851" lon="6.65206">
        <ele>1381.8000488281</ele>
        <time>2019-12-30T15:43:35.000Z</time>
      </trkpt>
      <trkpt lat="45.57851" lon="6.65206">
        <ele>1381.1999511719</ele>
        <time>2019-12-30T15:43:36.000Z</time>
      </trkpt>
      <trkpt lat="45.57852" lon="6.65207">
        <ele>1380.5999755859</ele>
        <time>2019-12-30T15:43:37.000Z</time>
      </trkpt>
      <trkpt lat="45.57848" lon="6.65208">
        <ele>1380</ele>
        <time>2019-12-30T15:43:39.000Z</time>
      </trkpt>
      <trkpt lat="45.57846" lon="6.65208">
        <ele>1379.5999755859</ele>
        <time>2019-12-30T15:43:40.000Z</time>
      </trkpt>
      <trkpt lat="45.57842" lon="6.65209">
        <ele>1379.1999511719</ele>
        <time>2019-12-30T15:43:41.000Z</time>
      </trkpt>
      <trkpt lat="45.57839" lon="6.65209">
        <ele>1378.8000488281</ele>
        <time>2019-12-30T15:43:42.000Z</time>
      </trkpt>
      <trkpt lat="45.57837" lon="6.65208">
        <ele>1378.1999511719</ele>
        <time>2019-12-30T15:43:43.000Z</time>
      </trkpt>
      <trkpt lat="45.57838" lon="6.65208">
        <ele>1377.5999755859</ele>
        <time>2019-12-30T15:43:45.000Z</time>
      </trkpt>
      <trkpt lat="45.57838" lon="6.65209">
        <ele>1377.4000244141</ele>
        <time>2019-12-30T15:43:46.000Z</time>
      </trkpt>
      <trkpt lat="45.57839" lon="6.65211">
        <ele>1377</ele>
        <time>2019-12-30T15:43:47.000Z</time>
      </trkpt>
      <trkpt lat="45.57845" lon="6.65213">
        <ele>1376.5999755859</ele>
        <time>2019-12-30T15:43:49.000Z</time>
      </trkpt>
      <trkpt lat="45.57854" lon="6.65223">
        <ele>1375.5999755859</ele>
        <time>2019-12-30T15:43:53.000Z</time>
      </trkpt>
      <trkpt lat="45.57855" lon="6.65223">
        <ele>1375.4000244141</ele>
        <time>2019-12-30T15:43:54.000Z</time>
      </trkpt>
      <trkpt lat="45.57855" lon="6.65226">
        <ele>1374.5999755859</ele>
        <time>2019-12-30T15:43:56.000Z</time>
      </trkpt>
      <trkpt lat="45.57854" lon="6.65227">
        <ele>1374.1999511719</ele>
        <time>2019-12-30T15:43:57.000Z</time>
      </trkpt>
      <trkpt lat="45.57851" lon="6.65233">
        <ele>1373</ele>
        <time>2019-12-30T15:44:01.000Z</time>
      </trkpt>
      <trkpt lat="45.57851" lon="6.65233">
        <ele>1372.4000244141</ele>
        <time>2019-12-30T15:44:08.000Z</time>
      </trkpt>
      <trkpt lat="45.57851" lon="6.65233">
        <ele>1372.1999511719</ele>
        <time>2019-12-30T15:44:23.000Z</time>
      </trkpt>
      <trkpt lat="45.57851" lon="6.65233">
        <ele>1372.1999511719</ele>
        <time>2019-12-30T15:44:37.000Z</time>
      </trkpt>
      <trkpt lat="45.57851" lon="6.65233">
        <ele>1372.1999511719</ele>
        <time>2019-12-30T15:44:47.000Z</time>
      </trkpt>
      <trkpt lat="45.57851" lon="6.65233">
        <ele>1371.5999755859</ele>
        <time>2019-12-30T15:44:48.000Z</time>
      </trkpt>
      <trkpt lat="45.57851" lon="6.65233">
        <ele>1370.1999511719</ele>
        <time>2019-12-30T15:44:50.000Z</time>
      </trkpt>
      <trkpt lat="45.57851" lon="6.65233">
        <ele>1368.8000488281</ele>
        <time>2019-12-30T15:44:51.000Z</time>
      </trkpt>
      <trkpt lat="45.57851" lon="6.65233">
        <ele>1367.4000244141</ele>
        <time>2019-12-30T15:44:53.000Z</time>
      </trkpt>
      <trkpt lat="45.57851" lon="6.65233">
        <ele>1371.5999755859</ele>
        <time>2019-12-30T15:44:55.000Z</time>
      </trkpt>
      <trkpt lat="45.57851" lon="6.65233">
        <ele>1373.5999755859</ele>
        <time>2019-12-30T15:44:56.000Z</time>
      </trkpt>
      <trkpt lat="45.57851" lon="6.65233">
        <ele>1375</ele>
        <time>2019-12-30T15:44:58.000Z</time>
      </trkpt>
      <trkpt lat="45.57851" lon="6.65233">
        <ele>1373.4000244141</ele>
        <time>2019-12-30T15:45:00.000Z</time>
      </trkpt>
      <trkpt lat="45.57851" lon="6.65233">
        <ele>1372.4000244141</ele>
        <time>2019-12-30T15:45:02.000Z</time>
      </trkpt>
      <trkpt lat="45.57851" lon="6.65233">
        <ele>1372.1999511719</ele>
        <time>2019-12-30T15:45:13.000Z</time>
      </trkpt>
      <trkpt lat="45.57851" lon="6.65233">
        <ele>1372.4000244141</ele>
        <time>2019-12-30T15:45:32.000Z</time>
      </trkpt>
      <trkpt lat="45.57851" lon="6.65233">
        <ele>1372.1999511719</ele>
        <time>2019-12-30T15:45:44.000Z</time>
      </trkpt>
    </trkseg>
  </trk>
</gpx>